<?xml version="1.0" encoding="UTF-8" standalone="no" ?>
<gpx xmlns="http://www.topografix.com/GPX/1/1" xmlns:xsi="http://www.w3.org/2001/XMLSchema-instance" xsi:schemaLocation="http://www.topografix.com/GPX/1/1 http://www.topografix.com/GPX/1/1/gpx.xsd" version="1.1" creator="VisuGPX - https://www.visugpx.com">
  <metadata>
    <name>De Yerres à  Sucy Boucle 18 km</name>
    <desc><![CDATA[Reconnaissance de la 25-30 de décembre
Animatrice Pascale]]></desc>
  </metadata>
  <trk>
    <name><![CDATA[De Yerres à  Sucy Boucle 18 km_1]]></name>
    <trkseg>
      <trkpt lat="48.71531" lon="2.47946">
        <ele>34.9</ele>
        <time>2018-12-03T07:36:31Z</time>
      </trkpt>
      <trkpt lat="48.71531" lon="2.47946">
        <ele>96.805</ele>
        <time>2018-12-03T07:36:39Z</time>
      </trkpt>
      <trkpt lat="48.71534" lon="2.47951">
        <ele>106.962</ele>
        <time>2018-12-03T07:36:48Z</time>
      </trkpt>
      <trkpt lat="48.71535" lon="2.47958">
        <ele>105.248</ele>
        <time>2018-12-03T07:36:53Z</time>
      </trkpt>
      <trkpt lat="48.71536" lon="2.47963">
        <ele>104.811</ele>
        <time>2018-12-03T07:36:55Z</time>
      </trkpt>
      <trkpt lat="48.71536" lon="2.47967">
        <ele>101.991</ele>
        <time>2018-12-03T07:36:57Z</time>
      </trkpt>
      <trkpt lat="48.7154" lon="2.47972">
        <ele>100.148</ele>
        <time>2018-12-03T07:37:01Z</time>
      </trkpt>
      <trkpt lat="48.71542" lon="2.47979">
        <ele>91.7821</ele>
        <time>2018-12-03T07:37:09Z</time>
      </trkpt>
      <trkpt lat="48.71547" lon="2.47983">
        <ele>90.8506</ele>
        <time>2018-12-03T07:37:11Z</time>
      </trkpt>
      <trkpt lat="48.71551" lon="2.47989">
        <ele>90.7881</ele>
        <time>2018-12-03T07:37:16Z</time>
      </trkpt>
      <trkpt lat="48.71555" lon="2.47997">
        <ele>90.7762</ele>
        <time>2018-12-03T07:37:20Z</time>
      </trkpt>
      <trkpt lat="48.71555" lon="2.48004">
        <ele>90.4595</ele>
        <time>2018-12-03T07:37:25Z</time>
      </trkpt>
      <trkpt lat="48.71556" lon="2.48013">
        <ele>90.1473</ele>
        <time>2018-12-03T07:37:28Z</time>
      </trkpt>
      <trkpt lat="48.71557" lon="2.48019">
        <ele>89.9142</ele>
        <time>2018-12-03T07:37:30Z</time>
      </trkpt>
      <trkpt lat="48.7156" lon="2.48025">
        <ele>89.4935</ele>
        <time>2018-12-03T07:37:34Z</time>
      </trkpt>
      <trkpt lat="48.71565" lon="2.48029">
        <ele>89.1723</ele>
        <time>2018-12-03T07:37:38Z</time>
      </trkpt>
      <trkpt lat="48.71569" lon="2.48033">
        <ele>88.8402</ele>
        <time>2018-12-03T07:37:43Z</time>
      </trkpt>
      <trkpt lat="48.71571" lon="2.48039">
        <ele>88.6722</ele>
        <time>2018-12-03T07:37:46Z</time>
      </trkpt>
      <trkpt lat="48.71574" lon="2.48047">
        <ele>88.4345</ele>
        <time>2018-12-03T07:37:52Z</time>
      </trkpt>
      <trkpt lat="48.71574" lon="2.48057">
        <ele>88.2114</ele>
        <time>2018-12-03T07:37:58Z</time>
      </trkpt>
      <trkpt lat="48.71571" lon="2.48066">
        <ele>88.068</ele>
        <time>2018-12-03T07:38:02Z</time>
      </trkpt>
      <trkpt lat="48.7157" lon="2.4807">
        <ele>88.0065</ele>
        <time>2018-12-03T07:38:04Z</time>
      </trkpt>
      <trkpt lat="48.71569" lon="2.48075">
        <ele>87.9487</ele>
        <time>2018-12-03T07:38:06Z</time>
      </trkpt>
      <trkpt lat="48.71568" lon="2.48082">
        <ele>87.8742</ele>
        <time>2018-12-03T07:38:10Z</time>
      </trkpt>
      <trkpt lat="48.71568" lon="2.48089">
        <ele>87.7871</ele>
        <time>2018-12-03T07:38:16Z</time>
      </trkpt>
      <trkpt lat="48.71568" lon="2.48096">
        <ele>87.7773</ele>
        <time>2018-12-03T07:38:20Z</time>
      </trkpt>
      <trkpt lat="48.71572" lon="2.48102">
        <ele>87.7623</ele>
        <time>2018-12-03T07:38:25Z</time>
      </trkpt>
      <trkpt lat="48.71574" lon="2.48105">
        <ele>87.7481</ele>
        <time>2018-12-03T07:38:28Z</time>
      </trkpt>
      <trkpt lat="48.71576" lon="2.48111">
        <ele>87.7156</ele>
        <time>2018-12-03T07:38:32Z</time>
      </trkpt>
      <trkpt lat="48.71577" lon="2.48118">
        <ele>87.6847</ele>
        <time>2018-12-03T07:38:35Z</time>
      </trkpt>
      <trkpt lat="48.71579" lon="2.48127">
        <ele>87.6782</ele>
        <time>2018-12-03T07:38:38Z</time>
      </trkpt>
      <trkpt lat="48.7158" lon="2.4813">
        <ele>87.7093</ele>
        <time>2018-12-03T07:38:40Z</time>
      </trkpt>
      <trkpt lat="48.71581" lon="2.48135">
        <ele>87.7622</ele>
        <time>2018-12-03T07:38:42Z</time>
      </trkpt>
      <trkpt lat="48.71584" lon="2.4814">
        <ele>87.939</ele>
        <time>2018-12-03T07:38:47Z</time>
      </trkpt>
      <trkpt lat="48.71586" lon="2.48146">
        <ele>88.0287</ele>
        <time>2018-12-03T07:38:50Z</time>
      </trkpt>
      <trkpt lat="48.71586" lon="2.48153">
        <ele>88.1177</ele>
        <time>2018-12-03T07:38:54Z</time>
      </trkpt>
      <trkpt lat="48.71587" lon="2.4816">
        <ele>88.169</ele>
        <time>2018-12-03T07:38:57Z</time>
      </trkpt>
      <trkpt lat="48.71586" lon="2.4817">
        <ele>88.2324</ele>
        <time>2018-12-03T07:39:03Z</time>
      </trkpt>
      <trkpt lat="48.71586" lon="2.4817">
        <ele>35.1</ele>
        <time>2018-12-03T07:39:12Z</time>
      </trkpt>
      <trkpt lat="48.71586" lon="2.4817">
        <ele>35.1</ele>
        <time>2018-12-03T07:39:15Z</time>
      </trkpt>
      <trkpt lat="48.71589" lon="2.48183">
        <ele>88.413</ele>
        <time>2018-12-03T07:39:15Z</time>
      </trkpt>
      <trkpt lat="48.71589" lon="2.48194">
        <ele>88.4393</ele>
        <time>2018-12-03T07:39:18Z</time>
      </trkpt>
      <trkpt lat="48.71589" lon="2.48199">
        <ele>88.4462</ele>
        <time>2018-12-03T07:39:19Z</time>
      </trkpt>
      <trkpt lat="48.71589" lon="2.48204">
        <ele>88.4511</ele>
        <time>2018-12-03T07:39:20Z</time>
      </trkpt>
      <trkpt lat="48.71586" lon="2.48212">
        <ele>88.4643</ele>
        <time>2018-12-03T07:39:22Z</time>
      </trkpt>
      <trkpt lat="48.71586" lon="2.48212">
        <ele>88.4643</ele>
        <time>2018-12-03T07:39:28Z</time>
      </trkpt>
      <trkpt lat="48.71586" lon="2.48212">
        <ele>35</ele>
        <time>2018-12-03T07:39:28Z</time>
      </trkpt>
      <trkpt lat="48.71586" lon="2.48212">
        <ele>35</ele>
        <time>2018-12-03T07:39:35Z</time>
      </trkpt>
      <trkpt lat="48.71582" lon="2.48223">
        <ele>88.5666</ele>
        <time>2018-12-03T07:39:35Z</time>
      </trkpt>
      <trkpt lat="48.71574" lon="2.48238">
        <ele>88.6129</ele>
        <time>2018-12-03T07:39:39Z</time>
      </trkpt>
      <trkpt lat="48.71575" lon="2.48245">
        <ele>88.6617</ele>
        <time>2018-12-03T07:39:43Z</time>
      </trkpt>
      <trkpt lat="48.71578" lon="2.4825">
        <ele>88.7173</ele>
        <time>2018-12-03T07:39:47Z</time>
      </trkpt>
      <trkpt lat="48.7158" lon="2.48253">
        <ele>88.749</ele>
        <time>2018-12-03T07:39:50Z</time>
      </trkpt>
      <trkpt lat="48.71582" lon="2.48257">
        <ele>88.7734</ele>
        <time>2018-12-03T07:39:53Z</time>
      </trkpt>
      <trkpt lat="48.71582" lon="2.48264">
        <ele>88.8213</ele>
        <time>2018-12-03T07:39:58Z</time>
      </trkpt>
      <trkpt lat="48.71582" lon="2.48264">
        <ele>35</ele>
        <time>2018-12-03T07:40:05Z</time>
      </trkpt>
      <trkpt lat="48.71582" lon="2.48264">
        <ele>35</ele>
        <time>2018-12-03T07:40:37Z</time>
      </trkpt>
      <trkpt lat="48.71581" lon="2.48321">
        <ele>88.9261</ele>
        <time>2018-12-03T07:40:39Z</time>
      </trkpt>
      <trkpt lat="48.71578" lon="2.48326">
        <ele>88.9316</ele>
        <time>2018-12-03T07:40:42Z</time>
      </trkpt>
      <trkpt lat="48.71573" lon="2.48333">
        <ele>88.9416</ele>
        <time>2018-12-03T07:40:45Z</time>
      </trkpt>
      <trkpt lat="48.71572" lon="2.48341">
        <ele>88.9488</ele>
        <time>2018-12-03T07:40:49Z</time>
      </trkpt>
      <trkpt lat="48.71572" lon="2.4835">
        <ele>88.947</ele>
        <time>2018-12-03T07:40:52Z</time>
      </trkpt>
      <trkpt lat="48.71571" lon="2.48357">
        <ele>88.9399</ele>
        <time>2018-12-03T07:40:57Z</time>
      </trkpt>
      <trkpt lat="48.7157" lon="2.48362">
        <ele>88.9297</ele>
        <time>2018-12-03T07:41:00Z</time>
      </trkpt>
      <trkpt lat="48.71568" lon="2.48373">
        <ele>88.9207</ele>
        <time>2018-12-03T07:41:03Z</time>
      </trkpt>
      <trkpt lat="48.71564" lon="2.48379">
        <ele>88.9105</ele>
        <time>2018-12-03T07:41:07Z</time>
      </trkpt>
      <trkpt lat="48.71561" lon="2.48388">
        <ele>88.9061</ele>
        <time>2018-12-03T07:41:10Z</time>
      </trkpt>
      <trkpt lat="48.71558" lon="2.48396">
        <ele>88.9022</ele>
        <time>2018-12-03T07:41:14Z</time>
      </trkpt>
      <trkpt lat="48.71554" lon="2.48401">
        <ele>88.8921</ele>
        <time>2018-12-03T07:41:20Z</time>
      </trkpt>
      <trkpt lat="48.71554" lon="2.48409">
        <ele>88.8844</ele>
        <time>2018-12-03T07:41:23Z</time>
      </trkpt>
      <trkpt lat="48.71551" lon="2.48415">
        <ele>88.8772</ele>
        <time>2018-12-03T07:41:28Z</time>
      </trkpt>
      <trkpt lat="48.71546" lon="2.48421">
        <ele>88.8702</ele>
        <time>2018-12-03T07:41:32Z</time>
      </trkpt>
      <trkpt lat="48.71544" lon="2.48424">
        <ele>88.8663</ele>
        <time>2018-12-03T07:41:34Z</time>
      </trkpt>
      <trkpt lat="48.71539" lon="2.48429">
        <ele>88.8601</ele>
        <time>2018-12-03T07:41:37Z</time>
      </trkpt>
      <trkpt lat="48.71536" lon="2.48434">
        <ele>88.8533</ele>
        <time>2018-12-03T07:41:40Z</time>
      </trkpt>
      <trkpt lat="48.71531" lon="2.48436">
        <ele>88.8463</ele>
        <time>2018-12-03T07:41:43Z</time>
      </trkpt>
      <trkpt lat="48.71528" lon="2.48438">
        <ele>88.8382</ele>
        <time>2018-12-03T07:41:48Z</time>
      </trkpt>
      <trkpt lat="48.71524" lon="2.4844">
        <ele>88.832</ele>
        <time>2018-12-03T07:41:52Z</time>
      </trkpt>
      <trkpt lat="48.71519" lon="2.4844">
        <ele>88.8237</ele>
        <time>2018-12-03T07:41:56Z</time>
      </trkpt>
      <trkpt lat="48.71517" lon="2.48441">
        <ele>88.8194</ele>
        <time>2018-12-03T07:41:58Z</time>
      </trkpt>
      <trkpt lat="48.71515" lon="2.48441">
        <ele>88.8186</ele>
        <time>2018-12-03T07:42:00Z</time>
      </trkpt>
      <trkpt lat="48.7151" lon="2.4844">
        <ele>88.8179</ele>
        <time>2018-12-03T07:42:05Z</time>
      </trkpt>
      <trkpt lat="48.71505" lon="2.48442">
        <ele>88.8214</ele>
        <time>2018-12-03T07:42:13Z</time>
      </trkpt>
      <trkpt lat="48.71503" lon="2.4843">
        <ele>88.8125</ele>
        <time>2018-12-03T07:42:22Z</time>
      </trkpt>
      <trkpt lat="48.71502" lon="2.4842">
        <ele>88.8052</ele>
        <time>2018-12-03T07:42:25Z</time>
      </trkpt>
      <trkpt lat="48.71497" lon="2.48409">
        <ele>88.7432</ele>
        <time>2018-12-03T07:42:35Z</time>
      </trkpt>
      <trkpt lat="48.71493" lon="2.48401">
        <ele>88.6951</ele>
        <time>2018-12-03T07:42:38Z</time>
      </trkpt>
      <trkpt lat="48.71492" lon="2.48387">
        <ele>88.672</ele>
        <time>2018-12-03T07:42:42Z</time>
      </trkpt>
      <trkpt lat="48.71492" lon="2.48378">
        <ele>88.5972</ele>
        <time>2018-12-03T07:42:46Z</time>
      </trkpt>
      <trkpt lat="48.71492" lon="2.4837">
        <ele>88.5502</ele>
        <time>2018-12-03T07:42:49Z</time>
      </trkpt>
      <trkpt lat="48.71489" lon="2.48361">
        <ele>88.4877</ele>
        <time>2018-12-03T07:42:54Z</time>
      </trkpt>
      <trkpt lat="48.71488" lon="2.48354">
        <ele>88.4534</ele>
        <time>2018-12-03T07:42:58Z</time>
      </trkpt>
      <trkpt lat="48.71488" lon="2.48349">
        <ele>88.4368</ele>
        <time>2018-12-03T07:43:01Z</time>
      </trkpt>
      <trkpt lat="48.71486" lon="2.48342">
        <ele>88.4181</ele>
        <time>2018-12-03T07:43:06Z</time>
      </trkpt>
      <trkpt lat="48.71485" lon="2.48338">
        <ele>88.414</ele>
        <time>2018-12-03T07:43:08Z</time>
      </trkpt>
      <trkpt lat="48.71482" lon="2.48329">
        <ele>88.4003</ele>
        <time>2018-12-03T07:43:13Z</time>
      </trkpt>
      <trkpt lat="48.7148" lon="2.48324">
        <ele>88.3922</ele>
        <time>2018-12-03T07:43:16Z</time>
      </trkpt>
      <trkpt lat="48.71479" lon="2.48318">
        <ele>88.3902</ele>
        <time>2018-12-03T07:43:18Z</time>
      </trkpt>
      <trkpt lat="48.71476" lon="2.48312">
        <ele>88.397</ele>
        <time>2018-12-03T07:43:23Z</time>
      </trkpt>
      <trkpt lat="48.71472" lon="2.48306">
        <ele>88.4033</ele>
        <time>2018-12-03T07:43:29Z</time>
      </trkpt>
      <trkpt lat="48.71469" lon="2.48298">
        <ele>88.4072</ele>
        <time>2018-12-03T07:43:33Z</time>
      </trkpt>
      <trkpt lat="48.71466" lon="2.48293">
        <ele>88.4146</ele>
        <time>2018-12-03T07:43:36Z</time>
      </trkpt>
      <trkpt lat="48.71464" lon="2.4829">
        <ele>88.4243</ele>
        <time>2018-12-03T07:43:38Z</time>
      </trkpt>
      <trkpt lat="48.7146" lon="2.48287">
        <ele>88.4507</ele>
        <time>2018-12-03T07:43:42Z</time>
      </trkpt>
      <trkpt lat="48.71455" lon="2.48284">
        <ele>88.4956</ele>
        <time>2018-12-03T07:43:50Z</time>
      </trkpt>
      <trkpt lat="48.71449" lon="2.48285">
        <ele>88.517</ele>
        <time>2018-12-03T07:43:55Z</time>
      </trkpt>
      <trkpt lat="48.71444" lon="2.48287">
        <ele>88.5263</ele>
        <time>2018-12-03T07:43:58Z</time>
      </trkpt>
      <trkpt lat="48.7144" lon="2.48289">
        <ele>88.5306</ele>
        <time>2018-12-03T07:44:01Z</time>
      </trkpt>
      <trkpt lat="48.71435" lon="2.4829">
        <ele>88.5344</ele>
        <time>2018-12-03T07:44:06Z</time>
      </trkpt>
      <trkpt lat="48.7143" lon="2.4829">
        <ele>88.5383</ele>
        <time>2018-12-03T07:44:09Z</time>
      </trkpt>
      <trkpt lat="48.71425" lon="2.48292">
        <ele>88.547</ele>
        <time>2018-12-03T07:44:12Z</time>
      </trkpt>
      <trkpt lat="48.71421" lon="2.48299">
        <ele>88.5787</ele>
        <time>2018-12-03T07:44:17Z</time>
      </trkpt>
      <trkpt lat="48.7142" lon="2.48307">
        <ele>88.5864</ele>
        <time>2018-12-03T07:44:20Z</time>
      </trkpt>
      <trkpt lat="48.71419" lon="2.48311">
        <ele>88.614</ele>
        <time>2018-12-03T07:44:26Z</time>
      </trkpt>
      <trkpt lat="48.71418" lon="2.48321">
        <ele>88.6248</ele>
        <time>2018-12-03T07:44:29Z</time>
      </trkpt>
      <trkpt lat="48.71415" lon="2.48328">
        <ele>88.6293</ele>
        <time>2018-12-03T07:44:31Z</time>
      </trkpt>
      <trkpt lat="48.71414" lon="2.48336">
        <ele>88.6392</ele>
        <time>2018-12-03T07:44:35Z</time>
      </trkpt>
      <trkpt lat="48.71409" lon="2.48343">
        <ele>88.6463</ele>
        <time>2018-12-03T07:44:38Z</time>
      </trkpt>
      <trkpt lat="48.71407" lon="2.48346">
        <ele>88.6509</ele>
        <time>2018-12-03T07:44:40Z</time>
      </trkpt>
      <trkpt lat="48.71404" lon="2.48352">
        <ele>88.6598</ele>
        <time>2018-12-03T07:44:44Z</time>
      </trkpt>
      <trkpt lat="48.71403" lon="2.48356">
        <ele>88.6616</ele>
        <time>2018-12-03T07:44:46Z</time>
      </trkpt>
      <trkpt lat="48.71399" lon="2.48361">
        <ele>88.6616</ele>
        <time>2018-12-03T07:44:49Z</time>
      </trkpt>
      <trkpt lat="48.71396" lon="2.48367">
        <ele>88.659</ele>
        <time>2018-12-03T07:44:54Z</time>
      </trkpt>
      <trkpt lat="48.71393" lon="2.48372">
        <ele>88.6631</ele>
        <time>2018-12-03T07:45:01Z</time>
      </trkpt>
      <trkpt lat="48.7139" lon="2.48378">
        <ele>88.6807</ele>
        <time>2018-12-03T07:45:08Z</time>
      </trkpt>
      <trkpt lat="48.71387" lon="2.48383">
        <ele>88.6949</ele>
        <time>2018-12-03T07:45:13Z</time>
      </trkpt>
      <trkpt lat="48.71383" lon="2.48389">
        <ele>88.7107</ele>
        <time>2018-12-03T07:45:18Z</time>
      </trkpt>
      <trkpt lat="48.71379" lon="2.48392">
        <ele>88.7214</ele>
        <time>2018-12-03T07:45:22Z</time>
      </trkpt>
      <trkpt lat="48.71374" lon="2.48399">
        <ele>88.7259</ele>
        <time>2018-12-03T07:45:25Z</time>
      </trkpt>
      <trkpt lat="48.71372" lon="2.48407">
        <ele>88.726</ele>
        <time>2018-12-03T07:45:28Z</time>
      </trkpt>
      <trkpt lat="48.7137" lon="2.4841">
        <ele>88.7251</ele>
        <time>2018-12-03T07:45:30Z</time>
      </trkpt>
      <trkpt lat="48.71368" lon="2.48417">
        <ele>88.7183</ele>
        <time>2018-12-03T07:45:34Z</time>
      </trkpt>
      <trkpt lat="48.71367" lon="2.4842">
        <ele>88.7152</ele>
        <time>2018-12-03T07:45:36Z</time>
      </trkpt>
      <trkpt lat="48.71369" lon="2.48426">
        <ele>88.7066</ele>
        <time>2018-12-03T07:45:42Z</time>
      </trkpt>
      <trkpt lat="48.71369" lon="2.48434">
        <ele>88.7029</ele>
        <time>2018-12-03T07:45:44Z</time>
      </trkpt>
      <trkpt lat="48.71367" lon="2.48442">
        <ele>88.6968</ele>
        <time>2018-12-03T07:45:47Z</time>
      </trkpt>
      <trkpt lat="48.71366" lon="2.48451">
        <ele>88.6906</ele>
        <time>2018-12-03T07:45:53Z</time>
      </trkpt>
      <trkpt lat="48.71366" lon="2.48451">
        <ele>88.6906</ele>
        <time>2018-12-03T07:46:01Z</time>
      </trkpt>
      <trkpt lat="48.71366" lon="2.48451">
        <ele>37.8</ele>
        <time>2018-12-03T07:46:01Z</time>
      </trkpt>
      <trkpt lat="48.71366" lon="2.48451">
        <ele>37.8</ele>
        <time>2018-12-03T07:46:09Z</time>
      </trkpt>
      <trkpt lat="48.71364" lon="2.48481">
        <ele>88.7074</ele>
        <time>2018-12-03T07:46:09Z</time>
      </trkpt>
      <trkpt lat="48.71362" lon="2.48486">
        <ele>88.7117</ele>
        <time>2018-12-03T07:46:11Z</time>
      </trkpt>
      <trkpt lat="48.71361" lon="2.48489">
        <ele>88.7138</ele>
        <time>2018-12-03T07:46:12Z</time>
      </trkpt>
      <trkpt lat="48.7136" lon="2.48497">
        <ele>88.7191</ele>
        <time>2018-12-03T07:46:15Z</time>
      </trkpt>
      <trkpt lat="48.71359" lon="2.485">
        <ele>88.72</ele>
        <time>2018-12-03T07:46:17Z</time>
      </trkpt>
      <trkpt lat="48.71359" lon="2.48508">
        <ele>88.7226</ele>
        <time>2018-12-03T07:46:23Z</time>
      </trkpt>
      <trkpt lat="48.71359" lon="2.48518">
        <ele>88.7253</ele>
        <time>2018-12-03T07:46:25Z</time>
      </trkpt>
      <trkpt lat="48.71357" lon="2.48525">
        <ele>88.7309</ele>
        <time>2018-12-03T07:46:29Z</time>
      </trkpt>
      <trkpt lat="48.71356" lon="2.48532">
        <ele>88.738</ele>
        <time>2018-12-03T07:46:33Z</time>
      </trkpt>
      <trkpt lat="48.71355" lon="2.48536">
        <ele>88.744</ele>
        <time>2018-12-03T07:46:36Z</time>
      </trkpt>
      <trkpt lat="48.71357" lon="2.48544">
        <ele>88.7536</ele>
        <time>2018-12-03T07:46:42Z</time>
      </trkpt>
      <trkpt lat="48.71357" lon="2.48551">
        <ele>88.7605</ele>
        <time>2018-12-03T07:46:45Z</time>
      </trkpt>
      <trkpt lat="48.71358" lon="2.48557">
        <ele>88.7722</ele>
        <time>2018-12-03T07:46:49Z</time>
      </trkpt>
      <trkpt lat="48.71358" lon="2.48563">
        <ele>88.7824</ele>
        <time>2018-12-03T07:46:52Z</time>
      </trkpt>
      <trkpt lat="48.71358" lon="2.48571">
        <ele>88.7907</ele>
        <time>2018-12-03T07:46:55Z</time>
      </trkpt>
      <trkpt lat="48.71359" lon="2.48578">
        <ele>88.7963</ele>
        <time>2018-12-03T07:46:58Z</time>
      </trkpt>
      <trkpt lat="48.71357" lon="2.48586">
        <ele>88.8015</ele>
        <time>2018-12-03T07:47:02Z</time>
      </trkpt>
      <trkpt lat="48.71353" lon="2.48593">
        <ele>88.8054</ele>
        <time>2018-12-03T07:47:05Z</time>
      </trkpt>
      <trkpt lat="48.71351" lon="2.48602">
        <ele>88.8109</ele>
        <time>2018-12-03T07:47:08Z</time>
      </trkpt>
      <trkpt lat="48.7135" lon="2.48606">
        <ele>88.8142</ele>
        <time>2018-12-03T07:47:09Z</time>
      </trkpt>
      <trkpt lat="48.71349" lon="2.48609">
        <ele>88.8186</ele>
        <time>2018-12-03T07:47:10Z</time>
      </trkpt>
      <trkpt lat="48.71348" lon="2.48613">
        <ele>88.8241</ele>
        <time>2018-12-03T07:47:11Z</time>
      </trkpt>
      <trkpt lat="48.71349" lon="2.4862">
        <ele>88.8624</ele>
        <time>2018-12-03T07:47:17Z</time>
      </trkpt>
      <trkpt lat="48.7135" lon="2.48627">
        <ele>88.904</ele>
        <time>2018-12-03T07:47:22Z</time>
      </trkpt>
      <trkpt lat="48.71351" lon="2.48631">
        <ele>88.9316</ele>
        <time>2018-12-03T07:47:25Z</time>
      </trkpt>
      <trkpt lat="48.71351" lon="2.4864">
        <ele>88.9786</ele>
        <time>2018-12-03T07:47:30Z</time>
      </trkpt>
      <trkpt lat="48.71349" lon="2.48647">
        <ele>89.0169</ele>
        <time>2018-12-03T07:47:34Z</time>
      </trkpt>
      <trkpt lat="48.71346" lon="2.48655">
        <ele>89.0595</ele>
        <time>2018-12-03T07:47:39Z</time>
      </trkpt>
      <trkpt lat="48.71347" lon="2.48664">
        <ele>89.0946</ele>
        <time>2018-12-03T07:47:43Z</time>
      </trkpt>
      <trkpt lat="48.71348" lon="2.48668">
        <ele>89.1127</ele>
        <time>2018-12-03T07:47:45Z</time>
      </trkpt>
      <trkpt lat="48.71347" lon="2.48675">
        <ele>89.1545</ele>
        <time>2018-12-03T07:47:50Z</time>
      </trkpt>
      <trkpt lat="48.71344" lon="2.48682">
        <ele>89.1827</ele>
        <time>2018-12-03T07:47:54Z</time>
      </trkpt>
      <trkpt lat="48.71343" lon="2.48691">
        <ele>89.2083</ele>
        <time>2018-12-03T07:47:58Z</time>
      </trkpt>
      <trkpt lat="48.71343" lon="2.48699">
        <ele>89.2263</ele>
        <time>2018-12-03T07:48:01Z</time>
      </trkpt>
      <trkpt lat="48.71341" lon="2.48705">
        <ele>89.2426</ele>
        <time>2018-12-03T07:48:04Z</time>
      </trkpt>
      <trkpt lat="48.71341" lon="2.4871">
        <ele>89.2542</ele>
        <time>2018-12-03T07:48:06Z</time>
      </trkpt>
      <trkpt lat="48.7134" lon="2.48718">
        <ele>89.2842</ele>
        <time>2018-12-03T07:48:11Z</time>
      </trkpt>
      <trkpt lat="48.7134" lon="2.48725">
        <ele>89.3189</ele>
        <time>2018-12-03T07:48:16Z</time>
      </trkpt>
      <trkpt lat="48.71339" lon="2.48733">
        <ele>89.3467</ele>
        <time>2018-12-03T07:48:20Z</time>
      </trkpt>
      <trkpt lat="48.71339" lon="2.48738">
        <ele>89.3653</ele>
        <time>2018-12-03T07:48:23Z</time>
      </trkpt>
      <trkpt lat="48.71339" lon="2.48743">
        <ele>89.3772</ele>
        <time>2018-12-03T07:48:25Z</time>
      </trkpt>
      <trkpt lat="48.71338" lon="2.48748">
        <ele>89.3899</ele>
        <time>2018-12-03T07:48:27Z</time>
      </trkpt>
      <trkpt lat="48.71338" lon="2.48753">
        <ele>89.4033</ele>
        <time>2018-12-03T07:48:29Z</time>
      </trkpt>
      <trkpt lat="48.71338" lon="2.48757">
        <ele>89.4178</ele>
        <time>2018-12-03T07:48:32Z</time>
      </trkpt>
      <trkpt lat="48.71337" lon="2.48763">
        <ele>89.4408</ele>
        <time>2018-12-03T07:48:37Z</time>
      </trkpt>
      <trkpt lat="48.71339" lon="2.48772">
        <ele>89.4665</ele>
        <time>2018-12-03T07:48:41Z</time>
      </trkpt>
      <trkpt lat="48.71338" lon="2.48782">
        <ele>89.4949</ele>
        <time>2018-12-03T07:48:46Z</time>
      </trkpt>
      <trkpt lat="48.71336" lon="2.4879">
        <ele>89.5058</ele>
        <time>2018-12-03T07:48:48Z</time>
      </trkpt>
      <trkpt lat="48.71334" lon="2.48797">
        <ele>89.5211</ele>
        <time>2018-12-03T07:48:51Z</time>
      </trkpt>
      <trkpt lat="48.71332" lon="2.48802">
        <ele>89.5348</ele>
        <time>2018-12-03T07:48:54Z</time>
      </trkpt>
      <trkpt lat="48.7133" lon="2.48808">
        <ele>89.5458</ele>
        <time>2018-12-03T07:48:57Z</time>
      </trkpt>
      <trkpt lat="48.71329" lon="2.48816">
        <ele>89.5582</ele>
        <time>2018-12-03T07:49:01Z</time>
      </trkpt>
      <trkpt lat="48.71329" lon="2.48821">
        <ele>89.5626</ele>
        <time>2018-12-03T07:49:03Z</time>
      </trkpt>
      <trkpt lat="48.71328" lon="2.48824">
        <ele>89.5662</ele>
        <time>2018-12-03T07:49:05Z</time>
      </trkpt>
      <trkpt lat="48.71325" lon="2.48831">
        <ele>89.5748</ele>
        <time>2018-12-03T07:49:10Z</time>
      </trkpt>
      <trkpt lat="48.71325" lon="2.4884">
        <ele>89.5776</ele>
        <time>2018-12-03T07:49:14Z</time>
      </trkpt>
      <trkpt lat="48.71325" lon="2.48847">
        <ele>89.5791</ele>
        <time>2018-12-03T07:49:17Z</time>
      </trkpt>
      <trkpt lat="48.71328" lon="2.48855">
        <ele>89.5851</ele>
        <time>2018-12-03T07:49:21Z</time>
      </trkpt>
      <trkpt lat="48.71331" lon="2.4886">
        <ele>89.5947</ele>
        <time>2018-12-03T07:49:25Z</time>
      </trkpt>
      <trkpt lat="48.71331" lon="2.4886">
        <ele>41</ele>
        <time>2018-12-03T07:49:32Z</time>
      </trkpt>
      <trkpt lat="48.71331" lon="2.4886">
        <ele>41</ele>
        <time>2018-12-03T07:50:10Z</time>
      </trkpt>
      <trkpt lat="48.7135" lon="2.48893">
        <ele>90.2428</ele>
        <time>2018-12-03T07:50:10Z</time>
      </trkpt>
      <trkpt lat="48.71353" lon="2.48896">
        <ele>90.2853</ele>
        <time>2018-12-03T07:50:13Z</time>
      </trkpt>
      <trkpt lat="48.71357" lon="2.489">
        <ele>90.339</ele>
        <time>2018-12-03T07:50:17Z</time>
      </trkpt>
      <trkpt lat="48.71361" lon="2.48906">
        <ele>90.4028</ele>
        <time>2018-12-03T07:50:22Z</time>
      </trkpt>
      <trkpt lat="48.71365" lon="2.48908">
        <ele>90.4452</ele>
        <time>2018-12-03T07:50:25Z</time>
      </trkpt>
      <trkpt lat="48.71368" lon="2.4891">
        <ele>90.4721</ele>
        <time>2018-12-03T07:50:27Z</time>
      </trkpt>
      <trkpt lat="48.71371" lon="2.48912">
        <ele>90.5224</ele>
        <time>2018-12-03T07:50:31Z</time>
      </trkpt>
      <trkpt lat="48.71376" lon="2.48913">
        <ele>90.5798</ele>
        <time>2018-12-03T07:50:36Z</time>
      </trkpt>
      <trkpt lat="48.71381" lon="2.48915">
        <ele>90.6241</ele>
        <time>2018-12-03T07:50:40Z</time>
      </trkpt>
      <trkpt lat="48.71384" lon="2.4892">
        <ele>90.6705</ele>
        <time>2018-12-03T07:50:44Z</time>
      </trkpt>
      <trkpt lat="48.71388" lon="2.48924">
        <ele>90.7195</ele>
        <time>2018-12-03T07:50:48Z</time>
      </trkpt>
      <trkpt lat="48.7139" lon="2.48926">
        <ele>90.7449</ele>
        <time>2018-12-03T07:50:50Z</time>
      </trkpt>
      <trkpt lat="48.71396" lon="2.48929">
        <ele>90.8091</ele>
        <time>2018-12-03T07:50:55Z</time>
      </trkpt>
      <trkpt lat="48.71398" lon="2.48931">
        <ele>90.8729</ele>
        <time>2018-12-03T07:51:00Z</time>
      </trkpt>
      <trkpt lat="48.71398" lon="2.48931">
        <ele>37.5</ele>
        <time>2018-12-03T07:51:07Z</time>
      </trkpt>
      <trkpt lat="48.71398" lon="2.48931">
        <ele>37.5</ele>
        <time>2018-12-03T07:51:53Z</time>
      </trkpt>
      <trkpt lat="48.71417" lon="2.4895">
        <ele>91.5315</ele>
        <time>2018-12-03T07:51:53Z</time>
      </trkpt>
      <trkpt lat="48.71417" lon="2.4895">
        <ele>91.5315</ele>
        <time>2018-12-03T07:51:58Z</time>
      </trkpt>
      <trkpt lat="48.71417" lon="2.4895">
        <ele>37.5</ele>
        <time>2018-12-03T07:51:58Z</time>
      </trkpt>
      <trkpt lat="48.71417" lon="2.4895">
        <ele>37.5</ele>
        <time>2018-12-03T07:52:03Z</time>
      </trkpt>
      <trkpt lat="48.71425" lon="2.48955">
        <ele>91.5515</ele>
        <time>2018-12-03T07:52:03Z</time>
      </trkpt>
      <trkpt lat="48.71427" lon="2.48957">
        <ele>91.524</ele>
        <time>2018-12-03T07:52:08Z</time>
      </trkpt>
      <trkpt lat="48.71432" lon="2.48956">
        <ele>91.5047</ele>
        <time>2018-12-03T07:52:10Z</time>
      </trkpt>
      <trkpt lat="48.71437" lon="2.48959">
        <ele>91.4948</ele>
        <time>2018-12-03T07:52:11Z</time>
      </trkpt>
      <trkpt lat="48.71443" lon="2.4896">
        <ele>91.476</ele>
        <time>2018-12-03T07:52:13Z</time>
      </trkpt>
      <trkpt lat="48.71446" lon="2.48961">
        <ele>91.4576</ele>
        <time>2018-12-03T07:52:15Z</time>
      </trkpt>
      <trkpt lat="48.71451" lon="2.48964">
        <ele>91.4054</ele>
        <time>2018-12-03T07:52:21Z</time>
      </trkpt>
      <trkpt lat="48.71455" lon="2.48966">
        <ele>91.3639</ele>
        <time>2018-12-03T07:52:26Z</time>
      </trkpt>
      <trkpt lat="48.7146" lon="2.48971">
        <ele>91.328</ele>
        <time>2018-12-03T07:52:30Z</time>
      </trkpt>
      <trkpt lat="48.71463" lon="2.48976">
        <ele>91.317</ele>
        <time>2018-12-03T07:52:33Z</time>
      </trkpt>
      <trkpt lat="48.71466" lon="2.48983">
        <ele>91.2927</ele>
        <time>2018-12-03T07:52:37Z</time>
      </trkpt>
      <trkpt lat="48.71467" lon="2.48988">
        <ele>91.2823</ele>
        <time>2018-12-03T07:52:40Z</time>
      </trkpt>
      <trkpt lat="48.71467" lon="2.48988">
        <ele>91.2823</ele>
        <time>2018-12-03T07:52:47Z</time>
      </trkpt>
      <trkpt lat="48.71467" lon="2.48988">
        <ele>37.8</ele>
        <time>2018-12-03T07:52:47Z</time>
      </trkpt>
      <trkpt lat="48.71467" lon="2.48988">
        <ele>37.8</ele>
        <time>2018-12-03T07:53:01Z</time>
      </trkpt>
      <trkpt lat="48.71457" lon="2.49012">
        <ele>91.2104</ele>
        <time>2018-12-03T07:53:01Z</time>
      </trkpt>
      <trkpt lat="48.71453" lon="2.49016">
        <ele>91.1943</ele>
        <time>2018-12-03T07:53:05Z</time>
      </trkpt>
      <trkpt lat="48.71453" lon="2.49029">
        <ele>91.1852</ele>
        <time>2018-12-03T07:53:07Z</time>
      </trkpt>
      <trkpt lat="48.71449" lon="2.49035">
        <ele>91.1747</ele>
        <time>2018-12-03T07:53:11Z</time>
      </trkpt>
      <trkpt lat="48.71446" lon="2.49038">
        <ele>91.1578</ele>
        <time>2018-12-03T07:53:15Z</time>
      </trkpt>
      <trkpt lat="48.71444" lon="2.4905">
        <ele>91.1363</ele>
        <time>2018-12-03T07:53:21Z</time>
      </trkpt>
      <trkpt lat="48.7144" lon="2.4906">
        <ele>91.1045</ele>
        <time>2018-12-03T07:53:29Z</time>
      </trkpt>
      <trkpt lat="48.71433" lon="2.49057">
        <ele>91.0957</ele>
        <time>2018-12-03T07:53:31Z</time>
      </trkpt>
      <trkpt lat="48.71431" lon="2.49075">
        <ele>91.0871</ele>
        <time>2018-12-03T07:53:33Z</time>
      </trkpt>
      <trkpt lat="48.7143" lon="2.49082">
        <ele>91.0837</ele>
        <time>2018-12-03T07:53:34Z</time>
      </trkpt>
      <trkpt lat="48.71429" lon="2.49089">
        <ele>91.0779</ele>
        <time>2018-12-03T07:53:36Z</time>
      </trkpt>
      <trkpt lat="48.71427" lon="2.49095">
        <ele>91.0742</ele>
        <time>2018-12-03T07:53:38Z</time>
      </trkpt>
      <trkpt lat="48.71424" lon="2.49101">
        <ele>91.0713</ele>
        <time>2018-12-03T07:53:42Z</time>
      </trkpt>
      <trkpt lat="48.71422" lon="2.49108">
        <ele>91.0707</ele>
        <time>2018-12-03T07:53:46Z</time>
      </trkpt>
      <trkpt lat="48.71422" lon="2.49108">
        <ele>91.0707</ele>
        <time>2018-12-03T07:53:54Z</time>
      </trkpt>
      <trkpt lat="48.71422" lon="2.49108">
        <ele>35.3</ele>
        <time>2018-12-03T07:53:54Z</time>
      </trkpt>
      <trkpt lat="48.71422" lon="2.49108">
        <ele>35.3</ele>
        <time>2018-12-03T07:54:06Z</time>
      </trkpt>
      <trkpt lat="48.71414" lon="2.49126">
        <ele>91.0056</ele>
        <time>2018-12-03T07:54:06Z</time>
      </trkpt>
      <trkpt lat="48.71409" lon="2.49128">
        <ele>90.9751</ele>
        <time>2018-12-03T07:54:11Z</time>
      </trkpt>
      <trkpt lat="48.71406" lon="2.49133">
        <ele>90.9404</ele>
        <time>2018-12-03T07:54:15Z</time>
      </trkpt>
      <trkpt lat="48.71405" lon="2.4914">
        <ele>90.9068</ele>
        <time>2018-12-03T07:54:19Z</time>
      </trkpt>
      <trkpt lat="48.71402" lon="2.49147">
        <ele>90.8506</ele>
        <time>2018-12-03T07:54:24Z</time>
      </trkpt>
      <trkpt lat="48.71401" lon="2.49157">
        <ele>90.8376</ele>
        <time>2018-12-03T07:54:26Z</time>
      </trkpt>
      <trkpt lat="48.714" lon="2.49164">
        <ele>90.7995</ele>
        <time>2018-12-03T07:54:29Z</time>
      </trkpt>
      <trkpt lat="48.71396" lon="2.49168">
        <ele>90.7314</ele>
        <time>2018-12-03T07:54:34Z</time>
      </trkpt>
      <trkpt lat="48.71393" lon="2.4917">
        <ele>90.704</ele>
        <time>2018-12-03T07:54:36Z</time>
      </trkpt>
      <trkpt lat="48.7139" lon="2.49177">
        <ele>90.6475</ele>
        <time>2018-12-03T07:54:40Z</time>
      </trkpt>
      <trkpt lat="48.71389" lon="2.4918">
        <ele>90.6167</ele>
        <time>2018-12-03T07:54:42Z</time>
      </trkpt>
      <trkpt lat="48.71387" lon="2.49184">
        <ele>90.5665</ele>
        <time>2018-12-03T07:54:45Z</time>
      </trkpt>
      <trkpt lat="48.71387" lon="2.49193">
        <ele>90.4482</ele>
        <time>2018-12-03T07:54:52Z</time>
      </trkpt>
      <trkpt lat="48.71387" lon="2.492">
        <ele>90.3652</ele>
        <time>2018-12-03T07:54:57Z</time>
      </trkpt>
      <trkpt lat="48.71386" lon="2.49208">
        <ele>90.2812</ele>
        <time>2018-12-03T07:55:02Z</time>
      </trkpt>
      <trkpt lat="48.71383" lon="2.49213">
        <ele>90.2612</ele>
        <time>2018-12-03T07:55:04Z</time>
      </trkpt>
      <trkpt lat="48.71379" lon="2.49219">
        <ele>90.2226</ele>
        <time>2018-12-03T07:55:06Z</time>
      </trkpt>
      <trkpt lat="48.71377" lon="2.49228">
        <ele>90.1803</ele>
        <time>2018-12-03T07:55:09Z</time>
      </trkpt>
      <trkpt lat="48.71376" lon="2.49233">
        <ele>90.1412</ele>
        <time>2018-12-03T07:55:11Z</time>
      </trkpt>
      <trkpt lat="48.71375" lon="2.49239">
        <ele>90.1039</ele>
        <time>2018-12-03T07:55:13Z</time>
      </trkpt>
      <trkpt lat="48.71375" lon="2.49243">
        <ele>90.0856</ele>
        <time>2018-12-03T07:55:14Z</time>
      </trkpt>
      <trkpt lat="48.71374" lon="2.4925">
        <ele>90.05</ele>
        <time>2018-12-03T07:55:16Z</time>
      </trkpt>
      <trkpt lat="48.71375" lon="2.49259">
        <ele>89.9986</ele>
        <time>2018-12-03T07:55:19Z</time>
      </trkpt>
      <trkpt lat="48.71375" lon="2.49268">
        <ele>89.903</ele>
        <time>2018-12-03T07:55:25Z</time>
      </trkpt>
      <trkpt lat="48.71375" lon="2.49275">
        <ele>89.8596</ele>
        <time>2018-12-03T07:55:28Z</time>
      </trkpt>
      <trkpt lat="48.71376" lon="2.49282">
        <ele>89.7896</ele>
        <time>2018-12-03T07:55:33Z</time>
      </trkpt>
      <trkpt lat="48.71377" lon="2.49286">
        <ele>89.7611</ele>
        <time>2018-12-03T07:55:36Z</time>
      </trkpt>
      <trkpt lat="48.71378" lon="2.49289">
        <ele>89.693</ele>
        <time>2018-12-03T07:55:41Z</time>
      </trkpt>
      <trkpt lat="48.71372" lon="2.49296">
        <ele>89.6229</ele>
        <time>2018-12-03T07:55:47Z</time>
      </trkpt>
      <trkpt lat="48.71368" lon="2.49302">
        <ele>89.5205</ele>
        <time>2018-12-03T07:55:59Z</time>
      </trkpt>
      <trkpt lat="48.71364" lon="2.49307">
        <ele>89.5017</ele>
        <time>2018-12-03T07:56:02Z</time>
      </trkpt>
      <trkpt lat="48.7136" lon="2.49311">
        <ele>89.4848</ele>
        <time>2018-12-03T07:56:05Z</time>
      </trkpt>
      <trkpt lat="48.71357" lon="2.49313">
        <ele>89.4744</ele>
        <time>2018-12-03T07:56:07Z</time>
      </trkpt>
      <trkpt lat="48.71355" lon="2.49315">
        <ele>89.4644</ele>
        <time>2018-12-03T07:56:09Z</time>
      </trkpt>
      <trkpt lat="48.7135" lon="2.49314">
        <ele>89.4357</ele>
        <time>2018-12-03T07:56:15Z</time>
      </trkpt>
      <trkpt lat="48.71347" lon="2.49308">
        <ele>89.4149</ele>
        <time>2018-12-03T07:56:20Z</time>
      </trkpt>
      <trkpt lat="48.71344" lon="2.49303">
        <ele>89.3929</ele>
        <time>2018-12-03T07:56:24Z</time>
      </trkpt>
      <trkpt lat="48.71342" lon="2.49301">
        <ele>89.3819</ele>
        <time>2018-12-03T07:56:26Z</time>
      </trkpt>
      <trkpt lat="48.71336" lon="2.49302">
        <ele>89.3539</ele>
        <time>2018-12-03T07:56:31Z</time>
      </trkpt>
      <trkpt lat="48.71333" lon="2.49302">
        <ele>89.3427</ele>
        <time>2018-12-03T07:56:33Z</time>
      </trkpt>
      <trkpt lat="48.71329" lon="2.49302">
        <ele>89.3103</ele>
        <time>2018-12-03T07:56:40Z</time>
      </trkpt>
      <trkpt lat="48.71326" lon="2.49301">
        <ele>89.2992</ele>
        <time>2018-12-03T07:56:43Z</time>
      </trkpt>
      <trkpt lat="48.71321" lon="2.49304">
        <ele>89.2753</ele>
        <time>2018-12-03T07:56:48Z</time>
      </trkpt>
      <trkpt lat="48.71315" lon="2.49308">
        <ele>89.2574</ele>
        <time>2018-12-03T07:56:51Z</time>
      </trkpt>
      <trkpt lat="48.7131" lon="2.49311">
        <ele>89.242</ele>
        <time>2018-12-03T07:56:54Z</time>
      </trkpt>
      <trkpt lat="48.71305" lon="2.49313">
        <ele>89.225</ele>
        <time>2018-12-03T07:56:58Z</time>
      </trkpt>
      <trkpt lat="48.71301" lon="2.49314">
        <ele>89.2082</ele>
        <time>2018-12-03T07:57:02Z</time>
      </trkpt>
      <trkpt lat="48.71297" lon="2.49318">
        <ele>89.1882</ele>
        <time>2018-12-03T07:57:06Z</time>
      </trkpt>
      <trkpt lat="48.71293" lon="2.49324">
        <ele>89.1549</ele>
        <time>2018-12-03T07:57:11Z</time>
      </trkpt>
      <trkpt lat="48.71291" lon="2.49331">
        <ele>89.1371</ele>
        <time>2018-12-03T07:57:14Z</time>
      </trkpt>
      <trkpt lat="48.7129" lon="2.49334">
        <ele>89.127</ele>
        <time>2018-12-03T07:57:16Z</time>
      </trkpt>
      <trkpt lat="48.7129" lon="2.49342">
        <ele>89.1174</ele>
        <time>2018-12-03T07:57:19Z</time>
      </trkpt>
      <trkpt lat="48.71287" lon="2.49349">
        <ele>89.1123</ele>
        <time>2018-12-03T07:57:24Z</time>
      </trkpt>
      <trkpt lat="48.71286" lon="2.49352">
        <ele>89.1119</ele>
        <time>2018-12-03T07:57:26Z</time>
      </trkpt>
      <trkpt lat="48.71282" lon="2.49358">
        <ele>89.1148</ele>
        <time>2018-12-03T07:57:31Z</time>
      </trkpt>
      <trkpt lat="48.71278" lon="2.49364">
        <ele>89.1301</ele>
        <time>2018-12-03T07:57:35Z</time>
      </trkpt>
      <trkpt lat="48.71273" lon="2.4937">
        <ele>89.1484</ele>
        <time>2018-12-03T07:57:40Z</time>
      </trkpt>
      <trkpt lat="48.71267" lon="2.49376">
        <ele>89.1586</ele>
        <time>2018-12-03T07:57:43Z</time>
      </trkpt>
      <trkpt lat="48.71265" lon="2.49377">
        <ele>89.1656</ele>
        <time>2018-12-03T07:57:45Z</time>
      </trkpt>
      <trkpt lat="48.7126" lon="2.4938">
        <ele>89.1776</ele>
        <time>2018-12-03T07:57:49Z</time>
      </trkpt>
      <trkpt lat="48.71257" lon="2.49381">
        <ele>89.1815</ele>
        <time>2018-12-03T07:57:51Z</time>
      </trkpt>
      <trkpt lat="48.71254" lon="2.49382">
        <ele>89.1845</ele>
        <time>2018-12-03T07:57:53Z</time>
      </trkpt>
      <trkpt lat="48.71249" lon="2.49383">
        <ele>89.188</ele>
        <time>2018-12-03T07:57:56Z</time>
      </trkpt>
      <trkpt lat="48.71246" lon="2.49383">
        <ele>89.1892</ele>
        <time>2018-12-03T07:57:58Z</time>
      </trkpt>
      <trkpt lat="48.71241" lon="2.49385">
        <ele>89.1904</ele>
        <time>2018-12-03T07:58:02Z</time>
      </trkpt>
      <trkpt lat="48.71237" lon="2.49384">
        <ele>89.1914</ele>
        <time>2018-12-03T07:58:05Z</time>
      </trkpt>
      <trkpt lat="48.71234" lon="2.49383">
        <ele>89.1915</ele>
        <time>2018-12-03T07:58:08Z</time>
      </trkpt>
      <trkpt lat="48.71229" lon="2.49384">
        <ele>89.1941</ele>
        <time>2018-12-03T07:58:12Z</time>
      </trkpt>
      <trkpt lat="48.71224" lon="2.49381">
        <ele>89.1948</ele>
        <time>2018-12-03T07:58:18Z</time>
      </trkpt>
      <trkpt lat="48.71219" lon="2.49382">
        <ele>89.1973</ele>
        <time>2018-12-03T07:58:22Z</time>
      </trkpt>
      <trkpt lat="48.71214" lon="2.49387">
        <ele>89.1957</ele>
        <time>2018-12-03T07:58:26Z</time>
      </trkpt>
      <trkpt lat="48.71211" lon="2.4939">
        <ele>89.191</ele>
        <time>2018-12-03T07:58:28Z</time>
      </trkpt>
      <trkpt lat="48.71207" lon="2.49394">
        <ele>89.1799</ele>
        <time>2018-12-03T07:58:31Z</time>
      </trkpt>
      <trkpt lat="48.71204" lon="2.49397">
        <ele>89.1708</ele>
        <time>2018-12-03T07:58:33Z</time>
      </trkpt>
      <trkpt lat="48.71202" lon="2.494">
        <ele>89.1602</ele>
        <time>2018-12-03T07:58:35Z</time>
      </trkpt>
      <trkpt lat="48.71199" lon="2.49402">
        <ele>89.1483</ele>
        <time>2018-12-03T07:58:37Z</time>
      </trkpt>
      <trkpt lat="48.71196" lon="2.49405">
        <ele>89.1354</ele>
        <time>2018-12-03T07:58:39Z</time>
      </trkpt>
      <trkpt lat="48.71194" lon="2.49408">
        <ele>89.1218</ele>
        <time>2018-12-03T07:58:41Z</time>
      </trkpt>
      <trkpt lat="48.71191" lon="2.4941">
        <ele>89.1067</ele>
        <time>2018-12-03T07:58:43Z</time>
      </trkpt>
      <trkpt lat="48.71189" lon="2.49413">
        <ele>89.0829</ele>
        <time>2018-12-03T07:58:46Z</time>
      </trkpt>
      <trkpt lat="48.71187" lon="2.49415">
        <ele>89.0594</ele>
        <time>2018-12-03T07:58:49Z</time>
      </trkpt>
      <trkpt lat="48.71185" lon="2.49418">
        <ele>89.0396</ele>
        <time>2018-12-03T07:58:52Z</time>
      </trkpt>
      <trkpt lat="48.71181" lon="2.49422">
        <ele>89.0179</ele>
        <time>2018-12-03T07:58:56Z</time>
      </trkpt>
      <trkpt lat="48.71178" lon="2.49425">
        <ele>89.0092</ele>
        <time>2018-12-03T07:58:58Z</time>
      </trkpt>
      <trkpt lat="48.71175" lon="2.49428">
        <ele>89.0025</ele>
        <time>2018-12-03T07:59:00Z</time>
      </trkpt>
      <trkpt lat="48.7117" lon="2.49432">
        <ele>88.9906</ele>
        <time>2018-12-03T07:59:04Z</time>
      </trkpt>
      <trkpt lat="48.71167" lon="2.49438">
        <ele>88.9767</ele>
        <time>2018-12-03T07:59:08Z</time>
      </trkpt>
      <trkpt lat="48.71164" lon="2.49443">
        <ele>88.9641</ele>
        <time>2018-12-03T07:59:11Z</time>
      </trkpt>
      <trkpt lat="48.71162" lon="2.49445">
        <ele>88.9547</ele>
        <time>2018-12-03T07:59:13Z</time>
      </trkpt>
      <trkpt lat="48.71158" lon="2.49449">
        <ele>88.9317</ele>
        <time>2018-12-03T07:59:17Z</time>
      </trkpt>
      <trkpt lat="48.71155" lon="2.49451">
        <ele>88.9187</ele>
        <time>2018-12-03T07:59:19Z</time>
      </trkpt>
      <trkpt lat="48.71151" lon="2.49455">
        <ele>88.8913</ele>
        <time>2018-12-03T07:59:23Z</time>
      </trkpt>
      <trkpt lat="48.71146" lon="2.49459">
        <ele>88.871</ele>
        <time>2018-12-03T07:59:26Z</time>
      </trkpt>
      <trkpt lat="48.71144" lon="2.49461">
        <ele>88.8648</ele>
        <time>2018-12-03T07:59:27Z</time>
      </trkpt>
      <trkpt lat="48.71141" lon="2.49465">
        <ele>88.8403</ele>
        <time>2018-12-03T07:59:31Z</time>
      </trkpt>
      <trkpt lat="48.71139" lon="2.49468">
        <ele>88.8293</ele>
        <time>2018-12-03T07:59:33Z</time>
      </trkpt>
      <trkpt lat="48.71137" lon="2.4947">
        <ele>88.8192</ele>
        <time>2018-12-03T07:59:35Z</time>
      </trkpt>
      <trkpt lat="48.71132" lon="2.49474">
        <ele>88.7819</ele>
        <time>2018-12-03T07:59:41Z</time>
      </trkpt>
      <trkpt lat="48.71129" lon="2.49478">
        <ele>88.7704</ele>
        <time>2018-12-03T07:59:43Z</time>
      </trkpt>
      <trkpt lat="48.71124" lon="2.49481">
        <ele>88.7452</ele>
        <time>2018-12-03T07:59:48Z</time>
      </trkpt>
      <trkpt lat="48.71119" lon="2.49483">
        <ele>88.7333</ele>
        <time>2018-12-03T07:59:51Z</time>
      </trkpt>
      <trkpt lat="48.71115" lon="2.49484">
        <ele>88.7259</ele>
        <time>2018-12-03T07:59:53Z</time>
      </trkpt>
      <trkpt lat="48.71111" lon="2.49488">
        <ele>88.7159</ele>
        <time>2018-12-03T07:59:56Z</time>
      </trkpt>
      <trkpt lat="48.71106" lon="2.49491">
        <ele>88.7078</ele>
        <time>2018-12-03T07:59:59Z</time>
      </trkpt>
      <trkpt lat="48.71101" lon="2.49496">
        <ele>88.6946</ele>
        <time>2018-12-03T08:00:03Z</time>
      </trkpt>
      <trkpt lat="48.71095" lon="2.49499">
        <ele>88.6851</ele>
        <time>2018-12-03T08:00:06Z</time>
      </trkpt>
      <trkpt lat="48.71091" lon="2.495">
        <ele>88.6682</ele>
        <time>2018-12-03T08:00:11Z</time>
      </trkpt>
      <trkpt lat="48.71087" lon="2.495">
        <ele>88.647</ele>
        <time>2018-12-03T08:00:15Z</time>
      </trkpt>
      <trkpt lat="48.71087" lon="2.495">
        <ele>36.8</ele>
        <time>2018-12-03T08:00:22Z</time>
      </trkpt>
      <trkpt lat="48.71087" lon="2.495">
        <ele>36.8</ele>
        <time>2018-12-03T08:00:26Z</time>
      </trkpt>
      <trkpt lat="48.71082" lon="2.49501">
        <ele>88.593</ele>
        <time>2018-12-03T08:00:26Z</time>
      </trkpt>
      <trkpt lat="48.71076" lon="2.49504">
        <ele>88.5695</ele>
        <time>2018-12-03T08:00:31Z</time>
      </trkpt>
      <trkpt lat="48.71072" lon="2.49507">
        <ele>88.5561</ele>
        <time>2018-12-03T08:00:34Z</time>
      </trkpt>
      <trkpt lat="48.71066" lon="2.49511">
        <ele>88.5421</ele>
        <time>2018-12-03T08:00:37Z</time>
      </trkpt>
      <trkpt lat="48.71061" lon="2.49511">
        <ele>88.5256</ele>
        <time>2018-12-03T08:00:40Z</time>
      </trkpt>
      <trkpt lat="48.71057" lon="2.49513">
        <ele>88.5008</ele>
        <time>2018-12-03T08:00:44Z</time>
      </trkpt>
      <trkpt lat="48.71052" lon="2.49516">
        <ele>88.4725</ele>
        <time>2018-12-03T08:00:48Z</time>
      </trkpt>
      <trkpt lat="48.71049" lon="2.49518">
        <ele>88.4564</ele>
        <time>2018-12-03T08:00:50Z</time>
      </trkpt>
      <trkpt lat="48.71045" lon="2.4952">
        <ele>88.4202</ele>
        <time>2018-12-03T08:00:54Z</time>
      </trkpt>
      <trkpt lat="48.71041" lon="2.49528">
        <ele>88.375</ele>
        <time>2018-12-03T08:00:58Z</time>
      </trkpt>
      <trkpt lat="48.71039" lon="2.49533">
        <ele>88.3338</ele>
        <time>2018-12-03T08:01:01Z</time>
      </trkpt>
      <trkpt lat="48.71037" lon="2.49537">
        <ele>88.3027</ele>
        <time>2018-12-03T08:01:03Z</time>
      </trkpt>
      <trkpt lat="48.71034" lon="2.49544">
        <ele>88.2517</ele>
        <time>2018-12-03T08:01:06Z</time>
      </trkpt>
      <trkpt lat="48.71031" lon="2.49549">
        <ele>88.1995</ele>
        <time>2018-12-03T08:01:09Z</time>
      </trkpt>
      <trkpt lat="48.71029" lon="2.49553">
        <ele>88.1647</ele>
        <time>2018-12-03T08:01:11Z</time>
      </trkpt>
      <trkpt lat="48.71027" lon="2.49556">
        <ele>88.1313</ele>
        <time>2018-12-03T08:01:13Z</time>
      </trkpt>
      <trkpt lat="48.71025" lon="2.49562">
        <ele>88.0829</ele>
        <time>2018-12-03T08:01:16Z</time>
      </trkpt>
      <trkpt lat="48.71022" lon="2.49568">
        <ele>88.0372</ele>
        <time>2018-12-03T08:01:19Z</time>
      </trkpt>
      <trkpt lat="48.7102" lon="2.49572">
        <ele>87.992</ele>
        <time>2018-12-03T08:01:22Z</time>
      </trkpt>
      <trkpt lat="48.71016" lon="2.49577">
        <ele>87.9321</ele>
        <time>2018-12-03T08:01:26Z</time>
      </trkpt>
      <trkpt lat="48.71012" lon="2.49583">
        <ele>87.8749</ele>
        <time>2018-12-03T08:01:30Z</time>
      </trkpt>
      <trkpt lat="48.71009" lon="2.49588">
        <ele>87.8477</ele>
        <time>2018-12-03T08:01:32Z</time>
      </trkpt>
      <trkpt lat="48.71005" lon="2.49595">
        <ele>87.7828</ele>
        <time>2018-12-03T08:01:37Z</time>
      </trkpt>
      <trkpt lat="48.71002" lon="2.49601">
        <ele>87.7319</ele>
        <time>2018-12-03T08:01:41Z</time>
      </trkpt>
      <trkpt lat="48.70997" lon="2.49606">
        <ele>87.6865</ele>
        <time>2018-12-03T08:01:45Z</time>
      </trkpt>
      <trkpt lat="48.70994" lon="2.49612">
        <ele>87.645</ele>
        <time>2018-12-03T08:01:49Z</time>
      </trkpt>
      <trkpt lat="48.70991" lon="2.49616">
        <ele>87.6175</ele>
        <time>2018-12-03T08:01:52Z</time>
      </trkpt>
      <trkpt lat="48.70987" lon="2.4962">
        <ele>87.5844</ele>
        <time>2018-12-03T08:01:56Z</time>
      </trkpt>
      <trkpt lat="48.70985" lon="2.49622">
        <ele>87.5625</ele>
        <time>2018-12-03T08:01:59Z</time>
      </trkpt>
      <trkpt lat="48.70979" lon="2.49624">
        <ele>87.5345</ele>
        <time>2018-12-03T08:02:03Z</time>
      </trkpt>
      <trkpt lat="48.70977" lon="2.49625">
        <ele>87.521</ele>
        <time>2018-12-03T08:02:05Z</time>
      </trkpt>
      <trkpt lat="48.70973" lon="2.49626">
        <ele>87.5019</ele>
        <time>2018-12-03T08:02:08Z</time>
      </trkpt>
      <trkpt lat="48.70969" lon="2.49626">
        <ele>87.4781</ele>
        <time>2018-12-03T08:02:12Z</time>
      </trkpt>
      <trkpt lat="48.70963" lon="2.49627">
        <ele>87.4554</ele>
        <time>2018-12-03T08:02:16Z</time>
      </trkpt>
      <trkpt lat="48.70959" lon="2.4963">
        <ele>87.4344</ele>
        <time>2018-12-03T08:02:20Z</time>
      </trkpt>
      <trkpt lat="48.70954" lon="2.49632">
        <ele>87.4137</ele>
        <time>2018-12-03T08:02:24Z</time>
      </trkpt>
      <trkpt lat="48.7095" lon="2.49636">
        <ele>87.3871</ele>
        <time>2018-12-03T08:02:29Z</time>
      </trkpt>
      <trkpt lat="48.70948" lon="2.49638">
        <ele>87.376</ele>
        <time>2018-12-03T08:02:31Z</time>
      </trkpt>
      <trkpt lat="48.70943" lon="2.4964">
        <ele>87.3498</ele>
        <time>2018-12-03T08:02:36Z</time>
      </trkpt>
      <trkpt lat="48.70938" lon="2.4964">
        <ele>87.3313</ele>
        <time>2018-12-03T08:02:40Z</time>
      </trkpt>
      <trkpt lat="48.70933" lon="2.49642">
        <ele>87.3118</ele>
        <time>2018-12-03T08:02:44Z</time>
      </trkpt>
      <trkpt lat="48.7093" lon="2.49642">
        <ele>87.301</ele>
        <time>2018-12-03T08:02:46Z</time>
      </trkpt>
      <trkpt lat="48.70925" lon="2.4964">
        <ele>87.2756</ele>
        <time>2018-12-03T08:02:50Z</time>
      </trkpt>
      <trkpt lat="48.70921" lon="2.49639">
        <ele>87.2619</ele>
        <time>2018-12-03T08:02:52Z</time>
      </trkpt>
      <trkpt lat="48.70918" lon="2.49639">
        <ele>87.2472</ele>
        <time>2018-12-03T08:02:54Z</time>
      </trkpt>
      <trkpt lat="48.70913" lon="2.49636">
        <ele>87.2171</ele>
        <time>2018-12-03T08:02:58Z</time>
      </trkpt>
      <trkpt lat="48.70909" lon="2.49634">
        <ele>87.1968</ele>
        <time>2018-12-03T08:03:01Z</time>
      </trkpt>
      <trkpt lat="48.70905" lon="2.49636">
        <ele>87.169</ele>
        <time>2018-12-03T08:03:06Z</time>
      </trkpt>
      <trkpt lat="48.70899" lon="2.49636">
        <ele>87.1516</ele>
        <time>2018-12-03T08:03:10Z</time>
      </trkpt>
      <trkpt lat="48.70894" lon="2.49636">
        <ele>87.1373</ele>
        <time>2018-12-03T08:03:14Z</time>
      </trkpt>
      <trkpt lat="48.70889" lon="2.49636">
        <ele>87.1132</ele>
        <time>2018-12-03T08:03:22Z</time>
      </trkpt>
      <trkpt lat="48.70883" lon="2.49636">
        <ele>87.1021</ele>
        <time>2018-12-03T08:03:26Z</time>
      </trkpt>
      <trkpt lat="48.70877" lon="2.49634">
        <ele>87.0908</ele>
        <time>2018-12-03T08:03:30Z</time>
      </trkpt>
      <trkpt lat="48.70872" lon="2.49635">
        <ele>87.0764</ele>
        <time>2018-12-03T08:03:35Z</time>
      </trkpt>
      <trkpt lat="48.70865" lon="2.4964">
        <ele>87.0692</ele>
        <time>2018-12-03T08:03:38Z</time>
      </trkpt>
      <trkpt lat="48.70862" lon="2.49642">
        <ele>87.0655</ele>
        <time>2018-12-03T08:03:40Z</time>
      </trkpt>
      <trkpt lat="48.70857" lon="2.49646">
        <ele>87.0573</ele>
        <time>2018-12-03T08:03:44Z</time>
      </trkpt>
      <trkpt lat="48.70855" lon="2.49649">
        <ele>87.0531</ele>
        <time>2018-12-03T08:03:46Z</time>
      </trkpt>
      <trkpt lat="48.70852" lon="2.49651">
        <ele>87.0488</ele>
        <time>2018-12-03T08:03:48Z</time>
      </trkpt>
      <trkpt lat="48.7085" lon="2.49652">
        <ele>87.0444</ele>
        <time>2018-12-03T08:03:50Z</time>
      </trkpt>
      <trkpt lat="48.70846" lon="2.49655">
        <ele>87.0344</ele>
        <time>2018-12-03T08:03:55Z</time>
      </trkpt>
      <trkpt lat="48.70843" lon="2.49657">
        <ele>87.0297</ele>
        <time>2018-12-03T08:03:58Z</time>
      </trkpt>
      <trkpt lat="48.70843" lon="2.49657">
        <ele>36.9</ele>
        <time>2018-12-03T08:04:06Z</time>
      </trkpt>
      <trkpt lat="48.70843" lon="2.49657">
        <ele>36.9</ele>
        <time>2018-12-03T08:04:43Z</time>
      </trkpt>
      <trkpt lat="48.70815" lon="2.49677">
        <ele>87.0338</ele>
        <time>2018-12-03T08:04:43Z</time>
      </trkpt>
      <trkpt lat="48.70809" lon="2.49674">
        <ele>87.0146</ele>
        <time>2018-12-03T08:04:49Z</time>
      </trkpt>
      <trkpt lat="48.70804" lon="2.49673">
        <ele>87.0034</ele>
        <time>2018-12-03T08:04:53Z</time>
      </trkpt>
      <trkpt lat="48.70799" lon="2.49671">
        <ele>86.9969</ele>
        <time>2018-12-03T08:04:57Z</time>
      </trkpt>
      <trkpt lat="48.70796" lon="2.4967">
        <ele>86.995</ele>
        <time>2018-12-03T08:04:59Z</time>
      </trkpt>
      <trkpt lat="48.70793" lon="2.49678">
        <ele>86.984</ele>
        <time>2018-12-03T08:05:07Z</time>
      </trkpt>
      <trkpt lat="48.70793" lon="2.49685">
        <ele>86.9803</ele>
        <time>2018-12-03T08:05:09Z</time>
      </trkpt>
      <trkpt lat="48.70793" lon="2.49689">
        <ele>86.9767</ele>
        <time>2018-12-03T08:05:11Z</time>
      </trkpt>
      <trkpt lat="48.70792" lon="2.49699">
        <ele>86.9679</ele>
        <time>2018-12-03T08:05:15Z</time>
      </trkpt>
      <trkpt lat="48.70792" lon="2.49704">
        <ele>86.9639</ele>
        <time>2018-12-03T08:05:17Z</time>
      </trkpt>
      <trkpt lat="48.70791" lon="2.49709">
        <ele>86.9602</ele>
        <time>2018-12-03T08:05:19Z</time>
      </trkpt>
      <trkpt lat="48.70791" lon="2.49716">
        <ele>86.9507</ele>
        <time>2018-12-03T08:05:24Z</time>
      </trkpt>
      <trkpt lat="48.70791" lon="2.49722">
        <ele>86.9426</ele>
        <time>2018-12-03T08:05:27Z</time>
      </trkpt>
      <trkpt lat="48.7079" lon="2.49731">
        <ele>86.9318</ele>
        <time>2018-12-03T08:05:31Z</time>
      </trkpt>
      <trkpt lat="48.70791" lon="2.49739">
        <ele>86.9236</ele>
        <time>2018-12-03T08:05:34Z</time>
      </trkpt>
      <trkpt lat="48.70793" lon="2.49747">
        <ele>86.9156</ele>
        <time>2018-12-03T08:05:37Z</time>
      </trkpt>
      <trkpt lat="48.70796" lon="2.49752">
        <ele>86.9091</ele>
        <time>2018-12-03T08:05:40Z</time>
      </trkpt>
      <trkpt lat="48.708" lon="2.49755">
        <ele>86.9028</ele>
        <time>2018-12-03T08:05:43Z</time>
      </trkpt>
      <trkpt lat="48.70805" lon="2.49759">
        <ele>86.896</ele>
        <time>2018-12-03T08:05:47Z</time>
      </trkpt>
      <trkpt lat="48.70807" lon="2.49762">
        <ele>86.8926</ele>
        <time>2018-12-03T08:05:50Z</time>
      </trkpt>
      <trkpt lat="48.70812" lon="2.49764">
        <ele>86.8908</ele>
        <time>2018-12-03T08:05:53Z</time>
      </trkpt>
      <trkpt lat="48.70817" lon="2.49764">
        <ele>86.8913</ele>
        <time>2018-12-03T08:05:57Z</time>
      </trkpt>
      <trkpt lat="48.7082" lon="2.49765">
        <ele>86.8921</ele>
        <time>2018-12-03T08:05:59Z</time>
      </trkpt>
      <trkpt lat="48.70826" lon="2.49762">
        <ele>86.893</ele>
        <time>2018-12-03T08:06:03Z</time>
      </trkpt>
      <trkpt lat="48.70831" lon="2.4976">
        <ele>86.8915</ele>
        <time>2018-12-03T08:06:06Z</time>
      </trkpt>
      <trkpt lat="48.70836" lon="2.49761">
        <ele>86.8882</ele>
        <time>2018-12-03T08:06:09Z</time>
      </trkpt>
      <trkpt lat="48.70839" lon="2.49761">
        <ele>86.8855</ele>
        <time>2018-12-03T08:06:11Z</time>
      </trkpt>
      <trkpt lat="48.70841" lon="2.49761">
        <ele>86.883</ele>
        <time>2018-12-03T08:06:13Z</time>
      </trkpt>
      <trkpt lat="48.70846" lon="2.49761">
        <ele>86.8796</ele>
        <time>2018-12-03T08:06:16Z</time>
      </trkpt>
      <trkpt lat="48.70851" lon="2.4976">
        <ele>86.8781</ele>
        <time>2018-12-03T08:06:19Z</time>
      </trkpt>
      <trkpt lat="48.70853" lon="2.49759">
        <ele>86.8775</ele>
        <time>2018-12-03T08:06:21Z</time>
      </trkpt>
      <trkpt lat="48.70858" lon="2.49759">
        <ele>86.8772</ele>
        <time>2018-12-03T08:06:24Z</time>
      </trkpt>
      <trkpt lat="48.70863" lon="2.49757">
        <ele>86.8783</ele>
        <time>2018-12-03T08:06:28Z</time>
      </trkpt>
      <trkpt lat="48.70866" lon="2.49757">
        <ele>86.879</ele>
        <time>2018-12-03T08:06:30Z</time>
      </trkpt>
      <trkpt lat="48.70871" lon="2.49756">
        <ele>86.8812</ele>
        <time>2018-12-03T08:06:34Z</time>
      </trkpt>
      <trkpt lat="48.70876" lon="2.49754">
        <ele>86.8849</ele>
        <time>2018-12-03T08:06:39Z</time>
      </trkpt>
      <trkpt lat="48.70879" lon="2.49753">
        <ele>86.8883</ele>
        <time>2018-12-03T08:06:42Z</time>
      </trkpt>
      <trkpt lat="48.70882" lon="2.49752">
        <ele>86.891</ele>
        <time>2018-12-03T08:06:44Z</time>
      </trkpt>
      <trkpt lat="48.70885" lon="2.49752">
        <ele>86.8947</ele>
        <time>2018-12-03T08:06:46Z</time>
      </trkpt>
      <trkpt lat="48.70891" lon="2.49752">
        <ele>86.9055</ele>
        <time>2018-12-03T08:06:50Z</time>
      </trkpt>
      <trkpt lat="48.70894" lon="2.49758">
        <ele>86.919</ele>
        <time>2018-12-03T08:06:54Z</time>
      </trkpt>
      <trkpt lat="48.70896" lon="2.49765">
        <ele>86.9393</ele>
        <time>2018-12-03T08:06:59Z</time>
      </trkpt>
      <trkpt lat="48.70897" lon="2.49774">
        <ele>86.959</ele>
        <time>2018-12-03T08:07:03Z</time>
      </trkpt>
      <trkpt lat="48.70897" lon="2.49781">
        <ele>86.9791</ele>
        <time>2018-12-03T08:07:06Z</time>
      </trkpt>
      <trkpt lat="48.70899" lon="2.49787">
        <ele>87.015</ele>
        <time>2018-12-03T08:07:11Z</time>
      </trkpt>
      <trkpt lat="48.70903" lon="2.49792">
        <ele>87.0435</ele>
        <time>2018-12-03T08:07:15Z</time>
      </trkpt>
      <trkpt lat="48.70906" lon="2.49799">
        <ele>87.0675</ele>
        <time>2018-12-03T08:07:18Z</time>
      </trkpt>
      <trkpt lat="48.70911" lon="2.49804">
        <ele>87.1111</ele>
        <time>2018-12-03T08:07:23Z</time>
      </trkpt>
      <trkpt lat="48.70916" lon="2.49808">
        <ele>87.1463</ele>
        <time>2018-12-03T08:07:27Z</time>
      </trkpt>
      <trkpt lat="48.70919" lon="2.49814">
        <ele>87.1829</ele>
        <time>2018-12-03T08:07:31Z</time>
      </trkpt>
      <trkpt lat="48.70923" lon="2.49817">
        <ele>87.2211</ele>
        <time>2018-12-03T08:07:35Z</time>
      </trkpt>
      <trkpt lat="48.70927" lon="2.49821">
        <ele>87.2499</ele>
        <time>2018-12-03T08:07:38Z</time>
      </trkpt>
      <trkpt lat="48.70932" lon="2.49825">
        <ele>87.2879</ele>
        <time>2018-12-03T08:07:42Z</time>
      </trkpt>
      <trkpt lat="48.70934" lon="2.49827">
        <ele>87.3064</ele>
        <time>2018-12-03T08:07:44Z</time>
      </trkpt>
      <trkpt lat="48.70936" lon="2.49829">
        <ele>87.3246</ele>
        <time>2018-12-03T08:07:46Z</time>
      </trkpt>
      <trkpt lat="48.70939" lon="2.49832">
        <ele>87.3426</ele>
        <time>2018-12-03T08:07:48Z</time>
      </trkpt>
      <trkpt lat="48.70943" lon="2.49835">
        <ele>87.3703</ele>
        <time>2018-12-03T08:07:51Z</time>
      </trkpt>
      <trkpt lat="48.70947" lon="2.49839">
        <ele>87.4095</ele>
        <time>2018-12-03T08:07:55Z</time>
      </trkpt>
      <trkpt lat="48.70952" lon="2.49841">
        <ele>87.4513</ele>
        <time>2018-12-03T08:07:59Z</time>
      </trkpt>
      <trkpt lat="48.70956" lon="2.49846">
        <ele>87.5057</ele>
        <time>2018-12-03T08:08:04Z</time>
      </trkpt>
      <trkpt lat="48.70959" lon="2.49849">
        <ele>87.538</ele>
        <time>2018-12-03T08:08:07Z</time>
      </trkpt>
      <trkpt lat="48.70961" lon="2.49851">
        <ele>87.5595</ele>
        <time>2018-12-03T08:08:09Z</time>
      </trkpt>
      <trkpt lat="48.70964" lon="2.49853">
        <ele>87.5913</ele>
        <time>2018-12-03T08:08:12Z</time>
      </trkpt>
      <trkpt lat="48.70966" lon="2.49856">
        <ele>87.6121</ele>
        <time>2018-12-03T08:08:14Z</time>
      </trkpt>
      <trkpt lat="48.70968" lon="2.49858">
        <ele>87.6324</ele>
        <time>2018-12-03T08:08:16Z</time>
      </trkpt>
      <trkpt lat="48.70971" lon="2.49862">
        <ele>87.6619</ele>
        <time>2018-12-03T08:08:19Z</time>
      </trkpt>
      <trkpt lat="48.70975" lon="2.49865">
        <ele>87.6992</ele>
        <time>2018-12-03T08:08:23Z</time>
      </trkpt>
      <trkpt lat="48.70979" lon="2.49867">
        <ele>87.7348</ele>
        <time>2018-12-03T08:08:27Z</time>
      </trkpt>
      <trkpt lat="48.70981" lon="2.49869">
        <ele>87.7784</ele>
        <time>2018-12-03T08:08:32Z</time>
      </trkpt>
      <trkpt lat="48.70981" lon="2.49869">
        <ele>41.6</ele>
        <time>2018-12-03T08:08:39Z</time>
      </trkpt>
      <trkpt lat="48.70981" lon="2.49869">
        <ele>41.6</ele>
        <time>2018-12-03T08:09:22Z</time>
      </trkpt>
      <trkpt lat="48.7097" lon="2.49898">
        <ele>87.9874</ele>
        <time>2018-12-03T08:09:22Z</time>
      </trkpt>
      <trkpt lat="48.70966" lon="2.49902">
        <ele>88.007</ele>
        <time>2018-12-03T08:09:26Z</time>
      </trkpt>
      <trkpt lat="48.70963" lon="2.49906">
        <ele>88.0204</ele>
        <time>2018-12-03T08:09:29Z</time>
      </trkpt>
      <trkpt lat="48.7096" lon="2.49909">
        <ele>88.0289</ele>
        <time>2018-12-03T08:09:31Z</time>
      </trkpt>
      <trkpt lat="48.70956" lon="2.49915">
        <ele>88.0414</ele>
        <time>2018-12-03T08:09:34Z</time>
      </trkpt>
      <trkpt lat="48.70954" lon="2.49918">
        <ele>88.0499</ele>
        <time>2018-12-03T08:09:36Z</time>
      </trkpt>
      <trkpt lat="48.70951" lon="2.49925">
        <ele>88.0681</ele>
        <time>2018-12-03T08:09:40Z</time>
      </trkpt>
      <trkpt lat="48.70947" lon="2.49929">
        <ele>88.0837</ele>
        <time>2018-12-03T08:09:43Z</time>
      </trkpt>
      <trkpt lat="48.70944" lon="2.49932">
        <ele>88.1002</ele>
        <time>2018-12-03T08:09:46Z</time>
      </trkpt>
      <trkpt lat="48.7094" lon="2.49934">
        <ele>88.1357</ele>
        <time>2018-12-03T08:09:52Z</time>
      </trkpt>
      <trkpt lat="48.70936" lon="2.49938">
        <ele>88.183</ele>
        <time>2018-12-03T08:09:58Z</time>
      </trkpt>
      <trkpt lat="48.70931" lon="2.49942">
        <ele>88.2288</ele>
        <time>2018-12-03T08:10:04Z</time>
      </trkpt>
      <trkpt lat="48.70928" lon="2.49949">
        <ele>88.2558</ele>
        <time>2018-12-03T08:10:08Z</time>
      </trkpt>
      <trkpt lat="48.70927" lon="2.49957">
        <ele>88.287</ele>
        <time>2018-12-03T08:10:13Z</time>
      </trkpt>
      <trkpt lat="48.70927" lon="2.49957">
        <ele>41.7</ele>
        <time>2018-12-03T08:10:20Z</time>
      </trkpt>
      <trkpt lat="48.70927" lon="2.49957">
        <ele>41.7</ele>
        <time>2018-12-03T08:10:27Z</time>
      </trkpt>
      <trkpt lat="48.70924" lon="2.49967">
        <ele>88.3425</ele>
        <time>2018-12-03T08:10:27Z</time>
      </trkpt>
      <trkpt lat="48.70922" lon="2.49973">
        <ele>88.3659</ele>
        <time>2018-12-03T08:10:30Z</time>
      </trkpt>
      <trkpt lat="48.7092" lon="2.49978">
        <ele>88.3895</ele>
        <time>2018-12-03T08:10:33Z</time>
      </trkpt>
      <trkpt lat="48.70919" lon="2.49982">
        <ele>88.4045</ele>
        <time>2018-12-03T08:10:35Z</time>
      </trkpt>
      <trkpt lat="48.70918" lon="2.49988">
        <ele>88.4328</ele>
        <time>2018-12-03T08:10:39Z</time>
      </trkpt>
      <trkpt lat="48.70918" lon="2.49997">
        <ele>88.4715</ele>
        <time>2018-12-03T08:10:45Z</time>
      </trkpt>
      <trkpt lat="48.70919" lon="2.50004">
        <ele>88.5069</ele>
        <time>2018-12-03T08:10:51Z</time>
      </trkpt>
      <trkpt lat="48.70924" lon="2.50011">
        <ele>88.5238</ele>
        <time>2018-12-03T08:10:54Z</time>
      </trkpt>
      <trkpt lat="48.70924" lon="2.50019">
        <ele>88.5491</ele>
        <time>2018-12-03T08:10:59Z</time>
      </trkpt>
      <trkpt lat="48.70921" lon="2.50028">
        <ele>88.5628</ele>
        <time>2018-12-03T08:11:02Z</time>
      </trkpt>
      <trkpt lat="48.70922" lon="2.50036">
        <ele>88.5798</ele>
        <time>2018-12-03T08:11:06Z</time>
      </trkpt>
      <trkpt lat="48.70925" lon="2.50042">
        <ele>88.601</ele>
        <time>2018-12-03T08:11:12Z</time>
      </trkpt>
      <trkpt lat="48.70926" lon="2.50051">
        <ele>88.6187</ele>
        <time>2018-12-03T08:11:17Z</time>
      </trkpt>
      <trkpt lat="48.70927" lon="2.50056">
        <ele>88.6239</ele>
        <time>2018-12-03T08:11:19Z</time>
      </trkpt>
      <trkpt lat="48.70929" lon="2.50066">
        <ele>88.6303</ele>
        <time>2018-12-03T08:11:22Z</time>
      </trkpt>
      <trkpt lat="48.7093" lon="2.50071">
        <ele>88.6356</ele>
        <time>2018-12-03T08:11:25Z</time>
      </trkpt>
      <trkpt lat="48.70932" lon="2.50079">
        <ele>88.6413</ele>
        <time>2018-12-03T08:11:29Z</time>
      </trkpt>
      <trkpt lat="48.70936" lon="2.50085">
        <ele>88.6458</ele>
        <time>2018-12-03T08:11:33Z</time>
      </trkpt>
      <trkpt lat="48.70938" lon="2.50092">
        <ele>88.6508</ele>
        <time>2018-12-03T08:11:36Z</time>
      </trkpt>
      <trkpt lat="48.7094" lon="2.50096">
        <ele>88.6548</ele>
        <time>2018-12-03T08:11:38Z</time>
      </trkpt>
      <trkpt lat="48.70941" lon="2.50099">
        <ele>88.6591</ele>
        <time>2018-12-03T08:11:40Z</time>
      </trkpt>
      <trkpt lat="48.70944" lon="2.50104">
        <ele>88.6655</ele>
        <time>2018-12-03T08:11:43Z</time>
      </trkpt>
      <trkpt lat="48.70945" lon="2.50111">
        <ele>88.6727</ele>
        <time>2018-12-03T08:11:47Z</time>
      </trkpt>
      <trkpt lat="48.70945" lon="2.50118">
        <ele>88.6841</ele>
        <time>2018-12-03T08:11:53Z</time>
      </trkpt>
      <trkpt lat="48.70944" lon="2.50126">
        <ele>88.6908</ele>
        <time>2018-12-03T08:11:56Z</time>
      </trkpt>
      <trkpt lat="48.70941" lon="2.50132">
        <ele>88.6999</ele>
        <time>2018-12-03T08:11:59Z</time>
      </trkpt>
      <trkpt lat="48.70938" lon="2.50138">
        <ele>88.7123</ele>
        <time>2018-12-03T08:12:02Z</time>
      </trkpt>
      <trkpt lat="48.70936" lon="2.50141">
        <ele>88.7208</ele>
        <time>2018-12-03T08:12:04Z</time>
      </trkpt>
      <trkpt lat="48.70934" lon="2.50146">
        <ele>88.7327</ele>
        <time>2018-12-03T08:12:07Z</time>
      </trkpt>
      <trkpt lat="48.70932" lon="2.50152">
        <ele>88.7558</ele>
        <time>2018-12-03T08:12:13Z</time>
      </trkpt>
      <trkpt lat="48.70939" lon="2.50158">
        <ele>88.7765</ele>
        <time>2018-12-03T08:12:19Z</time>
      </trkpt>
      <trkpt lat="48.70942" lon="2.50165">
        <ele>88.7883</ele>
        <time>2018-12-03T08:12:23Z</time>
      </trkpt>
      <trkpt lat="48.70943" lon="2.50174">
        <ele>88.7964</ele>
        <time>2018-12-03T08:12:27Z</time>
      </trkpt>
      <trkpt lat="48.70945" lon="2.50182">
        <ele>88.8009</ele>
        <time>2018-12-03T08:12:30Z</time>
      </trkpt>
      <trkpt lat="48.70947" lon="2.50188">
        <ele>88.8048</ele>
        <time>2018-12-03T08:12:33Z</time>
      </trkpt>
      <trkpt lat="48.70948" lon="2.50192">
        <ele>88.8073</ele>
        <time>2018-12-03T08:12:35Z</time>
      </trkpt>
      <trkpt lat="48.7095" lon="2.50198">
        <ele>88.8126</ele>
        <time>2018-12-03T08:12:39Z</time>
      </trkpt>
      <trkpt lat="48.70952" lon="2.50202">
        <ele>88.8159</ele>
        <time>2018-12-03T08:12:41Z</time>
      </trkpt>
      <trkpt lat="48.7096" lon="2.50204">
        <ele>88.8266</ele>
        <time>2018-12-03T08:12:46Z</time>
      </trkpt>
      <trkpt lat="48.70965" lon="2.50209">
        <ele>88.8362</ele>
        <time>2018-12-03T08:12:50Z</time>
      </trkpt>
      <trkpt lat="48.70968" lon="2.50215">
        <ele>88.8491</ele>
        <time>2018-12-03T08:12:56Z</time>
      </trkpt>
      <trkpt lat="48.70973" lon="2.50214">
        <ele>88.857</ele>
        <time>2018-12-03T08:13:01Z</time>
      </trkpt>
      <trkpt lat="48.70977" lon="2.50207">
        <ele>88.8562</ele>
        <time>2018-12-03T08:13:04Z</time>
      </trkpt>
      <trkpt lat="48.70982" lon="2.5021">
        <ele>88.8494</ele>
        <time>2018-12-03T08:13:08Z</time>
      </trkpt>
      <trkpt lat="48.70986" lon="2.50216">
        <ele>88.8428</ele>
        <time>2018-12-03T08:13:12Z</time>
      </trkpt>
      <trkpt lat="48.70988" lon="2.50219">
        <ele>88.8395</ele>
        <time>2018-12-03T08:13:14Z</time>
      </trkpt>
      <trkpt lat="48.70991" lon="2.50226">
        <ele>88.835</ele>
        <time>2018-12-03T08:13:17Z</time>
      </trkpt>
      <trkpt lat="48.70993" lon="2.5023">
        <ele>88.8326</ele>
        <time>2018-12-03T08:13:19Z</time>
      </trkpt>
      <trkpt lat="48.70995" lon="2.50234">
        <ele>88.8293</ele>
        <time>2018-12-03T08:13:22Z</time>
      </trkpt>
      <trkpt lat="48.70998" lon="2.5024">
        <ele>88.8265</ele>
        <time>2018-12-03T08:13:26Z</time>
      </trkpt>
      <trkpt lat="48.71001" lon="2.50247">
        <ele>88.8296</ele>
        <time>2018-12-03T08:13:32Z</time>
      </trkpt>
      <trkpt lat="48.71004" lon="2.50252">
        <ele>88.8335</ele>
        <time>2018-12-03T08:13:36Z</time>
      </trkpt>
      <trkpt lat="48.71007" lon="2.5026">
        <ele>88.8361</ele>
        <time>2018-12-03T08:13:40Z</time>
      </trkpt>
      <trkpt lat="48.7101" lon="2.50267">
        <ele>88.8392</ele>
        <time>2018-12-03T08:13:45Z</time>
      </trkpt>
      <trkpt lat="48.7101" lon="2.50267">
        <ele>39.4</ele>
        <time>2018-12-03T08:13:52Z</time>
      </trkpt>
      <trkpt lat="48.7101" lon="2.50267">
        <ele>39.4</ele>
        <time>2018-12-03T08:14:11Z</time>
      </trkpt>
      <trkpt lat="48.71021" lon="2.50289">
        <ele>88.7894</ele>
        <time>2018-12-03T08:14:11Z</time>
      </trkpt>
      <trkpt lat="48.71024" lon="2.50293">
        <ele>88.7809</ele>
        <time>2018-12-03T08:14:13Z</time>
      </trkpt>
      <trkpt lat="48.71026" lon="2.50299">
        <ele>88.7687</ele>
        <time>2018-12-03T08:14:16Z</time>
      </trkpt>
      <trkpt lat="48.71028" lon="2.50303">
        <ele>88.7613</ele>
        <time>2018-12-03T08:14:18Z</time>
      </trkpt>
      <trkpt lat="48.7103" lon="2.5031">
        <ele>88.7512</ele>
        <time>2018-12-03T08:14:22Z</time>
      </trkpt>
      <trkpt lat="48.71033" lon="2.50316">
        <ele>88.7453</ele>
        <time>2018-12-03T08:14:27Z</time>
      </trkpt>
      <trkpt lat="48.71038" lon="2.50317">
        <ele>88.7402</ele>
        <time>2018-12-03T08:14:33Z</time>
      </trkpt>
      <trkpt lat="48.7104" lon="2.50317">
        <ele>88.7381</ele>
        <time>2018-12-03T08:14:35Z</time>
      </trkpt>
      <trkpt lat="48.71045" lon="2.50316">
        <ele>88.7349</ele>
        <time>2018-12-03T08:14:39Z</time>
      </trkpt>
      <trkpt lat="48.7105" lon="2.50318">
        <ele>88.7355</ele>
        <time>2018-12-03T08:14:43Z</time>
      </trkpt>
      <trkpt lat="48.71053" lon="2.50319">
        <ele>88.7384</ele>
        <time>2018-12-03T08:14:45Z</time>
      </trkpt>
      <trkpt lat="48.71058" lon="2.50321">
        <ele>88.7471</ele>
        <time>2018-12-03T08:14:48Z</time>
      </trkpt>
      <trkpt lat="48.71063" lon="2.50325">
        <ele>88.7692</ele>
        <time>2018-12-03T08:14:53Z</time>
      </trkpt>
      <trkpt lat="48.71064" lon="2.50332">
        <ele>88.7951</ele>
        <time>2018-12-03T08:14:58Z</time>
      </trkpt>
      <trkpt lat="48.71064" lon="2.50341">
        <ele>88.8106</ele>
        <time>2018-12-03T08:15:01Z</time>
      </trkpt>
      <trkpt lat="48.71064" lon="2.50348">
        <ele>88.826</ele>
        <time>2018-12-03T08:15:04Z</time>
      </trkpt>
      <trkpt lat="48.71063" lon="2.50352">
        <ele>88.8498</ele>
        <time>2018-12-03T08:15:12Z</time>
      </trkpt>
      <trkpt lat="48.71061" lon="2.50358">
        <ele>88.8887</ele>
        <time>2018-12-03T08:15:28Z</time>
      </trkpt>
      <trkpt lat="48.71067" lon="2.50364">
        <ele>88.9529</ele>
        <time>2018-12-03T08:15:49Z</time>
      </trkpt>
      <trkpt lat="48.7107" lon="2.50372">
        <ele>88.9643</ele>
        <time>2018-12-03T08:15:54Z</time>
      </trkpt>
      <trkpt lat="48.71071" lon="2.5038">
        <ele>88.9758</ele>
        <time>2018-12-03T08:16:00Z</time>
      </trkpt>
      <trkpt lat="48.71071" lon="2.50388">
        <ele>88.9855</ele>
        <time>2018-12-03T08:16:05Z</time>
      </trkpt>
      <trkpt lat="48.71073" lon="2.50394">
        <ele>88.9917</ele>
        <time>2018-12-03T08:16:09Z</time>
      </trkpt>
      <trkpt lat="48.71075" lon="2.50401">
        <ele>88.9973</ele>
        <time>2018-12-03T08:16:13Z</time>
      </trkpt>
      <trkpt lat="48.71076" lon="2.50409">
        <ele>89.0041</ele>
        <time>2018-12-03T08:16:16Z</time>
      </trkpt>
      <trkpt lat="48.7108" lon="2.50417">
        <ele>89.0125</ele>
        <time>2018-12-03T08:16:19Z</time>
      </trkpt>
      <trkpt lat="48.71083" lon="2.50423">
        <ele>89.023</ele>
        <time>2018-12-03T08:16:22Z</time>
      </trkpt>
      <trkpt lat="48.71088" lon="2.50429">
        <ele>89.0387</ele>
        <time>2018-12-03T08:16:26Z</time>
      </trkpt>
      <trkpt lat="48.7109" lon="2.50432">
        <ele>89.0472</ele>
        <time>2018-12-03T08:16:28Z</time>
      </trkpt>
      <trkpt lat="48.71093" lon="2.50438">
        <ele>89.0682</ele>
        <time>2018-12-03T08:16:32Z</time>
      </trkpt>
      <trkpt lat="48.71097" lon="2.50442">
        <ele>89.1097</ele>
        <time>2018-12-03T08:16:38Z</time>
      </trkpt>
      <trkpt lat="48.71101" lon="2.50447">
        <ele>89.1443</ele>
        <time>2018-12-03T08:16:44Z</time>
      </trkpt>
      <trkpt lat="48.71104" lon="2.50452">
        <ele>89.1615</ele>
        <time>2018-12-03T08:16:48Z</time>
      </trkpt>
      <trkpt lat="48.71109" lon="2.50456">
        <ele>89.1764</ele>
        <time>2018-12-03T08:16:52Z</time>
      </trkpt>
      <trkpt lat="48.71115" lon="2.50458">
        <ele>89.1931</ele>
        <time>2018-12-03T08:16:58Z</time>
      </trkpt>
      <trkpt lat="48.71118" lon="2.50458">
        <ele>89.2014</ele>
        <time>2018-12-03T08:17:02Z</time>
      </trkpt>
      <trkpt lat="48.71123" lon="2.50457">
        <ele>89.2188</ele>
        <time>2018-12-03T08:17:09Z</time>
      </trkpt>
      <trkpt lat="48.71127" lon="2.50459">
        <ele>89.2331</ele>
        <time>2018-12-03T08:17:14Z</time>
      </trkpt>
      <trkpt lat="48.71129" lon="2.5046">
        <ele>89.2449</ele>
        <time>2018-12-03T08:17:18Z</time>
      </trkpt>
      <trkpt lat="48.71138" lon="2.50462">
        <ele>89.2559</ele>
        <time>2018-12-03T08:17:22Z</time>
      </trkpt>
      <trkpt lat="48.71143" lon="2.50466">
        <ele>89.2677</ele>
        <time>2018-12-03T08:17:27Z</time>
      </trkpt>
      <trkpt lat="48.71148" lon="2.50464">
        <ele>89.2748</ele>
        <time>2018-12-03T08:17:30Z</time>
      </trkpt>
      <trkpt lat="48.71154" lon="2.50465">
        <ele>89.2837</ele>
        <time>2018-12-03T08:17:33Z</time>
      </trkpt>
      <trkpt lat="48.71159" lon="2.50466">
        <ele>89.3038</ele>
        <time>2018-12-03T08:17:38Z</time>
      </trkpt>
      <trkpt lat="48.71163" lon="2.50471">
        <ele>89.3196</ele>
        <time>2018-12-03T08:17:42Z</time>
      </trkpt>
      <trkpt lat="48.71167" lon="2.50477">
        <ele>89.3426</ele>
        <time>2018-12-03T08:17:47Z</time>
      </trkpt>
      <trkpt lat="48.71171" lon="2.50483">
        <ele>89.3638</ele>
        <time>2018-12-03T08:17:51Z</time>
      </trkpt>
      <trkpt lat="48.71175" lon="2.50487">
        <ele>89.3891</ele>
        <time>2018-12-03T08:17:55Z</time>
      </trkpt>
      <trkpt lat="48.71178" lon="2.50492">
        <ele>89.419</ele>
        <time>2018-12-03T08:17:59Z</time>
      </trkpt>
      <trkpt lat="48.71181" lon="2.505">
        <ele>89.47</ele>
        <time>2018-12-03T08:18:05Z</time>
      </trkpt>
      <trkpt lat="48.71183" lon="2.50511">
        <ele>89.501</ele>
        <time>2018-12-03T08:18:08Z</time>
      </trkpt>
      <trkpt lat="48.71186" lon="2.50518">
        <ele>89.5573</ele>
        <time>2018-12-03T08:18:13Z</time>
      </trkpt>
      <trkpt lat="48.71187" lon="2.50524">
        <ele>89.6084</ele>
        <time>2018-12-03T08:18:17Z</time>
      </trkpt>
      <trkpt lat="48.71191" lon="2.50529">
        <ele>89.6343</ele>
        <time>2018-12-03T08:18:19Z</time>
      </trkpt>
      <trkpt lat="48.71193" lon="2.50535">
        <ele>89.6734</ele>
        <time>2018-12-03T08:18:22Z</time>
      </trkpt>
      <trkpt lat="48.71196" lon="2.50548">
        <ele>89.7679</ele>
        <time>2018-12-03T08:18:29Z</time>
      </trkpt>
      <trkpt lat="48.71196" lon="2.50557">
        <ele>89.7953</ele>
        <time>2018-12-03T08:18:31Z</time>
      </trkpt>
      <trkpt lat="48.71196" lon="2.50566">
        <ele>89.8248</ele>
        <time>2018-12-03T08:18:34Z</time>
      </trkpt>
      <trkpt lat="48.71197" lon="2.50574">
        <ele>89.868</ele>
        <time>2018-12-03T08:18:37Z</time>
      </trkpt>
      <trkpt lat="48.71197" lon="2.50583">
        <ele>89.9264</ele>
        <time>2018-12-03T08:18:41Z</time>
      </trkpt>
      <trkpt lat="48.71197" lon="2.50591">
        <ele>89.9599</ele>
        <time>2018-12-03T08:18:45Z</time>
      </trkpt>
      <trkpt lat="48.71197" lon="2.50596">
        <ele>90.0083</ele>
        <time>2018-12-03T08:18:49Z</time>
      </trkpt>
      <trkpt lat="48.71194" lon="2.50604">
        <ele>90.0291</ele>
        <time>2018-12-03T08:18:52Z</time>
      </trkpt>
      <trkpt lat="48.71192" lon="2.5061">
        <ele>90.1061</ele>
        <time>2018-12-03T08:18:57Z</time>
      </trkpt>
      <trkpt lat="48.71191" lon="2.5062">
        <ele>90.1795</ele>
        <time>2018-12-03T08:19:01Z</time>
      </trkpt>
      <trkpt lat="48.7119" lon="2.50627">
        <ele>90.233</ele>
        <time>2018-12-03T08:19:04Z</time>
      </trkpt>
      <trkpt lat="48.71189" lon="2.50631">
        <ele>90.2532</ele>
        <time>2018-12-03T08:19:06Z</time>
      </trkpt>
      <trkpt lat="48.71186" lon="2.50638">
        <ele>90.3296</ele>
        <time>2018-12-03T08:19:10Z</time>
      </trkpt>
      <trkpt lat="48.71184" lon="2.50644">
        <ele>90.3696</ele>
        <time>2018-12-03T08:19:12Z</time>
      </trkpt>
      <trkpt lat="48.71185" lon="2.50652">
        <ele>90.4495</ele>
        <time>2018-12-03T08:19:16Z</time>
      </trkpt>
      <trkpt lat="48.71183" lon="2.5066">
        <ele>90.506</ele>
        <time>2018-12-03T08:19:19Z</time>
      </trkpt>
      <trkpt lat="48.7118" lon="2.50666">
        <ele>90.5782</ele>
        <time>2018-12-03T08:19:23Z</time>
      </trkpt>
      <trkpt lat="48.71178" lon="2.50672">
        <ele>90.6327</ele>
        <time>2018-12-03T08:19:26Z</time>
      </trkpt>
      <trkpt lat="48.71176" lon="2.50682">
        <ele>90.7036</ele>
        <time>2018-12-03T08:19:30Z</time>
      </trkpt>
      <trkpt lat="48.71175" lon="2.50687">
        <ele>90.7382</ele>
        <time>2018-12-03T08:19:32Z</time>
      </trkpt>
      <trkpt lat="48.71174" lon="2.50693">
        <ele>90.7867</ele>
        <time>2018-12-03T08:19:35Z</time>
      </trkpt>
      <trkpt lat="48.71173" lon="2.50698">
        <ele>90.818</ele>
        <time>2018-12-03T08:19:37Z</time>
      </trkpt>
      <trkpt lat="48.71173" lon="2.50706">
        <ele>90.8797</ele>
        <time>2018-12-03T08:19:42Z</time>
      </trkpt>
      <trkpt lat="48.71174" lon="2.50713">
        <ele>90.9343</ele>
        <time>2018-12-03T08:19:46Z</time>
      </trkpt>
      <trkpt lat="48.71179" lon="2.50717">
        <ele>90.9714</ele>
        <time>2018-12-03T08:19:49Z</time>
      </trkpt>
      <trkpt lat="48.71181" lon="2.5072">
        <ele>90.9941</ele>
        <time>2018-12-03T08:19:51Z</time>
      </trkpt>
      <trkpt lat="48.71185" lon="2.5073">
        <ele>91.0271</ele>
        <time>2018-12-03T08:19:54Z</time>
      </trkpt>
      <trkpt lat="48.71186" lon="2.50734">
        <ele>91.0606</ele>
        <time>2018-12-03T08:19:57Z</time>
      </trkpt>
      <trkpt lat="48.7119" lon="2.5074">
        <ele>91.1074</ele>
        <time>2018-12-03T08:20:01Z</time>
      </trkpt>
      <trkpt lat="48.71195" lon="2.50744">
        <ele>91.1581</ele>
        <time>2018-12-03T08:20:05Z</time>
      </trkpt>
      <trkpt lat="48.71197" lon="2.50747">
        <ele>91.1994</ele>
        <time>2018-12-03T08:20:08Z</time>
      </trkpt>
      <trkpt lat="48.71199" lon="2.50749">
        <ele>91.2267</ele>
        <time>2018-12-03T08:20:10Z</time>
      </trkpt>
      <trkpt lat="48.71201" lon="2.50751">
        <ele>91.2539</ele>
        <time>2018-12-03T08:20:12Z</time>
      </trkpt>
      <trkpt lat="48.71205" lon="2.50757">
        <ele>91.3074</ele>
        <time>2018-12-03T08:20:16Z</time>
      </trkpt>
      <trkpt lat="48.71208" lon="2.50762">
        <ele>91.3643</ele>
        <time>2018-12-03T08:20:20Z</time>
      </trkpt>
      <trkpt lat="48.71213" lon="2.50764">
        <ele>91.4065</ele>
        <time>2018-12-03T08:20:23Z</time>
      </trkpt>
      <trkpt lat="48.71216" lon="2.5077">
        <ele>91.458</ele>
        <time>2018-12-03T08:20:27Z</time>
      </trkpt>
      <trkpt lat="48.7122" lon="2.50774">
        <ele>91.5167</ele>
        <time>2018-12-03T08:20:32Z</time>
      </trkpt>
      <trkpt lat="48.71223" lon="2.50778">
        <ele>91.5493</ele>
        <time>2018-12-03T08:20:35Z</time>
      </trkpt>
      <trkpt lat="48.71227" lon="2.50785">
        <ele>91.5977</ele>
        <time>2018-12-03T08:20:40Z</time>
      </trkpt>
      <trkpt lat="48.71228" lon="2.50791">
        <ele>91.6266</ele>
        <time>2018-12-03T08:20:44Z</time>
      </trkpt>
      <trkpt lat="48.7123" lon="2.50799">
        <ele>91.6622</ele>
        <time>2018-12-03T08:20:48Z</time>
      </trkpt>
      <trkpt lat="48.71231" lon="2.50809">
        <ele>91.6792</ele>
        <time>2018-12-03T08:20:51Z</time>
      </trkpt>
      <trkpt lat="48.71231" lon="2.50815">
        <ele>91.7118</ele>
        <time>2018-12-03T08:20:55Z</time>
      </trkpt>
      <trkpt lat="48.71232" lon="2.50821">
        <ele>91.7553</ele>
        <time>2018-12-03T08:21:02Z</time>
      </trkpt>
      <trkpt lat="48.71232" lon="2.50828">
        <ele>91.7799</ele>
        <time>2018-12-03T08:21:06Z</time>
      </trkpt>
      <trkpt lat="48.71234" lon="2.50838">
        <ele>91.823</ele>
        <time>2018-12-03T08:21:11Z</time>
      </trkpt>
      <trkpt lat="48.71235" lon="2.50844">
        <ele>91.8408</ele>
        <time>2018-12-03T08:21:13Z</time>
      </trkpt>
      <trkpt lat="48.71236" lon="2.50852">
        <ele>91.8914</ele>
        <time>2018-12-03T08:21:18Z</time>
      </trkpt>
      <trkpt lat="48.71237" lon="2.50857">
        <ele>91.9151</ele>
        <time>2018-12-03T08:21:20Z</time>
      </trkpt>
      <trkpt lat="48.71238" lon="2.50864">
        <ele>91.9773</ele>
        <time>2018-12-03T08:21:25Z</time>
      </trkpt>
      <trkpt lat="48.7124" lon="2.50868">
        <ele>92.0024</ele>
        <time>2018-12-03T08:21:27Z</time>
      </trkpt>
      <trkpt lat="48.71241" lon="2.50874">
        <ele>92.0417</ele>
        <time>2018-12-03T08:21:30Z</time>
      </trkpt>
      <trkpt lat="48.71242" lon="2.50877">
        <ele>92.0686</ele>
        <time>2018-12-03T08:21:32Z</time>
      </trkpt>
      <trkpt lat="48.71242" lon="2.5088">
        <ele>92.1367</ele>
        <time>2018-12-03T08:21:37Z</time>
      </trkpt>
      <trkpt lat="48.71243" lon="2.50887">
        <ele>92.2019</ele>
        <time>2018-12-03T08:21:42Z</time>
      </trkpt>
      <trkpt lat="48.71243" lon="2.50898">
        <ele>92.2273</ele>
        <time>2018-12-03T08:21:44Z</time>
      </trkpt>
      <trkpt lat="48.71242" lon="2.5091">
        <ele>92.2548</ele>
        <time>2018-12-03T08:21:46Z</time>
      </trkpt>
      <trkpt lat="48.71243" lon="2.50919">
        <ele>92.2987</ele>
        <time>2018-12-03T08:21:49Z</time>
      </trkpt>
      <trkpt lat="48.71243" lon="2.50919">
        <ele>44</ele>
        <time>2018-12-03T08:21:54Z</time>
      </trkpt>
      <trkpt lat="48.71243" lon="2.50919">
        <ele>44</ele>
        <time>2018-12-03T08:21:59Z</time>
      </trkpt>
      <trkpt lat="48.71246" lon="2.50931">
        <ele>92.4161</ele>
        <time>2018-12-03T08:21:59Z</time>
      </trkpt>
      <trkpt lat="48.71247" lon="2.50934">
        <ele>92.4613</ele>
        <time>2018-12-03T08:22:02Z</time>
      </trkpt>
      <trkpt lat="48.71248" lon="2.50941">
        <ele>92.5513</ele>
        <time>2018-12-03T08:22:08Z</time>
      </trkpt>
      <trkpt lat="48.71249" lon="2.50957">
        <ele>92.5974</ele>
        <time>2018-12-03T08:22:13Z</time>
      </trkpt>
      <trkpt lat="48.7125" lon="2.50964">
        <ele>92.6423</ele>
        <time>2018-12-03T08:22:16Z</time>
      </trkpt>
      <trkpt lat="48.71251" lon="2.50969">
        <ele>92.6868</ele>
        <time>2018-12-03T08:22:19Z</time>
      </trkpt>
      <trkpt lat="48.71251" lon="2.50979">
        <ele>92.7416</ele>
        <time>2018-12-03T08:22:23Z</time>
      </trkpt>
      <trkpt lat="48.71251" lon="2.50986">
        <ele>92.7812</ele>
        <time>2018-12-03T08:22:26Z</time>
      </trkpt>
      <trkpt lat="48.71254" lon="2.50993">
        <ele>92.8212</ele>
        <time>2018-12-03T08:22:30Z</time>
      </trkpt>
      <trkpt lat="48.71255" lon="2.51">
        <ele>92.8842</ele>
        <time>2018-12-03T08:22:35Z</time>
      </trkpt>
      <trkpt lat="48.71255" lon="2.51009">
        <ele>92.9207</ele>
        <time>2018-12-03T08:22:38Z</time>
      </trkpt>
      <trkpt lat="48.71255" lon="2.51014">
        <ele>92.9453</ele>
        <time>2018-12-03T08:22:41Z</time>
      </trkpt>
      <trkpt lat="48.71255" lon="2.51022">
        <ele>92.9698</ele>
        <time>2018-12-03T08:22:44Z</time>
      </trkpt>
      <trkpt lat="48.71255" lon="2.51026">
        <ele>92.9828</ele>
        <time>2018-12-03T08:22:46Z</time>
      </trkpt>
      <trkpt lat="48.71255" lon="2.51035">
        <ele>93.0423</ele>
        <time>2018-12-03T08:22:51Z</time>
      </trkpt>
      <trkpt lat="48.71257" lon="2.51042">
        <ele>93.1131</ele>
        <time>2018-12-03T08:22:57Z</time>
      </trkpt>
      <trkpt lat="48.71258" lon="2.51046">
        <ele>93.1472</ele>
        <time>2018-12-03T08:23:01Z</time>
      </trkpt>
      <trkpt lat="48.71259" lon="2.51053">
        <ele>93.2103</ele>
        <time>2018-12-03T08:23:07Z</time>
      </trkpt>
      <trkpt lat="48.71261" lon="2.51061">
        <ele>93.2586</ele>
        <time>2018-12-03T08:23:12Z</time>
      </trkpt>
      <trkpt lat="48.71262" lon="2.51065">
        <ele>93.2758</ele>
        <time>2018-12-03T08:23:14Z</time>
      </trkpt>
      <trkpt lat="48.71264" lon="2.51076">
        <ele>93.2987</ele>
        <time>2018-12-03T08:23:17Z</time>
      </trkpt>
      <trkpt lat="48.71265" lon="2.51083">
        <ele>93.3119</ele>
        <time>2018-12-03T08:23:19Z</time>
      </trkpt>
      <trkpt lat="48.71267" lon="2.5109">
        <ele>93.3401</ele>
        <time>2018-12-03T08:23:25Z</time>
      </trkpt>
      <trkpt lat="48.71267" lon="2.511">
        <ele>93.3562</ele>
        <time>2018-12-03T08:23:30Z</time>
      </trkpt>
      <trkpt lat="48.71266" lon="2.51108">
        <ele>93.3656</ele>
        <time>2018-12-03T08:23:33Z</time>
      </trkpt>
      <trkpt lat="48.71266" lon="2.51112">
        <ele>93.3716</ele>
        <time>2018-12-03T08:23:35Z</time>
      </trkpt>
      <trkpt lat="48.71266" lon="2.51112">
        <ele>93.3716</ele>
        <time>2018-12-03T08:23:41Z</time>
      </trkpt>
      <trkpt lat="48.71266" lon="2.51112">
        <ele>45.7</ele>
        <time>2018-12-03T08:23:41Z</time>
      </trkpt>
      <trkpt lat="48.71266" lon="2.51112">
        <ele>45.7</ele>
        <time>2018-12-03T08:23:49Z</time>
      </trkpt>
      <trkpt lat="48.71269" lon="2.51143">
        <ele>93.3959</ele>
        <time>2018-12-03T08:23:49Z</time>
      </trkpt>
      <trkpt lat="48.71269" lon="2.51149">
        <ele>93.4016</ele>
        <time>2018-12-03T08:23:52Z</time>
      </trkpt>
      <trkpt lat="48.71272" lon="2.51155">
        <ele>93.4061</ele>
        <time>2018-12-03T08:23:56Z</time>
      </trkpt>
      <trkpt lat="48.71272" lon="2.51163">
        <ele>93.4101</ele>
        <time>2018-12-03T08:24:02Z</time>
      </trkpt>
      <trkpt lat="48.71272" lon="2.51174">
        <ele>93.4139</ele>
        <time>2018-12-03T08:24:06Z</time>
      </trkpt>
      <trkpt lat="48.71273" lon="2.51181">
        <ele>93.4202</ele>
        <time>2018-12-03T08:24:10Z</time>
      </trkpt>
      <trkpt lat="48.71274" lon="2.51188">
        <ele>93.4228</ele>
        <time>2018-12-03T08:24:13Z</time>
      </trkpt>
      <trkpt lat="48.71274" lon="2.51195">
        <ele>93.4348</ele>
        <time>2018-12-03T08:24:18Z</time>
      </trkpt>
      <trkpt lat="48.71275" lon="2.51199">
        <ele>93.4358</ele>
        <time>2018-12-03T08:24:21Z</time>
      </trkpt>
      <trkpt lat="48.71275" lon="2.51205">
        <ele>93.4424</ele>
        <time>2018-12-03T08:24:23Z</time>
      </trkpt>
      <trkpt lat="48.71275" lon="2.51215">
        <ele>93.4523</ele>
        <time>2018-12-03T08:24:27Z</time>
      </trkpt>
      <trkpt lat="48.71275" lon="2.51222">
        <ele>93.4551</ele>
        <time>2018-12-03T08:24:29Z</time>
      </trkpt>
      <trkpt lat="48.71275" lon="2.51228">
        <ele>93.4581</ele>
        <time>2018-12-03T08:24:31Z</time>
      </trkpt>
      <trkpt lat="48.71275" lon="2.51233">
        <ele>93.4598</ele>
        <time>2018-12-03T08:24:33Z</time>
      </trkpt>
      <trkpt lat="48.71273" lon="2.51241">
        <ele>93.4714</ele>
        <time>2018-12-03T08:24:38Z</time>
      </trkpt>
      <trkpt lat="48.71273" lon="2.5125">
        <ele>93.4862</ele>
        <time>2018-12-03T08:24:43Z</time>
      </trkpt>
      <trkpt lat="48.71273" lon="2.51253">
        <ele>93.4927</ele>
        <time>2018-12-03T08:24:45Z</time>
      </trkpt>
      <trkpt lat="48.71274" lon="2.51259">
        <ele>93.4987</ele>
        <time>2018-12-03T08:24:47Z</time>
      </trkpt>
      <trkpt lat="48.71274" lon="2.51263">
        <ele>93.5018</ele>
        <time>2018-12-03T08:24:49Z</time>
      </trkpt>
      <trkpt lat="48.71274" lon="2.51271">
        <ele>93.5219</ele>
        <time>2018-12-03T08:24:54Z</time>
      </trkpt>
      <trkpt lat="48.7127" lon="2.5128">
        <ele>93.5357</ele>
        <time>2018-12-03T08:24:57Z</time>
      </trkpt>
      <trkpt lat="48.71268" lon="2.51285">
        <ele>93.5459</ele>
        <time>2018-12-03T08:24:59Z</time>
      </trkpt>
      <trkpt lat="48.71266" lon="2.51291">
        <ele>93.5596</ele>
        <time>2018-12-03T08:25:02Z</time>
      </trkpt>
      <trkpt lat="48.71262" lon="2.51297">
        <ele>93.5921</ele>
        <time>2018-12-03T08:25:07Z</time>
      </trkpt>
      <trkpt lat="48.71259" lon="2.51303">
        <ele>93.621</ele>
        <time>2018-12-03T08:25:11Z</time>
      </trkpt>
      <trkpt lat="48.71258" lon="2.51306">
        <ele>93.6372</ele>
        <time>2018-12-03T08:25:13Z</time>
      </trkpt>
      <trkpt lat="48.71256" lon="2.51311">
        <ele>93.6535</ele>
        <time>2018-12-03T08:25:15Z</time>
      </trkpt>
      <trkpt lat="48.71255" lon="2.51315">
        <ele>93.6698</ele>
        <time>2018-12-03T08:25:17Z</time>
      </trkpt>
      <trkpt lat="48.71253" lon="2.51323">
        <ele>93.7024</ele>
        <time>2018-12-03T08:25:21Z</time>
      </trkpt>
      <trkpt lat="48.71251" lon="2.51327">
        <ele>93.7189</ele>
        <time>2018-12-03T08:25:23Z</time>
      </trkpt>
      <trkpt lat="48.71248" lon="2.51334">
        <ele>93.7616</ele>
        <time>2018-12-03T08:25:28Z</time>
      </trkpt>
      <trkpt lat="48.71246" lon="2.51341">
        <ele>93.786</ele>
        <time>2018-12-03T08:25:31Z</time>
      </trkpt>
      <trkpt lat="48.71245" lon="2.51349">
        <ele>93.8175</ele>
        <time>2018-12-03T08:25:35Z</time>
      </trkpt>
      <trkpt lat="48.71244" lon="2.51356">
        <ele>93.8418</ele>
        <time>2018-12-03T08:25:38Z</time>
      </trkpt>
      <trkpt lat="48.71245" lon="2.51365">
        <ele>93.8816</ele>
        <time>2018-12-03T08:25:43Z</time>
      </trkpt>
      <trkpt lat="48.71246" lon="2.51372">
        <ele>93.9203</ele>
        <time>2018-12-03T08:25:49Z</time>
      </trkpt>
      <trkpt lat="48.71249" lon="2.51378">
        <ele>93.947</ele>
        <time>2018-12-03T08:25:53Z</time>
      </trkpt>
      <trkpt lat="48.71252" lon="2.51391">
        <ele>93.9796</ele>
        <time>2018-12-03T08:25:59Z</time>
      </trkpt>
      <trkpt lat="48.71252" lon="2.514">
        <ele>93.9914</ele>
        <time>2018-12-03T08:26:02Z</time>
      </trkpt>
      <trkpt lat="48.71255" lon="2.51409">
        <ele>94.0171</ele>
        <time>2018-12-03T08:26:08Z</time>
      </trkpt>
      <trkpt lat="48.71257" lon="2.51417">
        <ele>94.0346</ele>
        <time>2018-12-03T08:26:12Z</time>
      </trkpt>
      <trkpt lat="48.71256" lon="2.51425">
        <ele>94.0433</ele>
        <time>2018-12-03T08:26:14Z</time>
      </trkpt>
      <trkpt lat="48.71258" lon="2.51433">
        <ele>94.0549</ele>
        <time>2018-12-03T08:26:17Z</time>
      </trkpt>
      <trkpt lat="48.71262" lon="2.5144">
        <ele>94.0612</ele>
        <time>2018-12-03T08:26:19Z</time>
      </trkpt>
      <trkpt lat="48.71267" lon="2.51444">
        <ele>94.0691</ele>
        <time>2018-12-03T08:26:22Z</time>
      </trkpt>
      <trkpt lat="48.71269" lon="2.5145">
        <ele>94.0763</ele>
        <time>2018-12-03T08:26:27Z</time>
      </trkpt>
      <trkpt lat="48.71269" lon="2.5145">
        <ele>48.3</ele>
        <time>2018-12-03T08:26:32Z</time>
      </trkpt>
      <trkpt lat="48.71269" lon="2.5145">
        <ele>48.3</ele>
        <time>2018-12-03T08:26:38Z</time>
      </trkpt>
      <trkpt lat="48.71272" lon="2.51462">
        <ele>94.1004</ele>
        <time>2018-12-03T08:26:38Z</time>
      </trkpt>
      <trkpt lat="48.71273" lon="2.5147">
        <ele>94.1269</ele>
        <time>2018-12-03T08:26:43Z</time>
      </trkpt>
      <trkpt lat="48.71274" lon="2.51474">
        <ele>94.1478</ele>
        <time>2018-12-03T08:26:46Z</time>
      </trkpt>
      <trkpt lat="48.71274" lon="2.51483">
        <ele>94.1723</ele>
        <time>2018-12-03T08:26:49Z</time>
      </trkpt>
      <trkpt lat="48.71274" lon="2.51487">
        <ele>94.1819</ele>
        <time>2018-12-03T08:26:50Z</time>
      </trkpt>
      <trkpt lat="48.71276" lon="2.51495">
        <ele>94.2239</ele>
        <time>2018-12-03T08:26:55Z</time>
      </trkpt>
      <trkpt lat="48.71279" lon="2.51501">
        <ele>94.2886</ele>
        <time>2018-12-03T08:27:02Z</time>
      </trkpt>
      <trkpt lat="48.71279" lon="2.51501">
        <ele>47.4</ele>
        <time>2018-12-03T08:27:09Z</time>
      </trkpt>
      <trkpt lat="48.71279" lon="2.51501">
        <ele>47.4</ele>
        <time>2018-12-03T08:27:12Z</time>
      </trkpt>
      <trkpt lat="48.71282" lon="2.51518">
        <ele>94.388</ele>
        <time>2018-12-03T08:27:12Z</time>
      </trkpt>
      <trkpt lat="48.71283" lon="2.51525">
        <ele>94.3988</ele>
        <time>2018-12-03T08:27:13Z</time>
      </trkpt>
      <trkpt lat="48.71283" lon="2.51529">
        <ele>94.4205</ele>
        <time>2018-12-03T08:27:15Z</time>
      </trkpt>
      <trkpt lat="48.71285" lon="2.51536">
        <ele>94.4433</ele>
        <time>2018-12-03T08:27:17Z</time>
      </trkpt>
      <trkpt lat="48.71287" lon="2.51543">
        <ele>94.4794</ele>
        <time>2018-12-03T08:27:20Z</time>
      </trkpt>
      <trkpt lat="48.7129" lon="2.51549">
        <ele>94.5406</ele>
        <time>2018-12-03T08:27:26Z</time>
      </trkpt>
      <trkpt lat="48.71291" lon="2.51556">
        <ele>94.5761</ele>
        <time>2018-12-03T08:27:29Z</time>
      </trkpt>
      <trkpt lat="48.71291" lon="2.51565">
        <ele>94.6109</ele>
        <time>2018-12-03T08:27:32Z</time>
      </trkpt>
      <trkpt lat="48.71291" lon="2.51573">
        <ele>94.6565</ele>
        <time>2018-12-03T08:27:37Z</time>
      </trkpt>
      <trkpt lat="48.71294" lon="2.5158">
        <ele>94.6989</ele>
        <time>2018-12-03T08:27:41Z</time>
      </trkpt>
      <trkpt lat="48.71295" lon="2.51585">
        <ele>94.733</ele>
        <time>2018-12-03T08:27:44Z</time>
      </trkpt>
      <trkpt lat="48.71299" lon="2.51593">
        <ele>94.794</ele>
        <time>2018-12-03T08:27:50Z</time>
      </trkpt>
      <trkpt lat="48.71302" lon="2.51599">
        <ele>94.8288</ele>
        <time>2018-12-03T08:27:53Z</time>
      </trkpt>
      <trkpt lat="48.71303" lon="2.51602">
        <ele>94.8525</ele>
        <time>2018-12-03T08:27:55Z</time>
      </trkpt>
      <trkpt lat="48.71306" lon="2.51607">
        <ele>94.8997</ele>
        <time>2018-12-03T08:27:59Z</time>
      </trkpt>
      <trkpt lat="48.71306" lon="2.51607">
        <ele>47.3</ele>
        <time>2018-12-03T08:28:04Z</time>
      </trkpt>
      <trkpt lat="48.71306" lon="2.51607">
        <ele>47.3</ele>
        <time>2018-12-03T08:28:08Z</time>
      </trkpt>
      <trkpt lat="48.7131" lon="2.51619">
        <ele>95.0008</ele>
        <time>2018-12-03T08:28:08Z</time>
      </trkpt>
      <trkpt lat="48.71314" lon="2.51628">
        <ele>95.0295</ele>
        <time>2018-12-03T08:28:11Z</time>
      </trkpt>
      <trkpt lat="48.71315" lon="2.51631">
        <ele>95.0384</ele>
        <time>2018-12-03T08:28:12Z</time>
      </trkpt>
      <trkpt lat="48.7132" lon="2.51638">
        <ele>95.0634</ele>
        <time>2018-12-03T08:28:15Z</time>
      </trkpt>
      <trkpt lat="48.71323" lon="2.51643">
        <ele>95.0868</ele>
        <time>2018-12-03T08:28:18Z</time>
      </trkpt>
      <trkpt lat="48.71325" lon="2.51647">
        <ele>95.1074</ele>
        <time>2018-12-03T08:28:21Z</time>
      </trkpt>
      <trkpt lat="48.71327" lon="2.5165">
        <ele>95.1196</ele>
        <time>2018-12-03T08:28:23Z</time>
      </trkpt>
      <trkpt lat="48.71329" lon="2.51654">
        <ele>95.1304</ele>
        <time>2018-12-03T08:28:25Z</time>
      </trkpt>
      <trkpt lat="48.7133" lon="2.51662">
        <ele>95.1493</ele>
        <time>2018-12-03T08:28:29Z</time>
      </trkpt>
      <trkpt lat="48.7133" lon="2.51669">
        <ele>95.1605</ele>
        <time>2018-12-03T08:28:32Z</time>
      </trkpt>
      <trkpt lat="48.71332" lon="2.51675">
        <ele>95.173</ele>
        <time>2018-12-03T08:28:36Z</time>
      </trkpt>
      <trkpt lat="48.71334" lon="2.51682">
        <ele>95.1796</ele>
        <time>2018-12-03T08:28:39Z</time>
      </trkpt>
      <trkpt lat="48.71335" lon="2.51686">
        <ele>95.1829</ele>
        <time>2018-12-03T08:28:41Z</time>
      </trkpt>
      <trkpt lat="48.71339" lon="2.5169">
        <ele>95.1899</ele>
        <time>2018-12-03T08:28:46Z</time>
      </trkpt>
      <trkpt lat="48.71342" lon="2.51698">
        <ele>95.2057</ele>
        <time>2018-12-03T08:28:51Z</time>
      </trkpt>
      <trkpt lat="48.71345" lon="2.51705">
        <ele>95.2256</ele>
        <time>2018-12-03T08:28:55Z</time>
      </trkpt>
      <trkpt lat="48.71348" lon="2.5171">
        <ele>95.2413</ele>
        <time>2018-12-03T08:28:58Z</time>
      </trkpt>
      <trkpt lat="48.71351" lon="2.51716">
        <ele>95.2624</ele>
        <time>2018-12-03T08:29:02Z</time>
      </trkpt>
      <trkpt lat="48.71353" lon="2.51723">
        <ele>95.2819</ele>
        <time>2018-12-03T08:29:06Z</time>
      </trkpt>
      <trkpt lat="48.71355" lon="2.51727">
        <ele>95.2949</ele>
        <time>2018-12-03T08:29:09Z</time>
      </trkpt>
      <trkpt lat="48.71356" lon="2.51735">
        <ele>95.3156</ele>
        <time>2018-12-03T08:29:14Z</time>
      </trkpt>
      <trkpt lat="48.71357" lon="2.51739">
        <ele>95.3246</ele>
        <time>2018-12-03T08:29:16Z</time>
      </trkpt>
      <trkpt lat="48.7136" lon="2.51746">
        <ele>95.3434</ele>
        <time>2018-12-03T08:29:20Z</time>
      </trkpt>
      <trkpt lat="48.71361" lon="2.51751">
        <ele>95.359</ele>
        <time>2018-12-03T08:29:23Z</time>
      </trkpt>
      <trkpt lat="48.71362" lon="2.51755">
        <ele>95.3706</ele>
        <time>2018-12-03T08:29:25Z</time>
      </trkpt>
      <trkpt lat="48.71362" lon="2.51763">
        <ele>95.399</ele>
        <time>2018-12-03T08:29:29Z</time>
      </trkpt>
      <trkpt lat="48.71362" lon="2.51768">
        <ele>95.4172</ele>
        <time>2018-12-03T08:29:31Z</time>
      </trkpt>
      <trkpt lat="48.71362" lon="2.51772">
        <ele>95.4371</ele>
        <time>2018-12-03T08:29:33Z</time>
      </trkpt>
      <trkpt lat="48.71362" lon="2.51777">
        <ele>95.4587</ele>
        <time>2018-12-03T08:29:35Z</time>
      </trkpt>
      <trkpt lat="48.71362" lon="2.51781">
        <ele>95.4803</ele>
        <time>2018-12-03T08:29:37Z</time>
      </trkpt>
      <trkpt lat="48.7136" lon="2.51789">
        <ele>95.5338</ele>
        <time>2018-12-03T08:29:42Z</time>
      </trkpt>
      <trkpt lat="48.71359" lon="2.51794">
        <ele>95.5577</ele>
        <time>2018-12-03T08:29:44Z</time>
      </trkpt>
      <trkpt lat="48.71358" lon="2.51798">
        <ele>95.5831</ele>
        <time>2018-12-03T08:29:46Z</time>
      </trkpt>
      <trkpt lat="48.71357" lon="2.51806">
        <ele>95.6218</ele>
        <time>2018-12-03T08:29:49Z</time>
      </trkpt>
      <trkpt lat="48.71356" lon="2.5181">
        <ele>95.646</ele>
        <time>2018-12-03T08:29:51Z</time>
      </trkpt>
      <trkpt lat="48.71356" lon="2.51813">
        <ele>95.682</ele>
        <time>2018-12-03T08:29:54Z</time>
      </trkpt>
      <trkpt lat="48.71358" lon="2.5182">
        <ele>95.742</ele>
        <time>2018-12-03T08:29:59Z</time>
      </trkpt>
      <trkpt lat="48.71364" lon="2.5183">
        <ele>95.7926</ele>
        <time>2018-12-03T08:30:04Z</time>
      </trkpt>
      <trkpt lat="48.71366" lon="2.51833">
        <ele>95.8081</ele>
        <time>2018-12-03T08:30:06Z</time>
      </trkpt>
      <trkpt lat="48.71369" lon="2.51841">
        <ele>95.839</ele>
        <time>2018-12-03T08:30:11Z</time>
      </trkpt>
      <trkpt lat="48.71373" lon="2.51847">
        <ele>95.8601</ele>
        <time>2018-12-03T08:30:15Z</time>
      </trkpt>
      <trkpt lat="48.71374" lon="2.5185">
        <ele>95.8718</ele>
        <time>2018-12-03T08:30:17Z</time>
      </trkpt>
      <trkpt lat="48.71378" lon="2.51855">
        <ele>95.9148</ele>
        <time>2018-12-03T08:30:24Z</time>
      </trkpt>
      <trkpt lat="48.71381" lon="2.5186">
        <ele>95.9548</ele>
        <time>2018-12-03T08:30:31Z</time>
      </trkpt>
      <trkpt lat="48.71382" lon="2.51868">
        <ele>95.9816</ele>
        <time>2018-12-03T08:30:35Z</time>
      </trkpt>
      <trkpt lat="48.71384" lon="2.51875">
        <ele>96.0184</ele>
        <time>2018-12-03T08:30:40Z</time>
      </trkpt>
      <trkpt lat="48.71383" lon="2.51882">
        <ele>96.0514</ele>
        <time>2018-12-03T08:30:44Z</time>
      </trkpt>
      <trkpt lat="48.71383" lon="2.51888">
        <ele>96.0732</ele>
        <time>2018-12-03T08:30:46Z</time>
      </trkpt>
      <trkpt lat="48.71384" lon="2.51895">
        <ele>96.1364</ele>
        <time>2018-12-03T08:30:51Z</time>
      </trkpt>
      <trkpt lat="48.71385" lon="2.51899">
        <ele>96.1641</ele>
        <time>2018-12-03T08:30:53Z</time>
      </trkpt>
      <trkpt lat="48.71387" lon="2.51906">
        <ele>96.2234</ele>
        <time>2018-12-03T08:30:57Z</time>
      </trkpt>
      <trkpt lat="48.71389" lon="2.51912">
        <ele>96.3258</ele>
        <time>2018-12-03T08:31:03Z</time>
      </trkpt>
      <trkpt lat="48.71391" lon="2.51919">
        <ele>96.4044</ele>
        <time>2018-12-03T08:31:07Z</time>
      </trkpt>
      <trkpt lat="48.71394" lon="2.51925">
        <ele>96.4898</ele>
        <time>2018-12-03T08:31:11Z</time>
      </trkpt>
      <trkpt lat="48.71399" lon="2.5193">
        <ele>96.5877</ele>
        <time>2018-12-03T08:31:15Z</time>
      </trkpt>
      <trkpt lat="48.71401" lon="2.51932">
        <ele>96.6413</ele>
        <time>2018-12-03T08:31:17Z</time>
      </trkpt>
      <trkpt lat="48.71405" lon="2.51937">
        <ele>96.7899</ele>
        <time>2018-12-03T08:31:22Z</time>
      </trkpt>
      <trkpt lat="48.71407" lon="2.5194">
        <ele>96.8874</ele>
        <time>2018-12-03T08:31:25Z</time>
      </trkpt>
      <trkpt lat="48.71411" lon="2.51945">
        <ele>97.0832</ele>
        <time>2018-12-03T08:31:31Z</time>
      </trkpt>
      <trkpt lat="48.71416" lon="2.51948">
        <ele>97.2082</ele>
        <time>2018-12-03T08:31:35Z</time>
      </trkpt>
      <trkpt lat="48.71423" lon="2.51947">
        <ele>97.3309</ele>
        <time>2018-12-03T08:31:39Z</time>
      </trkpt>
      <trkpt lat="48.71423" lon="2.51947">
        <ele>97.3309</ele>
        <time>2018-12-03T08:31:44Z</time>
      </trkpt>
      <trkpt lat="48.71423" lon="2.51947">
        <ele>61.1</ele>
        <time>2018-12-03T08:31:44Z</time>
      </trkpt>
      <trkpt lat="48.71423" lon="2.51947">
        <ele>61.1</ele>
        <time>2018-12-03T08:33:01Z</time>
      </trkpt>
      <trkpt lat="48.71415" lon="2.51972">
        <ele>98.4769</ele>
        <time>2018-12-03T08:33:01Z</time>
      </trkpt>
      <trkpt lat="48.7141" lon="2.51974">
        <ele>98.7007</ele>
        <time>2018-12-03T08:33:08Z</time>
      </trkpt>
      <trkpt lat="48.71406" lon="2.51979">
        <ele>98.8453</ele>
        <time>2018-12-03T08:33:13Z</time>
      </trkpt>
      <trkpt lat="48.71404" lon="2.51982">
        <ele>98.926</ele>
        <time>2018-12-03T08:33:16Z</time>
      </trkpt>
      <trkpt lat="48.71399" lon="2.51984">
        <ele>99.0526</ele>
        <time>2018-12-03T08:33:21Z</time>
      </trkpt>
      <trkpt lat="48.71395" lon="2.51986">
        <ele>99.1737</ele>
        <time>2018-12-03T08:33:26Z</time>
      </trkpt>
      <trkpt lat="48.71392" lon="2.51991">
        <ele>99.2921</ele>
        <time>2018-12-03T08:33:33Z</time>
      </trkpt>
      <trkpt lat="48.7139" lon="2.51993">
        <ele>99.3346</ele>
        <time>2018-12-03T08:33:35Z</time>
      </trkpt>
      <trkpt lat="48.71387" lon="2.51999">
        <ele>99.3759</ele>
        <time>2018-12-03T08:33:37Z</time>
      </trkpt>
      <trkpt lat="48.71382" lon="2.52002">
        <ele>99.4354</ele>
        <time>2018-12-03T08:33:40Z</time>
      </trkpt>
      <trkpt lat="48.7138" lon="2.52004">
        <ele>99.4919</ele>
        <time>2018-12-03T08:33:43Z</time>
      </trkpt>
      <trkpt lat="48.71375" lon="2.52007">
        <ele>99.5645</ele>
        <time>2018-12-03T08:33:47Z</time>
      </trkpt>
      <trkpt lat="48.71369" lon="2.5201">
        <ele>99.6403</ele>
        <time>2018-12-03T08:33:51Z</time>
      </trkpt>
      <trkpt lat="48.71364" lon="2.52013">
        <ele>99.7573</ele>
        <time>2018-12-03T08:33:57Z</time>
      </trkpt>
      <trkpt lat="48.71361" lon="2.52019">
        <ele>99.8169</ele>
        <time>2018-12-03T08:34:00Z</time>
      </trkpt>
      <trkpt lat="48.71358" lon="2.52024">
        <ele>99.9133</ele>
        <time>2018-12-03T08:34:05Z</time>
      </trkpt>
      <trkpt lat="48.71357" lon="2.52035">
        <ele>100</ele>
        <time>2018-12-03T08:34:10Z</time>
      </trkpt>
      <trkpt lat="48.71358" lon="2.52042">
        <ele>100.051</ele>
        <time>2018-12-03T08:34:13Z</time>
      </trkpt>
      <trkpt lat="48.71363" lon="2.52047">
        <ele>100.116</ele>
        <time>2018-12-03T08:34:17Z</time>
      </trkpt>
      <trkpt lat="48.71367" lon="2.52049">
        <ele>100.194</ele>
        <time>2018-12-03T08:34:22Z</time>
      </trkpt>
      <trkpt lat="48.71372" lon="2.5205">
        <ele>100.27</ele>
        <time>2018-12-03T08:34:27Z</time>
      </trkpt>
      <trkpt lat="48.71378" lon="2.52049">
        <ele>100.329</ele>
        <time>2018-12-03T08:34:31Z</time>
      </trkpt>
      <trkpt lat="48.71382" lon="2.52046">
        <ele>100.369</ele>
        <time>2018-12-03T08:34:34Z</time>
      </trkpt>
      <trkpt lat="48.71386" lon="2.52043">
        <ele>100.418</ele>
        <time>2018-12-03T08:34:38Z</time>
      </trkpt>
      <trkpt lat="48.71392" lon="2.52042">
        <ele>100.45</ele>
        <time>2018-12-03T08:34:41Z</time>
      </trkpt>
      <trkpt lat="48.71398" lon="2.52043">
        <ele>100.495</ele>
        <time>2018-12-03T08:34:46Z</time>
      </trkpt>
      <trkpt lat="48.71402" lon="2.52046">
        <ele>100.531</ele>
        <time>2018-12-03T08:34:51Z</time>
      </trkpt>
      <trkpt lat="48.71405" lon="2.52052">
        <ele>100.564</ele>
        <time>2018-12-03T08:34:56Z</time>
      </trkpt>
      <trkpt lat="48.71409" lon="2.52057">
        <ele>100.59</ele>
        <time>2018-12-03T08:35:01Z</time>
      </trkpt>
      <trkpt lat="48.71412" lon="2.52063">
        <ele>100.611</ele>
        <time>2018-12-03T08:35:06Z</time>
      </trkpt>
      <trkpt lat="48.71415" lon="2.5207">
        <ele>100.627</ele>
        <time>2018-12-03T08:35:12Z</time>
      </trkpt>
      <trkpt lat="48.71416" lon="2.52074">
        <ele>100.629</ele>
        <time>2018-12-03T08:35:15Z</time>
      </trkpt>
      <trkpt lat="48.71418" lon="2.52079">
        <ele>100.628</ele>
        <time>2018-12-03T08:35:18Z</time>
      </trkpt>
      <trkpt lat="48.71419" lon="2.52083">
        <ele>100.624</ele>
        <time>2018-12-03T08:35:21Z</time>
      </trkpt>
      <trkpt lat="48.71422" lon="2.52089">
        <ele>100.616</ele>
        <time>2018-12-03T08:35:28Z</time>
      </trkpt>
      <trkpt lat="48.71423" lon="2.52092">
        <ele>100.611</ele>
        <time>2018-12-03T08:35:31Z</time>
      </trkpt>
      <trkpt lat="48.71425" lon="2.521">
        <ele>100.603</ele>
        <time>2018-12-03T08:35:36Z</time>
      </trkpt>
      <trkpt lat="48.71426" lon="2.52107">
        <ele>100.599</ele>
        <time>2018-12-03T08:35:39Z</time>
      </trkpt>
      <trkpt lat="48.71428" lon="2.52113">
        <ele>100.592</ele>
        <time>2018-12-03T08:35:44Z</time>
      </trkpt>
      <trkpt lat="48.7143" lon="2.52118">
        <ele>100.588</ele>
        <time>2018-12-03T08:35:48Z</time>
      </trkpt>
      <trkpt lat="48.71432" lon="2.52125">
        <ele>100.588</ele>
        <time>2018-12-03T08:35:52Z</time>
      </trkpt>
      <trkpt lat="48.71433" lon="2.52133">
        <ele>100.591</ele>
        <time>2018-12-03T08:35:57Z</time>
      </trkpt>
      <trkpt lat="48.71434" lon="2.5214">
        <ele>100.596</ele>
        <time>2018-12-03T08:36:02Z</time>
      </trkpt>
      <trkpt lat="48.71433" lon="2.52147">
        <ele>100.601</ele>
        <time>2018-12-03T08:36:06Z</time>
      </trkpt>
      <trkpt lat="48.71431" lon="2.52155">
        <ele>100.605</ele>
        <time>2018-12-03T08:36:10Z</time>
      </trkpt>
      <trkpt lat="48.7143" lon="2.52163">
        <ele>100.612</ele>
        <time>2018-12-03T08:36:15Z</time>
      </trkpt>
      <trkpt lat="48.71428" lon="2.5217">
        <ele>100.615</ele>
        <time>2018-12-03T08:36:19Z</time>
      </trkpt>
      <trkpt lat="48.71426" lon="2.52176">
        <ele>100.614</ele>
        <time>2018-12-03T08:36:23Z</time>
      </trkpt>
      <trkpt lat="48.71423" lon="2.52182">
        <ele>100.615</ele>
        <time>2018-12-03T08:36:30Z</time>
      </trkpt>
      <trkpt lat="48.71421" lon="2.5219">
        <ele>100.618</ele>
        <time>2018-12-03T08:36:36Z</time>
      </trkpt>
      <trkpt lat="48.71419" lon="2.52196">
        <ele>100.62</ele>
        <time>2018-12-03T08:36:40Z</time>
      </trkpt>
      <trkpt lat="48.71417" lon="2.52202">
        <ele>100.62</ele>
        <time>2018-12-03T08:36:43Z</time>
      </trkpt>
      <trkpt lat="48.71415" lon="2.52206">
        <ele>100.62</ele>
        <time>2018-12-03T08:36:45Z</time>
      </trkpt>
      <trkpt lat="48.71413" lon="2.5221">
        <ele>100.619</ele>
        <time>2018-12-03T08:36:47Z</time>
      </trkpt>
      <trkpt lat="48.71411" lon="2.52214">
        <ele>100.615</ele>
        <time>2018-12-03T08:36:50Z</time>
      </trkpt>
      <trkpt lat="48.7141" lon="2.52218">
        <ele>100.61</ele>
        <time>2018-12-03T08:36:52Z</time>
      </trkpt>
      <trkpt lat="48.71408" lon="2.52221">
        <ele>100.604</ele>
        <time>2018-12-03T08:36:54Z</time>
      </trkpt>
      <trkpt lat="48.71407" lon="2.52225">
        <ele>100.596</ele>
        <time>2018-12-03T08:36:56Z</time>
      </trkpt>
      <trkpt lat="48.71406" lon="2.52228">
        <ele>100.588</ele>
        <time>2018-12-03T08:36:58Z</time>
      </trkpt>
      <trkpt lat="48.71404" lon="2.52232">
        <ele>100.578</ele>
        <time>2018-12-03T08:37:00Z</time>
      </trkpt>
      <trkpt lat="48.71401" lon="2.52238">
        <ele>100.556</ele>
        <time>2018-12-03T08:37:04Z</time>
      </trkpt>
      <trkpt lat="48.71399" lon="2.52244">
        <ele>100.52</ele>
        <time>2018-12-03T08:37:10Z</time>
      </trkpt>
      <trkpt lat="48.71397" lon="2.52248">
        <ele>100.507</ele>
        <time>2018-12-03T08:37:12Z</time>
      </trkpt>
      <trkpt lat="48.71396" lon="2.52252">
        <ele>100.495</ele>
        <time>2018-12-03T08:37:14Z</time>
      </trkpt>
      <trkpt lat="48.71395" lon="2.52256">
        <ele>100.483</ele>
        <time>2018-12-03T08:37:16Z</time>
      </trkpt>
      <trkpt lat="48.71393" lon="2.5226">
        <ele>100.472</ele>
        <time>2018-12-03T08:37:18Z</time>
      </trkpt>
      <trkpt lat="48.71392" lon="2.52263">
        <ele>100.462</ele>
        <time>2018-12-03T08:37:20Z</time>
      </trkpt>
      <trkpt lat="48.71391" lon="2.52266">
        <ele>100.452</ele>
        <time>2018-12-03T08:37:22Z</time>
      </trkpt>
      <trkpt lat="48.71389" lon="2.52269">
        <ele>100.444</ele>
        <time>2018-12-03T08:37:24Z</time>
      </trkpt>
      <trkpt lat="48.71388" lon="2.52273">
        <ele>100.437</ele>
        <time>2018-12-03T08:37:26Z</time>
      </trkpt>
      <trkpt lat="48.71387" lon="2.52276">
        <ele>100.428</ele>
        <time>2018-12-03T08:37:29Z</time>
      </trkpt>
      <trkpt lat="48.71385" lon="2.52283">
        <ele>100.418</ele>
        <time>2018-12-03T08:37:34Z</time>
      </trkpt>
      <trkpt lat="48.71383" lon="2.52289">
        <ele>100.41</ele>
        <time>2018-12-03T08:37:38Z</time>
      </trkpt>
      <trkpt lat="48.7138" lon="2.52295">
        <ele>100.406</ele>
        <time>2018-12-03T08:37:42Z</time>
      </trkpt>
      <trkpt lat="48.71377" lon="2.523">
        <ele>100.402</ele>
        <time>2018-12-03T08:37:45Z</time>
      </trkpt>
      <trkpt lat="48.71375" lon="2.52306">
        <ele>100.395</ele>
        <time>2018-12-03T08:37:49Z</time>
      </trkpt>
      <trkpt lat="48.71374" lon="2.52314">
        <ele>100.385</ele>
        <time>2018-12-03T08:37:53Z</time>
      </trkpt>
      <trkpt lat="48.71373" lon="2.52318">
        <ele>100.378</ele>
        <time>2018-12-03T08:37:56Z</time>
      </trkpt>
      <trkpt lat="48.71371" lon="2.52327">
        <ele>100.366</ele>
        <time>2018-12-03T08:38:02Z</time>
      </trkpt>
      <trkpt lat="48.71369" lon="2.52333">
        <ele>100.362</ele>
        <time>2018-12-03T08:38:06Z</time>
      </trkpt>
      <trkpt lat="48.71368" lon="2.52337">
        <ele>100.361</ele>
        <time>2018-12-03T08:38:08Z</time>
      </trkpt>
      <trkpt lat="48.71365" lon="2.52343">
        <ele>100.36</ele>
        <time>2018-12-03T08:38:11Z</time>
      </trkpt>
      <trkpt lat="48.71363" lon="2.52348">
        <ele>100.359</ele>
        <time>2018-12-03T08:38:13Z</time>
      </trkpt>
      <trkpt lat="48.71361" lon="2.52353">
        <ele>100.358</ele>
        <time>2018-12-03T08:38:16Z</time>
      </trkpt>
      <trkpt lat="48.7136" lon="2.52356">
        <ele>100.357</ele>
        <time>2018-12-03T08:38:18Z</time>
      </trkpt>
      <trkpt lat="48.71359" lon="2.52359">
        <ele>100.357</ele>
        <time>2018-12-03T08:38:20Z</time>
      </trkpt>
      <trkpt lat="48.71358" lon="2.52363">
        <ele>100.357</ele>
        <time>2018-12-03T08:38:22Z</time>
      </trkpt>
      <trkpt lat="48.71355" lon="2.5237">
        <ele>100.357</ele>
        <time>2018-12-03T08:38:27Z</time>
      </trkpt>
      <trkpt lat="48.71353" lon="2.52377">
        <ele>100.357</ele>
        <time>2018-12-03T08:38:31Z</time>
      </trkpt>
      <trkpt lat="48.7135" lon="2.52382">
        <ele>100.355</ele>
        <time>2018-12-03T08:38:36Z</time>
      </trkpt>
      <trkpt lat="48.71349" lon="2.52385">
        <ele>100.355</ele>
        <time>2018-12-03T08:38:38Z</time>
      </trkpt>
      <trkpt lat="48.71346" lon="2.52389">
        <ele>100.355</ele>
        <time>2018-12-03T08:38:42Z</time>
      </trkpt>
      <trkpt lat="48.71344" lon="2.52395">
        <ele>100.358</ele>
        <time>2018-12-03T08:38:46Z</time>
      </trkpt>
      <trkpt lat="48.71342" lon="2.52399">
        <ele>100.359</ele>
        <time>2018-12-03T08:38:48Z</time>
      </trkpt>
      <trkpt lat="48.71341" lon="2.52402">
        <ele>100.361</ele>
        <time>2018-12-03T08:38:50Z</time>
      </trkpt>
      <trkpt lat="48.7134" lon="2.52405">
        <ele>100.364</ele>
        <time>2018-12-03T08:38:52Z</time>
      </trkpt>
      <trkpt lat="48.71336" lon="2.52412">
        <ele>100.37</ele>
        <time>2018-12-03T08:38:57Z</time>
      </trkpt>
      <trkpt lat="48.71335" lon="2.52415">
        <ele>100.374</ele>
        <time>2018-12-03T08:38:59Z</time>
      </trkpt>
      <trkpt lat="48.71334" lon="2.52423">
        <ele>100.379</ele>
        <time>2018-12-03T08:39:03Z</time>
      </trkpt>
      <trkpt lat="48.71333" lon="2.52428">
        <ele>100.382</ele>
        <time>2018-12-03T08:39:05Z</time>
      </trkpt>
      <trkpt lat="48.71332" lon="2.52437">
        <ele>100.389</ele>
        <time>2018-12-03T08:39:09Z</time>
      </trkpt>
      <trkpt lat="48.71334" lon="2.52445">
        <ele>100.399</ele>
        <time>2018-12-03T08:39:13Z</time>
      </trkpt>
      <trkpt lat="48.71334" lon="2.52445">
        <ele>50</ele>
        <time>2018-12-03T08:39:20Z</time>
      </trkpt>
      <trkpt lat="48.71334" lon="2.52445">
        <ele>50</ele>
        <time>2018-12-03T08:40:30Z</time>
      </trkpt>
      <trkpt lat="48.71338" lon="2.52469">
        <ele>100.655</ele>
        <time>2018-12-03T08:40:30Z</time>
      </trkpt>
      <trkpt lat="48.71338" lon="2.52476">
        <ele>100.7</ele>
        <time>2018-12-03T08:40:33Z</time>
      </trkpt>
      <trkpt lat="48.71337" lon="2.52484">
        <ele>100.757</ele>
        <time>2018-12-03T08:40:37Z</time>
      </trkpt>
      <trkpt lat="48.71337" lon="2.52491">
        <ele>100.813</ele>
        <time>2018-12-03T08:40:41Z</time>
      </trkpt>
      <trkpt lat="48.71339" lon="2.52499">
        <ele>100.866</ele>
        <time>2018-12-03T08:40:45Z</time>
      </trkpt>
      <trkpt lat="48.71341" lon="2.52506">
        <ele>100.929</ele>
        <time>2018-12-03T08:40:50Z</time>
      </trkpt>
      <trkpt lat="48.71342" lon="2.52511">
        <ele>100.965</ele>
        <time>2018-12-03T08:40:53Z</time>
      </trkpt>
      <trkpt lat="48.71344" lon="2.52515">
        <ele>100.987</ele>
        <time>2018-12-03T08:40:55Z</time>
      </trkpt>
      <trkpt lat="48.71347" lon="2.5252">
        <ele>101.03</ele>
        <time>2018-12-03T08:40:59Z</time>
      </trkpt>
      <trkpt lat="48.7135" lon="2.52525">
        <ele>101.081</ele>
        <time>2018-12-03T08:41:04Z</time>
      </trkpt>
      <trkpt lat="48.71352" lon="2.52532">
        <ele>101.114</ele>
        <time>2018-12-03T08:41:08Z</time>
      </trkpt>
      <trkpt lat="48.71354" lon="2.52538">
        <ele>101.149</ele>
        <time>2018-12-03T08:41:13Z</time>
      </trkpt>
      <trkpt lat="48.71358" lon="2.52545">
        <ele>101.179</ele>
        <time>2018-12-03T08:41:18Z</time>
      </trkpt>
      <trkpt lat="48.71361" lon="2.52552">
        <ele>101.202</ele>
        <time>2018-12-03T08:41:23Z</time>
      </trkpt>
      <trkpt lat="48.71363" lon="2.52556">
        <ele>101.213</ele>
        <time>2018-12-03T08:41:26Z</time>
      </trkpt>
      <trkpt lat="48.71365" lon="2.52562">
        <ele>101.23</ele>
        <time>2018-12-03T08:41:31Z</time>
      </trkpt>
      <trkpt lat="48.7137" lon="2.52567">
        <ele>101.248</ele>
        <time>2018-12-03T08:41:36Z</time>
      </trkpt>
      <trkpt lat="48.71373" lon="2.52572">
        <ele>101.261</ele>
        <time>2018-12-03T08:41:40Z</time>
      </trkpt>
      <trkpt lat="48.71375" lon="2.52574">
        <ele>101.268</ele>
        <time>2018-12-03T08:41:42Z</time>
      </trkpt>
      <trkpt lat="48.71376" lon="2.52577">
        <ele>101.274</ele>
        <time>2018-12-03T08:41:44Z</time>
      </trkpt>
      <trkpt lat="48.71378" lon="2.52579">
        <ele>101.28</ele>
        <time>2018-12-03T08:41:46Z</time>
      </trkpt>
      <trkpt lat="48.71381" lon="2.52583">
        <ele>101.289</ele>
        <time>2018-12-03T08:41:49Z</time>
      </trkpt>
      <trkpt lat="48.71383" lon="2.52586">
        <ele>101.295</ele>
        <time>2018-12-03T08:41:51Z</time>
      </trkpt>
      <trkpt lat="48.71385" lon="2.52589">
        <ele>101.3</ele>
        <time>2018-12-03T08:41:53Z</time>
      </trkpt>
      <trkpt lat="48.71387" lon="2.52592">
        <ele>101.305</ele>
        <time>2018-12-03T08:41:55Z</time>
      </trkpt>
      <trkpt lat="48.7139" lon="2.52598">
        <ele>101.313</ele>
        <time>2018-12-03T08:41:59Z</time>
      </trkpt>
      <trkpt lat="48.71394" lon="2.52602">
        <ele>101.32</ele>
        <time>2018-12-03T08:42:03Z</time>
      </trkpt>
      <trkpt lat="48.71397" lon="2.52604">
        <ele>101.323</ele>
        <time>2018-12-03T08:42:05Z</time>
      </trkpt>
      <trkpt lat="48.714" lon="2.52609">
        <ele>101.327</ele>
        <time>2018-12-03T08:42:09Z</time>
      </trkpt>
      <trkpt lat="48.71402" lon="2.52612">
        <ele>101.329</ele>
        <time>2018-12-03T08:42:11Z</time>
      </trkpt>
      <trkpt lat="48.71404" lon="2.52614">
        <ele>101.332</ele>
        <time>2018-12-03T08:42:13Z</time>
      </trkpt>
      <trkpt lat="48.71407" lon="2.52618">
        <ele>101.336</ele>
        <time>2018-12-03T08:42:16Z</time>
      </trkpt>
      <trkpt lat="48.71409" lon="2.5262">
        <ele>101.339</ele>
        <time>2018-12-03T08:42:18Z</time>
      </trkpt>
      <trkpt lat="48.71412" lon="2.52624">
        <ele>101.345</ele>
        <time>2018-12-03T08:42:22Z</time>
      </trkpt>
      <trkpt lat="48.71415" lon="2.5263">
        <ele>101.354</ele>
        <time>2018-12-03T08:42:27Z</time>
      </trkpt>
      <trkpt lat="48.71417" lon="2.52638">
        <ele>101.364</ele>
        <time>2018-12-03T08:42:32Z</time>
      </trkpt>
      <trkpt lat="48.71419" lon="2.52645">
        <ele>101.371</ele>
        <time>2018-12-03T08:42:38Z</time>
      </trkpt>
      <trkpt lat="48.71419" lon="2.52652">
        <ele>101.375</ele>
        <time>2018-12-03T08:42:43Z</time>
      </trkpt>
      <trkpt lat="48.7142" lon="2.52659">
        <ele>101.377</ele>
        <time>2018-12-03T08:42:47Z</time>
      </trkpt>
      <trkpt lat="48.7142" lon="2.52662">
        <ele>101.377</ele>
        <time>2018-12-03T08:42:49Z</time>
      </trkpt>
      <trkpt lat="48.71419" lon="2.5267">
        <ele>101.38</ele>
        <time>2018-12-03T08:42:53Z</time>
      </trkpt>
      <trkpt lat="48.71419" lon="2.52674">
        <ele>101.382</ele>
        <time>2018-12-03T08:42:55Z</time>
      </trkpt>
      <trkpt lat="48.71419" lon="2.52679">
        <ele>101.386</ele>
        <time>2018-12-03T08:42:58Z</time>
      </trkpt>
      <trkpt lat="48.71419" lon="2.52683">
        <ele>101.39</ele>
        <time>2018-12-03T08:43:00Z</time>
      </trkpt>
      <trkpt lat="48.7142" lon="2.5269">
        <ele>101.4</ele>
        <time>2018-12-03T08:43:03Z</time>
      </trkpt>
      <trkpt lat="48.7142" lon="2.52695">
        <ele>101.412</ele>
        <time>2018-12-03T08:43:06Z</time>
      </trkpt>
      <trkpt lat="48.71422" lon="2.52703">
        <ele>101.428</ele>
        <time>2018-12-03T08:43:10Z</time>
      </trkpt>
      <trkpt lat="48.71425" lon="2.52709">
        <ele>101.444</ele>
        <time>2018-12-03T08:43:14Z</time>
      </trkpt>
      <trkpt lat="48.71425" lon="2.52717">
        <ele>101.471</ele>
        <time>2018-12-03T08:43:21Z</time>
      </trkpt>
      <trkpt lat="48.71423" lon="2.52724">
        <ele>101.494</ele>
        <time>2018-12-03T08:43:28Z</time>
      </trkpt>
      <trkpt lat="48.71422" lon="2.52731">
        <ele>101.508</ele>
        <time>2018-12-03T08:43:33Z</time>
      </trkpt>
      <trkpt lat="48.71417" lon="2.52734">
        <ele>101.516</ele>
        <time>2018-12-03T08:43:37Z</time>
      </trkpt>
      <trkpt lat="48.71412" lon="2.52734">
        <ele>101.522</ele>
        <time>2018-12-03T08:43:41Z</time>
      </trkpt>
      <trkpt lat="48.71409" lon="2.52735">
        <ele>101.525</ele>
        <time>2018-12-03T08:43:43Z</time>
      </trkpt>
      <trkpt lat="48.71407" lon="2.52735">
        <ele>101.527</ele>
        <time>2018-12-03T08:43:45Z</time>
      </trkpt>
      <trkpt lat="48.71402" lon="2.52734">
        <ele>101.534</ele>
        <time>2018-12-03T08:43:50Z</time>
      </trkpt>
      <trkpt lat="48.71397" lon="2.52735">
        <ele>101.54</ele>
        <time>2018-12-03T08:43:54Z</time>
      </trkpt>
      <trkpt lat="48.71394" lon="2.5274">
        <ele>101.554</ele>
        <time>2018-12-03T08:44:01Z</time>
      </trkpt>
      <trkpt lat="48.71395" lon="2.52747">
        <ele>101.566</ele>
        <time>2018-12-03T08:44:05Z</time>
      </trkpt>
      <trkpt lat="48.71395" lon="2.52754">
        <ele>101.582</ele>
        <time>2018-12-03T08:44:09Z</time>
      </trkpt>
      <trkpt lat="48.71395" lon="2.52758">
        <ele>101.591</ele>
        <time>2018-12-03T08:44:11Z</time>
      </trkpt>
      <trkpt lat="48.71394" lon="2.52763">
        <ele>101.601</ele>
        <time>2018-12-03T08:44:13Z</time>
      </trkpt>
      <trkpt lat="48.71394" lon="2.52767">
        <ele>101.612</ele>
        <time>2018-12-03T08:44:15Z</time>
      </trkpt>
      <trkpt lat="48.71394" lon="2.52771">
        <ele>101.63</ele>
        <time>2018-12-03T08:44:18Z</time>
      </trkpt>
      <trkpt lat="48.71394" lon="2.52775">
        <ele>101.642</ele>
        <time>2018-12-03T08:44:20Z</time>
      </trkpt>
      <trkpt lat="48.71394" lon="2.52783">
        <ele>101.669</ele>
        <time>2018-12-03T08:44:24Z</time>
      </trkpt>
      <trkpt lat="48.71394" lon="2.52787">
        <ele>101.684</ele>
        <time>2018-12-03T08:44:26Z</time>
      </trkpt>
      <trkpt lat="48.71393" lon="2.52793">
        <ele>101.708</ele>
        <time>2018-12-03T08:44:29Z</time>
      </trkpt>
      <trkpt lat="48.71393" lon="2.52798">
        <ele>101.724</ele>
        <time>2018-12-03T08:44:31Z</time>
      </trkpt>
      <trkpt lat="48.71393" lon="2.52806">
        <ele>101.757</ele>
        <time>2018-12-03T08:44:35Z</time>
      </trkpt>
      <trkpt lat="48.71394" lon="2.52811">
        <ele>101.774</ele>
        <time>2018-12-03T08:44:37Z</time>
      </trkpt>
      <trkpt lat="48.71395" lon="2.52818">
        <ele>101.805</ele>
        <time>2018-12-03T08:44:41Z</time>
      </trkpt>
      <trkpt lat="48.71396" lon="2.52823">
        <ele>101.83</ele>
        <time>2018-12-03T08:44:44Z</time>
      </trkpt>
      <trkpt lat="48.71397" lon="2.52827">
        <ele>101.847</ele>
        <time>2018-12-03T08:44:46Z</time>
      </trkpt>
      <trkpt lat="48.71398" lon="2.52833">
        <ele>101.872</ele>
        <time>2018-12-03T08:44:49Z</time>
      </trkpt>
      <trkpt lat="48.714" lon="2.52838">
        <ele>101.888</ele>
        <time>2018-12-03T08:44:51Z</time>
      </trkpt>
      <trkpt lat="48.71401" lon="2.52842">
        <ele>101.904</ele>
        <time>2018-12-03T08:44:53Z</time>
      </trkpt>
      <trkpt lat="48.71402" lon="2.52847">
        <ele>101.926</ele>
        <time>2018-12-03T08:44:56Z</time>
      </trkpt>
      <trkpt lat="48.71405" lon="2.52852">
        <ele>101.954</ele>
        <time>2018-12-03T08:45:00Z</time>
      </trkpt>
      <trkpt lat="48.71406" lon="2.52856">
        <ele>101.966</ele>
        <time>2018-12-03T08:45:02Z</time>
      </trkpt>
      <trkpt lat="48.71407" lon="2.52862">
        <ele>101.989</ele>
        <time>2018-12-03T08:45:06Z</time>
      </trkpt>
      <trkpt lat="48.71409" lon="2.52869">
        <ele>102.01</ele>
        <time>2018-12-03T08:45:10Z</time>
      </trkpt>
      <trkpt lat="48.71411" lon="2.52873">
        <ele>102.021</ele>
        <time>2018-12-03T08:45:12Z</time>
      </trkpt>
      <trkpt lat="48.71412" lon="2.52881">
        <ele>102.044</ele>
        <time>2018-12-03T08:45:16Z</time>
      </trkpt>
      <trkpt lat="48.71412" lon="2.52888">
        <ele>102.063</ele>
        <time>2018-12-03T08:45:19Z</time>
      </trkpt>
      <trkpt lat="48.71412" lon="2.52892">
        <ele>102.076</ele>
        <time>2018-12-03T08:45:21Z</time>
      </trkpt>
      <trkpt lat="48.71414" lon="2.529">
        <ele>102.096</ele>
        <time>2018-12-03T08:45:24Z</time>
      </trkpt>
      <trkpt lat="48.71416" lon="2.52907">
        <ele>102.123</ele>
        <time>2018-12-03T08:45:28Z</time>
      </trkpt>
      <trkpt lat="48.7142" lon="2.52913">
        <ele>102.16</ele>
        <time>2018-12-03T08:45:33Z</time>
      </trkpt>
      <trkpt lat="48.71422" lon="2.52916">
        <ele>102.181</ele>
        <time>2018-12-03T08:45:36Z</time>
      </trkpt>
      <trkpt lat="48.71425" lon="2.52922">
        <ele>102.214</ele>
        <time>2018-12-03T08:45:41Z</time>
      </trkpt>
      <trkpt lat="48.71428" lon="2.52927">
        <ele>102.236</ele>
        <time>2018-12-03T08:45:45Z</time>
      </trkpt>
      <trkpt lat="48.71431" lon="2.52934">
        <ele>102.252</ele>
        <time>2018-12-03T08:45:48Z</time>
      </trkpt>
      <trkpt lat="48.71433" lon="2.52939">
        <ele>102.262</ele>
        <time>2018-12-03T08:45:50Z</time>
      </trkpt>
      <trkpt lat="48.71435" lon="2.52943">
        <ele>102.271</ele>
        <time>2018-12-03T08:45:52Z</time>
      </trkpt>
      <trkpt lat="48.71436" lon="2.52946">
        <ele>102.281</ele>
        <time>2018-12-03T08:45:54Z</time>
      </trkpt>
      <trkpt lat="48.71438" lon="2.5295">
        <ele>102.295</ele>
        <time>2018-12-03T08:45:57Z</time>
      </trkpt>
      <trkpt lat="48.7144" lon="2.52959">
        <ele>102.314</ele>
        <time>2018-12-03T08:46:01Z</time>
      </trkpt>
      <trkpt lat="48.71443" lon="2.52966">
        <ele>102.332</ele>
        <time>2018-12-03T08:46:05Z</time>
      </trkpt>
      <trkpt lat="48.71447" lon="2.52971">
        <ele>102.346</ele>
        <time>2018-12-03T08:46:09Z</time>
      </trkpt>
      <trkpt lat="48.71449" lon="2.52978">
        <ele>102.365</ele>
        <time>2018-12-03T08:46:16Z</time>
      </trkpt>
      <trkpt lat="48.71452" lon="2.52984">
        <ele>102.372</ele>
        <time>2018-12-03T08:46:20Z</time>
      </trkpt>
      <trkpt lat="48.71455" lon="2.5299">
        <ele>102.378</ele>
        <time>2018-12-03T08:46:24Z</time>
      </trkpt>
      <trkpt lat="48.71457" lon="2.52995">
        <ele>102.384</ele>
        <time>2018-12-03T08:46:27Z</time>
      </trkpt>
      <trkpt lat="48.71458" lon="2.52999">
        <ele>102.389</ele>
        <time>2018-12-03T08:46:30Z</time>
      </trkpt>
      <trkpt lat="48.71462" lon="2.53004">
        <ele>102.395</ele>
        <time>2018-12-03T08:46:35Z</time>
      </trkpt>
      <trkpt lat="48.71465" lon="2.5301">
        <ele>102.4</ele>
        <time>2018-12-03T08:46:40Z</time>
      </trkpt>
      <trkpt lat="48.71466" lon="2.53017">
        <ele>102.403</ele>
        <time>2018-12-03T08:46:44Z</time>
      </trkpt>
      <trkpt lat="48.71469" lon="2.53023">
        <ele>102.405</ele>
        <time>2018-12-03T08:46:48Z</time>
      </trkpt>
      <trkpt lat="48.71471" lon="2.53026">
        <ele>102.408</ele>
        <time>2018-12-03T08:46:51Z</time>
      </trkpt>
      <trkpt lat="48.71473" lon="2.53029">
        <ele>102.41</ele>
        <time>2018-12-03T08:46:54Z</time>
      </trkpt>
      <trkpt lat="48.71477" lon="2.53034">
        <ele>102.417</ele>
        <time>2018-12-03T08:46:58Z</time>
      </trkpt>
      <trkpt lat="48.71477" lon="2.53042">
        <ele>102.426</ele>
        <time>2018-12-03T08:47:01Z</time>
      </trkpt>
      <trkpt lat="48.7148" lon="2.5305">
        <ele>102.439</ele>
        <time>2018-12-03T08:47:05Z</time>
      </trkpt>
      <trkpt lat="48.71484" lon="2.53055">
        <ele>102.451</ele>
        <time>2018-12-03T08:47:09Z</time>
      </trkpt>
      <trkpt lat="48.71487" lon="2.53061">
        <ele>102.468</ele>
        <time>2018-12-03T08:47:14Z</time>
      </trkpt>
      <trkpt lat="48.71488" lon="2.53064">
        <ele>102.481</ele>
        <time>2018-12-03T08:47:17Z</time>
      </trkpt>
      <trkpt lat="48.7149" lon="2.53068">
        <ele>102.49</ele>
        <time>2018-12-03T08:47:19Z</time>
      </trkpt>
      <trkpt lat="48.71492" lon="2.53072">
        <ele>102.5</ele>
        <time>2018-12-03T08:47:21Z</time>
      </trkpt>
      <trkpt lat="48.71495" lon="2.53079">
        <ele>102.521</ele>
        <time>2018-12-03T08:47:25Z</time>
      </trkpt>
      <trkpt lat="48.71499" lon="2.53085">
        <ele>102.545</ele>
        <time>2018-12-03T08:47:29Z</time>
      </trkpt>
      <trkpt lat="48.71503" lon="2.53091">
        <ele>102.566</ele>
        <time>2018-12-03T08:47:32Z</time>
      </trkpt>
      <trkpt lat="48.71505" lon="2.53092">
        <ele>102.574</ele>
        <time>2018-12-03T08:47:33Z</time>
      </trkpt>
      <trkpt lat="48.71508" lon="2.53095">
        <ele>102.589</ele>
        <time>2018-12-03T08:47:35Z</time>
      </trkpt>
      <trkpt lat="48.71512" lon="2.53097">
        <ele>102.62</ele>
        <time>2018-12-03T08:47:39Z</time>
      </trkpt>
      <trkpt lat="48.71515" lon="2.53098">
        <ele>102.636</ele>
        <time>2018-12-03T08:47:41Z</time>
      </trkpt>
      <trkpt lat="48.71518" lon="2.53104">
        <ele>102.667</ele>
        <time>2018-12-03T08:47:45Z</time>
      </trkpt>
      <trkpt lat="48.7152" lon="2.53108">
        <ele>102.69</ele>
        <time>2018-12-03T08:47:48Z</time>
      </trkpt>
      <trkpt lat="48.71522" lon="2.53112">
        <ele>102.713</ele>
        <time>2018-12-03T08:47:51Z</time>
      </trkpt>
      <trkpt lat="48.71525" lon="2.53116">
        <ele>102.743</ele>
        <time>2018-12-03T08:47:55Z</time>
      </trkpt>
      <trkpt lat="48.71526" lon="2.53119">
        <ele>102.766</ele>
        <time>2018-12-03T08:47:58Z</time>
      </trkpt>
      <trkpt lat="48.71528" lon="2.53122">
        <ele>102.789</ele>
        <time>2018-12-03T08:48:01Z</time>
      </trkpt>
      <trkpt lat="48.71531" lon="2.53129">
        <ele>102.816</ele>
        <time>2018-12-03T08:48:05Z</time>
      </trkpt>
      <trkpt lat="48.71535" lon="2.53135">
        <ele>102.845</ele>
        <time>2018-12-03T08:48:10Z</time>
      </trkpt>
      <trkpt lat="48.71536" lon="2.53143">
        <ele>102.866</ele>
        <time>2018-12-03T08:48:15Z</time>
      </trkpt>
      <trkpt lat="48.71537" lon="2.53148">
        <ele>102.873</ele>
        <time>2018-12-03T08:48:17Z</time>
      </trkpt>
      <trkpt lat="48.71538" lon="2.53153">
        <ele>102.879</ele>
        <time>2018-12-03T08:48:19Z</time>
      </trkpt>
      <trkpt lat="48.71539" lon="2.53157">
        <ele>102.885</ele>
        <time>2018-12-03T08:48:21Z</time>
      </trkpt>
      <trkpt lat="48.71539" lon="2.53163">
        <ele>102.889</ele>
        <time>2018-12-03T08:48:23Z</time>
      </trkpt>
      <trkpt lat="48.71539" lon="2.53169">
        <ele>102.895</ele>
        <time>2018-12-03T08:48:26Z</time>
      </trkpt>
      <trkpt lat="48.71541" lon="2.53178">
        <ele>102.905</ele>
        <time>2018-12-03T08:48:31Z</time>
      </trkpt>
      <trkpt lat="48.71543" lon="2.53185">
        <ele>102.912</ele>
        <time>2018-12-03T08:48:35Z</time>
      </trkpt>
      <trkpt lat="48.71544" lon="2.53193">
        <ele>102.918</ele>
        <time>2018-12-03T08:48:40Z</time>
      </trkpt>
      <trkpt lat="48.71546" lon="2.532">
        <ele>102.918</ele>
        <time>2018-12-03T08:48:44Z</time>
      </trkpt>
      <trkpt lat="48.71547" lon="2.53205">
        <ele>102.915</ele>
        <time>2018-12-03T08:48:48Z</time>
      </trkpt>
      <trkpt lat="48.71548" lon="2.5321">
        <ele>102.911</ele>
        <time>2018-12-03T08:48:51Z</time>
      </trkpt>
      <trkpt lat="48.71552" lon="2.53216">
        <ele>102.905</ele>
        <time>2018-12-03T08:48:55Z</time>
      </trkpt>
      <trkpt lat="48.71555" lon="2.53223">
        <ele>102.898</ele>
        <time>2018-12-03T08:48:59Z</time>
      </trkpt>
      <trkpt lat="48.71557" lon="2.53231">
        <ele>102.89</ele>
        <time>2018-12-03T08:49:04Z</time>
      </trkpt>
      <trkpt lat="48.71559" lon="2.53239">
        <ele>102.881</ele>
        <time>2018-12-03T08:49:08Z</time>
      </trkpt>
      <trkpt lat="48.71561" lon="2.53245">
        <ele>102.871</ele>
        <time>2018-12-03T08:49:12Z</time>
      </trkpt>
      <trkpt lat="48.71564" lon="2.53251">
        <ele>102.862</ele>
        <time>2018-12-03T08:49:16Z</time>
      </trkpt>
      <trkpt lat="48.71566" lon="2.53259">
        <ele>102.853</ele>
        <time>2018-12-03T08:49:20Z</time>
      </trkpt>
      <trkpt lat="48.71567" lon="2.53263">
        <ele>102.845</ele>
        <time>2018-12-03T08:49:23Z</time>
      </trkpt>
      <trkpt lat="48.71569" lon="2.53267">
        <ele>102.836</ele>
        <time>2018-12-03T08:49:26Z</time>
      </trkpt>
      <trkpt lat="48.71571" lon="2.53271">
        <ele>102.826</ele>
        <time>2018-12-03T08:49:29Z</time>
      </trkpt>
      <trkpt lat="48.71572" lon="2.53275">
        <ele>102.82</ele>
        <time>2018-12-03T08:49:31Z</time>
      </trkpt>
      <trkpt lat="48.71573" lon="2.53279">
        <ele>102.813</ele>
        <time>2018-12-03T08:49:33Z</time>
      </trkpt>
      <trkpt lat="48.71575" lon="2.53286">
        <ele>102.797</ele>
        <time>2018-12-03T08:49:38Z</time>
      </trkpt>
      <trkpt lat="48.71576" lon="2.5329">
        <ele>102.79</ele>
        <time>2018-12-03T08:49:40Z</time>
      </trkpt>
      <trkpt lat="48.71577" lon="2.53294">
        <ele>102.784</ele>
        <time>2018-12-03T08:49:42Z</time>
      </trkpt>
      <trkpt lat="48.71578" lon="2.53298">
        <ele>102.777</ele>
        <time>2018-12-03T08:49:44Z</time>
      </trkpt>
      <trkpt lat="48.71581" lon="2.53304">
        <ele>102.768</ele>
        <time>2018-12-03T08:49:47Z</time>
      </trkpt>
      <trkpt lat="48.71582" lon="2.53312">
        <ele>102.754</ele>
        <time>2018-12-03T08:49:51Z</time>
      </trkpt>
      <trkpt lat="48.71584" lon="2.53318">
        <ele>102.741</ele>
        <time>2018-12-03T08:49:55Z</time>
      </trkpt>
      <trkpt lat="48.71586" lon="2.53324">
        <ele>102.719</ele>
        <time>2018-12-03T08:50:01Z</time>
      </trkpt>
      <trkpt lat="48.71588" lon="2.53328">
        <ele>102.705</ele>
        <time>2018-12-03T08:50:04Z</time>
      </trkpt>
      <trkpt lat="48.71592" lon="2.53335">
        <ele>102.693</ele>
        <time>2018-12-03T08:50:07Z</time>
      </trkpt>
      <trkpt lat="48.71595" lon="2.53341">
        <ele>102.674</ele>
        <time>2018-12-03T08:50:12Z</time>
      </trkpt>
      <trkpt lat="48.71598" lon="2.53346">
        <ele>102.658</ele>
        <time>2018-12-03T08:50:16Z</time>
      </trkpt>
      <trkpt lat="48.71602" lon="2.53353">
        <ele>102.642</ele>
        <time>2018-12-03T08:50:21Z</time>
      </trkpt>
      <trkpt lat="48.71604" lon="2.53356">
        <ele>102.634</ele>
        <time>2018-12-03T08:50:24Z</time>
      </trkpt>
      <trkpt lat="48.71607" lon="2.53363">
        <ele>102.629</ele>
        <time>2018-12-03T08:50:28Z</time>
      </trkpt>
      <trkpt lat="48.71611" lon="2.53369">
        <ele>102.631</ele>
        <time>2018-12-03T08:50:32Z</time>
      </trkpt>
      <trkpt lat="48.71615" lon="2.53375">
        <ele>102.639</ele>
        <time>2018-12-03T08:50:36Z</time>
      </trkpt>
      <trkpt lat="48.71617" lon="2.53381">
        <ele>102.65</ele>
        <time>2018-12-03T08:50:40Z</time>
      </trkpt>
      <trkpt lat="48.71619" lon="2.53384">
        <ele>102.656</ele>
        <time>2018-12-03T08:50:42Z</time>
      </trkpt>
      <trkpt lat="48.71621" lon="2.53391">
        <ele>102.671</ele>
        <time>2018-12-03T08:50:46Z</time>
      </trkpt>
      <trkpt lat="48.71624" lon="2.53397">
        <ele>102.687</ele>
        <time>2018-12-03T08:50:50Z</time>
      </trkpt>
      <trkpt lat="48.71627" lon="2.53405">
        <ele>102.703</ele>
        <time>2018-12-03T08:50:55Z</time>
      </trkpt>
      <trkpt lat="48.71628" lon="2.53412">
        <ele>102.719</ele>
        <time>2018-12-03T08:51:00Z</time>
      </trkpt>
      <trkpt lat="48.71629" lon="2.53416">
        <ele>102.727</ele>
        <time>2018-12-03T08:51:02Z</time>
      </trkpt>
      <trkpt lat="48.71631" lon="2.53425">
        <ele>102.751</ele>
        <time>2018-12-03T08:51:07Z</time>
      </trkpt>
      <trkpt lat="48.71634" lon="2.53431">
        <ele>102.767</ele>
        <time>2018-12-03T08:51:10Z</time>
      </trkpt>
      <trkpt lat="48.71636" lon="2.53439">
        <ele>102.788</ele>
        <time>2018-12-03T08:51:14Z</time>
      </trkpt>
      <trkpt lat="48.71639" lon="2.53445">
        <ele>102.813</ele>
        <time>2018-12-03T08:51:19Z</time>
      </trkpt>
      <trkpt lat="48.7164" lon="2.53449">
        <ele>102.821</ele>
        <time>2018-12-03T08:51:21Z</time>
      </trkpt>
      <trkpt lat="48.71644" lon="2.53453">
        <ele>102.838</ele>
        <time>2018-12-03T08:51:25Z</time>
      </trkpt>
      <trkpt lat="48.71646" lon="2.53459">
        <ele>102.851</ele>
        <time>2018-12-03T08:51:29Z</time>
      </trkpt>
      <trkpt lat="48.71648" lon="2.53466">
        <ele>102.865</ele>
        <time>2018-12-03T08:51:33Z</time>
      </trkpt>
      <trkpt lat="48.71649" lon="2.5347">
        <ele>102.873</ele>
        <time>2018-12-03T08:51:35Z</time>
      </trkpt>
      <trkpt lat="48.71651" lon="2.53474">
        <ele>102.881</ele>
        <time>2018-12-03T08:51:37Z</time>
      </trkpt>
      <trkpt lat="48.71653" lon="2.5348">
        <ele>102.897</ele>
        <time>2018-12-03T08:51:41Z</time>
      </trkpt>
      <trkpt lat="48.71655" lon="2.53487">
        <ele>102.912</ele>
        <time>2018-12-03T08:51:45Z</time>
      </trkpt>
      <trkpt lat="48.71658" lon="2.53493">
        <ele>102.924</ele>
        <time>2018-12-03T08:51:49Z</time>
      </trkpt>
      <trkpt lat="48.7166" lon="2.535">
        <ele>102.938</ele>
        <time>2018-12-03T08:51:53Z</time>
      </trkpt>
      <trkpt lat="48.71661" lon="2.53508">
        <ele>102.957</ele>
        <time>2018-12-03T08:51:58Z</time>
      </trkpt>
      <trkpt lat="48.71662" lon="2.53516">
        <ele>102.975</ele>
        <time>2018-12-03T08:52:02Z</time>
      </trkpt>
      <trkpt lat="48.71662" lon="2.5352">
        <ele>102.984</ele>
        <time>2018-12-03T08:52:04Z</time>
      </trkpt>
      <trkpt lat="48.71663" lon="2.53527">
        <ele>103.005</ele>
        <time>2018-12-03T08:52:08Z</time>
      </trkpt>
      <trkpt lat="48.71664" lon="2.53533">
        <ele>103.032</ele>
        <time>2018-12-03T08:52:13Z</time>
      </trkpt>
      <trkpt lat="48.71664" lon="2.5354">
        <ele>103.055</ele>
        <time>2018-12-03T08:52:17Z</time>
      </trkpt>
      <trkpt lat="48.71665" lon="2.53544">
        <ele>103.068</ele>
        <time>2018-12-03T08:52:19Z</time>
      </trkpt>
      <trkpt lat="48.71665" lon="2.53548">
        <ele>103.08</ele>
        <time>2018-12-03T08:52:21Z</time>
      </trkpt>
      <trkpt lat="48.71666" lon="2.53555">
        <ele>103.103</ele>
        <time>2018-12-03T08:52:25Z</time>
      </trkpt>
      <trkpt lat="48.71667" lon="2.53559">
        <ele>103.113</ele>
        <time>2018-12-03T08:52:27Z</time>
      </trkpt>
      <trkpt lat="48.71668" lon="2.53566">
        <ele>103.137</ele>
        <time>2018-12-03T08:52:32Z</time>
      </trkpt>
      <trkpt lat="48.71668" lon="2.53574">
        <ele>103.156</ele>
        <time>2018-12-03T08:52:36Z</time>
      </trkpt>
      <trkpt lat="48.71667" lon="2.53581">
        <ele>103.173</ele>
        <time>2018-12-03T08:52:40Z</time>
      </trkpt>
      <trkpt lat="48.71666" lon="2.53588">
        <ele>103.185</ele>
        <time>2018-12-03T08:52:43Z</time>
      </trkpt>
      <trkpt lat="48.71664" lon="2.53595">
        <ele>103.202</ele>
        <time>2018-12-03T08:52:47Z</time>
      </trkpt>
      <trkpt lat="48.71664" lon="2.53603">
        <ele>103.233</ele>
        <time>2018-12-03T08:52:54Z</time>
      </trkpt>
      <trkpt lat="48.71663" lon="2.53611">
        <ele>103.252</ele>
        <time>2018-12-03T08:52:59Z</time>
      </trkpt>
      <trkpt lat="48.7166" lon="2.5362">
        <ele>103.266</ele>
        <time>2018-12-03T08:53:03Z</time>
      </trkpt>
      <trkpt lat="48.71658" lon="2.53625">
        <ele>103.276</ele>
        <time>2018-12-03T08:53:06Z</time>
      </trkpt>
      <trkpt lat="48.71657" lon="2.53633">
        <ele>103.291</ele>
        <time>2018-12-03T08:53:11Z</time>
      </trkpt>
      <trkpt lat="48.71657" lon="2.53642">
        <ele>103.301</ele>
        <time>2018-12-03T08:53:15Z</time>
      </trkpt>
      <trkpt lat="48.71658" lon="2.53649">
        <ele>103.309</ele>
        <time>2018-12-03T08:53:19Z</time>
      </trkpt>
      <trkpt lat="48.71662" lon="2.53653">
        <ele>103.314</ele>
        <time>2018-12-03T08:53:25Z</time>
      </trkpt>
      <trkpt lat="48.71667" lon="2.53657">
        <ele>103.315</ele>
        <time>2018-12-03T08:53:29Z</time>
      </trkpt>
      <trkpt lat="48.7167" lon="2.53662">
        <ele>103.315</ele>
        <time>2018-12-03T08:53:32Z</time>
      </trkpt>
      <trkpt lat="48.71673" lon="2.53669">
        <ele>103.312</ele>
        <time>2018-12-03T08:53:36Z</time>
      </trkpt>
      <trkpt lat="48.71674" lon="2.53673">
        <ele>103.311</ele>
        <time>2018-12-03T08:53:38Z</time>
      </trkpt>
      <trkpt lat="48.71677" lon="2.53679">
        <ele>103.307</ele>
        <time>2018-12-03T08:53:43Z</time>
      </trkpt>
      <trkpt lat="48.71679" lon="2.53683">
        <ele>103.306</ele>
        <time>2018-12-03T08:53:47Z</time>
      </trkpt>
      <trkpt lat="48.71679" lon="2.53683">
        <ele>57.1</ele>
        <time>2018-12-03T08:53:54Z</time>
      </trkpt>
      <trkpt lat="48.71679" lon="2.53683">
        <ele>57.1</ele>
        <time>2018-12-03T08:54:32Z</time>
      </trkpt>
      <trkpt lat="48.7168" lon="2.53734">
        <ele>103.421</ele>
        <time>2018-12-03T08:54:32Z</time>
      </trkpt>
      <trkpt lat="48.71681" lon="2.53738">
        <ele>103.435</ele>
        <time>2018-12-03T08:54:35Z</time>
      </trkpt>
      <trkpt lat="48.71681" lon="2.53745">
        <ele>103.456</ele>
        <time>2018-12-03T08:54:39Z</time>
      </trkpt>
      <trkpt lat="48.71682" lon="2.53749">
        <ele>103.469</ele>
        <time>2018-12-03T08:54:41Z</time>
      </trkpt>
      <trkpt lat="48.71684" lon="2.53757">
        <ele>103.501</ele>
        <time>2018-12-03T08:54:45Z</time>
      </trkpt>
      <trkpt lat="48.71685" lon="2.53762">
        <ele>103.528</ele>
        <time>2018-12-03T08:54:48Z</time>
      </trkpt>
      <trkpt lat="48.71688" lon="2.53769">
        <ele>103.566</ele>
        <time>2018-12-03T08:54:52Z</time>
      </trkpt>
      <trkpt lat="48.71691" lon="2.53776">
        <ele>103.594</ele>
        <time>2018-12-03T08:54:55Z</time>
      </trkpt>
      <trkpt lat="48.71692" lon="2.5378">
        <ele>103.614</ele>
        <time>2018-12-03T08:54:57Z</time>
      </trkpt>
      <trkpt lat="48.71693" lon="2.53784">
        <ele>103.635</ele>
        <time>2018-12-03T08:54:59Z</time>
      </trkpt>
      <trkpt lat="48.71694" lon="2.53789">
        <ele>103.655</ele>
        <time>2018-12-03T08:55:01Z</time>
      </trkpt>
      <trkpt lat="48.71697" lon="2.53795">
        <ele>103.685</ele>
        <time>2018-12-03T08:55:04Z</time>
      </trkpt>
      <trkpt lat="48.71698" lon="2.53798">
        <ele>103.703</ele>
        <time>2018-12-03T08:55:06Z</time>
      </trkpt>
      <trkpt lat="48.71702" lon="2.53803">
        <ele>103.736</ele>
        <time>2018-12-03T08:55:10Z</time>
      </trkpt>
      <trkpt lat="48.71704" lon="2.5381">
        <ele>103.767</ele>
        <time>2018-12-03T08:55:14Z</time>
      </trkpt>
      <trkpt lat="48.71705" lon="2.53815">
        <ele>103.781</ele>
        <time>2018-12-03T08:55:16Z</time>
      </trkpt>
      <trkpt lat="48.71708" lon="2.53822">
        <ele>103.807</ele>
        <time>2018-12-03T08:55:20Z</time>
      </trkpt>
      <trkpt lat="48.71709" lon="2.53825">
        <ele>103.82</ele>
        <time>2018-12-03T08:55:22Z</time>
      </trkpt>
      <trkpt lat="48.71711" lon="2.53828">
        <ele>103.841</ele>
        <time>2018-12-03T08:55:25Z</time>
      </trkpt>
      <trkpt lat="48.71715" lon="2.53832">
        <ele>103.869</ele>
        <time>2018-12-03T08:55:29Z</time>
      </trkpt>
      <trkpt lat="48.71719" lon="2.53837">
        <ele>103.904</ele>
        <time>2018-12-03T08:55:34Z</time>
      </trkpt>
      <trkpt lat="48.71722" lon="2.5384">
        <ele>103.925</ele>
        <time>2018-12-03T08:55:37Z</time>
      </trkpt>
      <trkpt lat="48.71726" lon="2.53843">
        <ele>103.959</ele>
        <time>2018-12-03T08:55:42Z</time>
      </trkpt>
      <trkpt lat="48.7173" lon="2.53847">
        <ele>103.992</ele>
        <time>2018-12-03T08:55:47Z</time>
      </trkpt>
      <trkpt lat="48.71733" lon="2.53853">
        <ele>104.018</ele>
        <time>2018-12-03T08:55:51Z</time>
      </trkpt>
      <trkpt lat="48.71737" lon="2.53857">
        <ele>104.043</ele>
        <time>2018-12-03T08:55:55Z</time>
      </trkpt>
      <trkpt lat="48.71739" lon="2.53859">
        <ele>104.061</ele>
        <time>2018-12-03T08:55:58Z</time>
      </trkpt>
      <trkpt lat="48.71743" lon="2.53862">
        <ele>104.08</ele>
        <time>2018-12-03T08:56:01Z</time>
      </trkpt>
      <trkpt lat="48.71745" lon="2.53864">
        <ele>104.092</ele>
        <time>2018-12-03T08:56:03Z</time>
      </trkpt>
      <trkpt lat="48.71748" lon="2.5387">
        <ele>104.118</ele>
        <time>2018-12-03T08:56:07Z</time>
      </trkpt>
      <trkpt lat="48.7175" lon="2.53875">
        <ele>104.141</ele>
        <time>2018-12-03T08:56:11Z</time>
      </trkpt>
      <trkpt lat="48.71755" lon="2.5388">
        <ele>104.169</ele>
        <time>2018-12-03T08:56:16Z</time>
      </trkpt>
      <trkpt lat="48.71758" lon="2.53887">
        <ele>104.191</ele>
        <time>2018-12-03T08:56:20Z</time>
      </trkpt>
      <trkpt lat="48.71761" lon="2.53893">
        <ele>104.213</ele>
        <time>2018-12-03T08:56:24Z</time>
      </trkpt>
      <trkpt lat="48.71764" lon="2.539">
        <ele>104.241</ele>
        <time>2018-12-03T08:56:29Z</time>
      </trkpt>
      <trkpt lat="48.71768" lon="2.53905">
        <ele>104.267</ele>
        <time>2018-12-03T08:56:34Z</time>
      </trkpt>
      <trkpt lat="48.71772" lon="2.5391">
        <ele>104.288</ele>
        <time>2018-12-03T08:56:38Z</time>
      </trkpt>
      <trkpt lat="48.71774" lon="2.53912">
        <ele>104.298</ele>
        <time>2018-12-03T08:56:40Z</time>
      </trkpt>
      <trkpt lat="48.71777" lon="2.53919">
        <ele>104.317</ele>
        <time>2018-12-03T08:56:44Z</time>
      </trkpt>
      <trkpt lat="48.7178" lon="2.53925">
        <ele>104.334</ele>
        <time>2018-12-03T08:56:48Z</time>
      </trkpt>
      <trkpt lat="48.71784" lon="2.53931">
        <ele>104.351</ele>
        <time>2018-12-03T08:56:52Z</time>
      </trkpt>
      <trkpt lat="48.71787" lon="2.53934">
        <ele>104.36</ele>
        <time>2018-12-03T08:56:54Z</time>
      </trkpt>
      <trkpt lat="48.71789" lon="2.53937">
        <ele>104.369</ele>
        <time>2018-12-03T08:56:56Z</time>
      </trkpt>
      <trkpt lat="48.71793" lon="2.53943">
        <ele>104.389</ele>
        <time>2018-12-03T08:57:00Z</time>
      </trkpt>
      <trkpt lat="48.71797" lon="2.53947">
        <ele>104.409</ele>
        <time>2018-12-03T08:57:04Z</time>
      </trkpt>
      <trkpt lat="48.71799" lon="2.5395">
        <ele>104.419</ele>
        <time>2018-12-03T08:57:06Z</time>
      </trkpt>
      <trkpt lat="48.71803" lon="2.53955">
        <ele>104.441</ele>
        <time>2018-12-03T08:57:11Z</time>
      </trkpt>
      <trkpt lat="48.71808" lon="2.53959">
        <ele>104.457</ele>
        <time>2018-12-03T08:57:15Z</time>
      </trkpt>
      <trkpt lat="48.71812" lon="2.53963">
        <ele>104.471</ele>
        <time>2018-12-03T08:57:18Z</time>
      </trkpt>
      <trkpt lat="48.71814" lon="2.53965">
        <ele>104.481</ele>
        <time>2018-12-03T08:57:20Z</time>
      </trkpt>
      <trkpt lat="48.71817" lon="2.5397">
        <ele>104.503</ele>
        <time>2018-12-03T08:57:24Z</time>
      </trkpt>
      <trkpt lat="48.71818" lon="2.53973">
        <ele>104.515</ele>
        <time>2018-12-03T08:57:26Z</time>
      </trkpt>
      <trkpt lat="48.71822" lon="2.53977">
        <ele>104.534</ele>
        <time>2018-12-03T08:57:29Z</time>
      </trkpt>
      <trkpt lat="48.71824" lon="2.53979">
        <ele>104.547</ele>
        <time>2018-12-03T08:57:31Z</time>
      </trkpt>
      <trkpt lat="48.71828" lon="2.53985">
        <ele>104.573</ele>
        <time>2018-12-03T08:57:35Z</time>
      </trkpt>
      <trkpt lat="48.7183" lon="2.53992">
        <ele>104.606</ele>
        <time>2018-12-03T08:57:40Z</time>
      </trkpt>
      <trkpt lat="48.71833" lon="2.53998">
        <ele>104.631</ele>
        <time>2018-12-03T08:57:44Z</time>
      </trkpt>
      <trkpt lat="48.71836" lon="2.54004">
        <ele>104.663</ele>
        <time>2018-12-03T08:57:50Z</time>
      </trkpt>
      <trkpt lat="48.71841" lon="2.5401">
        <ele>104.688</ele>
        <time>2018-12-03T08:57:55Z</time>
      </trkpt>
      <trkpt lat="48.71843" lon="2.54013">
        <ele>104.701</ele>
        <time>2018-12-03T08:57:58Z</time>
      </trkpt>
      <trkpt lat="48.71847" lon="2.54017">
        <ele>104.719</ele>
        <time>2018-12-03T08:58:03Z</time>
      </trkpt>
      <trkpt lat="48.7185" lon="2.54024">
        <ele>104.729</ele>
        <time>2018-12-03T08:58:07Z</time>
      </trkpt>
      <trkpt lat="48.71854" lon="2.54029">
        <ele>104.734</ele>
        <time>2018-12-03T08:58:10Z</time>
      </trkpt>
      <trkpt lat="48.71859" lon="2.54034">
        <ele>104.742</ele>
        <time>2018-12-03T08:58:14Z</time>
      </trkpt>
      <trkpt lat="48.71861" lon="2.54036">
        <ele>104.745</ele>
        <time>2018-12-03T08:58:15Z</time>
      </trkpt>
      <trkpt lat="48.71864" lon="2.5404">
        <ele>104.751</ele>
        <time>2018-12-03T08:58:17Z</time>
      </trkpt>
      <trkpt lat="48.71866" lon="2.54043">
        <ele>104.757</ele>
        <time>2018-12-03T08:58:19Z</time>
      </trkpt>
      <trkpt lat="48.71869" lon="2.54046">
        <ele>104.768</ele>
        <time>2018-12-03T08:58:22Z</time>
      </trkpt>
      <trkpt lat="48.71869" lon="2.54046">
        <ele>55.5</ele>
        <time>2018-12-03T08:58:27Z</time>
      </trkpt>
      <trkpt lat="48.71869" lon="2.54046">
        <ele>55.5</ele>
        <time>2018-12-03T08:58:43Z</time>
      </trkpt>
      <trkpt lat="48.71873" lon="2.54056">
        <ele>104.785</ele>
        <time>2018-12-03T08:58:43Z</time>
      </trkpt>
      <trkpt lat="48.71875" lon="2.54059">
        <ele>104.782</ele>
        <time>2018-12-03T08:58:45Z</time>
      </trkpt>
      <trkpt lat="48.7188" lon="2.54064">
        <ele>104.775</ele>
        <time>2018-12-03T08:58:50Z</time>
      </trkpt>
      <trkpt lat="48.71884" lon="2.54068">
        <ele>104.759</ele>
        <time>2018-12-03T08:58:57Z</time>
      </trkpt>
      <trkpt lat="48.71885" lon="2.54079">
        <ele>104.732</ele>
        <time>2018-12-03T08:59:22Z</time>
      </trkpt>
      <trkpt lat="48.71889" lon="2.54082">
        <ele>104.71</ele>
        <time>2018-12-03T08:59:28Z</time>
      </trkpt>
      <trkpt lat="48.71892" lon="2.54089">
        <ele>104.697</ele>
        <time>2018-12-03T08:59:33Z</time>
      </trkpt>
      <trkpt lat="48.71893" lon="2.54096">
        <ele>104.687</ele>
        <time>2018-12-03T08:59:38Z</time>
      </trkpt>
      <trkpt lat="48.71894" lon="2.541">
        <ele>104.684</ele>
        <time>2018-12-03T08:59:41Z</time>
      </trkpt>
      <trkpt lat="48.71895" lon="2.54104">
        <ele>104.681</ele>
        <time>2018-12-03T08:59:44Z</time>
      </trkpt>
      <trkpt lat="48.71896" lon="2.54108">
        <ele>104.68</ele>
        <time>2018-12-03T08:59:48Z</time>
      </trkpt>
      <trkpt lat="48.71897" lon="2.54111">
        <ele>104.68</ele>
        <time>2018-12-03T08:59:50Z</time>
      </trkpt>
      <trkpt lat="48.71898" lon="2.54117">
        <ele>104.685</ele>
        <time>2018-12-03T08:59:54Z</time>
      </trkpt>
      <trkpt lat="48.719" lon="2.54124">
        <ele>104.694</ele>
        <time>2018-12-03T09:00:00Z</time>
      </trkpt>
      <trkpt lat="48.719" lon="2.54131">
        <ele>104.709</ele>
        <time>2018-12-03T09:00:15Z</time>
      </trkpt>
      <trkpt lat="48.71903" lon="2.54139">
        <ele>104.699</ele>
        <time>2018-12-03T09:00:59Z</time>
      </trkpt>
      <trkpt lat="48.71904" lon="2.54143">
        <ele>104.695</ele>
        <time>2018-12-03T09:01:01Z</time>
      </trkpt>
      <trkpt lat="48.71906" lon="2.54149">
        <ele>104.69</ele>
        <time>2018-12-03T09:01:04Z</time>
      </trkpt>
      <trkpt lat="48.71907" lon="2.54152">
        <ele>104.686</ele>
        <time>2018-12-03T09:01:06Z</time>
      </trkpt>
      <trkpt lat="48.71911" lon="2.54157">
        <ele>104.68</ele>
        <time>2018-12-03T09:01:10Z</time>
      </trkpt>
      <trkpt lat="48.71914" lon="2.54165">
        <ele>104.675</ele>
        <time>2018-12-03T09:01:15Z</time>
      </trkpt>
      <trkpt lat="48.71917" lon="2.54171">
        <ele>104.673</ele>
        <time>2018-12-03T09:01:19Z</time>
      </trkpt>
      <trkpt lat="48.71919" lon="2.54178">
        <ele>104.673</ele>
        <time>2018-12-03T09:01:24Z</time>
      </trkpt>
      <trkpt lat="48.71922" lon="2.54186">
        <ele>104.676</ele>
        <time>2018-12-03T09:01:28Z</time>
      </trkpt>
      <trkpt lat="48.71923" lon="2.5419">
        <ele>104.678</ele>
        <time>2018-12-03T09:01:31Z</time>
      </trkpt>
      <trkpt lat="48.71926" lon="2.54197">
        <ele>104.682</ele>
        <time>2018-12-03T09:01:35Z</time>
      </trkpt>
      <trkpt lat="48.71929" lon="2.54203">
        <ele>104.687</ele>
        <time>2018-12-03T09:01:39Z</time>
      </trkpt>
      <trkpt lat="48.71931" lon="2.54206">
        <ele>104.691</ele>
        <time>2018-12-03T09:01:42Z</time>
      </trkpt>
      <trkpt lat="48.71932" lon="2.54209">
        <ele>104.696</ele>
        <time>2018-12-03T09:01:46Z</time>
      </trkpt>
      <trkpt lat="48.71935" lon="2.54216">
        <ele>104.702</ele>
        <time>2018-12-03T09:01:50Z</time>
      </trkpt>
      <trkpt lat="48.71936" lon="2.54221">
        <ele>104.706</ele>
        <time>2018-12-03T09:01:53Z</time>
      </trkpt>
      <trkpt lat="48.71938" lon="2.54225">
        <ele>104.709</ele>
        <time>2018-12-03T09:01:55Z</time>
      </trkpt>
      <trkpt lat="48.71939" lon="2.54229">
        <ele>104.713</ele>
        <time>2018-12-03T09:01:57Z</time>
      </trkpt>
      <trkpt lat="48.71942" lon="2.54236">
        <ele>104.724</ele>
        <time>2018-12-03T09:02:02Z</time>
      </trkpt>
      <trkpt lat="48.71945" lon="2.54241">
        <ele>104.734</ele>
        <time>2018-12-03T09:02:06Z</time>
      </trkpt>
      <trkpt lat="48.71948" lon="2.54247">
        <ele>104.752</ele>
        <time>2018-12-03T09:02:11Z</time>
      </trkpt>
      <trkpt lat="48.7195" lon="2.54251">
        <ele>104.763</ele>
        <time>2018-12-03T09:02:13Z</time>
      </trkpt>
      <trkpt lat="48.71953" lon="2.54257">
        <ele>104.786</ele>
        <time>2018-12-03T09:02:17Z</time>
      </trkpt>
      <trkpt lat="48.71956" lon="2.54263">
        <ele>104.838</ele>
        <time>2018-12-03T09:02:25Z</time>
      </trkpt>
      <trkpt lat="48.71957" lon="2.54266">
        <ele>104.863</ele>
        <time>2018-12-03T09:02:28Z</time>
      </trkpt>
      <trkpt lat="48.71962" lon="2.5427">
        <ele>104.895</ele>
        <time>2018-12-03T09:02:32Z</time>
      </trkpt>
      <trkpt lat="48.71966" lon="2.54275">
        <ele>104.917</ele>
        <time>2018-12-03T09:02:35Z</time>
      </trkpt>
      <trkpt lat="48.71968" lon="2.54281">
        <ele>104.945</ele>
        <time>2018-12-03T09:02:39Z</time>
      </trkpt>
      <trkpt lat="48.7197" lon="2.54284">
        <ele>104.958</ele>
        <time>2018-12-03T09:02:41Z</time>
      </trkpt>
      <trkpt lat="48.71972" lon="2.5429">
        <ele>104.978</ele>
        <time>2018-12-03T09:02:44Z</time>
      </trkpt>
      <trkpt lat="48.71974" lon="2.54294">
        <ele>104.998</ele>
        <time>2018-12-03T09:02:47Z</time>
      </trkpt>
      <trkpt lat="48.71976" lon="2.54302">
        <ele>105.024</ele>
        <time>2018-12-03T09:02:51Z</time>
      </trkpt>
      <trkpt lat="48.71981" lon="2.54302">
        <ele>105.047</ele>
        <time>2018-12-03T09:02:54Z</time>
      </trkpt>
      <trkpt lat="48.71986" lon="2.54302">
        <ele>105.079</ele>
        <time>2018-12-03T09:02:58Z</time>
      </trkpt>
      <trkpt lat="48.71991" lon="2.54302">
        <ele>105.104</ele>
        <time>2018-12-03T09:03:01Z</time>
      </trkpt>
      <trkpt lat="48.71995" lon="2.54305">
        <ele>105.146</ele>
        <time>2018-12-03T09:03:06Z</time>
      </trkpt>
      <trkpt lat="48.71999" lon="2.54309">
        <ele>105.188</ele>
        <time>2018-12-03T09:03:11Z</time>
      </trkpt>
      <trkpt lat="48.72003" lon="2.54314">
        <ele>105.221</ele>
        <time>2018-12-03T09:03:15Z</time>
      </trkpt>
      <trkpt lat="48.72006" lon="2.5432">
        <ele>105.254</ele>
        <time>2018-12-03T09:03:19Z</time>
      </trkpt>
      <trkpt lat="48.72011" lon="2.54325">
        <ele>105.295</ele>
        <time>2018-12-03T09:03:24Z</time>
      </trkpt>
      <trkpt lat="48.72016" lon="2.54328">
        <ele>105.338</ele>
        <time>2018-12-03T09:03:29Z</time>
      </trkpt>
      <trkpt lat="48.72021" lon="2.54328">
        <ele>105.369</ele>
        <time>2018-12-03T09:03:33Z</time>
      </trkpt>
      <trkpt lat="48.72025" lon="2.5433">
        <ele>105.408</ele>
        <time>2018-12-03T09:03:38Z</time>
      </trkpt>
      <trkpt lat="48.72025" lon="2.5433">
        <ele>58.7</ele>
        <time>2018-12-03T09:03:46Z</time>
      </trkpt>
      <trkpt lat="48.72025" lon="2.5433">
        <ele>58.7</ele>
        <time>2018-12-03T09:04:52Z</time>
      </trkpt>
      <trkpt lat="48.72052" lon="2.54314">
        <ele>105.562</ele>
        <time>2018-12-03T09:04:52Z</time>
      </trkpt>
      <trkpt lat="48.72053" lon="2.54308">
        <ele>105.574</ele>
        <time>2018-12-03T09:04:56Z</time>
      </trkpt>
      <trkpt lat="48.72055" lon="2.54301">
        <ele>105.588</ele>
        <time>2018-12-03T09:05:00Z</time>
      </trkpt>
      <trkpt lat="48.72058" lon="2.54295">
        <ele>105.6</ele>
        <time>2018-12-03T09:05:03Z</time>
      </trkpt>
      <trkpt lat="48.7206" lon="2.54292">
        <ele>105.609</ele>
        <time>2018-12-03T09:05:05Z</time>
      </trkpt>
      <trkpt lat="48.72064" lon="2.5429">
        <ele>105.636</ele>
        <time>2018-12-03T09:05:11Z</time>
      </trkpt>
      <trkpt lat="48.72069" lon="2.54289">
        <ele>105.666</ele>
        <time>2018-12-03T09:05:17Z</time>
      </trkpt>
      <trkpt lat="48.72074" lon="2.54289">
        <ele>105.7</ele>
        <time>2018-12-03T09:05:23Z</time>
      </trkpt>
      <trkpt lat="48.72078" lon="2.54286">
        <ele>105.719</ele>
        <time>2018-12-03T09:05:26Z</time>
      </trkpt>
      <trkpt lat="48.72083" lon="2.54285">
        <ele>105.751</ele>
        <time>2018-12-03T09:05:31Z</time>
      </trkpt>
      <trkpt lat="48.72086" lon="2.54284">
        <ele>105.765</ele>
        <time>2018-12-03T09:05:33Z</time>
      </trkpt>
      <trkpt lat="48.72089" lon="2.54283">
        <ele>105.787</ele>
        <time>2018-12-03T09:05:36Z</time>
      </trkpt>
      <trkpt lat="48.72094" lon="2.54286">
        <ele>105.811</ele>
        <time>2018-12-03T09:05:39Z</time>
      </trkpt>
      <trkpt lat="48.72098" lon="2.54287">
        <ele>105.828</ele>
        <time>2018-12-03T09:05:41Z</time>
      </trkpt>
      <trkpt lat="48.721" lon="2.54288">
        <ele>105.851</ele>
        <time>2018-12-03T09:05:44Z</time>
      </trkpt>
      <trkpt lat="48.72105" lon="2.54294">
        <ele>105.888</ele>
        <time>2018-12-03T09:05:50Z</time>
      </trkpt>
      <trkpt lat="48.7211" lon="2.54297">
        <ele>105.909</ele>
        <time>2018-12-03T09:05:54Z</time>
      </trkpt>
      <trkpt lat="48.72113" lon="2.54299">
        <ele>105.924</ele>
        <time>2018-12-03T09:05:57Z</time>
      </trkpt>
      <trkpt lat="48.72117" lon="2.54302">
        <ele>105.955</ele>
        <time>2018-12-03T09:06:03Z</time>
      </trkpt>
      <trkpt lat="48.72122" lon="2.54305">
        <ele>105.986</ele>
        <time>2018-12-03T09:06:09Z</time>
      </trkpt>
      <trkpt lat="48.72127" lon="2.54306">
        <ele>106.012</ele>
        <time>2018-12-03T09:06:14Z</time>
      </trkpt>
      <trkpt lat="48.72131" lon="2.54306">
        <ele>106.025</ele>
        <time>2018-12-03T09:06:16Z</time>
      </trkpt>
      <trkpt lat="48.72135" lon="2.54306">
        <ele>106.039</ele>
        <time>2018-12-03T09:06:18Z</time>
      </trkpt>
      <trkpt lat="48.72138" lon="2.54306">
        <ele>106.054</ele>
        <time>2018-12-03T09:06:20Z</time>
      </trkpt>
      <trkpt lat="48.72143" lon="2.54306">
        <ele>106.086</ele>
        <time>2018-12-03T09:06:24Z</time>
      </trkpt>
      <trkpt lat="48.72151" lon="2.54308">
        <ele>106.143</ele>
        <time>2018-12-03T09:06:31Z</time>
      </trkpt>
      <trkpt lat="48.72157" lon="2.54308">
        <ele>106.168</ele>
        <time>2018-12-03T09:06:34Z</time>
      </trkpt>
      <trkpt lat="48.72163" lon="2.54309">
        <ele>106.205</ele>
        <time>2018-12-03T09:06:39Z</time>
      </trkpt>
      <trkpt lat="48.72167" lon="2.54309">
        <ele>106.219</ele>
        <time>2018-12-03T09:06:41Z</time>
      </trkpt>
      <trkpt lat="48.72172" lon="2.54311">
        <ele>106.245</ele>
        <time>2018-12-03T09:06:45Z</time>
      </trkpt>
      <trkpt lat="48.72176" lon="2.54313">
        <ele>106.264</ele>
        <time>2018-12-03T09:06:48Z</time>
      </trkpt>
      <trkpt lat="48.72181" lon="2.54315">
        <ele>106.287</ele>
        <time>2018-12-03T09:06:52Z</time>
      </trkpt>
      <trkpt lat="48.72186" lon="2.54315">
        <ele>106.316</ele>
        <time>2018-12-03T09:06:57Z</time>
      </trkpt>
      <trkpt lat="48.7219" lon="2.54318">
        <ele>106.344</ele>
        <time>2018-12-03T09:07:02Z</time>
      </trkpt>
      <trkpt lat="48.72193" lon="2.54319">
        <ele>106.36</ele>
        <time>2018-12-03T09:07:05Z</time>
      </trkpt>
      <trkpt lat="48.72199" lon="2.54321">
        <ele>106.387</ele>
        <time>2018-12-03T09:07:10Z</time>
      </trkpt>
      <trkpt lat="48.72203" lon="2.54326">
        <ele>106.408</ele>
        <time>2018-12-03T09:07:14Z</time>
      </trkpt>
      <trkpt lat="48.72208" lon="2.54329">
        <ele>106.435</ele>
        <time>2018-12-03T09:07:19Z</time>
      </trkpt>
      <trkpt lat="48.72211" lon="2.54331">
        <ele>106.445</ele>
        <time>2018-12-03T09:07:21Z</time>
      </trkpt>
      <trkpt lat="48.72216" lon="2.54333">
        <ele>106.47</ele>
        <time>2018-12-03T09:07:26Z</time>
      </trkpt>
      <trkpt lat="48.72222" lon="2.54333">
        <ele>106.487</ele>
        <time>2018-12-03T09:07:30Z</time>
      </trkpt>
      <trkpt lat="48.72222" lon="2.54333">
        <ele>106.487</ele>
        <time>2018-12-03T09:07:37Z</time>
      </trkpt>
      <trkpt lat="48.72222" lon="2.54333">
        <ele>57</ele>
        <time>2018-12-03T09:07:37Z</time>
      </trkpt>
      <trkpt lat="48.72222" lon="2.54333">
        <ele>57</ele>
        <time>2018-12-03T09:07:42Z</time>
      </trkpt>
      <trkpt lat="48.72231" lon="2.54338">
        <ele>106.533</ele>
        <time>2018-12-03T09:07:42Z</time>
      </trkpt>
      <trkpt lat="48.72235" lon="2.54339">
        <ele>106.54</ele>
        <time>2018-12-03T09:07:44Z</time>
      </trkpt>
      <trkpt lat="48.7224" lon="2.54342">
        <ele>106.556</ele>
        <time>2018-12-03T09:07:48Z</time>
      </trkpt>
      <trkpt lat="48.72242" lon="2.54343">
        <ele>106.564</ele>
        <time>2018-12-03T09:07:50Z</time>
      </trkpt>
      <trkpt lat="48.72245" lon="2.54344">
        <ele>106.578</ele>
        <time>2018-12-03T09:07:53Z</time>
      </trkpt>
      <trkpt lat="48.72248" lon="2.54349">
        <ele>106.596</ele>
        <time>2018-12-03T09:07:57Z</time>
      </trkpt>
      <trkpt lat="48.72251" lon="2.54355">
        <ele>106.609</ele>
        <time>2018-12-03T09:08:00Z</time>
      </trkpt>
      <trkpt lat="48.72253" lon="2.54362">
        <ele>106.624</ele>
        <time>2018-12-03T09:08:04Z</time>
      </trkpt>
      <trkpt lat="48.72256" lon="2.54369">
        <ele>106.639</ele>
        <time>2018-12-03T09:08:09Z</time>
      </trkpt>
      <trkpt lat="48.72257" lon="2.54376">
        <ele>106.648</ele>
        <time>2018-12-03T09:08:13Z</time>
      </trkpt>
      <trkpt lat="48.72259" lon="2.54384">
        <ele>106.658</ele>
        <time>2018-12-03T09:08:18Z</time>
      </trkpt>
      <trkpt lat="48.72261" lon="2.54391">
        <ele>106.667</ele>
        <time>2018-12-03T09:08:23Z</time>
      </trkpt>
      <trkpt lat="48.72262" lon="2.54395">
        <ele>106.67</ele>
        <time>2018-12-03T09:08:25Z</time>
      </trkpt>
      <trkpt lat="48.72263" lon="2.54399">
        <ele>106.673</ele>
        <time>2018-12-03T09:08:28Z</time>
      </trkpt>
      <trkpt lat="48.72266" lon="2.54405">
        <ele>106.675</ele>
        <time>2018-12-03T09:08:32Z</time>
      </trkpt>
      <trkpt lat="48.72267" lon="2.54413">
        <ele>106.676</ele>
        <time>2018-12-03T09:08:36Z</time>
      </trkpt>
      <trkpt lat="48.72269" lon="2.54419">
        <ele>106.676</ele>
        <time>2018-12-03T09:08:41Z</time>
      </trkpt>
      <trkpt lat="48.72272" lon="2.54426">
        <ele>106.677</ele>
        <time>2018-12-03T09:08:44Z</time>
      </trkpt>
      <trkpt lat="48.72276" lon="2.54431">
        <ele>106.679</ele>
        <time>2018-12-03T09:08:48Z</time>
      </trkpt>
      <trkpt lat="48.7228" lon="2.54436">
        <ele>106.681</ele>
        <time>2018-12-03T09:08:52Z</time>
      </trkpt>
      <trkpt lat="48.72283" lon="2.54439">
        <ele>106.683</ele>
        <time>2018-12-03T09:08:55Z</time>
      </trkpt>
      <trkpt lat="48.72285" lon="2.54442">
        <ele>106.684</ele>
        <time>2018-12-03T09:08:57Z</time>
      </trkpt>
      <trkpt lat="48.72287" lon="2.54444">
        <ele>106.686</ele>
        <time>2018-12-03T09:08:59Z</time>
      </trkpt>
      <trkpt lat="48.72291" lon="2.5445">
        <ele>106.69</ele>
        <time>2018-12-03T09:09:04Z</time>
      </trkpt>
      <trkpt lat="48.72294" lon="2.54454">
        <ele>106.697</ele>
        <time>2018-12-03T09:09:08Z</time>
      </trkpt>
      <trkpt lat="48.72299" lon="2.54457">
        <ele>106.704</ele>
        <time>2018-12-03T09:09:11Z</time>
      </trkpt>
      <trkpt lat="48.72303" lon="2.54459">
        <ele>106.713</ele>
        <time>2018-12-03T09:09:14Z</time>
      </trkpt>
      <trkpt lat="48.72307" lon="2.54461">
        <ele>106.73</ele>
        <time>2018-12-03T09:09:19Z</time>
      </trkpt>
      <trkpt lat="48.7231" lon="2.54462">
        <ele>106.739</ele>
        <time>2018-12-03T09:09:23Z</time>
      </trkpt>
      <trkpt lat="48.72315" lon="2.54462">
        <ele>106.745</ele>
        <time>2018-12-03T09:09:28Z</time>
      </trkpt>
      <trkpt lat="48.7232" lon="2.5446">
        <ele>106.748</ele>
        <time>2018-12-03T09:09:31Z</time>
      </trkpt>
      <trkpt lat="48.72325" lon="2.5446">
        <ele>106.754</ele>
        <time>2018-12-03T09:09:34Z</time>
      </trkpt>
      <trkpt lat="48.72328" lon="2.5446">
        <ele>106.76</ele>
        <time>2018-12-03T09:09:36Z</time>
      </trkpt>
      <trkpt lat="48.72332" lon="2.54458">
        <ele>106.774</ele>
        <time>2018-12-03T09:09:40Z</time>
      </trkpt>
      <trkpt lat="48.72335" lon="2.54457">
        <ele>106.785</ele>
        <time>2018-12-03T09:09:43Z</time>
      </trkpt>
      <trkpt lat="48.7234" lon="2.54453">
        <ele>106.801</ele>
        <time>2018-12-03T09:09:47Z</time>
      </trkpt>
      <trkpt lat="48.72344" lon="2.54452">
        <ele>106.816</ele>
        <time>2018-12-03T09:09:50Z</time>
      </trkpt>
      <trkpt lat="48.72348" lon="2.5445">
        <ele>106.834</ele>
        <time>2018-12-03T09:09:53Z</time>
      </trkpt>
      <trkpt lat="48.72352" lon="2.54446">
        <ele>106.852</ele>
        <time>2018-12-03T09:09:56Z</time>
      </trkpt>
      <trkpt lat="48.72356" lon="2.54439">
        <ele>106.872</ele>
        <time>2018-12-03T09:10:00Z</time>
      </trkpt>
      <trkpt lat="48.7236" lon="2.54434">
        <ele>106.887</ele>
        <time>2018-12-03T09:10:04Z</time>
      </trkpt>
      <trkpt lat="48.72362" lon="2.54432">
        <ele>106.894</ele>
        <time>2018-12-03T09:10:06Z</time>
      </trkpt>
      <trkpt lat="48.72367" lon="2.5443">
        <ele>106.906</ele>
        <time>2018-12-03T09:10:10Z</time>
      </trkpt>
      <trkpt lat="48.7237" lon="2.54429">
        <ele>106.911</ele>
        <time>2018-12-03T09:10:12Z</time>
      </trkpt>
      <trkpt lat="48.72375" lon="2.54425">
        <ele>106.922</ele>
        <time>2018-12-03T09:10:17Z</time>
      </trkpt>
      <trkpt lat="48.72379" lon="2.54423">
        <ele>106.916</ele>
        <time>2018-12-03T09:10:22Z</time>
      </trkpt>
      <trkpt lat="48.72382" lon="2.54422">
        <ele>106.91</ele>
        <time>2018-12-03T09:10:24Z</time>
      </trkpt>
      <trkpt lat="48.72384" lon="2.5442">
        <ele>106.902</ele>
        <time>2018-12-03T09:10:26Z</time>
      </trkpt>
      <trkpt lat="48.72388" lon="2.54417">
        <ele>106.884</ele>
        <time>2018-12-03T09:10:30Z</time>
      </trkpt>
      <trkpt lat="48.72391" lon="2.54414">
        <ele>106.874</ele>
        <time>2018-12-03T09:10:32Z</time>
      </trkpt>
      <trkpt lat="48.72393" lon="2.54412">
        <ele>106.862</ele>
        <time>2018-12-03T09:10:34Z</time>
      </trkpt>
      <trkpt lat="48.72397" lon="2.54408">
        <ele>106.837</ele>
        <time>2018-12-03T09:10:38Z</time>
      </trkpt>
      <trkpt lat="48.72402" lon="2.54402">
        <ele>106.804</ele>
        <time>2018-12-03T09:10:43Z</time>
      </trkpt>
      <trkpt lat="48.72407" lon="2.544">
        <ele>106.787</ele>
        <time>2018-12-03T09:10:46Z</time>
      </trkpt>
      <trkpt lat="48.7241" lon="2.54398">
        <ele>106.777</ele>
        <time>2018-12-03T09:10:48Z</time>
      </trkpt>
      <trkpt lat="48.72414" lon="2.54397">
        <ele>106.763</ele>
        <time>2018-12-03T09:10:51Z</time>
      </trkpt>
      <trkpt lat="48.72419" lon="2.54395">
        <ele>106.742</ele>
        <time>2018-12-03T09:10:56Z</time>
      </trkpt>
      <trkpt lat="48.72424" lon="2.54395">
        <ele>106.726</ele>
        <time>2018-12-03T09:11:01Z</time>
      </trkpt>
      <trkpt lat="48.72428" lon="2.54395">
        <ele>106.717</ele>
        <time>2018-12-03T09:11:04Z</time>
      </trkpt>
      <trkpt lat="48.72433" lon="2.54393">
        <ele>106.707</ele>
        <time>2018-12-03T09:11:08Z</time>
      </trkpt>
      <trkpt lat="48.72437" lon="2.54389">
        <ele>106.699</ele>
        <time>2018-12-03T09:11:12Z</time>
      </trkpt>
      <trkpt lat="48.7244" lon="2.54386">
        <ele>106.696</ele>
        <time>2018-12-03T09:11:14Z</time>
      </trkpt>
      <trkpt lat="48.72444" lon="2.54384">
        <ele>106.692</ele>
        <time>2018-12-03T09:11:17Z</time>
      </trkpt>
      <trkpt lat="48.72447" lon="2.54383">
        <ele>106.689</ele>
        <time>2018-12-03T09:11:19Z</time>
      </trkpt>
      <trkpt lat="48.72452" lon="2.54378">
        <ele>106.686</ele>
        <time>2018-12-03T09:11:23Z</time>
      </trkpt>
      <trkpt lat="48.72455" lon="2.54376">
        <ele>106.685</ele>
        <time>2018-12-03T09:11:25Z</time>
      </trkpt>
      <trkpt lat="48.72458" lon="2.54373">
        <ele>106.683</ele>
        <time>2018-12-03T09:11:28Z</time>
      </trkpt>
      <trkpt lat="48.7246" lon="2.5437">
        <ele>106.681</ele>
        <time>2018-12-03T09:11:30Z</time>
      </trkpt>
      <trkpt lat="48.72462" lon="2.54368">
        <ele>106.68</ele>
        <time>2018-12-03T09:11:32Z</time>
      </trkpt>
      <trkpt lat="48.72464" lon="2.54366">
        <ele>106.68</ele>
        <time>2018-12-03T09:11:34Z</time>
      </trkpt>
      <trkpt lat="48.72469" lon="2.54363">
        <ele>106.679</ele>
        <time>2018-12-03T09:11:37Z</time>
      </trkpt>
      <trkpt lat="48.72474" lon="2.54358">
        <ele>106.681</ele>
        <time>2018-12-03T09:11:41Z</time>
      </trkpt>
      <trkpt lat="48.72477" lon="2.54355">
        <ele>106.685</ele>
        <time>2018-12-03T09:11:44Z</time>
      </trkpt>
      <trkpt lat="48.72481" lon="2.54349">
        <ele>106.693</ele>
        <time>2018-12-03T09:11:49Z</time>
      </trkpt>
      <trkpt lat="48.72482" lon="2.54341">
        <ele>106.701</ele>
        <time>2018-12-03T09:11:54Z</time>
      </trkpt>
      <trkpt lat="48.72482" lon="2.54337">
        <ele>106.704</ele>
        <time>2018-12-03T09:11:57Z</time>
      </trkpt>
      <trkpt lat="48.72484" lon="2.54331">
        <ele>106.708</ele>
        <time>2018-12-03T09:12:02Z</time>
      </trkpt>
      <trkpt lat="48.72485" lon="2.54327">
        <ele>106.709</ele>
        <time>2018-12-03T09:12:05Z</time>
      </trkpt>
      <trkpt lat="48.72487" lon="2.54322">
        <ele>106.711</ele>
        <time>2018-12-03T09:12:12Z</time>
      </trkpt>
      <trkpt lat="48.72492" lon="2.54322">
        <ele>106.714</ele>
        <time>2018-12-03T09:12:17Z</time>
      </trkpt>
      <trkpt lat="48.72495" lon="2.54326">
        <ele>106.714</ele>
        <time>2018-12-03T09:12:23Z</time>
      </trkpt>
      <trkpt lat="48.725" lon="2.54332">
        <ele>106.713</ele>
        <time>2018-12-03T09:12:28Z</time>
      </trkpt>
      <trkpt lat="48.72505" lon="2.54334">
        <ele>106.713</ele>
        <time>2018-12-03T09:12:33Z</time>
      </trkpt>
      <trkpt lat="48.72508" lon="2.54336">
        <ele>106.714</ele>
        <time>2018-12-03T09:12:35Z</time>
      </trkpt>
      <trkpt lat="48.72512" lon="2.5434">
        <ele>106.714</ele>
        <time>2018-12-03T09:12:40Z</time>
      </trkpt>
      <trkpt lat="48.72553" lon="2.54389">
        <ele>106.714</ele>
        <time>2018-12-03T09:13:19Z</time>
      </trkpt>
      <trkpt lat="48.72557" lon="2.54386">
        <ele>106.7</ele>
        <time>2018-12-03T09:13:24Z</time>
      </trkpt>
      <trkpt lat="48.72562" lon="2.54388">
        <ele>106.644</ele>
        <time>2018-12-03T09:13:30Z</time>
      </trkpt>
      <trkpt lat="48.72562" lon="2.54388">
        <ele>58.6</ele>
        <time>2018-12-03T09:13:37Z</time>
      </trkpt>
      <trkpt lat="48.72562" lon="2.54388">
        <ele>58.6</ele>
        <time>2018-12-03T09:13:42Z</time>
      </trkpt>
      <trkpt lat="48.7257" lon="2.54397">
        <ele>106.691</ele>
        <time>2018-12-03T09:13:42Z</time>
      </trkpt>
      <trkpt lat="48.72572" lon="2.544">
        <ele>106.769</ele>
        <time>2018-12-03T09:13:46Z</time>
      </trkpt>
      <trkpt lat="48.72576" lon="2.544">
        <ele>106.86</ele>
        <time>2018-12-03T09:13:52Z</time>
      </trkpt>
      <trkpt lat="48.72579" lon="2.544">
        <ele>106.866</ele>
        <time>2018-12-03T09:13:59Z</time>
      </trkpt>
      <trkpt lat="48.72584" lon="2.54403">
        <ele>106.776</ele>
        <time>2018-12-03T09:14:07Z</time>
      </trkpt>
      <trkpt lat="48.72589" lon="2.54405">
        <ele>106.688</ele>
        <time>2018-12-03T09:14:11Z</time>
      </trkpt>
      <trkpt lat="48.72594" lon="2.54409">
        <ele>106.58</ele>
        <time>2018-12-03T09:14:15Z</time>
      </trkpt>
      <trkpt lat="48.72598" lon="2.54411">
        <ele>106.461</ele>
        <time>2018-12-03T09:14:19Z</time>
      </trkpt>
      <trkpt lat="48.72603" lon="2.54417">
        <ele>106.351</ele>
        <time>2018-12-03T09:14:23Z</time>
      </trkpt>
      <trkpt lat="48.72605" lon="2.54419">
        <ele>106.301</ele>
        <time>2018-12-03T09:14:25Z</time>
      </trkpt>
      <trkpt lat="48.72609" lon="2.54423">
        <ele>106.211</ele>
        <time>2018-12-03T09:14:29Z</time>
      </trkpt>
      <trkpt lat="48.72612" lon="2.54427">
        <ele>106.152</ele>
        <time>2018-12-03T09:14:32Z</time>
      </trkpt>
      <trkpt lat="48.72615" lon="2.54431">
        <ele>106.121</ele>
        <time>2018-12-03T09:14:34Z</time>
      </trkpt>
      <trkpt lat="48.7262" lon="2.54434">
        <ele>106.092</ele>
        <time>2018-12-03T09:14:37Z</time>
      </trkpt>
      <trkpt lat="48.72625" lon="2.54435">
        <ele>106.072</ele>
        <time>2018-12-03T09:14:41Z</time>
      </trkpt>
      <trkpt lat="48.72629" lon="2.54437">
        <ele>106.069</ele>
        <time>2018-12-03T09:14:44Z</time>
      </trkpt>
      <trkpt lat="48.72633" lon="2.54441">
        <ele>106.077</ele>
        <time>2018-12-03T09:14:47Z</time>
      </trkpt>
      <trkpt lat="48.72635" lon="2.54444">
        <ele>106.084</ele>
        <time>2018-12-03T09:14:49Z</time>
      </trkpt>
      <trkpt lat="48.72637" lon="2.54451">
        <ele>106.097</ele>
        <time>2018-12-03T09:14:53Z</time>
      </trkpt>
      <trkpt lat="48.72639" lon="2.54457">
        <ele>106.116</ele>
        <time>2018-12-03T09:14:57Z</time>
      </trkpt>
      <trkpt lat="48.72642" lon="2.54463">
        <ele>106.161</ele>
        <time>2018-12-03T09:15:02Z</time>
      </trkpt>
      <trkpt lat="48.72645" lon="2.5447">
        <ele>106.214</ele>
        <time>2018-12-03T09:15:06Z</time>
      </trkpt>
      <trkpt lat="48.72647" lon="2.54474">
        <ele>106.263</ele>
        <time>2018-12-03T09:15:09Z</time>
      </trkpt>
      <trkpt lat="48.72649" lon="2.54478">
        <ele>106.302</ele>
        <time>2018-12-03T09:15:11Z</time>
      </trkpt>
      <trkpt lat="48.72651" lon="2.54483">
        <ele>106.348</ele>
        <time>2018-12-03T09:15:13Z</time>
      </trkpt>
      <trkpt lat="48.72655" lon="2.54488">
        <ele>106.428</ele>
        <time>2018-12-03T09:15:16Z</time>
      </trkpt>
      <trkpt lat="48.72657" lon="2.54491">
        <ele>106.482</ele>
        <time>2018-12-03T09:15:18Z</time>
      </trkpt>
      <trkpt lat="48.72659" lon="2.54498">
        <ele>106.586</ele>
        <time>2018-12-03T09:15:22Z</time>
      </trkpt>
      <trkpt lat="48.72661" lon="2.54506">
        <ele>106.687</ele>
        <time>2018-12-03T09:15:26Z</time>
      </trkpt>
      <trkpt lat="48.72664" lon="2.54512">
        <ele>106.796</ele>
        <time>2018-12-03T09:15:30Z</time>
      </trkpt>
      <trkpt lat="48.72667" lon="2.54518">
        <ele>106.923</ele>
        <time>2018-12-03T09:15:34Z</time>
      </trkpt>
      <trkpt lat="48.72669" lon="2.54521">
        <ele>107.035</ele>
        <time>2018-12-03T09:15:37Z</time>
      </trkpt>
      <trkpt lat="48.72671" lon="2.54524">
        <ele>107.12</ele>
        <time>2018-12-03T09:15:39Z</time>
      </trkpt>
      <trkpt lat="48.72672" lon="2.54527">
        <ele>107.209</ele>
        <time>2018-12-03T09:15:41Z</time>
      </trkpt>
      <trkpt lat="48.72674" lon="2.54534">
        <ele>107.391</ele>
        <time>2018-12-03T09:15:45Z</time>
      </trkpt>
      <trkpt lat="48.72678" lon="2.54538">
        <ele>107.626</ele>
        <time>2018-12-03T09:15:50Z</time>
      </trkpt>
      <trkpt lat="48.72684" lon="2.54541">
        <ele>107.825</ele>
        <time>2018-12-03T09:15:54Z</time>
      </trkpt>
      <trkpt lat="48.72688" lon="2.54544">
        <ele>108.025</ele>
        <time>2018-12-03T09:15:58Z</time>
      </trkpt>
      <trkpt lat="48.72693" lon="2.54546">
        <ele>108.332</ele>
        <time>2018-12-03T09:16:04Z</time>
      </trkpt>
      <trkpt lat="48.72698" lon="2.5455">
        <ele>108.576</ele>
        <time>2018-12-03T09:16:09Z</time>
      </trkpt>
      <trkpt lat="48.72703" lon="2.5455">
        <ele>108.753</ele>
        <time>2018-12-03T09:16:13Z</time>
      </trkpt>
      <trkpt lat="48.72707" lon="2.5455">
        <ele>108.837</ele>
        <time>2018-12-03T09:16:15Z</time>
      </trkpt>
      <trkpt lat="48.72709" lon="2.54551">
        <ele>108.916</ele>
        <time>2018-12-03T09:16:17Z</time>
      </trkpt>
      <trkpt lat="48.72715" lon="2.54549">
        <ele>109.065</ele>
        <time>2018-12-03T09:16:21Z</time>
      </trkpt>
      <trkpt lat="48.72719" lon="2.54548">
        <ele>109.173</ele>
        <time>2018-12-03T09:16:24Z</time>
      </trkpt>
      <trkpt lat="48.72723" lon="2.54546">
        <ele>109.307</ele>
        <time>2018-12-03T09:16:28Z</time>
      </trkpt>
      <trkpt lat="48.72728" lon="2.54545">
        <ele>109.395</ele>
        <time>2018-12-03T09:16:31Z</time>
      </trkpt>
      <trkpt lat="48.72733" lon="2.54544">
        <ele>109.484</ele>
        <time>2018-12-03T09:16:34Z</time>
      </trkpt>
      <trkpt lat="48.72736" lon="2.54544">
        <ele>109.542</ele>
        <time>2018-12-03T09:16:36Z</time>
      </trkpt>
      <trkpt lat="48.72739" lon="2.54544">
        <ele>109.6</ele>
        <time>2018-12-03T09:16:38Z</time>
      </trkpt>
      <trkpt lat="48.72741" lon="2.54544">
        <ele>109.656</ele>
        <time>2018-12-03T09:16:40Z</time>
      </trkpt>
      <trkpt lat="48.72744" lon="2.54544">
        <ele>109.71</ele>
        <time>2018-12-03T09:16:42Z</time>
      </trkpt>
      <trkpt lat="48.72746" lon="2.54544">
        <ele>109.784</ele>
        <time>2018-12-03T09:16:45Z</time>
      </trkpt>
      <trkpt lat="48.72752" lon="2.54546">
        <ele>109.912</ele>
        <time>2018-12-03T09:16:51Z</time>
      </trkpt>
      <trkpt lat="48.72752" lon="2.54546">
        <ele>109.912</ele>
        <time>2018-12-03T09:17:05Z</time>
      </trkpt>
      <trkpt lat="48.72752" lon="2.54546">
        <ele>60.3</ele>
        <time>2018-12-03T09:17:05Z</time>
      </trkpt>
      <trkpt lat="48.72752" lon="2.54546">
        <ele>60.3</ele>
        <time>2018-12-03T09:17:07Z</time>
      </trkpt>
      <trkpt lat="48.72762" lon="2.54544">
        <ele>110.638</ele>
        <time>2018-12-03T09:17:07Z</time>
      </trkpt>
      <trkpt lat="48.72766" lon="2.54543">
        <ele>110.653</ele>
        <time>2018-12-03T09:17:09Z</time>
      </trkpt>
      <trkpt lat="48.72769" lon="2.54538">
        <ele>110.661</ele>
        <time>2018-12-03T09:17:10Z</time>
      </trkpt>
      <trkpt lat="48.72774" lon="2.54538">
        <ele>110.68</ele>
        <time>2018-12-03T09:17:12Z</time>
      </trkpt>
      <trkpt lat="48.7278" lon="2.54536">
        <ele>110.709</ele>
        <time>2018-12-03T09:17:15Z</time>
      </trkpt>
      <trkpt lat="48.72785" lon="2.54537">
        <ele>110.733</ele>
        <time>2018-12-03T09:17:18Z</time>
      </trkpt>
      <trkpt lat="48.72785" lon="2.54537">
        <ele>110.733</ele>
        <time>2018-12-03T09:17:23Z</time>
      </trkpt>
      <trkpt lat="48.72785" lon="2.54537">
        <ele>59.2</ele>
        <time>2018-12-03T09:17:23Z</time>
      </trkpt>
      <trkpt lat="48.72785" lon="2.54537">
        <ele>59.2</ele>
        <time>2018-12-03T09:18:06Z</time>
      </trkpt>
      <trkpt lat="48.72799" lon="2.54548">
        <ele>110.959</ele>
        <time>2018-12-03T09:18:06Z</time>
      </trkpt>
      <trkpt lat="48.72802" lon="2.54552">
        <ele>110.979</ele>
        <time>2018-12-03T09:18:10Z</time>
      </trkpt>
      <trkpt lat="48.72807" lon="2.54556">
        <ele>110.988</ele>
        <time>2018-12-03T09:18:13Z</time>
      </trkpt>
      <trkpt lat="48.72812" lon="2.5456">
        <ele>110.995</ele>
        <time>2018-12-03T09:18:17Z</time>
      </trkpt>
      <trkpt lat="48.72817" lon="2.54562">
        <ele>110.995</ele>
        <time>2018-12-03T09:18:22Z</time>
      </trkpt>
      <trkpt lat="48.7282" lon="2.54563">
        <ele>110.993</ele>
        <time>2018-12-03T09:18:24Z</time>
      </trkpt>
      <trkpt lat="48.72825" lon="2.54565">
        <ele>110.986</ele>
        <time>2018-12-03T09:18:28Z</time>
      </trkpt>
      <trkpt lat="48.7283" lon="2.54565">
        <ele>110.98</ele>
        <time>2018-12-03T09:18:32Z</time>
      </trkpt>
      <trkpt lat="48.72835" lon="2.54568">
        <ele>110.974</ele>
        <time>2018-12-03T09:18:36Z</time>
      </trkpt>
      <trkpt lat="48.72839" lon="2.54572">
        <ele>110.983</ele>
        <time>2018-12-03T09:18:40Z</time>
      </trkpt>
      <trkpt lat="48.72844" lon="2.5457">
        <ele>110.992</ele>
        <time>2018-12-03T09:18:46Z</time>
      </trkpt>
      <trkpt lat="48.72848" lon="2.54568">
        <ele>110.989</ele>
        <time>2018-12-03T09:18:50Z</time>
      </trkpt>
      <trkpt lat="48.72853" lon="2.54568">
        <ele>110.996</ele>
        <time>2018-12-03T09:18:55Z</time>
      </trkpt>
      <trkpt lat="48.72857" lon="2.54569">
        <ele>111.007</ele>
        <time>2018-12-03T09:18:59Z</time>
      </trkpt>
      <trkpt lat="48.7286" lon="2.54569">
        <ele>111.01</ele>
        <time>2018-12-03T09:19:00Z</time>
      </trkpt>
      <trkpt lat="48.72863" lon="2.54569">
        <ele>111.019</ele>
        <time>2018-12-03T09:19:02Z</time>
      </trkpt>
      <trkpt lat="48.72866" lon="2.5457">
        <ele>111.028</ele>
        <time>2018-12-03T09:19:04Z</time>
      </trkpt>
      <trkpt lat="48.72869" lon="2.5457">
        <ele>111.038</ele>
        <time>2018-12-03T09:19:06Z</time>
      </trkpt>
      <trkpt lat="48.72873" lon="2.54572">
        <ele>111.061</ele>
        <time>2018-12-03T09:19:11Z</time>
      </trkpt>
      <trkpt lat="48.72878" lon="2.54574">
        <ele>111.074</ele>
        <time>2018-12-03T09:19:16Z</time>
      </trkpt>
      <trkpt lat="48.72882" lon="2.54577">
        <ele>111.08</ele>
        <time>2018-12-03T09:19:19Z</time>
      </trkpt>
      <trkpt lat="48.72887" lon="2.54582">
        <ele>111.088</ele>
        <time>2018-12-03T09:19:23Z</time>
      </trkpt>
      <trkpt lat="48.72889" lon="2.54584">
        <ele>111.092</ele>
        <time>2018-12-03T09:19:25Z</time>
      </trkpt>
      <trkpt lat="48.72891" lon="2.54586">
        <ele>111.097</ele>
        <time>2018-12-03T09:19:27Z</time>
      </trkpt>
      <trkpt lat="48.72894" lon="2.5459">
        <ele>111.104</ele>
        <time>2018-12-03T09:19:30Z</time>
      </trkpt>
      <trkpt lat="48.72897" lon="2.54595">
        <ele>111.114</ele>
        <time>2018-12-03T09:19:35Z</time>
      </trkpt>
      <trkpt lat="48.72902" lon="2.54599">
        <ele>111.122</ele>
        <time>2018-12-03T09:19:40Z</time>
      </trkpt>
      <trkpt lat="48.72905" lon="2.54605">
        <ele>111.127</ele>
        <time>2018-12-03T09:19:44Z</time>
      </trkpt>
      <trkpt lat="48.72907" lon="2.54611">
        <ele>111.131</ele>
        <time>2018-12-03T09:19:48Z</time>
      </trkpt>
      <trkpt lat="48.72911" lon="2.54617">
        <ele>111.136</ele>
        <time>2018-12-03T09:19:53Z</time>
      </trkpt>
      <trkpt lat="48.72914" lon="2.54623">
        <ele>111.143</ele>
        <time>2018-12-03T09:19:57Z</time>
      </trkpt>
      <trkpt lat="48.72915" lon="2.54626">
        <ele>111.147</ele>
        <time>2018-12-03T09:19:59Z</time>
      </trkpt>
      <trkpt lat="48.72919" lon="2.54631">
        <ele>111.166</ele>
        <time>2018-12-03T09:20:06Z</time>
      </trkpt>
      <trkpt lat="48.72919" lon="2.54631">
        <ele>59.4</ele>
        <time>2018-12-03T09:20:14Z</time>
      </trkpt>
      <trkpt lat="48.72919" lon="2.54631">
        <ele>59.4</ele>
        <time>2018-12-03T09:20:20Z</time>
      </trkpt>
      <trkpt lat="48.72926" lon="2.54636">
        <ele>111.192</ele>
        <time>2018-12-03T09:20:20Z</time>
      </trkpt>
      <trkpt lat="48.72929" lon="2.54642">
        <ele>111.2</ele>
        <time>2018-12-03T09:20:24Z</time>
      </trkpt>
      <trkpt lat="48.72934" lon="2.54646">
        <ele>111.209</ele>
        <time>2018-12-03T09:20:31Z</time>
      </trkpt>
      <trkpt lat="48.7294" lon="2.54644">
        <ele>111.214</ele>
        <time>2018-12-03T09:20:36Z</time>
      </trkpt>
      <trkpt lat="48.72945" lon="2.54641">
        <ele>111.222</ele>
        <time>2018-12-03T09:20:41Z</time>
      </trkpt>
      <trkpt lat="48.7295" lon="2.5464">
        <ele>111.23</ele>
        <time>2018-12-03T09:20:45Z</time>
      </trkpt>
      <trkpt lat="48.72953" lon="2.54638">
        <ele>111.237</ele>
        <time>2018-12-03T09:20:48Z</time>
      </trkpt>
      <trkpt lat="48.72956" lon="2.54637">
        <ele>111.244</ele>
        <time>2018-12-03T09:20:51Z</time>
      </trkpt>
      <trkpt lat="48.72961" lon="2.54633">
        <ele>111.255</ele>
        <time>2018-12-03T09:20:56Z</time>
      </trkpt>
      <trkpt lat="48.72963" lon="2.54632">
        <ele>111.26</ele>
        <time>2018-12-03T09:20:58Z</time>
      </trkpt>
      <trkpt lat="48.72965" lon="2.5463">
        <ele>111.267</ele>
        <time>2018-12-03T09:21:01Z</time>
      </trkpt>
      <trkpt lat="48.72968" lon="2.54629">
        <ele>111.275</ele>
        <time>2018-12-03T09:21:04Z</time>
      </trkpt>
      <trkpt lat="48.72971" lon="2.54627">
        <ele>111.283</ele>
        <time>2018-12-03T09:21:07Z</time>
      </trkpt>
      <trkpt lat="48.72974" lon="2.54626">
        <ele>111.291</ele>
        <time>2018-12-03T09:21:10Z</time>
      </trkpt>
      <trkpt lat="48.72979" lon="2.54625">
        <ele>111.3</ele>
        <time>2018-12-03T09:21:13Z</time>
      </trkpt>
      <trkpt lat="48.72984" lon="2.54622">
        <ele>111.313</ele>
        <time>2018-12-03T09:21:17Z</time>
      </trkpt>
      <trkpt lat="48.72986" lon="2.54621">
        <ele>111.32</ele>
        <time>2018-12-03T09:21:19Z</time>
      </trkpt>
      <trkpt lat="48.72989" lon="2.5462">
        <ele>111.328</ele>
        <time>2018-12-03T09:21:21Z</time>
      </trkpt>
      <trkpt lat="48.72993" lon="2.54616">
        <ele>111.347</ele>
        <time>2018-12-03T09:21:26Z</time>
      </trkpt>
      <trkpt lat="48.72998" lon="2.54614">
        <ele>111.363</ele>
        <time>2018-12-03T09:21:30Z</time>
      </trkpt>
      <trkpt lat="48.73001" lon="2.54612">
        <ele>111.371</ele>
        <time>2018-12-03T09:21:32Z</time>
      </trkpt>
      <trkpt lat="48.73004" lon="2.5461">
        <ele>111.38</ele>
        <time>2018-12-03T09:21:34Z</time>
      </trkpt>
      <trkpt lat="48.73008" lon="2.54609">
        <ele>111.399</ele>
        <time>2018-12-03T09:21:38Z</time>
      </trkpt>
      <trkpt lat="48.73013" lon="2.54608">
        <ele>111.421</ele>
        <time>2018-12-03T09:21:42Z</time>
      </trkpt>
      <trkpt lat="48.73016" lon="2.54608">
        <ele>111.433</ele>
        <time>2018-12-03T09:21:44Z</time>
      </trkpt>
      <trkpt lat="48.73022" lon="2.54606">
        <ele>111.462</ele>
        <time>2018-12-03T09:21:48Z</time>
      </trkpt>
      <trkpt lat="48.73025" lon="2.54605">
        <ele>111.486</ele>
        <time>2018-12-03T09:21:51Z</time>
      </trkpt>
      <trkpt lat="48.73028" lon="2.54604">
        <ele>111.503</ele>
        <time>2018-12-03T09:21:53Z</time>
      </trkpt>
      <trkpt lat="48.73033" lon="2.54601">
        <ele>111.549</ele>
        <time>2018-12-03T09:21:58Z</time>
      </trkpt>
      <trkpt lat="48.73033" lon="2.54601">
        <ele>69.9</ele>
        <time>2018-12-03T09:22:03Z</time>
      </trkpt>
      <trkpt lat="48.73033" lon="2.54601">
        <ele>69.9</ele>
        <time>2018-12-03T09:22:09Z</time>
      </trkpt>
      <trkpt lat="48.7304" lon="2.54591">
        <ele>111.659</ele>
        <time>2018-12-03T09:22:09Z</time>
      </trkpt>
      <trkpt lat="48.73043" lon="2.54588">
        <ele>111.692</ele>
        <time>2018-12-03T09:22:12Z</time>
      </trkpt>
      <trkpt lat="48.73045" lon="2.54584">
        <ele>111.727</ele>
        <time>2018-12-03T09:22:15Z</time>
      </trkpt>
      <trkpt lat="48.73048" lon="2.54578">
        <ele>111.773</ele>
        <time>2018-12-03T09:22:19Z</time>
      </trkpt>
      <trkpt lat="48.73049" lon="2.54574">
        <ele>111.807</ele>
        <time>2018-12-03T09:22:22Z</time>
      </trkpt>
      <trkpt lat="48.73051" lon="2.54567">
        <ele>111.866</ele>
        <time>2018-12-03T09:22:27Z</time>
      </trkpt>
      <trkpt lat="48.73055" lon="2.54562">
        <ele>111.93</ele>
        <time>2018-12-03T09:22:32Z</time>
      </trkpt>
      <trkpt lat="48.73061" lon="2.54562">
        <ele>111.987</ele>
        <time>2018-12-03T09:22:36Z</time>
      </trkpt>
      <trkpt lat="48.73065" lon="2.54562">
        <ele>112.017</ele>
        <time>2018-12-03T09:22:38Z</time>
      </trkpt>
      <trkpt lat="48.73068" lon="2.54561">
        <ele>112.048</ele>
        <time>2018-12-03T09:22:40Z</time>
      </trkpt>
      <trkpt lat="48.73073" lon="2.54562">
        <ele>112.124</ele>
        <time>2018-12-03T09:22:45Z</time>
      </trkpt>
      <trkpt lat="48.73076" lon="2.54562">
        <ele>112.155</ele>
        <time>2018-12-03T09:22:47Z</time>
      </trkpt>
      <trkpt lat="48.73081" lon="2.54564">
        <ele>112.217</ele>
        <time>2018-12-03T09:22:51Z</time>
      </trkpt>
      <trkpt lat="48.73085" lon="2.54565">
        <ele>112.264</ele>
        <time>2018-12-03T09:22:54Z</time>
      </trkpt>
      <trkpt lat="48.73087" lon="2.54566">
        <ele>112.322</ele>
        <time>2018-12-03T09:22:58Z</time>
      </trkpt>
      <trkpt lat="48.73088" lon="2.54574">
        <ele>112.405</ele>
        <time>2018-12-03T09:23:04Z</time>
      </trkpt>
      <trkpt lat="48.73091" lon="2.54581">
        <ele>112.456</ele>
        <time>2018-12-03T09:23:08Z</time>
      </trkpt>
      <trkpt lat="48.73095" lon="2.54585">
        <ele>112.534</ele>
        <time>2018-12-03T09:23:14Z</time>
      </trkpt>
      <trkpt lat="48.73099" lon="2.54575">
        <ele>112.629</ele>
        <time>2018-12-03T09:23:21Z</time>
      </trkpt>
      <trkpt lat="48.73101" lon="2.54571">
        <ele>112.655</ele>
        <time>2018-12-03T09:23:23Z</time>
      </trkpt>
      <trkpt lat="48.73105" lon="2.54569">
        <ele>112.697</ele>
        <time>2018-12-03T09:23:26Z</time>
      </trkpt>
      <trkpt lat="48.73111" lon="2.5457">
        <ele>112.754</ele>
        <time>2018-12-03T09:23:30Z</time>
      </trkpt>
      <trkpt lat="48.73116" lon="2.54573">
        <ele>112.811</ele>
        <time>2018-12-03T09:23:34Z</time>
      </trkpt>
      <trkpt lat="48.7312" lon="2.54577">
        <ele>112.879</ele>
        <time>2018-12-03T09:23:39Z</time>
      </trkpt>
      <trkpt lat="48.73125" lon="2.54578">
        <ele>112.959</ele>
        <time>2018-12-03T09:23:45Z</time>
      </trkpt>
      <trkpt lat="48.7313" lon="2.54578">
        <ele>113.011</ele>
        <time>2018-12-03T09:23:49Z</time>
      </trkpt>
      <trkpt lat="48.73135" lon="2.54579">
        <ele>113.062</ele>
        <time>2018-12-03T09:23:53Z</time>
      </trkpt>
      <trkpt lat="48.73138" lon="2.54579">
        <ele>113.1</ele>
        <time>2018-12-03T09:23:56Z</time>
      </trkpt>
      <trkpt lat="48.73144" lon="2.54577">
        <ele>113.153</ele>
        <time>2018-12-03T09:24:00Z</time>
      </trkpt>
      <trkpt lat="48.73147" lon="2.54576">
        <ele>113.195</ele>
        <time>2018-12-03T09:24:03Z</time>
      </trkpt>
      <trkpt lat="48.73151" lon="2.54576">
        <ele>113.267</ele>
        <time>2018-12-03T09:24:08Z</time>
      </trkpt>
      <trkpt lat="48.73157" lon="2.54574">
        <ele>113.342</ele>
        <time>2018-12-03T09:24:13Z</time>
      </trkpt>
      <trkpt lat="48.73161" lon="2.5457">
        <ele>113.405</ele>
        <time>2018-12-03T09:24:17Z</time>
      </trkpt>
      <trkpt lat="48.73161" lon="2.5457">
        <ele>78.6</ele>
        <time>2018-12-03T09:24:25Z</time>
      </trkpt>
      <trkpt lat="48.73161" lon="2.5457">
        <ele>78.6</ele>
        <time>2018-12-03T09:24:51Z</time>
      </trkpt>
      <trkpt lat="48.73179" lon="2.54567">
        <ele>113.794</ele>
        <time>2018-12-03T09:24:51Z</time>
      </trkpt>
      <trkpt lat="48.73182" lon="2.54567">
        <ele>113.863</ele>
        <time>2018-12-03T09:24:54Z</time>
      </trkpt>
      <trkpt lat="48.73187" lon="2.54565">
        <ele>113.957</ele>
        <time>2018-12-03T09:24:58Z</time>
      </trkpt>
      <trkpt lat="48.73191" lon="2.54562">
        <ele>114.052</ele>
        <time>2018-12-03T09:25:02Z</time>
      </trkpt>
      <trkpt lat="48.73196" lon="2.54558">
        <ele>114.124</ele>
        <time>2018-12-03T09:25:05Z</time>
      </trkpt>
      <trkpt lat="48.73198" lon="2.54557">
        <ele>114.173</ele>
        <time>2018-12-03T09:25:07Z</time>
      </trkpt>
      <trkpt lat="48.73198" lon="2.54557">
        <ele>81.3</ele>
        <time>2018-12-03T09:25:15Z</time>
      </trkpt>
      <trkpt lat="48.73198" lon="2.54557">
        <ele>81.3</ele>
        <time>2018-12-03T09:25:23Z</time>
      </trkpt>
      <trkpt lat="48.73205" lon="2.54556">
        <ele>114.585</ele>
        <time>2018-12-03T09:25:23Z</time>
      </trkpt>
      <trkpt lat="48.73209" lon="2.54561">
        <ele>114.692</ele>
        <time>2018-12-03T09:25:27Z</time>
      </trkpt>
      <trkpt lat="48.73211" lon="2.54565">
        <ele>114.744</ele>
        <time>2018-12-03T09:25:29Z</time>
      </trkpt>
      <trkpt lat="48.73216" lon="2.54569">
        <ele>114.846</ele>
        <time>2018-12-03T09:25:33Z</time>
      </trkpt>
      <trkpt lat="48.73221" lon="2.54569">
        <ele>114.945</ele>
        <time>2018-12-03T09:25:37Z</time>
      </trkpt>
      <trkpt lat="48.73224" lon="2.54569">
        <ele>114.992</ele>
        <time>2018-12-03T09:25:39Z</time>
      </trkpt>
      <trkpt lat="48.73227" lon="2.54569">
        <ele>115.062</ele>
        <time>2018-12-03T09:25:42Z</time>
      </trkpt>
      <trkpt lat="48.73231" lon="2.54572">
        <ele>115.199</ele>
        <time>2018-12-03T09:25:48Z</time>
      </trkpt>
      <trkpt lat="48.73235" lon="2.54573">
        <ele>115.313</ele>
        <time>2018-12-03T09:25:53Z</time>
      </trkpt>
      <trkpt lat="48.73238" lon="2.54573">
        <ele>115.358</ele>
        <time>2018-12-03T09:25:55Z</time>
      </trkpt>
      <trkpt lat="48.73242" lon="2.54577">
        <ele>115.467</ele>
        <time>2018-12-03T09:26:00Z</time>
      </trkpt>
      <trkpt lat="48.73246" lon="2.54581">
        <ele>115.532</ele>
        <time>2018-12-03T09:26:03Z</time>
      </trkpt>
      <trkpt lat="48.73251" lon="2.54583">
        <ele>115.637</ele>
        <time>2018-12-03T09:26:08Z</time>
      </trkpt>
      <trkpt lat="48.73255" lon="2.54586">
        <ele>115.719</ele>
        <time>2018-12-03T09:26:12Z</time>
      </trkpt>
      <trkpt lat="48.73258" lon="2.54589">
        <ele>115.803</ele>
        <time>2018-12-03T09:26:16Z</time>
      </trkpt>
      <trkpt lat="48.73264" lon="2.54592">
        <ele>115.892</ele>
        <time>2018-12-03T09:26:20Z</time>
      </trkpt>
      <trkpt lat="48.73267" lon="2.54593">
        <ele>115.936</ele>
        <time>2018-12-03T09:26:22Z</time>
      </trkpt>
      <trkpt lat="48.7327" lon="2.54595">
        <ele>116.003</ele>
        <time>2018-12-03T09:26:25Z</time>
      </trkpt>
      <trkpt lat="48.73273" lon="2.54596">
        <ele>116.068</ele>
        <time>2018-12-03T09:26:28Z</time>
      </trkpt>
      <trkpt lat="48.73275" lon="2.54598">
        <ele>116.133</ele>
        <time>2018-12-03T09:26:31Z</time>
      </trkpt>
      <trkpt lat="48.73279" lon="2.54602">
        <ele>116.216</ele>
        <time>2018-12-03T09:26:35Z</time>
      </trkpt>
      <trkpt lat="48.73283" lon="2.54606">
        <ele>116.298</ele>
        <time>2018-12-03T09:26:39Z</time>
      </trkpt>
      <trkpt lat="48.73287" lon="2.5461">
        <ele>116.382</ele>
        <time>2018-12-03T09:26:43Z</time>
      </trkpt>
      <trkpt lat="48.73292" lon="2.54614">
        <ele>116.487</ele>
        <time>2018-12-03T09:26:48Z</time>
      </trkpt>
      <trkpt lat="48.73294" lon="2.54616">
        <ele>116.528</ele>
        <time>2018-12-03T09:26:50Z</time>
      </trkpt>
      <trkpt lat="48.73298" lon="2.54618">
        <ele>116.61</ele>
        <time>2018-12-03T09:26:54Z</time>
      </trkpt>
      <trkpt lat="48.73303" lon="2.5462">
        <ele>116.696</ele>
        <time>2018-12-03T09:26:58Z</time>
      </trkpt>
      <trkpt lat="48.73308" lon="2.54625">
        <ele>116.822</ele>
        <time>2018-12-03T09:27:04Z</time>
      </trkpt>
      <trkpt lat="48.73311" lon="2.54628">
        <ele>116.865</ele>
        <time>2018-12-03T09:27:06Z</time>
      </trkpt>
      <trkpt lat="48.73316" lon="2.54631">
        <ele>116.971</ele>
        <time>2018-12-03T09:27:11Z</time>
      </trkpt>
      <trkpt lat="48.73319" lon="2.54632">
        <ele>117.035</ele>
        <time>2018-12-03T09:27:14Z</time>
      </trkpt>
      <trkpt lat="48.73323" lon="2.54635">
        <ele>117.137</ele>
        <time>2018-12-03T09:27:19Z</time>
      </trkpt>
      <trkpt lat="48.73328" lon="2.54637">
        <ele>117.216</ele>
        <time>2018-12-03T09:27:23Z</time>
      </trkpt>
      <trkpt lat="48.73333" lon="2.54639">
        <ele>117.313</ele>
        <time>2018-12-03T09:27:28Z</time>
      </trkpt>
      <trkpt lat="48.73338" lon="2.54643">
        <ele>117.369</ele>
        <time>2018-12-03T09:27:31Z</time>
      </trkpt>
      <trkpt lat="48.73342" lon="2.54646">
        <ele>117.406</ele>
        <time>2018-12-03T09:27:33Z</time>
      </trkpt>
      <trkpt lat="48.73345" lon="2.54648">
        <ele>117.443</ele>
        <time>2018-12-03T09:27:35Z</time>
      </trkpt>
      <trkpt lat="48.7335" lon="2.54651">
        <ele>117.519</ele>
        <time>2018-12-03T09:27:39Z</time>
      </trkpt>
      <trkpt lat="48.73352" lon="2.54653">
        <ele>117.558</ele>
        <time>2018-12-03T09:27:41Z</time>
      </trkpt>
      <trkpt lat="48.73355" lon="2.54655">
        <ele>117.598</ele>
        <time>2018-12-03T09:27:43Z</time>
      </trkpt>
      <trkpt lat="48.73358" lon="2.54657">
        <ele>117.642</ele>
        <time>2018-12-03T09:27:45Z</time>
      </trkpt>
      <trkpt lat="48.73363" lon="2.54658">
        <ele>117.809</ele>
        <time>2018-12-03T09:27:52Z</time>
      </trkpt>
      <trkpt lat="48.73368" lon="2.54661">
        <ele>117.942</ele>
        <time>2018-12-03T09:27:57Z</time>
      </trkpt>
      <trkpt lat="48.73372" lon="2.54665">
        <ele>118.055</ele>
        <time>2018-12-03T09:28:01Z</time>
      </trkpt>
      <trkpt lat="48.73377" lon="2.54671">
        <ele>118.201</ele>
        <time>2018-12-03T09:28:06Z</time>
      </trkpt>
      <trkpt lat="48.73379" lon="2.54673">
        <ele>118.261</ele>
        <time>2018-12-03T09:28:08Z</time>
      </trkpt>
      <trkpt lat="48.73384" lon="2.54675">
        <ele>118.407</ele>
        <time>2018-12-03T09:28:13Z</time>
      </trkpt>
      <trkpt lat="48.73387" lon="2.54676">
        <ele>118.466</ele>
        <time>2018-12-03T09:28:15Z</time>
      </trkpt>
      <trkpt lat="48.73391" lon="2.54679">
        <ele>118.644</ele>
        <time>2018-12-03T09:28:21Z</time>
      </trkpt>
      <trkpt lat="48.73393" lon="2.54681">
        <ele>118.734</ele>
        <time>2018-12-03T09:28:24Z</time>
      </trkpt>
      <trkpt lat="48.73395" lon="2.54682">
        <ele>118.794</ele>
        <time>2018-12-03T09:28:26Z</time>
      </trkpt>
      <trkpt lat="48.73398" lon="2.54684">
        <ele>118.886</ele>
        <time>2018-12-03T09:28:29Z</time>
      </trkpt>
      <trkpt lat="48.73402" lon="2.54688">
        <ele>119.007</ele>
        <time>2018-12-03T09:28:33Z</time>
      </trkpt>
      <trkpt lat="48.73405" lon="2.54691">
        <ele>119.099</ele>
        <time>2018-12-03T09:28:36Z</time>
      </trkpt>
      <trkpt lat="48.73409" lon="2.54696">
        <ele>119.22</ele>
        <time>2018-12-03T09:28:40Z</time>
      </trkpt>
      <trkpt lat="48.73412" lon="2.54703">
        <ele>119.339</ele>
        <time>2018-12-03T09:28:44Z</time>
      </trkpt>
      <trkpt lat="48.73413" lon="2.54707">
        <ele>119.399</ele>
        <time>2018-12-03T09:28:46Z</time>
      </trkpt>
      <trkpt lat="48.73415" lon="2.5471">
        <ele>119.458</ele>
        <time>2018-12-03T09:28:48Z</time>
      </trkpt>
      <trkpt lat="48.73416" lon="2.54713">
        <ele>119.518</ele>
        <time>2018-12-03T09:28:50Z</time>
      </trkpt>
      <trkpt lat="48.73417" lon="2.54717">
        <ele>119.577</ele>
        <time>2018-12-03T09:28:52Z</time>
      </trkpt>
      <trkpt lat="48.73421" lon="2.54723">
        <ele>119.693</ele>
        <time>2018-12-03T09:28:56Z</time>
      </trkpt>
      <trkpt lat="48.73423" lon="2.54726">
        <ele>119.778</ele>
        <time>2018-12-03T09:28:59Z</time>
      </trkpt>
      <trkpt lat="48.73425" lon="2.54729">
        <ele>119.834</ele>
        <time>2018-12-03T09:29:01Z</time>
      </trkpt>
      <trkpt lat="48.73427" lon="2.54732">
        <ele>119.889</ele>
        <time>2018-12-03T09:29:03Z</time>
      </trkpt>
      <trkpt lat="48.73429" lon="2.54736">
        <ele>119.944</ele>
        <time>2018-12-03T09:29:05Z</time>
      </trkpt>
      <trkpt lat="48.73431" lon="2.54739">
        <ele>120.024</ele>
        <time>2018-12-03T09:29:08Z</time>
      </trkpt>
      <trkpt lat="48.73435" lon="2.54744">
        <ele>120.133</ele>
        <time>2018-12-03T09:29:12Z</time>
      </trkpt>
      <trkpt lat="48.73438" lon="2.54745">
        <ele>120.188</ele>
        <time>2018-12-03T09:29:14Z</time>
      </trkpt>
      <trkpt lat="48.7344" lon="2.54748">
        <ele>120.269</ele>
        <time>2018-12-03T09:29:17Z</time>
      </trkpt>
      <trkpt lat="48.73444" lon="2.54752">
        <ele>120.434</ele>
        <time>2018-12-03T09:29:23Z</time>
      </trkpt>
      <trkpt lat="48.73446" lon="2.54759">
        <ele>120.6</ele>
        <time>2018-12-03T09:29:29Z</time>
      </trkpt>
      <trkpt lat="48.7345" lon="2.54766">
        <ele>120.709</ele>
        <time>2018-12-03T09:29:33Z</time>
      </trkpt>
      <trkpt lat="48.73452" lon="2.5477">
        <ele>120.763</ele>
        <time>2018-12-03T09:29:35Z</time>
      </trkpt>
      <trkpt lat="48.73453" lon="2.54777">
        <ele>120.874</ele>
        <time>2018-12-03T09:29:39Z</time>
      </trkpt>
      <trkpt lat="48.73455" lon="2.54785">
        <ele>120.985</ele>
        <time>2018-12-03T09:29:43Z</time>
      </trkpt>
      <trkpt lat="48.73455" lon="2.5479">
        <ele>121.068</ele>
        <time>2018-12-03T09:29:46Z</time>
      </trkpt>
      <trkpt lat="48.73457" lon="2.54797">
        <ele>121.179</ele>
        <time>2018-12-03T09:29:50Z</time>
      </trkpt>
      <trkpt lat="48.73458" lon="2.54803">
        <ele>121.262</ele>
        <time>2018-12-03T09:29:53Z</time>
      </trkpt>
      <trkpt lat="48.73459" lon="2.54807">
        <ele>121.317</ele>
        <time>2018-12-03T09:29:55Z</time>
      </trkpt>
      <trkpt lat="48.73462" lon="2.54814">
        <ele>121.428</ele>
        <time>2018-12-03T09:29:59Z</time>
      </trkpt>
      <trkpt lat="48.73463" lon="2.54818">
        <ele>121.483</ele>
        <time>2018-12-03T09:30:01Z</time>
      </trkpt>
      <trkpt lat="48.73464" lon="2.54821">
        <ele>121.54</ele>
        <time>2018-12-03T09:30:03Z</time>
      </trkpt>
      <trkpt lat="48.73466" lon="2.54826">
        <ele>121.625</ele>
        <time>2018-12-03T09:30:06Z</time>
      </trkpt>
      <trkpt lat="48.73468" lon="2.5483">
        <ele>121.71</ele>
        <time>2018-12-03T09:30:09Z</time>
      </trkpt>
      <trkpt lat="48.7347" lon="2.54837">
        <ele>121.824</ele>
        <time>2018-12-03T09:30:13Z</time>
      </trkpt>
      <trkpt lat="48.73471" lon="2.54842">
        <ele>121.909</ele>
        <time>2018-12-03T09:30:16Z</time>
      </trkpt>
      <trkpt lat="48.73472" lon="2.54845">
        <ele>121.965</ele>
        <time>2018-12-03T09:30:18Z</time>
      </trkpt>
      <trkpt lat="48.73474" lon="2.54853">
        <ele>122.077</ele>
        <time>2018-12-03T09:30:22Z</time>
      </trkpt>
      <trkpt lat="48.73475" lon="2.54856">
        <ele>122.159</ele>
        <time>2018-12-03T09:30:25Z</time>
      </trkpt>
      <trkpt lat="48.73477" lon="2.54863">
        <ele>122.266</ele>
        <time>2018-12-03T09:30:29Z</time>
      </trkpt>
      <trkpt lat="48.73479" lon="2.54867">
        <ele>122.318</ele>
        <time>2018-12-03T09:30:31Z</time>
      </trkpt>
      <trkpt lat="48.7348" lon="2.54873">
        <ele>122.421</ele>
        <time>2018-12-03T09:30:35Z</time>
      </trkpt>
      <trkpt lat="48.73481" lon="2.54881">
        <ele>122.523</ele>
        <time>2018-12-03T09:30:39Z</time>
      </trkpt>
      <trkpt lat="48.73483" lon="2.54888">
        <ele>122.628</ele>
        <time>2018-12-03T09:30:43Z</time>
      </trkpt>
      <trkpt lat="48.73484" lon="2.54894">
        <ele>122.733</ele>
        <time>2018-12-03T09:30:47Z</time>
      </trkpt>
      <trkpt lat="48.73487" lon="2.549">
        <ele>122.839</ele>
        <time>2018-12-03T09:30:51Z</time>
      </trkpt>
      <trkpt lat="48.73489" lon="2.54903">
        <ele>122.893</ele>
        <time>2018-12-03T09:30:53Z</time>
      </trkpt>
      <trkpt lat="48.73491" lon="2.54909">
        <ele>123.053</ele>
        <time>2018-12-03T09:30:59Z</time>
      </trkpt>
      <trkpt lat="48.73493" lon="2.54915">
        <ele>123.132</ele>
        <time>2018-12-03T09:31:02Z</time>
      </trkpt>
      <trkpt lat="48.73496" lon="2.54922">
        <ele>123.241</ele>
        <time>2018-12-03T09:31:06Z</time>
      </trkpt>
      <trkpt lat="48.73497" lon="2.54929">
        <ele>123.349</ele>
        <time>2018-12-03T09:31:10Z</time>
      </trkpt>
      <trkpt lat="48.735" lon="2.54936">
        <ele>123.48</ele>
        <time>2018-12-03T09:31:15Z</time>
      </trkpt>
      <trkpt lat="48.73501" lon="2.54939">
        <ele>123.531</ele>
        <time>2018-12-03T09:31:17Z</time>
      </trkpt>
      <trkpt lat="48.73503" lon="2.54946">
        <ele>123.658</ele>
        <time>2018-12-03T09:31:22Z</time>
      </trkpt>
      <trkpt lat="48.73504" lon="2.54949">
        <ele>123.709</ele>
        <time>2018-12-03T09:31:24Z</time>
      </trkpt>
      <trkpt lat="48.73508" lon="2.54955">
        <ele>123.788</ele>
        <time>2018-12-03T09:31:27Z</time>
      </trkpt>
      <trkpt lat="48.73511" lon="2.54961">
        <ele>123.896</ele>
        <time>2018-12-03T09:31:31Z</time>
      </trkpt>
      <trkpt lat="48.73513" lon="2.54968">
        <ele>124.005</ele>
        <time>2018-12-03T09:31:35Z</time>
      </trkpt>
      <trkpt lat="48.73514" lon="2.54975">
        <ele>124.143</ele>
        <time>2018-12-03T09:31:40Z</time>
      </trkpt>
      <trkpt lat="48.73515" lon="2.54979">
        <ele>124.197</ele>
        <time>2018-12-03T09:31:42Z</time>
      </trkpt>
      <trkpt lat="48.73516" lon="2.54983">
        <ele>124.251</ele>
        <time>2018-12-03T09:31:44Z</time>
      </trkpt>
      <trkpt lat="48.73516" lon="2.54988">
        <ele>124.305</ele>
        <time>2018-12-03T09:31:46Z</time>
      </trkpt>
      <trkpt lat="48.73517" lon="2.54992">
        <ele>124.359</ele>
        <time>2018-12-03T09:31:48Z</time>
      </trkpt>
      <trkpt lat="48.73518" lon="2.54996">
        <ele>124.412</ele>
        <time>2018-12-03T09:31:50Z</time>
      </trkpt>
      <trkpt lat="48.73521" lon="2.55003">
        <ele>124.519</ele>
        <time>2018-12-03T09:31:54Z</time>
      </trkpt>
      <trkpt lat="48.73522" lon="2.55012">
        <ele>124.679</ele>
        <time>2018-12-03T09:32:00Z</time>
      </trkpt>
      <trkpt lat="48.73524" lon="2.55019">
        <ele>124.76</ele>
        <time>2018-12-03T09:32:03Z</time>
      </trkpt>
      <trkpt lat="48.73525" lon="2.55023">
        <ele>124.813</ele>
        <time>2018-12-03T09:32:05Z</time>
      </trkpt>
      <trkpt lat="48.73527" lon="2.55028">
        <ele>124.894</ele>
        <time>2018-12-03T09:32:08Z</time>
      </trkpt>
      <trkpt lat="48.73528" lon="2.55031">
        <ele>124.947</ele>
        <time>2018-12-03T09:32:10Z</time>
      </trkpt>
      <trkpt lat="48.73529" lon="2.55035">
        <ele>125</ele>
        <time>2018-12-03T09:32:12Z</time>
      </trkpt>
      <trkpt lat="48.73531" lon="2.55042">
        <ele>125.105</ele>
        <time>2018-12-03T09:32:16Z</time>
      </trkpt>
      <trkpt lat="48.73532" lon="2.55047">
        <ele>125.182</ele>
        <time>2018-12-03T09:32:19Z</time>
      </trkpt>
      <trkpt lat="48.73533" lon="2.55051">
        <ele>125.257</ele>
        <time>2018-12-03T09:32:22Z</time>
      </trkpt>
      <trkpt lat="48.73533" lon="2.55051">
        <ele>93</ele>
        <time>2018-12-03T09:32:29Z</time>
      </trkpt>
      <trkpt lat="48.73533" lon="2.55051">
        <ele>93</ele>
        <time>2018-12-03T09:32:52Z</time>
      </trkpt>
      <trkpt lat="48.73547" lon="2.5508">
        <ele>125.939</ele>
        <time>2018-12-03T09:32:52Z</time>
      </trkpt>
      <trkpt lat="48.7355" lon="2.55086">
        <ele>126.041</ele>
        <time>2018-12-03T09:32:56Z</time>
      </trkpt>
      <trkpt lat="48.73554" lon="2.55091">
        <ele>126.14</ele>
        <time>2018-12-03T09:33:00Z</time>
      </trkpt>
      <trkpt lat="48.73558" lon="2.55094">
        <ele>126.211</ele>
        <time>2018-12-03T09:33:03Z</time>
      </trkpt>
      <trkpt lat="48.7356" lon="2.55101">
        <ele>126.305</ele>
        <time>2018-12-03T09:33:07Z</time>
      </trkpt>
      <trkpt lat="48.73564" lon="2.55106">
        <ele>126.425</ele>
        <time>2018-12-03T09:33:12Z</time>
      </trkpt>
      <trkpt lat="48.73566" lon="2.55113">
        <ele>126.55</ele>
        <time>2018-12-03T09:33:17Z</time>
      </trkpt>
      <trkpt lat="48.7357" lon="2.55118">
        <ele>126.679</ele>
        <time>2018-12-03T09:33:22Z</time>
      </trkpt>
      <trkpt lat="48.73574" lon="2.55122">
        <ele>126.779</ele>
        <time>2018-12-03T09:33:26Z</time>
      </trkpt>
      <trkpt lat="48.73577" lon="2.55126">
        <ele>126.829</ele>
        <time>2018-12-03T09:33:28Z</time>
      </trkpt>
      <trkpt lat="48.7358" lon="2.55128">
        <ele>126.88</ele>
        <time>2018-12-03T09:33:30Z</time>
      </trkpt>
      <trkpt lat="48.73582" lon="2.55131">
        <ele>126.932</ele>
        <time>2018-12-03T09:33:32Z</time>
      </trkpt>
      <trkpt lat="48.73587" lon="2.55138">
        <ele>127.036</ele>
        <time>2018-12-03T09:33:36Z</time>
      </trkpt>
      <trkpt lat="48.7359" lon="2.55143">
        <ele>127.113</ele>
        <time>2018-12-03T09:33:39Z</time>
      </trkpt>
      <trkpt lat="48.73594" lon="2.55147">
        <ele>127.214</ele>
        <time>2018-12-03T09:33:43Z</time>
      </trkpt>
      <trkpt lat="48.73598" lon="2.55153">
        <ele>127.337</ele>
        <time>2018-12-03T09:33:48Z</time>
      </trkpt>
      <trkpt lat="48.73601" lon="2.55159">
        <ele>127.458</ele>
        <time>2018-12-03T09:33:53Z</time>
      </trkpt>
      <trkpt lat="48.73602" lon="2.55163">
        <ele>127.53</ele>
        <time>2018-12-03T09:33:56Z</time>
      </trkpt>
      <trkpt lat="48.73606" lon="2.55169">
        <ele>127.652</ele>
        <time>2018-12-03T09:34:01Z</time>
      </trkpt>
      <trkpt lat="48.7361" lon="2.55173">
        <ele>127.771</ele>
        <time>2018-12-03T09:34:08Z</time>
      </trkpt>
      <trkpt lat="48.73612" lon="2.55176">
        <ele>127.826</ele>
        <time>2018-12-03T09:34:10Z</time>
      </trkpt>
      <trkpt lat="48.73614" lon="2.55179">
        <ele>127.906</ele>
        <time>2018-12-03T09:34:13Z</time>
      </trkpt>
      <trkpt lat="48.73617" lon="2.55185">
        <ele>128.064</ele>
        <time>2018-12-03T09:34:19Z</time>
      </trkpt>
      <trkpt lat="48.73622" lon="2.5519">
        <ele>128.189</ele>
        <time>2018-12-03T09:34:24Z</time>
      </trkpt>
      <trkpt lat="48.73624" lon="2.55196">
        <ele>128.289</ele>
        <time>2018-12-03T09:34:28Z</time>
      </trkpt>
      <trkpt lat="48.73624" lon="2.55196">
        <ele>128.289</ele>
        <time>2018-12-03T09:34:35Z</time>
      </trkpt>
      <trkpt lat="48.73624" lon="2.55196">
        <ele>93</ele>
        <time>2018-12-03T09:34:35Z</time>
      </trkpt>
      <trkpt lat="48.73624" lon="2.55196">
        <ele>93</ele>
        <time>2018-12-03T09:35:12Z</time>
      </trkpt>
      <trkpt lat="48.73651" lon="2.5522">
        <ele>129.276</ele>
        <time>2018-12-03T09:35:12Z</time>
      </trkpt>
      <trkpt lat="48.73653" lon="2.55223">
        <ele>129.368</ele>
        <time>2018-12-03T09:35:15Z</time>
      </trkpt>
      <trkpt lat="48.73656" lon="2.55229">
        <ele>129.495</ele>
        <time>2018-12-03T09:35:19Z</time>
      </trkpt>
      <trkpt lat="48.73658" lon="2.55232">
        <ele>129.558</ele>
        <time>2018-12-03T09:35:21Z</time>
      </trkpt>
      <trkpt lat="48.73662" lon="2.55236">
        <ele>129.684</ele>
        <time>2018-12-03T09:35:25Z</time>
      </trkpt>
      <trkpt lat="48.73663" lon="2.55239">
        <ele>129.747</ele>
        <time>2018-12-03T09:35:27Z</time>
      </trkpt>
      <trkpt lat="48.73667" lon="2.55246">
        <ele>129.902</ele>
        <time>2018-12-03T09:35:32Z</time>
      </trkpt>
      <trkpt lat="48.73671" lon="2.55251">
        <ele>130.024</ele>
        <time>2018-12-03T09:35:36Z</time>
      </trkpt>
      <trkpt lat="48.73673" lon="2.55254">
        <ele>130.114</ele>
        <time>2018-12-03T09:35:39Z</time>
      </trkpt>
      <trkpt lat="48.73675" lon="2.55261">
        <ele>130.324</ele>
        <time>2018-12-03T09:35:46Z</time>
      </trkpt>
      <trkpt lat="48.73678" lon="2.55266">
        <ele>130.53</ele>
        <time>2018-12-03T09:35:53Z</time>
      </trkpt>
      <trkpt lat="48.73679" lon="2.55273">
        <ele>130.699</ele>
        <time>2018-12-03T09:35:59Z</time>
      </trkpt>
      <trkpt lat="48.73681" lon="2.55281">
        <ele>130.81</ele>
        <time>2018-12-03T09:36:03Z</time>
      </trkpt>
      <trkpt lat="48.73682" lon="2.55285">
        <ele>130.893</ele>
        <time>2018-12-03T09:36:06Z</time>
      </trkpt>
      <trkpt lat="48.73684" lon="2.5529">
        <ele>130.975</ele>
        <time>2018-12-03T09:36:09Z</time>
      </trkpt>
      <trkpt lat="48.73688" lon="2.55294">
        <ele>131.136</ele>
        <time>2018-12-03T09:36:15Z</time>
      </trkpt>
      <trkpt lat="48.73692" lon="2.55297">
        <ele>131.241</ele>
        <time>2018-12-03T09:36:19Z</time>
      </trkpt>
      <trkpt lat="48.73696" lon="2.55301">
        <ele>131.377</ele>
        <time>2018-12-03T09:36:25Z</time>
      </trkpt>
      <trkpt lat="48.73696" lon="2.55301">
        <ele>131.377</ele>
        <time>2018-12-03T09:49:37Z</time>
      </trkpt>
      <trkpt lat="48.73701" lon="2.55312">
        <ele>139.043</ele>
        <time>2018-12-03T09:49:40Z</time>
      </trkpt>
      <trkpt lat="48.73703" lon="2.55318">
        <ele>139.082</ele>
        <time>2018-12-03T09:49:43Z</time>
      </trkpt>
      <trkpt lat="48.73704" lon="2.55327">
        <ele>139.129</ele>
        <time>2018-12-03T09:49:47Z</time>
      </trkpt>
      <trkpt lat="48.73705" lon="2.55334">
        <ele>139.176</ele>
        <time>2018-12-03T09:49:51Z</time>
      </trkpt>
      <trkpt lat="48.73707" lon="2.55341">
        <ele>139.238</ele>
        <time>2018-12-03T09:49:56Z</time>
      </trkpt>
      <trkpt lat="48.73707" lon="2.55341">
        <ele>93.4</ele>
        <time>2018-12-03T09:50:03Z</time>
      </trkpt>
      <trkpt lat="48.73707" lon="2.55341">
        <ele>93.4</ele>
        <time>2018-12-03T09:50:08Z</time>
      </trkpt>
      <trkpt lat="48.73709" lon="2.55347">
        <ele>139.362</ele>
        <time>2018-12-03T09:50:08Z</time>
      </trkpt>
      <trkpt lat="48.73712" lon="2.55356">
        <ele>139.39</ele>
        <time>2018-12-03T09:50:11Z</time>
      </trkpt>
      <trkpt lat="48.73715" lon="2.55363">
        <ele>139.444</ele>
        <time>2018-12-03T09:50:17Z</time>
      </trkpt>
      <trkpt lat="48.73717" lon="2.55369">
        <ele>139.454</ele>
        <time>2018-12-03T09:50:18Z</time>
      </trkpt>
      <trkpt lat="48.73719" lon="2.55376">
        <ele>139.484</ele>
        <time>2018-12-03T09:50:21Z</time>
      </trkpt>
      <trkpt lat="48.73719" lon="2.55376">
        <ele>93.9</ele>
        <time>2018-12-03T09:50:26Z</time>
      </trkpt>
      <trkpt lat="48.73719" lon="2.55376">
        <ele>93.9</ele>
        <time>2018-12-03T09:50:43Z</time>
      </trkpt>
      <trkpt lat="48.7372" lon="2.55406">
        <ele>139.673</ele>
        <time>2018-12-03T09:50:43Z</time>
      </trkpt>
      <trkpt lat="48.73722" lon="2.55416">
        <ele>139.691</ele>
        <time>2018-12-03T09:50:45Z</time>
      </trkpt>
      <trkpt lat="48.73723" lon="2.55424">
        <ele>139.711</ele>
        <time>2018-12-03T09:50:47Z</time>
      </trkpt>
      <trkpt lat="48.73723" lon="2.55429">
        <ele>139.73</ele>
        <time>2018-12-03T09:50:49Z</time>
      </trkpt>
      <trkpt lat="48.73724" lon="2.55435">
        <ele>139.749</ele>
        <time>2018-12-03T09:50:51Z</time>
      </trkpt>
      <trkpt lat="48.73726" lon="2.55444">
        <ele>139.78</ele>
        <time>2018-12-03T09:50:54Z</time>
      </trkpt>
      <trkpt lat="48.73726" lon="2.55444">
        <ele>139.78</ele>
        <time>2018-12-03T09:50:59Z</time>
      </trkpt>
      <trkpt lat="48.73726" lon="2.55444">
        <ele>94.1</ele>
        <time>2018-12-03T09:50:59Z</time>
      </trkpt>
      <trkpt lat="48.73726" lon="2.55444">
        <ele>94.1</ele>
        <time>2018-12-03T09:51:10Z</time>
      </trkpt>
      <trkpt lat="48.73738" lon="2.55456">
        <ele>139.98</ele>
        <time>2018-12-03T09:51:10Z</time>
      </trkpt>
      <trkpt lat="48.73742" lon="2.55459">
        <ele>140.037</ele>
        <time>2018-12-03T09:51:14Z</time>
      </trkpt>
      <trkpt lat="48.73745" lon="2.55461">
        <ele>140.096</ele>
        <time>2018-12-03T09:51:18Z</time>
      </trkpt>
      <trkpt lat="48.73747" lon="2.55462">
        <ele>140.155</ele>
        <time>2018-12-03T09:51:22Z</time>
      </trkpt>
      <trkpt lat="48.73747" lon="2.55462">
        <ele>95</ele>
        <time>2018-12-03T09:51:31Z</time>
      </trkpt>
      <trkpt lat="48.73747" lon="2.55462">
        <ele>95</ele>
        <time>2018-12-03T09:51:35Z</time>
      </trkpt>
      <trkpt lat="48.73757" lon="2.55461">
        <ele>140.323</ele>
        <time>2018-12-03T09:51:35Z</time>
      </trkpt>
      <trkpt lat="48.73757" lon="2.55461">
        <ele>140.323</ele>
        <time>2018-12-03T09:51:42Z</time>
      </trkpt>
      <trkpt lat="48.73757" lon="2.55461">
        <ele>95</ele>
        <time>2018-12-03T09:51:42Z</time>
      </trkpt>
      <trkpt lat="48.73757" lon="2.55461">
        <ele>95</ele>
        <time>2018-12-03T09:51:58Z</time>
      </trkpt>
      <trkpt lat="48.73779" lon="2.55462">
        <ele>140.563</ele>
        <time>2018-12-03T09:51:58Z</time>
      </trkpt>
      <trkpt lat="48.73782" lon="2.55463">
        <ele>140.639</ele>
        <time>2018-12-03T09:52:04Z</time>
      </trkpt>
      <trkpt lat="48.73782" lon="2.55463">
        <ele>95</ele>
        <time>2018-12-03T09:52:09Z</time>
      </trkpt>
      <trkpt lat="48.73782" lon="2.55463">
        <ele>95</ele>
        <time>2018-12-03T09:52:15Z</time>
      </trkpt>
      <trkpt lat="48.73793" lon="2.55465">
        <ele>140.801</ele>
        <time>2018-12-03T09:52:16Z</time>
      </trkpt>
      <trkpt lat="48.73797" lon="2.55469">
        <ele>140.888</ele>
        <time>2018-12-03T09:52:22Z</time>
      </trkpt>
      <trkpt lat="48.73803" lon="2.5547">
        <ele>140.985</ele>
        <time>2018-12-03T09:52:29Z</time>
      </trkpt>
      <trkpt lat="48.73808" lon="2.55473">
        <ele>141.05</ele>
        <time>2018-12-03T09:52:34Z</time>
      </trkpt>
      <trkpt lat="48.73811" lon="2.55475">
        <ele>141.077</ele>
        <time>2018-12-03T09:52:36Z</time>
      </trkpt>
      <trkpt lat="48.73814" lon="2.55476">
        <ele>141.104</ele>
        <time>2018-12-03T09:52:38Z</time>
      </trkpt>
      <trkpt lat="48.73819" lon="2.55477">
        <ele>141.183</ele>
        <time>2018-12-03T09:52:44Z</time>
      </trkpt>
      <trkpt lat="48.73824" lon="2.55478">
        <ele>141.237</ele>
        <time>2018-12-03T09:52:48Z</time>
      </trkpt>
      <trkpt lat="48.73828" lon="2.55482">
        <ele>141.291</ele>
        <time>2018-12-03T09:52:52Z</time>
      </trkpt>
      <trkpt lat="48.73831" lon="2.55487">
        <ele>141.343</ele>
        <time>2018-12-03T09:52:56Z</time>
      </trkpt>
      <trkpt lat="48.73834" lon="2.55494">
        <ele>141.394</ele>
        <time>2018-12-03T09:53:00Z</time>
      </trkpt>
      <trkpt lat="48.73836" lon="2.555">
        <ele>141.432</ele>
        <time>2018-12-03T09:53:03Z</time>
      </trkpt>
      <trkpt lat="48.73838" lon="2.55506">
        <ele>141.509</ele>
        <time>2018-12-03T09:53:09Z</time>
      </trkpt>
      <trkpt lat="48.73839" lon="2.5551">
        <ele>141.533</ele>
        <time>2018-12-03T09:53:11Z</time>
      </trkpt>
      <trkpt lat="48.73841" lon="2.55513">
        <ele>141.568</ele>
        <time>2018-12-03T09:53:14Z</time>
      </trkpt>
      <trkpt lat="48.73843" lon="2.55521">
        <ele>141.604</ele>
        <time>2018-12-03T09:53:17Z</time>
      </trkpt>
      <trkpt lat="48.73844" lon="2.55524">
        <ele>141.629</ele>
        <time>2018-12-03T09:53:19Z</time>
      </trkpt>
      <trkpt lat="48.73845" lon="2.55528">
        <ele>141.653</ele>
        <time>2018-12-03T09:53:21Z</time>
      </trkpt>
      <trkpt lat="48.73846" lon="2.55531">
        <ele>141.678</ele>
        <time>2018-12-03T09:53:23Z</time>
      </trkpt>
      <trkpt lat="48.73848" lon="2.55537">
        <ele>141.741</ele>
        <time>2018-12-03T09:53:28Z</time>
      </trkpt>
      <trkpt lat="48.73849" lon="2.55544">
        <ele>141.806</ele>
        <time>2018-12-03T09:53:33Z</time>
      </trkpt>
      <trkpt lat="48.73849" lon="2.55551">
        <ele>141.845</ele>
        <time>2018-12-03T09:53:36Z</time>
      </trkpt>
      <trkpt lat="48.7385" lon="2.55556">
        <ele>141.884</ele>
        <time>2018-12-03T09:53:39Z</time>
      </trkpt>
      <trkpt lat="48.7385" lon="2.55563">
        <ele>141.948</ele>
        <time>2018-12-03T09:53:47Z</time>
      </trkpt>
      <trkpt lat="48.73851" lon="2.55568">
        <ele>141.963</ele>
        <time>2018-12-03T09:53:48Z</time>
      </trkpt>
      <trkpt lat="48.73852" lon="2.55572">
        <ele>141.979</ele>
        <time>2018-12-03T09:53:49Z</time>
      </trkpt>
      <trkpt lat="48.73853" lon="2.55577">
        <ele>141.995</ele>
        <time>2018-12-03T09:53:50Z</time>
      </trkpt>
      <trkpt lat="48.73853" lon="2.55581">
        <ele>142.012</ele>
        <time>2018-12-03T09:53:51Z</time>
      </trkpt>
      <trkpt lat="48.73853" lon="2.55588">
        <ele>142.062</ele>
        <time>2018-12-03T09:53:54Z</time>
      </trkpt>
      <trkpt lat="48.73853" lon="2.55588">
        <ele>95.1</ele>
        <time>2018-12-03T09:54:00Z</time>
      </trkpt>
      <trkpt lat="48.73853" lon="2.55588">
        <ele>95.1</ele>
        <time>2018-12-03T09:54:02Z</time>
      </trkpt>
      <trkpt lat="48.73854" lon="2.55599">
        <ele>142.194</ele>
        <time>2018-12-03T09:54:02Z</time>
      </trkpt>
      <trkpt lat="48.73855" lon="2.55604">
        <ele>142.26</ele>
        <time>2018-12-03T09:54:06Z</time>
      </trkpt>
      <trkpt lat="48.73856" lon="2.55613">
        <ele>142.31</ele>
        <time>2018-12-03T09:54:09Z</time>
      </trkpt>
      <trkpt lat="48.73857" lon="2.55622">
        <ele>142.363</ele>
        <time>2018-12-03T09:54:12Z</time>
      </trkpt>
      <trkpt lat="48.73856" lon="2.55628">
        <ele>142.429</ele>
        <time>2018-12-03T09:54:16Z</time>
      </trkpt>
      <trkpt lat="48.73855" lon="2.55633">
        <ele>142.474</ele>
        <time>2018-12-03T09:54:19Z</time>
      </trkpt>
      <trkpt lat="48.73855" lon="2.5564">
        <ele>142.516</ele>
        <time>2018-12-03T09:54:22Z</time>
      </trkpt>
      <trkpt lat="48.73855" lon="2.55646">
        <ele>142.563</ele>
        <time>2018-12-03T09:54:26Z</time>
      </trkpt>
      <trkpt lat="48.73855" lon="2.55652">
        <ele>142.581</ele>
        <time>2018-12-03T09:54:28Z</time>
      </trkpt>
      <trkpt lat="48.73856" lon="2.55657">
        <ele>142.615</ele>
        <time>2018-12-03T09:54:30Z</time>
      </trkpt>
      <trkpt lat="48.73856" lon="2.55661">
        <ele>142.652</ele>
        <time>2018-12-03T09:54:33Z</time>
      </trkpt>
      <trkpt lat="48.7386" lon="2.55666">
        <ele>142.719</ele>
        <time>2018-12-03T09:54:37Z</time>
      </trkpt>
      <trkpt lat="48.73862" lon="2.55673">
        <ele>142.809</ele>
        <time>2018-12-03T09:54:43Z</time>
      </trkpt>
      <trkpt lat="48.73864" lon="2.55681">
        <ele>142.923</ele>
        <time>2018-12-03T09:54:50Z</time>
      </trkpt>
      <trkpt lat="48.73867" lon="2.55687">
        <ele>142.997</ele>
        <time>2018-12-03T09:54:55Z</time>
      </trkpt>
      <trkpt lat="48.73871" lon="2.55693">
        <ele>143.039</ele>
        <time>2018-12-03T09:54:58Z</time>
      </trkpt>
      <trkpt lat="48.73873" lon="2.55695">
        <ele>143.054</ele>
        <time>2018-12-03T09:54:59Z</time>
      </trkpt>
      <trkpt lat="48.73876" lon="2.55703">
        <ele>143.113</ele>
        <time>2018-12-03T09:55:03Z</time>
      </trkpt>
      <trkpt lat="48.73877" lon="2.55707">
        <ele>143.142</ele>
        <time>2018-12-03T09:55:05Z</time>
      </trkpt>
      <trkpt lat="48.73878" lon="2.5571">
        <ele>143.157</ele>
        <time>2018-12-03T09:55:06Z</time>
      </trkpt>
      <trkpt lat="48.73879" lon="2.55715">
        <ele>143.187</ele>
        <time>2018-12-03T09:55:08Z</time>
      </trkpt>
      <trkpt lat="48.7388" lon="2.55724">
        <ele>143.247</ele>
        <time>2018-12-03T09:55:12Z</time>
      </trkpt>
      <trkpt lat="48.73882" lon="2.5573">
        <ele>143.291</ele>
        <time>2018-12-03T09:55:15Z</time>
      </trkpt>
      <trkpt lat="48.73882" lon="2.55737">
        <ele>143.366</ele>
        <time>2018-12-03T09:55:20Z</time>
      </trkpt>
      <trkpt lat="48.73883" lon="2.55741">
        <ele>143.411</ele>
        <time>2018-12-03T09:55:23Z</time>
      </trkpt>
      <trkpt lat="48.73884" lon="2.55746">
        <ele>143.458</ele>
        <time>2018-12-03T09:55:26Z</time>
      </trkpt>
      <trkpt lat="48.73884" lon="2.5575">
        <ele>143.505</ele>
        <time>2018-12-03T09:55:29Z</time>
      </trkpt>
      <trkpt lat="48.73886" lon="2.55757">
        <ele>143.553</ele>
        <time>2018-12-03T09:55:32Z</time>
      </trkpt>
      <trkpt lat="48.7389" lon="2.55764">
        <ele>143.604</ele>
        <time>2018-12-03T09:55:35Z</time>
      </trkpt>
      <trkpt lat="48.73892" lon="2.55771">
        <ele>143.688</ele>
        <time>2018-12-03T09:55:40Z</time>
      </trkpt>
      <trkpt lat="48.73892" lon="2.55775">
        <ele>143.721</ele>
        <time>2018-12-03T09:55:42Z</time>
      </trkpt>
      <trkpt lat="48.73893" lon="2.55779">
        <ele>143.755</ele>
        <time>2018-12-03T09:55:44Z</time>
      </trkpt>
      <trkpt lat="48.73895" lon="2.55785">
        <ele>143.822</ele>
        <time>2018-12-03T09:55:48Z</time>
      </trkpt>
      <trkpt lat="48.73897" lon="2.55793">
        <ele>143.887</ele>
        <time>2018-12-03T09:55:52Z</time>
      </trkpt>
      <trkpt lat="48.73898" lon="2.55797">
        <ele>143.919</ele>
        <time>2018-12-03T09:55:54Z</time>
      </trkpt>
      <trkpt lat="48.73901" lon="2.55802">
        <ele>143.999</ele>
        <time>2018-12-03T09:55:59Z</time>
      </trkpt>
      <trkpt lat="48.73904" lon="2.55809">
        <ele>144.076</ele>
        <time>2018-12-03T09:56:04Z</time>
      </trkpt>
      <trkpt lat="48.73906" lon="2.55814">
        <ele>144.122</ele>
        <time>2018-12-03T09:56:07Z</time>
      </trkpt>
      <trkpt lat="48.73908" lon="2.5582">
        <ele>144.194</ele>
        <time>2018-12-03T09:56:12Z</time>
      </trkpt>
      <trkpt lat="48.7391" lon="2.55823">
        <ele>144.222</ele>
        <time>2018-12-03T09:56:14Z</time>
      </trkpt>
      <trkpt lat="48.73911" lon="2.55826">
        <ele>144.237</ele>
        <time>2018-12-03T09:56:15Z</time>
      </trkpt>
      <trkpt lat="48.73912" lon="2.55829">
        <ele>144.252</ele>
        <time>2018-12-03T09:56:16Z</time>
      </trkpt>
      <trkpt lat="48.73914" lon="2.55832">
        <ele>144.267</ele>
        <time>2018-12-03T09:56:17Z</time>
      </trkpt>
      <trkpt lat="48.73916" lon="2.55839">
        <ele>144.344</ele>
        <time>2018-12-03T09:56:22Z</time>
      </trkpt>
      <trkpt lat="48.73919" lon="2.55845">
        <ele>144.404</ele>
        <time>2018-12-03T09:56:26Z</time>
      </trkpt>
      <trkpt lat="48.7392" lon="2.55849">
        <ele>144.432</ele>
        <time>2018-12-03T09:56:28Z</time>
      </trkpt>
      <trkpt lat="48.73921" lon="2.55854">
        <ele>144.461</ele>
        <time>2018-12-03T09:56:30Z</time>
      </trkpt>
      <trkpt lat="48.73922" lon="2.55857">
        <ele>144.488</ele>
        <time>2018-12-03T09:56:32Z</time>
      </trkpt>
      <trkpt lat="48.73925" lon="2.55863">
        <ele>144.542</ele>
        <time>2018-12-03T09:56:36Z</time>
      </trkpt>
      <trkpt lat="48.73926" lon="2.55866">
        <ele>144.594</ele>
        <time>2018-12-03T09:56:40Z</time>
      </trkpt>
      <trkpt lat="48.73929" lon="2.55871">
        <ele>144.659</ele>
        <time>2018-12-03T09:56:45Z</time>
      </trkpt>
      <trkpt lat="48.73932" lon="2.55876">
        <ele>144.735</ele>
        <time>2018-12-03T09:56:51Z</time>
      </trkpt>
      <trkpt lat="48.73937" lon="2.5588">
        <ele>144.773</ele>
        <time>2018-12-03T09:56:54Z</time>
      </trkpt>
      <trkpt lat="48.73941" lon="2.55885">
        <ele>144.838</ele>
        <time>2018-12-03T09:56:59Z</time>
      </trkpt>
      <trkpt lat="48.73945" lon="2.55886">
        <ele>144.902</ele>
        <time>2018-12-03T09:57:04Z</time>
      </trkpt>
      <trkpt lat="48.73951" lon="2.55884">
        <ele>144.951</ele>
        <time>2018-12-03T09:57:08Z</time>
      </trkpt>
      <trkpt lat="48.73956" lon="2.55884">
        <ele>144.989</ele>
        <time>2018-12-03T09:57:11Z</time>
      </trkpt>
      <trkpt lat="48.73962" lon="2.55882">
        <ele>145.04</ele>
        <time>2018-12-03T09:57:15Z</time>
      </trkpt>
      <trkpt lat="48.73967" lon="2.55883">
        <ele>145.112</ele>
        <time>2018-12-03T09:57:21Z</time>
      </trkpt>
      <trkpt lat="48.73973" lon="2.55884">
        <ele>145.148</ele>
        <time>2018-12-03T09:57:24Z</time>
      </trkpt>
      <trkpt lat="48.73975" lon="2.55884">
        <ele>145.16</ele>
        <time>2018-12-03T09:57:25Z</time>
      </trkpt>
      <trkpt lat="48.73981" lon="2.55884">
        <ele>145.197</ele>
        <time>2018-12-03T09:57:28Z</time>
      </trkpt>
      <trkpt lat="48.73983" lon="2.55884">
        <ele>145.209</ele>
        <time>2018-12-03T09:57:29Z</time>
      </trkpt>
      <trkpt lat="48.73989" lon="2.55882">
        <ele>145.281</ele>
        <time>2018-12-03T09:57:35Z</time>
      </trkpt>
      <trkpt lat="48.73994" lon="2.55883">
        <ele>145.328</ele>
        <time>2018-12-03T09:57:39Z</time>
      </trkpt>
      <trkpt lat="48.74002" lon="2.55882">
        <ele>145.361</ele>
        <time>2018-12-03T09:57:42Z</time>
      </trkpt>
      <trkpt lat="48.74006" lon="2.55879">
        <ele>145.382</ele>
        <time>2018-12-03T09:57:44Z</time>
      </trkpt>
      <trkpt lat="48.74009" lon="2.55878">
        <ele>145.404</ele>
        <time>2018-12-03T09:57:46Z</time>
      </trkpt>
      <trkpt lat="48.74015" lon="2.55879">
        <ele>145.469</ele>
        <time>2018-12-03T09:57:52Z</time>
      </trkpt>
      <trkpt lat="48.74019" lon="2.55877">
        <ele>145.51</ele>
        <time>2018-12-03T09:57:56Z</time>
      </trkpt>
      <trkpt lat="48.74022" lon="2.55876">
        <ele>145.53</ele>
        <time>2018-12-03T09:57:58Z</time>
      </trkpt>
      <trkpt lat="48.74024" lon="2.55876">
        <ele>145.55</ele>
        <time>2018-12-03T09:58:00Z</time>
      </trkpt>
      <trkpt lat="48.74029" lon="2.55875">
        <ele>145.582</ele>
        <time>2018-12-03T09:58:03Z</time>
      </trkpt>
      <trkpt lat="48.74034" lon="2.55875">
        <ele>145.615</ele>
        <time>2018-12-03T09:58:06Z</time>
      </trkpt>
      <trkpt lat="48.74038" lon="2.55876">
        <ele>145.638</ele>
        <time>2018-12-03T09:58:08Z</time>
      </trkpt>
      <trkpt lat="48.74041" lon="2.55876">
        <ele>145.674</ele>
        <time>2018-12-03T09:58:11Z</time>
      </trkpt>
      <trkpt lat="48.74046" lon="2.55875">
        <ele>145.725</ele>
        <time>2018-12-03T09:58:15Z</time>
      </trkpt>
      <trkpt lat="48.74049" lon="2.55875">
        <ele>145.739</ele>
        <time>2018-12-03T09:58:16Z</time>
      </trkpt>
      <trkpt lat="48.74052" lon="2.55875">
        <ele>145.766</ele>
        <time>2018-12-03T09:58:18Z</time>
      </trkpt>
      <trkpt lat="48.74057" lon="2.55876">
        <ele>145.823</ele>
        <time>2018-12-03T09:58:22Z</time>
      </trkpt>
      <trkpt lat="48.74059" lon="2.55877">
        <ele>145.854</ele>
        <time>2018-12-03T09:58:24Z</time>
      </trkpt>
      <trkpt lat="48.74065" lon="2.55877">
        <ele>145.93</ele>
        <time>2018-12-03T09:58:29Z</time>
      </trkpt>
      <trkpt lat="48.7407" lon="2.55879">
        <ele>145.991</ele>
        <time>2018-12-03T09:58:33Z</time>
      </trkpt>
      <trkpt lat="48.74075" lon="2.5588">
        <ele>146.05</ele>
        <time>2018-12-03T09:58:37Z</time>
      </trkpt>
      <trkpt lat="48.74079" lon="2.55883">
        <ele>146.08</ele>
        <time>2018-12-03T09:58:39Z</time>
      </trkpt>
      <trkpt lat="48.74084" lon="2.55885">
        <ele>146.124</ele>
        <time>2018-12-03T09:58:42Z</time>
      </trkpt>
      <trkpt lat="48.7409" lon="2.55889">
        <ele>146.199</ele>
        <time>2018-12-03T09:58:47Z</time>
      </trkpt>
      <trkpt lat="48.74093" lon="2.55896">
        <ele>146.277</ele>
        <time>2018-12-03T09:58:52Z</time>
      </trkpt>
      <trkpt lat="48.74095" lon="2.55903">
        <ele>146.338</ele>
        <time>2018-12-03T09:58:56Z</time>
      </trkpt>
      <trkpt lat="48.74099" lon="2.55909">
        <ele>146.401</ele>
        <time>2018-12-03T09:59:00Z</time>
      </trkpt>
      <trkpt lat="48.74104" lon="2.55913">
        <ele>146.483</ele>
        <time>2018-12-03T09:59:05Z</time>
      </trkpt>
      <trkpt lat="48.74108" lon="2.55913">
        <ele>146.548</ele>
        <time>2018-12-03T09:59:09Z</time>
      </trkpt>
      <trkpt lat="48.74113" lon="2.55914">
        <ele>146.613</ele>
        <time>2018-12-03T09:59:13Z</time>
      </trkpt>
      <trkpt lat="48.74116" lon="2.55915">
        <ele>146.645</ele>
        <time>2018-12-03T09:59:15Z</time>
      </trkpt>
      <trkpt lat="48.7412" lon="2.55914">
        <ele>146.708</ele>
        <time>2018-12-03T09:59:19Z</time>
      </trkpt>
      <trkpt lat="48.74125" lon="2.55914">
        <ele>146.755</ele>
        <time>2018-12-03T09:59:22Z</time>
      </trkpt>
      <trkpt lat="48.7413" lon="2.55912">
        <ele>146.86</ele>
        <time>2018-12-03T09:59:29Z</time>
      </trkpt>
      <trkpt lat="48.74134" lon="2.55911">
        <ele>146.905</ele>
        <time>2018-12-03T09:59:32Z</time>
      </trkpt>
      <trkpt lat="48.74138" lon="2.55909">
        <ele>146.95</ele>
        <time>2018-12-03T09:59:35Z</time>
      </trkpt>
      <trkpt lat="48.74141" lon="2.55908">
        <ele>146.98</ele>
        <time>2018-12-03T09:59:37Z</time>
      </trkpt>
      <trkpt lat="48.74143" lon="2.55908">
        <ele>147.009</ele>
        <time>2018-12-03T09:59:39Z</time>
      </trkpt>
      <trkpt lat="48.74146" lon="2.55907">
        <ele>147.039</ele>
        <time>2018-12-03T09:59:41Z</time>
      </trkpt>
      <trkpt lat="48.74151" lon="2.55905">
        <ele>147.114</ele>
        <time>2018-12-03T09:59:46Z</time>
      </trkpt>
      <trkpt lat="48.74156" lon="2.55905">
        <ele>147.175</ele>
        <time>2018-12-03T09:59:50Z</time>
      </trkpt>
      <trkpt lat="48.74159" lon="2.55905">
        <ele>147.205</ele>
        <time>2018-12-03T09:59:52Z</time>
      </trkpt>
      <trkpt lat="48.74163" lon="2.55905">
        <ele>147.264</ele>
        <time>2018-12-03T09:59:56Z</time>
      </trkpt>
      <trkpt lat="48.74167" lon="2.55906">
        <ele>147.306</ele>
        <time>2018-12-03T09:59:59Z</time>
      </trkpt>
      <trkpt lat="48.74172" lon="2.55908">
        <ele>147.384</ele>
        <time>2018-12-03T10:00:05Z</time>
      </trkpt>
      <trkpt lat="48.74174" lon="2.55909">
        <ele>147.409</ele>
        <time>2018-12-03T10:00:07Z</time>
      </trkpt>
      <trkpt lat="48.74177" lon="2.5591">
        <ele>147.445</ele>
        <time>2018-12-03T10:00:10Z</time>
      </trkpt>
      <trkpt lat="48.7418" lon="2.55911">
        <ele>147.481</ele>
        <time>2018-12-03T10:00:13Z</time>
      </trkpt>
      <trkpt lat="48.74184" lon="2.55912">
        <ele>147.527</ele>
        <time>2018-12-03T10:00:17Z</time>
      </trkpt>
      <trkpt lat="48.7419" lon="2.55915">
        <ele>147.571</ele>
        <time>2018-12-03T10:00:21Z</time>
      </trkpt>
      <trkpt lat="48.74195" lon="2.55915">
        <ele>147.615</ele>
        <time>2018-12-03T10:00:25Z</time>
      </trkpt>
      <trkpt lat="48.74197" lon="2.55915">
        <ele>147.635</ele>
        <time>2018-12-03T10:00:27Z</time>
      </trkpt>
      <trkpt lat="48.742" lon="2.55915">
        <ele>147.655</ele>
        <time>2018-12-03T10:00:29Z</time>
      </trkpt>
      <trkpt lat="48.74205" lon="2.55915">
        <ele>147.703</ele>
        <time>2018-12-03T10:00:34Z</time>
      </trkpt>
      <trkpt lat="48.7421" lon="2.55915">
        <ele>147.751</ele>
        <time>2018-12-03T10:00:39Z</time>
      </trkpt>
      <trkpt lat="48.74215" lon="2.55914">
        <ele>147.791</ele>
        <time>2018-12-03T10:00:43Z</time>
      </trkpt>
      <trkpt lat="48.74219" lon="2.55914">
        <ele>147.831</ele>
        <time>2018-12-03T10:00:47Z</time>
      </trkpt>
      <trkpt lat="48.74225" lon="2.55915">
        <ele>147.886</ele>
        <time>2018-12-03T10:00:52Z</time>
      </trkpt>
      <trkpt lat="48.74228" lon="2.55916">
        <ele>147.922</ele>
        <time>2018-12-03T10:00:55Z</time>
      </trkpt>
      <trkpt lat="48.74231" lon="2.55916">
        <ele>147.946</ele>
        <time>2018-12-03T10:00:57Z</time>
      </trkpt>
      <trkpt lat="48.74236" lon="2.55915">
        <ele>148.009</ele>
        <time>2018-12-03T10:01:02Z</time>
      </trkpt>
      <trkpt lat="48.74241" lon="2.55914">
        <ele>148.099</ele>
        <time>2018-12-03T10:01:09Z</time>
      </trkpt>
      <trkpt lat="48.74246" lon="2.55915">
        <ele>148.165</ele>
        <time>2018-12-03T10:01:14Z</time>
      </trkpt>
      <trkpt lat="48.74251" lon="2.55914">
        <ele>148.244</ele>
        <time>2018-12-03T10:01:20Z</time>
      </trkpt>
      <trkpt lat="48.74256" lon="2.55913">
        <ele>148.283</ele>
        <time>2018-12-03T10:01:23Z</time>
      </trkpt>
      <trkpt lat="48.74256" lon="2.55913">
        <ele>148.283</ele>
        <time>2018-12-03T10:01:28Z</time>
      </trkpt>
      <trkpt lat="48.74256" lon="2.55913">
        <ele>98.1</ele>
        <time>2018-12-03T10:01:29Z</time>
      </trkpt>
      <trkpt lat="48.74256" lon="2.55913">
        <ele>98.1</ele>
        <time>2018-12-03T10:01:31Z</time>
      </trkpt>
      <trkpt lat="48.74264" lon="2.55909">
        <ele>148.386</ele>
        <time>2018-12-03T10:01:31Z</time>
      </trkpt>
      <trkpt lat="48.7427" lon="2.55905">
        <ele>148.438</ele>
        <time>2018-12-03T10:01:35Z</time>
      </trkpt>
      <trkpt lat="48.74273" lon="2.55903">
        <ele>148.479</ele>
        <time>2018-12-03T10:01:38Z</time>
      </trkpt>
      <trkpt lat="48.74276" lon="2.55901">
        <ele>148.519</ele>
        <time>2018-12-03T10:01:41Z</time>
      </trkpt>
      <trkpt lat="48.74279" lon="2.55899">
        <ele>148.545</ele>
        <time>2018-12-03T10:01:43Z</time>
      </trkpt>
      <trkpt lat="48.74284" lon="2.55896">
        <ele>148.628</ele>
        <time>2018-12-03T10:01:50Z</time>
      </trkpt>
      <trkpt lat="48.74288" lon="2.55891">
        <ele>148.688</ele>
        <time>2018-12-03T10:01:56Z</time>
      </trkpt>
      <trkpt lat="48.74293" lon="2.55887">
        <ele>148.715</ele>
        <time>2018-12-03T10:01:59Z</time>
      </trkpt>
      <trkpt lat="48.74295" lon="2.55885">
        <ele>148.739</ele>
        <time>2018-12-03T10:02:02Z</time>
      </trkpt>
      <trkpt lat="48.743" lon="2.5588">
        <ele>148.802</ele>
        <time>2018-12-03T10:02:11Z</time>
      </trkpt>
      <trkpt lat="48.74304" lon="2.55873">
        <ele>148.826</ele>
        <time>2018-12-03T10:02:15Z</time>
      </trkpt>
      <trkpt lat="48.74309" lon="2.55871">
        <ele>148.839</ele>
        <time>2018-12-03T10:02:18Z</time>
      </trkpt>
      <trkpt lat="48.74316" lon="2.55868">
        <ele>148.849</ele>
        <time>2018-12-03T10:02:21Z</time>
      </trkpt>
      <trkpt lat="48.74322" lon="2.55864">
        <ele>148.86</ele>
        <time>2018-12-03T10:02:24Z</time>
      </trkpt>
      <trkpt lat="48.74326" lon="2.5586">
        <ele>148.873</ele>
        <time>2018-12-03T10:02:27Z</time>
      </trkpt>
      <trkpt lat="48.74331" lon="2.55858">
        <ele>148.889</ele>
        <time>2018-12-03T10:02:31Z</time>
      </trkpt>
      <trkpt lat="48.74335" lon="2.55854">
        <ele>148.902</ele>
        <time>2018-12-03T10:02:35Z</time>
      </trkpt>
      <trkpt lat="48.7434" lon="2.55849">
        <ele>148.913</ele>
        <time>2018-12-03T10:02:38Z</time>
      </trkpt>
      <trkpt lat="48.74343" lon="2.55846">
        <ele>148.926</ele>
        <time>2018-12-03T10:02:41Z</time>
      </trkpt>
      <trkpt lat="48.74348" lon="2.55845">
        <ele>148.94</ele>
        <time>2018-12-03T10:02:44Z</time>
      </trkpt>
      <trkpt lat="48.7435" lon="2.55844">
        <ele>148.946</ele>
        <time>2018-12-03T10:02:45Z</time>
      </trkpt>
      <trkpt lat="48.74354" lon="2.55843">
        <ele>148.958</ele>
        <time>2018-12-03T10:02:47Z</time>
      </trkpt>
      <trkpt lat="48.74357" lon="2.55843">
        <ele>148.976</ele>
        <time>2018-12-03T10:02:50Z</time>
      </trkpt>
      <trkpt lat="48.74361" lon="2.55841">
        <ele>149.003</ele>
        <time>2018-12-03T10:02:55Z</time>
      </trkpt>
      <trkpt lat="48.74366" lon="2.55835">
        <ele>149.03</ele>
        <time>2018-12-03T10:03:00Z</time>
      </trkpt>
      <trkpt lat="48.74368" lon="2.55833">
        <ele>149.046</ele>
        <time>2018-12-03T10:03:03Z</time>
      </trkpt>
      <trkpt lat="48.74371" lon="2.55831">
        <ele>149.055</ele>
        <time>2018-12-03T10:03:05Z</time>
      </trkpt>
      <trkpt lat="48.74375" lon="2.55828">
        <ele>149.069</ele>
        <time>2018-12-03T10:03:08Z</time>
      </trkpt>
      <trkpt lat="48.7438" lon="2.55827">
        <ele>149.087</ele>
        <time>2018-12-03T10:03:12Z</time>
      </trkpt>
      <trkpt lat="48.74382" lon="2.55826">
        <ele>149.095</ele>
        <time>2018-12-03T10:03:14Z</time>
      </trkpt>
      <trkpt lat="48.74385" lon="2.55826">
        <ele>149.104</ele>
        <time>2018-12-03T10:03:16Z</time>
      </trkpt>
      <trkpt lat="48.74389" lon="2.55824">
        <ele>149.122</ele>
        <time>2018-12-03T10:03:20Z</time>
      </trkpt>
      <trkpt lat="48.74393" lon="2.55823">
        <ele>149.134</ele>
        <time>2018-12-03T10:03:23Z</time>
      </trkpt>
      <trkpt lat="48.74397" lon="2.55823">
        <ele>149.143</ele>
        <time>2018-12-03T10:03:26Z</time>
      </trkpt>
      <trkpt lat="48.74402" lon="2.55824">
        <ele>149.16</ele>
        <time>2018-12-03T10:03:31Z</time>
      </trkpt>
      <trkpt lat="48.74407" lon="2.55823">
        <ele>149.171</ele>
        <time>2018-12-03T10:03:34Z</time>
      </trkpt>
      <trkpt lat="48.7441" lon="2.55823">
        <ele>149.185</ele>
        <time>2018-12-03T10:03:37Z</time>
      </trkpt>
      <trkpt lat="48.74414" lon="2.55823">
        <ele>149.214</ele>
        <time>2018-12-03T10:03:43Z</time>
      </trkpt>
      <trkpt lat="48.7442" lon="2.55824">
        <ele>149.231</ele>
        <time>2018-12-03T10:03:46Z</time>
      </trkpt>
      <trkpt lat="48.74425" lon="2.55828">
        <ele>149.282</ele>
        <time>2018-12-03T10:03:54Z</time>
      </trkpt>
      <trkpt lat="48.74431" lon="2.55832">
        <ele>149.303</ele>
        <time>2018-12-03T10:03:57Z</time>
      </trkpt>
      <trkpt lat="48.74435" lon="2.55837">
        <ele>149.336</ele>
        <time>2018-12-03T10:04:01Z</time>
      </trkpt>
      <trkpt lat="48.7444" lon="2.55841">
        <ele>149.373</ele>
        <time>2018-12-03T10:04:05Z</time>
      </trkpt>
      <trkpt lat="48.74443" lon="2.55843">
        <ele>149.392</ele>
        <time>2018-12-03T10:04:07Z</time>
      </trkpt>
      <trkpt lat="48.74447" lon="2.55846">
        <ele>149.411</ele>
        <time>2018-12-03T10:04:09Z</time>
      </trkpt>
      <trkpt lat="48.74451" lon="2.55849">
        <ele>149.45</ele>
        <time>2018-12-03T10:04:13Z</time>
      </trkpt>
      <trkpt lat="48.74453" lon="2.5585">
        <ele>149.48</ele>
        <time>2018-12-03T10:04:16Z</time>
      </trkpt>
      <trkpt lat="48.74458" lon="2.55856">
        <ele>149.521</ele>
        <time>2018-12-03T10:04:20Z</time>
      </trkpt>
      <trkpt lat="48.74461" lon="2.55859">
        <ele>149.549</ele>
        <time>2018-12-03T10:04:23Z</time>
      </trkpt>
      <trkpt lat="48.74463" lon="2.55862">
        <ele>149.568</ele>
        <time>2018-12-03T10:04:25Z</time>
      </trkpt>
      <trkpt lat="48.74467" lon="2.55869">
        <ele>149.639</ele>
        <time>2018-12-03T10:04:32Z</time>
      </trkpt>
      <trkpt lat="48.74468" lon="2.55876">
        <ele>149.679</ele>
        <time>2018-12-03T10:04:36Z</time>
      </trkpt>
      <trkpt lat="48.74474" lon="2.55879">
        <ele>149.732</ele>
        <time>2018-12-03T10:04:41Z</time>
      </trkpt>
      <trkpt lat="48.74478" lon="2.55884">
        <ele>149.767</ele>
        <time>2018-12-03T10:04:44Z</time>
      </trkpt>
      <trkpt lat="48.74481" lon="2.55886">
        <ele>149.791</ele>
        <time>2018-12-03T10:04:46Z</time>
      </trkpt>
      <trkpt lat="48.74485" lon="2.55892">
        <ele>149.826</ele>
        <time>2018-12-03T10:04:49Z</time>
      </trkpt>
      <trkpt lat="48.74488" lon="2.55898">
        <ele>149.871</ele>
        <time>2018-12-03T10:04:53Z</time>
      </trkpt>
      <trkpt lat="48.74492" lon="2.55904">
        <ele>149.917</ele>
        <time>2018-12-03T10:04:57Z</time>
      </trkpt>
      <trkpt lat="48.74494" lon="2.55907">
        <ele>149.95</ele>
        <time>2018-12-03T10:05:00Z</time>
      </trkpt>
      <trkpt lat="48.74499" lon="2.55911">
        <ele>149.993</ele>
        <time>2018-12-03T10:05:04Z</time>
      </trkpt>
      <trkpt lat="48.74501" lon="2.55913">
        <ele>150.025</ele>
        <time>2018-12-03T10:05:07Z</time>
      </trkpt>
      <trkpt lat="48.74504" lon="2.55915">
        <ele>150.066</ele>
        <time>2018-12-03T10:05:11Z</time>
      </trkpt>
      <trkpt lat="48.74508" lon="2.5592">
        <ele>150.114</ele>
        <time>2018-12-03T10:05:16Z</time>
      </trkpt>
      <trkpt lat="48.74512" lon="2.55924">
        <ele>150.151</ele>
        <time>2018-12-03T10:05:20Z</time>
      </trkpt>
      <trkpt lat="48.74516" lon="2.55929">
        <ele>150.197</ele>
        <time>2018-12-03T10:05:25Z</time>
      </trkpt>
      <trkpt lat="48.7452" lon="2.55933">
        <ele>150.241</ele>
        <time>2018-12-03T10:05:30Z</time>
      </trkpt>
      <trkpt lat="48.74522" lon="2.55936">
        <ele>150.267</ele>
        <time>2018-12-03T10:05:33Z</time>
      </trkpt>
      <trkpt lat="48.74525" lon="2.55938">
        <ele>150.284</ele>
        <time>2018-12-03T10:05:35Z</time>
      </trkpt>
      <trkpt lat="48.74525" lon="2.55938">
        <ele>98</ele>
        <time>2018-12-03T10:05:43Z</time>
      </trkpt>
      <trkpt lat="48.74525" lon="2.55938">
        <ele>98</ele>
        <time>2018-12-03T10:05:48Z</time>
      </trkpt>
      <trkpt lat="48.74534" lon="2.5594">
        <ele>150.344</ele>
        <time>2018-12-03T10:05:48Z</time>
      </trkpt>
      <trkpt lat="48.74538" lon="2.55937">
        <ele>150.357</ele>
        <time>2018-12-03T10:05:53Z</time>
      </trkpt>
      <trkpt lat="48.7454" lon="2.55935">
        <ele>150.362</ele>
        <time>2018-12-03T10:05:55Z</time>
      </trkpt>
      <trkpt lat="48.74544" lon="2.55931">
        <ele>150.369</ele>
        <time>2018-12-03T10:05:58Z</time>
      </trkpt>
      <trkpt lat="48.74546" lon="2.55928">
        <ele>150.373</ele>
        <time>2018-12-03T10:06:00Z</time>
      </trkpt>
      <trkpt lat="48.7455" lon="2.55924">
        <ele>150.379</ele>
        <time>2018-12-03T10:06:04Z</time>
      </trkpt>
      <trkpt lat="48.74552" lon="2.55922">
        <ele>150.382</ele>
        <time>2018-12-03T10:06:07Z</time>
      </trkpt>
      <trkpt lat="48.74556" lon="2.55915">
        <ele>150.389</ele>
        <time>2018-12-03T10:06:12Z</time>
      </trkpt>
      <trkpt lat="48.74558" lon="2.55908">
        <ele>150.392</ele>
        <time>2018-12-03T10:06:15Z</time>
      </trkpt>
      <trkpt lat="48.74559" lon="2.55903">
        <ele>150.394</ele>
        <time>2018-12-03T10:06:18Z</time>
      </trkpt>
      <trkpt lat="48.74561" lon="2.55898">
        <ele>150.396</ele>
        <time>2018-12-03T10:06:21Z</time>
      </trkpt>
      <trkpt lat="48.74565" lon="2.55892">
        <ele>150.401</ele>
        <time>2018-12-03T10:06:25Z</time>
      </trkpt>
      <trkpt lat="48.74569" lon="2.55891">
        <ele>150.41</ele>
        <time>2018-12-03T10:06:30Z</time>
      </trkpt>
      <trkpt lat="48.74571" lon="2.55903">
        <ele>150.419</ele>
        <time>2018-12-03T10:06:37Z</time>
      </trkpt>
      <trkpt lat="48.74571" lon="2.55907">
        <ele>150.421</ele>
        <time>2018-12-03T10:06:39Z</time>
      </trkpt>
      <trkpt lat="48.74572" lon="2.55911">
        <ele>150.424</ele>
        <time>2018-12-03T10:06:41Z</time>
      </trkpt>
      <trkpt lat="48.74573" lon="2.55919">
        <ele>150.432</ele>
        <time>2018-12-03T10:06:45Z</time>
      </trkpt>
      <trkpt lat="48.74574" lon="2.55923">
        <ele>150.437</ele>
        <time>2018-12-03T10:06:47Z</time>
      </trkpt>
      <trkpt lat="48.74574" lon="2.5593">
        <ele>150.448</ele>
        <time>2018-12-03T10:06:51Z</time>
      </trkpt>
      <trkpt lat="48.74574" lon="2.55937">
        <ele>150.463</ele>
        <time>2018-12-03T10:06:55Z</time>
      </trkpt>
      <trkpt lat="48.74573" lon="2.55942">
        <ele>150.485</ele>
        <time>2018-12-03T10:06:59Z</time>
      </trkpt>
      <trkpt lat="48.74573" lon="2.55946">
        <ele>150.498</ele>
        <time>2018-12-03T10:07:01Z</time>
      </trkpt>
      <trkpt lat="48.74574" lon="2.55954">
        <ele>150.53</ele>
        <time>2018-12-03T10:07:06Z</time>
      </trkpt>
      <trkpt lat="48.74575" lon="2.55961">
        <ele>150.557</ele>
        <time>2018-12-03T10:07:10Z</time>
      </trkpt>
      <trkpt lat="48.74573" lon="2.55969">
        <ele>150.588</ele>
        <time>2018-12-03T10:07:14Z</time>
      </trkpt>
      <trkpt lat="48.74572" lon="2.55975">
        <ele>150.615</ele>
        <time>2018-12-03T10:07:17Z</time>
      </trkpt>
      <trkpt lat="48.74572" lon="2.5598">
        <ele>150.635</ele>
        <time>2018-12-03T10:07:19Z</time>
      </trkpt>
      <trkpt lat="48.74571" lon="2.55989">
        <ele>150.688</ele>
        <time>2018-12-03T10:07:24Z</time>
      </trkpt>
      <trkpt lat="48.74571" lon="2.55994">
        <ele>150.711</ele>
        <time>2018-12-03T10:07:26Z</time>
      </trkpt>
      <trkpt lat="48.74572" lon="2.56002">
        <ele>150.759</ele>
        <time>2018-12-03T10:07:30Z</time>
      </trkpt>
      <trkpt lat="48.74573" lon="2.56006">
        <ele>150.785</ele>
        <time>2018-12-03T10:07:32Z</time>
      </trkpt>
      <trkpt lat="48.74572" lon="2.56013">
        <ele>150.867</ele>
        <time>2018-12-03T10:07:38Z</time>
      </trkpt>
      <trkpt lat="48.74573" lon="2.56021">
        <ele>150.94</ele>
        <time>2018-12-03T10:07:43Z</time>
      </trkpt>
      <trkpt lat="48.74574" lon="2.56026">
        <ele>150.985</ele>
        <time>2018-12-03T10:07:46Z</time>
      </trkpt>
      <trkpt lat="48.74574" lon="2.5603">
        <ele>151.03</ele>
        <time>2018-12-03T10:07:49Z</time>
      </trkpt>
      <trkpt lat="48.74576" lon="2.56037">
        <ele>151.077</ele>
        <time>2018-12-03T10:07:52Z</time>
      </trkpt>
      <trkpt lat="48.74577" lon="2.56046">
        <ele>151.126</ele>
        <time>2018-12-03T10:07:55Z</time>
      </trkpt>
      <trkpt lat="48.74577" lon="2.56046">
        <ele>151.126</ele>
        <time>2018-12-03T10:08:04Z</time>
      </trkpt>
      <trkpt lat="48.74577" lon="2.56046">
        <ele>98</ele>
        <time>2018-12-03T10:08:04Z</time>
      </trkpt>
      <trkpt lat="48.74577" lon="2.56046">
        <ele>98</ele>
        <time>2018-12-03T10:08:33Z</time>
      </trkpt>
      <trkpt lat="48.74555" lon="2.56036">
        <ele>151.492</ele>
        <time>2018-12-03T10:08:33Z</time>
      </trkpt>
      <trkpt lat="48.74551" lon="2.56028">
        <ele>151.532</ele>
        <time>2018-12-03T10:08:39Z</time>
      </trkpt>
      <trkpt lat="48.74549" lon="2.56025">
        <ele>151.553</ele>
        <time>2018-12-03T10:08:43Z</time>
      </trkpt>
      <trkpt lat="48.74551" lon="2.56018">
        <ele>151.584</ele>
        <time>2018-12-03T10:08:49Z</time>
      </trkpt>
      <trkpt lat="48.74559" lon="2.56026">
        <ele>151.752</ele>
        <time>2018-12-03T10:09:38Z</time>
      </trkpt>
      <trkpt lat="48.74565" lon="2.56029">
        <ele>151.774</ele>
        <time>2018-12-03T10:09:44Z</time>
      </trkpt>
      <trkpt lat="48.74565" lon="2.56037">
        <ele>151.801</ele>
        <time>2018-12-03T10:09:50Z</time>
      </trkpt>
      <trkpt lat="48.7457" lon="2.56044">
        <ele>151.838</ele>
        <time>2018-12-03T10:09:57Z</time>
      </trkpt>
      <trkpt lat="48.74574" lon="2.56046">
        <ele>151.871</ele>
        <time>2018-12-03T10:10:10Z</time>
      </trkpt>
      <trkpt lat="48.74578" lon="2.56052">
        <ele>151.901</ele>
        <time>2018-12-03T10:10:21Z</time>
      </trkpt>
      <trkpt lat="48.7458" lon="2.56055">
        <ele>151.906</ele>
        <time>2018-12-03T10:10:28Z</time>
      </trkpt>
      <trkpt lat="48.74582" lon="2.56061">
        <ele>151.917</ele>
        <time>2018-12-03T10:11:04Z</time>
      </trkpt>
      <trkpt lat="48.74585" lon="2.56068">
        <ele>151.917</ele>
        <time>2018-12-03T10:11:21Z</time>
      </trkpt>
      <trkpt lat="48.74586" lon="2.56072">
        <ele>151.915</ele>
        <time>2018-12-03T10:11:26Z</time>
      </trkpt>
      <trkpt lat="48.74588" lon="2.56076">
        <ele>151.914</ele>
        <time>2018-12-03T10:11:29Z</time>
      </trkpt>
      <trkpt lat="48.74589" lon="2.5608">
        <ele>151.91</ele>
        <time>2018-12-03T10:11:33Z</time>
      </trkpt>
      <trkpt lat="48.74591" lon="2.56088">
        <ele>151.908</ele>
        <time>2018-12-03T10:11:36Z</time>
      </trkpt>
      <trkpt lat="48.74594" lon="2.56094">
        <ele>151.917</ele>
        <time>2018-12-03T10:11:42Z</time>
      </trkpt>
      <trkpt lat="48.74599" lon="2.56098">
        <ele>151.936</ele>
        <time>2018-12-03T10:11:48Z</time>
      </trkpt>
      <trkpt lat="48.74602" lon="2.56103">
        <ele>151.948</ele>
        <time>2018-12-03T10:11:51Z</time>
      </trkpt>
      <trkpt lat="48.74607" lon="2.56104">
        <ele>151.986</ele>
        <time>2018-12-03T10:11:57Z</time>
      </trkpt>
      <trkpt lat="48.74611" lon="2.56107">
        <ele>152.006</ele>
        <time>2018-12-03T10:12:00Z</time>
      </trkpt>
      <trkpt lat="48.74617" lon="2.56112">
        <ele>152.043</ele>
        <time>2018-12-03T10:12:05Z</time>
      </trkpt>
      <trkpt lat="48.74621" lon="2.56115">
        <ele>152.059</ele>
        <time>2018-12-03T10:12:07Z</time>
      </trkpt>
      <trkpt lat="48.74624" lon="2.56117">
        <ele>152.069</ele>
        <time>2018-12-03T10:12:08Z</time>
      </trkpt>
      <trkpt lat="48.74628" lon="2.56123">
        <ele>152.108</ele>
        <time>2018-12-03T10:12:12Z</time>
      </trkpt>
      <trkpt lat="48.74632" lon="2.56125">
        <ele>152.166</ele>
        <time>2018-12-03T10:12:18Z</time>
      </trkpt>
      <trkpt lat="48.74637" lon="2.56129">
        <ele>152.204</ele>
        <time>2018-12-03T10:12:22Z</time>
      </trkpt>
      <trkpt lat="48.74641" lon="2.56132">
        <ele>152.239</ele>
        <time>2018-12-03T10:12:26Z</time>
      </trkpt>
      <trkpt lat="48.74643" lon="2.56134">
        <ele>152.273</ele>
        <time>2018-12-03T10:12:30Z</time>
      </trkpt>
      <trkpt lat="48.74649" lon="2.56138">
        <ele>152.305</ele>
        <time>2018-12-03T10:12:34Z</time>
      </trkpt>
      <trkpt lat="48.74653" lon="2.56142">
        <ele>152.32</ele>
        <time>2018-12-03T10:12:36Z</time>
      </trkpt>
      <trkpt lat="48.74655" lon="2.56144">
        <ele>152.334</ele>
        <time>2018-12-03T10:12:38Z</time>
      </trkpt>
      <trkpt lat="48.74658" lon="2.5615">
        <ele>152.372</ele>
        <time>2018-12-03T10:12:43Z</time>
      </trkpt>
      <trkpt lat="48.74663" lon="2.56153">
        <ele>152.394</ele>
        <time>2018-12-03T10:12:46Z</time>
      </trkpt>
      <trkpt lat="48.74666" lon="2.56155">
        <ele>152.409</ele>
        <time>2018-12-03T10:12:48Z</time>
      </trkpt>
      <trkpt lat="48.7467" lon="2.56161">
        <ele>152.455</ele>
        <time>2018-12-03T10:12:54Z</time>
      </trkpt>
      <trkpt lat="48.74674" lon="2.56164">
        <ele>152.486</ele>
        <time>2018-12-03T10:12:58Z</time>
      </trkpt>
      <trkpt lat="48.74679" lon="2.56168">
        <ele>152.519</ele>
        <time>2018-12-03T10:13:02Z</time>
      </trkpt>
      <trkpt lat="48.74684" lon="2.56171">
        <ele>152.556</ele>
        <time>2018-12-03T10:13:06Z</time>
      </trkpt>
      <trkpt lat="48.74688" lon="2.56173">
        <ele>152.585</ele>
        <time>2018-12-03T10:13:09Z</time>
      </trkpt>
      <trkpt lat="48.74691" lon="2.56175">
        <ele>152.604</ele>
        <time>2018-12-03T10:13:11Z</time>
      </trkpt>
      <trkpt lat="48.74694" lon="2.56179">
        <ele>152.633</ele>
        <time>2018-12-03T10:13:14Z</time>
      </trkpt>
      <trkpt lat="48.74697" lon="2.56186">
        <ele>152.678</ele>
        <time>2018-12-03T10:13:19Z</time>
      </trkpt>
      <trkpt lat="48.74702" lon="2.56191">
        <ele>152.719</ele>
        <time>2018-12-03T10:13:24Z</time>
      </trkpt>
      <trkpt lat="48.74706" lon="2.56194">
        <ele>152.752</ele>
        <time>2018-12-03T10:13:28Z</time>
      </trkpt>
      <trkpt lat="48.74711" lon="2.56196">
        <ele>152.793</ele>
        <time>2018-12-03T10:13:33Z</time>
      </trkpt>
      <trkpt lat="48.74714" lon="2.56198">
        <ele>152.812</ele>
        <time>2018-12-03T10:13:35Z</time>
      </trkpt>
      <trkpt lat="48.74716" lon="2.56204">
        <ele>152.889</ele>
        <time>2018-12-03T10:13:43Z</time>
      </trkpt>
      <trkpt lat="48.74722" lon="2.56202">
        <ele>152.972</ele>
        <time>2018-12-03T10:13:52Z</time>
      </trkpt>
      <trkpt lat="48.74727" lon="2.56203">
        <ele>153.035</ele>
        <time>2018-12-03T10:14:00Z</time>
      </trkpt>
      <trkpt lat="48.74732" lon="2.56202">
        <ele>153.057</ele>
        <time>2018-12-03T10:14:03Z</time>
      </trkpt>
      <trkpt lat="48.74737" lon="2.56203">
        <ele>153.077</ele>
        <time>2018-12-03T10:14:06Z</time>
      </trkpt>
      <trkpt lat="48.74741" lon="2.56203">
        <ele>153.088</ele>
        <time>2018-12-03T10:14:08Z</time>
      </trkpt>
      <trkpt lat="48.74747" lon="2.56202">
        <ele>153.1</ele>
        <time>2018-12-03T10:14:10Z</time>
      </trkpt>
      <trkpt lat="48.74751" lon="2.56201">
        <ele>153.105</ele>
        <time>2018-12-03T10:14:11Z</time>
      </trkpt>
      <trkpt lat="48.74756" lon="2.56203">
        <ele>153.115</ele>
        <time>2018-12-03T10:14:13Z</time>
      </trkpt>
      <trkpt lat="48.7476" lon="2.56204">
        <ele>153.124</ele>
        <time>2018-12-03T10:14:15Z</time>
      </trkpt>
      <trkpt lat="48.74766" lon="2.5621">
        <ele>153.136</ele>
        <time>2018-12-03T10:14:18Z</time>
      </trkpt>
      <trkpt lat="48.74769" lon="2.56216">
        <ele>153.142</ele>
        <time>2018-12-03T10:14:21Z</time>
      </trkpt>
      <trkpt lat="48.74771" lon="2.56219">
        <ele>153.143</ele>
        <time>2018-12-03T10:14:22Z</time>
      </trkpt>
      <trkpt lat="48.74772" lon="2.56222">
        <ele>153.144</ele>
        <time>2018-12-03T10:14:23Z</time>
      </trkpt>
      <trkpt lat="48.74774" lon="2.5623">
        <ele>153.144</ele>
        <time>2018-12-03T10:14:26Z</time>
      </trkpt>
      <trkpt lat="48.74775" lon="2.56234">
        <ele>153.142</ele>
        <time>2018-12-03T10:14:28Z</time>
      </trkpt>
      <trkpt lat="48.74775" lon="2.56242">
        <ele>153.136</ele>
        <time>2018-12-03T10:14:32Z</time>
      </trkpt>
      <trkpt lat="48.74775" lon="2.56247">
        <ele>153.132</ele>
        <time>2018-12-03T10:14:34Z</time>
      </trkpt>
      <trkpt lat="48.74775" lon="2.56252">
        <ele>153.125</ele>
        <time>2018-12-03T10:14:37Z</time>
      </trkpt>
      <trkpt lat="48.74776" lon="2.56261">
        <ele>153.118</ele>
        <time>2018-12-03T10:14:40Z</time>
      </trkpt>
      <trkpt lat="48.74774" lon="2.56269">
        <ele>153.116</ele>
        <time>2018-12-03T10:14:43Z</time>
      </trkpt>
      <trkpt lat="48.74772" lon="2.56277">
        <ele>153.113</ele>
        <time>2018-12-03T10:14:46Z</time>
      </trkpt>
      <trkpt lat="48.7477" lon="2.56283">
        <ele>153.108</ele>
        <time>2018-12-03T10:14:50Z</time>
      </trkpt>
      <trkpt lat="48.74766" lon="2.56288">
        <ele>153.104</ele>
        <time>2018-12-03T10:14:56Z</time>
      </trkpt>
      <trkpt lat="48.74763" lon="2.56291">
        <ele>153.099</ele>
        <time>2018-12-03T10:15:00Z</time>
      </trkpt>
      <trkpt lat="48.74761" lon="2.56297">
        <ele>153.091</ele>
        <time>2018-12-03T10:15:06Z</time>
      </trkpt>
      <trkpt lat="48.74763" lon="2.56305">
        <ele>153.079</ele>
        <time>2018-12-03T10:15:13Z</time>
      </trkpt>
      <trkpt lat="48.74761" lon="2.56312">
        <ele>153.074</ele>
        <time>2018-12-03T10:15:16Z</time>
      </trkpt>
      <trkpt lat="48.74759" lon="2.56318">
        <ele>153.065</ele>
        <time>2018-12-03T10:15:20Z</time>
      </trkpt>
      <trkpt lat="48.74757" lon="2.56325">
        <ele>153.05</ele>
        <time>2018-12-03T10:15:26Z</time>
      </trkpt>
      <trkpt lat="48.74755" lon="2.5633">
        <ele>153.038</ele>
        <time>2018-12-03T10:15:29Z</time>
      </trkpt>
      <trkpt lat="48.74755" lon="2.56336">
        <ele>153.025</ele>
        <time>2018-12-03T10:15:32Z</time>
      </trkpt>
      <trkpt lat="48.74755" lon="2.5634">
        <ele>153.011</ele>
        <time>2018-12-03T10:15:35Z</time>
      </trkpt>
      <trkpt lat="48.74753" lon="2.56348">
        <ele>152.982</ele>
        <time>2018-12-03T10:15:43Z</time>
      </trkpt>
      <trkpt lat="48.74752" lon="2.56353">
        <ele>152.969</ele>
        <time>2018-12-03T10:15:46Z</time>
      </trkpt>
      <trkpt lat="48.74748" lon="2.56358">
        <ele>152.932</ele>
        <time>2018-12-03T10:15:52Z</time>
      </trkpt>
      <trkpt lat="48.74745" lon="2.56366">
        <ele>152.912</ele>
        <time>2018-12-03T10:15:55Z</time>
      </trkpt>
      <trkpt lat="48.74742" lon="2.56373">
        <ele>152.898</ele>
        <time>2018-12-03T10:15:57Z</time>
      </trkpt>
      <trkpt lat="48.74739" lon="2.56379">
        <ele>152.866</ele>
        <time>2018-12-03T10:16:03Z</time>
      </trkpt>
      <trkpt lat="48.74737" lon="2.56388">
        <ele>152.844</ele>
        <time>2018-12-03T10:16:07Z</time>
      </trkpt>
      <trkpt lat="48.74737" lon="2.56395">
        <ele>152.831</ele>
        <time>2018-12-03T10:16:10Z</time>
      </trkpt>
      <trkpt lat="48.74737" lon="2.56395">
        <ele>99</ele>
        <time>2018-12-03T10:16:17Z</time>
      </trkpt>
      <trkpt lat="48.74737" lon="2.56395">
        <ele>99</ele>
        <time>2018-12-03T10:16:33Z</time>
      </trkpt>
      <trkpt lat="48.74727" lon="2.56415">
        <ele>152.793</ele>
        <time>2018-12-03T10:16:33Z</time>
      </trkpt>
      <trkpt lat="48.74725" lon="2.56424">
        <ele>152.787</ele>
        <time>2018-12-03T10:16:36Z</time>
      </trkpt>
      <trkpt lat="48.74724" lon="2.56435">
        <ele>152.779</ele>
        <time>2018-12-03T10:16:40Z</time>
      </trkpt>
      <trkpt lat="48.74722" lon="2.56442">
        <ele>152.776</ele>
        <time>2018-12-03T10:16:42Z</time>
      </trkpt>
      <trkpt lat="48.74719" lon="2.56448">
        <ele>152.775</ele>
        <time>2018-12-03T10:16:45Z</time>
      </trkpt>
      <trkpt lat="48.74719" lon="2.56448">
        <ele>99</ele>
        <time>2018-12-03T10:16:50Z</time>
      </trkpt>
      <trkpt lat="48.74719" lon="2.56448">
        <ele>99</ele>
        <time>2018-12-03T10:16:55Z</time>
      </trkpt>
      <trkpt lat="48.74718" lon="2.56461">
        <ele>152.776</ele>
        <time>2018-12-03T10:16:55Z</time>
      </trkpt>
      <trkpt lat="48.7472" lon="2.56471">
        <ele>152.782</ele>
        <time>2018-12-03T10:17:01Z</time>
      </trkpt>
      <trkpt lat="48.7472" lon="2.56471">
        <ele>99</ele>
        <time>2018-12-03T10:17:09Z</time>
      </trkpt>
      <trkpt lat="48.7472" lon="2.56471">
        <ele>99</ele>
        <time>2018-12-03T10:17:45Z</time>
      </trkpt>
      <trkpt lat="48.74707" lon="2.56515">
        <ele>152.834</ele>
        <time>2018-12-03T10:17:45Z</time>
      </trkpt>
      <trkpt lat="48.74706" lon="2.56519">
        <ele>152.832</ele>
        <time>2018-12-03T10:17:50Z</time>
      </trkpt>
      <trkpt lat="48.74702" lon="2.56529">
        <ele>152.829</ele>
        <time>2018-12-03T10:17:53Z</time>
      </trkpt>
      <trkpt lat="48.74699" lon="2.56536">
        <ele>152.827</ele>
        <time>2018-12-03T10:17:54Z</time>
      </trkpt>
      <trkpt lat="48.74698" lon="2.56547">
        <ele>152.825</ele>
        <time>2018-12-03T10:17:56Z</time>
      </trkpt>
      <trkpt lat="48.74698" lon="2.56556">
        <ele>152.824</ele>
        <time>2018-12-03T10:17:57Z</time>
      </trkpt>
      <trkpt lat="48.74697" lon="2.56567">
        <ele>152.823</ele>
        <time>2018-12-03T10:17:59Z</time>
      </trkpt>
      <trkpt lat="48.74696" lon="2.56575">
        <ele>152.819</ele>
        <time>2018-12-03T10:18:03Z</time>
      </trkpt>
      <trkpt lat="48.74693" lon="2.56581">
        <ele>152.813</ele>
        <time>2018-12-03T10:18:06Z</time>
      </trkpt>
      <trkpt lat="48.7469" lon="2.56586">
        <ele>152.805</ele>
        <time>2018-12-03T10:18:13Z</time>
      </trkpt>
      <trkpt lat="48.74689" lon="2.56596">
        <ele>152.804</ele>
        <time>2018-12-03T10:18:19Z</time>
      </trkpt>
      <trkpt lat="48.74689" lon="2.56596">
        <ele>152.804</ele>
        <time>2018-12-03T10:18:26Z</time>
      </trkpt>
      <trkpt lat="48.74689" lon="2.56596">
        <ele>99</ele>
        <time>2018-12-03T10:18:26Z</time>
      </trkpt>
      <trkpt lat="48.74689" lon="2.56596">
        <ele>99</ele>
        <time>2018-12-03T10:18:35Z</time>
      </trkpt>
      <trkpt lat="48.74683" lon="2.56616">
        <ele>152.802</ele>
        <time>2018-12-03T10:18:35Z</time>
      </trkpt>
      <trkpt lat="48.74682" lon="2.56626">
        <ele>152.798</ele>
        <time>2018-12-03T10:18:39Z</time>
      </trkpt>
      <trkpt lat="48.74682" lon="2.56626">
        <ele>99</ele>
        <time>2018-12-03T10:18:45Z</time>
      </trkpt>
      <trkpt lat="48.74682" lon="2.56626">
        <ele>99</ele>
        <time>2018-12-03T10:18:52Z</time>
      </trkpt>
      <trkpt lat="48.74679" lon="2.56638">
        <ele>152.796</ele>
        <time>2018-12-03T10:18:52Z</time>
      </trkpt>
      <trkpt lat="48.74678" lon="2.56641">
        <ele>152.797</ele>
        <time>2018-12-03T10:19:00Z</time>
      </trkpt>
      <trkpt lat="48.74678" lon="2.56641">
        <ele>99</ele>
        <time>2018-12-03T10:19:07Z</time>
      </trkpt>
      <trkpt lat="48.74678" lon="2.56641">
        <ele>99</ele>
        <time>2018-12-03T10:19:11Z</time>
      </trkpt>
      <trkpt lat="48.74674" lon="2.56652">
        <ele>152.809</ele>
        <time>2018-12-03T10:19:11Z</time>
      </trkpt>
      <trkpt lat="48.74674" lon="2.56652">
        <ele>152.809</ele>
        <time>2018-12-03T10:19:17Z</time>
      </trkpt>
      <trkpt lat="48.74674" lon="2.56652">
        <ele>99</ele>
        <time>2018-12-03T10:19:17Z</time>
      </trkpt>
      <trkpt lat="48.74674" lon="2.56652">
        <ele>99</ele>
        <time>2018-12-03T10:19:32Z</time>
      </trkpt>
      <trkpt lat="48.74665" lon="2.56672">
        <ele>152.838</ele>
        <time>2018-12-03T10:19:32Z</time>
      </trkpt>
      <trkpt lat="48.74662" lon="2.5668">
        <ele>152.85</ele>
        <time>2018-12-03T10:19:35Z</time>
      </trkpt>
      <trkpt lat="48.7466" lon="2.56688">
        <ele>152.869</ele>
        <time>2018-12-03T10:19:39Z</time>
      </trkpt>
      <trkpt lat="48.74663" lon="2.56694">
        <ele>152.894</ele>
        <time>2018-12-03T10:19:44Z</time>
      </trkpt>
      <trkpt lat="48.74666" lon="2.567">
        <ele>152.905</ele>
        <time>2018-12-03T10:19:47Z</time>
      </trkpt>
      <trkpt lat="48.74668" lon="2.56702">
        <ele>152.909</ele>
        <time>2018-12-03T10:19:48Z</time>
      </trkpt>
      <trkpt lat="48.74669" lon="2.5671">
        <ele>152.921</ele>
        <time>2018-12-03T10:19:52Z</time>
      </trkpt>
      <trkpt lat="48.74664" lon="2.56715">
        <ele>152.932</ele>
        <time>2018-12-03T10:19:55Z</time>
      </trkpt>
      <trkpt lat="48.7466" lon="2.5672">
        <ele>152.943</ele>
        <time>2018-12-03T10:19:58Z</time>
      </trkpt>
      <trkpt lat="48.74657" lon="2.56728">
        <ele>152.965</ele>
        <time>2018-12-03T10:20:06Z</time>
      </trkpt>
      <trkpt lat="48.74656" lon="2.56735">
        <ele>152.98</ele>
        <time>2018-12-03T10:20:13Z</time>
      </trkpt>
      <trkpt lat="48.74657" lon="2.56742">
        <ele>152.986</ele>
        <time>2018-12-03T10:20:23Z</time>
      </trkpt>
      <trkpt lat="48.74654" lon="2.56749">
        <ele>152.978</ele>
        <time>2018-12-03T10:20:28Z</time>
      </trkpt>
      <trkpt lat="48.7465" lon="2.56757">
        <ele>152.967</ele>
        <time>2018-12-03T10:20:32Z</time>
      </trkpt>
      <trkpt lat="48.7465" lon="2.56765">
        <ele>152.943</ele>
        <time>2018-12-03T10:20:39Z</time>
      </trkpt>
      <trkpt lat="48.74648" lon="2.56771">
        <ele>152.927</ele>
        <time>2018-12-03T10:20:43Z</time>
      </trkpt>
      <trkpt lat="48.74646" lon="2.56779">
        <ele>152.897</ele>
        <time>2018-12-03T10:20:52Z</time>
      </trkpt>
      <trkpt lat="48.74645" lon="2.56789">
        <ele>152.875</ele>
        <time>2018-12-03T10:20:57Z</time>
      </trkpt>
      <trkpt lat="48.74645" lon="2.56794">
        <ele>152.871</ele>
        <time>2018-12-03T10:20:58Z</time>
      </trkpt>
      <trkpt lat="48.74644" lon="2.56801">
        <ele>152.858</ele>
        <time>2018-12-03T10:21:03Z</time>
      </trkpt>
      <trkpt lat="48.74644" lon="2.56801">
        <ele>152.858</ele>
        <time>2018-12-03T10:21:10Z</time>
      </trkpt>
      <trkpt lat="48.74644" lon="2.56801">
        <ele>98.2</ele>
        <time>2018-12-03T10:21:10Z</time>
      </trkpt>
      <trkpt lat="48.74644" lon="2.56801">
        <ele>98.2</ele>
        <time>2018-12-03T10:21:24Z</time>
      </trkpt>
      <trkpt lat="48.74639" lon="2.56823">
        <ele>152.792</ele>
        <time>2018-12-03T10:21:24Z</time>
      </trkpt>
      <trkpt lat="48.74639" lon="2.56823">
        <ele>152.792</ele>
        <time>2018-12-03T10:21:31Z</time>
      </trkpt>
      <trkpt lat="48.74639" lon="2.56823">
        <ele>98.6</ele>
        <time>2018-12-03T10:21:31Z</time>
      </trkpt>
      <trkpt lat="48.74639" lon="2.56823">
        <ele>98.6</ele>
        <time>2018-12-03T10:21:38Z</time>
      </trkpt>
      <trkpt lat="48.74633" lon="2.56844">
        <ele>152.71</ele>
        <time>2018-12-03T10:21:38Z</time>
      </trkpt>
      <trkpt lat="48.74629" lon="2.56853">
        <ele>152.685</ele>
        <time>2018-12-03T10:21:41Z</time>
      </trkpt>
      <trkpt lat="48.74627" lon="2.56858">
        <ele>152.668</ele>
        <time>2018-12-03T10:21:47Z</time>
      </trkpt>
      <trkpt lat="48.74626" lon="2.56867">
        <ele>152.647</ele>
        <time>2018-12-03T10:21:57Z</time>
      </trkpt>
      <trkpt lat="48.74624" lon="2.56875">
        <ele>152.632</ele>
        <time>2018-12-03T10:22:00Z</time>
      </trkpt>
      <trkpt lat="48.74623" lon="2.56878">
        <ele>152.588</ele>
        <time>2018-12-03T10:22:10Z</time>
      </trkpt>
      <trkpt lat="48.74621" lon="2.56884">
        <ele>152.544</ele>
        <time>2018-12-03T10:22:20Z</time>
      </trkpt>
      <trkpt lat="48.74621" lon="2.56892">
        <ele>152.533</ele>
        <time>2018-12-03T10:22:22Z</time>
      </trkpt>
      <trkpt lat="48.74624" lon="2.56899">
        <ele>152.517</ele>
        <time>2018-12-03T10:22:25Z</time>
      </trkpt>
      <trkpt lat="48.74625" lon="2.56906">
        <ele>152.507</ele>
        <time>2018-12-03T10:22:59Z</time>
      </trkpt>
      <trkpt lat="48.74624" lon="2.56914">
        <ele>152.494</ele>
        <time>2018-12-03T10:23:07Z</time>
      </trkpt>
      <trkpt lat="48.74623" lon="2.56923">
        <ele>152.477</ele>
        <time>2018-12-03T10:23:11Z</time>
      </trkpt>
      <trkpt lat="48.74622" lon="2.56927">
        <ele>152.468</ele>
        <time>2018-12-03T10:23:13Z</time>
      </trkpt>
      <trkpt lat="48.74622" lon="2.56931">
        <ele>152.446</ele>
        <time>2018-12-03T10:23:19Z</time>
      </trkpt>
      <trkpt lat="48.74621" lon="2.56937">
        <ele>152.426</ele>
        <time>2018-12-03T10:23:23Z</time>
      </trkpt>
      <trkpt lat="48.74625" lon="2.56941">
        <ele>152.368</ele>
        <time>2018-12-03T10:23:48Z</time>
      </trkpt>
      <trkpt lat="48.74627" lon="2.56944">
        <ele>152.351</ele>
        <time>2018-12-03T10:23:54Z</time>
      </trkpt>
      <trkpt lat="48.74631" lon="2.56948">
        <ele>152.316</ele>
        <time>2018-12-03T10:24:06Z</time>
      </trkpt>
      <trkpt lat="48.74636" lon="2.5695">
        <ele>152.293</ele>
        <time>2018-12-03T10:24:11Z</time>
      </trkpt>
      <trkpt lat="48.74641" lon="2.56953">
        <ele>152.273</ele>
        <time>2018-12-03T10:24:15Z</time>
      </trkpt>
      <trkpt lat="48.74647" lon="2.56952">
        <ele>152.259</ele>
        <time>2018-12-03T10:24:18Z</time>
      </trkpt>
      <trkpt lat="48.74652" lon="2.56953">
        <ele>152.248</ele>
        <time>2018-12-03T10:24:21Z</time>
      </trkpt>
      <trkpt lat="48.74654" lon="2.56954">
        <ele>152.241</ele>
        <time>2018-12-03T10:24:23Z</time>
      </trkpt>
      <trkpt lat="48.74658" lon="2.56958">
        <ele>152.228</ele>
        <time>2018-12-03T10:24:28Z</time>
      </trkpt>
      <trkpt lat="48.74661" lon="2.56963">
        <ele>152.223</ele>
        <time>2018-12-03T10:24:31Z</time>
      </trkpt>
      <trkpt lat="48.74666" lon="2.56966">
        <ele>152.21</ele>
        <time>2018-12-03T10:24:37Z</time>
      </trkpt>
      <trkpt lat="48.74666" lon="2.56966">
        <ele>99</ele>
        <time>2018-12-03T10:24:45Z</time>
      </trkpt>
      <trkpt lat="48.74666" lon="2.56966">
        <ele>99</ele>
        <time>2018-12-03T10:25:20Z</time>
      </trkpt>
      <trkpt lat="48.747" lon="2.56959">
        <ele>152.143</ele>
        <time>2018-12-03T10:25:20Z</time>
      </trkpt>
      <trkpt lat="48.74703" lon="2.56959">
        <ele>152.141</ele>
        <time>2018-12-03T10:25:22Z</time>
      </trkpt>
      <trkpt lat="48.74705" lon="2.56959">
        <ele>152.14</ele>
        <time>2018-12-03T10:25:24Z</time>
      </trkpt>
      <trkpt lat="48.74708" lon="2.5696">
        <ele>152.139</ele>
        <time>2018-12-03T10:25:26Z</time>
      </trkpt>
      <trkpt lat="48.74714" lon="2.5696">
        <ele>152.135</ele>
        <time>2018-12-03T10:25:31Z</time>
      </trkpt>
      <trkpt lat="48.74719" lon="2.56962">
        <ele>152.132</ele>
        <time>2018-12-03T10:25:34Z</time>
      </trkpt>
      <trkpt lat="48.74722" lon="2.56964">
        <ele>152.129</ele>
        <time>2018-12-03T10:25:36Z</time>
      </trkpt>
      <trkpt lat="48.74726" lon="2.56965">
        <ele>152.127</ele>
        <time>2018-12-03T10:25:37Z</time>
      </trkpt>
      <trkpt lat="48.74731" lon="2.56966">
        <ele>152.122</ele>
        <time>2018-12-03T10:25:40Z</time>
      </trkpt>
      <trkpt lat="48.74738" lon="2.56964">
        <ele>152.11</ele>
        <time>2018-12-03T10:25:46Z</time>
      </trkpt>
      <trkpt lat="48.74744" lon="2.56964">
        <ele>152.104</ele>
        <time>2018-12-03T10:25:49Z</time>
      </trkpt>
      <trkpt lat="48.74747" lon="2.56964">
        <ele>152.102</ele>
        <time>2018-12-03T10:25:50Z</time>
      </trkpt>
      <trkpt lat="48.74747" lon="2.56964">
        <ele>100</ele>
        <time>2018-12-03T10:25:56Z</time>
      </trkpt>
      <trkpt lat="48.74747" lon="2.56964">
        <ele>100</ele>
        <time>2018-12-03T10:26:01Z</time>
      </trkpt>
      <trkpt lat="48.74753" lon="2.56965">
        <ele>152.084</ele>
        <time>2018-12-03T10:26:01Z</time>
      </trkpt>
      <trkpt lat="48.7476" lon="2.56965">
        <ele>152.071</ele>
        <time>2018-12-03T10:26:09Z</time>
      </trkpt>
      <trkpt lat="48.74763" lon="2.56965">
        <ele>152.067</ele>
        <time>2018-12-03T10:26:12Z</time>
      </trkpt>
      <trkpt lat="48.74763" lon="2.56965">
        <ele>100</ele>
        <time>2018-12-03T10:26:20Z</time>
      </trkpt>
      <trkpt lat="48.74763" lon="2.56965">
        <ele>100</ele>
        <time>2018-12-03T10:26:25Z</time>
      </trkpt>
      <trkpt lat="48.74774" lon="2.5697">
        <ele>152.056</ele>
        <time>2018-12-03T10:26:25Z</time>
      </trkpt>
      <trkpt lat="48.74774" lon="2.5697">
        <ele>152.056</ele>
        <time>2018-12-03T10:26:32Z</time>
      </trkpt>
      <trkpt lat="48.74774" lon="2.5697">
        <ele>100</ele>
        <time>2018-12-03T10:26:32Z</time>
      </trkpt>
      <trkpt lat="48.74774" lon="2.5697">
        <ele>100</ele>
        <time>2018-12-03T10:26:46Z</time>
      </trkpt>
      <trkpt lat="48.74787" lon="2.56968">
        <ele>152.07</ele>
        <time>2018-12-03T10:26:46Z</time>
      </trkpt>
      <trkpt lat="48.74792" lon="2.56969">
        <ele>152.075</ele>
        <time>2018-12-03T10:26:49Z</time>
      </trkpt>
      <trkpt lat="48.74794" lon="2.56969">
        <ele>152.077</ele>
        <time>2018-12-03T10:26:50Z</time>
      </trkpt>
      <trkpt lat="48.74797" lon="2.5697">
        <ele>152.083</ele>
        <time>2018-12-03T10:26:53Z</time>
      </trkpt>
      <trkpt lat="48.748" lon="2.5697">
        <ele>152.083</ele>
        <time>2018-12-03T10:26:54Z</time>
      </trkpt>
      <trkpt lat="48.74805" lon="2.56972">
        <ele>152.091</ele>
        <time>2018-12-03T10:26:58Z</time>
      </trkpt>
      <trkpt lat="48.74808" lon="2.56973">
        <ele>152.094</ele>
        <time>2018-12-03T10:27:00Z</time>
      </trkpt>
      <trkpt lat="48.7481" lon="2.56974">
        <ele>152.098</ele>
        <time>2018-12-03T10:27:02Z</time>
      </trkpt>
      <trkpt lat="48.74817" lon="2.56974">
        <ele>152.103</ele>
        <time>2018-12-03T10:27:05Z</time>
      </trkpt>
      <trkpt lat="48.74821" lon="2.56971">
        <ele>152.106</ele>
        <time>2018-12-03T10:27:07Z</time>
      </trkpt>
      <trkpt lat="48.74824" lon="2.5697">
        <ele>152.111</ele>
        <time>2018-12-03T10:27:10Z</time>
      </trkpt>
      <trkpt lat="48.74827" lon="2.56964">
        <ele>152.118</ele>
        <time>2018-12-03T10:27:14Z</time>
      </trkpt>
      <trkpt lat="48.74828" lon="2.56956">
        <ele>152.125</ele>
        <time>2018-12-03T10:27:17Z</time>
      </trkpt>
      <trkpt lat="48.74828" lon="2.56956">
        <ele>100</ele>
        <time>2018-12-03T10:27:24Z</time>
      </trkpt>
      <trkpt lat="48.74828" lon="2.56956">
        <ele>100</ele>
        <time>2018-12-03T10:27:30Z</time>
      </trkpt>
      <trkpt lat="48.74831" lon="2.56942">
        <ele>152.145</ele>
        <time>2018-12-03T10:27:30Z</time>
      </trkpt>
      <trkpt lat="48.74833" lon="2.56934">
        <ele>152.148</ele>
        <time>2018-12-03T10:27:33Z</time>
      </trkpt>
      <trkpt lat="48.74835" lon="2.5693">
        <ele>152.15</ele>
        <time>2018-12-03T10:27:34Z</time>
      </trkpt>
      <trkpt lat="48.74836" lon="2.56927">
        <ele>152.152</ele>
        <time>2018-12-03T10:27:36Z</time>
      </trkpt>
      <trkpt lat="48.74838" lon="2.56921">
        <ele>152.157</ele>
        <time>2018-12-03T10:27:39Z</time>
      </trkpt>
      <trkpt lat="48.7484" lon="2.56917">
        <ele>152.162</ele>
        <time>2018-12-03T10:27:42Z</time>
      </trkpt>
      <trkpt lat="48.7484" lon="2.56917">
        <ele>152.162</ele>
        <time>2018-12-03T10:30:07Z</time>
      </trkpt>
      <trkpt lat="48.74845" lon="2.5688">
        <ele>152.088</ele>
        <time>2018-12-03T10:30:08Z</time>
      </trkpt>
      <trkpt lat="48.74846" lon="2.56872">
        <ele>152.038</ele>
        <time>2018-12-03T10:30:14Z</time>
      </trkpt>
      <trkpt lat="48.74846" lon="2.56868">
        <ele>152.021</ele>
        <time>2018-12-03T10:30:16Z</time>
      </trkpt>
      <trkpt lat="48.74847" lon="2.56861">
        <ele>151.988</ele>
        <time>2018-12-03T10:30:20Z</time>
      </trkpt>
      <trkpt lat="48.74848" lon="2.56854">
        <ele>151.957</ele>
        <time>2018-12-03T10:30:24Z</time>
      </trkpt>
      <trkpt lat="48.74849" lon="2.5685">
        <ele>151.943</ele>
        <time>2018-12-03T10:30:26Z</time>
      </trkpt>
      <trkpt lat="48.7485" lon="2.56846">
        <ele>151.93</ele>
        <time>2018-12-03T10:30:28Z</time>
      </trkpt>
      <trkpt lat="48.7485" lon="2.56846">
        <ele>100.6</ele>
        <time>2018-12-03T10:30:37Z</time>
      </trkpt>
      <trkpt lat="48.7485" lon="2.56846">
        <ele>100.6</ele>
        <time>2018-12-03T10:31:37Z</time>
      </trkpt>
      <trkpt lat="48.74874" lon="2.56867">
        <ele>151.656</ele>
        <time>2018-12-03T10:31:37Z</time>
      </trkpt>
      <trkpt lat="48.74888" lon="2.5687">
        <ele>151.608</ele>
        <time>2018-12-03T10:31:41Z</time>
      </trkpt>
      <trkpt lat="48.74891" lon="2.5687">
        <ele>151.585</ele>
        <time>2018-12-03T10:31:43Z</time>
      </trkpt>
      <trkpt lat="48.74896" lon="2.56874">
        <ele>151.53</ele>
        <time>2018-12-03T10:31:48Z</time>
      </trkpt>
      <trkpt lat="48.749" lon="2.56879">
        <ele>151.48</ele>
        <time>2018-12-03T10:31:53Z</time>
      </trkpt>
      <trkpt lat="48.74905" lon="2.56882">
        <ele>151.465</ele>
        <time>2018-12-03T10:31:56Z</time>
      </trkpt>
      <trkpt lat="48.74905" lon="2.56882">
        <ele>100.7</ele>
        <time>2018-12-03T10:32:04Z</time>
      </trkpt>
      <trkpt lat="48.74905" lon="2.56882">
        <ele>100.7</ele>
        <time>2018-12-03T10:32:12Z</time>
      </trkpt>
      <trkpt lat="48.74916" lon="2.56883">
        <ele>151.423</ele>
        <time>2018-12-03T10:32:12Z</time>
      </trkpt>
      <trkpt lat="48.74919" lon="2.56885">
        <ele>151.416</ele>
        <time>2018-12-03T10:32:14Z</time>
      </trkpt>
      <trkpt lat="48.74924" lon="2.56888">
        <ele>151.407</ele>
        <time>2018-12-03T10:32:17Z</time>
      </trkpt>
      <trkpt lat="48.74924" lon="2.56888">
        <ele>101</ele>
        <time>2018-12-03T10:32:24Z</time>
      </trkpt>
      <trkpt lat="48.74924" lon="2.56888">
        <ele>101</ele>
        <time>2018-12-03T10:32:34Z</time>
      </trkpt>
      <trkpt lat="48.74932" lon="2.56888">
        <ele>151.317</ele>
        <time>2018-12-03T10:32:34Z</time>
      </trkpt>
      <trkpt lat="48.74938" lon="2.56895">
        <ele>151.303</ele>
        <time>2018-12-03T10:32:37Z</time>
      </trkpt>
      <trkpt lat="48.74945" lon="2.56892">
        <ele>151.267</ele>
        <time>2018-12-03T10:32:45Z</time>
      </trkpt>
      <trkpt lat="48.7495" lon="2.56892">
        <ele>151.254</ele>
        <time>2018-12-03T10:32:48Z</time>
      </trkpt>
      <trkpt lat="48.7495" lon="2.56892">
        <ele>151.254</ele>
        <time>2018-12-03T10:32:55Z</time>
      </trkpt>
      <trkpt lat="48.7495" lon="2.56892">
        <ele>101</ele>
        <time>2018-12-03T10:32:55Z</time>
      </trkpt>
      <trkpt lat="48.7495" lon="2.56892">
        <ele>101</ele>
        <time>2018-12-03T10:33:00Z</time>
      </trkpt>
      <trkpt lat="48.74957" lon="2.56902">
        <ele>151.207</ele>
        <time>2018-12-03T10:33:00Z</time>
      </trkpt>
      <trkpt lat="48.74962" lon="2.56905">
        <ele>151.192</ele>
        <time>2018-12-03T10:33:03Z</time>
      </trkpt>
      <trkpt lat="48.74965" lon="2.56913">
        <ele>151.182</ele>
        <time>2018-12-03T10:33:05Z</time>
      </trkpt>
      <trkpt lat="48.74969" lon="2.56921">
        <ele>151.167</ele>
        <time>2018-12-03T10:33:08Z</time>
      </trkpt>
      <trkpt lat="48.7497" lon="2.56924">
        <ele>151.162</ele>
        <time>2018-12-03T10:33:09Z</time>
      </trkpt>
      <trkpt lat="48.74973" lon="2.5693">
        <ele>151.149</ele>
        <time>2018-12-03T10:33:12Z</time>
      </trkpt>
      <trkpt lat="48.74974" lon="2.56934">
        <ele>151.139</ele>
        <time>2018-12-03T10:33:15Z</time>
      </trkpt>
      <trkpt lat="48.74976" lon="2.56937">
        <ele>151.131</ele>
        <time>2018-12-03T10:33:19Z</time>
      </trkpt>
      <trkpt lat="48.74979" lon="2.56941">
        <ele>151.126</ele>
        <time>2018-12-03T10:33:22Z</time>
      </trkpt>
      <trkpt lat="48.74984" lon="2.56943">
        <ele>151.118</ele>
        <time>2018-12-03T10:33:28Z</time>
      </trkpt>
      <trkpt lat="48.74988" lon="2.56944">
        <ele>151.11</ele>
        <time>2018-12-03T10:33:34Z</time>
      </trkpt>
      <trkpt lat="48.74991" lon="2.56948">
        <ele>151.106</ele>
        <time>2018-12-03T10:33:37Z</time>
      </trkpt>
      <trkpt lat="48.74996" lon="2.56951">
        <ele>151.094</ele>
        <time>2018-12-03T10:33:42Z</time>
      </trkpt>
      <trkpt lat="48.75003" lon="2.56953">
        <ele>151.088</ele>
        <time>2018-12-03T10:33:45Z</time>
      </trkpt>
      <trkpt lat="48.75006" lon="2.56954">
        <ele>151.084</ele>
        <time>2018-12-03T10:33:47Z</time>
      </trkpt>
      <trkpt lat="48.75011" lon="2.56956">
        <ele>151.081</ele>
        <time>2018-12-03T10:33:49Z</time>
      </trkpt>
      <trkpt lat="48.75011" lon="2.56956">
        <ele>101</ele>
        <time>2018-12-03T10:33:55Z</time>
      </trkpt>
      <trkpt lat="48.75011" lon="2.56956">
        <ele>101</ele>
        <time>2018-12-03T10:34:10Z</time>
      </trkpt>
      <trkpt lat="48.75026" lon="2.5697">
        <ele>151.067</ele>
        <time>2018-12-03T10:34:10Z</time>
      </trkpt>
      <trkpt lat="48.7503" lon="2.56973">
        <ele>151.055</ele>
        <time>2018-12-03T10:34:16Z</time>
      </trkpt>
      <trkpt lat="48.75034" lon="2.56978">
        <ele>151.049</ele>
        <time>2018-12-03T10:34:19Z</time>
      </trkpt>
      <trkpt lat="48.75036" lon="2.56982">
        <ele>151.042</ele>
        <time>2018-12-03T10:34:22Z</time>
      </trkpt>
      <trkpt lat="48.75036" lon="2.56982">
        <ele>151.042</ele>
        <time>2018-12-03T10:34:29Z</time>
      </trkpt>
      <trkpt lat="48.75036" lon="2.56982">
        <ele>101</ele>
        <time>2018-12-03T10:34:29Z</time>
      </trkpt>
      <trkpt lat="48.75036" lon="2.56982">
        <ele>101</ele>
        <time>2018-12-03T10:34:40Z</time>
      </trkpt>
      <trkpt lat="48.75047" lon="2.56989">
        <ele>151.029</ele>
        <time>2018-12-03T10:34:40Z</time>
      </trkpt>
      <trkpt lat="48.75053" lon="2.56993">
        <ele>151.025</ele>
        <time>2018-12-03T10:34:44Z</time>
      </trkpt>
      <trkpt lat="48.75055" lon="2.56994">
        <ele>151.022</ele>
        <time>2018-12-03T10:34:46Z</time>
      </trkpt>
      <trkpt lat="48.75061" lon="2.56995">
        <ele>151.017</ele>
        <time>2018-12-03T10:34:52Z</time>
      </trkpt>
      <trkpt lat="48.75065" lon="2.56996">
        <ele>151.013</ele>
        <time>2018-12-03T10:34:59Z</time>
      </trkpt>
      <trkpt lat="48.75071" lon="2.56997">
        <ele>151.008</ele>
        <time>2018-12-03T10:35:01Z</time>
      </trkpt>
      <trkpt lat="48.75075" lon="2.57001">
        <ele>151.001</ele>
        <time>2018-12-03T10:35:04Z</time>
      </trkpt>
      <trkpt lat="48.7508" lon="2.57002">
        <ele>150.991</ele>
        <time>2018-12-03T10:35:07Z</time>
      </trkpt>
      <trkpt lat="48.75089" lon="2.57002">
        <ele>150.976</ele>
        <time>2018-12-03T10:35:12Z</time>
      </trkpt>
      <trkpt lat="48.75094" lon="2.57007">
        <ele>150.958</ele>
        <time>2018-12-03T10:35:20Z</time>
      </trkpt>
      <trkpt lat="48.75097" lon="2.57009">
        <ele>150.954</ele>
        <time>2018-12-03T10:35:21Z</time>
      </trkpt>
      <trkpt lat="48.75102" lon="2.57008">
        <ele>150.939</ele>
        <time>2018-12-03T10:35:24Z</time>
      </trkpt>
      <trkpt lat="48.75104" lon="2.57008">
        <ele>150.93</ele>
        <time>2018-12-03T10:35:26Z</time>
      </trkpt>
      <trkpt lat="48.75104" lon="2.57008">
        <ele>150.93</ele>
        <time>2018-12-03T10:35:32Z</time>
      </trkpt>
      <trkpt lat="48.75104" lon="2.57008">
        <ele>101</ele>
        <time>2018-12-03T10:35:32Z</time>
      </trkpt>
      <trkpt lat="48.75104" lon="2.57008">
        <ele>101</ele>
        <time>2018-12-03T10:35:39Z</time>
      </trkpt>
      <trkpt lat="48.75117" lon="2.57021">
        <ele>150.88</ele>
        <time>2018-12-03T10:35:39Z</time>
      </trkpt>
      <trkpt lat="48.7512" lon="2.57024">
        <ele>150.874</ele>
        <time>2018-12-03T10:35:40Z</time>
      </trkpt>
      <trkpt lat="48.7512" lon="2.57024">
        <ele>101</ele>
        <time>2018-12-03T10:35:46Z</time>
      </trkpt>
      <trkpt lat="48.7512" lon="2.57024">
        <ele>101</ele>
        <time>2018-12-03T10:35:53Z</time>
      </trkpt>
      <trkpt lat="48.75126" lon="2.57032">
        <ele>150.817</ele>
        <time>2018-12-03T10:35:53Z</time>
      </trkpt>
      <trkpt lat="48.75133" lon="2.5703">
        <ele>150.794</ele>
        <time>2018-12-03T10:35:59Z</time>
      </trkpt>
      <trkpt lat="48.75138" lon="2.57029">
        <ele>150.771</ele>
        <time>2018-12-03T10:36:04Z</time>
      </trkpt>
      <trkpt lat="48.75143" lon="2.57027">
        <ele>150.755</ele>
        <time>2018-12-03T10:36:08Z</time>
      </trkpt>
      <trkpt lat="48.75149" lon="2.57032">
        <ele>150.744</ele>
        <time>2018-12-03T10:36:10Z</time>
      </trkpt>
      <trkpt lat="48.75152" lon="2.57038">
        <ele>150.727</ele>
        <time>2018-12-03T10:36:13Z</time>
      </trkpt>
      <trkpt lat="48.75154" lon="2.57045">
        <ele>150.698</ele>
        <time>2018-12-03T10:36:18Z</time>
      </trkpt>
      <trkpt lat="48.75159" lon="2.57051">
        <ele>150.664</ele>
        <time>2018-12-03T10:36:24Z</time>
      </trkpt>
      <trkpt lat="48.75161" lon="2.57053">
        <ele>150.658</ele>
        <time>2018-12-03T10:36:25Z</time>
      </trkpt>
      <trkpt lat="48.75166" lon="2.57056">
        <ele>150.611</ele>
        <time>2018-12-03T10:36:33Z</time>
      </trkpt>
      <trkpt lat="48.7517" lon="2.5706">
        <ele>150.583</ele>
        <time>2018-12-03T10:36:38Z</time>
      </trkpt>
      <trkpt lat="48.75172" lon="2.57067">
        <ele>150.567</ele>
        <time>2018-12-03T10:36:41Z</time>
      </trkpt>
      <trkpt lat="48.75174" lon="2.57071">
        <ele>150.557</ele>
        <time>2018-12-03T10:36:43Z</time>
      </trkpt>
      <trkpt lat="48.75175" lon="2.57075">
        <ele>150.547</ele>
        <time>2018-12-03T10:36:45Z</time>
      </trkpt>
      <trkpt lat="48.75177" lon="2.57079">
        <ele>150.532</ele>
        <time>2018-12-03T10:36:48Z</time>
      </trkpt>
      <trkpt lat="48.75179" lon="2.57087">
        <ele>150.508</ele>
        <time>2018-12-03T10:36:53Z</time>
      </trkpt>
      <trkpt lat="48.75181" lon="2.57093">
        <ele>150.484</ele>
        <time>2018-12-03T10:36:58Z</time>
      </trkpt>
      <trkpt lat="48.75181" lon="2.571">
        <ele>150.469</ele>
        <time>2018-12-03T10:37:02Z</time>
      </trkpt>
      <trkpt lat="48.75182" lon="2.57105">
        <ele>150.462</ele>
        <time>2018-12-03T10:37:05Z</time>
      </trkpt>
      <trkpt lat="48.75182" lon="2.57105">
        <ele>101</ele>
        <time>2018-12-03T10:37:13Z</time>
      </trkpt>
      <trkpt lat="48.75182" lon="2.57105">
        <ele>101</ele>
        <time>2018-12-03T10:37:19Z</time>
      </trkpt>
      <trkpt lat="48.75189" lon="2.57116">
        <ele>150.445</ele>
        <time>2018-12-03T10:37:19Z</time>
      </trkpt>
      <trkpt lat="48.75189" lon="2.57123">
        <ele>150.442</ele>
        <time>2018-12-03T10:37:24Z</time>
      </trkpt>
      <trkpt lat="48.7519" lon="2.57131">
        <ele>150.441</ele>
        <time>2018-12-03T10:37:27Z</time>
      </trkpt>
      <trkpt lat="48.7519" lon="2.57138">
        <ele>150.445</ele>
        <time>2018-12-03T10:37:31Z</time>
      </trkpt>
      <trkpt lat="48.75189" lon="2.57143">
        <ele>150.45</ele>
        <time>2018-12-03T10:37:35Z</time>
      </trkpt>
      <trkpt lat="48.75188" lon="2.5715">
        <ele>150.454</ele>
        <time>2018-12-03T10:37:37Z</time>
      </trkpt>
      <trkpt lat="48.75188" lon="2.57154">
        <ele>150.456</ele>
        <time>2018-12-03T10:37:38Z</time>
      </trkpt>
      <trkpt lat="48.75187" lon="2.57158">
        <ele>150.46</ele>
        <time>2018-12-03T10:37:40Z</time>
      </trkpt>
      <trkpt lat="48.75188" lon="2.57165">
        <ele>150.466</ele>
        <time>2018-12-03T10:37:43Z</time>
      </trkpt>
      <trkpt lat="48.75191" lon="2.57172">
        <ele>150.473</ele>
        <time>2018-12-03T10:37:46Z</time>
      </trkpt>
      <trkpt lat="48.75193" lon="2.5718">
        <ele>150.483</ele>
        <time>2018-12-03T10:37:50Z</time>
      </trkpt>
      <trkpt lat="48.75196" lon="2.57187">
        <ele>150.504</ele>
        <time>2018-12-03T10:37:56Z</time>
      </trkpt>
      <trkpt lat="48.75197" lon="2.57194">
        <ele>150.521</ele>
        <time>2018-12-03T10:38:01Z</time>
      </trkpt>
      <trkpt lat="48.75198" lon="2.57201">
        <ele>150.539</ele>
        <time>2018-12-03T10:38:05Z</time>
      </trkpt>
      <trkpt lat="48.752" lon="2.57209">
        <ele>150.563</ele>
        <time>2018-12-03T10:38:10Z</time>
      </trkpt>
      <trkpt lat="48.75201" lon="2.57216">
        <ele>150.581</ele>
        <time>2018-12-03T10:38:13Z</time>
      </trkpt>
      <trkpt lat="48.752" lon="2.57224">
        <ele>150.616</ele>
        <time>2018-12-03T10:38:18Z</time>
      </trkpt>
      <trkpt lat="48.75197" lon="2.57231">
        <ele>150.665</ele>
        <time>2018-12-03T10:38:23Z</time>
      </trkpt>
      <trkpt lat="48.75196" lon="2.57234">
        <ele>150.696</ele>
        <time>2018-12-03T10:38:26Z</time>
      </trkpt>
      <trkpt lat="48.75195" lon="2.57237">
        <ele>150.719</ele>
        <time>2018-12-03T10:38:28Z</time>
      </trkpt>
      <trkpt lat="48.75192" lon="2.57243">
        <ele>150.746</ele>
        <time>2018-12-03T10:38:31Z</time>
      </trkpt>
      <trkpt lat="48.75191" lon="2.5725">
        <ele>150.799</ele>
        <time>2018-12-03T10:38:36Z</time>
      </trkpt>
      <trkpt lat="48.7519" lon="2.5726">
        <ele>150.875</ele>
        <time>2018-12-03T10:38:42Z</time>
      </trkpt>
      <trkpt lat="48.75191" lon="2.57269">
        <ele>150.912</ele>
        <time>2018-12-03T10:38:45Z</time>
      </trkpt>
      <trkpt lat="48.75192" lon="2.57272">
        <ele>150.938</ele>
        <time>2018-12-03T10:38:47Z</time>
      </trkpt>
      <trkpt lat="48.75194" lon="2.57279">
        <ele>151.035</ele>
        <time>2018-12-03T10:38:54Z</time>
      </trkpt>
      <trkpt lat="48.75195" lon="2.57287">
        <ele>151.066</ele>
        <time>2018-12-03T10:38:56Z</time>
      </trkpt>
      <trkpt lat="48.75197" lon="2.57294">
        <ele>151.101</ele>
        <time>2018-12-03T10:38:59Z</time>
      </trkpt>
      <trkpt lat="48.75197" lon="2.57294">
        <ele>101</ele>
        <time>2018-12-03T10:39:04Z</time>
      </trkpt>
      <trkpt lat="48.75197" lon="2.57294">
        <ele>101</ele>
        <time>2018-12-03T10:39:10Z</time>
      </trkpt>
      <trkpt lat="48.75206" lon="2.57299">
        <ele>151.251</ele>
        <time>2018-12-03T10:39:10Z</time>
      </trkpt>
      <trkpt lat="48.75209" lon="2.573">
        <ele>151.271</ele>
        <time>2018-12-03T10:39:11Z</time>
      </trkpt>
      <trkpt lat="48.75213" lon="2.57305">
        <ele>151.351</ele>
        <time>2018-12-03T10:39:15Z</time>
      </trkpt>
      <trkpt lat="48.75214" lon="2.57311">
        <ele>151.493</ele>
        <time>2018-12-03T10:39:23Z</time>
      </trkpt>
      <trkpt lat="48.75218" lon="2.5732">
        <ele>151.605</ele>
        <time>2018-12-03T10:39:28Z</time>
      </trkpt>
      <trkpt lat="48.7522" lon="2.57328">
        <ele>151.671</ele>
        <time>2018-12-03T10:39:32Z</time>
      </trkpt>
      <trkpt lat="48.75219" lon="2.57337">
        <ele>151.735</ele>
        <time>2018-12-03T10:39:36Z</time>
      </trkpt>
      <trkpt lat="48.75219" lon="2.57337">
        <ele>151.735</ele>
        <time>2018-12-03T10:39:43Z</time>
      </trkpt>
      <trkpt lat="48.75219" lon="2.57337">
        <ele>101.1</ele>
        <time>2018-12-03T10:39:43Z</time>
      </trkpt>
      <trkpt lat="48.75219" lon="2.57337">
        <ele>101.1</ele>
        <time>2018-12-03T10:39:47Z</time>
      </trkpt>
      <trkpt lat="48.75216" lon="2.57351">
        <ele>151.938</ele>
        <time>2018-12-03T10:39:47Z</time>
      </trkpt>
      <trkpt lat="48.75215" lon="2.57355">
        <ele>151.956</ele>
        <time>2018-12-03T10:39:48Z</time>
      </trkpt>
      <trkpt lat="48.75213" lon="2.57358">
        <ele>152.041</ele>
        <time>2018-12-03T10:39:53Z</time>
      </trkpt>
      <trkpt lat="48.75213" lon="2.57358">
        <ele>101.6</ele>
        <time>2018-12-03T10:39:58Z</time>
      </trkpt>
      <trkpt lat="48.75213" lon="2.57358">
        <ele>101.6</ele>
        <time>2018-12-03T10:40:03Z</time>
      </trkpt>
      <trkpt lat="48.75215" lon="2.57372">
        <ele>152.175</ele>
        <time>2018-12-03T10:40:03Z</time>
      </trkpt>
      <trkpt lat="48.75221" lon="2.57367">
        <ele>152.266</ele>
        <time>2018-12-03T10:40:09Z</time>
      </trkpt>
      <trkpt lat="48.75224" lon="2.57365">
        <ele>152.307</ele>
        <time>2018-12-03T10:40:12Z</time>
      </trkpt>
      <trkpt lat="48.75227" lon="2.5736">
        <ele>152.357</ele>
        <time>2018-12-03T10:40:16Z</time>
      </trkpt>
      <trkpt lat="48.7523" lon="2.57355">
        <ele>152.39</ele>
        <time>2018-12-03T10:40:20Z</time>
      </trkpt>
      <trkpt lat="48.75232" lon="2.57352">
        <ele>152.418</ele>
        <time>2018-12-03T10:40:23Z</time>
      </trkpt>
      <trkpt lat="48.75233" lon="2.57349">
        <ele>152.427</ele>
        <time>2018-12-03T10:40:24Z</time>
      </trkpt>
      <trkpt lat="48.75235" lon="2.57345">
        <ele>152.443</ele>
        <time>2018-12-03T10:40:26Z</time>
      </trkpt>
      <trkpt lat="48.75238" lon="2.57339">
        <ele>152.459</ele>
        <time>2018-12-03T10:40:28Z</time>
      </trkpt>
      <trkpt lat="48.7524" lon="2.57333">
        <ele>152.482</ele>
        <time>2018-12-03T10:40:31Z</time>
      </trkpt>
      <trkpt lat="48.75243" lon="2.57327">
        <ele>152.504</ele>
        <time>2018-12-03T10:40:34Z</time>
      </trkpt>
      <trkpt lat="48.75244" lon="2.57324">
        <ele>152.517</ele>
        <time>2018-12-03T10:40:36Z</time>
      </trkpt>
      <trkpt lat="48.75247" lon="2.57318">
        <ele>152.545</ele>
        <time>2018-12-03T10:40:40Z</time>
      </trkpt>
      <trkpt lat="48.7525" lon="2.57313">
        <ele>152.572</ele>
        <time>2018-12-03T10:40:44Z</time>
      </trkpt>
      <trkpt lat="48.75252" lon="2.57307">
        <ele>152.59</ele>
        <time>2018-12-03T10:40:48Z</time>
      </trkpt>
      <trkpt lat="48.75252" lon="2.57307">
        <ele>101</ele>
        <time>2018-12-03T10:40:55Z</time>
      </trkpt>
      <trkpt lat="48.75252" lon="2.57307">
        <ele>101</ele>
        <time>2018-12-03T10:40:59Z</time>
      </trkpt>
      <trkpt lat="48.75256" lon="2.57301">
        <ele>152.632</ele>
        <time>2018-12-03T10:40:59Z</time>
      </trkpt>
      <trkpt lat="48.75258" lon="2.57298">
        <ele>152.634</ele>
        <time>2018-12-03T10:41:00Z</time>
      </trkpt>
      <trkpt lat="48.75261" lon="2.57292">
        <ele>152.64</ele>
        <time>2018-12-03T10:41:03Z</time>
      </trkpt>
      <trkpt lat="48.75265" lon="2.57284">
        <ele>152.645</ele>
        <time>2018-12-03T10:41:06Z</time>
      </trkpt>
      <trkpt lat="48.75268" lon="2.57278">
        <ele>152.649</ele>
        <time>2018-12-03T10:41:10Z</time>
      </trkpt>
      <trkpt lat="48.7527" lon="2.57274">
        <ele>152.649</ele>
        <time>2018-12-03T10:41:12Z</time>
      </trkpt>
      <trkpt lat="48.75273" lon="2.57268">
        <ele>152.65</ele>
        <time>2018-12-03T10:41:15Z</time>
      </trkpt>
      <trkpt lat="48.75277" lon="2.57262">
        <ele>152.647</ele>
        <time>2018-12-03T10:41:19Z</time>
      </trkpt>
      <trkpt lat="48.75279" lon="2.57253">
        <ele>152.643</ele>
        <time>2018-12-03T10:41:23Z</time>
      </trkpt>
      <trkpt lat="48.75279" lon="2.57249">
        <ele>152.644</ele>
        <time>2018-12-03T10:41:24Z</time>
      </trkpt>
      <trkpt lat="48.7528" lon="2.57245">
        <ele>152.644</ele>
        <time>2018-12-03T10:41:25Z</time>
      </trkpt>
      <trkpt lat="48.75283" lon="2.57237">
        <ele>152.648</ele>
        <time>2018-12-03T10:41:29Z</time>
      </trkpt>
      <trkpt lat="48.75284" lon="2.57231">
        <ele>152.651</ele>
        <time>2018-12-03T10:41:32Z</time>
      </trkpt>
      <trkpt lat="48.75286" lon="2.57226">
        <ele>152.657</ele>
        <time>2018-12-03T10:41:37Z</time>
      </trkpt>
      <trkpt lat="48.75289" lon="2.57218">
        <ele>152.662</ele>
        <time>2018-12-03T10:41:40Z</time>
      </trkpt>
      <trkpt lat="48.75292" lon="2.57209">
        <ele>152.675</ele>
        <time>2018-12-03T10:41:45Z</time>
      </trkpt>
      <trkpt lat="48.75295" lon="2.57202">
        <ele>152.688</ele>
        <time>2018-12-03T10:41:49Z</time>
      </trkpt>
      <trkpt lat="48.75296" lon="2.57199">
        <ele>152.704</ele>
        <time>2018-12-03T10:41:53Z</time>
      </trkpt>
      <trkpt lat="48.753" lon="2.57195">
        <ele>152.719</ele>
        <time>2018-12-03T10:41:57Z</time>
      </trkpt>
      <trkpt lat="48.75302" lon="2.57192">
        <ele>152.729</ele>
        <time>2018-12-03T10:42:00Z</time>
      </trkpt>
      <trkpt lat="48.75304" lon="2.57189">
        <ele>152.735</ele>
        <time>2018-12-03T10:42:02Z</time>
      </trkpt>
      <trkpt lat="48.75307" lon="2.57184">
        <ele>152.746</ele>
        <time>2018-12-03T10:42:07Z</time>
      </trkpt>
      <trkpt lat="48.75311" lon="2.57181">
        <ele>152.753</ele>
        <time>2018-12-03T10:42:11Z</time>
      </trkpt>
      <trkpt lat="48.75313" lon="2.57174">
        <ele>152.76</ele>
        <time>2018-12-03T10:42:15Z</time>
      </trkpt>
      <trkpt lat="48.75315" lon="2.57171">
        <ele>152.762</ele>
        <time>2018-12-03T10:42:16Z</time>
      </trkpt>
      <trkpt lat="48.75318" lon="2.57165">
        <ele>152.774</ele>
        <time>2018-12-03T10:42:21Z</time>
      </trkpt>
      <trkpt lat="48.7532" lon="2.57158">
        <ele>152.777</ele>
        <time>2018-12-03T10:42:23Z</time>
      </trkpt>
      <trkpt lat="48.75324" lon="2.57152">
        <ele>152.785</ele>
        <time>2018-12-03T10:42:27Z</time>
      </trkpt>
      <trkpt lat="48.75327" lon="2.57144">
        <ele>152.79</ele>
        <time>2018-12-03T10:42:30Z</time>
      </trkpt>
      <trkpt lat="48.75328" lon="2.57137">
        <ele>152.796</ele>
        <time>2018-12-03T10:42:33Z</time>
      </trkpt>
      <trkpt lat="48.75331" lon="2.57131">
        <ele>152.801</ele>
        <time>2018-12-03T10:42:37Z</time>
      </trkpt>
      <trkpt lat="48.75333" lon="2.57127">
        <ele>152.804</ele>
        <time>2018-12-03T10:42:40Z</time>
      </trkpt>
      <trkpt lat="48.75333" lon="2.57127">
        <ele>101</ele>
        <time>2018-12-03T10:42:45Z</time>
      </trkpt>
      <trkpt lat="48.75333" lon="2.57127">
        <ele>101</ele>
        <time>2018-12-03T10:42:48Z</time>
      </trkpt>
      <trkpt lat="48.75337" lon="2.57117">
        <ele>152.808</ele>
        <time>2018-12-03T10:42:48Z</time>
      </trkpt>
      <trkpt lat="48.7534" lon="2.57112">
        <ele>152.81</ele>
        <time>2018-12-03T10:42:51Z</time>
      </trkpt>
      <trkpt lat="48.75342" lon="2.57108">
        <ele>152.815</ele>
        <time>2018-12-03T10:42:56Z</time>
      </trkpt>
      <trkpt lat="48.75344" lon="2.57104">
        <ele>152.82</ele>
        <time>2018-12-03T10:42:59Z</time>
      </trkpt>
      <trkpt lat="48.75346" lon="2.57097">
        <ele>152.825</ele>
        <time>2018-12-03T10:43:02Z</time>
      </trkpt>
      <trkpt lat="48.75347" lon="2.57093">
        <ele>152.828</ele>
        <time>2018-12-03T10:43:04Z</time>
      </trkpt>
      <trkpt lat="48.75351" lon="2.57087">
        <ele>152.832</ele>
        <time>2018-12-03T10:43:08Z</time>
      </trkpt>
      <trkpt lat="48.75354" lon="2.57083">
        <ele>152.831</ele>
        <time>2018-12-03T10:43:12Z</time>
      </trkpt>
      <trkpt lat="48.75357" lon="2.57077">
        <ele>152.826</ele>
        <time>2018-12-03T10:43:17Z</time>
      </trkpt>
      <trkpt lat="48.75358" lon="2.57074">
        <ele>152.825</ele>
        <time>2018-12-03T10:43:18Z</time>
      </trkpt>
      <trkpt lat="48.75361" lon="2.57066">
        <ele>152.822</ele>
        <time>2018-12-03T10:43:21Z</time>
      </trkpt>
      <trkpt lat="48.75363" lon="2.57062">
        <ele>152.82</ele>
        <time>2018-12-03T10:43:23Z</time>
      </trkpt>
      <trkpt lat="48.75365" lon="2.57056">
        <ele>152.817</ele>
        <time>2018-12-03T10:43:27Z</time>
      </trkpt>
      <trkpt lat="48.75366" lon="2.57053">
        <ele>152.815</ele>
        <time>2018-12-03T10:43:29Z</time>
      </trkpt>
      <trkpt lat="48.75367" lon="2.5705">
        <ele>152.813</ele>
        <time>2018-12-03T10:43:31Z</time>
      </trkpt>
      <trkpt lat="48.75368" lon="2.57046">
        <ele>152.811</ele>
        <time>2018-12-03T10:43:33Z</time>
      </trkpt>
      <trkpt lat="48.7537" lon="2.57038">
        <ele>152.806</ele>
        <time>2018-12-03T10:43:37Z</time>
      </trkpt>
      <trkpt lat="48.75373" lon="2.57031">
        <ele>152.8</ele>
        <time>2018-12-03T10:43:41Z</time>
      </trkpt>
      <trkpt lat="48.75374" lon="2.57028">
        <ele>152.797</ele>
        <time>2018-12-03T10:43:43Z</time>
      </trkpt>
      <trkpt lat="48.75376" lon="2.57021">
        <ele>152.786</ele>
        <time>2018-12-03T10:43:51Z</time>
      </trkpt>
      <trkpt lat="48.7538" lon="2.57015">
        <ele>152.76</ele>
        <time>2018-12-03T10:44:04Z</time>
      </trkpt>
      <trkpt lat="48.75383" lon="2.57008">
        <ele>152.75</ele>
        <time>2018-12-03T10:44:07Z</time>
      </trkpt>
      <trkpt lat="48.75385" lon="2.57004">
        <ele>152.743</ele>
        <time>2018-12-03T10:44:09Z</time>
      </trkpt>
      <trkpt lat="48.75388" lon="2.56996">
        <ele>152.732</ele>
        <time>2018-12-03T10:44:12Z</time>
      </trkpt>
      <trkpt lat="48.75388" lon="2.56989">
        <ele>152.721</ele>
        <time>2018-12-03T10:44:15Z</time>
      </trkpt>
      <trkpt lat="48.75388" lon="2.56989">
        <ele>101</ele>
        <time>2018-12-03T10:44:20Z</time>
      </trkpt>
      <trkpt lat="48.75388" lon="2.56989">
        <ele>101</ele>
        <time>2018-12-03T10:44:23Z</time>
      </trkpt>
      <trkpt lat="48.75392" lon="2.56976">
        <ele>152.698</ele>
        <time>2018-12-03T10:44:23Z</time>
      </trkpt>
      <trkpt lat="48.75394" lon="2.5697">
        <ele>152.691</ele>
        <time>2018-12-03T10:44:25Z</time>
      </trkpt>
      <trkpt lat="48.75395" lon="2.56967">
        <ele>152.687</ele>
        <time>2018-12-03T10:44:27Z</time>
      </trkpt>
      <trkpt lat="48.75395" lon="2.56967">
        <ele>101</ele>
        <time>2018-12-03T10:44:33Z</time>
      </trkpt>
      <trkpt lat="48.75395" lon="2.56967">
        <ele>101</ele>
        <time>2018-12-03T10:44:36Z</time>
      </trkpt>
      <trkpt lat="48.75399" lon="2.56957">
        <ele>152.666</ele>
        <time>2018-12-03T10:44:36Z</time>
      </trkpt>
      <trkpt lat="48.75401" lon="2.56951">
        <ele>152.661</ele>
        <time>2018-12-03T10:44:38Z</time>
      </trkpt>
      <trkpt lat="48.75404" lon="2.56946">
        <ele>152.656</ele>
        <time>2018-12-03T10:44:40Z</time>
      </trkpt>
      <trkpt lat="48.75407" lon="2.56937">
        <ele>152.651</ele>
        <time>2018-12-03T10:44:45Z</time>
      </trkpt>
      <trkpt lat="48.75408" lon="2.5693">
        <ele>152.649</ele>
        <time>2018-12-03T10:44:47Z</time>
      </trkpt>
      <trkpt lat="48.75409" lon="2.5692">
        <ele>152.649</ele>
        <time>2018-12-03T10:44:50Z</time>
      </trkpt>
      <trkpt lat="48.7541" lon="2.56914">
        <ele>152.654</ele>
        <time>2018-12-03T10:44:53Z</time>
      </trkpt>
      <trkpt lat="48.75414" lon="2.56911">
        <ele>152.662</ele>
        <time>2018-12-03T10:44:57Z</time>
      </trkpt>
      <trkpt lat="48.75417" lon="2.56904">
        <ele>152.675</ele>
        <time>2018-12-03T10:45:02Z</time>
      </trkpt>
      <trkpt lat="48.75418" lon="2.56901">
        <ele>152.679</ele>
        <time>2018-12-03T10:45:04Z</time>
      </trkpt>
      <trkpt lat="48.7542" lon="2.56899">
        <ele>152.682</ele>
        <time>2018-12-03T10:45:05Z</time>
      </trkpt>
      <trkpt lat="48.7542" lon="2.56899">
        <ele>101</ele>
        <time>2018-12-03T10:45:13Z</time>
      </trkpt>
      <trkpt lat="48.7542" lon="2.56899">
        <ele>101</ele>
        <time>2018-12-03T10:45:19Z</time>
      </trkpt>
      <trkpt lat="48.75423" lon="2.56895">
        <ele>152.707</ele>
        <time>2018-12-03T10:45:19Z</time>
      </trkpt>
      <trkpt lat="48.75423" lon="2.56888">
        <ele>152.729</ele>
        <time>2018-12-03T10:45:26Z</time>
      </trkpt>
      <trkpt lat="48.75423" lon="2.56882">
        <ele>152.731</ele>
        <time>2018-12-03T10:45:51Z</time>
      </trkpt>
      <trkpt lat="48.75423" lon="2.56876">
        <ele>152.732</ele>
        <time>2018-12-03T10:45:55Z</time>
      </trkpt>
      <trkpt lat="48.75424" lon="2.56869">
        <ele>152.741</ele>
        <time>2018-12-03T10:46:03Z</time>
      </trkpt>
      <trkpt lat="48.75426" lon="2.56863">
        <ele>152.744</ele>
        <time>2018-12-03T10:46:07Z</time>
      </trkpt>
      <trkpt lat="48.7543" lon="2.56857">
        <ele>152.745</ele>
        <time>2018-12-03T10:46:10Z</time>
      </trkpt>
      <trkpt lat="48.75432" lon="2.56854">
        <ele>152.746</ele>
        <time>2018-12-03T10:46:12Z</time>
      </trkpt>
      <trkpt lat="48.75435" lon="2.56848">
        <ele>152.747</ele>
        <time>2018-12-03T10:46:15Z</time>
      </trkpt>
      <trkpt lat="48.75435" lon="2.56848">
        <ele>100.7</ele>
        <time>2018-12-03T10:46:20Z</time>
      </trkpt>
      <trkpt lat="48.75435" lon="2.56848">
        <ele>100.7</ele>
        <time>2018-12-03T10:47:01Z</time>
      </trkpt>
      <trkpt lat="48.75453" lon="2.56825">
        <ele>152.703</ele>
        <time>2018-12-03T10:47:05Z</time>
      </trkpt>
      <trkpt lat="48.75453" lon="2.56825">
        <ele>100.5</ele>
        <time>2018-12-03T10:47:05Z</time>
      </trkpt>
      <trkpt lat="48.75453" lon="2.56825">
        <ele>100.5</ele>
        <time>2018-12-03T10:47:13Z</time>
      </trkpt>
      <trkpt lat="48.75465" lon="2.56801">
        <ele>152.618</ele>
        <time>2018-12-03T10:47:13Z</time>
      </trkpt>
      <trkpt lat="48.75468" lon="2.56795">
        <ele>152.601</ele>
        <time>2018-12-03T10:47:15Z</time>
      </trkpt>
      <trkpt lat="48.75471" lon="2.5679">
        <ele>152.584</ele>
        <time>2018-12-03T10:47:17Z</time>
      </trkpt>
      <trkpt lat="48.75474" lon="2.56784">
        <ele>152.558</ele>
        <time>2018-12-03T10:47:20Z</time>
      </trkpt>
      <trkpt lat="48.75476" lon="2.5678">
        <ele>152.534</ele>
        <time>2018-12-03T10:47:23Z</time>
      </trkpt>
      <trkpt lat="48.75479" lon="2.56776">
        <ele>152.501</ele>
        <time>2018-12-03T10:47:27Z</time>
      </trkpt>
      <trkpt lat="48.75482" lon="2.56771">
        <ele>152.486</ele>
        <time>2018-12-03T10:47:29Z</time>
      </trkpt>
      <trkpt lat="48.75485" lon="2.56764">
        <ele>152.46</ele>
        <time>2018-12-03T10:47:32Z</time>
      </trkpt>
      <trkpt lat="48.75487" lon="2.56753">
        <ele>152.433</ele>
        <time>2018-12-03T10:47:35Z</time>
      </trkpt>
      <trkpt lat="48.7549" lon="2.56745">
        <ele>152.391</ele>
        <time>2018-12-03T10:47:40Z</time>
      </trkpt>
      <trkpt lat="48.75493" lon="2.56739">
        <ele>152.348</ele>
        <time>2018-12-03T10:47:45Z</time>
      </trkpt>
      <trkpt lat="48.75495" lon="2.56732">
        <ele>152.305</ele>
        <time>2018-12-03T10:47:51Z</time>
      </trkpt>
      <trkpt lat="48.75497" lon="2.56727">
        <ele>152.281</ele>
        <time>2018-12-03T10:47:55Z</time>
      </trkpt>
      <trkpt lat="48.75498" lon="2.5672">
        <ele>152.264</ele>
        <time>2018-12-03T10:47:58Z</time>
      </trkpt>
      <trkpt lat="48.75502" lon="2.56714">
        <ele>152.239</ele>
        <time>2018-12-03T10:48:03Z</time>
      </trkpt>
      <trkpt lat="48.75505" lon="2.56707">
        <ele>152.222</ele>
        <time>2018-12-03T10:48:06Z</time>
      </trkpt>
      <trkpt lat="48.75507" lon="2.56704">
        <ele>152.21</ele>
        <time>2018-12-03T10:48:08Z</time>
      </trkpt>
      <trkpt lat="48.75508" lon="2.56697">
        <ele>152.193</ele>
        <time>2018-12-03T10:48:12Z</time>
      </trkpt>
      <trkpt lat="48.75508" lon="2.5669">
        <ele>152.18</ele>
        <time>2018-12-03T10:48:16Z</time>
      </trkpt>
      <trkpt lat="48.75508" lon="2.5669">
        <ele>152.18</ele>
        <time>2018-12-03T10:48:23Z</time>
      </trkpt>
      <trkpt lat="48.75508" lon="2.5669">
        <ele>100</ele>
        <time>2018-12-03T10:48:23Z</time>
      </trkpt>
      <trkpt lat="48.75508" lon="2.5669">
        <ele>100</ele>
        <time>2018-12-03T10:48:31Z</time>
      </trkpt>
      <trkpt lat="48.75516" lon="2.5668">
        <ele>152.145</ele>
        <time>2018-12-03T10:48:31Z</time>
      </trkpt>
      <trkpt lat="48.75519" lon="2.56675">
        <ele>152.126</ele>
        <time>2018-12-03T10:48:36Z</time>
      </trkpt>
      <trkpt lat="48.75523" lon="2.5667">
        <ele>152.109</ele>
        <time>2018-12-03T10:48:40Z</time>
      </trkpt>
      <trkpt lat="48.75526" lon="2.56664">
        <ele>152.086</ele>
        <time>2018-12-03T10:48:44Z</time>
      </trkpt>
      <trkpt lat="48.75528" lon="2.56657">
        <ele>152.069</ele>
        <time>2018-12-03T10:48:47Z</time>
      </trkpt>
      <trkpt lat="48.75528" lon="2.5665">
        <ele>152.049</ele>
        <time>2018-12-03T10:48:51Z</time>
      </trkpt>
      <trkpt lat="48.75531" lon="2.56643">
        <ele>152.032</ele>
        <time>2018-12-03T10:48:55Z</time>
      </trkpt>
      <trkpt lat="48.75534" lon="2.56638">
        <ele>152.021</ele>
        <time>2018-12-03T10:48:58Z</time>
      </trkpt>
      <trkpt lat="48.75536" lon="2.5663">
        <ele>152.008</ele>
        <time>2018-12-03T10:49:02Z</time>
      </trkpt>
      <trkpt lat="48.75541" lon="2.56625">
        <ele>151.988</ele>
        <time>2018-12-03T10:49:08Z</time>
      </trkpt>
      <trkpt lat="48.75543" lon="2.56619">
        <ele>151.972</ele>
        <time>2018-12-03T10:49:15Z</time>
      </trkpt>
      <trkpt lat="48.75546" lon="2.56613">
        <ele>151.963</ele>
        <time>2018-12-03T10:49:18Z</time>
      </trkpt>
      <trkpt lat="48.75547" lon="2.56606">
        <ele>151.954</ele>
        <time>2018-12-03T10:49:22Z</time>
      </trkpt>
      <trkpt lat="48.75548" lon="2.56603">
        <ele>151.939</ele>
        <time>2018-12-03T10:49:26Z</time>
      </trkpt>
      <trkpt lat="48.7555" lon="2.56597">
        <ele>151.93</ele>
        <time>2018-12-03T10:49:29Z</time>
      </trkpt>
      <trkpt lat="48.75551" lon="2.56591">
        <ele>151.924</ele>
        <time>2018-12-03T10:49:31Z</time>
      </trkpt>
      <trkpt lat="48.75553" lon="2.56583">
        <ele>151.91</ele>
        <time>2018-12-03T10:49:37Z</time>
      </trkpt>
      <trkpt lat="48.75556" lon="2.56576">
        <ele>151.895</ele>
        <time>2018-12-03T10:49:41Z</time>
      </trkpt>
      <trkpt lat="48.75558" lon="2.56572">
        <ele>151.888</ele>
        <time>2018-12-03T10:49:43Z</time>
      </trkpt>
      <trkpt lat="48.7556" lon="2.56569">
        <ele>151.876</ele>
        <time>2018-12-03T10:49:46Z</time>
      </trkpt>
      <trkpt lat="48.75562" lon="2.56563">
        <ele>151.866</ele>
        <time>2018-12-03T10:49:49Z</time>
      </trkpt>
      <trkpt lat="48.75566" lon="2.56557">
        <ele>151.85</ele>
        <time>2018-12-03T10:49:53Z</time>
      </trkpt>
      <trkpt lat="48.75568" lon="2.56549">
        <ele>151.835</ele>
        <time>2018-12-03T10:49:57Z</time>
      </trkpt>
      <trkpt lat="48.75571" lon="2.56539">
        <ele>151.823</ele>
        <time>2018-12-03T10:50:00Z</time>
      </trkpt>
      <trkpt lat="48.75573" lon="2.56533">
        <ele>151.811</ele>
        <time>2018-12-03T10:50:04Z</time>
      </trkpt>
      <trkpt lat="48.75575" lon="2.56529">
        <ele>151.808</ele>
        <time>2018-12-03T10:50:06Z</time>
      </trkpt>
      <trkpt lat="48.75576" lon="2.56526">
        <ele>151.806</ele>
        <time>2018-12-03T10:50:08Z</time>
      </trkpt>
      <trkpt lat="48.75579" lon="2.56521">
        <ele>151.802</ele>
        <time>2018-12-03T10:50:12Z</time>
      </trkpt>
      <trkpt lat="48.75583" lon="2.56514">
        <ele>151.79</ele>
        <time>2018-12-03T10:50:17Z</time>
      </trkpt>
      <trkpt lat="48.75586" lon="2.5651">
        <ele>151.781</ele>
        <time>2018-12-03T10:50:22Z</time>
      </trkpt>
      <trkpt lat="48.75588" lon="2.56505">
        <ele>151.774</ele>
        <time>2018-12-03T10:50:25Z</time>
      </trkpt>
      <trkpt lat="48.7559" lon="2.56496">
        <ele>151.766</ele>
        <time>2018-12-03T10:50:30Z</time>
      </trkpt>
      <trkpt lat="48.75594" lon="2.56489">
        <ele>151.765</ele>
        <time>2018-12-03T10:50:33Z</time>
      </trkpt>
      <trkpt lat="48.75598" lon="2.56484">
        <ele>151.766</ele>
        <time>2018-12-03T10:50:36Z</time>
      </trkpt>
      <trkpt lat="48.756" lon="2.56477">
        <ele>151.769</ele>
        <time>2018-12-03T10:50:39Z</time>
      </trkpt>
      <trkpt lat="48.75603" lon="2.56471">
        <ele>151.785</ele>
        <time>2018-12-03T10:50:45Z</time>
      </trkpt>
      <trkpt lat="48.75604" lon="2.56468">
        <ele>151.788</ele>
        <time>2018-12-03T10:50:47Z</time>
      </trkpt>
      <trkpt lat="48.75607" lon="2.56461">
        <ele>151.792</ele>
        <time>2018-12-03T10:50:52Z</time>
      </trkpt>
      <trkpt lat="48.75608" lon="2.56457">
        <ele>151.79</ele>
        <time>2018-12-03T10:50:55Z</time>
      </trkpt>
      <trkpt lat="48.75609" lon="2.56453">
        <ele>151.787</ele>
        <time>2018-12-03T10:50:57Z</time>
      </trkpt>
      <trkpt lat="48.7561" lon="2.5645">
        <ele>151.786</ele>
        <time>2018-12-03T10:50:58Z</time>
      </trkpt>
      <trkpt lat="48.75612" lon="2.56447">
        <ele>151.785</ele>
        <time>2018-12-03T10:51:01Z</time>
      </trkpt>
      <trkpt lat="48.75615" lon="2.5644">
        <ele>151.781</ele>
        <time>2018-12-03T10:51:07Z</time>
      </trkpt>
      <trkpt lat="48.75618" lon="2.56434">
        <ele>151.773</ele>
        <time>2018-12-03T10:51:10Z</time>
      </trkpt>
      <trkpt lat="48.75621" lon="2.56424">
        <ele>151.761</ele>
        <time>2018-12-03T10:51:14Z</time>
      </trkpt>
      <trkpt lat="48.75625" lon="2.56417">
        <ele>151.755</ele>
        <time>2018-12-03T10:51:17Z</time>
      </trkpt>
      <trkpt lat="48.75629" lon="2.56413">
        <ele>151.751</ele>
        <time>2018-12-03T10:51:21Z</time>
      </trkpt>
      <trkpt lat="48.75633" lon="2.5641">
        <ele>151.746</ele>
        <time>2018-12-03T10:51:25Z</time>
      </trkpt>
      <trkpt lat="48.75636" lon="2.56404">
        <ele>151.741</ele>
        <time>2018-12-03T10:51:30Z</time>
      </trkpt>
      <trkpt lat="48.75638" lon="2.56401">
        <ele>151.74</ele>
        <time>2018-12-03T10:51:32Z</time>
      </trkpt>
      <trkpt lat="48.7564" lon="2.56394">
        <ele>151.74</ele>
        <time>2018-12-03T10:51:36Z</time>
      </trkpt>
      <trkpt lat="48.75641" lon="2.5639">
        <ele>151.739</ele>
        <time>2018-12-03T10:51:39Z</time>
      </trkpt>
      <trkpt lat="48.75645" lon="2.56384">
        <ele>151.735</ele>
        <time>2018-12-03T10:51:45Z</time>
      </trkpt>
      <trkpt lat="48.75647" lon="2.56381">
        <ele>151.741</ele>
        <time>2018-12-03T10:51:49Z</time>
      </trkpt>
      <trkpt lat="48.75649" lon="2.56375">
        <ele>151.78</ele>
        <time>2018-12-03T10:52:01Z</time>
      </trkpt>
      <trkpt lat="48.75652" lon="2.56369">
        <ele>151.837</ele>
        <time>2018-12-03T10:52:09Z</time>
      </trkpt>
      <trkpt lat="48.75654" lon="2.56367">
        <ele>151.847</ele>
        <time>2018-12-03T10:52:18Z</time>
      </trkpt>
      <trkpt lat="48.75665" lon="2.56373">
        <ele>152.028</ele>
        <time>2018-12-03T10:52:40Z</time>
      </trkpt>
      <trkpt lat="48.75671" lon="2.56376">
        <ele>152.046</ele>
        <time>2018-12-03T10:52:44Z</time>
      </trkpt>
      <trkpt lat="48.75673" lon="2.56377">
        <ele>152.066</ele>
        <time>2018-12-03T10:52:47Z</time>
      </trkpt>
      <trkpt lat="48.75677" lon="2.56382">
        <ele>152.095</ele>
        <time>2018-12-03T10:52:53Z</time>
      </trkpt>
      <trkpt lat="48.75683" lon="2.56389">
        <ele>152.108</ele>
        <time>2018-12-03T10:52:55Z</time>
      </trkpt>
      <trkpt lat="48.75688" lon="2.56393">
        <ele>152.126</ele>
        <time>2018-12-03T10:52:58Z</time>
      </trkpt>
      <trkpt lat="48.75691" lon="2.56397">
        <ele>152.152</ele>
        <time>2018-12-03T10:53:03Z</time>
      </trkpt>
      <trkpt lat="48.75695" lon="2.56402">
        <ele>152.176</ele>
        <time>2018-12-03T10:53:10Z</time>
      </trkpt>
      <trkpt lat="48.75703" lon="2.56407">
        <ele>152.181</ele>
        <time>2018-12-03T10:53:13Z</time>
      </trkpt>
      <trkpt lat="48.75707" lon="2.56414">
        <ele>152.17</ele>
        <time>2018-12-03T10:53:24Z</time>
      </trkpt>
      <trkpt lat="48.75714" lon="2.56419">
        <ele>152.166</ele>
        <time>2018-12-03T10:53:26Z</time>
      </trkpt>
      <trkpt lat="48.75719" lon="2.56422">
        <ele>152.16</ele>
        <time>2018-12-03T10:53:30Z</time>
      </trkpt>
      <trkpt lat="48.75724" lon="2.56424">
        <ele>152.159</ele>
        <time>2018-12-03T10:53:32Z</time>
      </trkpt>
      <trkpt lat="48.75727" lon="2.56425">
        <ele>152.158</ele>
        <time>2018-12-03T10:53:34Z</time>
      </trkpt>
      <trkpt lat="48.75727" lon="2.56425">
        <ele>152.158</ele>
        <time>2018-12-03T10:53:39Z</time>
      </trkpt>
      <trkpt lat="48.75727" lon="2.56425">
        <ele>100</ele>
        <time>2018-12-03T10:53:39Z</time>
      </trkpt>
      <trkpt lat="48.75727" lon="2.56425">
        <ele>100</ele>
        <time>2018-12-03T10:53:43Z</time>
      </trkpt>
      <trkpt lat="48.75736" lon="2.56431">
        <ele>152.149</ele>
        <time>2018-12-03T10:53:43Z</time>
      </trkpt>
      <trkpt lat="48.75736" lon="2.56431">
        <ele>152.149</ele>
        <time>2018-12-03T10:53:50Z</time>
      </trkpt>
      <trkpt lat="48.75736" lon="2.56431">
        <ele>100</ele>
        <time>2018-12-03T10:53:50Z</time>
      </trkpt>
      <trkpt lat="48.75736" lon="2.56431">
        <ele>100</ele>
        <time>2018-12-03T10:54:05Z</time>
      </trkpt>
      <trkpt lat="48.75743" lon="2.56449">
        <ele>152.163</ele>
        <time>2018-12-03T10:54:05Z</time>
      </trkpt>
      <trkpt lat="48.75746" lon="2.56457">
        <ele>152.167</ele>
        <time>2018-12-03T10:54:09Z</time>
      </trkpt>
      <trkpt lat="48.75746" lon="2.56457">
        <ele>100</ele>
        <time>2018-12-03T10:54:16Z</time>
      </trkpt>
      <trkpt lat="48.75746" lon="2.56457">
        <ele>100</ele>
        <time>2018-12-03T10:54:40Z</time>
      </trkpt>
      <trkpt lat="48.75771" lon="2.5648">
        <ele>152.129</ele>
        <time>2018-12-03T10:54:40Z</time>
      </trkpt>
      <trkpt lat="48.75781" lon="2.56485">
        <ele>152.114</ele>
        <time>2018-12-03T10:54:44Z</time>
      </trkpt>
      <trkpt lat="48.75786" lon="2.56488">
        <ele>152.093</ele>
        <time>2018-12-03T10:54:48Z</time>
      </trkpt>
      <trkpt lat="48.75791" lon="2.56491">
        <ele>152.054</ele>
        <time>2018-12-03T10:54:57Z</time>
      </trkpt>
      <trkpt lat="48.75796" lon="2.56494">
        <ele>152.033</ele>
        <time>2018-12-03T10:55:00Z</time>
      </trkpt>
      <trkpt lat="48.75798" lon="2.56496">
        <ele>152.026</ele>
        <time>2018-12-03T10:55:02Z</time>
      </trkpt>
      <trkpt lat="48.75801" lon="2.56503">
        <ele>151.974</ele>
        <time>2018-12-03T10:55:11Z</time>
      </trkpt>
      <trkpt lat="48.75802" lon="2.56506">
        <ele>151.919</ele>
        <time>2018-12-03T10:55:19Z</time>
      </trkpt>
      <trkpt lat="48.75803" lon="2.5651">
        <ele>151.871</ele>
        <time>2018-12-03T10:55:25Z</time>
      </trkpt>
      <trkpt lat="48.75805" lon="2.56517">
        <ele>151.824</ele>
        <time>2018-12-03T10:55:34Z</time>
      </trkpt>
      <trkpt lat="48.75807" lon="2.56521">
        <ele>151.809</ele>
        <time>2018-12-03T10:55:37Z</time>
      </trkpt>
      <trkpt lat="48.7581" lon="2.56527">
        <ele>151.771</ele>
        <time>2018-12-03T10:55:43Z</time>
      </trkpt>
      <trkpt lat="48.75814" lon="2.5653">
        <ele>151.739</ele>
        <time>2018-12-03T10:55:48Z</time>
      </trkpt>
      <trkpt lat="48.7582" lon="2.56535">
        <ele>151.708</ele>
        <time>2018-12-03T10:55:52Z</time>
      </trkpt>
      <trkpt lat="48.75823" lon="2.56538">
        <ele>151.644</ele>
        <time>2018-12-03T10:56:03Z</time>
      </trkpt>
      <trkpt lat="48.75827" lon="2.56543">
        <ele>151.604</ele>
        <time>2018-12-03T10:56:11Z</time>
      </trkpt>
      <trkpt lat="48.75829" lon="2.56545">
        <ele>151.583</ele>
        <time>2018-12-03T10:56:14Z</time>
      </trkpt>
      <trkpt lat="48.75834" lon="2.56551">
        <ele>151.57</ele>
        <time>2018-12-03T10:56:16Z</time>
      </trkpt>
      <trkpt lat="48.75836" lon="2.56553">
        <ele>151.557</ele>
        <time>2018-12-03T10:56:18Z</time>
      </trkpt>
      <trkpt lat="48.7584" lon="2.56557">
        <ele>151.538</ele>
        <time>2018-12-03T10:56:21Z</time>
      </trkpt>
      <trkpt lat="48.7584" lon="2.56557">
        <ele>100</ele>
        <time>2018-12-03T10:56:29Z</time>
      </trkpt>
      <trkpt lat="48.7584" lon="2.56557">
        <ele>100</ele>
        <time>2018-12-03T10:56:33Z</time>
      </trkpt>
      <trkpt lat="48.75847" lon="2.56568">
        <ele>151.491</ele>
        <time>2018-12-03T10:56:33Z</time>
      </trkpt>
      <trkpt lat="48.75847" lon="2.56568">
        <ele>151.491</ele>
        <time>2018-12-03T10:56:40Z</time>
      </trkpt>
      <trkpt lat="48.75847" lon="2.56568">
        <ele>100</ele>
        <time>2018-12-03T10:56:40Z</time>
      </trkpt>
      <trkpt lat="48.75847" lon="2.56568">
        <ele>100</ele>
        <time>2018-12-03T10:57:40Z</time>
      </trkpt>
      <trkpt lat="48.75867" lon="2.56601">
        <ele>151.276</ele>
        <time>2018-12-03T10:57:40Z</time>
      </trkpt>
      <trkpt lat="48.75871" lon="2.56608">
        <ele>151.254</ele>
        <time>2018-12-03T10:57:43Z</time>
      </trkpt>
      <trkpt lat="48.75876" lon="2.56613">
        <ele>151.206</ele>
        <time>2018-12-03T10:57:48Z</time>
      </trkpt>
      <trkpt lat="48.75881" lon="2.56614">
        <ele>151.167</ele>
        <time>2018-12-03T10:57:51Z</time>
      </trkpt>
      <trkpt lat="48.75884" lon="2.56614">
        <ele>151.15</ele>
        <time>2018-12-03T10:57:55Z</time>
      </trkpt>
      <trkpt lat="48.75884" lon="2.56614">
        <ele>100</ele>
        <time>2018-12-03T10:58:00Z</time>
      </trkpt>
      <trkpt lat="48.75884" lon="2.56614">
        <ele>100</ele>
        <time>2018-12-03T10:58:03Z</time>
      </trkpt>
      <trkpt lat="48.75896" lon="2.56625">
        <ele>151.049</ele>
        <time>2018-12-03T10:58:03Z</time>
      </trkpt>
      <trkpt lat="48.75913" lon="2.56636">
        <ele>151.028</ele>
        <time>2018-12-03T10:58:05Z</time>
      </trkpt>
      <trkpt lat="48.75917" lon="2.56639">
        <ele>151.018</ele>
        <time>2018-12-03T10:58:06Z</time>
      </trkpt>
      <trkpt lat="48.75922" lon="2.56641">
        <ele>150.999</ele>
        <time>2018-12-03T10:58:08Z</time>
      </trkpt>
      <trkpt lat="48.75928" lon="2.56641">
        <ele>150.972</ele>
        <time>2018-12-03T10:58:11Z</time>
      </trkpt>
      <trkpt lat="48.75934" lon="2.56642">
        <ele>150.955</ele>
        <time>2018-12-03T10:58:13Z</time>
      </trkpt>
      <trkpt lat="48.75936" lon="2.56643">
        <ele>150.946</ele>
        <time>2018-12-03T10:58:14Z</time>
      </trkpt>
      <trkpt lat="48.75942" lon="2.56647">
        <ele>150.914</ele>
        <time>2018-12-03T10:58:18Z</time>
      </trkpt>
      <trkpt lat="48.75947" lon="2.56648">
        <ele>150.892</ele>
        <time>2018-12-03T10:58:21Z</time>
      </trkpt>
      <trkpt lat="48.75952" lon="2.56652">
        <ele>150.864</ele>
        <time>2018-12-03T10:58:25Z</time>
      </trkpt>
      <trkpt lat="48.75957" lon="2.56654">
        <ele>150.822</ele>
        <time>2018-12-03T10:58:32Z</time>
      </trkpt>
      <trkpt lat="48.7596" lon="2.56655">
        <ele>150.799</ele>
        <time>2018-12-03T10:58:38Z</time>
      </trkpt>
      <trkpt lat="48.75965" lon="2.56654">
        <ele>150.756</ele>
        <time>2018-12-03T10:58:45Z</time>
      </trkpt>
      <trkpt lat="48.7597" lon="2.56656">
        <ele>150.741</ele>
        <time>2018-12-03T10:58:48Z</time>
      </trkpt>
      <trkpt lat="48.75973" lon="2.5666">
        <ele>150.703</ele>
        <time>2018-12-03T10:58:55Z</time>
      </trkpt>
      <trkpt lat="48.75978" lon="2.56664">
        <ele>150.686</ele>
        <time>2018-12-03T10:58:58Z</time>
      </trkpt>
      <trkpt lat="48.75981" lon="2.56667">
        <ele>150.669</ele>
        <time>2018-12-03T10:59:01Z</time>
      </trkpt>
      <trkpt lat="48.75986" lon="2.56672">
        <ele>150.652</ele>
        <time>2018-12-03T10:59:04Z</time>
      </trkpt>
      <trkpt lat="48.75988" lon="2.56674">
        <ele>150.647</ele>
        <time>2018-12-03T10:59:05Z</time>
      </trkpt>
      <trkpt lat="48.75993" lon="2.56676">
        <ele>150.637</ele>
        <time>2018-12-03T10:59:07Z</time>
      </trkpt>
      <trkpt lat="48.75998" lon="2.56677">
        <ele>150.614</ele>
        <time>2018-12-03T10:59:12Z</time>
      </trkpt>
      <trkpt lat="48.76002" lon="2.56677">
        <ele>150.605</ele>
        <time>2018-12-03T10:59:14Z</time>
      </trkpt>
      <trkpt lat="48.76006" lon="2.56682">
        <ele>150.584</ele>
        <time>2018-12-03T10:59:21Z</time>
      </trkpt>
      <trkpt lat="48.7601" lon="2.56683">
        <ele>150.56</ele>
        <time>2018-12-03T10:59:29Z</time>
      </trkpt>
      <trkpt lat="48.76015" lon="2.56682">
        <ele>150.545</ele>
        <time>2018-12-03T10:59:33Z</time>
      </trkpt>
      <trkpt lat="48.76021" lon="2.56682">
        <ele>150.528</ele>
        <time>2018-12-03T10:59:37Z</time>
      </trkpt>
      <trkpt lat="48.76024" lon="2.56683">
        <ele>150.518</ele>
        <time>2018-12-03T10:59:42Z</time>
      </trkpt>
      <trkpt lat="48.76029" lon="2.56679">
        <ele>150.494</ele>
        <time>2018-12-03T10:59:48Z</time>
      </trkpt>
      <trkpt lat="48.76029" lon="2.56679">
        <ele>150.494</ele>
        <time>2018-12-03T10:59:55Z</time>
      </trkpt>
      <trkpt lat="48.76029" lon="2.56679">
        <ele>101</ele>
        <time>2018-12-03T10:59:55Z</time>
      </trkpt>
      <trkpt lat="48.76029" lon="2.56679">
        <ele>101</ele>
        <time>2018-12-03T11:00:08Z</time>
      </trkpt>
      <trkpt lat="48.76045" lon="2.56666">
        <ele>150.405</ele>
        <time>2018-12-03T11:00:10Z</time>
      </trkpt>
      <trkpt lat="48.76046" lon="2.5666">
        <ele>150.404</ele>
        <time>2018-12-03T11:00:13Z</time>
      </trkpt>
      <trkpt lat="48.76048" lon="2.56653">
        <ele>150.407</ele>
        <time>2018-12-03T11:00:18Z</time>
      </trkpt>
      <trkpt lat="48.7605" lon="2.56649">
        <ele>150.41</ele>
        <time>2018-12-03T11:00:20Z</time>
      </trkpt>
      <trkpt lat="48.76051" lon="2.56644">
        <ele>150.412</ele>
        <time>2018-12-03T11:00:22Z</time>
      </trkpt>
      <trkpt lat="48.76055" lon="2.56639">
        <ele>150.42</ele>
        <time>2018-12-03T11:00:26Z</time>
      </trkpt>
      <trkpt lat="48.7606" lon="2.56636">
        <ele>150.427</ele>
        <time>2018-12-03T11:00:29Z</time>
      </trkpt>
      <trkpt lat="48.76065" lon="2.56633">
        <ele>150.435</ele>
        <time>2018-12-03T11:00:33Z</time>
      </trkpt>
      <trkpt lat="48.76067" lon="2.56631">
        <ele>150.439</ele>
        <time>2018-12-03T11:00:35Z</time>
      </trkpt>
      <trkpt lat="48.76071" lon="2.56629">
        <ele>150.445</ele>
        <time>2018-12-03T11:00:38Z</time>
      </trkpt>
      <trkpt lat="48.76074" lon="2.56627">
        <ele>150.45</ele>
        <time>2018-12-03T11:00:41Z</time>
      </trkpt>
      <trkpt lat="48.76079" lon="2.56627">
        <ele>150.456</ele>
        <time>2018-12-03T11:00:48Z</time>
      </trkpt>
      <trkpt lat="48.76084" lon="2.56625">
        <ele>150.458</ele>
        <time>2018-12-03T11:00:51Z</time>
      </trkpt>
      <trkpt lat="48.76089" lon="2.56621">
        <ele>150.461</ele>
        <time>2018-12-03T11:00:55Z</time>
      </trkpt>
      <trkpt lat="48.76093" lon="2.56615">
        <ele>150.463</ele>
        <time>2018-12-03T11:00:58Z</time>
      </trkpt>
      <trkpt lat="48.76097" lon="2.5661">
        <ele>150.465</ele>
        <time>2018-12-03T11:01:03Z</time>
      </trkpt>
      <trkpt lat="48.76097" lon="2.5661">
        <ele>150.465</ele>
        <time>2018-12-03T11:01:10Z</time>
      </trkpt>
      <trkpt lat="48.76097" lon="2.5661">
        <ele>101</ele>
        <time>2018-12-03T11:01:10Z</time>
      </trkpt>
      <trkpt lat="48.76097" lon="2.5661">
        <ele>101</ele>
        <time>2018-12-03T11:01:41Z</time>
      </trkpt>
      <trkpt lat="48.76124" lon="2.566">
        <ele>150.41</ele>
        <time>2018-12-03T11:01:41Z</time>
      </trkpt>
      <trkpt lat="48.76132" lon="2.56595">
        <ele>150.401</ele>
        <time>2018-12-03T11:01:44Z</time>
      </trkpt>
      <trkpt lat="48.76135" lon="2.56594">
        <ele>150.397</ele>
        <time>2018-12-03T11:01:45Z</time>
      </trkpt>
      <trkpt lat="48.76137" lon="2.56592">
        <ele>150.394</ele>
        <time>2018-12-03T11:01:46Z</time>
      </trkpt>
      <trkpt lat="48.76141" lon="2.56587">
        <ele>150.382</ele>
        <time>2018-12-03T11:01:50Z</time>
      </trkpt>
      <trkpt lat="48.76145" lon="2.56585">
        <ele>150.373</ele>
        <time>2018-12-03T11:01:53Z</time>
      </trkpt>
      <trkpt lat="48.76148" lon="2.56584">
        <ele>150.369</ele>
        <time>2018-12-03T11:01:55Z</time>
      </trkpt>
      <trkpt lat="48.76151" lon="2.56583">
        <ele>150.362</ele>
        <time>2018-12-03T11:01:57Z</time>
      </trkpt>
      <trkpt lat="48.76155" lon="2.56579">
        <ele>150.338</ele>
        <time>2018-12-03T11:02:04Z</time>
      </trkpt>
      <trkpt lat="48.76158" lon="2.56576">
        <ele>150.327</ele>
        <time>2018-12-03T11:02:07Z</time>
      </trkpt>
      <trkpt lat="48.7616" lon="2.56575">
        <ele>150.319</ele>
        <time>2018-12-03T11:02:09Z</time>
      </trkpt>
      <trkpt lat="48.76164" lon="2.56574">
        <ele>150.296</ele>
        <time>2018-12-03T11:02:15Z</time>
      </trkpt>
      <trkpt lat="48.76169" lon="2.56568">
        <ele>150.274</ele>
        <time>2018-12-03T11:02:21Z</time>
      </trkpt>
      <trkpt lat="48.76176" lon="2.56566">
        <ele>150.261</ele>
        <time>2018-12-03T11:02:24Z</time>
      </trkpt>
      <trkpt lat="48.76179" lon="2.56564">
        <ele>150.252</ele>
        <time>2018-12-03T11:02:26Z</time>
      </trkpt>
      <trkpt lat="48.76184" lon="2.56561">
        <ele>150.23</ele>
        <time>2018-12-03T11:02:30Z</time>
      </trkpt>
      <trkpt lat="48.76184" lon="2.56561">
        <ele>100.1</ele>
        <time>2018-12-03T11:02:35Z</time>
      </trkpt>
      <trkpt lat="48.76184" lon="2.56561">
        <ele>100.1</ele>
        <time>2018-12-03T11:02:40Z</time>
      </trkpt>
      <trkpt lat="48.76195" lon="2.56561">
        <ele>150.177</ele>
        <time>2018-12-03T11:02:40Z</time>
      </trkpt>
      <trkpt lat="48.76198" lon="2.5656">
        <ele>150.161</ele>
        <time>2018-12-03T11:02:43Z</time>
      </trkpt>
      <trkpt lat="48.76202" lon="2.56557">
        <ele>150.14</ele>
        <time>2018-12-03T11:02:47Z</time>
      </trkpt>
      <trkpt lat="48.76206" lon="2.5655">
        <ele>150.112</ele>
        <time>2018-12-03T11:02:51Z</time>
      </trkpt>
      <trkpt lat="48.76207" lon="2.56538">
        <ele>150.093</ele>
        <time>2018-12-03T11:02:54Z</time>
      </trkpt>
      <trkpt lat="48.76211" lon="2.56532">
        <ele>150.06</ele>
        <time>2018-12-03T11:02:59Z</time>
      </trkpt>
      <trkpt lat="48.76215" lon="2.56529">
        <ele>150.028</ele>
        <time>2018-12-03T11:03:04Z</time>
      </trkpt>
      <trkpt lat="48.76219" lon="2.56525">
        <ele>150.015</ele>
        <time>2018-12-03T11:03:06Z</time>
      </trkpt>
      <trkpt lat="48.76222" lon="2.56519">
        <ele>149.992</ele>
        <time>2018-12-03T11:03:10Z</time>
      </trkpt>
      <trkpt lat="48.76223" lon="2.56516">
        <ele>149.978</ele>
        <time>2018-12-03T11:03:13Z</time>
      </trkpt>
      <trkpt lat="48.76229" lon="2.5651">
        <ele>149.965</ele>
        <time>2018-12-03T11:03:16Z</time>
      </trkpt>
      <trkpt lat="48.76232" lon="2.56506">
        <ele>149.957</ele>
        <time>2018-12-03T11:03:18Z</time>
      </trkpt>
      <trkpt lat="48.76235" lon="2.56497">
        <ele>149.942</ele>
        <time>2018-12-03T11:03:22Z</time>
      </trkpt>
      <trkpt lat="48.76238" lon="2.56491">
        <ele>149.926</ele>
        <time>2018-12-03T11:03:27Z</time>
      </trkpt>
      <trkpt lat="48.76241" lon="2.56485">
        <ele>149.918</ele>
        <time>2018-12-03T11:03:31Z</time>
      </trkpt>
      <trkpt lat="48.76245" lon="2.56481">
        <ele>149.903</ele>
        <time>2018-12-03T11:03:37Z</time>
      </trkpt>
      <trkpt lat="48.76249" lon="2.56478">
        <ele>149.892</ele>
        <time>2018-12-03T11:03:41Z</time>
      </trkpt>
      <trkpt lat="48.76254" lon="2.56476">
        <ele>149.871</ele>
        <time>2018-12-03T11:03:48Z</time>
      </trkpt>
      <trkpt lat="48.76257" lon="2.5647">
        <ele>149.858</ele>
        <time>2018-12-03T11:03:53Z</time>
      </trkpt>
      <trkpt lat="48.76262" lon="2.56468">
        <ele>149.843</ele>
        <time>2018-12-03T11:03:59Z</time>
      </trkpt>
      <trkpt lat="48.76265" lon="2.56461">
        <ele>149.804</ele>
        <time>2018-12-03T11:04:07Z</time>
      </trkpt>
      <trkpt lat="48.76263" lon="2.56453">
        <ele>149.773</ele>
        <time>2018-12-03T11:04:11Z</time>
      </trkpt>
      <trkpt lat="48.76262" lon="2.56449">
        <ele>149.756</ele>
        <time>2018-12-03T11:04:13Z</time>
      </trkpt>
      <trkpt lat="48.76263" lon="2.56441">
        <ele>149.739</ele>
        <time>2018-12-03T11:04:16Z</time>
      </trkpt>
      <trkpt lat="48.76263" lon="2.56435">
        <ele>149.709</ele>
        <time>2018-12-03T11:04:20Z</time>
      </trkpt>
      <trkpt lat="48.76265" lon="2.56428">
        <ele>149.682</ele>
        <time>2018-12-03T11:04:25Z</time>
      </trkpt>
      <trkpt lat="48.76267" lon="2.56423">
        <ele>149.671</ele>
        <time>2018-12-03T11:04:27Z</time>
      </trkpt>
      <trkpt lat="48.76271" lon="2.56418">
        <ele>149.643</ele>
        <time>2018-12-03T11:04:32Z</time>
      </trkpt>
      <trkpt lat="48.76274" lon="2.56413">
        <ele>149.626</ele>
        <time>2018-12-03T11:04:35Z</time>
      </trkpt>
      <trkpt lat="48.76278" lon="2.5641">
        <ele>149.602</ele>
        <time>2018-12-03T11:04:39Z</time>
      </trkpt>
      <trkpt lat="48.76281" lon="2.56408">
        <ele>149.571</ele>
        <time>2018-12-03T11:04:45Z</time>
      </trkpt>
      <trkpt lat="48.76284" lon="2.564">
        <ele>149.522</ele>
        <time>2018-12-03T11:04:51Z</time>
      </trkpt>
      <trkpt lat="48.76285" lon="2.56393">
        <ele>149.506</ele>
        <time>2018-12-03T11:04:53Z</time>
      </trkpt>
      <trkpt lat="48.76287" lon="2.56387">
        <ele>149.482</ele>
        <time>2018-12-03T11:04:56Z</time>
      </trkpt>
      <trkpt lat="48.7629" lon="2.5638">
        <ele>149.453</ele>
        <time>2018-12-03T11:05:00Z</time>
      </trkpt>
      <trkpt lat="48.76293" lon="2.56372">
        <ele>149.409</ele>
        <time>2018-12-03T11:05:06Z</time>
      </trkpt>
      <trkpt lat="48.76295" lon="2.56365">
        <ele>149.387</ele>
        <time>2018-12-03T11:05:09Z</time>
      </trkpt>
      <trkpt lat="48.76297" lon="2.56359">
        <ele>149.368</ele>
        <time>2018-12-03T11:05:12Z</time>
      </trkpt>
      <trkpt lat="48.76298" lon="2.5635">
        <ele>149.349</ele>
        <time>2018-12-03T11:05:15Z</time>
      </trkpt>
      <trkpt lat="48.763" lon="2.56343">
        <ele>149.325</ele>
        <time>2018-12-03T11:05:19Z</time>
      </trkpt>
      <trkpt lat="48.76301" lon="2.56335">
        <ele>149.301</ele>
        <time>2018-12-03T11:05:23Z</time>
      </trkpt>
      <trkpt lat="48.76301" lon="2.56331">
        <ele>149.274</ele>
        <time>2018-12-03T11:05:27Z</time>
      </trkpt>
      <trkpt lat="48.76302" lon="2.56323">
        <ele>149.255</ele>
        <time>2018-12-03T11:05:30Z</time>
      </trkpt>
      <trkpt lat="48.76304" lon="2.56314">
        <ele>149.232</ele>
        <time>2018-12-03T11:05:34Z</time>
      </trkpt>
      <trkpt lat="48.76304" lon="2.5631">
        <ele>149.227</ele>
        <time>2018-12-03T11:05:35Z</time>
      </trkpt>
      <trkpt lat="48.76308" lon="2.56299">
        <ele>149.211</ele>
        <time>2018-12-03T11:05:38Z</time>
      </trkpt>
      <trkpt lat="48.7631" lon="2.56291">
        <ele>149.191</ele>
        <time>2018-12-03T11:05:42Z</time>
      </trkpt>
      <trkpt lat="48.76311" lon="2.56286">
        <ele>149.175</ele>
        <time>2018-12-03T11:05:45Z</time>
      </trkpt>
      <trkpt lat="48.76313" lon="2.5628">
        <ele>149.154</ele>
        <time>2018-12-03T11:05:49Z</time>
      </trkpt>
      <trkpt lat="48.76315" lon="2.56277">
        <ele>149.143</ele>
        <time>2018-12-03T11:05:51Z</time>
      </trkpt>
      <trkpt lat="48.76316" lon="2.56269">
        <ele>149.123</ele>
        <time>2018-12-03T11:05:55Z</time>
      </trkpt>
      <trkpt lat="48.76317" lon="2.56265">
        <ele>149.115</ele>
        <time>2018-12-03T11:05:57Z</time>
      </trkpt>
      <trkpt lat="48.76317" lon="2.56265">
        <ele>100.7</ele>
        <time>2018-12-03T11:06:06Z</time>
      </trkpt>
      <trkpt lat="48.76317" lon="2.56265">
        <ele>100.7</ele>
        <time>2018-12-03T11:07:05Z</time>
      </trkpt>
      <trkpt lat="48.76328" lon="2.56213">
        <ele>149.257</ele>
        <time>2018-12-03T11:07:05Z</time>
      </trkpt>
      <trkpt lat="48.7633" lon="2.5621">
        <ele>149.269</ele>
        <time>2018-12-03T11:07:09Z</time>
      </trkpt>
      <trkpt lat="48.76334" lon="2.56206">
        <ele>149.301</ele>
        <time>2018-12-03T11:07:17Z</time>
      </trkpt>
      <trkpt lat="48.76336" lon="2.56199">
        <ele>149.315</ele>
        <time>2018-12-03T11:07:21Z</time>
      </trkpt>
      <trkpt lat="48.76339" lon="2.56193">
        <ele>149.325</ele>
        <time>2018-12-03T11:07:24Z</time>
      </trkpt>
      <trkpt lat="48.76341" lon="2.56184">
        <ele>149.338</ele>
        <time>2018-12-03T11:07:28Z</time>
      </trkpt>
      <trkpt lat="48.76344" lon="2.56177">
        <ele>149.35</ele>
        <time>2018-12-03T11:07:32Z</time>
      </trkpt>
      <trkpt lat="48.76346" lon="2.56174">
        <ele>149.355</ele>
        <time>2018-12-03T11:07:34Z</time>
      </trkpt>
      <trkpt lat="48.76347" lon="2.56169">
        <ele>149.36</ele>
        <time>2018-12-03T11:07:36Z</time>
      </trkpt>
      <trkpt lat="48.76349" lon="2.56164">
        <ele>149.365</ele>
        <time>2018-12-03T11:07:38Z</time>
      </trkpt>
      <trkpt lat="48.76351" lon="2.56159">
        <ele>149.371</ele>
        <time>2018-12-03T11:07:40Z</time>
      </trkpt>
      <trkpt lat="48.76352" lon="2.56155">
        <ele>149.379</ele>
        <time>2018-12-03T11:07:43Z</time>
      </trkpt>
      <trkpt lat="48.76354" lon="2.56151">
        <ele>149.388</ele>
        <time>2018-12-03T11:07:46Z</time>
      </trkpt>
      <trkpt lat="48.76354" lon="2.56142">
        <ele>149.403</ele>
        <time>2018-12-03T11:07:51Z</time>
      </trkpt>
      <trkpt lat="48.76353" lon="2.56136">
        <ele>149.411</ele>
        <time>2018-12-03T11:07:54Z</time>
      </trkpt>
      <trkpt lat="48.76355" lon="2.56129">
        <ele>149.429</ele>
        <time>2018-12-03T11:07:58Z</time>
      </trkpt>
      <trkpt lat="48.76356" lon="2.56123">
        <ele>149.45</ele>
        <time>2018-12-03T11:08:02Z</time>
      </trkpt>
      <trkpt lat="48.76358" lon="2.56116">
        <ele>149.468</ele>
        <time>2018-12-03T11:08:05Z</time>
      </trkpt>
      <trkpt lat="48.76358" lon="2.56116">
        <ele>149.468</ele>
        <time>2018-12-03T11:08:10Z</time>
      </trkpt>
      <trkpt lat="48.76358" lon="2.56116">
        <ele>101.1</ele>
        <time>2018-12-03T11:08:10Z</time>
      </trkpt>
      <trkpt lat="48.76358" lon="2.56116">
        <ele>101.1</ele>
        <time>2018-12-03T11:08:24Z</time>
      </trkpt>
      <trkpt lat="48.76361" lon="2.56093">
        <ele>149.59</ele>
        <time>2018-12-03T11:08:24Z</time>
      </trkpt>
      <trkpt lat="48.76362" lon="2.56086">
        <ele>149.61</ele>
        <time>2018-12-03T11:08:27Z</time>
      </trkpt>
      <trkpt lat="48.76364" lon="2.56079">
        <ele>149.629</ele>
        <time>2018-12-03T11:08:30Z</time>
      </trkpt>
      <trkpt lat="48.76368" lon="2.56072">
        <ele>149.655</ele>
        <time>2018-12-03T11:08:34Z</time>
      </trkpt>
      <trkpt lat="48.7637" lon="2.56066">
        <ele>149.681</ele>
        <time>2018-12-03T11:08:38Z</time>
      </trkpt>
      <trkpt lat="48.76372" lon="2.56062">
        <ele>149.695</ele>
        <time>2018-12-03T11:08:40Z</time>
      </trkpt>
      <trkpt lat="48.76373" lon="2.56058">
        <ele>149.703</ele>
        <time>2018-12-03T11:08:41Z</time>
      </trkpt>
      <trkpt lat="48.76374" lon="2.56054">
        <ele>149.719</ele>
        <time>2018-12-03T11:08:43Z</time>
      </trkpt>
      <trkpt lat="48.76375" lon="2.5605">
        <ele>149.735</ele>
        <time>2018-12-03T11:08:45Z</time>
      </trkpt>
      <trkpt lat="48.76375" lon="2.5605">
        <ele>101</ele>
        <time>2018-12-03T11:08:52Z</time>
      </trkpt>
      <trkpt lat="48.76375" lon="2.5605">
        <ele>101</ele>
        <time>2018-12-03T11:08:58Z</time>
      </trkpt>
      <trkpt lat="48.7638" lon="2.56038">
        <ele>149.818</ele>
        <time>2018-12-03T11:08:58Z</time>
      </trkpt>
      <trkpt lat="48.7638" lon="2.56038">
        <ele>149.818</ele>
        <time>2018-12-03T11:09:06Z</time>
      </trkpt>
      <trkpt lat="48.7638" lon="2.56038">
        <ele>101</ele>
        <time>2018-12-03T11:09:06Z</time>
      </trkpt>
      <trkpt lat="48.7638" lon="2.56038">
        <ele>101</ele>
        <time>2018-12-03T11:09:17Z</time>
      </trkpt>
      <trkpt lat="48.76383" lon="2.56009">
        <ele>149.919</ele>
        <time>2018-12-03T11:09:17Z</time>
      </trkpt>
      <trkpt lat="48.76385" lon="2.56">
        <ele>149.937</ele>
        <time>2018-12-03T11:09:20Z</time>
      </trkpt>
      <trkpt lat="48.76388" lon="2.55992">
        <ele>149.964</ele>
        <time>2018-12-03T11:09:25Z</time>
      </trkpt>
      <trkpt lat="48.7639" lon="2.55986">
        <ele>149.977</ele>
        <time>2018-12-03T11:09:27Z</time>
      </trkpt>
      <trkpt lat="48.76391" lon="2.55979">
        <ele>149.996</ele>
        <time>2018-12-03T11:09:30Z</time>
      </trkpt>
      <trkpt lat="48.76394" lon="2.55973">
        <ele>150.033</ele>
        <time>2018-12-03T11:09:37Z</time>
      </trkpt>
      <trkpt lat="48.76395" lon="2.55965">
        <ele>150.055</ele>
        <time>2018-12-03T11:09:43Z</time>
      </trkpt>
      <trkpt lat="48.76395" lon="2.55959">
        <ele>150.066</ele>
        <time>2018-12-03T11:09:46Z</time>
      </trkpt>
      <trkpt lat="48.76398" lon="2.55953">
        <ele>150.077</ele>
        <time>2018-12-03T11:09:50Z</time>
      </trkpt>
      <trkpt lat="48.76402" lon="2.55946">
        <ele>150.087</ele>
        <time>2018-12-03T11:09:53Z</time>
      </trkpt>
      <trkpt lat="48.76403" lon="2.55938">
        <ele>150.109</ele>
        <time>2018-12-03T11:09:57Z</time>
      </trkpt>
      <trkpt lat="48.76403" lon="2.55934">
        <ele>150.115</ele>
        <time>2018-12-03T11:09:58Z</time>
      </trkpt>
      <trkpt lat="48.76403" lon="2.55928">
        <ele>150.128</ele>
        <time>2018-12-03T11:10:00Z</time>
      </trkpt>
      <trkpt lat="48.76403" lon="2.55923">
        <ele>150.146</ele>
        <time>2018-12-03T11:10:03Z</time>
      </trkpt>
      <trkpt lat="48.76401" lon="2.55916">
        <ele>150.181</ele>
        <time>2018-12-03T11:10:10Z</time>
      </trkpt>
      <trkpt lat="48.76401" lon="2.55905">
        <ele>150.203</ele>
        <time>2018-12-03T11:10:16Z</time>
      </trkpt>
      <trkpt lat="48.76405" lon="2.55899">
        <ele>150.23</ele>
        <time>2018-12-03T11:10:22Z</time>
      </trkpt>
      <trkpt lat="48.76407" lon="2.55892">
        <ele>150.248</ele>
        <time>2018-12-03T11:10:26Z</time>
      </trkpt>
      <trkpt lat="48.76408" lon="2.55888">
        <ele>150.256</ele>
        <time>2018-12-03T11:10:28Z</time>
      </trkpt>
      <trkpt lat="48.76412" lon="2.55881">
        <ele>150.266</ele>
        <time>2018-12-03T11:10:31Z</time>
      </trkpt>
      <trkpt lat="48.76415" lon="2.55877">
        <ele>150.273</ele>
        <time>2018-12-03T11:10:34Z</time>
      </trkpt>
      <trkpt lat="48.76419" lon="2.55874">
        <ele>150.276</ele>
        <time>2018-12-03T11:10:36Z</time>
      </trkpt>
      <trkpt lat="48.76423" lon="2.55869">
        <ele>150.281</ele>
        <time>2018-12-03T11:10:39Z</time>
      </trkpt>
      <trkpt lat="48.76426" lon="2.55864">
        <ele>150.282</ele>
        <time>2018-12-03T11:10:44Z</time>
      </trkpt>
      <trkpt lat="48.76428" lon="2.55857">
        <ele>150.283</ele>
        <time>2018-12-03T11:10:49Z</time>
      </trkpt>
      <trkpt lat="48.76429" lon="2.55854">
        <ele>150.285</ele>
        <time>2018-12-03T11:10:52Z</time>
      </trkpt>
      <trkpt lat="48.76429" lon="2.55846">
        <ele>150.289</ele>
        <time>2018-12-03T11:10:55Z</time>
      </trkpt>
      <trkpt lat="48.76429" lon="2.55841">
        <ele>150.293</ele>
        <time>2018-12-03T11:10:57Z</time>
      </trkpt>
      <trkpt lat="48.76429" lon="2.55834">
        <ele>150.293</ele>
        <time>2018-12-03T11:11:01Z</time>
      </trkpt>
      <trkpt lat="48.76431" lon="2.55827">
        <ele>150.293</ele>
        <time>2018-12-03T11:11:04Z</time>
      </trkpt>
      <trkpt lat="48.76434" lon="2.55822">
        <ele>150.292</ele>
        <time>2018-12-03T11:11:08Z</time>
      </trkpt>
      <trkpt lat="48.76434" lon="2.55822">
        <ele>101</ele>
        <time>2018-12-03T11:11:14Z</time>
      </trkpt>
      <trkpt lat="48.76434" lon="2.55822">
        <ele>101</ele>
        <time>2018-12-03T11:11:44Z</time>
      </trkpt>
      <trkpt lat="48.76442" lon="2.55781">
        <ele>150.141</ele>
        <time>2018-12-03T11:11:44Z</time>
      </trkpt>
      <trkpt lat="48.76441" lon="2.55771">
        <ele>150.08</ele>
        <time>2018-12-03T11:11:51Z</time>
      </trkpt>
      <trkpt lat="48.76443" lon="2.55764">
        <ele>150.047</ele>
        <time>2018-12-03T11:11:55Z</time>
      </trkpt>
      <trkpt lat="48.76444" lon="2.55757">
        <ele>150.014</ele>
        <time>2018-12-03T11:12:00Z</time>
      </trkpt>
      <trkpt lat="48.76447" lon="2.55748">
        <ele>149.993</ele>
        <time>2018-12-03T11:12:03Z</time>
      </trkpt>
      <trkpt lat="48.76447" lon="2.55739">
        <ele>149.949</ele>
        <time>2018-12-03T11:12:09Z</time>
      </trkpt>
      <trkpt lat="48.76447" lon="2.55735">
        <ele>149.932</ele>
        <time>2018-12-03T11:12:11Z</time>
      </trkpt>
      <trkpt lat="48.76443" lon="2.55728">
        <ele>149.906</ele>
        <time>2018-12-03T11:12:15Z</time>
      </trkpt>
      <trkpt lat="48.76441" lon="2.55725">
        <ele>149.875</ele>
        <time>2018-12-03T11:12:20Z</time>
      </trkpt>
      <trkpt lat="48.76441" lon="2.55725">
        <ele>149.875</ele>
        <time>2018-12-03T11:16:10Z</time>
      </trkpt>
      <trkpt lat="48.76443" lon="2.55699">
        <ele>149.746</ele>
        <time>2018-12-03T11:16:11Z</time>
      </trkpt>
      <trkpt lat="48.76443" lon="2.55691">
        <ele>149.666</ele>
        <time>2018-12-03T11:16:22Z</time>
      </trkpt>
      <trkpt lat="48.76442" lon="2.55684">
        <ele>149.63</ele>
        <time>2018-12-03T11:16:32Z</time>
      </trkpt>
      <trkpt lat="48.76439" lon="2.55679">
        <ele>149.601</ele>
        <time>2018-12-03T11:16:38Z</time>
      </trkpt>
      <trkpt lat="48.76436" lon="2.55672">
        <ele>149.58</ele>
        <time>2018-12-03T11:16:44Z</time>
      </trkpt>
      <trkpt lat="48.76433" lon="2.55666">
        <ele>149.556</ele>
        <time>2018-12-03T11:16:48Z</time>
      </trkpt>
      <trkpt lat="48.76427" lon="2.55659">
        <ele>149.54</ele>
        <time>2018-12-03T11:16:52Z</time>
      </trkpt>
      <trkpt lat="48.76422" lon="2.55656">
        <ele>149.534</ele>
        <time>2018-12-03T11:16:55Z</time>
      </trkpt>
      <trkpt lat="48.76417" lon="2.55648">
        <ele>149.525</ele>
        <time>2018-12-03T11:16:59Z</time>
      </trkpt>
      <trkpt lat="48.76415" lon="2.55642">
        <ele>149.514</ele>
        <time>2018-12-03T11:17:03Z</time>
      </trkpt>
      <trkpt lat="48.76411" lon="2.55636">
        <ele>149.506</ele>
        <time>2018-12-03T11:17:06Z</time>
      </trkpt>
      <trkpt lat="48.76407" lon="2.55633">
        <ele>149.498</ele>
        <time>2018-12-03T11:17:09Z</time>
      </trkpt>
      <trkpt lat="48.76405" lon="2.55626">
        <ele>149.49</ele>
        <time>2018-12-03T11:17:12Z</time>
      </trkpt>
      <trkpt lat="48.76402" lon="2.55619">
        <ele>149.482</ele>
        <time>2018-12-03T11:17:17Z</time>
      </trkpt>
      <trkpt lat="48.764" lon="2.55615">
        <ele>149.481</ele>
        <time>2018-12-03T11:17:20Z</time>
      </trkpt>
      <trkpt lat="48.76397" lon="2.55611">
        <ele>149.479</ele>
        <time>2018-12-03T11:17:24Z</time>
      </trkpt>
      <trkpt lat="48.76394" lon="2.55608">
        <ele>149.475</ele>
        <time>2018-12-03T11:17:28Z</time>
      </trkpt>
      <trkpt lat="48.76392" lon="2.55606">
        <ele>149.474</ele>
        <time>2018-12-03T11:17:30Z</time>
      </trkpt>
      <trkpt lat="48.7639" lon="2.55599">
        <ele>149.464</ele>
        <time>2018-12-03T11:17:36Z</time>
      </trkpt>
      <trkpt lat="48.76392" lon="2.55592">
        <ele>149.454</ele>
        <time>2018-12-03T11:17:40Z</time>
      </trkpt>
      <trkpt lat="48.7639" lon="2.55584">
        <ele>149.442</ele>
        <time>2018-12-03T11:17:45Z</time>
      </trkpt>
      <trkpt lat="48.7639" lon="2.55584">
        <ele>101</ele>
        <time>2018-12-03T11:17:55Z</time>
      </trkpt>
      <trkpt lat="48.7639" lon="2.55584">
        <ele>101</ele>
        <time>2018-12-03T11:18:01Z</time>
      </trkpt>
      <trkpt lat="48.76384" lon="2.55575">
        <ele>149.424</ele>
        <time>2018-12-03T11:18:01Z</time>
      </trkpt>
      <trkpt lat="48.76382" lon="2.55572">
        <ele>149.419</ele>
        <time>2018-12-03T11:18:06Z</time>
      </trkpt>
      <trkpt lat="48.76377" lon="2.55566">
        <ele>149.413</ele>
        <time>2018-12-03T11:18:10Z</time>
      </trkpt>
      <trkpt lat="48.76373" lon="2.55558">
        <ele>149.407</ele>
        <time>2018-12-03T11:18:13Z</time>
      </trkpt>
      <trkpt lat="48.76369" lon="2.55552">
        <ele>149.403</ele>
        <time>2018-12-03T11:18:15Z</time>
      </trkpt>
      <trkpt lat="48.76367" lon="2.55549">
        <ele>149.398</ele>
        <time>2018-12-03T11:18:17Z</time>
      </trkpt>
      <trkpt lat="48.76367" lon="2.5554">
        <ele>149.39</ele>
        <time>2018-12-03T11:18:21Z</time>
      </trkpt>
      <trkpt lat="48.76365" lon="2.55532">
        <ele>149.385</ele>
        <time>2018-12-03T11:18:24Z</time>
      </trkpt>
      <trkpt lat="48.76363" lon="2.55526">
        <ele>149.381</ele>
        <time>2018-12-03T11:18:29Z</time>
      </trkpt>
      <trkpt lat="48.76362" lon="2.55519">
        <ele>149.379</ele>
        <time>2018-12-03T11:18:33Z</time>
      </trkpt>
      <trkpt lat="48.76358" lon="2.55514">
        <ele>149.379</ele>
        <time>2018-12-03T11:18:35Z</time>
      </trkpt>
      <trkpt lat="48.76357" lon="2.55511">
        <ele>149.379</ele>
        <time>2018-12-03T11:18:37Z</time>
      </trkpt>
      <trkpt lat="48.76355" lon="2.55504">
        <ele>149.385</ele>
        <time>2018-12-03T11:18:42Z</time>
      </trkpt>
      <trkpt lat="48.76352" lon="2.55497">
        <ele>149.388</ele>
        <time>2018-12-03T11:18:45Z</time>
      </trkpt>
      <trkpt lat="48.76351" lon="2.55492">
        <ele>149.391</ele>
        <time>2018-12-03T11:18:47Z</time>
      </trkpt>
      <trkpt lat="48.76348" lon="2.55487">
        <ele>149.397</ele>
        <time>2018-12-03T11:18:51Z</time>
      </trkpt>
      <trkpt lat="48.76345" lon="2.55482">
        <ele>149.403</ele>
        <time>2018-12-03T11:18:54Z</time>
      </trkpt>
      <trkpt lat="48.76342" lon="2.55475">
        <ele>149.413</ele>
        <time>2018-12-03T11:18:57Z</time>
      </trkpt>
      <trkpt lat="48.76339" lon="2.55468">
        <ele>149.425</ele>
        <time>2018-12-03T11:19:00Z</time>
      </trkpt>
      <trkpt lat="48.76337" lon="2.55461">
        <ele>149.448</ele>
        <time>2018-12-03T11:19:07Z</time>
      </trkpt>
      <trkpt lat="48.76333" lon="2.55454">
        <ele>149.47</ele>
        <time>2018-12-03T11:19:13Z</time>
      </trkpt>
      <trkpt lat="48.76331" lon="2.55447">
        <ele>149.482</ele>
        <time>2018-12-03T11:19:16Z</time>
      </trkpt>
      <trkpt lat="48.76328" lon="2.55442">
        <ele>149.499</ele>
        <time>2018-12-03T11:19:20Z</time>
      </trkpt>
      <trkpt lat="48.76325" lon="2.55438">
        <ele>149.516</ele>
        <time>2018-12-03T11:19:24Z</time>
      </trkpt>
      <trkpt lat="48.76323" lon="2.55431">
        <ele>149.534</ele>
        <time>2018-12-03T11:19:28Z</time>
      </trkpt>
      <trkpt lat="48.76322" lon="2.55428">
        <ele>149.539</ele>
        <time>2018-12-03T11:19:29Z</time>
      </trkpt>
      <trkpt lat="48.76321" lon="2.55422">
        <ele>149.557</ele>
        <time>2018-12-03T11:19:33Z</time>
      </trkpt>
      <trkpt lat="48.7632" lon="2.55419">
        <ele>149.574</ele>
        <time>2018-12-03T11:19:37Z</time>
      </trkpt>
      <trkpt lat="48.76316" lon="2.55413">
        <ele>149.59</ele>
        <time>2018-12-03T11:19:41Z</time>
      </trkpt>
      <trkpt lat="48.76315" lon="2.55406">
        <ele>149.604</ele>
        <time>2018-12-03T11:19:44Z</time>
      </trkpt>
      <trkpt lat="48.76312" lon="2.554">
        <ele>149.618</ele>
        <time>2018-12-03T11:19:48Z</time>
      </trkpt>
      <trkpt lat="48.7631" lon="2.55393">
        <ele>149.629</ele>
        <time>2018-12-03T11:19:52Z</time>
      </trkpt>
      <trkpt lat="48.76309" lon="2.5539">
        <ele>149.634</ele>
        <time>2018-12-03T11:19:54Z</time>
      </trkpt>
      <trkpt lat="48.76307" lon="2.55384">
        <ele>149.643</ele>
        <time>2018-12-03T11:19:57Z</time>
      </trkpt>
      <trkpt lat="48.76303" lon="2.55382">
        <ele>149.657</ele>
        <time>2018-12-03T11:20:01Z</time>
      </trkpt>
      <trkpt lat="48.76301" lon="2.55375">
        <ele>149.67</ele>
        <time>2018-12-03T11:20:05Z</time>
      </trkpt>
      <trkpt lat="48.76298" lon="2.55368">
        <ele>149.697</ele>
        <time>2018-12-03T11:20:12Z</time>
      </trkpt>
      <trkpt lat="48.76298" lon="2.55368">
        <ele>101</ele>
        <time>2018-12-03T11:20:19Z</time>
      </trkpt>
      <trkpt lat="48.76298" lon="2.55368">
        <ele>101</ele>
        <time>2018-12-03T11:20:49Z</time>
      </trkpt>
      <trkpt lat="48.76288" lon="2.55348">
        <ele>149.859</ele>
        <time>2018-12-03T11:20:49Z</time>
      </trkpt>
      <trkpt lat="48.76287" lon="2.55343">
        <ele>149.887</ele>
        <time>2018-12-03T11:20:54Z</time>
      </trkpt>
      <trkpt lat="48.76284" lon="2.55338">
        <ele>149.91</ele>
        <time>2018-12-03T11:20:58Z</time>
      </trkpt>
      <trkpt lat="48.76283" lon="2.55334">
        <ele>149.923</ele>
        <time>2018-12-03T11:21:00Z</time>
      </trkpt>
      <trkpt lat="48.76282" lon="2.55331">
        <ele>149.946</ele>
        <time>2018-12-03T11:21:04Z</time>
      </trkpt>
      <trkpt lat="48.7628" lon="2.55324">
        <ele>149.964</ele>
        <time>2018-12-03T11:21:07Z</time>
      </trkpt>
      <trkpt lat="48.76278" lon="2.55317">
        <ele>149.988</ele>
        <time>2018-12-03T11:21:11Z</time>
      </trkpt>
      <trkpt lat="48.76275" lon="2.5531">
        <ele>150.005</ele>
        <time>2018-12-03T11:21:14Z</time>
      </trkpt>
      <trkpt lat="48.76273" lon="2.55303">
        <ele>150.022</ele>
        <time>2018-12-03T11:21:17Z</time>
      </trkpt>
      <trkpt lat="48.76269" lon="2.55298">
        <ele>150.057</ele>
        <time>2018-12-03T11:21:24Z</time>
      </trkpt>
      <trkpt lat="48.76266" lon="2.55294">
        <ele>150.071</ele>
        <time>2018-12-03T11:21:27Z</time>
      </trkpt>
      <trkpt lat="48.76263" lon="2.55287">
        <ele>150.098</ele>
        <time>2018-12-03T11:21:32Z</time>
      </trkpt>
      <trkpt lat="48.76262" lon="2.55284">
        <ele>150.113</ele>
        <time>2018-12-03T11:21:35Z</time>
      </trkpt>
      <trkpt lat="48.76262" lon="2.55275">
        <ele>150.132</ele>
        <time>2018-12-03T11:21:39Z</time>
      </trkpt>
      <trkpt lat="48.7626" lon="2.55266">
        <ele>150.153</ele>
        <time>2018-12-03T11:21:43Z</time>
      </trkpt>
      <trkpt lat="48.76259" lon="2.55262">
        <ele>150.173</ele>
        <time>2018-12-03T11:21:46Z</time>
      </trkpt>
      <trkpt lat="48.76256" lon="2.55254">
        <ele>150.212</ele>
        <time>2018-12-03T11:21:51Z</time>
      </trkpt>
      <trkpt lat="48.76255" lon="2.55246">
        <ele>150.254</ele>
        <time>2018-12-03T11:21:56Z</time>
      </trkpt>
      <trkpt lat="48.76255" lon="2.55242">
        <ele>150.272</ele>
        <time>2018-12-03T11:21:58Z</time>
      </trkpt>
      <trkpt lat="48.76252" lon="2.55235">
        <ele>150.325</ele>
        <time>2018-12-03T11:22:04Z</time>
      </trkpt>
      <trkpt lat="48.76249" lon="2.55228">
        <ele>150.361</ele>
        <time>2018-12-03T11:22:08Z</time>
      </trkpt>
      <trkpt lat="48.76246" lon="2.55223">
        <ele>150.396</ele>
        <time>2018-12-03T11:22:12Z</time>
      </trkpt>
      <trkpt lat="48.76243" lon="2.55219">
        <ele>150.42</ele>
        <time>2018-12-03T11:22:15Z</time>
      </trkpt>
      <trkpt lat="48.7624" lon="2.55212">
        <ele>150.454</ele>
        <time>2018-12-03T11:22:19Z</time>
      </trkpt>
      <trkpt lat="48.76239" lon="2.55209">
        <ele>150.463</ele>
        <time>2018-12-03T11:22:20Z</time>
      </trkpt>
      <trkpt lat="48.76237" lon="2.55202">
        <ele>150.497</ele>
        <time>2018-12-03T11:22:24Z</time>
      </trkpt>
      <trkpt lat="48.76233" lon="2.55196">
        <ele>150.538</ele>
        <time>2018-12-03T11:22:29Z</time>
      </trkpt>
      <trkpt lat="48.76229" lon="2.55189">
        <ele>150.563</ele>
        <time>2018-12-03T11:22:32Z</time>
      </trkpt>
      <trkpt lat="48.76228" lon="2.55185">
        <ele>150.588</ele>
        <time>2018-12-03T11:22:35Z</time>
      </trkpt>
      <trkpt lat="48.76224" lon="2.55179">
        <ele>150.627</ele>
        <time>2018-12-03T11:22:40Z</time>
      </trkpt>
      <trkpt lat="48.76222" lon="2.55172">
        <ele>150.664</ele>
        <time>2018-12-03T11:22:45Z</time>
      </trkpt>
      <trkpt lat="48.76221" lon="2.55168">
        <ele>150.672</ele>
        <time>2018-12-03T11:22:47Z</time>
      </trkpt>
      <trkpt lat="48.7622" lon="2.55165">
        <ele>150.688</ele>
        <time>2018-12-03T11:22:50Z</time>
      </trkpt>
      <trkpt lat="48.7622" lon="2.55165">
        <ele>100</ele>
        <time>2018-12-03T11:22:58Z</time>
      </trkpt>
      <trkpt lat="48.7622" lon="2.55165">
        <ele>100</ele>
        <time>2018-12-03T11:23:02Z</time>
      </trkpt>
      <trkpt lat="48.76214" lon="2.55152">
        <ele>150.781</ele>
        <time>2018-12-03T11:23:02Z</time>
      </trkpt>
      <trkpt lat="48.76212" lon="2.55147">
        <ele>150.808</ele>
        <time>2018-12-03T11:23:06Z</time>
      </trkpt>
      <trkpt lat="48.7621" lon="2.55144">
        <ele>150.821</ele>
        <time>2018-12-03T11:23:08Z</time>
      </trkpt>
      <trkpt lat="48.76208" lon="2.55138">
        <ele>150.843</ele>
        <time>2018-12-03T11:23:11Z</time>
      </trkpt>
      <trkpt lat="48.76207" lon="2.55134">
        <ele>150.865</ele>
        <time>2018-12-03T11:23:14Z</time>
      </trkpt>
      <trkpt lat="48.76205" lon="2.55127">
        <ele>150.908</ele>
        <time>2018-12-03T11:23:20Z</time>
      </trkpt>
      <trkpt lat="48.76203" lon="2.5512">
        <ele>150.93</ele>
        <time>2018-12-03T11:23:23Z</time>
      </trkpt>
      <trkpt lat="48.76199" lon="2.55115">
        <ele>150.952</ele>
        <time>2018-12-03T11:23:26Z</time>
      </trkpt>
      <trkpt lat="48.76197" lon="2.55112">
        <ele>150.966</ele>
        <time>2018-12-03T11:23:28Z</time>
      </trkpt>
      <trkpt lat="48.76193" lon="2.55103">
        <ele>150.992</ele>
        <time>2018-12-03T11:23:32Z</time>
      </trkpt>
      <trkpt lat="48.76191" lon="2.55095">
        <ele>151.024</ele>
        <time>2018-12-03T11:23:38Z</time>
      </trkpt>
      <trkpt lat="48.76189" lon="2.55091">
        <ele>151.045</ele>
        <time>2018-12-03T11:23:41Z</time>
      </trkpt>
      <trkpt lat="48.76187" lon="2.55087">
        <ele>151.069</ele>
        <time>2018-12-03T11:23:45Z</time>
      </trkpt>
      <trkpt lat="48.76186" lon="2.55083">
        <ele>151.081</ele>
        <time>2018-12-03T11:23:47Z</time>
      </trkpt>
      <trkpt lat="48.76183" lon="2.55076">
        <ele>151.109</ele>
        <time>2018-12-03T11:23:52Z</time>
      </trkpt>
      <trkpt lat="48.76178" lon="2.5507">
        <ele>151.132</ele>
        <time>2018-12-03T11:23:56Z</time>
      </trkpt>
      <trkpt lat="48.76176" lon="2.55064">
        <ele>151.156</ele>
        <time>2018-12-03T11:24:00Z</time>
      </trkpt>
      <trkpt lat="48.76174" lon="2.55057">
        <ele>151.184</ele>
        <time>2018-12-03T11:24:05Z</time>
      </trkpt>
      <trkpt lat="48.76173" lon="2.55054">
        <ele>151.212</ele>
        <time>2018-12-03T11:24:10Z</time>
      </trkpt>
      <trkpt lat="48.76172" lon="2.5505">
        <ele>151.23</ele>
        <time>2018-12-03T11:24:13Z</time>
      </trkpt>
      <trkpt lat="48.76172" lon="2.55042">
        <ele>151.257</ele>
        <time>2018-12-03T11:24:18Z</time>
      </trkpt>
      <trkpt lat="48.76172" lon="2.55037">
        <ele>151.269</ele>
        <time>2018-12-03T11:24:20Z</time>
      </trkpt>
      <trkpt lat="48.7617" lon="2.55031">
        <ele>151.3</ele>
        <time>2018-12-03T11:24:25Z</time>
      </trkpt>
      <trkpt lat="48.76169" lon="2.55027">
        <ele>151.319</ele>
        <time>2018-12-03T11:24:28Z</time>
      </trkpt>
      <trkpt lat="48.76165" lon="2.55021">
        <ele>151.354</ele>
        <time>2018-12-03T11:24:33Z</time>
      </trkpt>
      <trkpt lat="48.76163" lon="2.55014">
        <ele>151.392</ele>
        <time>2018-12-03T11:24:38Z</time>
      </trkpt>
      <trkpt lat="48.76161" lon="2.55007">
        <ele>151.418</ele>
        <time>2018-12-03T11:24:41Z</time>
      </trkpt>
      <trkpt lat="48.7616" lon="2.55002">
        <ele>151.445</ele>
        <time>2018-12-03T11:24:44Z</time>
      </trkpt>
      <trkpt lat="48.76159" lon="2.54996">
        <ele>151.475</ele>
        <time>2018-12-03T11:24:47Z</time>
      </trkpt>
      <trkpt lat="48.76158" lon="2.54993">
        <ele>151.505</ele>
        <time>2018-12-03T11:24:50Z</time>
      </trkpt>
      <trkpt lat="48.76155" lon="2.54986">
        <ele>151.545</ele>
        <time>2018-12-03T11:24:54Z</time>
      </trkpt>
      <trkpt lat="48.76153" lon="2.54981">
        <ele>151.567</ele>
        <time>2018-12-03T11:24:56Z</time>
      </trkpt>
      <trkpt lat="48.76151" lon="2.54975">
        <ele>151.611</ele>
        <time>2018-12-03T11:25:00Z</time>
      </trkpt>
      <trkpt lat="48.76149" lon="2.54968">
        <ele>151.653</ele>
        <time>2018-12-03T11:25:04Z</time>
      </trkpt>
      <trkpt lat="48.76146" lon="2.54961">
        <ele>151.714</ele>
        <time>2018-12-03T11:25:10Z</time>
      </trkpt>
      <trkpt lat="48.76142" lon="2.54955">
        <ele>151.762</ele>
        <time>2018-12-03T11:25:15Z</time>
      </trkpt>
      <trkpt lat="48.7614" lon="2.54947">
        <ele>151.81</ele>
        <time>2018-12-03T11:25:20Z</time>
      </trkpt>
      <trkpt lat="48.76139" lon="2.54944">
        <ele>151.829</ele>
        <time>2018-12-03T11:25:22Z</time>
      </trkpt>
      <trkpt lat="48.76136" lon="2.54938">
        <ele>151.866</ele>
        <time>2018-12-03T11:25:26Z</time>
      </trkpt>
      <trkpt lat="48.76135" lon="2.54935">
        <ele>151.884</ele>
        <time>2018-12-03T11:25:28Z</time>
      </trkpt>
      <trkpt lat="48.76131" lon="2.54929">
        <ele>151.923</ele>
        <time>2018-12-03T11:25:32Z</time>
      </trkpt>
      <trkpt lat="48.76127" lon="2.54924">
        <ele>151.957</ele>
        <time>2018-12-03T11:25:35Z</time>
      </trkpt>
      <trkpt lat="48.76124" lon="2.54919">
        <ele>152.005</ele>
        <time>2018-12-03T11:25:39Z</time>
      </trkpt>
      <trkpt lat="48.76122" lon="2.54912">
        <ele>152.044</ele>
        <time>2018-12-03T11:25:42Z</time>
      </trkpt>
      <trkpt lat="48.76123" lon="2.54905">
        <ele>152.114</ele>
        <time>2018-12-03T11:25:48Z</time>
      </trkpt>
      <trkpt lat="48.76124" lon="2.54901">
        <ele>152.156</ele>
        <time>2018-12-03T11:25:52Z</time>
      </trkpt>
      <trkpt lat="48.76123" lon="2.54892">
        <ele>152.209</ele>
        <time>2018-12-03T11:25:58Z</time>
      </trkpt>
      <trkpt lat="48.76124" lon="2.54885">
        <ele>152.251</ele>
        <time>2018-12-03T11:26:03Z</time>
      </trkpt>
      <trkpt lat="48.76124" lon="2.54877">
        <ele>152.285</ele>
        <time>2018-12-03T11:26:07Z</time>
      </trkpt>
      <trkpt lat="48.76123" lon="2.5487">
        <ele>152.318</ele>
        <time>2018-12-03T11:26:12Z</time>
      </trkpt>
      <trkpt lat="48.76125" lon="2.54864">
        <ele>152.338</ele>
        <time>2018-12-03T11:26:18Z</time>
      </trkpt>
      <trkpt lat="48.76123" lon="2.54857">
        <ele>152.344</ele>
        <time>2018-12-03T11:26:25Z</time>
      </trkpt>
      <trkpt lat="48.76119" lon="2.54851">
        <ele>152.337</ele>
        <time>2018-12-03T11:26:32Z</time>
      </trkpt>
      <trkpt lat="48.76123" lon="2.54842">
        <ele>152.331</ele>
        <time>2018-12-03T11:26:36Z</time>
      </trkpt>
      <trkpt lat="48.76126" lon="2.54836">
        <ele>152.324</ele>
        <time>2018-12-03T11:26:41Z</time>
      </trkpt>
      <trkpt lat="48.76127" lon="2.54828">
        <ele>152.32</ele>
        <time>2018-12-03T11:26:46Z</time>
      </trkpt>
      <trkpt lat="48.76127" lon="2.5482">
        <ele>152.319</ele>
        <time>2018-12-03T11:26:49Z</time>
      </trkpt>
      <trkpt lat="48.76126" lon="2.54816">
        <ele>152.318</ele>
        <time>2018-12-03T11:26:50Z</time>
      </trkpt>
      <trkpt lat="48.76127" lon="2.54808">
        <ele>152.314</ele>
        <time>2018-12-03T11:26:55Z</time>
      </trkpt>
      <trkpt lat="48.76126" lon="2.54799">
        <ele>152.317</ele>
        <time>2018-12-03T11:26:58Z</time>
      </trkpt>
      <trkpt lat="48.76126" lon="2.54795">
        <ele>152.324</ele>
        <time>2018-12-03T11:27:01Z</time>
      </trkpt>
      <trkpt lat="48.76127" lon="2.54787">
        <ele>152.331</ele>
        <time>2018-12-03T11:27:06Z</time>
      </trkpt>
      <trkpt lat="48.76127" lon="2.54782">
        <ele>152.333</ele>
        <time>2018-12-03T11:27:08Z</time>
      </trkpt>
      <trkpt lat="48.7613" lon="2.54772">
        <ele>152.336</ele>
        <time>2018-12-03T11:27:14Z</time>
      </trkpt>
      <trkpt lat="48.7613" lon="2.54772">
        <ele>99.5</ele>
        <time>2018-12-03T11:27:22Z</time>
      </trkpt>
      <trkpt lat="48.7613" lon="2.54772">
        <ele>99.5</ele>
        <time>2018-12-03T11:27:39Z</time>
      </trkpt>
      <trkpt lat="48.76122" lon="2.54752">
        <ele>152.33</ele>
        <time>2018-12-03T11:27:39Z</time>
      </trkpt>
      <trkpt lat="48.76119" lon="2.54747">
        <ele>152.335</ele>
        <time>2018-12-03T11:27:47Z</time>
      </trkpt>
      <trkpt lat="48.76114" lon="2.54743">
        <ele>152.337</ele>
        <time>2018-12-03T11:27:54Z</time>
      </trkpt>
      <trkpt lat="48.76109" lon="2.54741">
        <ele>152.334</ele>
        <time>2018-12-03T11:27:58Z</time>
      </trkpt>
      <trkpt lat="48.76105" lon="2.54739">
        <ele>152.334</ele>
        <time>2018-12-03T11:28:00Z</time>
      </trkpt>
      <trkpt lat="48.76102" lon="2.54734">
        <ele>152.33</ele>
        <time>2018-12-03T11:28:07Z</time>
      </trkpt>
      <trkpt lat="48.76102" lon="2.54734">
        <ele>99</ele>
        <time>2018-12-03T11:28:15Z</time>
      </trkpt>
      <trkpt lat="48.76102" lon="2.54734">
        <ele>99</ele>
        <time>2018-12-03T11:28:20Z</time>
      </trkpt>
      <trkpt lat="48.76103" lon="2.54719">
        <ele>152.262</ele>
        <time>2018-12-03T11:28:20Z</time>
      </trkpt>
      <trkpt lat="48.76099" lon="2.54714">
        <ele>152.23</ele>
        <time>2018-12-03T11:28:23Z</time>
      </trkpt>
      <trkpt lat="48.76095" lon="2.54708">
        <ele>152.195</ele>
        <time>2018-12-03T11:28:26Z</time>
      </trkpt>
      <trkpt lat="48.76093" lon="2.54701">
        <ele>152.147</ele>
        <time>2018-12-03T11:28:30Z</time>
      </trkpt>
      <trkpt lat="48.76091" lon="2.54696">
        <ele>152.133</ele>
        <time>2018-12-03T11:28:32Z</time>
      </trkpt>
      <trkpt lat="48.76091" lon="2.54686">
        <ele>152.091</ele>
        <time>2018-12-03T11:28:36Z</time>
      </trkpt>
      <trkpt lat="48.76092" lon="2.54679">
        <ele>152.048</ele>
        <time>2018-12-03T11:28:39Z</time>
      </trkpt>
      <trkpt lat="48.76092" lon="2.54671">
        <ele>152.004</ele>
        <time>2018-12-03T11:28:42Z</time>
      </trkpt>
      <trkpt lat="48.76092" lon="2.54665">
        <ele>151.975</ele>
        <time>2018-12-03T11:28:44Z</time>
      </trkpt>
      <trkpt lat="48.76092" lon="2.54661">
        <ele>151.934</ele>
        <time>2018-12-03T11:28:47Z</time>
      </trkpt>
      <trkpt lat="48.76091" lon="2.54654">
        <ele>151.896</ele>
        <time>2018-12-03T11:28:50Z</time>
      </trkpt>
      <trkpt lat="48.76093" lon="2.54647">
        <ele>151.858</ele>
        <time>2018-12-03T11:28:53Z</time>
      </trkpt>
      <trkpt lat="48.76095" lon="2.5464">
        <ele>151.822</ele>
        <time>2018-12-03T11:28:56Z</time>
      </trkpt>
      <trkpt lat="48.76097" lon="2.54634">
        <ele>151.788</ele>
        <time>2018-12-03T11:29:00Z</time>
      </trkpt>
      <trkpt lat="48.76094" lon="2.54627">
        <ele>151.741</ele>
        <time>2018-12-03T11:29:05Z</time>
      </trkpt>
      <trkpt lat="48.76092" lon="2.54624">
        <ele>151.725</ele>
        <time>2018-12-03T11:29:07Z</time>
      </trkpt>
      <trkpt lat="48.76092" lon="2.54624">
        <ele>98</ele>
        <time>2018-12-03T11:29:14Z</time>
      </trkpt>
      <trkpt lat="48.76092" lon="2.54624">
        <ele>98</ele>
        <time>2018-12-03T11:29:23Z</time>
      </trkpt>
      <trkpt lat="48.76086" lon="2.5461">
        <ele>151.621</ele>
        <time>2018-12-03T11:29:23Z</time>
      </trkpt>
      <trkpt lat="48.76089" lon="2.54597">
        <ele>151.563</ele>
        <time>2018-12-03T11:29:29Z</time>
      </trkpt>
      <trkpt lat="48.7609" lon="2.5459">
        <ele>151.525</ele>
        <time>2018-12-03T11:29:33Z</time>
      </trkpt>
      <trkpt lat="48.76088" lon="2.54583">
        <ele>151.48</ele>
        <time>2018-12-03T11:29:38Z</time>
      </trkpt>
      <trkpt lat="48.76087" lon="2.54576">
        <ele>151.448</ele>
        <time>2018-12-03T11:29:42Z</time>
      </trkpt>
      <trkpt lat="48.76084" lon="2.54571">
        <ele>151.426</ele>
        <time>2018-12-03T11:29:47Z</time>
      </trkpt>
      <trkpt lat="48.76078" lon="2.54566">
        <ele>151.4</ele>
        <time>2018-12-03T11:29:51Z</time>
      </trkpt>
      <trkpt lat="48.76076" lon="2.5456">
        <ele>151.375</ele>
        <time>2018-12-03T11:29:55Z</time>
      </trkpt>
      <trkpt lat="48.76073" lon="2.54555">
        <ele>151.363</ele>
        <time>2018-12-03T11:29:57Z</time>
      </trkpt>
      <trkpt lat="48.76073" lon="2.54555">
        <ele>98</ele>
        <time>2018-12-03T11:30:04Z</time>
      </trkpt>
      <trkpt lat="48.76073" lon="2.54555">
        <ele>98</ele>
        <time>2018-12-03T11:30:07Z</time>
      </trkpt>
      <trkpt lat="48.76068" lon="2.54546">
        <ele>151.32</ele>
        <time>2018-12-03T11:30:07Z</time>
      </trkpt>
      <trkpt lat="48.76066" lon="2.54538">
        <ele>151.3</ele>
        <time>2018-12-03T11:30:11Z</time>
      </trkpt>
      <trkpt lat="48.76064" lon="2.54532">
        <ele>151.288</ele>
        <time>2018-12-03T11:30:13Z</time>
      </trkpt>
      <trkpt lat="48.76059" lon="2.54523">
        <ele>151.277</ele>
        <time>2018-12-03T11:30:15Z</time>
      </trkpt>
      <trkpt lat="48.76056" lon="2.5452">
        <ele>151.273</ele>
        <time>2018-12-03T11:30:16Z</time>
      </trkpt>
      <trkpt lat="48.76051" lon="2.54515">
        <ele>151.26</ele>
        <time>2018-12-03T11:30:19Z</time>
      </trkpt>
      <trkpt lat="48.76046" lon="2.54512">
        <ele>151.252</ele>
        <time>2018-12-03T11:30:21Z</time>
      </trkpt>
      <trkpt lat="48.7604" lon="2.54511">
        <ele>151.24</ele>
        <time>2018-12-03T11:30:24Z</time>
      </trkpt>
      <trkpt lat="48.7604" lon="2.54511">
        <ele>98</ele>
        <time>2018-12-03T11:30:30Z</time>
      </trkpt>
      <trkpt lat="48.7604" lon="2.54511">
        <ele>98</ele>
        <time>2018-12-03T11:30:45Z</time>
      </trkpt>
      <trkpt lat="48.76022" lon="2.54502">
        <ele>151.175</ele>
        <time>2018-12-03T11:30:45Z</time>
      </trkpt>
      <trkpt lat="48.76017" lon="2.54499">
        <ele>151.173</ele>
        <time>2018-12-03T11:30:49Z</time>
      </trkpt>
      <trkpt lat="48.76011" lon="2.54497">
        <ele>151.175</ele>
        <time>2018-12-03T11:30:52Z</time>
      </trkpt>
      <trkpt lat="48.76006" lon="2.54495">
        <ele>151.178</ele>
        <time>2018-12-03T11:30:55Z</time>
      </trkpt>
      <trkpt lat="48.76003" lon="2.54495">
        <ele>151.18</ele>
        <time>2018-12-03T11:30:57Z</time>
      </trkpt>
      <trkpt lat="48.75998" lon="2.54494">
        <ele>151.182</ele>
        <time>2018-12-03T11:31:00Z</time>
      </trkpt>
      <trkpt lat="48.75993" lon="2.54492">
        <ele>151.185</ele>
        <time>2018-12-03T11:31:04Z</time>
      </trkpt>
      <trkpt lat="48.75988" lon="2.54492">
        <ele>151.186</ele>
        <time>2018-12-03T11:31:09Z</time>
      </trkpt>
      <trkpt lat="48.75982" lon="2.54496">
        <ele>151.185</ele>
        <time>2018-12-03T11:31:13Z</time>
      </trkpt>
      <trkpt lat="48.75977" lon="2.54496">
        <ele>151.18</ele>
        <time>2018-12-03T11:31:17Z</time>
      </trkpt>
      <trkpt lat="48.75974" lon="2.54496">
        <ele>151.176</ele>
        <time>2018-12-03T11:31:19Z</time>
      </trkpt>
      <trkpt lat="48.75971" lon="2.54496">
        <ele>151.178</ele>
        <time>2018-12-03T11:31:25Z</time>
      </trkpt>
      <trkpt lat="48.75972" lon="2.54483">
        <ele>151.171</ele>
        <time>2018-12-03T11:31:34Z</time>
      </trkpt>
      <trkpt lat="48.75973" lon="2.54477">
        <ele>151.146</ele>
        <time>2018-12-03T11:31:45Z</time>
      </trkpt>
      <trkpt lat="48.75973" lon="2.54469">
        <ele>151.1</ele>
        <time>2018-12-03T11:31:54Z</time>
      </trkpt>
      <trkpt lat="48.7597" lon="2.5446">
        <ele>151.058</ele>
        <time>2018-12-03T11:32:02Z</time>
      </trkpt>
      <trkpt lat="48.75965" lon="2.54449">
        <ele>151.013</ele>
        <time>2018-12-03T11:32:09Z</time>
      </trkpt>
      <trkpt lat="48.75959" lon="2.54441">
        <ele>150.993</ele>
        <time>2018-12-03T11:32:12Z</time>
      </trkpt>
      <trkpt lat="48.75956" lon="2.54435">
        <ele>150.986</ele>
        <time>2018-12-03T11:32:14Z</time>
      </trkpt>
      <trkpt lat="48.75952" lon="2.54432">
        <ele>150.976</ele>
        <time>2018-12-03T11:32:16Z</time>
      </trkpt>
      <trkpt lat="48.75948" lon="2.54426">
        <ele>150.962</ele>
        <time>2018-12-03T11:32:19Z</time>
      </trkpt>
      <trkpt lat="48.75948" lon="2.54426">
        <ele>99</ele>
        <time>2018-12-03T11:32:28Z</time>
      </trkpt>
      <trkpt lat="48.75948" lon="2.54426">
        <ele>99</ele>
        <time>2018-12-03T11:32:44Z</time>
      </trkpt>
      <trkpt lat="48.7594" lon="2.544">
        <ele>150.953</ele>
        <time>2018-12-03T11:32:44Z</time>
      </trkpt>
      <trkpt lat="48.75937" lon="2.54395">
        <ele>150.955</ele>
        <time>2018-12-03T11:32:46Z</time>
      </trkpt>
      <trkpt lat="48.75934" lon="2.54387">
        <ele>150.959</ele>
        <time>2018-12-03T11:32:48Z</time>
      </trkpt>
      <trkpt lat="48.75929" lon="2.54381">
        <ele>150.967</ele>
        <time>2018-12-03T11:32:51Z</time>
      </trkpt>
      <trkpt lat="48.75926" lon="2.54377">
        <ele>150.976</ele>
        <time>2018-12-03T11:32:55Z</time>
      </trkpt>
      <trkpt lat="48.75924" lon="2.5437">
        <ele>150.982</ele>
        <time>2018-12-03T11:33:02Z</time>
      </trkpt>
      <trkpt lat="48.75923" lon="2.54365">
        <ele>150.982</ele>
        <time>2018-12-03T11:33:10Z</time>
      </trkpt>
      <trkpt lat="48.75922" lon="2.54359">
        <ele>150.982</ele>
        <time>2018-12-03T11:33:12Z</time>
      </trkpt>
      <trkpt lat="48.75921" lon="2.54352">
        <ele>150.982</ele>
        <time>2018-12-03T11:33:14Z</time>
      </trkpt>
      <trkpt lat="48.75921" lon="2.54345">
        <ele>150.979</ele>
        <time>2018-12-03T11:33:18Z</time>
      </trkpt>
      <trkpt lat="48.75918" lon="2.54339">
        <ele>150.972</ele>
        <time>2018-12-03T11:33:21Z</time>
      </trkpt>
      <trkpt lat="48.75914" lon="2.54333">
        <ele>150.963</ele>
        <time>2018-12-03T11:33:24Z</time>
      </trkpt>
      <trkpt lat="48.75912" lon="2.5433">
        <ele>150.96</ele>
        <time>2018-12-03T11:33:25Z</time>
      </trkpt>
      <trkpt lat="48.7591" lon="2.54327">
        <ele>150.957</ele>
        <time>2018-12-03T11:33:26Z</time>
      </trkpt>
      <trkpt lat="48.75907" lon="2.5432">
        <ele>150.952</ele>
        <time>2018-12-03T11:33:28Z</time>
      </trkpt>
      <trkpt lat="48.75903" lon="2.54314">
        <ele>150.947</ele>
        <time>2018-12-03T11:33:30Z</time>
      </trkpt>
      <trkpt lat="48.759" lon="2.54308">
        <ele>150.94</ele>
        <time>2018-12-03T11:33:33Z</time>
      </trkpt>
      <trkpt lat="48.75898" lon="2.54305">
        <ele>150.936</ele>
        <time>2018-12-03T11:33:35Z</time>
      </trkpt>
      <trkpt lat="48.75894" lon="2.54299">
        <ele>150.929</ele>
        <time>2018-12-03T11:33:39Z</time>
      </trkpt>
      <trkpt lat="48.75893" lon="2.54291">
        <ele>150.92</ele>
        <time>2018-12-03T11:33:44Z</time>
      </trkpt>
      <trkpt lat="48.75892" lon="2.54286">
        <ele>150.914</ele>
        <time>2018-12-03T11:33:48Z</time>
      </trkpt>
      <trkpt lat="48.75889" lon="2.54279">
        <ele>150.897</ele>
        <time>2018-12-03T11:33:53Z</time>
      </trkpt>
      <trkpt lat="48.75887" lon="2.54263">
        <ele>150.871</ele>
        <time>2018-12-03T11:33:59Z</time>
      </trkpt>
      <trkpt lat="48.75883" lon="2.54258">
        <ele>150.856</ele>
        <time>2018-12-03T11:34:02Z</time>
      </trkpt>
      <trkpt lat="48.75881" lon="2.5425">
        <ele>150.84</ele>
        <time>2018-12-03T11:34:05Z</time>
      </trkpt>
      <trkpt lat="48.75879" lon="2.54245">
        <ele>150.808</ele>
        <time>2018-12-03T11:34:10Z</time>
      </trkpt>
      <trkpt lat="48.75877" lon="2.54238">
        <ele>150.774</ele>
        <time>2018-12-03T11:34:15Z</time>
      </trkpt>
      <trkpt lat="48.75875" lon="2.54231">
        <ele>150.741</ele>
        <time>2018-12-03T11:34:20Z</time>
      </trkpt>
      <trkpt lat="48.75873" lon="2.54225">
        <ele>150.725</ele>
        <time>2018-12-03T11:34:23Z</time>
      </trkpt>
      <trkpt lat="48.7587" lon="2.54218">
        <ele>150.697</ele>
        <time>2018-12-03T11:34:28Z</time>
      </trkpt>
      <trkpt lat="48.75866" lon="2.54212">
        <ele>150.667</ele>
        <time>2018-12-03T11:34:33Z</time>
      </trkpt>
      <trkpt lat="48.75866" lon="2.54212">
        <ele>99</ele>
        <time>2018-12-03T11:34:40Z</time>
      </trkpt>
      <trkpt lat="48.75866" lon="2.54212">
        <ele>99</ele>
        <time>2018-12-03T11:34:46Z</time>
      </trkpt>
      <trkpt lat="48.75862" lon="2.542">
        <ele>150.563</ele>
        <time>2018-12-03T11:34:46Z</time>
      </trkpt>
      <trkpt lat="48.75862" lon="2.5419">
        <ele>150.533</ele>
        <time>2018-12-03T11:34:50Z</time>
      </trkpt>
      <trkpt lat="48.75861" lon="2.54183">
        <ele>150.497</ele>
        <time>2018-12-03T11:34:54Z</time>
      </trkpt>
      <trkpt lat="48.75858" lon="2.54177">
        <ele>150.463</ele>
        <time>2018-12-03T11:34:58Z</time>
      </trkpt>
      <trkpt lat="48.75855" lon="2.54169">
        <ele>150.437</ele>
        <time>2018-12-03T11:35:01Z</time>
      </trkpt>
      <trkpt lat="48.75853" lon="2.54162">
        <ele>150.419</ele>
        <time>2018-12-03T11:35:03Z</time>
      </trkpt>
      <trkpt lat="48.75852" lon="2.54157">
        <ele>150.392</ele>
        <time>2018-12-03T11:35:06Z</time>
      </trkpt>
      <trkpt lat="48.75852" lon="2.5415">
        <ele>150.362</ele>
        <time>2018-12-03T11:35:09Z</time>
      </trkpt>
      <trkpt lat="48.75852" lon="2.54146">
        <ele>150.352</ele>
        <time>2018-12-03T11:35:10Z</time>
      </trkpt>
      <trkpt lat="48.7585" lon="2.54137">
        <ele>150.312</ele>
        <time>2018-12-03T11:35:14Z</time>
      </trkpt>
      <trkpt lat="48.75848" lon="2.54131">
        <ele>150.293</ele>
        <time>2018-12-03T11:35:16Z</time>
      </trkpt>
      <trkpt lat="48.75849" lon="2.54124">
        <ele>150.247</ele>
        <time>2018-12-03T11:35:21Z</time>
      </trkpt>
      <trkpt lat="48.75849" lon="2.54116">
        <ele>150.213</ele>
        <time>2018-12-03T11:35:26Z</time>
      </trkpt>
      <trkpt lat="48.75848" lon="2.54108">
        <ele>150.19</ele>
        <time>2018-12-03T11:35:30Z</time>
      </trkpt>
      <trkpt lat="48.75847" lon="2.54102">
        <ele>150.169</ele>
        <time>2018-12-03T11:35:34Z</time>
      </trkpt>
      <trkpt lat="48.75844" lon="2.54095">
        <ele>150.148</ele>
        <time>2018-12-03T11:35:38Z</time>
      </trkpt>
      <trkpt lat="48.75843" lon="2.54088">
        <ele>150.129</ele>
        <time>2018-12-03T11:35:42Z</time>
      </trkpt>
      <trkpt lat="48.75842" lon="2.54083">
        <ele>150.115</ele>
        <time>2018-12-03T11:35:45Z</time>
      </trkpt>
      <trkpt lat="48.7584" lon="2.54075">
        <ele>150.1</ele>
        <time>2018-12-03T11:35:49Z</time>
      </trkpt>
      <trkpt lat="48.75839" lon="2.5407">
        <ele>150.087</ele>
        <time>2018-12-03T11:35:52Z</time>
      </trkpt>
      <trkpt lat="48.75838" lon="2.54067">
        <ele>150.073</ele>
        <time>2018-12-03T11:35:55Z</time>
      </trkpt>
      <trkpt lat="48.75838" lon="2.54059">
        <ele>150.03</ele>
        <time>2018-12-03T11:36:03Z</time>
      </trkpt>
      <trkpt lat="48.75837" lon="2.54054">
        <ele>150.02</ele>
        <time>2018-12-03T11:36:05Z</time>
      </trkpt>
      <trkpt lat="48.75837" lon="2.5405">
        <ele>150.008</ele>
        <time>2018-12-03T11:36:07Z</time>
      </trkpt>
      <trkpt lat="48.75836" lon="2.54046">
        <ele>149.996</ele>
        <time>2018-12-03T11:36:09Z</time>
      </trkpt>
      <trkpt lat="48.75836" lon="2.54046">
        <ele>149.996</ele>
        <time>2018-12-03T11:36:17Z</time>
      </trkpt>
      <trkpt lat="48.75836" lon="2.54046">
        <ele>99</ele>
        <time>2018-12-03T11:36:17Z</time>
      </trkpt>
      <trkpt lat="48.75836" lon="2.54046">
        <ele>99</ele>
        <time>2018-12-03T11:36:29Z</time>
      </trkpt>
      <trkpt lat="48.75839" lon="2.54024">
        <ele>149.909</ele>
        <time>2018-12-03T11:36:29Z</time>
      </trkpt>
      <trkpt lat="48.7584" lon="2.54019">
        <ele>149.891</ele>
        <time>2018-12-03T11:36:35Z</time>
      </trkpt>
      <trkpt lat="48.75844" lon="2.54012">
        <ele>149.873</ele>
        <time>2018-12-03T11:36:40Z</time>
      </trkpt>
      <trkpt lat="48.75846" lon="2.54005">
        <ele>149.857</ele>
        <time>2018-12-03T11:36:45Z</time>
      </trkpt>
      <trkpt lat="48.75848" lon="2.53999">
        <ele>149.849</ele>
        <time>2018-12-03T11:36:48Z</time>
      </trkpt>
      <trkpt lat="48.75849" lon="2.53996">
        <ele>149.841</ele>
        <time>2018-12-03T11:36:51Z</time>
      </trkpt>
      <trkpt lat="48.7585" lon="2.53992">
        <ele>149.834</ele>
        <time>2018-12-03T11:36:53Z</time>
      </trkpt>
      <trkpt lat="48.75851" lon="2.53988">
        <ele>149.823</ele>
        <time>2018-12-03T11:36:56Z</time>
      </trkpt>
      <trkpt lat="48.75853" lon="2.53982">
        <ele>149.807</ele>
        <time>2018-12-03T11:37:00Z</time>
      </trkpt>
      <trkpt lat="48.75858" lon="2.53976">
        <ele>149.789</ele>
        <time>2018-12-03T11:37:04Z</time>
      </trkpt>
      <trkpt lat="48.75859" lon="2.53969">
        <ele>149.779</ele>
        <time>2018-12-03T11:37:07Z</time>
      </trkpt>
      <trkpt lat="48.75861" lon="2.53961">
        <ele>149.755</ele>
        <time>2018-12-03T11:37:13Z</time>
      </trkpt>
      <trkpt lat="48.75865" lon="2.53955">
        <ele>149.728</ele>
        <time>2018-12-03T11:37:17Z</time>
      </trkpt>
      <trkpt lat="48.75868" lon="2.53951">
        <ele>149.693</ele>
        <time>2018-12-03T11:37:21Z</time>
      </trkpt>
      <trkpt lat="48.7587" lon="2.53948">
        <ele>149.675</ele>
        <time>2018-12-03T11:37:23Z</time>
      </trkpt>
      <trkpt lat="48.75874" lon="2.53942">
        <ele>149.638</ele>
        <time>2018-12-03T11:37:27Z</time>
      </trkpt>
      <trkpt lat="48.75879" lon="2.53938">
        <ele>149.596</ele>
        <time>2018-12-03T11:37:31Z</time>
      </trkpt>
      <trkpt lat="48.75882" lon="2.53931">
        <ele>149.554</ele>
        <time>2018-12-03T11:37:35Z</time>
      </trkpt>
      <trkpt lat="48.75886" lon="2.53926">
        <ele>149.529</ele>
        <time>2018-12-03T11:37:38Z</time>
      </trkpt>
      <trkpt lat="48.75888" lon="2.53923">
        <ele>149.515</ele>
        <time>2018-12-03T11:37:40Z</time>
      </trkpt>
      <trkpt lat="48.75893" lon="2.53921">
        <ele>149.477</ele>
        <time>2018-12-03T11:37:46Z</time>
      </trkpt>
      <trkpt lat="48.75898" lon="2.53923">
        <ele>149.454</ele>
        <time>2018-12-03T11:37:50Z</time>
      </trkpt>
      <trkpt lat="48.75902" lon="2.53927">
        <ele>149.438</ele>
        <time>2018-12-03T11:37:53Z</time>
      </trkpt>
      <trkpt lat="48.75904" lon="2.53928">
        <ele>149.428</ele>
        <time>2018-12-03T11:37:55Z</time>
      </trkpt>
      <trkpt lat="48.75907" lon="2.5393">
        <ele>149.413</ele>
        <time>2018-12-03T11:37:58Z</time>
      </trkpt>
      <trkpt lat="48.75911" lon="2.53933">
        <ele>149.387</ele>
        <time>2018-12-03T11:38:03Z</time>
      </trkpt>
      <trkpt lat="48.75914" lon="2.53923">
        <ele>149.356</ele>
        <time>2018-12-03T11:38:10Z</time>
      </trkpt>
      <trkpt lat="48.75915" lon="2.53912">
        <ele>149.334</ele>
        <time>2018-12-03T11:38:13Z</time>
      </trkpt>
      <trkpt lat="48.75917" lon="2.53903">
        <ele>149.312</ele>
        <time>2018-12-03T11:38:17Z</time>
      </trkpt>
      <trkpt lat="48.75918" lon="2.53899">
        <ele>149.302</ele>
        <time>2018-12-03T11:38:19Z</time>
      </trkpt>
      <trkpt lat="48.7592" lon="2.53893">
        <ele>149.286</ele>
        <time>2018-12-03T11:38:22Z</time>
      </trkpt>
      <trkpt lat="48.75923" lon="2.53887">
        <ele>149.263</ele>
        <time>2018-12-03T11:38:26Z</time>
      </trkpt>
      <trkpt lat="48.75929" lon="2.53883">
        <ele>149.236</ele>
        <time>2018-12-03T11:38:30Z</time>
      </trkpt>
      <trkpt lat="48.75932" lon="2.53879">
        <ele>149.214</ele>
        <time>2018-12-03T11:38:33Z</time>
      </trkpt>
      <trkpt lat="48.75937" lon="2.53874">
        <ele>149.186</ele>
        <time>2018-12-03T11:38:37Z</time>
      </trkpt>
      <trkpt lat="48.7594" lon="2.53866">
        <ele>149.157</ele>
        <time>2018-12-03T11:38:41Z</time>
      </trkpt>
      <trkpt lat="48.75943" lon="2.5386">
        <ele>149.126</ele>
        <time>2018-12-03T11:38:46Z</time>
      </trkpt>
      <trkpt lat="48.75943" lon="2.5386">
        <ele>149.126</ele>
        <time>2018-12-03T11:38:54Z</time>
      </trkpt>
      <trkpt lat="48.75943" lon="2.5386">
        <ele>98.1</ele>
        <time>2018-12-03T11:38:54Z</time>
      </trkpt>
      <trkpt lat="48.75943" lon="2.5386">
        <ele>98.1</ele>
        <time>2018-12-03T11:40:03Z</time>
      </trkpt>
      <trkpt lat="48.75956" lon="2.53854">
        <ele>148.89</ele>
        <time>2018-12-03T11:40:03Z</time>
      </trkpt>
      <trkpt lat="48.7596" lon="2.53849">
        <ele>148.857</ele>
        <time>2018-12-03T11:40:06Z</time>
      </trkpt>
      <trkpt lat="48.7596" lon="2.53849">
        <ele>98</ele>
        <time>2018-12-03T11:40:14Z</time>
      </trkpt>
      <trkpt lat="48.7596" lon="2.53849">
        <ele>98</ele>
        <time>2018-12-03T12:23:02Z</time>
      </trkpt>
      <trkpt lat="48.75934" lon="2.53865">
        <ele>152.238</ele>
        <time>2018-12-03T12:23:02Z</time>
      </trkpt>
      <trkpt lat="48.75931" lon="2.53872">
        <ele>152.217</ele>
        <time>2018-12-03T12:23:07Z</time>
      </trkpt>
      <trkpt lat="48.75926" lon="2.53877">
        <ele>152.198</ele>
        <time>2018-12-03T12:23:11Z</time>
      </trkpt>
      <trkpt lat="48.75924" lon="2.53885">
        <ele>152.169</ele>
        <time>2018-12-03T12:23:17Z</time>
      </trkpt>
      <trkpt lat="48.7592" lon="2.5389">
        <ele>152.151</ele>
        <time>2018-12-03T12:23:21Z</time>
      </trkpt>
      <trkpt lat="48.75917" lon="2.53896">
        <ele>152.13</ele>
        <time>2018-12-03T12:23:26Z</time>
      </trkpt>
      <trkpt lat="48.75913" lon="2.53902">
        <ele>152.11</ele>
        <time>2018-12-03T12:23:31Z</time>
      </trkpt>
      <trkpt lat="48.75911" lon="2.53904">
        <ele>152.103</ele>
        <time>2018-12-03T12:23:33Z</time>
      </trkpt>
      <trkpt lat="48.75909" lon="2.53907">
        <ele>152.095</ele>
        <time>2018-12-03T12:23:35Z</time>
      </trkpt>
      <trkpt lat="48.75909" lon="2.53907">
        <ele>152.095</ele>
        <time>2018-12-03T12:23:40Z</time>
      </trkpt>
      <trkpt lat="48.75909" lon="2.53907">
        <ele>98.6</ele>
        <time>2018-12-03T12:23:40Z</time>
      </trkpt>
      <trkpt lat="48.75909" lon="2.53907">
        <ele>98.6</ele>
        <time>2018-12-03T12:23:45Z</time>
      </trkpt>
      <trkpt lat="48.759" lon="2.53914">
        <ele>152.063</ele>
        <time>2018-12-03T12:23:45Z</time>
      </trkpt>
      <trkpt lat="48.75896" lon="2.53919">
        <ele>152.055</ele>
        <time>2018-12-03T12:23:47Z</time>
      </trkpt>
      <trkpt lat="48.75894" lon="2.53921">
        <ele>152.051</ele>
        <time>2018-12-03T12:23:48Z</time>
      </trkpt>
      <trkpt lat="48.7589" lon="2.53926">
        <ele>152.037</ele>
        <time>2018-12-03T12:23:51Z</time>
      </trkpt>
      <trkpt lat="48.75887" lon="2.53931">
        <ele>152.021</ele>
        <time>2018-12-03T12:23:54Z</time>
      </trkpt>
      <trkpt lat="48.75886" lon="2.53939">
        <ele>151.995</ele>
        <time>2018-12-03T12:23:58Z</time>
      </trkpt>
      <trkpt lat="48.75882" lon="2.53943">
        <ele>151.946</ele>
        <time>2018-12-03T12:24:05Z</time>
      </trkpt>
      <trkpt lat="48.75879" lon="2.5395">
        <ele>151.92</ele>
        <time>2018-12-03T12:24:09Z</time>
      </trkpt>
      <trkpt lat="48.7588" lon="2.53958">
        <ele>151.873</ele>
        <time>2018-12-03T12:24:15Z</time>
      </trkpt>
      <trkpt lat="48.75878" lon="2.53967">
        <ele>151.824</ele>
        <time>2018-12-03T12:24:20Z</time>
      </trkpt>
      <trkpt lat="48.75879" lon="2.53979">
        <ele>151.801</ele>
        <time>2018-12-03T12:24:22Z</time>
      </trkpt>
      <trkpt lat="48.75868" lon="2.53981">
        <ele>151.741</ele>
        <time>2018-12-03T12:24:27Z</time>
      </trkpt>
      <trkpt lat="48.75866" lon="2.53988">
        <ele>151.694</ele>
        <time>2018-12-03T12:24:31Z</time>
      </trkpt>
      <trkpt lat="48.75865" lon="2.53994">
        <ele>151.662</ele>
        <time>2018-12-03T12:24:34Z</time>
      </trkpt>
      <trkpt lat="48.7586" lon="2.54001">
        <ele>151.61</ele>
        <time>2018-12-03T12:24:39Z</time>
      </trkpt>
      <trkpt lat="48.75858" lon="2.54003">
        <ele>151.6</ele>
        <time>2018-12-03T12:24:40Z</time>
      </trkpt>
      <trkpt lat="48.75853" lon="2.54006">
        <ele>151.569</ele>
        <time>2018-12-03T12:24:43Z</time>
      </trkpt>
      <trkpt lat="48.75847" lon="2.5401">
        <ele>151.55</ele>
        <time>2018-12-03T12:24:45Z</time>
      </trkpt>
      <trkpt lat="48.75844" lon="2.54016">
        <ele>151.51</ele>
        <time>2018-12-03T12:24:49Z</time>
      </trkpt>
      <trkpt lat="48.75842" lon="2.54024">
        <ele>151.473</ele>
        <time>2018-12-03T12:24:53Z</time>
      </trkpt>
      <trkpt lat="48.7584" lon="2.54031">
        <ele>151.444</ele>
        <time>2018-12-03T12:24:56Z</time>
      </trkpt>
      <trkpt lat="48.75836" lon="2.54036">
        <ele>151.408</ele>
        <time>2018-12-03T12:25:00Z</time>
      </trkpt>
      <trkpt lat="48.75832" lon="2.54039">
        <ele>151.388</ele>
        <time>2018-12-03T12:25:02Z</time>
      </trkpt>
      <trkpt lat="48.75829" lon="2.54045">
        <ele>151.346</ele>
        <time>2018-12-03T12:25:06Z</time>
      </trkpt>
      <trkpt lat="48.75828" lon="2.54049">
        <ele>151.326</ele>
        <time>2018-12-03T12:25:08Z</time>
      </trkpt>
      <trkpt lat="48.75823" lon="2.54055">
        <ele>151.288</ele>
        <time>2018-12-03T12:25:12Z</time>
      </trkpt>
      <trkpt lat="48.75821" lon="2.54058">
        <ele>151.27</ele>
        <time>2018-12-03T12:25:14Z</time>
      </trkpt>
      <trkpt lat="48.75818" lon="2.54064">
        <ele>151.23</ele>
        <time>2018-12-03T12:25:19Z</time>
      </trkpt>
      <trkpt lat="48.75814" lon="2.54068">
        <ele>151.209</ele>
        <time>2018-12-03T12:25:22Z</time>
      </trkpt>
      <trkpt lat="48.75814" lon="2.54068">
        <ele>151.209</ele>
        <time>2018-12-03T12:25:29Z</time>
      </trkpt>
      <trkpt lat="48.75814" lon="2.54068">
        <ele>99</ele>
        <time>2018-12-03T12:25:29Z</time>
      </trkpt>
      <trkpt lat="48.75814" lon="2.54068">
        <ele>99</ele>
        <time>2018-12-03T12:25:40Z</time>
      </trkpt>
      <trkpt lat="48.75806" lon="2.5408">
        <ele>151.09</ele>
        <time>2018-12-03T12:25:40Z</time>
      </trkpt>
      <trkpt lat="48.75801" lon="2.54084">
        <ele>151.066</ele>
        <time>2018-12-03T12:25:44Z</time>
      </trkpt>
      <trkpt lat="48.75798" lon="2.5409">
        <ele>151.044</ele>
        <time>2018-12-03T12:25:48Z</time>
      </trkpt>
      <trkpt lat="48.75795" lon="2.54097">
        <ele>151.025</ele>
        <time>2018-12-03T12:25:52Z</time>
      </trkpt>
      <trkpt lat="48.75795" lon="2.54105">
        <ele>151.009</ele>
        <time>2018-12-03T12:25:55Z</time>
      </trkpt>
      <trkpt lat="48.75795" lon="2.54111">
        <ele>150.997</ele>
        <time>2018-12-03T12:25:57Z</time>
      </trkpt>
      <trkpt lat="48.75793" lon="2.54119">
        <ele>150.978</ele>
        <time>2018-12-03T12:26:00Z</time>
      </trkpt>
      <trkpt lat="48.75791" lon="2.54125">
        <ele>150.954</ele>
        <time>2018-12-03T12:26:04Z</time>
      </trkpt>
      <trkpt lat="48.75789" lon="2.5413">
        <ele>150.939</ele>
        <time>2018-12-03T12:26:07Z</time>
      </trkpt>
      <trkpt lat="48.75787" lon="2.54138">
        <ele>150.922</ele>
        <time>2018-12-03T12:26:11Z</time>
      </trkpt>
      <trkpt lat="48.75784" lon="2.54143">
        <ele>150.906</ele>
        <time>2018-12-03T12:26:15Z</time>
      </trkpt>
      <trkpt lat="48.7578" lon="2.54147">
        <ele>150.891</ele>
        <time>2018-12-03T12:26:19Z</time>
      </trkpt>
      <trkpt lat="48.75777" lon="2.54153">
        <ele>150.875</ele>
        <time>2018-12-03T12:26:23Z</time>
      </trkpt>
      <trkpt lat="48.75774" lon="2.54156">
        <ele>150.864</ele>
        <time>2018-12-03T12:26:26Z</time>
      </trkpt>
      <trkpt lat="48.75773" lon="2.54158">
        <ele>150.857</ele>
        <time>2018-12-03T12:26:28Z</time>
      </trkpt>
      <trkpt lat="48.75771" lon="2.54162">
        <ele>150.846</ele>
        <time>2018-12-03T12:26:31Z</time>
      </trkpt>
      <trkpt lat="48.75768" lon="2.54167">
        <ele>150.836</ele>
        <time>2018-12-03T12:26:34Z</time>
      </trkpt>
      <trkpt lat="48.75765" lon="2.54171">
        <ele>150.825</ele>
        <time>2018-12-03T12:26:37Z</time>
      </trkpt>
      <trkpt lat="48.75761" lon="2.54178">
        <ele>150.81</ele>
        <time>2018-12-03T12:26:41Z</time>
      </trkpt>
      <trkpt lat="48.75759" lon="2.54185">
        <ele>150.79</ele>
        <time>2018-12-03T12:26:46Z</time>
      </trkpt>
      <trkpt lat="48.75757" lon="2.54189">
        <ele>150.778</ele>
        <time>2018-12-03T12:26:49Z</time>
      </trkpt>
      <trkpt lat="48.75756" lon="2.54193">
        <ele>150.769</ele>
        <time>2018-12-03T12:26:51Z</time>
      </trkpt>
      <trkpt lat="48.75754" lon="2.542">
        <ele>150.751</ele>
        <time>2018-12-03T12:26:55Z</time>
      </trkpt>
      <trkpt lat="48.75752" lon="2.54208">
        <ele>150.73</ele>
        <time>2018-12-03T12:26:59Z</time>
      </trkpt>
      <trkpt lat="48.75748" lon="2.54215">
        <ele>150.715</ele>
        <time>2018-12-03T12:27:02Z</time>
      </trkpt>
      <trkpt lat="48.75746" lon="2.54221">
        <ele>150.694</ele>
        <time>2018-12-03T12:27:06Z</time>
      </trkpt>
      <trkpt lat="48.75743" lon="2.54226">
        <ele>150.665</ele>
        <time>2018-12-03T12:27:11Z</time>
      </trkpt>
      <trkpt lat="48.75742" lon="2.54233">
        <ele>150.625</ele>
        <time>2018-12-03T12:27:17Z</time>
      </trkpt>
      <trkpt lat="48.75739" lon="2.5424">
        <ele>150.595</ele>
        <time>2018-12-03T12:27:21Z</time>
      </trkpt>
      <trkpt lat="48.75738" lon="2.54243">
        <ele>150.58</ele>
        <time>2018-12-03T12:27:23Z</time>
      </trkpt>
      <trkpt lat="48.75736" lon="2.54248">
        <ele>150.556</ele>
        <time>2018-12-03T12:27:26Z</time>
      </trkpt>
      <trkpt lat="48.75732" lon="2.54253">
        <ele>150.525</ele>
        <time>2018-12-03T12:27:30Z</time>
      </trkpt>
      <trkpt lat="48.7573" lon="2.54261">
        <ele>150.483</ele>
        <time>2018-12-03T12:27:36Z</time>
      </trkpt>
      <trkpt lat="48.75727" lon="2.54268">
        <ele>150.452</ele>
        <time>2018-12-03T12:27:41Z</time>
      </trkpt>
      <trkpt lat="48.75725" lon="2.54271">
        <ele>150.436</ele>
        <time>2018-12-03T12:27:44Z</time>
      </trkpt>
      <trkpt lat="48.75723" lon="2.54279">
        <ele>150.412</ele>
        <time>2018-12-03T12:27:50Z</time>
      </trkpt>
      <trkpt lat="48.75718" lon="2.54285">
        <ele>150.404</ele>
        <time>2018-12-03T12:27:53Z</time>
      </trkpt>
      <trkpt lat="48.75715" lon="2.5429">
        <ele>150.399</ele>
        <time>2018-12-03T12:27:56Z</time>
      </trkpt>
      <trkpt lat="48.7571" lon="2.54291">
        <ele>150.396</ele>
        <time>2018-12-03T12:27:59Z</time>
      </trkpt>
      <trkpt lat="48.75706" lon="2.54295">
        <ele>150.392</ele>
        <time>2018-12-03T12:28:04Z</time>
      </trkpt>
      <trkpt lat="48.75703" lon="2.54302">
        <ele>150.388</ele>
        <time>2018-12-03T12:28:08Z</time>
      </trkpt>
      <trkpt lat="48.75699" lon="2.54309">
        <ele>150.383</ele>
        <time>2018-12-03T12:28:12Z</time>
      </trkpt>
      <trkpt lat="48.75696" lon="2.54315">
        <ele>150.379</ele>
        <time>2018-12-03T12:28:15Z</time>
      </trkpt>
      <trkpt lat="48.75694" lon="2.5432">
        <ele>150.376</ele>
        <time>2018-12-03T12:28:19Z</time>
      </trkpt>
      <trkpt lat="48.75694" lon="2.5432">
        <ele>99</ele>
        <time>2018-12-03T12:28:27Z</time>
      </trkpt>
      <trkpt lat="48.75694" lon="2.5432">
        <ele>99</ele>
        <time>2018-12-03T12:28:32Z</time>
      </trkpt>
      <trkpt lat="48.75686" lon="2.54328">
        <ele>150.349</ele>
        <time>2018-12-03T12:28:32Z</time>
      </trkpt>
      <trkpt lat="48.75682" lon="2.54335">
        <ele>150.343</ele>
        <time>2018-12-03T12:28:37Z</time>
      </trkpt>
      <trkpt lat="48.75679" lon="2.54342">
        <ele>150.34</ele>
        <time>2018-12-03T12:28:41Z</time>
      </trkpt>
      <trkpt lat="48.75675" lon="2.54343">
        <ele>150.338</ele>
        <time>2018-12-03T12:28:45Z</time>
      </trkpt>
      <trkpt lat="48.75671" lon="2.54347">
        <ele>150.338</ele>
        <time>2018-12-03T12:28:49Z</time>
      </trkpt>
      <trkpt lat="48.75667" lon="2.54353">
        <ele>150.338</ele>
        <time>2018-12-03T12:28:53Z</time>
      </trkpt>
      <trkpt lat="48.75665" lon="2.5436">
        <ele>150.334</ele>
        <time>2018-12-03T12:28:57Z</time>
      </trkpt>
      <trkpt lat="48.75662" lon="2.54364">
        <ele>150.331</ele>
        <time>2018-12-03T12:29:01Z</time>
      </trkpt>
      <trkpt lat="48.7566" lon="2.54367">
        <ele>150.33</ele>
        <time>2018-12-03T12:29:03Z</time>
      </trkpt>
      <trkpt lat="48.75657" lon="2.54373">
        <ele>150.33</ele>
        <time>2018-12-03T12:29:07Z</time>
      </trkpt>
      <trkpt lat="48.75655" lon="2.54379">
        <ele>150.331</ele>
        <time>2018-12-03T12:29:12Z</time>
      </trkpt>
      <trkpt lat="48.75651" lon="2.54384">
        <ele>150.331</ele>
        <time>2018-12-03T12:29:15Z</time>
      </trkpt>
      <trkpt lat="48.75649" lon="2.54392">
        <ele>150.332</ele>
        <time>2018-12-03T12:29:19Z</time>
      </trkpt>
      <trkpt lat="48.75646" lon="2.54399">
        <ele>150.335</ele>
        <time>2018-12-03T12:29:22Z</time>
      </trkpt>
      <trkpt lat="48.75643" lon="2.54407">
        <ele>150.341</ele>
        <time>2018-12-03T12:29:27Z</time>
      </trkpt>
      <trkpt lat="48.75642" lon="2.5441">
        <ele>150.342</ele>
        <time>2018-12-03T12:29:28Z</time>
      </trkpt>
      <trkpt lat="48.75642" lon="2.54418">
        <ele>150.349</ele>
        <time>2018-12-03T12:29:33Z</time>
      </trkpt>
      <trkpt lat="48.75642" lon="2.54423">
        <ele>150.356</ele>
        <time>2018-12-03T12:29:38Z</time>
      </trkpt>
      <trkpt lat="48.75639" lon="2.54429">
        <ele>150.364</ele>
        <time>2018-12-03T12:29:43Z</time>
      </trkpt>
      <trkpt lat="48.75635" lon="2.54433">
        <ele>150.372</ele>
        <time>2018-12-03T12:29:47Z</time>
      </trkpt>
      <trkpt lat="48.7563" lon="2.54436">
        <ele>150.384</ele>
        <time>2018-12-03T12:29:53Z</time>
      </trkpt>
      <trkpt lat="48.75626" lon="2.54443">
        <ele>150.394</ele>
        <time>2018-12-03T12:29:58Z</time>
      </trkpt>
      <trkpt lat="48.75625" lon="2.54446">
        <ele>150.4</ele>
        <time>2018-12-03T12:30:01Z</time>
      </trkpt>
      <trkpt lat="48.75623" lon="2.5445">
        <ele>150.407</ele>
        <time>2018-12-03T12:30:06Z</time>
      </trkpt>
      <trkpt lat="48.75621" lon="2.54453">
        <ele>150.411</ele>
        <time>2018-12-03T12:30:09Z</time>
      </trkpt>
      <trkpt lat="48.75619" lon="2.54459">
        <ele>150.416</ele>
        <time>2018-12-03T12:30:12Z</time>
      </trkpt>
      <trkpt lat="48.75616" lon="2.54465">
        <ele>150.428</ele>
        <time>2018-12-03T12:30:17Z</time>
      </trkpt>
      <trkpt lat="48.75609" lon="2.54476">
        <ele>150.438</ele>
        <time>2018-12-03T12:30:21Z</time>
      </trkpt>
      <trkpt lat="48.75606" lon="2.54482">
        <ele>150.446</ele>
        <time>2018-12-03T12:30:24Z</time>
      </trkpt>
      <trkpt lat="48.75601" lon="2.54486">
        <ele>150.455</ele>
        <time>2018-12-03T12:30:28Z</time>
      </trkpt>
      <trkpt lat="48.75599" lon="2.54494">
        <ele>150.463</ele>
        <time>2018-12-03T12:30:32Z</time>
      </trkpt>
      <trkpt lat="48.75594" lon="2.54495">
        <ele>150.47</ele>
        <time>2018-12-03T12:30:37Z</time>
      </trkpt>
      <trkpt lat="48.7559" lon="2.545">
        <ele>150.469</ele>
        <time>2018-12-03T12:30:41Z</time>
      </trkpt>
      <trkpt lat="48.75588" lon="2.54506">
        <ele>150.469</ele>
        <time>2018-12-03T12:30:45Z</time>
      </trkpt>
      <trkpt lat="48.75584" lon="2.54511">
        <ele>150.467</ele>
        <time>2018-12-03T12:30:50Z</time>
      </trkpt>
      <trkpt lat="48.75583" lon="2.54518">
        <ele>150.464</ele>
        <time>2018-12-03T12:30:54Z</time>
      </trkpt>
      <trkpt lat="48.75581" lon="2.54528">
        <ele>150.455</ele>
        <time>2018-12-03T12:31:01Z</time>
      </trkpt>
      <trkpt lat="48.75575" lon="2.54528">
        <ele>150.45</ele>
        <time>2018-12-03T12:31:04Z</time>
      </trkpt>
      <trkpt lat="48.75571" lon="2.54532">
        <ele>150.444</ele>
        <time>2018-12-03T12:31:07Z</time>
      </trkpt>
      <trkpt lat="48.75569" lon="2.5454">
        <ele>150.437</ele>
        <time>2018-12-03T12:31:10Z</time>
      </trkpt>
      <trkpt lat="48.75565" lon="2.54545">
        <ele>150.425</ele>
        <time>2018-12-03T12:31:14Z</time>
      </trkpt>
      <trkpt lat="48.7556" lon="2.54548">
        <ele>150.407</ele>
        <time>2018-12-03T12:31:20Z</time>
      </trkpt>
      <trkpt lat="48.7555" lon="2.54557">
        <ele>150.389</ele>
        <time>2018-12-03T12:31:27Z</time>
      </trkpt>
      <trkpt lat="48.75545" lon="2.54559">
        <ele>150.384</ele>
        <time>2018-12-03T12:31:30Z</time>
      </trkpt>
      <trkpt lat="48.75541" lon="2.54562">
        <ele>150.381</ele>
        <time>2018-12-03T12:31:34Z</time>
      </trkpt>
      <trkpt lat="48.75537" lon="2.54566">
        <ele>150.378</ele>
        <time>2018-12-03T12:31:42Z</time>
      </trkpt>
      <trkpt lat="48.75531" lon="2.54571">
        <ele>150.375</ele>
        <time>2018-12-03T12:31:47Z</time>
      </trkpt>
      <trkpt lat="48.75529" lon="2.54573">
        <ele>150.374</ele>
        <time>2018-12-03T12:31:49Z</time>
      </trkpt>
      <trkpt lat="48.75523" lon="2.54578">
        <ele>150.368</ele>
        <time>2018-12-03T12:31:53Z</time>
      </trkpt>
      <trkpt lat="48.75518" lon="2.54583">
        <ele>150.364</ele>
        <time>2018-12-03T12:31:56Z</time>
      </trkpt>
      <trkpt lat="48.75518" lon="2.54583">
        <ele>99</ele>
        <time>2018-12-03T12:32:04Z</time>
      </trkpt>
      <trkpt lat="48.75518" lon="2.54583">
        <ele>99</ele>
        <time>2018-12-03T12:33:05Z</time>
      </trkpt>
      <trkpt lat="48.75511" lon="2.54591">
        <ele>150.084</ele>
        <time>2018-12-03T12:33:05Z</time>
      </trkpt>
      <trkpt lat="48.75508" lon="2.54595">
        <ele>150.013</ele>
        <time>2018-12-03T12:33:12Z</time>
      </trkpt>
      <trkpt lat="48.75507" lon="2.54598">
        <ele>149.985</ele>
        <time>2018-12-03T12:33:15Z</time>
      </trkpt>
      <trkpt lat="48.75504" lon="2.54602">
        <ele>149.952</ele>
        <time>2018-12-03T12:33:19Z</time>
      </trkpt>
      <trkpt lat="48.755" lon="2.54605">
        <ele>149.921</ele>
        <time>2018-12-03T12:33:23Z</time>
      </trkpt>
      <trkpt lat="48.75496" lon="2.54611">
        <ele>149.894</ele>
        <time>2018-12-03T12:33:27Z</time>
      </trkpt>
      <trkpt lat="48.75493" lon="2.54614">
        <ele>149.881</ele>
        <time>2018-12-03T12:33:29Z</time>
      </trkpt>
      <trkpt lat="48.75491" lon="2.54617">
        <ele>149.862</ele>
        <time>2018-12-03T12:33:32Z</time>
      </trkpt>
      <trkpt lat="48.7549" lon="2.5462">
        <ele>149.827</ele>
        <time>2018-12-03T12:33:38Z</time>
      </trkpt>
      <trkpt lat="48.75487" lon="2.54625">
        <ele>149.811</ele>
        <time>2018-12-03T12:33:41Z</time>
      </trkpt>
      <trkpt lat="48.75482" lon="2.54627">
        <ele>149.785</ele>
        <time>2018-12-03T12:33:46Z</time>
      </trkpt>
      <trkpt lat="48.75478" lon="2.54633">
        <ele>149.766</ele>
        <time>2018-12-03T12:33:50Z</time>
      </trkpt>
      <trkpt lat="48.75476" lon="2.54636">
        <ele>149.753</ele>
        <time>2018-12-03T12:33:53Z</time>
      </trkpt>
      <trkpt lat="48.75476" lon="2.54636">
        <ele>99</ele>
        <time>2018-12-03T12:34:01Z</time>
      </trkpt>
      <trkpt lat="48.75476" lon="2.54636">
        <ele>99</ele>
        <time>2018-12-03T12:34:49Z</time>
      </trkpt>
      <trkpt lat="48.75463" lon="2.54658">
        <ele>149.649</ele>
        <time>2018-12-03T12:34:49Z</time>
      </trkpt>
      <trkpt lat="48.75458" lon="2.54664">
        <ele>149.639</ele>
        <time>2018-12-03T12:34:54Z</time>
      </trkpt>
      <trkpt lat="48.75456" lon="2.54666">
        <ele>149.633</ele>
        <time>2018-12-03T12:34:57Z</time>
      </trkpt>
      <trkpt lat="48.75453" lon="2.54669">
        <ele>149.629</ele>
        <time>2018-12-03T12:35:00Z</time>
      </trkpt>
      <trkpt lat="48.75448" lon="2.54672">
        <ele>149.625</ele>
        <time>2018-12-03T12:35:03Z</time>
      </trkpt>
      <trkpt lat="48.75445" lon="2.54673">
        <ele>149.621</ele>
        <time>2018-12-03T12:35:05Z</time>
      </trkpt>
      <trkpt lat="48.75441" lon="2.54678">
        <ele>149.618</ele>
        <time>2018-12-03T12:35:07Z</time>
      </trkpt>
      <trkpt lat="48.75438" lon="2.54685">
        <ele>149.612</ele>
        <time>2018-12-03T12:35:11Z</time>
      </trkpt>
      <trkpt lat="48.75438" lon="2.54685">
        <ele>99</ele>
        <time>2018-12-03T12:35:19Z</time>
      </trkpt>
      <trkpt lat="48.75438" lon="2.54685">
        <ele>99</ele>
        <time>2018-12-03T12:35:23Z</time>
      </trkpt>
      <trkpt lat="48.75429" lon="2.54693">
        <ele>149.598</ele>
        <time>2018-12-03T12:35:23Z</time>
      </trkpt>
      <trkpt lat="48.75425" lon="2.54696">
        <ele>149.594</ele>
        <time>2018-12-03T12:35:26Z</time>
      </trkpt>
      <trkpt lat="48.75421" lon="2.54702">
        <ele>149.59</ele>
        <time>2018-12-03T12:35:31Z</time>
      </trkpt>
      <trkpt lat="48.75418" lon="2.54708">
        <ele>149.586</ele>
        <time>2018-12-03T12:35:35Z</time>
      </trkpt>
      <trkpt lat="48.75414" lon="2.54712">
        <ele>149.579</ele>
        <time>2018-12-03T12:35:41Z</time>
      </trkpt>
      <trkpt lat="48.75412" lon="2.54713">
        <ele>149.577</ele>
        <time>2018-12-03T12:35:42Z</time>
      </trkpt>
      <trkpt lat="48.75409" lon="2.54715">
        <ele>149.577</ele>
        <time>2018-12-03T12:35:43Z</time>
      </trkpt>
      <trkpt lat="48.75407" lon="2.54717">
        <ele>149.575</ele>
        <time>2018-12-03T12:35:45Z</time>
      </trkpt>
      <trkpt lat="48.75401" lon="2.54714">
        <ele>149.57</ele>
        <time>2018-12-03T12:35:50Z</time>
      </trkpt>
      <trkpt lat="48.75401" lon="2.54714">
        <ele>149.57</ele>
        <time>2018-12-03T12:35:57Z</time>
      </trkpt>
      <trkpt lat="48.75401" lon="2.54714">
        <ele>99</ele>
        <time>2018-12-03T12:35:57Z</time>
      </trkpt>
      <trkpt lat="48.75401" lon="2.54714">
        <ele>99</ele>
        <time>2018-12-03T12:36:14Z</time>
      </trkpt>
      <trkpt lat="48.75391" lon="2.5473">
        <ele>149.545</ele>
        <time>2018-12-03T12:36:14Z</time>
      </trkpt>
      <trkpt lat="48.75389" lon="2.54734">
        <ele>149.541</ele>
        <time>2018-12-03T12:36:18Z</time>
      </trkpt>
      <trkpt lat="48.75384" lon="2.54737">
        <ele>149.536</ele>
        <time>2018-12-03T12:36:25Z</time>
      </trkpt>
      <trkpt lat="48.75383" lon="2.54745">
        <ele>149.533</ele>
        <time>2018-12-03T12:36:30Z</time>
      </trkpt>
      <trkpt lat="48.75382" lon="2.54749">
        <ele>149.533</ele>
        <time>2018-12-03T12:36:32Z</time>
      </trkpt>
      <trkpt lat="48.75379" lon="2.54755">
        <ele>149.531</ele>
        <time>2018-12-03T12:36:35Z</time>
      </trkpt>
      <trkpt lat="48.75377" lon="2.54762">
        <ele>149.529</ele>
        <time>2018-12-03T12:36:38Z</time>
      </trkpt>
      <trkpt lat="48.75374" lon="2.54767">
        <ele>149.526</ele>
        <time>2018-12-03T12:36:41Z</time>
      </trkpt>
      <trkpt lat="48.75369" lon="2.5477">
        <ele>149.523</ele>
        <time>2018-12-03T12:36:43Z</time>
      </trkpt>
      <trkpt lat="48.75366" lon="2.54772">
        <ele>149.52</ele>
        <time>2018-12-03T12:36:45Z</time>
      </trkpt>
      <trkpt lat="48.75361" lon="2.54774">
        <ele>149.512</ele>
        <time>2018-12-03T12:36:49Z</time>
      </trkpt>
      <trkpt lat="48.75358" lon="2.54776">
        <ele>149.511</ele>
        <time>2018-12-03T12:36:50Z</time>
      </trkpt>
      <trkpt lat="48.75355" lon="2.54778">
        <ele>149.509</ele>
        <time>2018-12-03T12:36:52Z</time>
      </trkpt>
      <trkpt lat="48.75352" lon="2.5478">
        <ele>149.504</ele>
        <time>2018-12-03T12:36:57Z</time>
      </trkpt>
      <trkpt lat="48.75347" lon="2.54776">
        <ele>149.496</ele>
        <time>2018-12-03T12:37:00Z</time>
      </trkpt>
      <trkpt lat="48.75343" lon="2.5477">
        <ele>149.484</ele>
        <time>2018-12-03T12:37:07Z</time>
      </trkpt>
      <trkpt lat="48.75341" lon="2.54763">
        <ele>149.476</ele>
        <time>2018-12-03T12:37:11Z</time>
      </trkpt>
      <trkpt lat="48.7534" lon="2.54759">
        <ele>149.471</ele>
        <time>2018-12-03T12:37:14Z</time>
      </trkpt>
      <trkpt lat="48.75339" lon="2.54755">
        <ele>149.468</ele>
        <time>2018-12-03T12:37:16Z</time>
      </trkpt>
      <trkpt lat="48.75338" lon="2.54749">
        <ele>149.466</ele>
        <time>2018-12-03T12:37:19Z</time>
      </trkpt>
      <trkpt lat="48.75336" lon="2.54742">
        <ele>149.464</ele>
        <time>2018-12-03T12:37:24Z</time>
      </trkpt>
      <trkpt lat="48.75334" lon="2.54736">
        <ele>149.469</ele>
        <time>2018-12-03T12:37:30Z</time>
      </trkpt>
      <trkpt lat="48.75333" lon="2.54729">
        <ele>149.473</ele>
        <time>2018-12-03T12:37:35Z</time>
      </trkpt>
      <trkpt lat="48.75334" lon="2.54722">
        <ele>149.48</ele>
        <time>2018-12-03T12:37:40Z</time>
      </trkpt>
      <trkpt lat="48.75333" lon="2.54713">
        <ele>149.49</ele>
        <time>2018-12-03T12:37:45Z</time>
      </trkpt>
      <trkpt lat="48.75332" lon="2.54705">
        <ele>149.498</ele>
        <time>2018-12-03T12:37:48Z</time>
      </trkpt>
      <trkpt lat="48.75331" lon="2.54696">
        <ele>149.507</ele>
        <time>2018-12-03T12:37:51Z</time>
      </trkpt>
      <trkpt lat="48.75332" lon="2.54689">
        <ele>149.518</ele>
        <time>2018-12-03T12:37:54Z</time>
      </trkpt>
      <trkpt lat="48.75333" lon="2.54682">
        <ele>149.539</ele>
        <time>2018-12-03T12:37:59Z</time>
      </trkpt>
      <trkpt lat="48.75333" lon="2.54677">
        <ele>149.548</ele>
        <time>2018-12-03T12:38:01Z</time>
      </trkpt>
      <trkpt lat="48.75334" lon="2.54668">
        <ele>149.567</ele>
        <time>2018-12-03T12:38:05Z</time>
      </trkpt>
      <trkpt lat="48.75333" lon="2.54661">
        <ele>149.581</ele>
        <time>2018-12-03T12:38:08Z</time>
      </trkpt>
      <trkpt lat="48.75332" lon="2.54654">
        <ele>149.594</ele>
        <time>2018-12-03T12:38:11Z</time>
      </trkpt>
      <trkpt lat="48.75331" lon="2.54649">
        <ele>149.609</ele>
        <time>2018-12-03T12:38:15Z</time>
      </trkpt>
      <trkpt lat="48.7533" lon="2.54643">
        <ele>149.623</ele>
        <time>2018-12-03T12:38:18Z</time>
      </trkpt>
      <trkpt lat="48.75329" lon="2.54638">
        <ele>149.632</ele>
        <time>2018-12-03T12:38:20Z</time>
      </trkpt>
      <trkpt lat="48.75329" lon="2.54631">
        <ele>149.649</ele>
        <time>2018-12-03T12:38:24Z</time>
      </trkpt>
      <trkpt lat="48.7533" lon="2.54622">
        <ele>149.668</ele>
        <time>2018-12-03T12:38:28Z</time>
      </trkpt>
      <trkpt lat="48.7533" lon="2.54615">
        <ele>149.688</ele>
        <time>2018-12-03T12:38:32Z</time>
      </trkpt>
      <trkpt lat="48.75329" lon="2.54607">
        <ele>149.711</ele>
        <time>2018-12-03T12:38:36Z</time>
      </trkpt>
      <trkpt lat="48.75331" lon="2.54599">
        <ele>149.736</ele>
        <time>2018-12-03T12:38:40Z</time>
      </trkpt>
      <trkpt lat="48.75332" lon="2.54592">
        <ele>149.764</ele>
        <time>2018-12-03T12:38:44Z</time>
      </trkpt>
      <trkpt lat="48.75331" lon="2.54584">
        <ele>149.794</ele>
        <time>2018-12-03T12:38:48Z</time>
      </trkpt>
      <trkpt lat="48.7533" lon="2.54579">
        <ele>149.825</ele>
        <time>2018-12-03T12:38:52Z</time>
      </trkpt>
      <trkpt lat="48.75329" lon="2.5457">
        <ele>149.865</ele>
        <time>2018-12-03T12:38:57Z</time>
      </trkpt>
      <trkpt lat="48.75329" lon="2.54567">
        <ele>149.881</ele>
        <time>2018-12-03T12:38:59Z</time>
      </trkpt>
      <trkpt lat="48.7533" lon="2.54559">
        <ele>149.916</ele>
        <time>2018-12-03T12:39:03Z</time>
      </trkpt>
      <trkpt lat="48.75329" lon="2.54552">
        <ele>149.941</ele>
        <time>2018-12-03T12:39:06Z</time>
      </trkpt>
      <trkpt lat="48.7533" lon="2.54544">
        <ele>149.967</ele>
        <time>2018-12-03T12:39:09Z</time>
      </trkpt>
      <trkpt lat="48.7533" lon="2.54537">
        <ele>149.992</ele>
        <time>2018-12-03T12:39:12Z</time>
      </trkpt>
      <trkpt lat="48.7533" lon="2.54533">
        <ele>150.024</ele>
        <time>2018-12-03T12:39:16Z</time>
      </trkpt>
      <trkpt lat="48.7533" lon="2.54526">
        <ele>150.056</ele>
        <time>2018-12-03T12:39:20Z</time>
      </trkpt>
      <trkpt lat="48.7533" lon="2.54518">
        <ele>150.08</ele>
        <time>2018-12-03T12:39:23Z</time>
      </trkpt>
      <trkpt lat="48.75329" lon="2.54511">
        <ele>150.104</ele>
        <time>2018-12-03T12:39:26Z</time>
      </trkpt>
      <trkpt lat="48.7533" lon="2.54503">
        <ele>150.147</ele>
        <time>2018-12-03T12:39:31Z</time>
      </trkpt>
      <trkpt lat="48.75329" lon="2.54496">
        <ele>150.173</ele>
        <time>2018-12-03T12:39:34Z</time>
      </trkpt>
      <trkpt lat="48.75328" lon="2.5449">
        <ele>150.191</ele>
        <time>2018-12-03T12:39:36Z</time>
      </trkpt>
      <trkpt lat="48.75327" lon="2.54485">
        <ele>150.208</ele>
        <time>2018-12-03T12:39:38Z</time>
      </trkpt>
      <trkpt lat="48.75327" lon="2.54482">
        <ele>150.224</ele>
        <time>2018-12-03T12:39:40Z</time>
      </trkpt>
      <trkpt lat="48.75327" lon="2.54474">
        <ele>150.251</ele>
        <time>2018-12-03T12:39:43Z</time>
      </trkpt>
      <trkpt lat="48.75328" lon="2.54468">
        <ele>150.288</ele>
        <time>2018-12-03T12:39:47Z</time>
      </trkpt>
      <trkpt lat="48.75329" lon="2.5446">
        <ele>150.336</ele>
        <time>2018-12-03T12:39:52Z</time>
      </trkpt>
      <trkpt lat="48.75328" lon="2.54452">
        <ele>150.395</ele>
        <time>2018-12-03T12:39:58Z</time>
      </trkpt>
      <trkpt lat="48.75327" lon="2.54443">
        <ele>150.433</ele>
        <time>2018-12-03T12:40:02Z</time>
      </trkpt>
      <trkpt lat="48.75326" lon="2.54439">
        <ele>150.453</ele>
        <time>2018-12-03T12:40:04Z</time>
      </trkpt>
      <trkpt lat="48.75326" lon="2.54434">
        <ele>150.473</ele>
        <time>2018-12-03T12:40:06Z</time>
      </trkpt>
      <trkpt lat="48.75326" lon="2.54427">
        <ele>150.522</ele>
        <time>2018-12-03T12:40:11Z</time>
      </trkpt>
      <trkpt lat="48.75326" lon="2.54423">
        <ele>150.551</ele>
        <time>2018-12-03T12:40:14Z</time>
      </trkpt>
      <trkpt lat="48.75326" lon="2.54418">
        <ele>150.571</ele>
        <time>2018-12-03T12:40:16Z</time>
      </trkpt>
      <trkpt lat="48.75326" lon="2.54412">
        <ele>150.592</ele>
        <time>2018-12-03T12:40:18Z</time>
      </trkpt>
      <trkpt lat="48.75327" lon="2.54405">
        <ele>150.624</ele>
        <time>2018-12-03T12:40:21Z</time>
      </trkpt>
      <trkpt lat="48.75327" lon="2.54401">
        <ele>150.645</ele>
        <time>2018-12-03T12:40:23Z</time>
      </trkpt>
      <trkpt lat="48.75325" lon="2.54391">
        <ele>150.686</ele>
        <time>2018-12-03T12:40:27Z</time>
      </trkpt>
      <trkpt lat="48.75325" lon="2.54383">
        <ele>150.715</ele>
        <time>2018-12-03T12:40:30Z</time>
      </trkpt>
      <trkpt lat="48.75325" lon="2.54383">
        <ele>98</ele>
        <time>2018-12-03T12:40:37Z</time>
      </trkpt>
      <trkpt lat="48.75325" lon="2.54383">
        <ele>98</ele>
        <time>2018-12-03T12:41:11Z</time>
      </trkpt>
      <trkpt lat="48.753" lon="2.5441">
        <ele>150.846</ele>
        <time>2018-12-03T12:41:11Z</time>
      </trkpt>
      <trkpt lat="48.75295" lon="2.54415">
        <ele>150.84</ele>
        <time>2018-12-03T12:41:15Z</time>
      </trkpt>
      <trkpt lat="48.75287" lon="2.54417">
        <ele>150.837</ele>
        <time>2018-12-03T12:41:19Z</time>
      </trkpt>
      <trkpt lat="48.75283" lon="2.54421">
        <ele>150.833</ele>
        <time>2018-12-03T12:41:22Z</time>
      </trkpt>
      <trkpt lat="48.75278" lon="2.54428">
        <ele>150.826</ele>
        <time>2018-12-03T12:41:27Z</time>
      </trkpt>
      <trkpt lat="48.75273" lon="2.54432">
        <ele>150.814</ele>
        <time>2018-12-03T12:41:33Z</time>
      </trkpt>
      <trkpt lat="48.75269" lon="2.54438">
        <ele>150.806</ele>
        <time>2018-12-03T12:41:36Z</time>
      </trkpt>
      <trkpt lat="48.75266" lon="2.54442">
        <ele>150.797</ele>
        <time>2018-12-03T12:41:39Z</time>
      </trkpt>
      <trkpt lat="48.75261" lon="2.54445">
        <ele>150.787</ele>
        <time>2018-12-03T12:41:43Z</time>
      </trkpt>
      <trkpt lat="48.75257" lon="2.54449">
        <ele>150.775</ele>
        <time>2018-12-03T12:41:48Z</time>
      </trkpt>
      <trkpt lat="48.75255" lon="2.54452">
        <ele>150.766</ele>
        <time>2018-12-03T12:41:52Z</time>
      </trkpt>
      <trkpt lat="48.75251" lon="2.54457">
        <ele>150.753</ele>
        <time>2018-12-03T12:41:57Z</time>
      </trkpt>
      <trkpt lat="48.75247" lon="2.54462">
        <ele>150.741</ele>
        <time>2018-12-03T12:42:01Z</time>
      </trkpt>
      <trkpt lat="48.75243" lon="2.54466">
        <ele>150.733</ele>
        <time>2018-12-03T12:42:04Z</time>
      </trkpt>
      <trkpt lat="48.75242" lon="2.54473">
        <ele>150.726</ele>
        <time>2018-12-03T12:42:07Z</time>
      </trkpt>
      <trkpt lat="48.75238" lon="2.54478">
        <ele>150.712</ele>
        <time>2018-12-03T12:42:13Z</time>
      </trkpt>
      <trkpt lat="48.75233" lon="2.54481">
        <ele>150.705</ele>
        <time>2018-12-03T12:42:16Z</time>
      </trkpt>
      <trkpt lat="48.75229" lon="2.54485">
        <ele>150.695</ele>
        <time>2018-12-03T12:42:20Z</time>
      </trkpt>
      <trkpt lat="48.75226" lon="2.54491">
        <ele>150.684</ele>
        <time>2018-12-03T12:42:24Z</time>
      </trkpt>
      <trkpt lat="48.75225" lon="2.54495">
        <ele>150.677</ele>
        <time>2018-12-03T12:42:27Z</time>
      </trkpt>
      <trkpt lat="48.7522" lon="2.54501">
        <ele>150.666</ele>
        <time>2018-12-03T12:42:31Z</time>
      </trkpt>
      <trkpt lat="48.75215" lon="2.54504">
        <ele>150.647</ele>
        <time>2018-12-03T12:42:36Z</time>
      </trkpt>
      <trkpt lat="48.75212" lon="2.54505">
        <ele>150.639</ele>
        <time>2018-12-03T12:42:38Z</time>
      </trkpt>
      <trkpt lat="48.75208" lon="2.54512">
        <ele>150.623</ele>
        <time>2018-12-03T12:42:42Z</time>
      </trkpt>
      <trkpt lat="48.75201" lon="2.54517">
        <ele>150.607</ele>
        <time>2018-12-03T12:42:46Z</time>
      </trkpt>
      <trkpt lat="48.75198" lon="2.5452">
        <ele>150.592</ele>
        <time>2018-12-03T12:42:50Z</time>
      </trkpt>
      <trkpt lat="48.75193" lon="2.54526">
        <ele>150.575</ele>
        <time>2018-12-03T12:42:54Z</time>
      </trkpt>
      <trkpt lat="48.75191" lon="2.54529">
        <ele>150.566</ele>
        <time>2018-12-03T12:42:56Z</time>
      </trkpt>
      <trkpt lat="48.75189" lon="2.54533">
        <ele>150.554</ele>
        <time>2018-12-03T12:42:59Z</time>
      </trkpt>
      <trkpt lat="48.75186" lon="2.54538">
        <ele>150.538</ele>
        <time>2018-12-03T12:43:03Z</time>
      </trkpt>
      <trkpt lat="48.75181" lon="2.54542">
        <ele>150.522</ele>
        <time>2018-12-03T12:43:07Z</time>
      </trkpt>
      <trkpt lat="48.75178" lon="2.54544">
        <ele>150.514</ele>
        <time>2018-12-03T12:43:09Z</time>
      </trkpt>
      <trkpt lat="48.75173" lon="2.54544">
        <ele>150.506</ele>
        <time>2018-12-03T12:43:11Z</time>
      </trkpt>
      <trkpt lat="48.75169" lon="2.54549">
        <ele>150.485</ele>
        <time>2018-12-03T12:43:17Z</time>
      </trkpt>
      <trkpt lat="48.75163" lon="2.54553">
        <ele>150.476</ele>
        <time>2018-12-03T12:43:20Z</time>
      </trkpt>
      <trkpt lat="48.7516" lon="2.54557">
        <ele>150.466</ele>
        <time>2018-12-03T12:43:24Z</time>
      </trkpt>
      <trkpt lat="48.75157" lon="2.5456">
        <ele>150.459</ele>
        <time>2018-12-03T12:43:27Z</time>
      </trkpt>
      <trkpt lat="48.75155" lon="2.54563">
        <ele>150.453</ele>
        <time>2018-12-03T12:43:29Z</time>
      </trkpt>
      <trkpt lat="48.75152" lon="2.54567">
        <ele>150.439</ele>
        <time>2018-12-03T12:43:33Z</time>
      </trkpt>
      <trkpt lat="48.75147" lon="2.54571">
        <ele>150.422</ele>
        <time>2018-12-03T12:43:38Z</time>
      </trkpt>
      <trkpt lat="48.75144" lon="2.54576">
        <ele>150.415</ele>
        <time>2018-12-03T12:43:40Z</time>
      </trkpt>
      <trkpt lat="48.7514" lon="2.5458">
        <ele>150.406</ele>
        <time>2018-12-03T12:43:43Z</time>
      </trkpt>
      <trkpt lat="48.75136" lon="2.54585">
        <ele>150.398</ele>
        <time>2018-12-03T12:43:46Z</time>
      </trkpt>
      <trkpt lat="48.75132" lon="2.5459">
        <ele>150.39</ele>
        <time>2018-12-03T12:43:49Z</time>
      </trkpt>
      <trkpt lat="48.75132" lon="2.5459">
        <ele>98</ele>
        <time>2018-12-03T12:43:55Z</time>
      </trkpt>
      <trkpt lat="48.75132" lon="2.5459">
        <ele>98</ele>
        <time>2018-12-03T12:43:59Z</time>
      </trkpt>
      <trkpt lat="48.75122" lon="2.54594">
        <ele>150.371</ele>
        <time>2018-12-03T12:43:59Z</time>
      </trkpt>
      <trkpt lat="48.75117" lon="2.54594">
        <ele>150.369</ele>
        <time>2018-12-03T12:44:02Z</time>
      </trkpt>
      <trkpt lat="48.75112" lon="2.54595">
        <ele>150.368</ele>
        <time>2018-12-03T12:44:05Z</time>
      </trkpt>
      <trkpt lat="48.75106" lon="2.54592">
        <ele>150.373</ele>
        <time>2018-12-03T12:44:10Z</time>
      </trkpt>
      <trkpt lat="48.75102" lon="2.54589">
        <ele>150.376</ele>
        <time>2018-12-03T12:44:14Z</time>
      </trkpt>
      <trkpt lat="48.75098" lon="2.54585">
        <ele>150.378</ele>
        <time>2018-12-03T12:44:17Z</time>
      </trkpt>
      <trkpt lat="48.75092" lon="2.54583">
        <ele>150.382</ele>
        <time>2018-12-03T12:44:22Z</time>
      </trkpt>
      <trkpt lat="48.75086" lon="2.54579">
        <ele>150.387</ele>
        <time>2018-12-03T12:44:26Z</time>
      </trkpt>
      <trkpt lat="48.75083" lon="2.54576">
        <ele>150.394</ele>
        <time>2018-12-03T12:44:30Z</time>
      </trkpt>
      <trkpt lat="48.75079" lon="2.54575">
        <ele>150.4</ele>
        <time>2018-12-03T12:44:33Z</time>
      </trkpt>
      <trkpt lat="48.75074" lon="2.54572">
        <ele>150.407</ele>
        <time>2018-12-03T12:44:37Z</time>
      </trkpt>
      <trkpt lat="48.7507" lon="2.54569">
        <ele>150.413</ele>
        <time>2018-12-03T12:44:40Z</time>
      </trkpt>
      <trkpt lat="48.75067" lon="2.54568">
        <ele>150.417</ele>
        <time>2018-12-03T12:44:42Z</time>
      </trkpt>
      <trkpt lat="48.75063" lon="2.54565">
        <ele>150.425</ele>
        <time>2018-12-03T12:44:45Z</time>
      </trkpt>
      <trkpt lat="48.75061" lon="2.54563">
        <ele>150.431</ele>
        <time>2018-12-03T12:44:47Z</time>
      </trkpt>
      <trkpt lat="48.75058" lon="2.54562">
        <ele>150.439</ele>
        <time>2018-12-03T12:44:50Z</time>
      </trkpt>
      <trkpt lat="48.75054" lon="2.54559">
        <ele>150.447</ele>
        <time>2018-12-03T12:44:53Z</time>
      </trkpt>
      <trkpt lat="48.75052" lon="2.54557">
        <ele>150.452</ele>
        <time>2018-12-03T12:44:55Z</time>
      </trkpt>
      <trkpt lat="48.75047" lon="2.54552">
        <ele>150.46</ele>
        <time>2018-12-03T12:44:58Z</time>
      </trkpt>
      <trkpt lat="48.75042" lon="2.54549">
        <ele>150.475</ele>
        <time>2018-12-03T12:45:03Z</time>
      </trkpt>
      <trkpt lat="48.75038" lon="2.54547">
        <ele>150.482</ele>
        <time>2018-12-03T12:45:05Z</time>
      </trkpt>
      <trkpt lat="48.75034" lon="2.54542">
        <ele>150.495</ele>
        <time>2018-12-03T12:45:09Z</time>
      </trkpt>
      <trkpt lat="48.75029" lon="2.54538">
        <ele>150.514</ele>
        <time>2018-12-03T12:45:14Z</time>
      </trkpt>
      <trkpt lat="48.75025" lon="2.54534">
        <ele>150.53</ele>
        <time>2018-12-03T12:45:17Z</time>
      </trkpt>
      <trkpt lat="48.75018" lon="2.54528">
        <ele>150.562</ele>
        <time>2018-12-03T12:45:22Z</time>
      </trkpt>
      <trkpt lat="48.75014" lon="2.54526">
        <ele>150.576</ele>
        <time>2018-12-03T12:45:24Z</time>
      </trkpt>
      <trkpt lat="48.7501" lon="2.54524">
        <ele>150.59</ele>
        <time>2018-12-03T12:45:26Z</time>
      </trkpt>
      <trkpt lat="48.75007" lon="2.54522">
        <ele>150.611</ele>
        <time>2018-12-03T12:45:29Z</time>
      </trkpt>
      <trkpt lat="48.75001" lon="2.54517">
        <ele>150.646</ele>
        <time>2018-12-03T12:45:34Z</time>
      </trkpt>
      <trkpt lat="48.74997" lon="2.54514">
        <ele>150.674</ele>
        <time>2018-12-03T12:45:38Z</time>
      </trkpt>
      <trkpt lat="48.74993" lon="2.5451">
        <ele>150.709</ele>
        <time>2018-12-03T12:45:43Z</time>
      </trkpt>
      <trkpt lat="48.74991" lon="2.54508">
        <ele>150.731</ele>
        <time>2018-12-03T12:45:46Z</time>
      </trkpt>
      <trkpt lat="48.74985" lon="2.54504">
        <ele>150.761</ele>
        <time>2018-12-03T12:45:50Z</time>
      </trkpt>
      <trkpt lat="48.74981" lon="2.54503">
        <ele>150.784</ele>
        <time>2018-12-03T12:45:53Z</time>
      </trkpt>
      <trkpt lat="48.74976" lon="2.54499">
        <ele>150.822</ele>
        <time>2018-12-03T12:45:58Z</time>
      </trkpt>
      <trkpt lat="48.74971" lon="2.54495">
        <ele>150.852</ele>
        <time>2018-12-03T12:46:02Z</time>
      </trkpt>
      <trkpt lat="48.74966" lon="2.54491">
        <ele>150.88</ele>
        <time>2018-12-03T12:46:06Z</time>
      </trkpt>
      <trkpt lat="48.74961" lon="2.54486">
        <ele>150.908</ele>
        <time>2018-12-03T12:46:10Z</time>
      </trkpt>
      <trkpt lat="48.74956" lon="2.54484">
        <ele>150.93</ele>
        <time>2018-12-03T12:46:13Z</time>
      </trkpt>
      <trkpt lat="48.74953" lon="2.54483">
        <ele>150.946</ele>
        <time>2018-12-03T12:46:15Z</time>
      </trkpt>
      <trkpt lat="48.74948" lon="2.54479">
        <ele>150.972</ele>
        <time>2018-12-03T12:46:18Z</time>
      </trkpt>
      <trkpt lat="48.74944" lon="2.54475">
        <ele>151.007</ele>
        <time>2018-12-03T12:46:22Z</time>
      </trkpt>
      <trkpt lat="48.74939" lon="2.54469">
        <ele>151.051</ele>
        <time>2018-12-03T12:46:27Z</time>
      </trkpt>
      <trkpt lat="48.74934" lon="2.54467">
        <ele>151.078</ele>
        <time>2018-12-03T12:46:30Z</time>
      </trkpt>
      <trkpt lat="48.74931" lon="2.54466">
        <ele>151.096</ele>
        <time>2018-12-03T12:46:32Z</time>
      </trkpt>
      <trkpt lat="48.74928" lon="2.54464">
        <ele>151.113</ele>
        <time>2018-12-03T12:46:34Z</time>
      </trkpt>
      <trkpt lat="48.74923" lon="2.54461">
        <ele>151.163</ele>
        <time>2018-12-03T12:46:40Z</time>
      </trkpt>
      <trkpt lat="48.74919" lon="2.54459">
        <ele>151.18</ele>
        <time>2018-12-03T12:46:42Z</time>
      </trkpt>
      <trkpt lat="48.74916" lon="2.54456">
        <ele>151.195</ele>
        <time>2018-12-03T12:46:44Z</time>
      </trkpt>
      <trkpt lat="48.74913" lon="2.54454">
        <ele>151.209</ele>
        <time>2018-12-03T12:46:46Z</time>
      </trkpt>
      <trkpt lat="48.74907" lon="2.5445">
        <ele>151.234</ele>
        <time>2018-12-03T12:46:50Z</time>
      </trkpt>
      <trkpt lat="48.74903" lon="2.54447">
        <ele>151.247</ele>
        <time>2018-12-03T12:46:52Z</time>
      </trkpt>
      <trkpt lat="48.74899" lon="2.54444">
        <ele>151.26</ele>
        <time>2018-12-03T12:46:54Z</time>
      </trkpt>
      <trkpt lat="48.74895" lon="2.54439">
        <ele>151.279</ele>
        <time>2018-12-03T12:46:57Z</time>
      </trkpt>
      <trkpt lat="48.74895" lon="2.54432">
        <ele>151.309</ele>
        <time>2018-12-03T12:47:02Z</time>
      </trkpt>
      <trkpt lat="48.74895" lon="2.54424">
        <ele>151.343</ele>
        <time>2018-12-03T12:47:08Z</time>
      </trkpt>
      <trkpt lat="48.74896" lon="2.54416">
        <ele>151.376</ele>
        <time>2018-12-03T12:47:14Z</time>
      </trkpt>
      <trkpt lat="48.74898" lon="2.54411">
        <ele>151.39</ele>
        <time>2018-12-03T12:47:17Z</time>
      </trkpt>
      <trkpt lat="48.74899" lon="2.54406">
        <ele>151.404</ele>
        <time>2018-12-03T12:47:20Z</time>
      </trkpt>
      <trkpt lat="48.74901" lon="2.54398">
        <ele>151.418</ele>
        <time>2018-12-03T12:47:23Z</time>
      </trkpt>
      <trkpt lat="48.74903" lon="2.54391">
        <ele>151.442</ele>
        <time>2018-12-03T12:47:28Z</time>
      </trkpt>
      <trkpt lat="48.74903" lon="2.54387">
        <ele>151.452</ele>
        <time>2018-12-03T12:47:30Z</time>
      </trkpt>
      <trkpt lat="48.74904" lon="2.54379">
        <ele>151.475</ele>
        <time>2018-12-03T12:47:35Z</time>
      </trkpt>
      <trkpt lat="48.74906" lon="2.54372">
        <ele>151.498</ele>
        <time>2018-12-03T12:47:40Z</time>
      </trkpt>
      <trkpt lat="48.74907" lon="2.54368">
        <ele>151.507</ele>
        <time>2018-12-03T12:47:42Z</time>
      </trkpt>
      <trkpt lat="48.74908" lon="2.54361">
        <ele>151.526</ele>
        <time>2018-12-03T12:47:46Z</time>
      </trkpt>
      <trkpt lat="48.7491" lon="2.54353">
        <ele>151.545</ele>
        <time>2018-12-03T12:47:50Z</time>
      </trkpt>
      <trkpt lat="48.7491" lon="2.54345">
        <ele>151.561</ele>
        <time>2018-12-03T12:47:54Z</time>
      </trkpt>
      <trkpt lat="48.74911" lon="2.54335">
        <ele>151.58</ele>
        <time>2018-12-03T12:47:58Z</time>
      </trkpt>
      <trkpt lat="48.74914" lon="2.5433">
        <ele>151.601</ele>
        <time>2018-12-03T12:48:02Z</time>
      </trkpt>
      <trkpt lat="48.74918" lon="2.54326">
        <ele>151.62</ele>
        <time>2018-12-03T12:48:05Z</time>
      </trkpt>
      <trkpt lat="48.74919" lon="2.54318">
        <ele>151.645</ele>
        <time>2018-12-03T12:48:09Z</time>
      </trkpt>
      <trkpt lat="48.74923" lon="2.54312">
        <ele>151.67</ele>
        <time>2018-12-03T12:48:13Z</time>
      </trkpt>
      <trkpt lat="48.74924" lon="2.54305">
        <ele>151.689</ele>
        <time>2018-12-03T12:48:16Z</time>
      </trkpt>
      <trkpt lat="48.74926" lon="2.54298">
        <ele>151.715</ele>
        <time>2018-12-03T12:48:20Z</time>
      </trkpt>
      <trkpt lat="48.74928" lon="2.54292">
        <ele>151.734</ele>
        <time>2018-12-03T12:48:23Z</time>
      </trkpt>
      <trkpt lat="48.74927" lon="2.54282">
        <ele>151.766</ele>
        <time>2018-12-03T12:48:28Z</time>
      </trkpt>
      <trkpt lat="48.74927" lon="2.54275">
        <ele>151.783</ele>
        <time>2018-12-03T12:48:31Z</time>
      </trkpt>
      <trkpt lat="48.74927" lon="2.54268">
        <ele>151.804</ele>
        <time>2018-12-03T12:48:35Z</time>
      </trkpt>
      <trkpt lat="48.74928" lon="2.54262">
        <ele>151.82</ele>
        <time>2018-12-03T12:48:38Z</time>
      </trkpt>
      <trkpt lat="48.74928" lon="2.54258">
        <ele>151.831</ele>
        <time>2018-12-03T12:48:40Z</time>
      </trkpt>
      <trkpt lat="48.74929" lon="2.54254">
        <ele>151.846</ele>
        <time>2018-12-03T12:48:43Z</time>
      </trkpt>
      <trkpt lat="48.7493" lon="2.54247">
        <ele>151.866</ele>
        <time>2018-12-03T12:48:47Z</time>
      </trkpt>
      <trkpt lat="48.74931" lon="2.5424">
        <ele>151.885</ele>
        <time>2018-12-03T12:48:51Z</time>
      </trkpt>
      <trkpt lat="48.74932" lon="2.54232">
        <ele>151.896</ele>
        <time>2018-12-03T12:48:54Z</time>
      </trkpt>
      <trkpt lat="48.74933" lon="2.54224">
        <ele>151.907</ele>
        <time>2018-12-03T12:48:57Z</time>
      </trkpt>
      <trkpt lat="48.74936" lon="2.54218">
        <ele>151.913</ele>
        <time>2018-12-03T12:48:59Z</time>
      </trkpt>
      <trkpt lat="48.74938" lon="2.54213">
        <ele>151.923</ele>
        <time>2018-12-03T12:49:02Z</time>
      </trkpt>
      <trkpt lat="48.74939" lon="2.54205">
        <ele>151.935</ele>
        <time>2018-12-03T12:49:06Z</time>
      </trkpt>
      <trkpt lat="48.7494" lon="2.542">
        <ele>151.941</ele>
        <time>2018-12-03T12:49:08Z</time>
      </trkpt>
      <trkpt lat="48.74941" lon="2.54196">
        <ele>151.946</ele>
        <time>2018-12-03T12:49:10Z</time>
      </trkpt>
      <trkpt lat="48.74942" lon="2.54187">
        <ele>151.958</ele>
        <time>2018-12-03T12:49:14Z</time>
      </trkpt>
      <trkpt lat="48.74943" lon="2.54182">
        <ele>151.964</ele>
        <time>2018-12-03T12:49:16Z</time>
      </trkpt>
      <trkpt lat="48.74945" lon="2.54175">
        <ele>151.973</ele>
        <time>2018-12-03T12:49:19Z</time>
      </trkpt>
      <trkpt lat="48.74946" lon="2.54168">
        <ele>151.985</ele>
        <time>2018-12-03T12:49:23Z</time>
      </trkpt>
      <trkpt lat="48.74947" lon="2.54164">
        <ele>151.99</ele>
        <time>2018-12-03T12:49:25Z</time>
      </trkpt>
      <trkpt lat="48.74948" lon="2.54157">
        <ele>151.997</ele>
        <time>2018-12-03T12:49:28Z</time>
      </trkpt>
      <trkpt lat="48.7495" lon="2.5415">
        <ele>152.007</ele>
        <time>2018-12-03T12:49:32Z</time>
      </trkpt>
      <trkpt lat="48.74952" lon="2.54145">
        <ele>152.011</ele>
        <time>2018-12-03T12:49:34Z</time>
      </trkpt>
      <trkpt lat="48.74953" lon="2.54138">
        <ele>152.018</ele>
        <time>2018-12-03T12:49:37Z</time>
      </trkpt>
      <trkpt lat="48.74954" lon="2.5413">
        <ele>152.025</ele>
        <time>2018-12-03T12:49:40Z</time>
      </trkpt>
      <trkpt lat="48.74956" lon="2.54123">
        <ele>152.035</ele>
        <time>2018-12-03T12:49:44Z</time>
      </trkpt>
      <trkpt lat="48.74957" lon="2.54115">
        <ele>152.047</ele>
        <time>2018-12-03T12:49:48Z</time>
      </trkpt>
      <trkpt lat="48.74959" lon="2.54106">
        <ele>152.058</ele>
        <time>2018-12-03T12:49:52Z</time>
      </trkpt>
      <trkpt lat="48.74961" lon="2.541">
        <ele>152.067</ele>
        <time>2018-12-03T12:49:55Z</time>
      </trkpt>
      <trkpt lat="48.74961" lon="2.54096">
        <ele>152.073</ele>
        <time>2018-12-03T12:49:57Z</time>
      </trkpt>
      <trkpt lat="48.74963" lon="2.54088">
        <ele>152.085</ele>
        <time>2018-12-03T12:50:01Z</time>
      </trkpt>
      <trkpt lat="48.74963" lon="2.54084">
        <ele>152.091</ele>
        <time>2018-12-03T12:50:03Z</time>
      </trkpt>
      <trkpt lat="48.74964" lon="2.5408">
        <ele>152.097</ele>
        <time>2018-12-03T12:50:05Z</time>
      </trkpt>
      <trkpt lat="48.74965" lon="2.54076">
        <ele>152.103</ele>
        <time>2018-12-03T12:50:07Z</time>
      </trkpt>
      <trkpt lat="48.74966" lon="2.54072">
        <ele>152.108</ele>
        <time>2018-12-03T12:50:09Z</time>
      </trkpt>
      <trkpt lat="48.74966" lon="2.54064">
        <ele>152.122</ele>
        <time>2018-12-03T12:50:14Z</time>
      </trkpt>
      <trkpt lat="48.74967" lon="2.54057">
        <ele>152.13</ele>
        <time>2018-12-03T12:50:18Z</time>
      </trkpt>
      <trkpt lat="48.74967" lon="2.54049">
        <ele>152.133</ele>
        <time>2018-12-03T12:50:22Z</time>
      </trkpt>
      <trkpt lat="48.74969" lon="2.54041">
        <ele>152.132</ele>
        <time>2018-12-03T12:50:26Z</time>
      </trkpt>
      <trkpt lat="48.74971" lon="2.54035">
        <ele>152.128</ele>
        <time>2018-12-03T12:50:32Z</time>
      </trkpt>
      <trkpt lat="48.74969" lon="2.54029">
        <ele>152.121</ele>
        <time>2018-12-03T12:50:37Z</time>
      </trkpt>
      <trkpt lat="48.74964" lon="2.54027">
        <ele>152.105</ele>
        <time>2018-12-03T12:50:42Z</time>
      </trkpt>
      <trkpt lat="48.74959" lon="2.54022">
        <ele>152.084</ele>
        <time>2018-12-03T12:50:46Z</time>
      </trkpt>
      <trkpt lat="48.74957" lon="2.5402">
        <ele>152.072</ele>
        <time>2018-12-03T12:50:48Z</time>
      </trkpt>
      <trkpt lat="48.74951" lon="2.54016">
        <ele>152.042</ele>
        <time>2018-12-03T12:50:52Z</time>
      </trkpt>
      <trkpt lat="48.74946" lon="2.54014">
        <ele>152.019</ele>
        <time>2018-12-03T12:50:55Z</time>
      </trkpt>
      <trkpt lat="48.74942" lon="2.54009">
        <ele>151.984</ele>
        <time>2018-12-03T12:50:59Z</time>
      </trkpt>
      <trkpt lat="48.74939" lon="2.54007">
        <ele>151.952</ele>
        <time>2018-12-03T12:51:02Z</time>
      </trkpt>
      <trkpt lat="48.74937" lon="2.54005">
        <ele>151.928</ele>
        <time>2018-12-03T12:51:04Z</time>
      </trkpt>
      <trkpt lat="48.74933" lon="2.54002">
        <ele>151.874</ele>
        <time>2018-12-03T12:51:08Z</time>
      </trkpt>
      <trkpt lat="48.74927" lon="2.53997">
        <ele>151.789</ele>
        <time>2018-12-03T12:51:13Z</time>
      </trkpt>
      <trkpt lat="48.74925" lon="2.53995">
        <ele>151.749</ele>
        <time>2018-12-03T12:51:15Z</time>
      </trkpt>
      <trkpt lat="48.74922" lon="2.53992">
        <ele>151.706</ele>
        <time>2018-12-03T12:51:17Z</time>
      </trkpt>
      <trkpt lat="48.74919" lon="2.5399">
        <ele>151.66</ele>
        <time>2018-12-03T12:51:19Z</time>
      </trkpt>
      <trkpt lat="48.74916" lon="2.53987">
        <ele>151.564</ele>
        <time>2018-12-03T12:51:23Z</time>
      </trkpt>
      <trkpt lat="48.74913" lon="2.53984">
        <ele>151.482</ele>
        <time>2018-12-03T12:51:26Z</time>
      </trkpt>
      <trkpt lat="48.74911" lon="2.53977">
        <ele>151.369</ele>
        <time>2018-12-03T12:51:30Z</time>
      </trkpt>
      <trkpt lat="48.74911" lon="2.5397">
        <ele>151.288</ele>
        <time>2018-12-03T12:51:33Z</time>
      </trkpt>
      <trkpt lat="48.74912" lon="2.53966">
        <ele>151.237</ele>
        <time>2018-12-03T12:51:35Z</time>
      </trkpt>
      <trkpt lat="48.74912" lon="2.53959">
        <ele>151.166</ele>
        <time>2018-12-03T12:51:38Z</time>
      </trkpt>
      <trkpt lat="48.74911" lon="2.53955">
        <ele>151.121</ele>
        <time>2018-12-03T12:51:40Z</time>
      </trkpt>
      <trkpt lat="48.74911" lon="2.53951">
        <ele>151.078</ele>
        <time>2018-12-03T12:51:42Z</time>
      </trkpt>
      <trkpt lat="48.74911" lon="2.53948">
        <ele>151.038</ele>
        <time>2018-12-03T12:51:44Z</time>
      </trkpt>
      <trkpt lat="48.7491" lon="2.53944">
        <ele>150.98</ele>
        <time>2018-12-03T12:51:47Z</time>
      </trkpt>
      <trkpt lat="48.74911" lon="2.53936">
        <ele>150.876</ele>
        <time>2018-12-03T12:51:53Z</time>
      </trkpt>
      <trkpt lat="48.74912" lon="2.53933">
        <ele>150.844</ele>
        <time>2018-12-03T12:51:55Z</time>
      </trkpt>
      <trkpt lat="48.74912" lon="2.53929">
        <ele>150.813</ele>
        <time>2018-12-03T12:51:57Z</time>
      </trkpt>
      <trkpt lat="48.74913" lon="2.53925">
        <ele>150.77</ele>
        <time>2018-12-03T12:52:00Z</time>
      </trkpt>
      <trkpt lat="48.74913" lon="2.53921">
        <ele>150.744</ele>
        <time>2018-12-03T12:52:02Z</time>
      </trkpt>
      <trkpt lat="48.74914" lon="2.53917">
        <ele>150.72</ele>
        <time>2018-12-03T12:52:04Z</time>
      </trkpt>
      <trkpt lat="48.74916" lon="2.53908">
        <ele>150.676</ele>
        <time>2018-12-03T12:52:08Z</time>
      </trkpt>
      <trkpt lat="48.74917" lon="2.53901">
        <ele>150.649</ele>
        <time>2018-12-03T12:52:11Z</time>
      </trkpt>
      <trkpt lat="48.74918" lon="2.53897">
        <ele>150.631</ele>
        <time>2018-12-03T12:52:13Z</time>
      </trkpt>
      <trkpt lat="48.7492" lon="2.53892">
        <ele>150.616</ele>
        <time>2018-12-03T12:52:15Z</time>
      </trkpt>
      <trkpt lat="48.74921" lon="2.53886">
        <ele>150.603</ele>
        <time>2018-12-03T12:52:17Z</time>
      </trkpt>
      <trkpt lat="48.74922" lon="2.53878">
        <ele>150.582</ele>
        <time>2018-12-03T12:52:21Z</time>
      </trkpt>
      <trkpt lat="48.74923" lon="2.53875">
        <ele>150.573</ele>
        <time>2018-12-03T12:52:23Z</time>
      </trkpt>
      <trkpt lat="48.74923" lon="2.53871">
        <ele>150.565</ele>
        <time>2018-12-03T12:52:25Z</time>
      </trkpt>
      <trkpt lat="48.74923" lon="2.53863">
        <ele>150.553</ele>
        <time>2018-12-03T12:52:28Z</time>
      </trkpt>
      <trkpt lat="48.74923" lon="2.53858">
        <ele>150.545</ele>
        <time>2018-12-03T12:52:30Z</time>
      </trkpt>
      <trkpt lat="48.74925" lon="2.5385">
        <ele>150.531</ele>
        <time>2018-12-03T12:52:34Z</time>
      </trkpt>
      <trkpt lat="48.74925" lon="2.53846">
        <ele>150.525</ele>
        <time>2018-12-03T12:52:36Z</time>
      </trkpt>
      <trkpt lat="48.74926" lon="2.53839">
        <ele>150.514</ele>
        <time>2018-12-03T12:52:41Z</time>
      </trkpt>
      <trkpt lat="48.74926" lon="2.53835">
        <ele>150.511</ele>
        <time>2018-12-03T12:52:43Z</time>
      </trkpt>
      <trkpt lat="48.74927" lon="2.5383">
        <ele>150.509</ele>
        <time>2018-12-03T12:52:46Z</time>
      </trkpt>
      <trkpt lat="48.74927" lon="2.53827">
        <ele>150.508</ele>
        <time>2018-12-03T12:52:48Z</time>
      </trkpt>
      <trkpt lat="48.74927" lon="2.53819">
        <ele>150.508</ele>
        <time>2018-12-03T12:52:51Z</time>
      </trkpt>
      <trkpt lat="48.74927" lon="2.53811">
        <ele>150.51</ele>
        <time>2018-12-03T12:52:56Z</time>
      </trkpt>
      <trkpt lat="48.74925" lon="2.53804">
        <ele>150.513</ele>
        <time>2018-12-03T12:52:59Z</time>
      </trkpt>
      <trkpt lat="48.74921" lon="2.53799">
        <ele>150.513</ele>
        <time>2018-12-03T12:53:03Z</time>
      </trkpt>
      <trkpt lat="48.74916" lon="2.53797">
        <ele>150.51</ele>
        <time>2018-12-03T12:53:08Z</time>
      </trkpt>
      <trkpt lat="48.74912" lon="2.538">
        <ele>150.503</ele>
        <time>2018-12-03T12:53:14Z</time>
      </trkpt>
      <trkpt lat="48.74909" lon="2.53802">
        <ele>150.495</ele>
        <time>2018-12-03T12:53:17Z</time>
      </trkpt>
      <trkpt lat="48.74905" lon="2.53807">
        <ele>150.48</ele>
        <time>2018-12-03T12:53:21Z</time>
      </trkpt>
      <trkpt lat="48.74902" lon="2.5381">
        <ele>150.462</ele>
        <time>2018-12-03T12:53:24Z</time>
      </trkpt>
      <trkpt lat="48.74899" lon="2.53816">
        <ele>150.426</ele>
        <time>2018-12-03T12:53:30Z</time>
      </trkpt>
      <trkpt lat="48.74894" lon="2.53819">
        <ele>150.384</ele>
        <time>2018-12-03T12:53:37Z</time>
      </trkpt>
      <trkpt lat="48.7489" lon="2.53819">
        <ele>150.368</ele>
        <time>2018-12-03T12:53:42Z</time>
      </trkpt>
      <trkpt lat="48.7489" lon="2.53819">
        <ele>150.368</ele>
        <time>2018-12-03T12:53:49Z</time>
      </trkpt>
      <trkpt lat="48.7489" lon="2.53819">
        <ele>99</ele>
        <time>2018-12-03T12:53:49Z</time>
      </trkpt>
      <trkpt lat="48.7489" lon="2.53819">
        <ele>99</ele>
        <time>2018-12-03T12:54:25Z</time>
      </trkpt>
      <trkpt lat="48.74894" lon="2.53778">
        <ele>150.309</ele>
        <time>2018-12-03T12:54:25Z</time>
      </trkpt>
      <trkpt lat="48.74897" lon="2.53773">
        <ele>150.327</ele>
        <time>2018-12-03T12:54:29Z</time>
      </trkpt>
      <trkpt lat="48.749" lon="2.53768">
        <ele>150.351</ele>
        <time>2018-12-03T12:54:34Z</time>
      </trkpt>
      <trkpt lat="48.74903" lon="2.5376">
        <ele>150.372</ele>
        <time>2018-12-03T12:54:38Z</time>
      </trkpt>
      <trkpt lat="48.74903" lon="2.53751">
        <ele>150.388</ele>
        <time>2018-12-03T12:54:41Z</time>
      </trkpt>
      <trkpt lat="48.74906" lon="2.53746">
        <ele>150.413</ele>
        <time>2018-12-03T12:54:45Z</time>
      </trkpt>
      <trkpt lat="48.7491" lon="2.5374">
        <ele>150.439</ele>
        <time>2018-12-03T12:54:49Z</time>
      </trkpt>
      <trkpt lat="48.74912" lon="2.53736">
        <ele>150.46</ele>
        <time>2018-12-03T12:54:52Z</time>
      </trkpt>
      <trkpt lat="48.74917" lon="2.5373">
        <ele>150.506</ele>
        <time>2018-12-03T12:54:58Z</time>
      </trkpt>
      <trkpt lat="48.74919" lon="2.53724">
        <ele>150.547</ele>
        <time>2018-12-03T12:55:03Z</time>
      </trkpt>
      <trkpt lat="48.7492" lon="2.5372">
        <ele>150.572</ele>
        <time>2018-12-03T12:55:06Z</time>
      </trkpt>
      <trkpt lat="48.74923" lon="2.53714">
        <ele>150.603</ele>
        <time>2018-12-03T12:55:10Z</time>
      </trkpt>
      <trkpt lat="48.74926" lon="2.5371">
        <ele>150.618</ele>
        <time>2018-12-03T12:55:12Z</time>
      </trkpt>
      <trkpt lat="48.74928" lon="2.53702">
        <ele>150.647</ele>
        <time>2018-12-03T12:55:16Z</time>
      </trkpt>
      <trkpt lat="48.7493" lon="2.53694">
        <ele>150.685</ele>
        <time>2018-12-03T12:55:21Z</time>
      </trkpt>
      <trkpt lat="48.74932" lon="2.53688">
        <ele>150.709</ele>
        <time>2018-12-03T12:55:24Z</time>
      </trkpt>
      <trkpt lat="48.74935" lon="2.53681">
        <ele>150.741</ele>
        <time>2018-12-03T12:55:28Z</time>
      </trkpt>
      <trkpt lat="48.74937" lon="2.53674">
        <ele>150.764</ele>
        <time>2018-12-03T12:55:31Z</time>
      </trkpt>
      <trkpt lat="48.74937" lon="2.53671">
        <ele>150.779</ele>
        <time>2018-12-03T12:55:33Z</time>
      </trkpt>
      <trkpt lat="48.7494" lon="2.53663">
        <ele>150.81</ele>
        <time>2018-12-03T12:55:37Z</time>
      </trkpt>
      <trkpt lat="48.74942" lon="2.53661">
        <ele>150.817</ele>
        <time>2018-12-03T12:55:38Z</time>
      </trkpt>
      <trkpt lat="48.74944" lon="2.53656">
        <ele>150.831</ele>
        <time>2018-12-03T12:55:40Z</time>
      </trkpt>
      <trkpt lat="48.74946" lon="2.53649">
        <ele>150.852</ele>
        <time>2018-12-03T12:55:43Z</time>
      </trkpt>
      <trkpt lat="48.74947" lon="2.53641">
        <ele>150.871</ele>
        <time>2018-12-03T12:55:46Z</time>
      </trkpt>
      <trkpt lat="48.74949" lon="2.53634">
        <ele>150.898</ele>
        <time>2018-12-03T12:55:50Z</time>
      </trkpt>
      <trkpt lat="48.74952" lon="2.53629">
        <ele>150.926</ele>
        <time>2018-12-03T12:55:54Z</time>
      </trkpt>
      <trkpt lat="48.74956" lon="2.53622">
        <ele>150.954</ele>
        <time>2018-12-03T12:55:58Z</time>
      </trkpt>
      <trkpt lat="48.74957" lon="2.53619">
        <ele>150.967</ele>
        <time>2018-12-03T12:56:00Z</time>
      </trkpt>
      <trkpt lat="48.74959" lon="2.53611">
        <ele>150.992</ele>
        <time>2018-12-03T12:56:04Z</time>
      </trkpt>
      <trkpt lat="48.74959" lon="2.53607">
        <ele>151.004</ele>
        <time>2018-12-03T12:56:06Z</time>
      </trkpt>
      <trkpt lat="48.7496" lon="2.53602">
        <ele>151.015</ele>
        <time>2018-12-03T12:56:08Z</time>
      </trkpt>
      <trkpt lat="48.74961" lon="2.53597">
        <ele>151.032</ele>
        <time>2018-12-03T12:56:11Z</time>
      </trkpt>
      <trkpt lat="48.74961" lon="2.53593">
        <ele>151.042</ele>
        <time>2018-12-03T12:56:13Z</time>
      </trkpt>
      <trkpt lat="48.74963" lon="2.53586">
        <ele>151.064</ele>
        <time>2018-12-03T12:56:18Z</time>
      </trkpt>
      <trkpt lat="48.74963" lon="2.53577">
        <ele>151.086</ele>
        <time>2018-12-03T12:56:23Z</time>
      </trkpt>
      <trkpt lat="48.74963" lon="2.53573">
        <ele>151.096</ele>
        <time>2018-12-03T12:56:26Z</time>
      </trkpt>
      <trkpt lat="48.74963" lon="2.53573">
        <ele>98</ele>
        <time>2018-12-03T12:56:33Z</time>
      </trkpt>
      <trkpt lat="48.74963" lon="2.53573">
        <ele>98</ele>
        <time>2018-12-03T12:56:38Z</time>
      </trkpt>
      <trkpt lat="48.7496" lon="2.53563">
        <ele>151.12</ele>
        <time>2018-12-03T12:56:38Z</time>
      </trkpt>
      <trkpt lat="48.7496" lon="2.53556">
        <ele>151.125</ele>
        <time>2018-12-03T12:56:43Z</time>
      </trkpt>
      <trkpt lat="48.74959" lon="2.53547">
        <ele>151.134</ele>
        <time>2018-12-03T12:56:49Z</time>
      </trkpt>
      <trkpt lat="48.74959" lon="2.53542">
        <ele>151.14</ele>
        <time>2018-12-03T12:56:52Z</time>
      </trkpt>
      <trkpt lat="48.74959" lon="2.53537">
        <ele>151.145</ele>
        <time>2018-12-03T12:56:55Z</time>
      </trkpt>
      <trkpt lat="48.74957" lon="2.5353">
        <ele>151.154</ele>
        <time>2018-12-03T12:56:59Z</time>
      </trkpt>
      <trkpt lat="48.74956" lon="2.53526">
        <ele>151.161</ele>
        <time>2018-12-03T12:57:02Z</time>
      </trkpt>
      <trkpt lat="48.74955" lon="2.53519">
        <ele>151.175</ele>
        <time>2018-12-03T12:57:08Z</time>
      </trkpt>
      <trkpt lat="48.74956" lon="2.53511">
        <ele>151.188</ele>
        <time>2018-12-03T12:57:13Z</time>
      </trkpt>
      <trkpt lat="48.74956" lon="2.53507">
        <ele>151.206</ele>
        <time>2018-12-03T12:57:18Z</time>
      </trkpt>
      <trkpt lat="48.74957" lon="2.53492">
        <ele>151.226</ele>
        <time>2018-12-03T12:57:22Z</time>
      </trkpt>
      <trkpt lat="48.74955" lon="2.53485">
        <ele>151.243</ele>
        <time>2018-12-03T12:57:25Z</time>
      </trkpt>
      <trkpt lat="48.74955" lon="2.5348">
        <ele>151.257</ele>
        <time>2018-12-03T12:57:27Z</time>
      </trkpt>
      <trkpt lat="48.74953" lon="2.53472">
        <ele>151.293</ele>
        <time>2018-12-03T12:57:32Z</time>
      </trkpt>
      <trkpt lat="48.7495" lon="2.53465">
        <ele>151.316</ele>
        <time>2018-12-03T12:57:35Z</time>
      </trkpt>
      <trkpt lat="48.74949" lon="2.53458">
        <ele>151.342</ele>
        <time>2018-12-03T12:57:38Z</time>
      </trkpt>
      <trkpt lat="48.74949" lon="2.53453">
        <ele>151.361</ele>
        <time>2018-12-03T12:57:40Z</time>
      </trkpt>
      <trkpt lat="48.74947" lon="2.53446">
        <ele>151.389</ele>
        <time>2018-12-03T12:57:43Z</time>
      </trkpt>
      <trkpt lat="48.74947" lon="2.53439">
        <ele>151.418</ele>
        <time>2018-12-03T12:57:46Z</time>
      </trkpt>
      <trkpt lat="48.74947" lon="2.53431">
        <ele>151.469</ele>
        <time>2018-12-03T12:57:51Z</time>
      </trkpt>
      <trkpt lat="48.74947" lon="2.53426">
        <ele>151.5</ele>
        <time>2018-12-03T12:57:54Z</time>
      </trkpt>
      <trkpt lat="48.74947" lon="2.53422">
        <ele>151.521</ele>
        <time>2018-12-03T12:57:56Z</time>
      </trkpt>
      <trkpt lat="48.74947" lon="2.53418">
        <ele>151.543</ele>
        <time>2018-12-03T12:57:58Z</time>
      </trkpt>
      <trkpt lat="48.74947" lon="2.53414">
        <ele>151.565</ele>
        <time>2018-12-03T12:58:00Z</time>
      </trkpt>
      <trkpt lat="48.74947" lon="2.53411">
        <ele>151.585</ele>
        <time>2018-12-03T12:58:02Z</time>
      </trkpt>
      <trkpt lat="48.74946" lon="2.53402">
        <ele>151.634</ele>
        <time>2018-12-03T12:58:07Z</time>
      </trkpt>
      <trkpt lat="48.74946" lon="2.53395">
        <ele>151.672</ele>
        <time>2018-12-03T12:58:11Z</time>
      </trkpt>
      <trkpt lat="48.74946" lon="2.53391">
        <ele>151.69</ele>
        <time>2018-12-03T12:58:13Z</time>
      </trkpt>
      <trkpt lat="48.74946" lon="2.53386">
        <ele>151.709</ele>
        <time>2018-12-03T12:58:15Z</time>
      </trkpt>
      <trkpt lat="48.74945" lon="2.53378">
        <ele>151.749</ele>
        <time>2018-12-03T12:58:19Z</time>
      </trkpt>
      <trkpt lat="48.74945" lon="2.53371">
        <ele>151.801</ele>
        <time>2018-12-03T12:58:24Z</time>
      </trkpt>
      <trkpt lat="48.74944" lon="2.53364">
        <ele>151.832</ele>
        <time>2018-12-03T12:58:27Z</time>
      </trkpt>
      <trkpt lat="48.74942" lon="2.53358">
        <ele>151.862</ele>
        <time>2018-12-03T12:58:30Z</time>
      </trkpt>
      <trkpt lat="48.74941" lon="2.53354">
        <ele>151.881</ele>
        <time>2018-12-03T12:58:32Z</time>
      </trkpt>
      <trkpt lat="48.74939" lon="2.53348">
        <ele>151.93</ele>
        <time>2018-12-03T12:58:37Z</time>
      </trkpt>
      <trkpt lat="48.74938" lon="2.53344">
        <ele>151.95</ele>
        <time>2018-12-03T12:58:39Z</time>
      </trkpt>
      <trkpt lat="48.74937" lon="2.53341">
        <ele>151.97</ele>
        <time>2018-12-03T12:58:41Z</time>
      </trkpt>
      <trkpt lat="48.74935" lon="2.53337">
        <ele>151.99</ele>
        <time>2018-12-03T12:58:43Z</time>
      </trkpt>
      <trkpt lat="48.74934" lon="2.53332">
        <ele>152.021</ele>
        <time>2018-12-03T12:58:46Z</time>
      </trkpt>
      <trkpt lat="48.74932" lon="2.53328">
        <ele>152.042</ele>
        <time>2018-12-03T12:58:48Z</time>
      </trkpt>
      <trkpt lat="48.74932" lon="2.53321">
        <ele>152.075</ele>
        <time>2018-12-03T12:58:51Z</time>
      </trkpt>
      <trkpt lat="48.7493" lon="2.53314">
        <ele>152.129</ele>
        <time>2018-12-03T12:58:56Z</time>
      </trkpt>
      <trkpt lat="48.74929" lon="2.5331">
        <ele>152.15</ele>
        <time>2018-12-03T12:58:58Z</time>
      </trkpt>
      <trkpt lat="48.74929" lon="2.53302">
        <ele>152.192</ele>
        <time>2018-12-03T12:59:02Z</time>
      </trkpt>
      <trkpt lat="48.74927" lon="2.53295">
        <ele>152.221</ele>
        <time>2018-12-03T12:59:05Z</time>
      </trkpt>
      <trkpt lat="48.74926" lon="2.53287">
        <ele>152.256</ele>
        <time>2018-12-03T12:59:09Z</time>
      </trkpt>
      <trkpt lat="48.74926" lon="2.53283">
        <ele>152.272</ele>
        <time>2018-12-03T12:59:11Z</time>
      </trkpt>
      <trkpt lat="48.74925" lon="2.53278">
        <ele>152.295</ele>
        <time>2018-12-03T12:59:14Z</time>
      </trkpt>
      <trkpt lat="48.74924" lon="2.53269">
        <ele>152.318</ele>
        <time>2018-12-03T12:59:17Z</time>
      </trkpt>
      <trkpt lat="48.74924" lon="2.53262">
        <ele>152.341</ele>
        <time>2018-12-03T12:59:20Z</time>
      </trkpt>
      <trkpt lat="48.74924" lon="2.53258">
        <ele>152.348</ele>
        <time>2018-12-03T12:59:21Z</time>
      </trkpt>
      <trkpt lat="48.74925" lon="2.53251">
        <ele>152.37</ele>
        <time>2018-12-03T12:59:24Z</time>
      </trkpt>
      <trkpt lat="48.74924" lon="2.53243">
        <ele>152.401</ele>
        <time>2018-12-03T12:59:28Z</time>
      </trkpt>
      <trkpt lat="48.74924" lon="2.53236">
        <ele>152.426</ele>
        <time>2018-12-03T12:59:31Z</time>
      </trkpt>
      <trkpt lat="48.74923" lon="2.53228">
        <ele>152.45</ele>
        <time>2018-12-03T12:59:34Z</time>
      </trkpt>
      <trkpt lat="48.74921" lon="2.53219">
        <ele>152.485</ele>
        <time>2018-12-03T12:59:38Z</time>
      </trkpt>
      <trkpt lat="48.7492" lon="2.5321">
        <ele>152.509</ele>
        <time>2018-12-03T12:59:41Z</time>
      </trkpt>
      <trkpt lat="48.74921" lon="2.53204">
        <ele>152.533</ele>
        <time>2018-12-03T12:59:44Z</time>
      </trkpt>
      <trkpt lat="48.74921" lon="2.53199">
        <ele>152.549</ele>
        <time>2018-12-03T12:59:46Z</time>
      </trkpt>
      <trkpt lat="48.74922" lon="2.53195">
        <ele>152.564</ele>
        <time>2018-12-03T12:59:48Z</time>
      </trkpt>
      <trkpt lat="48.74921" lon="2.53188">
        <ele>152.586</ele>
        <time>2018-12-03T12:59:51Z</time>
      </trkpt>
      <trkpt lat="48.74921" lon="2.53183">
        <ele>152.6</ele>
        <time>2018-12-03T12:59:53Z</time>
      </trkpt>
      <trkpt lat="48.7492" lon="2.53175">
        <ele>152.637</ele>
        <time>2018-12-03T12:59:58Z</time>
      </trkpt>
      <trkpt lat="48.74919" lon="2.53172">
        <ele>152.651</ele>
        <time>2018-12-03T13:00:00Z</time>
      </trkpt>
      <trkpt lat="48.74918" lon="2.53164">
        <ele>152.681</ele>
        <time>2018-12-03T13:00:04Z</time>
      </trkpt>
      <trkpt lat="48.74918" lon="2.53161">
        <ele>152.698</ele>
        <time>2018-12-03T13:00:06Z</time>
      </trkpt>
      <trkpt lat="48.74917" lon="2.53155">
        <ele>152.724</ele>
        <time>2018-12-03T13:00:09Z</time>
      </trkpt>
      <trkpt lat="48.74917" lon="2.53152">
        <ele>152.742</ele>
        <time>2018-12-03T13:00:11Z</time>
      </trkpt>
      <trkpt lat="48.74916" lon="2.53147">
        <ele>152.76</ele>
        <time>2018-12-03T13:00:13Z</time>
      </trkpt>
      <trkpt lat="48.74914" lon="2.5314">
        <ele>152.786</ele>
        <time>2018-12-03T13:00:16Z</time>
      </trkpt>
      <trkpt lat="48.74913" lon="2.53137">
        <ele>152.803</ele>
        <time>2018-12-03T13:00:18Z</time>
      </trkpt>
      <trkpt lat="48.7491" lon="2.53131">
        <ele>152.83</ele>
        <time>2018-12-03T13:00:21Z</time>
      </trkpt>
      <trkpt lat="48.74908" lon="2.53123">
        <ele>152.85</ele>
        <time>2018-12-03T13:00:24Z</time>
      </trkpt>
      <trkpt lat="48.74907" lon="2.53119">
        <ele>152.86</ele>
        <time>2018-12-03T13:00:26Z</time>
      </trkpt>
      <trkpt lat="48.74906" lon="2.53115">
        <ele>152.875</ele>
        <time>2018-12-03T13:00:29Z</time>
      </trkpt>
      <trkpt lat="48.74906" lon="2.5311">
        <ele>152.896</ele>
        <time>2018-12-03T13:00:33Z</time>
      </trkpt>
      <trkpt lat="48.74905" lon="2.53101">
        <ele>152.92</ele>
        <time>2018-12-03T13:00:38Z</time>
      </trkpt>
      <trkpt lat="48.74905" lon="2.53094">
        <ele>152.931</ele>
        <time>2018-12-03T13:00:41Z</time>
      </trkpt>
      <trkpt lat="48.74904" lon="2.53085">
        <ele>152.945</ele>
        <time>2018-12-03T13:00:46Z</time>
      </trkpt>
      <trkpt lat="48.74903" lon="2.53078">
        <ele>152.952</ele>
        <time>2018-12-03T13:00:50Z</time>
      </trkpt>
      <trkpt lat="48.74903" lon="2.53074">
        <ele>152.957</ele>
        <time>2018-12-03T13:00:53Z</time>
      </trkpt>
      <trkpt lat="48.74902" lon="2.53067">
        <ele>152.961</ele>
        <time>2018-12-03T13:00:56Z</time>
      </trkpt>
      <trkpt lat="48.74902" lon="2.53059">
        <ele>152.962</ele>
        <time>2018-12-03T13:00:59Z</time>
      </trkpt>
      <trkpt lat="48.74902" lon="2.53053">
        <ele>152.959</ele>
        <time>2018-12-03T13:01:01Z</time>
      </trkpt>
      <trkpt lat="48.749" lon="2.53046">
        <ele>152.95</ele>
        <time>2018-12-03T13:01:03Z</time>
      </trkpt>
      <trkpt lat="48.74899" lon="2.53043">
        <ele>152.944</ele>
        <time>2018-12-03T13:01:04Z</time>
      </trkpt>
      <trkpt lat="48.74897" lon="2.53037">
        <ele>152.927</ele>
        <time>2018-12-03T13:01:07Z</time>
      </trkpt>
      <trkpt lat="48.74897" lon="2.5303">
        <ele>152.907</ele>
        <time>2018-12-03T13:01:11Z</time>
      </trkpt>
      <trkpt lat="48.74897" lon="2.53025">
        <ele>152.897</ele>
        <time>2018-12-03T13:01:13Z</time>
      </trkpt>
      <trkpt lat="48.74899" lon="2.53019">
        <ele>152.88</ele>
        <time>2018-12-03T13:01:17Z</time>
      </trkpt>
      <trkpt lat="48.74901" lon="2.53015">
        <ele>152.866</ele>
        <time>2018-12-03T13:01:20Z</time>
      </trkpt>
      <trkpt lat="48.74905" lon="2.5301">
        <ele>152.84</ele>
        <time>2018-12-03T13:01:25Z</time>
      </trkpt>
      <trkpt lat="48.74909" lon="2.53003">
        <ele>152.817</ele>
        <time>2018-12-03T13:01:29Z</time>
      </trkpt>
      <trkpt lat="48.74912" lon="2.52999">
        <ele>152.8</ele>
        <time>2018-12-03T13:01:32Z</time>
      </trkpt>
      <trkpt lat="48.74914" lon="2.52992">
        <ele>152.784</ele>
        <time>2018-12-03T13:01:35Z</time>
      </trkpt>
      <trkpt lat="48.74916" lon="2.52988">
        <ele>152.775</ele>
        <time>2018-12-03T13:01:37Z</time>
      </trkpt>
      <trkpt lat="48.74918" lon="2.52979">
        <ele>152.753</ele>
        <time>2018-12-03T13:01:41Z</time>
      </trkpt>
      <trkpt lat="48.74921" lon="2.52974">
        <ele>152.729</ele>
        <time>2018-12-03T13:01:45Z</time>
      </trkpt>
      <trkpt lat="48.74923" lon="2.5297">
        <ele>152.715</ele>
        <time>2018-12-03T13:01:47Z</time>
      </trkpt>
      <trkpt lat="48.74925" lon="2.52967">
        <ele>152.694</ele>
        <time>2018-12-03T13:01:50Z</time>
      </trkpt>
      <trkpt lat="48.74927" lon="2.52964">
        <ele>152.676</ele>
        <time>2018-12-03T13:01:53Z</time>
      </trkpt>
      <trkpt lat="48.74929" lon="2.52961">
        <ele>152.661</ele>
        <time>2018-12-03T13:01:56Z</time>
      </trkpt>
      <trkpt lat="48.7493" lon="2.52959">
        <ele>152.651</ele>
        <time>2018-12-03T13:01:58Z</time>
      </trkpt>
      <trkpt lat="48.74933" lon="2.52956">
        <ele>152.643</ele>
        <time>2018-12-03T13:02:00Z</time>
      </trkpt>
      <trkpt lat="48.74934" lon="2.52953">
        <ele>152.636</ele>
        <time>2018-12-03T13:02:02Z</time>
      </trkpt>
      <trkpt lat="48.74936" lon="2.5295">
        <ele>152.631</ele>
        <time>2018-12-03T13:02:04Z</time>
      </trkpt>
      <trkpt lat="48.74938" lon="2.52947">
        <ele>152.626</ele>
        <time>2018-12-03T13:02:06Z</time>
      </trkpt>
      <trkpt lat="48.74941" lon="2.52941">
        <ele>152.618</ele>
        <time>2018-12-03T13:02:10Z</time>
      </trkpt>
      <trkpt lat="48.74944" lon="2.52934">
        <ele>152.613</ele>
        <time>2018-12-03T13:02:14Z</time>
      </trkpt>
      <trkpt lat="48.74946" lon="2.52931">
        <ele>152.612</ele>
        <time>2018-12-03T13:02:16Z</time>
      </trkpt>
      <trkpt lat="48.7495" lon="2.52923">
        <ele>152.611</ele>
        <time>2018-12-03T13:02:20Z</time>
      </trkpt>
      <trkpt lat="48.74953" lon="2.52916">
        <ele>152.611</ele>
        <time>2018-12-03T13:02:24Z</time>
      </trkpt>
      <trkpt lat="48.74957" lon="2.52911">
        <ele>152.615</ele>
        <time>2018-12-03T13:02:28Z</time>
      </trkpt>
      <trkpt lat="48.74961" lon="2.52905">
        <ele>152.621</ele>
        <time>2018-12-03T13:02:32Z</time>
      </trkpt>
      <trkpt lat="48.74963" lon="2.52901">
        <ele>152.625</ele>
        <time>2018-12-03T13:02:34Z</time>
      </trkpt>
      <trkpt lat="48.74965" lon="2.52898">
        <ele>152.629</ele>
        <time>2018-12-03T13:02:36Z</time>
      </trkpt>
      <trkpt lat="48.74968" lon="2.52892">
        <ele>152.633</ele>
        <time>2018-12-03T13:02:38Z</time>
      </trkpt>
      <trkpt lat="48.7497" lon="2.52888">
        <ele>152.637</ele>
        <time>2018-12-03T13:02:40Z</time>
      </trkpt>
      <trkpt lat="48.74973" lon="2.52883">
        <ele>152.644</ele>
        <time>2018-12-03T13:02:43Z</time>
      </trkpt>
      <trkpt lat="48.74975" lon="2.52876">
        <ele>152.653</ele>
        <time>2018-12-03T13:02:47Z</time>
      </trkpt>
      <trkpt lat="48.74979" lon="2.52869">
        <ele>152.661</ele>
        <time>2018-12-03T13:02:51Z</time>
      </trkpt>
      <trkpt lat="48.7498" lon="2.52866">
        <ele>152.665</ele>
        <time>2018-12-03T13:02:53Z</time>
      </trkpt>
      <trkpt lat="48.74982" lon="2.52861">
        <ele>152.673</ele>
        <time>2018-12-03T13:02:56Z</time>
      </trkpt>
      <trkpt lat="48.74987" lon="2.52856">
        <ele>152.686</ele>
        <time>2018-12-03T13:03:00Z</time>
      </trkpt>
      <trkpt lat="48.74991" lon="2.52851">
        <ele>152.698</ele>
        <time>2018-12-03T13:03:04Z</time>
      </trkpt>
      <trkpt lat="48.74993" lon="2.52848">
        <ele>152.707</ele>
        <time>2018-12-03T13:03:07Z</time>
      </trkpt>
      <trkpt lat="48.74995" lon="2.52841">
        <ele>152.717</ele>
        <time>2018-12-03T13:03:11Z</time>
      </trkpt>
      <trkpt lat="48.74998" lon="2.52835">
        <ele>152.725</ele>
        <time>2018-12-03T13:03:15Z</time>
      </trkpt>
      <trkpt lat="48.75001" lon="2.52828">
        <ele>152.728</ele>
        <time>2018-12-03T13:03:18Z</time>
      </trkpt>
      <trkpt lat="48.75002" lon="2.52825">
        <ele>152.728</ele>
        <time>2018-12-03T13:03:19Z</time>
      </trkpt>
      <trkpt lat="48.75003" lon="2.52821">
        <ele>152.727</ele>
        <time>2018-12-03T13:03:21Z</time>
      </trkpt>
      <trkpt lat="48.75006" lon="2.52815">
        <ele>152.728</ele>
        <time>2018-12-03T13:03:24Z</time>
      </trkpt>
      <trkpt lat="48.75008" lon="2.52811">
        <ele>152.727</ele>
        <time>2018-12-03T13:03:26Z</time>
      </trkpt>
      <trkpt lat="48.75011" lon="2.52804">
        <ele>152.725</ele>
        <time>2018-12-03T13:03:29Z</time>
      </trkpt>
      <trkpt lat="48.75013" lon="2.52801">
        <ele>152.723</ele>
        <time>2018-12-03T13:03:32Z</time>
      </trkpt>
      <trkpt lat="48.75017" lon="2.52797">
        <ele>152.725</ele>
        <time>2018-12-03T13:03:36Z</time>
      </trkpt>
      <trkpt lat="48.75021" lon="2.52791">
        <ele>152.729</ele>
        <time>2018-12-03T13:03:42Z</time>
      </trkpt>
      <trkpt lat="48.75024" lon="2.52785">
        <ele>152.733</ele>
        <time>2018-12-03T13:03:47Z</time>
      </trkpt>
      <trkpt lat="48.75027" lon="2.5278">
        <ele>152.736</ele>
        <time>2018-12-03T13:03:50Z</time>
      </trkpt>
      <trkpt lat="48.7503" lon="2.52774">
        <ele>152.741</ele>
        <time>2018-12-03T13:03:53Z</time>
      </trkpt>
      <trkpt lat="48.75034" lon="2.52769">
        <ele>152.751</ele>
        <time>2018-12-03T13:03:58Z</time>
      </trkpt>
      <trkpt lat="48.75036" lon="2.52767">
        <ele>152.758</ele>
        <time>2018-12-03T13:04:01Z</time>
      </trkpt>
      <trkpt lat="48.75039" lon="2.5276">
        <ele>152.767</ele>
        <time>2018-12-03T13:04:05Z</time>
      </trkpt>
      <trkpt lat="48.75043" lon="2.52754">
        <ele>152.778</ele>
        <time>2018-12-03T13:04:09Z</time>
      </trkpt>
      <trkpt lat="48.75047" lon="2.52749">
        <ele>152.791</ele>
        <time>2018-12-03T13:04:13Z</time>
      </trkpt>
      <trkpt lat="48.75049" lon="2.52743">
        <ele>152.8</ele>
        <time>2018-12-03T13:04:16Z</time>
      </trkpt>
      <trkpt lat="48.75053" lon="2.52738">
        <ele>152.812</ele>
        <time>2018-12-03T13:04:20Z</time>
      </trkpt>
      <trkpt lat="48.75055" lon="2.52734">
        <ele>152.818</ele>
        <time>2018-12-03T13:04:22Z</time>
      </trkpt>
      <trkpt lat="48.75057" lon="2.52728">
        <ele>152.837</ele>
        <time>2018-12-03T13:04:28Z</time>
      </trkpt>
      <trkpt lat="48.75061" lon="2.52722">
        <ele>152.85</ele>
        <time>2018-12-03T13:04:31Z</time>
      </trkpt>
      <trkpt lat="48.75065" lon="2.52714">
        <ele>152.869</ele>
        <time>2018-12-03T13:04:35Z</time>
      </trkpt>
      <trkpt lat="48.75067" lon="2.52709">
        <ele>152.886</ele>
        <time>2018-12-03T13:04:38Z</time>
      </trkpt>
      <trkpt lat="48.7507" lon="2.52702">
        <ele>152.91</ele>
        <time>2018-12-03T13:04:42Z</time>
      </trkpt>
      <trkpt lat="48.75069" lon="2.52695">
        <ele>152.937</ele>
        <time>2018-12-03T13:04:48Z</time>
      </trkpt>
      <trkpt lat="48.75066" lon="2.5269">
        <ele>152.959</ele>
        <time>2018-12-03T13:04:55Z</time>
      </trkpt>
      <trkpt lat="48.75063" lon="2.52683">
        <ele>152.965</ele>
        <time>2018-12-03T13:04:59Z</time>
      </trkpt>
      <trkpt lat="48.75059" lon="2.52677">
        <ele>152.967</ele>
        <time>2018-12-03T13:05:04Z</time>
      </trkpt>
      <trkpt lat="48.75058" lon="2.5267">
        <ele>152.96</ele>
        <time>2018-12-03T13:05:07Z</time>
      </trkpt>
      <trkpt lat="48.75053" lon="2.52666">
        <ele>152.948</ele>
        <time>2018-12-03T13:05:10Z</time>
      </trkpt>
      <trkpt lat="48.7505" lon="2.52663">
        <ele>152.939</ele>
        <time>2018-12-03T13:05:12Z</time>
      </trkpt>
      <trkpt lat="48.75048" lon="2.52661">
        <ele>152.923</ele>
        <time>2018-12-03T13:05:15Z</time>
      </trkpt>
      <trkpt lat="48.75045" lon="2.52658">
        <ele>152.906</ele>
        <time>2018-12-03T13:05:18Z</time>
      </trkpt>
      <trkpt lat="48.75041" lon="2.52652">
        <ele>152.879</ele>
        <time>2018-12-03T13:05:22Z</time>
      </trkpt>
      <trkpt lat="48.75037" lon="2.52649">
        <ele>152.848</ele>
        <time>2018-12-03T13:05:26Z</time>
      </trkpt>
      <trkpt lat="48.75032" lon="2.52644">
        <ele>152.815</ele>
        <time>2018-12-03T13:05:30Z</time>
      </trkpt>
      <trkpt lat="48.75029" lon="2.5264">
        <ele>152.781</ele>
        <time>2018-12-03T13:05:34Z</time>
      </trkpt>
      <trkpt lat="48.75026" lon="2.52635">
        <ele>152.746</ele>
        <time>2018-12-03T13:05:38Z</time>
      </trkpt>
      <trkpt lat="48.75022" lon="2.52631">
        <ele>152.712</ele>
        <time>2018-12-03T13:05:42Z</time>
      </trkpt>
      <trkpt lat="48.75018" lon="2.52626">
        <ele>152.677</ele>
        <time>2018-12-03T13:05:46Z</time>
      </trkpt>
      <trkpt lat="48.75016" lon="2.52623">
        <ele>152.658</ele>
        <time>2018-12-03T13:05:48Z</time>
      </trkpt>
      <trkpt lat="48.75013" lon="2.52619">
        <ele>152.621</ele>
        <time>2018-12-03T13:05:52Z</time>
      </trkpt>
      <trkpt lat="48.75011" lon="2.52617">
        <ele>152.602</ele>
        <time>2018-12-03T13:05:54Z</time>
      </trkpt>
      <trkpt lat="48.75006" lon="2.52611">
        <ele>152.573</ele>
        <time>2018-12-03T13:05:57Z</time>
      </trkpt>
      <trkpt lat="48.75004" lon="2.52608">
        <ele>152.554</ele>
        <time>2018-12-03T13:05:59Z</time>
      </trkpt>
      <trkpt lat="48.74999" lon="2.52603">
        <ele>152.525</ele>
        <time>2018-12-03T13:06:02Z</time>
      </trkpt>
      <trkpt lat="48.74997" lon="2.52601">
        <ele>152.505</ele>
        <time>2018-12-03T13:06:04Z</time>
      </trkpt>
      <trkpt lat="48.74994" lon="2.52595">
        <ele>152.474</ele>
        <time>2018-12-03T13:06:07Z</time>
      </trkpt>
      <trkpt lat="48.74992" lon="2.52589">
        <ele>152.438</ele>
        <time>2018-12-03T13:06:10Z</time>
      </trkpt>
      <trkpt lat="48.74989" lon="2.52583">
        <ele>152.394</ele>
        <time>2018-12-03T13:06:13Z</time>
      </trkpt>
      <trkpt lat="48.74985" lon="2.52581">
        <ele>152.333</ele>
        <time>2018-12-03T13:06:17Z</time>
      </trkpt>
      <trkpt lat="48.74981" lon="2.52577">
        <ele>152.271</ele>
        <time>2018-12-03T13:06:21Z</time>
      </trkpt>
      <trkpt lat="48.74978" lon="2.52575">
        <ele>152.224</ele>
        <time>2018-12-03T13:06:24Z</time>
      </trkpt>
      <trkpt lat="48.74976" lon="2.52572">
        <ele>152.194</ele>
        <time>2018-12-03T13:06:26Z</time>
      </trkpt>
      <trkpt lat="48.74974" lon="2.52565">
        <ele>152.122</ele>
        <time>2018-12-03T13:06:31Z</time>
      </trkpt>
      <trkpt lat="48.7497" lon="2.5256">
        <ele>152.057</ele>
        <time>2018-12-03T13:06:36Z</time>
      </trkpt>
      <trkpt lat="48.74967" lon="2.52556">
        <ele>152.021</ele>
        <time>2018-12-03T13:06:39Z</time>
      </trkpt>
      <trkpt lat="48.74964" lon="2.52548">
        <ele>151.963</ele>
        <time>2018-12-03T13:06:44Z</time>
      </trkpt>
      <trkpt lat="48.74962" lon="2.52542">
        <ele>151.928</ele>
        <time>2018-12-03T13:06:47Z</time>
      </trkpt>
      <trkpt lat="48.74958" lon="2.52537">
        <ele>151.881</ele>
        <time>2018-12-03T13:06:51Z</time>
      </trkpt>
      <trkpt lat="48.74955" lon="2.52533">
        <ele>151.858</ele>
        <time>2018-12-03T13:06:53Z</time>
      </trkpt>
      <trkpt lat="48.74952" lon="2.52527">
        <ele>151.81</ele>
        <time>2018-12-03T13:06:57Z</time>
      </trkpt>
      <trkpt lat="48.74947" lon="2.52522">
        <ele>151.751</ele>
        <time>2018-12-03T13:07:02Z</time>
      </trkpt>
      <trkpt lat="48.74944" lon="2.52518">
        <ele>151.729</ele>
        <time>2018-12-03T13:07:04Z</time>
      </trkpt>
      <trkpt lat="48.74938" lon="2.52514">
        <ele>151.695</ele>
        <time>2018-12-03T13:07:07Z</time>
      </trkpt>
      <trkpt lat="48.74933" lon="2.52511">
        <ele>151.673</ele>
        <time>2018-12-03T13:07:09Z</time>
      </trkpt>
      <trkpt lat="48.74928" lon="2.52506">
        <ele>151.642</ele>
        <time>2018-12-03T13:07:12Z</time>
      </trkpt>
      <trkpt lat="48.74925" lon="2.52503">
        <ele>151.613</ele>
        <time>2018-12-03T13:07:15Z</time>
      </trkpt>
      <trkpt lat="48.74922" lon="2.525">
        <ele>151.585</ele>
        <time>2018-12-03T13:07:18Z</time>
      </trkpt>
      <trkpt lat="48.74919" lon="2.52494">
        <ele>151.531</ele>
        <time>2018-12-03T13:07:24Z</time>
      </trkpt>
      <trkpt lat="48.74915" lon="2.52489">
        <ele>151.49</ele>
        <time>2018-12-03T13:07:29Z</time>
      </trkpt>
      <trkpt lat="48.74913" lon="2.52482">
        <ele>151.466</ele>
        <time>2018-12-03T13:07:32Z</time>
      </trkpt>
      <trkpt lat="48.74909" lon="2.52477">
        <ele>151.435</ele>
        <time>2018-12-03T13:07:36Z</time>
      </trkpt>
      <trkpt lat="48.74907" lon="2.52474">
        <ele>151.42</ele>
        <time>2018-12-03T13:07:38Z</time>
      </trkpt>
      <trkpt lat="48.74905" lon="2.52471">
        <ele>151.405</ele>
        <time>2018-12-03T13:07:40Z</time>
      </trkpt>
      <trkpt lat="48.74903" lon="2.52467">
        <ele>151.39</ele>
        <time>2018-12-03T13:07:42Z</time>
      </trkpt>
      <trkpt lat="48.74898" lon="2.52463">
        <ele>151.355</ele>
        <time>2018-12-03T13:07:47Z</time>
      </trkpt>
      <trkpt lat="48.74895" lon="2.52461">
        <ele>151.335</ele>
        <time>2018-12-03T13:07:50Z</time>
      </trkpt>
      <trkpt lat="48.74892" lon="2.52455">
        <ele>151.31</ele>
        <time>2018-12-03T13:07:54Z</time>
      </trkpt>
      <trkpt lat="48.74889" lon="2.5245">
        <ele>151.298</ele>
        <time>2018-12-03T13:07:56Z</time>
      </trkpt>
      <trkpt lat="48.74885" lon="2.52444">
        <ele>151.281</ele>
        <time>2018-12-03T13:07:59Z</time>
      </trkpt>
      <trkpt lat="48.74882" lon="2.52439">
        <ele>151.257</ele>
        <time>2018-12-03T13:08:03Z</time>
      </trkpt>
      <trkpt lat="48.7488" lon="2.52435">
        <ele>151.234</ele>
        <time>2018-12-03T13:08:07Z</time>
      </trkpt>
      <trkpt lat="48.74876" lon="2.52432">
        <ele>151.213</ele>
        <time>2018-12-03T13:08:11Z</time>
      </trkpt>
      <trkpt lat="48.74873" lon="2.52429">
        <ele>151.203</ele>
        <time>2018-12-03T13:08:13Z</time>
      </trkpt>
      <trkpt lat="48.7487" lon="2.52425">
        <ele>151.19</ele>
        <time>2018-12-03T13:08:16Z</time>
      </trkpt>
      <trkpt lat="48.74865" lon="2.52419">
        <ele>151.173</ele>
        <time>2018-12-03T13:08:20Z</time>
      </trkpt>
      <trkpt lat="48.74863" lon="2.52415">
        <ele>151.164</ele>
        <time>2018-12-03T13:08:22Z</time>
      </trkpt>
      <trkpt lat="48.74859" lon="2.52407">
        <ele>151.152</ele>
        <time>2018-12-03T13:08:25Z</time>
      </trkpt>
      <trkpt lat="48.74857" lon="2.52401">
        <ele>151.139</ele>
        <time>2018-12-03T13:08:28Z</time>
      </trkpt>
      <trkpt lat="48.74853" lon="2.52395">
        <ele>151.123</ele>
        <time>2018-12-03T13:08:32Z</time>
      </trkpt>
      <trkpt lat="48.74851" lon="2.52392">
        <ele>151.115</ele>
        <time>2018-12-03T13:08:34Z</time>
      </trkpt>
      <trkpt lat="48.74847" lon="2.52386">
        <ele>151.098</ele>
        <time>2018-12-03T13:08:38Z</time>
      </trkpt>
      <trkpt lat="48.74845" lon="2.52384">
        <ele>151.094</ele>
        <time>2018-12-03T13:08:39Z</time>
      </trkpt>
      <trkpt lat="48.74843" lon="2.52381">
        <ele>151.085</ele>
        <time>2018-12-03T13:08:41Z</time>
      </trkpt>
      <trkpt lat="48.74837" lon="2.52377">
        <ele>151.073</ele>
        <time>2018-12-03T13:08:44Z</time>
      </trkpt>
      <trkpt lat="48.74833" lon="2.52373">
        <ele>151.053</ele>
        <time>2018-12-03T13:08:49Z</time>
      </trkpt>
      <trkpt lat="48.7483" lon="2.52368">
        <ele>151.038</ele>
        <time>2018-12-03T13:08:53Z</time>
      </trkpt>
      <trkpt lat="48.74829" lon="2.52365">
        <ele>151.031</ele>
        <time>2018-12-03T13:08:55Z</time>
      </trkpt>
      <trkpt lat="48.74827" lon="2.52363">
        <ele>151.028</ele>
        <time>2018-12-03T13:08:56Z</time>
      </trkpt>
      <trkpt lat="48.74824" lon="2.52357">
        <ele>151.02</ele>
        <time>2018-12-03T13:08:58Z</time>
      </trkpt>
      <trkpt lat="48.74822" lon="2.5235">
        <ele>151.009</ele>
        <time>2018-12-03T13:09:01Z</time>
      </trkpt>
      <trkpt lat="48.7482" lon="2.52345">
        <ele>151</ele>
        <time>2018-12-03T13:09:03Z</time>
      </trkpt>
      <trkpt lat="48.74818" lon="2.5234">
        <ele>150.992</ele>
        <time>2018-12-03T13:09:05Z</time>
      </trkpt>
      <trkpt lat="48.74815" lon="2.52332">
        <ele>150.968</ele>
        <time>2018-12-03T13:09:11Z</time>
      </trkpt>
      <trkpt lat="48.74814" lon="2.52325">
        <ele>150.955</ele>
        <time>2018-12-03T13:09:14Z</time>
      </trkpt>
      <trkpt lat="48.74813" lon="2.5232">
        <ele>150.947</ele>
        <time>2018-12-03T13:09:16Z</time>
      </trkpt>
      <trkpt lat="48.74811" lon="2.52314">
        <ele>150.933</ele>
        <time>2018-12-03T13:09:20Z</time>
      </trkpt>
      <trkpt lat="48.7481" lon="2.52306">
        <ele>150.921</ele>
        <time>2018-12-03T13:09:23Z</time>
      </trkpt>
      <trkpt lat="48.74808" lon="2.52299">
        <ele>150.903</ele>
        <time>2018-12-03T13:09:27Z</time>
      </trkpt>
      <trkpt lat="48.74806" lon="2.52295">
        <ele>150.893</ele>
        <time>2018-12-03T13:09:29Z</time>
      </trkpt>
      <trkpt lat="48.74805" lon="2.52288">
        <ele>150.871</ele>
        <time>2018-12-03T13:09:33Z</time>
      </trkpt>
      <trkpt lat="48.74804" lon="2.52284">
        <ele>150.858</ele>
        <time>2018-12-03T13:09:35Z</time>
      </trkpt>
      <trkpt lat="48.74803" lon="2.52274">
        <ele>150.828</ele>
        <time>2018-12-03T13:09:39Z</time>
      </trkpt>
      <trkpt lat="48.74803" lon="2.5227">
        <ele>150.81</ele>
        <time>2018-12-03T13:09:41Z</time>
      </trkpt>
      <trkpt lat="48.74803" lon="2.52267">
        <ele>150.791</ele>
        <time>2018-12-03T13:09:43Z</time>
      </trkpt>
      <trkpt lat="48.74802" lon="2.5226">
        <ele>150.753</ele>
        <time>2018-12-03T13:09:47Z</time>
      </trkpt>
      <trkpt lat="48.74801" lon="2.52253">
        <ele>150.722</ele>
        <time>2018-12-03T13:09:50Z</time>
      </trkpt>
      <trkpt lat="48.74801" lon="2.52245">
        <ele>150.685</ele>
        <time>2018-12-03T13:09:53Z</time>
      </trkpt>
      <trkpt lat="48.748" lon="2.5224">
        <ele>150.657</ele>
        <time>2018-12-03T13:09:55Z</time>
      </trkpt>
      <trkpt lat="48.748" lon="2.52235">
        <ele>150.61</ele>
        <time>2018-12-03T13:09:58Z</time>
      </trkpt>
      <trkpt lat="48.748" lon="2.52228">
        <ele>150.546</ele>
        <time>2018-12-03T13:10:02Z</time>
      </trkpt>
      <trkpt lat="48.748" lon="2.52222">
        <ele>150.478</ele>
        <time>2018-12-03T13:10:06Z</time>
      </trkpt>
      <trkpt lat="48.748" lon="2.52216">
        <ele>150.443</ele>
        <time>2018-12-03T13:10:08Z</time>
      </trkpt>
      <trkpt lat="48.74799" lon="2.52211">
        <ele>150.408</ele>
        <time>2018-12-03T13:10:10Z</time>
      </trkpt>
      <trkpt lat="48.74799" lon="2.52206">
        <ele>150.372</ele>
        <time>2018-12-03T13:10:12Z</time>
      </trkpt>
      <trkpt lat="48.74798" lon="2.52199">
        <ele>150.302</ele>
        <time>2018-12-03T13:10:16Z</time>
      </trkpt>
      <trkpt lat="48.74797" lon="2.5219">
        <ele>150.232</ele>
        <time>2018-12-03T13:10:20Z</time>
      </trkpt>
      <trkpt lat="48.74797" lon="2.52183">
        <ele>150.178</ele>
        <time>2018-12-03T13:10:23Z</time>
      </trkpt>
      <trkpt lat="48.74796" lon="2.52176">
        <ele>150.106</ele>
        <time>2018-12-03T13:10:27Z</time>
      </trkpt>
      <trkpt lat="48.74796" lon="2.5217">
        <ele>150.037</ele>
        <time>2018-12-03T13:10:31Z</time>
      </trkpt>
      <trkpt lat="48.74793" lon="2.52163">
        <ele>149.97</ele>
        <time>2018-12-03T13:10:35Z</time>
      </trkpt>
      <trkpt lat="48.74792" lon="2.5216">
        <ele>149.92</ele>
        <time>2018-12-03T13:10:38Z</time>
      </trkpt>
      <trkpt lat="48.74791" lon="2.52154">
        <ele>149.856</ele>
        <time>2018-12-03T13:10:42Z</time>
      </trkpt>
      <trkpt lat="48.74788" lon="2.52148">
        <ele>149.796</ele>
        <time>2018-12-03T13:10:46Z</time>
      </trkpt>
      <trkpt lat="48.74787" lon="2.52145">
        <ele>149.767</ele>
        <time>2018-12-03T13:10:48Z</time>
      </trkpt>
      <trkpt lat="48.74786" lon="2.52141">
        <ele>149.74</ele>
        <time>2018-12-03T13:10:50Z</time>
      </trkpt>
      <trkpt lat="48.74784" lon="2.52133">
        <ele>149.686</ele>
        <time>2018-12-03T13:10:54Z</time>
      </trkpt>
      <trkpt lat="48.74783" lon="2.52124">
        <ele>149.635</ele>
        <time>2018-12-03T13:10:58Z</time>
      </trkpt>
      <trkpt lat="48.7478" lon="2.52105">
        <ele>149.609</ele>
        <time>2018-12-03T13:11:00Z</time>
      </trkpt>
      <trkpt lat="48.7478" lon="2.52105">
        <ele>149.609</ele>
        <time>2018-12-03T13:11:05Z</time>
      </trkpt>
      <trkpt lat="48.7478" lon="2.52105">
        <ele>94.8</ele>
        <time>2018-12-03T13:11:05Z</time>
      </trkpt>
      <trkpt lat="48.7478" lon="2.52105">
        <ele>94.8</ele>
        <time>2018-12-03T13:17:15Z</time>
      </trkpt>
      <trkpt lat="48.7478" lon="2.52062">
        <ele>148.308</ele>
        <time>2018-12-03T13:17:15Z</time>
      </trkpt>
      <trkpt lat="48.7478" lon="2.52058">
        <ele>148.284</ele>
        <time>2018-12-03T13:17:17Z</time>
      </trkpt>
      <trkpt lat="48.74778" lon="2.52049">
        <ele>148.227</ele>
        <time>2018-12-03T13:17:22Z</time>
      </trkpt>
      <trkpt lat="48.74777" lon="2.52042">
        <ele>148.185</ele>
        <time>2018-12-03T13:17:26Z</time>
      </trkpt>
      <trkpt lat="48.74776" lon="2.52036">
        <ele>148.147</ele>
        <time>2018-12-03T13:17:30Z</time>
      </trkpt>
      <trkpt lat="48.74775" lon="2.52031">
        <ele>148.121</ele>
        <time>2018-12-03T13:17:33Z</time>
      </trkpt>
      <trkpt lat="48.74773" lon="2.52022">
        <ele>148.089</ele>
        <time>2018-12-03T13:17:37Z</time>
      </trkpt>
      <trkpt lat="48.74772" lon="2.52018">
        <ele>148.066</ele>
        <time>2018-12-03T13:17:40Z</time>
      </trkpt>
      <trkpt lat="48.7477" lon="2.5201">
        <ele>148.038</ele>
        <time>2018-12-03T13:17:44Z</time>
      </trkpt>
      <trkpt lat="48.74772" lon="2.52002">
        <ele>148.01</ele>
        <time>2018-12-03T13:17:48Z</time>
      </trkpt>
      <trkpt lat="48.74771" lon="2.51995">
        <ele>147.977</ele>
        <time>2018-12-03T13:17:54Z</time>
      </trkpt>
      <trkpt lat="48.74768" lon="2.51984">
        <ele>147.96</ele>
        <time>2018-12-03T13:17:57Z</time>
      </trkpt>
      <trkpt lat="48.74766" lon="2.51975">
        <ele>147.936</ele>
        <time>2018-12-03T13:18:02Z</time>
      </trkpt>
      <trkpt lat="48.74765" lon="2.51971">
        <ele>147.929</ele>
        <time>2018-12-03T13:18:04Z</time>
      </trkpt>
      <trkpt lat="48.74763" lon="2.51962">
        <ele>147.913</ele>
        <time>2018-12-03T13:18:09Z</time>
      </trkpt>
      <trkpt lat="48.74763" lon="2.51959">
        <ele>147.908</ele>
        <time>2018-12-03T13:18:11Z</time>
      </trkpt>
      <trkpt lat="48.74761" lon="2.51951">
        <ele>147.896</ele>
        <time>2018-12-03T13:18:16Z</time>
      </trkpt>
      <trkpt lat="48.7476" lon="2.51946">
        <ele>147.887</ele>
        <time>2018-12-03T13:18:19Z</time>
      </trkpt>
      <trkpt lat="48.74759" lon="2.51943">
        <ele>147.882</ele>
        <time>2018-12-03T13:18:21Z</time>
      </trkpt>
      <trkpt lat="48.74759" lon="2.51934">
        <ele>147.874</ele>
        <time>2018-12-03T13:18:25Z</time>
      </trkpt>
      <trkpt lat="48.74759" lon="2.5193">
        <ele>147.869</ele>
        <time>2018-12-03T13:18:27Z</time>
      </trkpt>
      <trkpt lat="48.74759" lon="2.5192">
        <ele>147.855</ele>
        <time>2018-12-03T13:18:31Z</time>
      </trkpt>
      <trkpt lat="48.74761" lon="2.51912">
        <ele>147.837</ele>
        <time>2018-12-03T13:18:36Z</time>
      </trkpt>
      <trkpt lat="48.74761" lon="2.51904">
        <ele>147.821</ele>
        <time>2018-12-03T13:18:41Z</time>
      </trkpt>
      <trkpt lat="48.74761" lon="2.51895">
        <ele>147.814</ele>
        <time>2018-12-03T13:18:44Z</time>
      </trkpt>
      <trkpt lat="48.74759" lon="2.51887">
        <ele>147.804</ele>
        <time>2018-12-03T13:18:48Z</time>
      </trkpt>
      <trkpt lat="48.7476" lon="2.51879">
        <ele>147.796</ele>
        <time>2018-12-03T13:18:51Z</time>
      </trkpt>
      <trkpt lat="48.74758" lon="2.51872">
        <ele>147.783</ele>
        <time>2018-12-03T13:18:55Z</time>
      </trkpt>
      <trkpt lat="48.74758" lon="2.51863">
        <ele>147.773</ele>
        <time>2018-12-03T13:18:58Z</time>
      </trkpt>
      <trkpt lat="48.74755" lon="2.51857">
        <ele>147.759</ele>
        <time>2018-12-03T13:19:02Z</time>
      </trkpt>
      <trkpt lat="48.74753" lon="2.51849">
        <ele>147.751</ele>
        <time>2018-12-03T13:19:04Z</time>
      </trkpt>
      <trkpt lat="48.74752" lon="2.51844">
        <ele>147.732</ele>
        <time>2018-12-03T13:19:08Z</time>
      </trkpt>
      <trkpt lat="48.74752" lon="2.51844">
        <ele>147.732</ele>
        <time>2018-12-03T13:19:15Z</time>
      </trkpt>
      <trkpt lat="48.74752" lon="2.51844">
        <ele>93</ele>
        <time>2018-12-03T13:19:15Z</time>
      </trkpt>
      <trkpt lat="48.74752" lon="2.51844">
        <ele>93</ele>
        <time>2018-12-03T13:19:27Z</time>
      </trkpt>
      <trkpt lat="48.74746" lon="2.51817">
        <ele>147.652</ele>
        <time>2018-12-03T13:19:27Z</time>
      </trkpt>
      <trkpt lat="48.74744" lon="2.51811">
        <ele>147.635</ele>
        <time>2018-12-03T13:19:31Z</time>
      </trkpt>
      <trkpt lat="48.74744" lon="2.51803">
        <ele>147.619</ele>
        <time>2018-12-03T13:19:35Z</time>
      </trkpt>
      <trkpt lat="48.74742" lon="2.51795">
        <ele>147.603</ele>
        <time>2018-12-03T13:19:39Z</time>
      </trkpt>
      <trkpt lat="48.74741" lon="2.51791">
        <ele>147.592</ele>
        <time>2018-12-03T13:19:42Z</time>
      </trkpt>
      <trkpt lat="48.7474" lon="2.51783">
        <ele>147.581</ele>
        <time>2018-12-03T13:19:45Z</time>
      </trkpt>
      <trkpt lat="48.74741" lon="2.51774">
        <ele>147.569</ele>
        <time>2018-12-03T13:19:48Z</time>
      </trkpt>
      <trkpt lat="48.74741" lon="2.51769">
        <ele>147.562</ele>
        <time>2018-12-03T13:19:50Z</time>
      </trkpt>
      <trkpt lat="48.7474" lon="2.51762">
        <ele>147.55</ele>
        <time>2018-12-03T13:19:53Z</time>
      </trkpt>
      <trkpt lat="48.7474" lon="2.51757">
        <ele>147.535</ele>
        <time>2018-12-03T13:19:57Z</time>
      </trkpt>
      <trkpt lat="48.74739" lon="2.5175">
        <ele>147.522</ele>
        <time>2018-12-03T13:20:00Z</time>
      </trkpt>
      <trkpt lat="48.74737" lon="2.51743">
        <ele>147.508</ele>
        <time>2018-12-03T13:20:03Z</time>
      </trkpt>
      <trkpt lat="48.74735" lon="2.51736">
        <ele>147.492</ele>
        <time>2018-12-03T13:20:06Z</time>
      </trkpt>
      <trkpt lat="48.74734" lon="2.51728">
        <ele>147.475</ele>
        <time>2018-12-03T13:20:09Z</time>
      </trkpt>
      <trkpt lat="48.74734" lon="2.51721">
        <ele>147.451</ele>
        <time>2018-12-03T13:20:13Z</time>
      </trkpt>
      <trkpt lat="48.74733" lon="2.51714">
        <ele>147.428</ele>
        <time>2018-12-03T13:20:17Z</time>
      </trkpt>
      <trkpt lat="48.74732" lon="2.51707">
        <ele>147.398</ele>
        <time>2018-12-03T13:20:22Z</time>
      </trkpt>
      <trkpt lat="48.74731" lon="2.51697">
        <ele>147.355</ele>
        <time>2018-12-03T13:20:28Z</time>
      </trkpt>
      <trkpt lat="48.74731" lon="2.5169">
        <ele>147.33</ele>
        <time>2018-12-03T13:20:31Z</time>
      </trkpt>
      <trkpt lat="48.7473" lon="2.51681">
        <ele>147.287</ele>
        <time>2018-12-03T13:20:36Z</time>
      </trkpt>
      <trkpt lat="48.74729" lon="2.51677">
        <ele>147.266</ele>
        <time>2018-12-03T13:20:38Z</time>
      </trkpt>
      <trkpt lat="48.74729" lon="2.51668">
        <ele>147.228</ele>
        <time>2018-12-03T13:20:41Z</time>
      </trkpt>
      <trkpt lat="48.74728" lon="2.51661">
        <ele>147.157</ele>
        <time>2018-12-03T13:20:46Z</time>
      </trkpt>
      <trkpt lat="48.74725" lon="2.51654">
        <ele>147.098</ele>
        <time>2018-12-03T13:20:50Z</time>
      </trkpt>
      <trkpt lat="48.74724" lon="2.51644">
        <ele>147.037</ele>
        <time>2018-12-03T13:20:54Z</time>
      </trkpt>
      <trkpt lat="48.74722" lon="2.51637">
        <ele>146.973</ele>
        <time>2018-12-03T13:20:58Z</time>
      </trkpt>
      <trkpt lat="48.74721" lon="2.5163">
        <ele>146.924</ele>
        <time>2018-12-03T13:21:01Z</time>
      </trkpt>
      <trkpt lat="48.74722" lon="2.51623">
        <ele>146.891</ele>
        <time>2018-12-03T13:21:03Z</time>
      </trkpt>
      <trkpt lat="48.74723" lon="2.51616">
        <ele>146.858</ele>
        <time>2018-12-03T13:21:05Z</time>
      </trkpt>
      <trkpt lat="48.74723" lon="2.51609">
        <ele>146.81</ele>
        <time>2018-12-03T13:21:08Z</time>
      </trkpt>
      <trkpt lat="48.74723" lon="2.51605">
        <ele>146.78</ele>
        <time>2018-12-03T13:21:10Z</time>
      </trkpt>
      <trkpt lat="48.74722" lon="2.51598">
        <ele>146.722</ele>
        <time>2018-12-03T13:21:14Z</time>
      </trkpt>
      <trkpt lat="48.74722" lon="2.51593">
        <ele>146.694</ele>
        <time>2018-12-03T13:21:16Z</time>
      </trkpt>
      <trkpt lat="48.74722" lon="2.51588">
        <ele>146.655</ele>
        <time>2018-12-03T13:21:19Z</time>
      </trkpt>
      <trkpt lat="48.74721" lon="2.51583">
        <ele>146.618</ele>
        <time>2018-12-03T13:21:22Z</time>
      </trkpt>
      <trkpt lat="48.74719" lon="2.51576">
        <ele>146.57</ele>
        <time>2018-12-03T13:21:26Z</time>
      </trkpt>
      <trkpt lat="48.74719" lon="2.51568">
        <ele>146.514</ele>
        <time>2018-12-03T13:21:31Z</time>
      </trkpt>
      <trkpt lat="48.74719" lon="2.51562">
        <ele>146.492</ele>
        <time>2018-12-03T13:21:33Z</time>
      </trkpt>
      <trkpt lat="48.74719" lon="2.51559">
        <ele>146.48</ele>
        <time>2018-12-03T13:21:34Z</time>
      </trkpt>
      <trkpt lat="48.74719" lon="2.51554">
        <ele>146.469</ele>
        <time>2018-12-03T13:21:35Z</time>
      </trkpt>
      <trkpt lat="48.7472" lon="2.51545">
        <ele>146.436</ele>
        <time>2018-12-03T13:21:38Z</time>
      </trkpt>
      <trkpt lat="48.74721" lon="2.51537">
        <ele>146.413</ele>
        <time>2018-12-03T13:21:41Z</time>
      </trkpt>
      <trkpt lat="48.74721" lon="2.51537">
        <ele>91</ele>
        <time>2018-12-03T13:21:49Z</time>
      </trkpt>
      <trkpt lat="48.74721" lon="2.51537">
        <ele>91</ele>
        <time>2018-12-03T13:22:53Z</time>
      </trkpt>
      <trkpt lat="48.74741" lon="2.51503">
        <ele>145.97</ele>
        <time>2018-12-03T13:22:53Z</time>
      </trkpt>
      <trkpt lat="48.74745" lon="2.51497">
        <ele>145.933</ele>
        <time>2018-12-03T13:22:58Z</time>
      </trkpt>
      <trkpt lat="48.74747" lon="2.51492">
        <ele>145.905</ele>
        <time>2018-12-03T13:23:02Z</time>
      </trkpt>
      <trkpt lat="48.74751" lon="2.51488">
        <ele>145.886</ele>
        <time>2018-12-03T13:23:05Z</time>
      </trkpt>
      <trkpt lat="48.74753" lon="2.51485">
        <ele>145.873</ele>
        <time>2018-12-03T13:23:07Z</time>
      </trkpt>
      <trkpt lat="48.74756" lon="2.5148">
        <ele>145.856</ele>
        <time>2018-12-03T13:23:10Z</time>
      </trkpt>
      <trkpt lat="48.7476" lon="2.51475">
        <ele>145.846</ele>
        <time>2018-12-03T13:23:12Z</time>
      </trkpt>
      <trkpt lat="48.74764" lon="2.5147">
        <ele>145.827</ele>
        <time>2018-12-03T13:23:16Z</time>
      </trkpt>
      <trkpt lat="48.74768" lon="2.51464">
        <ele>145.812</ele>
        <time>2018-12-03T13:23:20Z</time>
      </trkpt>
      <trkpt lat="48.7477" lon="2.5146">
        <ele>145.802</ele>
        <time>2018-12-03T13:23:24Z</time>
      </trkpt>
      <trkpt lat="48.74771" lon="2.51454">
        <ele>145.797</ele>
        <time>2018-12-03T13:23:27Z</time>
      </trkpt>
      <trkpt lat="48.74774" lon="2.51449">
        <ele>145.788</ele>
        <time>2018-12-03T13:23:31Z</time>
      </trkpt>
      <trkpt lat="48.74777" lon="2.51443">
        <ele>145.778</ele>
        <time>2018-12-03T13:23:35Z</time>
      </trkpt>
      <trkpt lat="48.74782" lon="2.51437">
        <ele>145.765</ele>
        <time>2018-12-03T13:23:40Z</time>
      </trkpt>
      <trkpt lat="48.74784" lon="2.51434">
        <ele>145.76</ele>
        <time>2018-12-03T13:23:42Z</time>
      </trkpt>
      <trkpt lat="48.74787" lon="2.51428">
        <ele>145.749</ele>
        <time>2018-12-03T13:23:46Z</time>
      </trkpt>
      <trkpt lat="48.74791" lon="2.51422">
        <ele>145.736</ele>
        <time>2018-12-03T13:23:51Z</time>
      </trkpt>
      <trkpt lat="48.74794" lon="2.51417">
        <ele>145.729</ele>
        <time>2018-12-03T13:23:54Z</time>
      </trkpt>
      <trkpt lat="48.74796" lon="2.51414">
        <ele>145.724</ele>
        <time>2018-12-03T13:23:56Z</time>
      </trkpt>
      <trkpt lat="48.74799" lon="2.51409">
        <ele>145.72</ele>
        <time>2018-12-03T13:23:58Z</time>
      </trkpt>
      <trkpt lat="48.74801" lon="2.51403">
        <ele>145.71</ele>
        <time>2018-12-03T13:24:03Z</time>
      </trkpt>
      <trkpt lat="48.74806" lon="2.51398">
        <ele>145.703</ele>
        <time>2018-12-03T13:24:07Z</time>
      </trkpt>
      <trkpt lat="48.74809" lon="2.51394">
        <ele>145.697</ele>
        <time>2018-12-03T13:24:10Z</time>
      </trkpt>
      <trkpt lat="48.74812" lon="2.51387">
        <ele>145.691</ele>
        <time>2018-12-03T13:24:14Z</time>
      </trkpt>
      <trkpt lat="48.74814" lon="2.51384">
        <ele>145.689</ele>
        <time>2018-12-03T13:24:15Z</time>
      </trkpt>
      <trkpt lat="48.74816" lon="2.5138">
        <ele>145.685</ele>
        <time>2018-12-03T13:24:18Z</time>
      </trkpt>
      <trkpt lat="48.74819" lon="2.51373">
        <ele>145.68</ele>
        <time>2018-12-03T13:24:22Z</time>
      </trkpt>
      <trkpt lat="48.74822" lon="2.51367">
        <ele>145.677</ele>
        <time>2018-12-03T13:24:25Z</time>
      </trkpt>
      <trkpt lat="48.74825" lon="2.51363">
        <ele>145.676</ele>
        <time>2018-12-03T13:24:27Z</time>
      </trkpt>
      <trkpt lat="48.74829" lon="2.51359">
        <ele>145.673</ele>
        <time>2018-12-03T13:24:31Z</time>
      </trkpt>
      <trkpt lat="48.74832" lon="2.51354">
        <ele>145.671</ele>
        <time>2018-12-03T13:24:34Z</time>
      </trkpt>
      <trkpt lat="48.74836" lon="2.51347">
        <ele>145.669</ele>
        <time>2018-12-03T13:24:37Z</time>
      </trkpt>
      <trkpt lat="48.74839" lon="2.51342">
        <ele>145.667</ele>
        <time>2018-12-03T13:24:40Z</time>
      </trkpt>
      <trkpt lat="48.74843" lon="2.51336">
        <ele>145.666</ele>
        <time>2018-12-03T13:24:43Z</time>
      </trkpt>
      <trkpt lat="48.74848" lon="2.51331">
        <ele>145.664</ele>
        <time>2018-12-03T13:24:47Z</time>
      </trkpt>
      <trkpt lat="48.7485" lon="2.51325">
        <ele>145.663</ele>
        <time>2018-12-03T13:24:50Z</time>
      </trkpt>
      <trkpt lat="48.74853" lon="2.51317">
        <ele>145.656</ele>
        <time>2018-12-03T13:24:56Z</time>
      </trkpt>
      <trkpt lat="48.74852" lon="2.51309">
        <ele>145.644</ele>
        <time>2018-12-03T13:25:01Z</time>
      </trkpt>
      <trkpt lat="48.7485" lon="2.51303">
        <ele>145.628</ele>
        <time>2018-12-03T13:25:06Z</time>
      </trkpt>
      <trkpt lat="48.74844" lon="2.513">
        <ele>145.609</ele>
        <time>2018-12-03T13:25:12Z</time>
      </trkpt>
      <trkpt lat="48.7484" lon="2.51298">
        <ele>145.599</ele>
        <time>2018-12-03T13:25:16Z</time>
      </trkpt>
      <trkpt lat="48.74837" lon="2.51297">
        <ele>145.594</ele>
        <time>2018-12-03T13:25:18Z</time>
      </trkpt>
      <trkpt lat="48.74832" lon="2.51294">
        <ele>145.588</ele>
        <time>2018-12-03T13:25:21Z</time>
      </trkpt>
      <trkpt lat="48.7483" lon="2.51293">
        <ele>145.586</ele>
        <time>2018-12-03T13:25:22Z</time>
      </trkpt>
      <trkpt lat="48.74826" lon="2.51291">
        <ele>145.582</ele>
        <time>2018-12-03T13:25:24Z</time>
      </trkpt>
      <trkpt lat="48.74821" lon="2.51289">
        <ele>145.577</ele>
        <time>2018-12-03T13:25:27Z</time>
      </trkpt>
      <trkpt lat="48.74817" lon="2.51287">
        <ele>145.571</ele>
        <time>2018-12-03T13:25:32Z</time>
      </trkpt>
      <trkpt lat="48.74812" lon="2.51288">
        <ele>145.57</ele>
        <time>2018-12-03T13:25:36Z</time>
      </trkpt>
      <trkpt lat="48.74807" lon="2.51285">
        <ele>145.571</ele>
        <time>2018-12-03T13:25:41Z</time>
      </trkpt>
      <trkpt lat="48.74804" lon="2.51284">
        <ele>145.574</ele>
        <time>2018-12-03T13:25:44Z</time>
      </trkpt>
      <trkpt lat="48.74799" lon="2.51284">
        <ele>145.587</ele>
        <time>2018-12-03T13:25:48Z</time>
      </trkpt>
      <trkpt lat="48.74796" lon="2.51284">
        <ele>145.609</ele>
        <time>2018-12-03T13:25:53Z</time>
      </trkpt>
      <trkpt lat="48.7479" lon="2.51282">
        <ele>145.622</ele>
        <time>2018-12-03T13:25:57Z</time>
      </trkpt>
      <trkpt lat="48.74785" lon="2.51282">
        <ele>145.631</ele>
        <time>2018-12-03T13:26:00Z</time>
      </trkpt>
      <trkpt lat="48.74781" lon="2.51279">
        <ele>145.636</ele>
        <time>2018-12-03T13:26:02Z</time>
      </trkpt>
      <trkpt lat="48.74776" lon="2.51274">
        <ele>145.643</ele>
        <time>2018-12-03T13:26:06Z</time>
      </trkpt>
      <trkpt lat="48.7477" lon="2.51272">
        <ele>145.653</ele>
        <time>2018-12-03T13:26:10Z</time>
      </trkpt>
      <trkpt lat="48.74765" lon="2.51271">
        <ele>145.675</ele>
        <time>2018-12-03T13:26:15Z</time>
      </trkpt>
      <trkpt lat="48.7476" lon="2.51268">
        <ele>145.688</ele>
        <time>2018-12-03T13:26:17Z</time>
      </trkpt>
      <trkpt lat="48.74754" lon="2.51267">
        <ele>145.718</ele>
        <time>2018-12-03T13:26:22Z</time>
      </trkpt>
      <trkpt lat="48.74749" lon="2.51264">
        <ele>145.738</ele>
        <time>2018-12-03T13:26:26Z</time>
      </trkpt>
      <trkpt lat="48.74744" lon="2.51265">
        <ele>145.765</ele>
        <time>2018-12-03T13:26:32Z</time>
      </trkpt>
      <trkpt lat="48.7474" lon="2.51262">
        <ele>145.777</ele>
        <time>2018-12-03T13:26:35Z</time>
      </trkpt>
      <trkpt lat="48.74734" lon="2.51259">
        <ele>145.787</ele>
        <time>2018-12-03T13:26:38Z</time>
      </trkpt>
      <trkpt lat="48.7473" lon="2.51256">
        <ele>145.795</ele>
        <time>2018-12-03T13:26:41Z</time>
      </trkpt>
      <trkpt lat="48.74728" lon="2.51255">
        <ele>145.799</ele>
        <time>2018-12-03T13:26:43Z</time>
      </trkpt>
      <trkpt lat="48.74722" lon="2.51254">
        <ele>145.807</ele>
        <time>2018-12-03T13:26:46Z</time>
      </trkpt>
      <trkpt lat="48.74719" lon="2.51254">
        <ele>145.813</ele>
        <time>2018-12-03T13:26:48Z</time>
      </trkpt>
      <trkpt lat="48.74716" lon="2.51253">
        <ele>145.82</ele>
        <time>2018-12-03T13:26:50Z</time>
      </trkpt>
      <trkpt lat="48.74711" lon="2.51255">
        <ele>145.84</ele>
        <time>2018-12-03T13:26:55Z</time>
      </trkpt>
      <trkpt lat="48.74706" lon="2.51256">
        <ele>145.85</ele>
        <time>2018-12-03T13:26:58Z</time>
      </trkpt>
      <trkpt lat="48.747" lon="2.51254">
        <ele>145.861</ele>
        <time>2018-12-03T13:27:03Z</time>
      </trkpt>
      <trkpt lat="48.74694" lon="2.51251">
        <ele>145.869</ele>
        <time>2018-12-03T13:27:07Z</time>
      </trkpt>
      <trkpt lat="48.74691" lon="2.5125">
        <ele>145.876</ele>
        <time>2018-12-03T13:27:09Z</time>
      </trkpt>
      <trkpt lat="48.74686" lon="2.5125">
        <ele>145.887</ele>
        <time>2018-12-03T13:27:13Z</time>
      </trkpt>
      <trkpt lat="48.74684" lon="2.5125">
        <ele>145.893</ele>
        <time>2018-12-03T13:27:15Z</time>
      </trkpt>
      <trkpt lat="48.74681" lon="2.51249">
        <ele>145.898</ele>
        <time>2018-12-03T13:27:17Z</time>
      </trkpt>
      <trkpt lat="48.74675" lon="2.51249">
        <ele>145.903</ele>
        <time>2018-12-03T13:27:22Z</time>
      </trkpt>
      <trkpt lat="48.74672" lon="2.51249">
        <ele>145.902</ele>
        <time>2018-12-03T13:27:24Z</time>
      </trkpt>
      <trkpt lat="48.74667" lon="2.51247">
        <ele>145.9</ele>
        <time>2018-12-03T13:27:27Z</time>
      </trkpt>
      <trkpt lat="48.74664" lon="2.51246">
        <ele>145.896</ele>
        <time>2018-12-03T13:27:30Z</time>
      </trkpt>
      <trkpt lat="48.7466" lon="2.51243">
        <ele>145.892</ele>
        <time>2018-12-03T13:27:33Z</time>
      </trkpt>
      <trkpt lat="48.74655" lon="2.51239">
        <ele>145.89</ele>
        <time>2018-12-03T13:27:39Z</time>
      </trkpt>
      <trkpt lat="48.74649" lon="2.51239">
        <ele>145.883</ele>
        <time>2018-12-03T13:27:43Z</time>
      </trkpt>
      <trkpt lat="48.74644" lon="2.51237">
        <ele>145.872</ele>
        <time>2018-12-03T13:27:45Z</time>
      </trkpt>
      <trkpt lat="48.7464" lon="2.51237">
        <ele>145.84</ele>
        <time>2018-12-03T13:27:48Z</time>
      </trkpt>
      <trkpt lat="48.74635" lon="2.51235">
        <ele>145.726</ele>
        <time>2018-12-03T13:27:54Z</time>
      </trkpt>
      <trkpt lat="48.74629" lon="2.51235">
        <ele>145.62</ele>
        <time>2018-12-03T13:27:58Z</time>
      </trkpt>
      <trkpt lat="48.74627" lon="2.51235">
        <ele>145.59</ele>
        <time>2018-12-03T13:27:59Z</time>
      </trkpt>
      <trkpt lat="48.74622" lon="2.51233">
        <ele>145.427</ele>
        <time>2018-12-03T13:28:04Z</time>
      </trkpt>
      <trkpt lat="48.74617" lon="2.51231">
        <ele>145.324</ele>
        <time>2018-12-03T13:28:07Z</time>
      </trkpt>
      <trkpt lat="48.74612" lon="2.51229">
        <ele>145.21</ele>
        <time>2018-12-03T13:28:10Z</time>
      </trkpt>
      <trkpt lat="48.74609" lon="2.51228">
        <ele>145.129</ele>
        <time>2018-12-03T13:28:12Z</time>
      </trkpt>
      <trkpt lat="48.74606" lon="2.51228">
        <ele>145.046</ele>
        <time>2018-12-03T13:28:14Z</time>
      </trkpt>
      <trkpt lat="48.74603" lon="2.51227">
        <ele>144.914</ele>
        <time>2018-12-03T13:28:17Z</time>
      </trkpt>
      <trkpt lat="48.74599" lon="2.51227">
        <ele>144.774</ele>
        <time>2018-12-03T13:28:20Z</time>
      </trkpt>
      <trkpt lat="48.74597" lon="2.51226">
        <ele>144.677</ele>
        <time>2018-12-03T13:28:22Z</time>
      </trkpt>
      <trkpt lat="48.74593" lon="2.51225">
        <ele>144.578</ele>
        <time>2018-12-03T13:28:24Z</time>
      </trkpt>
      <trkpt lat="48.74588" lon="2.51226">
        <ele>144.423</ele>
        <time>2018-12-03T13:28:27Z</time>
      </trkpt>
      <trkpt lat="48.74583" lon="2.51223">
        <ele>144.207</ele>
        <time>2018-12-03T13:28:31Z</time>
      </trkpt>
      <trkpt lat="48.74578" lon="2.51221">
        <ele>143.987</ele>
        <time>2018-12-03T13:28:35Z</time>
      </trkpt>
      <trkpt lat="48.74575" lon="2.51219">
        <ele>143.88</ele>
        <time>2018-12-03T13:28:37Z</time>
      </trkpt>
      <trkpt lat="48.74569" lon="2.51218">
        <ele>143.68</ele>
        <time>2018-12-03T13:28:41Z</time>
      </trkpt>
      <trkpt lat="48.74565" lon="2.51217">
        <ele>143.54</ele>
        <time>2018-12-03T13:28:44Z</time>
      </trkpt>
      <trkpt lat="48.74562" lon="2.51216">
        <ele>143.452</ele>
        <time>2018-12-03T13:28:46Z</time>
      </trkpt>
      <trkpt lat="48.74557" lon="2.51214">
        <ele>143.327</ele>
        <time>2018-12-03T13:28:49Z</time>
      </trkpt>
      <trkpt lat="48.74551" lon="2.51212">
        <ele>143.131</ele>
        <time>2018-12-03T13:28:54Z</time>
      </trkpt>
      <trkpt lat="48.74547" lon="2.51213">
        <ele>143.012</ele>
        <time>2018-12-03T13:28:57Z</time>
      </trkpt>
      <trkpt lat="48.74542" lon="2.51213">
        <ele>142.891</ele>
        <time>2018-12-03T13:29:00Z</time>
      </trkpt>
      <trkpt lat="48.74537" lon="2.51212">
        <ele>142.769</ele>
        <time>2018-12-03T13:29:03Z</time>
      </trkpt>
      <trkpt lat="48.74531" lon="2.5121">
        <ele>142.605</ele>
        <time>2018-12-03T13:29:07Z</time>
      </trkpt>
      <trkpt lat="48.74527" lon="2.51207">
        <ele>142.443</ele>
        <time>2018-12-03T13:29:11Z</time>
      </trkpt>
      <trkpt lat="48.74522" lon="2.51206">
        <ele>142.246</ele>
        <time>2018-12-03T13:29:16Z</time>
      </trkpt>
      <trkpt lat="48.74517" lon="2.51204">
        <ele>142.1</ele>
        <time>2018-12-03T13:29:20Z</time>
      </trkpt>
      <trkpt lat="48.74511" lon="2.51202">
        <ele>141.929</ele>
        <time>2018-12-03T13:29:25Z</time>
      </trkpt>
      <trkpt lat="48.74508" lon="2.51201">
        <ele>141.86</ele>
        <time>2018-12-03T13:29:27Z</time>
      </trkpt>
      <trkpt lat="48.74506" lon="2.512">
        <ele>141.79</ele>
        <time>2018-12-03T13:29:29Z</time>
      </trkpt>
      <trkpt lat="48.74503" lon="2.51198">
        <ele>141.718</ele>
        <time>2018-12-03T13:29:31Z</time>
      </trkpt>
      <trkpt lat="48.74503" lon="2.51198">
        <ele>141.718</ele>
        <time>2018-12-03T13:29:36Z</time>
      </trkpt>
      <trkpt lat="48.74503" lon="2.51198">
        <ele>91</ele>
        <time>2018-12-03T13:29:36Z</time>
      </trkpt>
      <trkpt lat="48.74503" lon="2.51198">
        <ele>91</ele>
        <time>2018-12-03T13:29:51Z</time>
      </trkpt>
      <trkpt lat="48.74493" lon="2.51183">
        <ele>141.172</ele>
        <time>2018-12-03T13:29:51Z</time>
      </trkpt>
      <trkpt lat="48.74492" lon="2.51178">
        <ele>141.082</ele>
        <time>2018-12-03T13:29:58Z</time>
      </trkpt>
      <trkpt lat="48.74496" lon="2.51172">
        <ele>140.682</ele>
        <time>2018-12-03T13:30:31Z</time>
      </trkpt>
      <trkpt lat="48.74496" lon="2.51164">
        <ele>140.564</ele>
        <time>2018-12-03T13:30:35Z</time>
      </trkpt>
      <trkpt lat="48.74494" lon="2.51157">
        <ele>140.476</ele>
        <time>2018-12-03T13:30:38Z</time>
      </trkpt>
      <trkpt lat="48.7449" lon="2.51152">
        <ele>140.336</ele>
        <time>2018-12-03T13:30:43Z</time>
      </trkpt>
      <trkpt lat="48.74484" lon="2.51149">
        <ele>140.229</ele>
        <time>2018-12-03T13:30:47Z</time>
      </trkpt>
      <trkpt lat="48.74479" lon="2.51148">
        <ele>140.102</ele>
        <time>2018-12-03T13:30:52Z</time>
      </trkpt>
      <trkpt lat="48.74476" lon="2.51147">
        <ele>140.031</ele>
        <time>2018-12-03T13:30:55Z</time>
      </trkpt>
      <trkpt lat="48.7447" lon="2.51148">
        <ele>139.965</ele>
        <time>2018-12-03T13:30:58Z</time>
      </trkpt>
      <trkpt lat="48.74466" lon="2.51153">
        <ele>139.847</ele>
        <time>2018-12-03T13:31:04Z</time>
      </trkpt>
      <trkpt lat="48.74461" lon="2.51158">
        <ele>139.78</ele>
        <time>2018-12-03T13:31:08Z</time>
      </trkpt>
      <trkpt lat="48.74457" lon="2.51162">
        <ele>139.738</ele>
        <time>2018-12-03T13:31:11Z</time>
      </trkpt>
      <trkpt lat="48.74453" lon="2.51156">
        <ele>139.662</ele>
        <time>2018-12-03T13:31:18Z</time>
      </trkpt>
      <trkpt lat="48.74451" lon="2.51153">
        <ele>139.639</ele>
        <time>2018-12-03T13:31:21Z</time>
      </trkpt>
      <trkpt lat="48.74448" lon="2.5115">
        <ele>139.614</ele>
        <time>2018-12-03T13:31:25Z</time>
      </trkpt>
      <trkpt lat="48.74446" lon="2.51148">
        <ele>139.603</ele>
        <time>2018-12-03T13:31:27Z</time>
      </trkpt>
      <trkpt lat="48.74442" lon="2.51142">
        <ele>139.572</ele>
        <time>2018-12-03T13:31:33Z</time>
      </trkpt>
      <trkpt lat="48.7444" lon="2.5114">
        <ele>139.563</ele>
        <time>2018-12-03T13:31:35Z</time>
      </trkpt>
      <trkpt lat="48.74436" lon="2.51137">
        <ele>139.551</ele>
        <time>2018-12-03T13:31:38Z</time>
      </trkpt>
      <trkpt lat="48.74431" lon="2.51136">
        <ele>139.543</ele>
        <time>2018-12-03T13:31:40Z</time>
      </trkpt>
      <trkpt lat="48.74427" lon="2.51132">
        <ele>139.533</ele>
        <time>2018-12-03T13:31:43Z</time>
      </trkpt>
      <trkpt lat="48.74421" lon="2.5113">
        <ele>139.523</ele>
        <time>2018-12-03T13:31:46Z</time>
      </trkpt>
      <trkpt lat="48.74419" lon="2.51129">
        <ele>139.518</ele>
        <time>2018-12-03T13:31:48Z</time>
      </trkpt>
      <trkpt lat="48.74414" lon="2.51126">
        <ele>139.508</ele>
        <time>2018-12-03T13:31:52Z</time>
      </trkpt>
      <trkpt lat="48.74411" lon="2.51124">
        <ele>139.503</ele>
        <time>2018-12-03T13:31:54Z</time>
      </trkpt>
      <trkpt lat="48.74406" lon="2.51126">
        <ele>139.493</ele>
        <time>2018-12-03T13:31:58Z</time>
      </trkpt>
      <trkpt lat="48.74401" lon="2.51123">
        <ele>139.478</ele>
        <time>2018-12-03T13:32:02Z</time>
      </trkpt>
      <trkpt lat="48.74396" lon="2.51122">
        <ele>139.459</ele>
        <time>2018-12-03T13:32:05Z</time>
      </trkpt>
      <trkpt lat="48.74392" lon="2.51121">
        <ele>139.425</ele>
        <time>2018-12-03T13:32:10Z</time>
      </trkpt>
      <trkpt lat="48.74389" lon="2.51121">
        <ele>139.385</ele>
        <time>2018-12-03T13:32:13Z</time>
      </trkpt>
      <trkpt lat="48.74384" lon="2.51121">
        <ele>139.304</ele>
        <time>2018-12-03T13:32:18Z</time>
      </trkpt>
      <trkpt lat="48.74379" lon="2.51118">
        <ele>139.231</ele>
        <time>2018-12-03T13:32:22Z</time>
      </trkpt>
      <trkpt lat="48.74374" lon="2.5112">
        <ele>139.153</ele>
        <time>2018-12-03T13:32:26Z</time>
      </trkpt>
      <trkpt lat="48.7437" lon="2.51118">
        <ele>139.06</ele>
        <time>2018-12-03T13:32:31Z</time>
      </trkpt>
      <trkpt lat="48.74364" lon="2.51115">
        <ele>138.962</ele>
        <time>2018-12-03T13:32:36Z</time>
      </trkpt>
      <trkpt lat="48.74359" lon="2.51116">
        <ele>138.866</ele>
        <time>2018-12-03T13:32:41Z</time>
      </trkpt>
      <trkpt lat="48.74354" lon="2.51114">
        <ele>138.743</ele>
        <time>2018-12-03T13:32:48Z</time>
      </trkpt>
      <trkpt lat="48.74351" lon="2.51113">
        <ele>138.695</ele>
        <time>2018-12-03T13:32:51Z</time>
      </trkpt>
      <trkpt lat="48.74347" lon="2.51112">
        <ele>138.65</ele>
        <time>2018-12-03T13:32:54Z</time>
      </trkpt>
      <trkpt lat="48.74345" lon="2.51111">
        <ele>138.621</ele>
        <time>2018-12-03T13:32:56Z</time>
      </trkpt>
      <trkpt lat="48.74343" lon="2.5111">
        <ele>138.591</ele>
        <time>2018-12-03T13:32:58Z</time>
      </trkpt>
      <trkpt lat="48.74337" lon="2.51109">
        <ele>138.52</ele>
        <time>2018-12-03T13:33:03Z</time>
      </trkpt>
      <trkpt lat="48.74335" lon="2.51109">
        <ele>138.482</ele>
        <time>2018-12-03T13:33:06Z</time>
      </trkpt>
      <trkpt lat="48.74329" lon="2.51109">
        <ele>138.436</ele>
        <time>2018-12-03T13:33:10Z</time>
      </trkpt>
      <trkpt lat="48.74325" lon="2.51108">
        <ele>138.405</ele>
        <time>2018-12-03T13:33:13Z</time>
      </trkpt>
      <trkpt lat="48.7432" lon="2.51111">
        <ele>138.357</ele>
        <time>2018-12-03T13:33:20Z</time>
      </trkpt>
      <trkpt lat="48.74316" lon="2.51113">
        <ele>138.328</ele>
        <time>2018-12-03T13:33:26Z</time>
      </trkpt>
      <trkpt lat="48.74311" lon="2.51111">
        <ele>138.302</ele>
        <time>2018-12-03T13:33:32Z</time>
      </trkpt>
      <trkpt lat="48.74306" lon="2.51107">
        <ele>138.287</ele>
        <time>2018-12-03T13:33:36Z</time>
      </trkpt>
      <trkpt lat="48.74301" lon="2.51106">
        <ele>138.268</ele>
        <time>2018-12-03T13:33:41Z</time>
      </trkpt>
      <trkpt lat="48.74296" lon="2.51106">
        <ele>138.254</ele>
        <time>2018-12-03T13:33:45Z</time>
      </trkpt>
      <trkpt lat="48.74291" lon="2.51105">
        <ele>138.245</ele>
        <time>2018-12-03T13:33:48Z</time>
      </trkpt>
      <trkpt lat="48.74288" lon="2.51105">
        <ele>138.241</ele>
        <time>2018-12-03T13:33:50Z</time>
      </trkpt>
      <trkpt lat="48.74288" lon="2.51105">
        <ele>92</ele>
        <time>2018-12-03T13:33:55Z</time>
      </trkpt>
      <trkpt lat="48.74288" lon="2.51105">
        <ele>92</ele>
        <time>2018-12-03T13:34:14Z</time>
      </trkpt>
      <trkpt lat="48.74269" lon="2.51094">
        <ele>138.233</ele>
        <time>2018-12-03T13:34:14Z</time>
      </trkpt>
      <trkpt lat="48.74261" lon="2.51095">
        <ele>138.235</ele>
        <time>2018-12-03T13:34:17Z</time>
      </trkpt>
      <trkpt lat="48.74256" lon="2.51095">
        <ele>138.24</ele>
        <time>2018-12-03T13:34:20Z</time>
      </trkpt>
      <trkpt lat="48.74252" lon="2.51094">
        <ele>138.245</ele>
        <time>2018-12-03T13:34:23Z</time>
      </trkpt>
      <trkpt lat="48.74247" lon="2.51093">
        <ele>138.25</ele>
        <time>2018-12-03T13:34:26Z</time>
      </trkpt>
      <trkpt lat="48.74242" lon="2.51094">
        <ele>138.264</ele>
        <time>2018-12-03T13:34:31Z</time>
      </trkpt>
      <trkpt lat="48.7424" lon="2.51094">
        <ele>138.27</ele>
        <time>2018-12-03T13:34:33Z</time>
      </trkpt>
      <trkpt lat="48.74234" lon="2.51091">
        <ele>138.284</ele>
        <time>2018-12-03T13:34:37Z</time>
      </trkpt>
      <trkpt lat="48.74228" lon="2.51091">
        <ele>138.294</ele>
        <time>2018-12-03T13:34:40Z</time>
      </trkpt>
      <trkpt lat="48.74224" lon="2.5109">
        <ele>138.309</ele>
        <time>2018-12-03T13:34:44Z</time>
      </trkpt>
      <trkpt lat="48.7422" lon="2.51088">
        <ele>138.317</ele>
        <time>2018-12-03T13:34:46Z</time>
      </trkpt>
      <trkpt lat="48.74215" lon="2.51085">
        <ele>138.342</ele>
        <time>2018-12-03T13:34:53Z</time>
      </trkpt>
      <trkpt lat="48.7421" lon="2.51083">
        <ele>138.355</ele>
        <time>2018-12-03T13:34:57Z</time>
      </trkpt>
      <trkpt lat="48.74205" lon="2.51078">
        <ele>138.367</ele>
        <time>2018-12-03T13:35:01Z</time>
      </trkpt>
      <trkpt lat="48.742" lon="2.51077">
        <ele>138.375</ele>
        <time>2018-12-03T13:35:05Z</time>
      </trkpt>
      <trkpt lat="48.74194" lon="2.51078">
        <ele>138.382</ele>
        <time>2018-12-03T13:35:09Z</time>
      </trkpt>
      <trkpt lat="48.74194" lon="2.51078">
        <ele>138.382</ele>
        <time>2018-12-03T13:35:16Z</time>
      </trkpt>
      <trkpt lat="48.74194" lon="2.51078">
        <ele>92</ele>
        <time>2018-12-03T13:35:16Z</time>
      </trkpt>
      <trkpt lat="48.74194" lon="2.51078">
        <ele>92</ele>
        <time>2018-12-03T13:35:28Z</time>
      </trkpt>
      <trkpt lat="48.74181" lon="2.51073">
        <ele>138.405</ele>
        <time>2018-12-03T13:35:28Z</time>
      </trkpt>
      <trkpt lat="48.74174" lon="2.51073">
        <ele>138.409</ele>
        <time>2018-12-03T13:35:31Z</time>
      </trkpt>
      <trkpt lat="48.74168" lon="2.51071">
        <ele>138.413</ele>
        <time>2018-12-03T13:35:35Z</time>
      </trkpt>
      <trkpt lat="48.74164" lon="2.51072">
        <ele>138.416</ele>
        <time>2018-12-03T13:35:37Z</time>
      </trkpt>
      <trkpt lat="48.7416" lon="2.51072">
        <ele>138.419</ele>
        <time>2018-12-03T13:35:39Z</time>
      </trkpt>
      <trkpt lat="48.74155" lon="2.51071">
        <ele>138.429</ele>
        <time>2018-12-03T13:35:43Z</time>
      </trkpt>
      <trkpt lat="48.74152" lon="2.51071">
        <ele>138.434</ele>
        <time>2018-12-03T13:35:45Z</time>
      </trkpt>
      <trkpt lat="48.74146" lon="2.51072">
        <ele>138.447</ele>
        <time>2018-12-03T13:35:50Z</time>
      </trkpt>
      <trkpt lat="48.74141" lon="2.51068">
        <ele>138.455</ele>
        <time>2018-12-03T13:35:55Z</time>
      </trkpt>
      <trkpt lat="48.74141" lon="2.51068">
        <ele>92</ele>
        <time>2018-12-03T13:36:03Z</time>
      </trkpt>
      <trkpt lat="48.74141" lon="2.51068">
        <ele>92</ele>
        <time>2018-12-03T13:36:09Z</time>
      </trkpt>
      <trkpt lat="48.74131" lon="2.51066">
        <ele>138.491</ele>
        <time>2018-12-03T13:36:09Z</time>
      </trkpt>
      <trkpt lat="48.74126" lon="2.51063">
        <ele>138.505</ele>
        <time>2018-12-03T13:36:15Z</time>
      </trkpt>
      <trkpt lat="48.7412" lon="2.51061">
        <ele>138.515</ele>
        <time>2018-12-03T13:36:19Z</time>
      </trkpt>
      <trkpt lat="48.74115" lon="2.51059">
        <ele>138.523</ele>
        <time>2018-12-03T13:36:22Z</time>
      </trkpt>
      <trkpt lat="48.74111" lon="2.51053">
        <ele>138.536</ele>
        <time>2018-12-03T13:36:26Z</time>
      </trkpt>
      <trkpt lat="48.74104" lon="2.5105">
        <ele>138.546</ele>
        <time>2018-12-03T13:36:31Z</time>
      </trkpt>
      <trkpt lat="48.741" lon="2.5105">
        <ele>138.551</ele>
        <time>2018-12-03T13:36:34Z</time>
      </trkpt>
      <trkpt lat="48.74094" lon="2.51048">
        <ele>138.557</ele>
        <time>2018-12-03T13:36:38Z</time>
      </trkpt>
      <trkpt lat="48.74089" lon="2.51047">
        <ele>138.559</ele>
        <time>2018-12-03T13:36:40Z</time>
      </trkpt>
      <trkpt lat="48.74085" lon="2.51042">
        <ele>138.559</ele>
        <time>2018-12-03T13:36:42Z</time>
      </trkpt>
      <trkpt lat="48.7408" lon="2.51041">
        <ele>138.557</ele>
        <time>2018-12-03T13:36:47Z</time>
      </trkpt>
      <trkpt lat="48.74074" lon="2.51039">
        <ele>138.555</ele>
        <time>2018-12-03T13:36:51Z</time>
      </trkpt>
      <trkpt lat="48.74068" lon="2.51038">
        <ele>138.553</ele>
        <time>2018-12-03T13:36:54Z</time>
      </trkpt>
      <trkpt lat="48.74061" lon="2.51035">
        <ele>138.552</ele>
        <time>2018-12-03T13:36:56Z</time>
      </trkpt>
      <trkpt lat="48.74059" lon="2.51034">
        <ele>138.55</ele>
        <time>2018-12-03T13:36:58Z</time>
      </trkpt>
      <trkpt lat="48.74055" lon="2.5103">
        <ele>138.548</ele>
        <time>2018-12-03T13:37:00Z</time>
      </trkpt>
      <trkpt lat="48.7405" lon="2.51027">
        <ele>138.538</ele>
        <time>2018-12-03T13:37:06Z</time>
      </trkpt>
      <trkpt lat="48.74047" lon="2.51025">
        <ele>138.537</ele>
        <time>2018-12-03T13:37:09Z</time>
      </trkpt>
      <trkpt lat="48.74047" lon="2.51025">
        <ele>91</ele>
        <time>2018-12-03T13:37:17Z</time>
      </trkpt>
      <trkpt lat="48.74047" lon="2.51025">
        <ele>91</ele>
        <time>2018-12-03T13:37:23Z</time>
      </trkpt>
      <trkpt lat="48.7404" lon="2.51018">
        <ele>138.535</ele>
        <time>2018-12-03T13:37:23Z</time>
      </trkpt>
      <trkpt lat="48.74034" lon="2.51015">
        <ele>138.534</ele>
        <time>2018-12-03T13:37:26Z</time>
      </trkpt>
      <trkpt lat="48.74028" lon="2.51014">
        <ele>138.533</ele>
        <time>2018-12-03T13:37:30Z</time>
      </trkpt>
      <trkpt lat="48.74025" lon="2.51013">
        <ele>138.532</ele>
        <time>2018-12-03T13:37:33Z</time>
      </trkpt>
      <trkpt lat="48.7402" lon="2.51011">
        <ele>138.532</ele>
        <time>2018-12-03T13:37:36Z</time>
      </trkpt>
      <trkpt lat="48.74015" lon="2.51007">
        <ele>138.534</ele>
        <time>2018-12-03T13:37:39Z</time>
      </trkpt>
      <trkpt lat="48.74009" lon="2.51005">
        <ele>138.535</ele>
        <time>2018-12-03T13:37:42Z</time>
      </trkpt>
      <trkpt lat="48.74006" lon="2.51003">
        <ele>138.535</ele>
        <time>2018-12-03T13:37:45Z</time>
      </trkpt>
      <trkpt lat="48.74001" lon="2.51003">
        <ele>138.537</ele>
        <time>2018-12-03T13:37:48Z</time>
      </trkpt>
      <trkpt lat="48.73999" lon="2.51002">
        <ele>138.539</ele>
        <time>2018-12-03T13:37:50Z</time>
      </trkpt>
      <trkpt lat="48.73993" lon="2.51002">
        <ele>138.542</ele>
        <time>2018-12-03T13:37:53Z</time>
      </trkpt>
      <trkpt lat="48.7399" lon="2.51002">
        <ele>138.548</ele>
        <time>2018-12-03T13:37:58Z</time>
      </trkpt>
      <trkpt lat="48.73987" lon="2.50998">
        <ele>138.549</ele>
        <time>2018-12-03T13:38:01Z</time>
      </trkpt>
      <trkpt lat="48.73981" lon="2.50995">
        <ele>138.55</ele>
        <time>2018-12-03T13:38:09Z</time>
      </trkpt>
      <trkpt lat="48.73975" lon="2.50989">
        <ele>138.554</ele>
        <time>2018-12-03T13:38:13Z</time>
      </trkpt>
      <trkpt lat="48.73973" lon="2.50987">
        <ele>138.556</ele>
        <time>2018-12-03T13:38:15Z</time>
      </trkpt>
      <trkpt lat="48.73967" lon="2.50988">
        <ele>138.561</ele>
        <time>2018-12-03T13:38:18Z</time>
      </trkpt>
      <trkpt lat="48.73967" lon="2.50988">
        <ele>91</ele>
        <time>2018-12-03T13:38:26Z</time>
      </trkpt>
      <trkpt lat="48.73967" lon="2.50988">
        <ele>91</ele>
        <time>2018-12-03T13:38:32Z</time>
      </trkpt>
      <trkpt lat="48.73954" lon="2.50981">
        <ele>138.611</ele>
        <time>2018-12-03T13:38:34Z</time>
      </trkpt>
      <trkpt lat="48.73947" lon="2.5098">
        <ele>138.619</ele>
        <time>2018-12-03T13:38:36Z</time>
      </trkpt>
      <trkpt lat="48.73943" lon="2.50979">
        <ele>138.624</ele>
        <time>2018-12-03T13:38:37Z</time>
      </trkpt>
      <trkpt lat="48.73938" lon="2.50979">
        <ele>138.632</ele>
        <time>2018-12-03T13:38:39Z</time>
      </trkpt>
      <trkpt lat="48.73935" lon="2.50974">
        <ele>138.643</ele>
        <time>2018-12-03T13:38:43Z</time>
      </trkpt>
      <trkpt lat="48.73932" lon="2.50969">
        <ele>138.66</ele>
        <time>2018-12-03T13:38:49Z</time>
      </trkpt>
      <trkpt lat="48.73928" lon="2.50965">
        <ele>138.67</ele>
        <time>2018-12-03T13:38:53Z</time>
      </trkpt>
      <trkpt lat="48.73926" lon="2.50964">
        <ele>138.673</ele>
        <time>2018-12-03T13:38:54Z</time>
      </trkpt>
      <trkpt lat="48.7392" lon="2.50962">
        <ele>138.683</ele>
        <time>2018-12-03T13:38:57Z</time>
      </trkpt>
      <trkpt lat="48.73915" lon="2.50961">
        <ele>138.705</ele>
        <time>2018-12-03T13:39:02Z</time>
      </trkpt>
      <trkpt lat="48.73909" lon="2.50959">
        <ele>138.727</ele>
        <time>2018-12-03T13:39:07Z</time>
      </trkpt>
      <trkpt lat="48.73905" lon="2.50959">
        <ele>138.74</ele>
        <time>2018-12-03T13:39:10Z</time>
      </trkpt>
      <trkpt lat="48.73899" lon="2.50957">
        <ele>138.756</ele>
        <time>2018-12-03T13:39:14Z</time>
      </trkpt>
      <trkpt lat="48.73893" lon="2.50954">
        <ele>138.774</ele>
        <time>2018-12-03T13:39:19Z</time>
      </trkpt>
      <trkpt lat="48.73888" lon="2.50953">
        <ele>138.783</ele>
        <time>2018-12-03T13:39:21Z</time>
      </trkpt>
      <trkpt lat="48.73883" lon="2.50953">
        <ele>138.793</ele>
        <time>2018-12-03T13:39:23Z</time>
      </trkpt>
      <trkpt lat="48.73881" lon="2.50952">
        <ele>138.798</ele>
        <time>2018-12-03T13:39:24Z</time>
      </trkpt>
      <trkpt lat="48.73878" lon="2.50951">
        <ele>138.812</ele>
        <time>2018-12-03T13:39:28Z</time>
      </trkpt>
      <trkpt lat="48.73874" lon="2.50947">
        <ele>138.832</ele>
        <time>2018-12-03T13:39:34Z</time>
      </trkpt>
      <trkpt lat="48.73868" lon="2.50944">
        <ele>138.847</ele>
        <time>2018-12-03T13:39:38Z</time>
      </trkpt>
      <trkpt lat="48.73864" lon="2.50943">
        <ele>138.853</ele>
        <time>2018-12-03T13:39:40Z</time>
      </trkpt>
      <trkpt lat="48.7386" lon="2.50939">
        <ele>138.866</ele>
        <time>2018-12-03T13:39:43Z</time>
      </trkpt>
      <trkpt lat="48.73857" lon="2.50937">
        <ele>138.891</ele>
        <time>2018-12-03T13:39:48Z</time>
      </trkpt>
      <trkpt lat="48.73852" lon="2.50935">
        <ele>138.906</ele>
        <time>2018-12-03T13:39:51Z</time>
      </trkpt>
      <trkpt lat="48.73846" lon="2.50933">
        <ele>138.922</ele>
        <time>2018-12-03T13:39:54Z</time>
      </trkpt>
      <trkpt lat="48.73844" lon="2.50932">
        <ele>138.927</ele>
        <time>2018-12-03T13:39:55Z</time>
      </trkpt>
      <trkpt lat="48.73842" lon="2.50931">
        <ele>138.933</ele>
        <time>2018-12-03T13:39:56Z</time>
      </trkpt>
      <trkpt lat="48.73837" lon="2.50928">
        <ele>138.956</ele>
        <time>2018-12-03T13:40:00Z</time>
      </trkpt>
      <trkpt lat="48.73834" lon="2.50926">
        <ele>138.973</ele>
        <time>2018-12-03T13:40:03Z</time>
      </trkpt>
      <trkpt lat="48.73828" lon="2.50922">
        <ele>139.003</ele>
        <time>2018-12-03T13:40:08Z</time>
      </trkpt>
      <trkpt lat="48.73822" lon="2.50921">
        <ele>139.032</ele>
        <time>2018-12-03T13:40:12Z</time>
      </trkpt>
      <trkpt lat="48.7382" lon="2.50921">
        <ele>139.056</ele>
        <time>2018-12-03T13:40:15Z</time>
      </trkpt>
      <trkpt lat="48.73815" lon="2.50918">
        <ele>139.081</ele>
        <time>2018-12-03T13:40:18Z</time>
      </trkpt>
      <trkpt lat="48.73811" lon="2.50916">
        <ele>139.104</ele>
        <time>2018-12-03T13:40:21Z</time>
      </trkpt>
      <trkpt lat="48.73808" lon="2.50914">
        <ele>139.12</ele>
        <time>2018-12-03T13:40:23Z</time>
      </trkpt>
      <trkpt lat="48.73805" lon="2.50913">
        <ele>139.135</ele>
        <time>2018-12-03T13:40:25Z</time>
      </trkpt>
      <trkpt lat="48.73802" lon="2.50912">
        <ele>139.151</ele>
        <time>2018-12-03T13:40:27Z</time>
      </trkpt>
      <trkpt lat="48.73797" lon="2.50909">
        <ele>139.184</ele>
        <time>2018-12-03T13:40:31Z</time>
      </trkpt>
      <trkpt lat="48.73791" lon="2.50908">
        <ele>139.209</ele>
        <time>2018-12-03T13:40:34Z</time>
      </trkpt>
      <trkpt lat="48.73786" lon="2.5091">
        <ele>139.237</ele>
        <time>2018-12-03T13:40:37Z</time>
      </trkpt>
      <trkpt lat="48.73786" lon="2.5091">
        <ele>91</ele>
        <time>2018-12-03T13:40:45Z</time>
      </trkpt>
      <trkpt lat="48.73786" lon="2.5091">
        <ele>91</ele>
        <time>2018-12-03T13:40:51Z</time>
      </trkpt>
      <trkpt lat="48.73778" lon="2.50905">
        <ele>139.374</ele>
        <time>2018-12-03T13:40:51Z</time>
      </trkpt>
      <trkpt lat="48.73777" lon="2.50902">
        <ele>139.411</ele>
        <time>2018-12-03T13:40:54Z</time>
      </trkpt>
      <trkpt lat="48.73773" lon="2.50898">
        <ele>139.449</ele>
        <time>2018-12-03T13:40:57Z</time>
      </trkpt>
      <trkpt lat="48.73767" lon="2.50895">
        <ele>139.497</ele>
        <time>2018-12-03T13:41:01Z</time>
      </trkpt>
      <trkpt lat="48.73763" lon="2.50892">
        <ele>139.532</ele>
        <time>2018-12-03T13:41:04Z</time>
      </trkpt>
      <trkpt lat="48.73758" lon="2.5089">
        <ele>139.579</ele>
        <time>2018-12-03T13:41:09Z</time>
      </trkpt>
      <trkpt lat="48.73752" lon="2.50888">
        <ele>139.605</ele>
        <time>2018-12-03T13:41:12Z</time>
      </trkpt>
      <trkpt lat="48.7375" lon="2.50886">
        <ele>139.621</ele>
        <time>2018-12-03T13:41:14Z</time>
      </trkpt>
      <trkpt lat="48.73745" lon="2.50885">
        <ele>139.646</ele>
        <time>2018-12-03T13:41:17Z</time>
      </trkpt>
      <trkpt lat="48.73743" lon="2.50884">
        <ele>139.655</ele>
        <time>2018-12-03T13:41:18Z</time>
      </trkpt>
      <trkpt lat="48.73741" lon="2.50884">
        <ele>139.662</ele>
        <time>2018-12-03T13:41:19Z</time>
      </trkpt>
      <trkpt lat="48.73736" lon="2.5088">
        <ele>139.684</ele>
        <time>2018-12-03T13:41:22Z</time>
      </trkpt>
      <trkpt lat="48.73731" lon="2.50877">
        <ele>139.707</ele>
        <time>2018-12-03T13:41:25Z</time>
      </trkpt>
      <trkpt lat="48.73725" lon="2.50876">
        <ele>139.73</ele>
        <time>2018-12-03T13:41:28Z</time>
      </trkpt>
      <trkpt lat="48.7372" lon="2.50874">
        <ele>139.752</ele>
        <time>2018-12-03T13:41:31Z</time>
      </trkpt>
      <trkpt lat="48.7372" lon="2.50874">
        <ele>139.752</ele>
        <time>2018-12-03T13:41:36Z</time>
      </trkpt>
      <trkpt lat="48.7372" lon="2.50874">
        <ele>92</ele>
        <time>2018-12-03T13:41:36Z</time>
      </trkpt>
      <trkpt lat="48.7372" lon="2.50874">
        <ele>92</ele>
        <time>2018-12-03T13:41:49Z</time>
      </trkpt>
      <trkpt lat="48.73704" lon="2.50863">
        <ele>139.851</ele>
        <time>2018-12-03T13:41:49Z</time>
      </trkpt>
      <trkpt lat="48.73702" lon="2.50857">
        <ele>139.903</ele>
        <time>2018-12-03T13:41:57Z</time>
      </trkpt>
      <trkpt lat="48.73701" lon="2.50848">
        <ele>139.93</ele>
        <time>2018-12-03T13:42:01Z</time>
      </trkpt>
      <trkpt lat="48.73701" lon="2.50843">
        <ele>139.948</ele>
        <time>2018-12-03T13:42:04Z</time>
      </trkpt>
      <trkpt lat="48.73697" lon="2.50836">
        <ele>139.977</ele>
        <time>2018-12-03T13:42:09Z</time>
      </trkpt>
      <trkpt lat="48.73696" lon="2.50833">
        <ele>139.989</ele>
        <time>2018-12-03T13:42:11Z</time>
      </trkpt>
      <trkpt lat="48.73694" lon="2.50826">
        <ele>140.008</ele>
        <time>2018-12-03T13:42:14Z</time>
      </trkpt>
      <trkpt lat="48.73693" lon="2.50822">
        <ele>140.026</ele>
        <time>2018-12-03T13:42:17Z</time>
      </trkpt>
      <trkpt lat="48.73692" lon="2.50812">
        <ele>140.05</ele>
        <time>2018-12-03T13:42:21Z</time>
      </trkpt>
      <trkpt lat="48.73691" lon="2.50807">
        <ele>140.062</ele>
        <time>2018-12-03T13:42:23Z</time>
      </trkpt>
      <trkpt lat="48.73691" lon="2.50803">
        <ele>140.073</ele>
        <time>2018-12-03T13:42:25Z</time>
      </trkpt>
      <trkpt lat="48.73688" lon="2.50795">
        <ele>140.102</ele>
        <time>2018-12-03T13:42:30Z</time>
      </trkpt>
      <trkpt lat="48.73685" lon="2.50787">
        <ele>140.128</ele>
        <time>2018-12-03T13:42:34Z</time>
      </trkpt>
      <trkpt lat="48.73684" lon="2.50782">
        <ele>140.147</ele>
        <time>2018-12-03T13:42:37Z</time>
      </trkpt>
      <trkpt lat="48.73682" lon="2.50777">
        <ele>140.167</ele>
        <time>2018-12-03T13:42:40Z</time>
      </trkpt>
      <trkpt lat="48.7368" lon="2.50769">
        <ele>140.187</ele>
        <time>2018-12-03T13:42:43Z</time>
      </trkpt>
      <trkpt lat="48.73679" lon="2.50764">
        <ele>140.199</ele>
        <time>2018-12-03T13:42:45Z</time>
      </trkpt>
      <trkpt lat="48.73678" lon="2.50759">
        <ele>140.217</ele>
        <time>2018-12-03T13:42:48Z</time>
      </trkpt>
      <trkpt lat="48.73677" lon="2.50752">
        <ele>140.233</ele>
        <time>2018-12-03T13:42:51Z</time>
      </trkpt>
      <trkpt lat="48.73673" lon="2.50745">
        <ele>140.253</ele>
        <time>2018-12-03T13:42:55Z</time>
      </trkpt>
      <trkpt lat="48.73671" lon="2.50737">
        <ele>140.266</ele>
        <time>2018-12-03T13:42:58Z</time>
      </trkpt>
      <trkpt lat="48.73669" lon="2.5073">
        <ele>140.282</ele>
        <time>2018-12-03T13:43:02Z</time>
      </trkpt>
      <trkpt lat="48.73664" lon="2.50724">
        <ele>140.294</ele>
        <time>2018-12-03T13:43:05Z</time>
      </trkpt>
      <trkpt lat="48.73661" lon="2.50722">
        <ele>140.302</ele>
        <time>2018-12-03T13:43:07Z</time>
      </trkpt>
      <trkpt lat="48.73658" lon="2.50714">
        <ele>140.321</ele>
        <time>2018-12-03T13:43:12Z</time>
      </trkpt>
      <trkpt lat="48.73657" lon="2.50705">
        <ele>140.333</ele>
        <time>2018-12-03T13:43:16Z</time>
      </trkpt>
      <trkpt lat="48.73656" lon="2.50696">
        <ele>140.342</ele>
        <time>2018-12-03T13:43:20Z</time>
      </trkpt>
      <trkpt lat="48.73654" lon="2.5069">
        <ele>140.351</ele>
        <time>2018-12-03T13:43:24Z</time>
      </trkpt>
      <trkpt lat="48.73651" lon="2.50684">
        <ele>140.371</ele>
        <time>2018-12-03T13:43:30Z</time>
      </trkpt>
      <trkpt lat="48.73652" lon="2.50676">
        <ele>140.382</ele>
        <time>2018-12-03T13:43:35Z</time>
      </trkpt>
      <trkpt lat="48.73652" lon="2.50676">
        <ele>93</ele>
        <time>2018-12-03T13:43:42Z</time>
      </trkpt>
      <trkpt lat="48.73652" lon="2.50676">
        <ele>93</ele>
        <time>2018-12-03T13:44:53Z</time>
      </trkpt>
      <trkpt lat="48.73636" lon="2.50666">
        <ele>140.401</ele>
        <time>2018-12-03T13:44:53Z</time>
      </trkpt>
      <trkpt lat="48.73633" lon="2.50665">
        <ele>140.402</ele>
        <time>2018-12-03T13:44:55Z</time>
      </trkpt>
      <trkpt lat="48.73629" lon="2.50663">
        <ele>140.407</ele>
        <time>2018-12-03T13:44:58Z</time>
      </trkpt>
      <trkpt lat="48.73624" lon="2.50662">
        <ele>140.412</ele>
        <time>2018-12-03T13:45:01Z</time>
      </trkpt>
      <trkpt lat="48.73624" lon="2.50662">
        <ele>93</ele>
        <time>2018-12-03T13:45:09Z</time>
      </trkpt>
      <trkpt lat="48.73624" lon="2.50662">
        <ele>93</ele>
        <time>2018-12-03T13:45:14Z</time>
      </trkpt>
      <trkpt lat="48.73615" lon="2.50657">
        <ele>140.415</ele>
        <time>2018-12-03T13:45:14Z</time>
      </trkpt>
      <trkpt lat="48.73609" lon="2.50656">
        <ele>140.419</ele>
        <time>2018-12-03T13:45:17Z</time>
      </trkpt>
      <trkpt lat="48.73605" lon="2.50656">
        <ele>140.425</ele>
        <time>2018-12-03T13:45:20Z</time>
      </trkpt>
      <trkpt lat="48.73602" lon="2.50655">
        <ele>140.429</ele>
        <time>2018-12-03T13:45:22Z</time>
      </trkpt>
      <trkpt lat="48.73598" lon="2.50654">
        <ele>140.435</ele>
        <time>2018-12-03T13:45:25Z</time>
      </trkpt>
      <trkpt lat="48.73596" lon="2.50653">
        <ele>140.439</ele>
        <time>2018-12-03T13:45:27Z</time>
      </trkpt>
      <trkpt lat="48.73591" lon="2.50649">
        <ele>140.454</ele>
        <time>2018-12-03T13:45:32Z</time>
      </trkpt>
      <trkpt lat="48.73586" lon="2.50646">
        <ele>140.465</ele>
        <time>2018-12-03T13:45:36Z</time>
      </trkpt>
      <trkpt lat="48.73583" lon="2.5064">
        <ele>140.506</ele>
        <time>2018-12-03T13:45:43Z</time>
      </trkpt>
      <trkpt lat="48.73581" lon="2.50635">
        <ele>140.539</ele>
        <time>2018-12-03T13:45:49Z</time>
      </trkpt>
      <trkpt lat="48.73574" lon="2.50628">
        <ele>140.568</ele>
        <time>2018-12-03T13:45:53Z</time>
      </trkpt>
      <trkpt lat="48.73572" lon="2.5062">
        <ele>140.611</ele>
        <time>2018-12-03T13:45:58Z</time>
      </trkpt>
      <trkpt lat="48.7357" lon="2.50615">
        <ele>140.641</ele>
        <time>2018-12-03T13:46:02Z</time>
      </trkpt>
      <trkpt lat="48.73567" lon="2.50608">
        <ele>140.677</ele>
        <time>2018-12-03T13:46:07Z</time>
      </trkpt>
      <trkpt lat="48.73563" lon="2.50606">
        <ele>140.698</ele>
        <time>2018-12-03T13:46:10Z</time>
      </trkpt>
      <trkpt lat="48.73558" lon="2.50603">
        <ele>140.715</ele>
        <time>2018-12-03T13:46:12Z</time>
      </trkpt>
      <trkpt lat="48.73554" lon="2.50601">
        <ele>140.732</ele>
        <time>2018-12-03T13:46:14Z</time>
      </trkpt>
      <trkpt lat="48.7355" lon="2.50598">
        <ele>140.757</ele>
        <time>2018-12-03T13:46:17Z</time>
      </trkpt>
      <trkpt lat="48.73545" lon="2.50597">
        <ele>140.775</ele>
        <time>2018-12-03T13:46:19Z</time>
      </trkpt>
      <trkpt lat="48.73541" lon="2.50593">
        <ele>140.795</ele>
        <time>2018-12-03T13:46:22Z</time>
      </trkpt>
      <trkpt lat="48.73536" lon="2.5059">
        <ele>140.827</ele>
        <time>2018-12-03T13:46:25Z</time>
      </trkpt>
      <trkpt lat="48.73531" lon="2.50585">
        <ele>140.874</ele>
        <time>2018-12-03T13:46:29Z</time>
      </trkpt>
      <trkpt lat="48.73528" lon="2.50583">
        <ele>140.91</ele>
        <time>2018-12-03T13:46:33Z</time>
      </trkpt>
      <trkpt lat="48.73526" lon="2.50576">
        <ele>140.982</ele>
        <time>2018-12-03T13:46:40Z</time>
      </trkpt>
      <trkpt lat="48.73521" lon="2.50573">
        <ele>141.026</ele>
        <time>2018-12-03T13:46:43Z</time>
      </trkpt>
      <trkpt lat="48.73516" lon="2.50568">
        <ele>141.071</ele>
        <time>2018-12-03T13:46:46Z</time>
      </trkpt>
      <trkpt lat="48.73514" lon="2.50563">
        <ele>141.101</ele>
        <time>2018-12-03T13:46:48Z</time>
      </trkpt>
      <trkpt lat="48.73507" lon="2.50559">
        <ele>141.145</ele>
        <time>2018-12-03T13:46:51Z</time>
      </trkpt>
      <trkpt lat="48.73505" lon="2.50558">
        <ele>141.159</ele>
        <time>2018-12-03T13:46:52Z</time>
      </trkpt>
      <trkpt lat="48.735" lon="2.50555">
        <ele>141.203</ele>
        <time>2018-12-03T13:46:55Z</time>
      </trkpt>
      <trkpt lat="48.73495" lon="2.50553">
        <ele>141.257</ele>
        <time>2018-12-03T13:46:59Z</time>
      </trkpt>
      <trkpt lat="48.7349" lon="2.50555">
        <ele>141.296</ele>
        <time>2018-12-03T13:47:02Z</time>
      </trkpt>
      <trkpt lat="48.73486" lon="2.50556">
        <ele>141.333</ele>
        <time>2018-12-03T13:47:05Z</time>
      </trkpt>
      <trkpt lat="48.73481" lon="2.50556">
        <ele>141.369</ele>
        <time>2018-12-03T13:47:08Z</time>
      </trkpt>
      <trkpt lat="48.73476" lon="2.50558">
        <ele>141.426</ele>
        <time>2018-12-03T13:47:13Z</time>
      </trkpt>
      <trkpt lat="48.73474" lon="2.50559">
        <ele>141.448</ele>
        <time>2018-12-03T13:47:15Z</time>
      </trkpt>
      <trkpt lat="48.73474" lon="2.50559">
        <ele>91.2</ele>
        <time>2018-12-03T13:47:22Z</time>
      </trkpt>
      <trkpt lat="48.73474" lon="2.50559">
        <ele>91.2</ele>
        <time>2018-12-03T13:47:27Z</time>
      </trkpt>
      <trkpt lat="48.73467" lon="2.50566">
        <ele>141.543</ele>
        <time>2018-12-03T13:47:27Z</time>
      </trkpt>
      <trkpt lat="48.73462" lon="2.50565">
        <ele>141.57</ele>
        <time>2018-12-03T13:47:30Z</time>
      </trkpt>
      <trkpt lat="48.73457" lon="2.50565">
        <ele>141.589</ele>
        <time>2018-12-03T13:47:32Z</time>
      </trkpt>
      <trkpt lat="48.73453" lon="2.50569">
        <ele>141.609</ele>
        <time>2018-12-03T13:47:34Z</time>
      </trkpt>
      <trkpt lat="48.73446" lon="2.5057">
        <ele>141.634</ele>
        <time>2018-12-03T13:47:37Z</time>
      </trkpt>
      <trkpt lat="48.73442" lon="2.50571">
        <ele>141.66</ele>
        <time>2018-12-03T13:47:40Z</time>
      </trkpt>
      <trkpt lat="48.73437" lon="2.5057">
        <ele>141.687</ele>
        <time>2018-12-03T13:47:43Z</time>
      </trkpt>
      <trkpt lat="48.73432" lon="2.50572">
        <ele>141.713</ele>
        <time>2018-12-03T13:47:46Z</time>
      </trkpt>
      <trkpt lat="48.73426" lon="2.50572">
        <ele>141.75</ele>
        <time>2018-12-03T13:47:50Z</time>
      </trkpt>
      <trkpt lat="48.7342" lon="2.50575">
        <ele>141.775</ele>
        <time>2018-12-03T13:47:53Z</time>
      </trkpt>
      <trkpt lat="48.73418" lon="2.50576">
        <ele>141.783</ele>
        <time>2018-12-03T13:47:54Z</time>
      </trkpt>
      <trkpt lat="48.73412" lon="2.50575">
        <ele>141.807</ele>
        <time>2018-12-03T13:47:57Z</time>
      </trkpt>
      <trkpt lat="48.73406" lon="2.50575">
        <ele>141.833</ele>
        <time>2018-12-03T13:48:01Z</time>
      </trkpt>
      <trkpt lat="48.73406" lon="2.50575">
        <ele>91</ele>
        <time>2018-12-03T13:48:10Z</time>
      </trkpt>
      <trkpt lat="48.73406" lon="2.50575">
        <ele>91</ele>
        <time>2018-12-03T13:48:47Z</time>
      </trkpt>
      <trkpt lat="48.73385" lon="2.50613">
        <ele>142.189</ele>
        <time>2018-12-03T13:48:47Z</time>
      </trkpt>
      <trkpt lat="48.73382" lon="2.50619">
        <ele>142.238</ele>
        <time>2018-12-03T13:48:51Z</time>
      </trkpt>
      <trkpt lat="48.73382" lon="2.50627">
        <ele>142.323</ele>
        <time>2018-12-03T13:48:57Z</time>
      </trkpt>
      <trkpt lat="48.7338" lon="2.50634">
        <ele>142.4</ele>
        <time>2018-12-03T13:49:03Z</time>
      </trkpt>
      <trkpt lat="48.73378" lon="2.5064">
        <ele>142.446</ele>
        <time>2018-12-03T13:49:06Z</time>
      </trkpt>
      <trkpt lat="48.73377" lon="2.50647">
        <ele>142.51</ele>
        <time>2018-12-03T13:49:10Z</time>
      </trkpt>
      <trkpt lat="48.73377" lon="2.5065">
        <ele>142.542</ele>
        <time>2018-12-03T13:49:12Z</time>
      </trkpt>
      <trkpt lat="48.73376" lon="2.50659">
        <ele>142.607</ele>
        <time>2018-12-03T13:49:16Z</time>
      </trkpt>
      <trkpt lat="48.73376" lon="2.50663">
        <ele>142.639</ele>
        <time>2018-12-03T13:49:18Z</time>
      </trkpt>
      <trkpt lat="48.73376" lon="2.50667">
        <ele>142.671</ele>
        <time>2018-12-03T13:49:20Z</time>
      </trkpt>
      <trkpt lat="48.73376" lon="2.50674">
        <ele>142.736</ele>
        <time>2018-12-03T13:49:24Z</time>
      </trkpt>
      <trkpt lat="48.73377" lon="2.50681">
        <ele>142.78</ele>
        <time>2018-12-03T13:49:27Z</time>
      </trkpt>
      <trkpt lat="48.73376" lon="2.50689">
        <ele>142.849</ele>
        <time>2018-12-03T13:49:32Z</time>
      </trkpt>
      <trkpt lat="48.73375" lon="2.50695">
        <ele>142.916</ele>
        <time>2018-12-03T13:49:37Z</time>
      </trkpt>
      <trkpt lat="48.73374" lon="2.507">
        <ele>142.943</ele>
        <time>2018-12-03T13:49:39Z</time>
      </trkpt>
      <trkpt lat="48.73373" lon="2.50704">
        <ele>142.98</ele>
        <time>2018-12-03T13:49:42Z</time>
      </trkpt>
      <trkpt lat="48.73373" lon="2.50712">
        <ele>143.028</ele>
        <time>2018-12-03T13:49:46Z</time>
      </trkpt>
      <trkpt lat="48.73373" lon="2.50716">
        <ele>143.05</ele>
        <time>2018-12-03T13:49:48Z</time>
      </trkpt>
      <trkpt lat="48.73373" lon="2.5072">
        <ele>143.072</ele>
        <time>2018-12-03T13:49:50Z</time>
      </trkpt>
      <trkpt lat="48.73373" lon="2.50726">
        <ele>143.105</ele>
        <time>2018-12-03T13:49:53Z</time>
      </trkpt>
      <trkpt lat="48.73372" lon="2.50733">
        <ele>143.152</ele>
        <time>2018-12-03T13:49:57Z</time>
      </trkpt>
      <trkpt lat="48.73371" lon="2.5074">
        <ele>143.203</ele>
        <time>2018-12-03T13:50:01Z</time>
      </trkpt>
      <trkpt lat="48.7337" lon="2.50748">
        <ele>143.271</ele>
        <time>2018-12-03T13:50:06Z</time>
      </trkpt>
      <trkpt lat="48.7337" lon="2.50756">
        <ele>143.324</ele>
        <time>2018-12-03T13:50:10Z</time>
      </trkpt>
      <trkpt lat="48.73369" lon="2.50763">
        <ele>143.36</ele>
        <time>2018-12-03T13:50:13Z</time>
      </trkpt>
      <trkpt lat="48.73368" lon="2.50771">
        <ele>143.406</ele>
        <time>2018-12-03T13:50:17Z</time>
      </trkpt>
      <trkpt lat="48.73368" lon="2.50777">
        <ele>143.439</ele>
        <time>2018-12-03T13:50:20Z</time>
      </trkpt>
      <trkpt lat="48.73366" lon="2.50785">
        <ele>143.505</ele>
        <time>2018-12-03T13:50:26Z</time>
      </trkpt>
      <trkpt lat="48.73367" lon="2.50792">
        <ele>143.565</ele>
        <time>2018-12-03T13:50:31Z</time>
      </trkpt>
      <trkpt lat="48.73364" lon="2.50798">
        <ele>143.658</ele>
        <time>2018-12-03T13:50:40Z</time>
      </trkpt>
      <trkpt lat="48.73362" lon="2.50801">
        <ele>143.7</ele>
        <time>2018-12-03T13:50:43Z</time>
      </trkpt>
      <trkpt lat="48.73359" lon="2.50806">
        <ele>143.724</ele>
        <time>2018-12-03T13:50:45Z</time>
      </trkpt>
      <trkpt lat="48.73358" lon="2.50809">
        <ele>143.733</ele>
        <time>2018-12-03T13:50:46Z</time>
      </trkpt>
      <trkpt lat="48.73358" lon="2.50809">
        <ele>92.1</ele>
        <time>2018-12-03T13:50:51Z</time>
      </trkpt>
      <trkpt lat="48.73358" lon="2.50809">
        <ele>92.1</ele>
        <time>2018-12-03T13:51:39Z</time>
      </trkpt>
      <trkpt lat="48.73339" lon="2.50783">
        <ele>143.966</ele>
        <time>2018-12-03T13:51:39Z</time>
      </trkpt>
      <trkpt lat="48.73338" lon="2.50774">
        <ele>143.971</ele>
        <time>2018-12-03T13:51:44Z</time>
      </trkpt>
      <trkpt lat="48.73338" lon="2.50766">
        <ele>143.975</ele>
        <time>2018-12-03T13:51:49Z</time>
      </trkpt>
      <trkpt lat="48.73335" lon="2.50759">
        <ele>143.976</ele>
        <time>2018-12-03T13:51:53Z</time>
      </trkpt>
      <trkpt lat="48.73333" lon="2.50755">
        <ele>143.977</ele>
        <time>2018-12-03T13:51:55Z</time>
      </trkpt>
      <trkpt lat="48.73333" lon="2.50748">
        <ele>143.979</ele>
        <time>2018-12-03T13:51:58Z</time>
      </trkpt>
      <trkpt lat="48.73333" lon="2.50741">
        <ele>143.98</ele>
        <time>2018-12-03T13:52:02Z</time>
      </trkpt>
      <trkpt lat="48.73333" lon="2.50734">
        <ele>143.98</ele>
        <time>2018-12-03T13:52:06Z</time>
      </trkpt>
      <trkpt lat="48.73334" lon="2.50726">
        <ele>143.977</ele>
        <time>2018-12-03T13:52:10Z</time>
      </trkpt>
      <trkpt lat="48.73335" lon="2.50717">
        <ele>143.973</ele>
        <time>2018-12-03T13:52:15Z</time>
      </trkpt>
      <trkpt lat="48.73336" lon="2.50712">
        <ele>143.969</ele>
        <time>2018-12-03T13:52:17Z</time>
      </trkpt>
      <trkpt lat="48.73336" lon="2.50704">
        <ele>143.96</ele>
        <time>2018-12-03T13:52:21Z</time>
      </trkpt>
      <trkpt lat="48.73336" lon="2.50697">
        <ele>143.952</ele>
        <time>2018-12-03T13:52:27Z</time>
      </trkpt>
      <trkpt lat="48.73335" lon="2.50688">
        <ele>143.943</ele>
        <time>2018-12-03T13:52:31Z</time>
      </trkpt>
      <trkpt lat="48.73336" lon="2.50681">
        <ele>143.934</ele>
        <time>2018-12-03T13:52:35Z</time>
      </trkpt>
      <trkpt lat="48.73338" lon="2.50674">
        <ele>143.927</ele>
        <time>2018-12-03T13:52:38Z</time>
      </trkpt>
      <trkpt lat="48.73338" lon="2.50667">
        <ele>143.917</ele>
        <time>2018-12-03T13:52:42Z</time>
      </trkpt>
      <trkpt lat="48.73339" lon="2.5066">
        <ele>143.912</ele>
        <time>2018-12-03T13:52:45Z</time>
      </trkpt>
      <trkpt lat="48.73339" lon="2.50656">
        <ele>143.909</ele>
        <time>2018-12-03T13:52:47Z</time>
      </trkpt>
      <trkpt lat="48.73339" lon="2.50647">
        <ele>143.903</ele>
        <time>2018-12-03T13:52:50Z</time>
      </trkpt>
      <trkpt lat="48.7334" lon="2.5064">
        <ele>143.896</ele>
        <time>2018-12-03T13:52:53Z</time>
      </trkpt>
      <trkpt lat="48.73341" lon="2.50633">
        <ele>143.887</ele>
        <time>2018-12-03T13:52:57Z</time>
      </trkpt>
      <trkpt lat="48.73341" lon="2.50625">
        <ele>143.874</ele>
        <time>2018-12-03T13:53:02Z</time>
      </trkpt>
      <trkpt lat="48.73341" lon="2.5062">
        <ele>143.865</ele>
        <time>2018-12-03T13:53:05Z</time>
      </trkpt>
      <trkpt lat="48.73342" lon="2.50612">
        <ele>143.85</ele>
        <time>2018-12-03T13:53:10Z</time>
      </trkpt>
      <trkpt lat="48.73341" lon="2.50605">
        <ele>143.84</ele>
        <time>2018-12-03T13:53:14Z</time>
      </trkpt>
      <trkpt lat="48.73344" lon="2.50599">
        <ele>143.825</ele>
        <time>2018-12-03T13:53:18Z</time>
      </trkpt>
      <trkpt lat="48.73346" lon="2.50594">
        <ele>143.816</ele>
        <time>2018-12-03T13:53:20Z</time>
      </trkpt>
      <trkpt lat="48.73348" lon="2.50587">
        <ele>143.796</ele>
        <time>2018-12-03T13:53:24Z</time>
      </trkpt>
      <trkpt lat="48.73349" lon="2.50583">
        <ele>143.775</ele>
        <time>2018-12-03T13:53:28Z</time>
      </trkpt>
      <trkpt lat="48.73347" lon="2.50575">
        <ele>143.753</ele>
        <time>2018-12-03T13:53:32Z</time>
      </trkpt>
      <trkpt lat="48.73347" lon="2.50567">
        <ele>143.728</ele>
        <time>2018-12-03T13:53:36Z</time>
      </trkpt>
      <trkpt lat="48.73349" lon="2.50559">
        <ele>143.697</ele>
        <time>2018-12-03T13:53:40Z</time>
      </trkpt>
      <trkpt lat="48.73351" lon="2.50551">
        <ele>143.674</ele>
        <time>2018-12-03T13:53:43Z</time>
      </trkpt>
      <trkpt lat="48.73351" lon="2.50542">
        <ele>143.642</ele>
        <time>2018-12-03T13:53:47Z</time>
      </trkpt>
      <trkpt lat="48.7335" lon="2.50537">
        <ele>143.61</ele>
        <time>2018-12-03T13:53:51Z</time>
      </trkpt>
      <trkpt lat="48.73349" lon="2.50528">
        <ele>143.57</ele>
        <time>2018-12-03T13:53:56Z</time>
      </trkpt>
      <trkpt lat="48.7335" lon="2.50521">
        <ele>143.54</ele>
        <time>2018-12-03T13:54:00Z</time>
      </trkpt>
      <trkpt lat="48.7335" lon="2.50513">
        <ele>143.512</ele>
        <time>2018-12-03T13:54:04Z</time>
      </trkpt>
      <trkpt lat="48.73351" lon="2.50505">
        <ele>143.491</ele>
        <time>2018-12-03T13:54:07Z</time>
      </trkpt>
      <trkpt lat="48.73351" lon="2.50498">
        <ele>143.465</ele>
        <time>2018-12-03T13:54:11Z</time>
      </trkpt>
      <trkpt lat="48.7335" lon="2.5049">
        <ele>143.44</ele>
        <time>2018-12-03T13:54:15Z</time>
      </trkpt>
      <trkpt lat="48.73352" lon="2.50482">
        <ele>143.41</ele>
        <time>2018-12-03T13:54:21Z</time>
      </trkpt>
      <trkpt lat="48.73351" lon="2.50473">
        <ele>143.386</ele>
        <time>2018-12-03T13:54:26Z</time>
      </trkpt>
      <trkpt lat="48.73355" lon="2.50465">
        <ele>143.366</ele>
        <time>2018-12-03T13:54:30Z</time>
      </trkpt>
      <trkpt lat="48.73357" lon="2.50462">
        <ele>143.36</ele>
        <time>2018-12-03T13:54:31Z</time>
      </trkpt>
      <trkpt lat="48.7336" lon="2.50456">
        <ele>143.34</ele>
        <time>2018-12-03T13:54:34Z</time>
      </trkpt>
      <trkpt lat="48.7336" lon="2.50449">
        <ele>143.313</ele>
        <time>2018-12-03T13:54:38Z</time>
      </trkpt>
      <trkpt lat="48.73358" lon="2.50442">
        <ele>143.284</ele>
        <time>2018-12-03T13:54:43Z</time>
      </trkpt>
      <trkpt lat="48.73355" lon="2.50436">
        <ele>143.257</ele>
        <time>2018-12-03T13:54:49Z</time>
      </trkpt>
      <trkpt lat="48.73354" lon="2.50428">
        <ele>143.224</ele>
        <time>2018-12-03T13:54:54Z</time>
      </trkpt>
      <trkpt lat="48.73356" lon="2.50421">
        <ele>143.196</ele>
        <time>2018-12-03T13:54:58Z</time>
      </trkpt>
      <trkpt lat="48.73357" lon="2.50415">
        <ele>143.178</ele>
        <time>2018-12-03T13:55:01Z</time>
      </trkpt>
      <trkpt lat="48.73357" lon="2.50407">
        <ele>143.155</ele>
        <time>2018-12-03T13:55:05Z</time>
      </trkpt>
      <trkpt lat="48.73358" lon="2.50398">
        <ele>143.125</ele>
        <time>2018-12-03T13:55:11Z</time>
      </trkpt>
      <trkpt lat="48.73357" lon="2.50389">
        <ele>143.113</ele>
        <time>2018-12-03T13:55:15Z</time>
      </trkpt>
      <trkpt lat="48.73357" lon="2.50382">
        <ele>143.106</ele>
        <time>2018-12-03T13:55:18Z</time>
      </trkpt>
      <trkpt lat="48.73359" lon="2.50374">
        <ele>143.099</ele>
        <time>2018-12-03T13:55:22Z</time>
      </trkpt>
      <trkpt lat="48.73359" lon="2.50365">
        <ele>143.091</ele>
        <time>2018-12-03T13:55:26Z</time>
      </trkpt>
      <trkpt lat="48.7336" lon="2.50358">
        <ele>143.087</ele>
        <time>2018-12-03T13:55:31Z</time>
      </trkpt>
      <trkpt lat="48.7336" lon="2.50354">
        <ele>143.084</ele>
        <time>2018-12-03T13:55:34Z</time>
      </trkpt>
      <trkpt lat="48.7336" lon="2.5035">
        <ele>143.082</ele>
        <time>2018-12-03T13:55:37Z</time>
      </trkpt>
      <trkpt lat="48.73357" lon="2.50345">
        <ele>143.08</ele>
        <time>2018-12-03T13:55:43Z</time>
      </trkpt>
      <trkpt lat="48.73354" lon="2.50341">
        <ele>143.083</ele>
        <time>2018-12-03T13:55:48Z</time>
      </trkpt>
      <trkpt lat="48.73351" lon="2.50335">
        <ele>143.088</ele>
        <time>2018-12-03T13:55:54Z</time>
      </trkpt>
      <trkpt lat="48.7335" lon="2.5033">
        <ele>143.096</ele>
        <time>2018-12-03T13:55:59Z</time>
      </trkpt>
      <trkpt lat="48.73352" lon="2.50324">
        <ele>143.11</ele>
        <time>2018-12-03T13:56:04Z</time>
      </trkpt>
      <trkpt lat="48.73354" lon="2.50316">
        <ele>143.116</ele>
        <time>2018-12-03T13:56:07Z</time>
      </trkpt>
      <trkpt lat="48.73354" lon="2.50312">
        <ele>143.123</ele>
        <time>2018-12-03T13:56:09Z</time>
      </trkpt>
      <trkpt lat="48.73359" lon="2.50305">
        <ele>143.13</ele>
        <time>2018-12-03T13:56:12Z</time>
      </trkpt>
      <trkpt lat="48.73361" lon="2.50297">
        <ele>143.14</ele>
        <time>2018-12-03T13:56:16Z</time>
      </trkpt>
      <trkpt lat="48.73361" lon="2.50297">
        <ele>91</ele>
        <time>2018-12-03T13:56:23Z</time>
      </trkpt>
      <trkpt lat="48.73361" lon="2.50297">
        <ele>91</ele>
        <time>2018-12-03T14:00:45Z</time>
      </trkpt>
      <trkpt lat="48.7335" lon="2.50265">
        <ele>143.506</ele>
        <time>2018-12-03T14:00:45Z</time>
      </trkpt>
      <trkpt lat="48.7335" lon="2.50261">
        <ele>143.558</ele>
        <time>2018-12-03T14:00:47Z</time>
      </trkpt>
      <trkpt lat="48.73349" lon="2.50254">
        <ele>143.647</ele>
        <time>2018-12-03T14:00:50Z</time>
      </trkpt>
      <trkpt lat="48.73349" lon="2.5025">
        <ele>143.704</ele>
        <time>2018-12-03T14:00:52Z</time>
      </trkpt>
      <trkpt lat="48.73351" lon="2.50243">
        <ele>143.791</ele>
        <time>2018-12-03T14:00:55Z</time>
      </trkpt>
      <trkpt lat="48.73353" lon="2.50237">
        <ele>143.947</ele>
        <time>2018-12-03T14:01:00Z</time>
      </trkpt>
      <trkpt lat="48.73355" lon="2.5023">
        <ele>144.082</ele>
        <time>2018-12-03T14:01:04Z</time>
      </trkpt>
      <trkpt lat="48.73356" lon="2.50227">
        <ele>144.119</ele>
        <time>2018-12-03T14:01:05Z</time>
      </trkpt>
      <trkpt lat="48.73357" lon="2.50224">
        <ele>144.156</ele>
        <time>2018-12-03T14:01:06Z</time>
      </trkpt>
      <trkpt lat="48.73358" lon="2.50218">
        <ele>144.272</ele>
        <time>2018-12-03T14:01:09Z</time>
      </trkpt>
      <trkpt lat="48.73359" lon="2.50211">
        <ele>144.384</ele>
        <time>2018-12-03T14:01:12Z</time>
      </trkpt>
      <trkpt lat="48.73361" lon="2.50204">
        <ele>144.495</ele>
        <time>2018-12-03T14:01:15Z</time>
      </trkpt>
      <trkpt lat="48.73364" lon="2.50195">
        <ele>144.747</ele>
        <time>2018-12-03T14:01:22Z</time>
      </trkpt>
      <trkpt lat="48.73366" lon="2.50192">
        <ele>144.784</ele>
        <time>2018-12-03T14:01:23Z</time>
      </trkpt>
      <trkpt lat="48.73367" lon="2.50185">
        <ele>144.97</ele>
        <time>2018-12-03T14:01:28Z</time>
      </trkpt>
      <trkpt lat="48.73368" lon="2.50176">
        <ele>145.137</ele>
        <time>2018-12-03T14:01:33Z</time>
      </trkpt>
      <trkpt lat="48.7337" lon="2.50167">
        <ele>145.228</ele>
        <time>2018-12-03T14:01:36Z</time>
      </trkpt>
      <trkpt lat="48.73371" lon="2.50162">
        <ele>145.282</ele>
        <time>2018-12-03T14:01:38Z</time>
      </trkpt>
      <trkpt lat="48.7337" lon="2.50155">
        <ele>145.355</ele>
        <time>2018-12-03T14:01:41Z</time>
      </trkpt>
      <trkpt lat="48.73371" lon="2.50147">
        <ele>145.448</ele>
        <time>2018-12-03T14:01:45Z</time>
      </trkpt>
      <trkpt lat="48.73371" lon="2.50142">
        <ele>145.515</ele>
        <time>2018-12-03T14:01:48Z</time>
      </trkpt>
      <trkpt lat="48.73372" lon="2.50137">
        <ele>145.578</ele>
        <time>2018-12-03T14:01:51Z</time>
      </trkpt>
      <trkpt lat="48.73373" lon="2.50132">
        <ele>145.622</ele>
        <time>2018-12-03T14:01:53Z</time>
      </trkpt>
      <trkpt lat="48.73374" lon="2.50128">
        <ele>145.684</ele>
        <time>2018-12-03T14:01:56Z</time>
      </trkpt>
      <trkpt lat="48.73374" lon="2.50119">
        <ele>145.737</ele>
        <time>2018-12-03T14:01:59Z</time>
      </trkpt>
      <trkpt lat="48.73373" lon="2.5011">
        <ele>145.809</ele>
        <time>2018-12-03T14:02:03Z</time>
      </trkpt>
      <trkpt lat="48.73374" lon="2.50102">
        <ele>145.893</ele>
        <time>2018-12-03T14:02:08Z</time>
      </trkpt>
      <trkpt lat="48.73375" lon="2.50094">
        <ele>145.935</ele>
        <time>2018-12-03T14:02:11Z</time>
      </trkpt>
      <trkpt lat="48.73375" lon="2.50087">
        <ele>145.983</ele>
        <time>2018-12-03T14:02:15Z</time>
      </trkpt>
      <trkpt lat="48.73374" lon="2.50083">
        <ele>146.011</ele>
        <time>2018-12-03T14:02:18Z</time>
      </trkpt>
      <trkpt lat="48.73376" lon="2.50074">
        <ele>146.023</ele>
        <time>2018-12-03T14:02:25Z</time>
      </trkpt>
      <trkpt lat="48.73379" lon="2.50066">
        <ele>146.002</ele>
        <time>2018-12-03T14:02:31Z</time>
      </trkpt>
      <trkpt lat="48.73381" lon="2.5006">
        <ele>145.985</ele>
        <time>2018-12-03T14:02:34Z</time>
      </trkpt>
      <trkpt lat="48.73384" lon="2.50053">
        <ele>145.96</ele>
        <time>2018-12-03T14:02:37Z</time>
      </trkpt>
      <trkpt lat="48.73385" lon="2.50048">
        <ele>145.943</ele>
        <time>2018-12-03T14:02:39Z</time>
      </trkpt>
      <trkpt lat="48.73386" lon="2.50041">
        <ele>145.911</ele>
        <time>2018-12-03T14:02:42Z</time>
      </trkpt>
      <trkpt lat="48.73386" lon="2.50037">
        <ele>145.89</ele>
        <time>2018-12-03T14:02:44Z</time>
      </trkpt>
      <trkpt lat="48.73387" lon="2.50033">
        <ele>145.855</ele>
        <time>2018-12-03T14:02:47Z</time>
      </trkpt>
      <trkpt lat="48.73386" lon="2.50026">
        <ele>145.804</ele>
        <time>2018-12-03T14:02:51Z</time>
      </trkpt>
      <trkpt lat="48.73387" lon="2.50018">
        <ele>145.735</ele>
        <time>2018-12-03T14:02:56Z</time>
      </trkpt>
      <trkpt lat="48.73387" lon="2.50014">
        <ele>145.678</ele>
        <time>2018-12-03T14:03:00Z</time>
      </trkpt>
      <trkpt lat="48.73386" lon="2.50007">
        <ele>145.637</ele>
        <time>2018-12-03T14:03:03Z</time>
      </trkpt>
      <trkpt lat="48.73386" lon="2.50002">
        <ele>145.598</ele>
        <time>2018-12-03T14:03:06Z</time>
      </trkpt>
      <trkpt lat="48.73384" lon="2.49995">
        <ele>145.549</ele>
        <time>2018-12-03T14:03:10Z</time>
      </trkpt>
      <trkpt lat="48.73382" lon="2.49988">
        <ele>145.505</ele>
        <time>2018-12-03T14:03:14Z</time>
      </trkpt>
      <trkpt lat="48.7338" lon="2.49981">
        <ele>145.467</ele>
        <time>2018-12-03T14:03:18Z</time>
      </trkpt>
      <trkpt lat="48.7338" lon="2.49974">
        <ele>145.436</ele>
        <time>2018-12-03T14:03:22Z</time>
      </trkpt>
      <trkpt lat="48.7338" lon="2.49969">
        <ele>145.414</ele>
        <time>2018-12-03T14:03:25Z</time>
      </trkpt>
      <trkpt lat="48.7338" lon="2.49962">
        <ele>145.386</ele>
        <time>2018-12-03T14:03:29Z</time>
      </trkpt>
      <trkpt lat="48.73378" lon="2.49954">
        <ele>145.349</ele>
        <time>2018-12-03T14:03:34Z</time>
      </trkpt>
      <trkpt lat="48.73379" lon="2.49947">
        <ele>145.317</ele>
        <time>2018-12-03T14:03:38Z</time>
      </trkpt>
      <trkpt lat="48.7338" lon="2.49942">
        <ele>145.292</ele>
        <time>2018-12-03T14:03:41Z</time>
      </trkpt>
      <trkpt lat="48.7338" lon="2.49935">
        <ele>145.252</ele>
        <time>2018-12-03T14:03:45Z</time>
      </trkpt>
      <trkpt lat="48.73381" lon="2.49928">
        <ele>145.205</ele>
        <time>2018-12-03T14:03:49Z</time>
      </trkpt>
      <trkpt lat="48.73382" lon="2.49919">
        <ele>145.133</ele>
        <time>2018-12-03T14:03:54Z</time>
      </trkpt>
      <trkpt lat="48.73383" lon="2.49913">
        <ele>145.074</ele>
        <time>2018-12-03T14:03:58Z</time>
      </trkpt>
      <trkpt lat="48.73384" lon="2.49907">
        <ele>145.01</ele>
        <time>2018-12-03T14:04:02Z</time>
      </trkpt>
      <trkpt lat="48.73386" lon="2.499">
        <ele>144.937</ele>
        <time>2018-12-03T14:04:06Z</time>
      </trkpt>
      <trkpt lat="48.73386" lon="2.49892">
        <ele>144.858</ele>
        <time>2018-12-03T14:04:10Z</time>
      </trkpt>
      <trkpt lat="48.73386" lon="2.49884">
        <ele>144.796</ele>
        <time>2018-12-03T14:04:13Z</time>
      </trkpt>
      <trkpt lat="48.73386" lon="2.49877">
        <ele>144.717</ele>
        <time>2018-12-03T14:04:17Z</time>
      </trkpt>
      <trkpt lat="48.73384" lon="2.4987">
        <ele>144.639</ele>
        <time>2018-12-03T14:04:21Z</time>
      </trkpt>
      <trkpt lat="48.73383" lon="2.49864">
        <ele>144.579</ele>
        <time>2018-12-03T14:04:24Z</time>
      </trkpt>
      <trkpt lat="48.73382" lon="2.49855">
        <ele>144.497</ele>
        <time>2018-12-03T14:04:28Z</time>
      </trkpt>
      <trkpt lat="48.73384" lon="2.49848">
        <ele>144.413</ele>
        <time>2018-12-03T14:04:32Z</time>
      </trkpt>
      <trkpt lat="48.73383" lon="2.49839">
        <ele>144.303</ele>
        <time>2018-12-03T14:04:37Z</time>
      </trkpt>
      <trkpt lat="48.73382" lon="2.49831">
        <ele>144.199</ele>
        <time>2018-12-03T14:04:42Z</time>
      </trkpt>
      <trkpt lat="48.73382" lon="2.49822">
        <ele>144.117</ele>
        <time>2018-12-03T14:04:46Z</time>
      </trkpt>
      <trkpt lat="48.73382" lon="2.49815">
        <ele>144.036</ele>
        <time>2018-12-03T14:04:50Z</time>
      </trkpt>
      <trkpt lat="48.73382" lon="2.49811">
        <ele>143.976</ele>
        <time>2018-12-03T14:04:53Z</time>
      </trkpt>
      <trkpt lat="48.73384" lon="2.49803">
        <ele>143.858</ele>
        <time>2018-12-03T14:04:59Z</time>
      </trkpt>
      <trkpt lat="48.73384" lon="2.49799">
        <ele>143.82</ele>
        <time>2018-12-03T14:05:01Z</time>
      </trkpt>
      <trkpt lat="48.73385" lon="2.49795">
        <ele>143.766</ele>
        <time>2018-12-03T14:05:04Z</time>
      </trkpt>
      <trkpt lat="48.73385" lon="2.49786">
        <ele>143.698</ele>
        <time>2018-12-03T14:05:08Z</time>
      </trkpt>
      <trkpt lat="48.73385" lon="2.49783">
        <ele>143.665</ele>
        <time>2018-12-03T14:05:10Z</time>
      </trkpt>
      <trkpt lat="48.73385" lon="2.49776">
        <ele>143.586</ele>
        <time>2018-12-03T14:05:15Z</time>
      </trkpt>
      <trkpt lat="48.73387" lon="2.49769">
        <ele>143.523</ele>
        <time>2018-12-03T14:05:19Z</time>
      </trkpt>
      <trkpt lat="48.73389" lon="2.49762">
        <ele>143.469</ele>
        <time>2018-12-03T14:05:23Z</time>
      </trkpt>
      <trkpt lat="48.73391" lon="2.49758">
        <ele>143.43</ele>
        <time>2018-12-03T14:05:26Z</time>
      </trkpt>
      <trkpt lat="48.73392" lon="2.49754">
        <ele>143.406</ele>
        <time>2018-12-03T14:05:28Z</time>
      </trkpt>
      <trkpt lat="48.73393" lon="2.49747">
        <ele>143.364</ele>
        <time>2018-12-03T14:05:32Z</time>
      </trkpt>
      <trkpt lat="48.73395" lon="2.4974">
        <ele>143.32</ele>
        <time>2018-12-03T14:05:36Z</time>
      </trkpt>
      <trkpt lat="48.73396" lon="2.49732">
        <ele>143.268</ele>
        <time>2018-12-03T14:05:41Z</time>
      </trkpt>
      <trkpt lat="48.73397" lon="2.49729">
        <ele>143.246</ele>
        <time>2018-12-03T14:05:43Z</time>
      </trkpt>
      <trkpt lat="48.73401" lon="2.49726">
        <ele>143.188</ele>
        <time>2018-12-03T14:05:48Z</time>
      </trkpt>
      <trkpt lat="48.73405" lon="2.49721">
        <ele>143.134</ele>
        <time>2018-12-03T14:05:53Z</time>
      </trkpt>
      <trkpt lat="48.73408" lon="2.49715">
        <ele>143.081</ele>
        <time>2018-12-03T14:05:59Z</time>
      </trkpt>
      <trkpt lat="48.73408" lon="2.49707">
        <ele>143.048</ele>
        <time>2018-12-03T14:06:05Z</time>
      </trkpt>
      <trkpt lat="48.73405" lon="2.49701">
        <ele>143.009</ele>
        <time>2018-12-03T14:06:13Z</time>
      </trkpt>
      <trkpt lat="48.73404" lon="2.49694">
        <ele>143.005</ele>
        <time>2018-12-03T14:06:14Z</time>
      </trkpt>
      <trkpt lat="48.73409" lon="2.49671">
        <ele>142.994</ele>
        <time>2018-12-03T14:06:17Z</time>
      </trkpt>
      <trkpt lat="48.73409" lon="2.49671">
        <ele>90.6</ele>
        <time>2018-12-03T14:06:25Z</time>
      </trkpt>
      <trkpt lat="48.73409" lon="2.49671">
        <ele>90.6</ele>
        <time>2018-12-03T14:06:32Z</time>
      </trkpt>
      <trkpt lat="48.73397" lon="2.49668">
        <ele>142.982</ele>
        <time>2018-12-03T14:06:32Z</time>
      </trkpt>
      <trkpt lat="48.73392" lon="2.49665">
        <ele>142.964</ele>
        <time>2018-12-03T14:06:37Z</time>
      </trkpt>
      <trkpt lat="48.73392" lon="2.49665">
        <ele>91.8</ele>
        <time>2018-12-03T14:06:44Z</time>
      </trkpt>
      <trkpt lat="48.73392" lon="2.49665">
        <ele>91.8</ele>
        <time>2018-12-03T14:07:11Z</time>
      </trkpt>
      <trkpt lat="48.73382" lon="2.49648">
        <ele>143.013</ele>
        <time>2018-12-03T14:07:11Z</time>
      </trkpt>
      <trkpt lat="48.73382" lon="2.49642">
        <ele>143.025</ele>
        <time>2018-12-03T14:07:15Z</time>
      </trkpt>
      <trkpt lat="48.73382" lon="2.49634">
        <ele>143.035</ele>
        <time>2018-12-03T14:07:19Z</time>
      </trkpt>
      <trkpt lat="48.73383" lon="2.49627">
        <ele>143.041</ele>
        <time>2018-12-03T14:07:23Z</time>
      </trkpt>
      <trkpt lat="48.73384" lon="2.4962">
        <ele>143.046</ele>
        <time>2018-12-03T14:07:27Z</time>
      </trkpt>
      <trkpt lat="48.73384" lon="2.49613">
        <ele>143.052</ele>
        <time>2018-12-03T14:07:31Z</time>
      </trkpt>
      <trkpt lat="48.73384" lon="2.49609">
        <ele>143.056</ele>
        <time>2018-12-03T14:07:34Z</time>
      </trkpt>
      <trkpt lat="48.73387" lon="2.49601">
        <ele>143.056</ele>
        <time>2018-12-03T14:07:39Z</time>
      </trkpt>
      <trkpt lat="48.73388" lon="2.49598">
        <ele>143.053</ele>
        <time>2018-12-03T14:07:41Z</time>
      </trkpt>
      <trkpt lat="48.7339" lon="2.49591">
        <ele>143.037</ele>
        <time>2018-12-03T14:07:47Z</time>
      </trkpt>
      <trkpt lat="48.73392" lon="2.49582">
        <ele>143.02</ele>
        <time>2018-12-03T14:07:51Z</time>
      </trkpt>
      <trkpt lat="48.73396" lon="2.49575">
        <ele>142.997</ele>
        <time>2018-12-03T14:07:55Z</time>
      </trkpt>
      <trkpt lat="48.734" lon="2.4957">
        <ele>142.974</ele>
        <time>2018-12-03T14:07:59Z</time>
      </trkpt>
      <trkpt lat="48.73403" lon="2.49564">
        <ele>142.955</ele>
        <time>2018-12-03T14:08:02Z</time>
      </trkpt>
      <trkpt lat="48.73404" lon="2.49556">
        <ele>142.937</ele>
        <time>2018-12-03T14:08:05Z</time>
      </trkpt>
      <trkpt lat="48.73405" lon="2.49551">
        <ele>142.923</ele>
        <time>2018-12-03T14:08:07Z</time>
      </trkpt>
      <trkpt lat="48.73404" lon="2.49542">
        <ele>142.894</ele>
        <time>2018-12-03T14:08:11Z</time>
      </trkpt>
      <trkpt lat="48.73406" lon="2.49536">
        <ele>142.866</ele>
        <time>2018-12-03T14:08:15Z</time>
      </trkpt>
      <trkpt lat="48.73406" lon="2.49532">
        <ele>142.852</ele>
        <time>2018-12-03T14:08:17Z</time>
      </trkpt>
      <trkpt lat="48.73408" lon="2.49525">
        <ele>142.826</ele>
        <time>2018-12-03T14:08:20Z</time>
      </trkpt>
      <trkpt lat="48.73409" lon="2.49519">
        <ele>142.8</ele>
        <time>2018-12-03T14:08:23Z</time>
      </trkpt>
      <trkpt lat="48.73409" lon="2.49511">
        <ele>142.769</ele>
        <time>2018-12-03T14:08:27Z</time>
      </trkpt>
      <trkpt lat="48.73412" lon="2.49504">
        <ele>142.739</ele>
        <time>2018-12-03T14:08:31Z</time>
      </trkpt>
      <trkpt lat="48.73414" lon="2.495">
        <ele>142.725</ele>
        <time>2018-12-03T14:08:33Z</time>
      </trkpt>
      <trkpt lat="48.73414" lon="2.49492">
        <ele>142.702</ele>
        <time>2018-12-03T14:08:37Z</time>
      </trkpt>
      <trkpt lat="48.73414" lon="2.49486">
        <ele>142.686</ele>
        <time>2018-12-03T14:08:40Z</time>
      </trkpt>
      <trkpt lat="48.73414" lon="2.49481">
        <ele>142.675</ele>
        <time>2018-12-03T14:08:42Z</time>
      </trkpt>
      <trkpt lat="48.73414" lon="2.49477">
        <ele>142.666</ele>
        <time>2018-12-03T14:08:44Z</time>
      </trkpt>
      <trkpt lat="48.73413" lon="2.4947">
        <ele>142.651</ele>
        <time>2018-12-03T14:08:47Z</time>
      </trkpt>
      <trkpt lat="48.73413" lon="2.49466">
        <ele>142.64</ele>
        <time>2018-12-03T14:08:49Z</time>
      </trkpt>
      <trkpt lat="48.73416" lon="2.4946">
        <ele>142.618</ele>
        <time>2018-12-03T14:08:53Z</time>
      </trkpt>
      <trkpt lat="48.73416" lon="2.49453">
        <ele>142.595</ele>
        <time>2018-12-03T14:08:58Z</time>
      </trkpt>
      <trkpt lat="48.73417" lon="2.49446">
        <ele>142.57</ele>
        <time>2018-12-03T14:09:02Z</time>
      </trkpt>
      <trkpt lat="48.7342" lon="2.49438">
        <ele>142.541</ele>
        <time>2018-12-03T14:09:07Z</time>
      </trkpt>
      <trkpt lat="48.73422" lon="2.49432">
        <ele>142.525</ele>
        <time>2018-12-03T14:09:11Z</time>
      </trkpt>
      <trkpt lat="48.73423" lon="2.49424">
        <ele>142.51</ele>
        <time>2018-12-03T14:09:15Z</time>
      </trkpt>
      <trkpt lat="48.73424" lon="2.49416">
        <ele>142.489</ele>
        <time>2018-12-03T14:09:21Z</time>
      </trkpt>
      <trkpt lat="48.73424" lon="2.49411">
        <ele>142.478</ele>
        <time>2018-12-03T14:09:24Z</time>
      </trkpt>
      <trkpt lat="48.73426" lon="2.49404">
        <ele>142.463</ele>
        <time>2018-12-03T14:09:30Z</time>
      </trkpt>
      <trkpt lat="48.73425" lon="2.49396">
        <ele>142.454</ele>
        <time>2018-12-03T14:09:35Z</time>
      </trkpt>
      <trkpt lat="48.73425" lon="2.49392">
        <ele>142.448</ele>
        <time>2018-12-03T14:09:38Z</time>
      </trkpt>
      <trkpt lat="48.73422" lon="2.49386">
        <ele>142.436</ele>
        <time>2018-12-03T14:09:42Z</time>
      </trkpt>
      <trkpt lat="48.7342" lon="2.49379">
        <ele>142.423</ele>
        <time>2018-12-03T14:09:46Z</time>
      </trkpt>
      <trkpt lat="48.7342" lon="2.49379">
        <ele>90.4</ele>
        <time>2018-12-03T14:09:54Z</time>
      </trkpt>
      <trkpt lat="48.7342" lon="2.49379">
        <ele>90.4</ele>
        <time>2018-12-03T14:10:00Z</time>
      </trkpt>
      <trkpt lat="48.73422" lon="2.49365">
        <ele>142.404</ele>
        <time>2018-12-03T14:10:00Z</time>
      </trkpt>
      <trkpt lat="48.73422" lon="2.49365">
        <ele>142.404</ele>
        <time>2018-12-03T14:10:07Z</time>
      </trkpt>
      <trkpt lat="48.73422" lon="2.49365">
        <ele>89.9</ele>
        <time>2018-12-03T14:10:07Z</time>
      </trkpt>
      <trkpt lat="48.73422" lon="2.49365">
        <ele>89.9</ele>
        <time>2018-12-03T14:10:46Z</time>
      </trkpt>
      <trkpt lat="48.73394" lon="2.49354">
        <ele>142.36</ele>
        <time>2018-12-03T14:10:46Z</time>
      </trkpt>
      <trkpt lat="48.73394" lon="2.49354">
        <ele>142.36</ele>
        <time>2018-12-03T14:16:11Z</time>
      </trkpt>
      <trkpt lat="48.73389" lon="2.49357">
        <ele>142.979</ele>
        <time>2018-12-03T14:16:33Z</time>
      </trkpt>
      <trkpt lat="48.73386" lon="2.49347">
        <ele>142.961</ele>
        <time>2018-12-03T14:16:48Z</time>
      </trkpt>
      <trkpt lat="48.73385" lon="2.49339">
        <ele>142.963</ele>
        <time>2018-12-03T14:16:54Z</time>
      </trkpt>
      <trkpt lat="48.73382" lon="2.49334">
        <ele>142.971</ele>
        <time>2018-12-03T14:16:59Z</time>
      </trkpt>
      <trkpt lat="48.73379" lon="2.49328">
        <ele>142.978</ele>
        <time>2018-12-03T14:17:02Z</time>
      </trkpt>
      <trkpt lat="48.73378" lon="2.49321">
        <ele>142.987</ele>
        <time>2018-12-03T14:17:05Z</time>
      </trkpt>
      <trkpt lat="48.73376" lon="2.49314">
        <ele>142.996</ele>
        <time>2018-12-03T14:17:08Z</time>
      </trkpt>
      <trkpt lat="48.73372" lon="2.49307">
        <ele>143.016</ele>
        <time>2018-12-03T14:17:14Z</time>
      </trkpt>
      <trkpt lat="48.73369" lon="2.49301">
        <ele>143.022</ele>
        <time>2018-12-03T14:17:16Z</time>
      </trkpt>
      <trkpt lat="48.73369" lon="2.49292">
        <ele>143.044</ele>
        <time>2018-12-03T14:17:21Z</time>
      </trkpt>
      <trkpt lat="48.73366" lon="2.49284">
        <ele>143.063</ele>
        <time>2018-12-03T14:17:25Z</time>
      </trkpt>
      <trkpt lat="48.73365" lon="2.49279">
        <ele>143.073</ele>
        <time>2018-12-03T14:17:27Z</time>
      </trkpt>
      <trkpt lat="48.73363" lon="2.49275">
        <ele>143.087</ele>
        <time>2018-12-03T14:17:30Z</time>
      </trkpt>
      <trkpt lat="48.7336" lon="2.49268">
        <ele>143.102</ele>
        <time>2018-12-03T14:17:33Z</time>
      </trkpt>
      <trkpt lat="48.73358" lon="2.4926">
        <ele>143.124</ele>
        <time>2018-12-03T14:17:37Z</time>
      </trkpt>
      <trkpt lat="48.73356" lon="2.49254">
        <ele>143.145</ele>
        <time>2018-12-03T14:17:41Z</time>
      </trkpt>
      <trkpt lat="48.73356" lon="2.49246">
        <ele>143.167</ele>
        <time>2018-12-03T14:17:45Z</time>
      </trkpt>
      <trkpt lat="48.73355" lon="2.49241">
        <ele>143.182</ele>
        <time>2018-12-03T14:17:48Z</time>
      </trkpt>
      <trkpt lat="48.73354" lon="2.49234">
        <ele>143.2</ele>
        <time>2018-12-03T14:17:51Z</time>
      </trkpt>
      <trkpt lat="48.73354" lon="2.49231">
        <ele>143.214</ele>
        <time>2018-12-03T14:17:53Z</time>
      </trkpt>
      <trkpt lat="48.73354" lon="2.49222">
        <ele>143.256</ele>
        <time>2018-12-03T14:17:58Z</time>
      </trkpt>
      <trkpt lat="48.73354" lon="2.49218">
        <ele>143.287</ele>
        <time>2018-12-03T14:18:02Z</time>
      </trkpt>
      <trkpt lat="48.73352" lon="2.49209">
        <ele>143.31</ele>
        <time>2018-12-03T14:18:05Z</time>
      </trkpt>
      <trkpt lat="48.73351" lon="2.49204">
        <ele>143.324</ele>
        <time>2018-12-03T14:18:07Z</time>
      </trkpt>
      <trkpt lat="48.7335" lon="2.49201">
        <ele>143.338</ele>
        <time>2018-12-03T14:18:09Z</time>
      </trkpt>
      <trkpt lat="48.73349" lon="2.49195">
        <ele>143.363</ele>
        <time>2018-12-03T14:18:13Z</time>
      </trkpt>
      <trkpt lat="48.7335" lon="2.49186">
        <ele>143.398</ele>
        <time>2018-12-03T14:18:19Z</time>
      </trkpt>
      <trkpt lat="48.7335" lon="2.49182">
        <ele>143.419</ele>
        <time>2018-12-03T14:18:22Z</time>
      </trkpt>
      <trkpt lat="48.73346" lon="2.49175">
        <ele>143.462</ele>
        <time>2018-12-03T14:18:28Z</time>
      </trkpt>
      <trkpt lat="48.73347" lon="2.49168">
        <ele>143.477</ele>
        <time>2018-12-03T14:18:30Z</time>
      </trkpt>
      <trkpt lat="48.73345" lon="2.4916">
        <ele>143.5</ele>
        <time>2018-12-03T14:18:33Z</time>
      </trkpt>
      <trkpt lat="48.73343" lon="2.49153">
        <ele>143.523</ele>
        <time>2018-12-03T14:18:36Z</time>
      </trkpt>
      <trkpt lat="48.73344" lon="2.49145">
        <ele>143.552</ele>
        <time>2018-12-03T14:18:40Z</time>
      </trkpt>
      <trkpt lat="48.73343" lon="2.4914">
        <ele>143.575</ele>
        <time>2018-12-03T14:18:43Z</time>
      </trkpt>
      <trkpt lat="48.73342" lon="2.49133">
        <ele>143.597</ele>
        <time>2018-12-03T14:18:46Z</time>
      </trkpt>
      <trkpt lat="48.73341" lon="2.49126">
        <ele>143.629</ele>
        <time>2018-12-03T14:18:51Z</time>
      </trkpt>
      <trkpt lat="48.7334" lon="2.49118">
        <ele>143.649</ele>
        <time>2018-12-03T14:18:55Z</time>
      </trkpt>
      <trkpt lat="48.73338" lon="2.4911">
        <ele>143.677</ele>
        <time>2018-12-03T14:19:01Z</time>
      </trkpt>
      <trkpt lat="48.73336" lon="2.49103">
        <ele>143.702</ele>
        <time>2018-12-03T14:19:06Z</time>
      </trkpt>
      <trkpt lat="48.73333" lon="2.49096">
        <ele>143.72</ele>
        <time>2018-12-03T14:19:10Z</time>
      </trkpt>
      <trkpt lat="48.73331" lon="2.49091">
        <ele>143.735</ele>
        <time>2018-12-03T14:19:13Z</time>
      </trkpt>
      <trkpt lat="48.7333" lon="2.49082">
        <ele>143.761</ele>
        <time>2018-12-03T14:19:18Z</time>
      </trkpt>
      <trkpt lat="48.73329" lon="2.49077">
        <ele>143.778</ele>
        <time>2018-12-03T14:19:21Z</time>
      </trkpt>
      <trkpt lat="48.73329" lon="2.4907">
        <ele>143.795</ele>
        <time>2018-12-03T14:19:24Z</time>
      </trkpt>
      <trkpt lat="48.73327" lon="2.49063">
        <ele>143.811</ele>
        <time>2018-12-03T14:19:27Z</time>
      </trkpt>
      <trkpt lat="48.73327" lon="2.49056">
        <ele>143.829</ele>
        <time>2018-12-03T14:19:30Z</time>
      </trkpt>
      <trkpt lat="48.73325" lon="2.49049">
        <ele>143.854</ele>
        <time>2018-12-03T14:19:34Z</time>
      </trkpt>
      <trkpt lat="48.73325" lon="2.4904">
        <ele>143.903</ele>
        <time>2018-12-03T14:19:41Z</time>
      </trkpt>
      <trkpt lat="48.73326" lon="2.49035">
        <ele>143.917</ele>
        <time>2018-12-03T14:19:43Z</time>
      </trkpt>
      <trkpt lat="48.73326" lon="2.49031">
        <ele>143.93</ele>
        <time>2018-12-03T14:19:45Z</time>
      </trkpt>
      <trkpt lat="48.73324" lon="2.49023">
        <ele>143.947</ele>
        <time>2018-12-03T14:19:48Z</time>
      </trkpt>
      <trkpt lat="48.73324" lon="2.49015">
        <ele>143.971</ele>
        <time>2018-12-03T14:19:52Z</time>
      </trkpt>
      <trkpt lat="48.73324" lon="2.49008">
        <ele>143.996</ele>
        <time>2018-12-03T14:19:56Z</time>
      </trkpt>
      <trkpt lat="48.73323" lon="2.49001">
        <ele>144.028</ele>
        <time>2018-12-03T14:20:01Z</time>
      </trkpt>
      <trkpt lat="48.73323" lon="2.48994">
        <ele>144.049</ele>
        <time>2018-12-03T14:20:04Z</time>
      </trkpt>
      <trkpt lat="48.73323" lon="2.4899">
        <ele>144.063</ele>
        <time>2018-12-03T14:20:06Z</time>
      </trkpt>
      <trkpt lat="48.73322" lon="2.48981">
        <ele>144.097</ele>
        <time>2018-12-03T14:20:11Z</time>
      </trkpt>
      <trkpt lat="48.73321" lon="2.48973">
        <ele>144.127</ele>
        <time>2018-12-03T14:20:15Z</time>
      </trkpt>
      <trkpt lat="48.7332" lon="2.48965">
        <ele>144.163</ele>
        <time>2018-12-03T14:20:20Z</time>
      </trkpt>
      <trkpt lat="48.73319" lon="2.4896">
        <ele>144.183</ele>
        <time>2018-12-03T14:20:23Z</time>
      </trkpt>
      <trkpt lat="48.73317" lon="2.48954">
        <ele>144.204</ele>
        <time>2018-12-03T14:20:26Z</time>
      </trkpt>
      <trkpt lat="48.73318" lon="2.48945">
        <ele>144.226</ele>
        <time>2018-12-03T14:20:29Z</time>
      </trkpt>
      <trkpt lat="48.73317" lon="2.48936">
        <ele>144.258</ele>
        <time>2018-12-03T14:20:33Z</time>
      </trkpt>
      <trkpt lat="48.73317" lon="2.48932">
        <ele>144.28</ele>
        <time>2018-12-03T14:20:36Z</time>
      </trkpt>
      <trkpt lat="48.73316" lon="2.48924">
        <ele>144.328</ele>
        <time>2018-12-03T14:20:43Z</time>
      </trkpt>
      <trkpt lat="48.73316" lon="2.48917">
        <ele>144.347</ele>
        <time>2018-12-03T14:20:46Z</time>
      </trkpt>
      <trkpt lat="48.73313" lon="2.48912">
        <ele>144.377</ele>
        <time>2018-12-03T14:20:51Z</time>
      </trkpt>
      <trkpt lat="48.73312" lon="2.48904">
        <ele>144.406</ele>
        <time>2018-12-03T14:20:56Z</time>
      </trkpt>
      <trkpt lat="48.73311" lon="2.48899">
        <ele>144.42</ele>
        <time>2018-12-03T14:20:58Z</time>
      </trkpt>
      <trkpt lat="48.73309" lon="2.48892">
        <ele>144.438</ele>
        <time>2018-12-03T14:21:01Z</time>
      </trkpt>
      <trkpt lat="48.73308" lon="2.48888">
        <ele>144.448</ele>
        <time>2018-12-03T14:21:03Z</time>
      </trkpt>
      <trkpt lat="48.73306" lon="2.4888">
        <ele>144.469</ele>
        <time>2018-12-03T14:21:07Z</time>
      </trkpt>
      <trkpt lat="48.73304" lon="2.48873">
        <ele>144.488</ele>
        <time>2018-12-03T14:21:11Z</time>
      </trkpt>
      <trkpt lat="48.73305" lon="2.48865">
        <ele>144.512</ele>
        <time>2018-12-03T14:21:16Z</time>
      </trkpt>
      <trkpt lat="48.73305" lon="2.48858">
        <ele>144.532</ele>
        <time>2018-12-03T14:21:21Z</time>
      </trkpt>
      <trkpt lat="48.73304" lon="2.48847">
        <ele>144.554</ele>
        <time>2018-12-03T14:21:26Z</time>
      </trkpt>
      <trkpt lat="48.73304" lon="2.48844">
        <ele>144.559</ele>
        <time>2018-12-03T14:21:27Z</time>
      </trkpt>
      <trkpt lat="48.73302" lon="2.48837">
        <ele>144.574</ele>
        <time>2018-12-03T14:21:30Z</time>
      </trkpt>
      <trkpt lat="48.73301" lon="2.4883">
        <ele>144.59</ele>
        <time>2018-12-03T14:21:33Z</time>
      </trkpt>
      <trkpt lat="48.733" lon="2.48822">
        <ele>144.61</ele>
        <time>2018-12-03T14:21:37Z</time>
      </trkpt>
      <trkpt lat="48.73298" lon="2.48816">
        <ele>144.624</ele>
        <time>2018-12-03T14:21:40Z</time>
      </trkpt>
      <trkpt lat="48.73296" lon="2.48812">
        <ele>144.639</ele>
        <time>2018-12-03T14:21:43Z</time>
      </trkpt>
      <trkpt lat="48.73295" lon="2.48803">
        <ele>144.662</ele>
        <time>2018-12-03T14:21:48Z</time>
      </trkpt>
      <trkpt lat="48.73294" lon="2.48797">
        <ele>144.684</ele>
        <time>2018-12-03T14:21:53Z</time>
      </trkpt>
      <trkpt lat="48.73291" lon="2.48789">
        <ele>144.704</ele>
        <time>2018-12-03T14:21:59Z</time>
      </trkpt>
      <trkpt lat="48.7329" lon="2.48782">
        <ele>144.715</ele>
        <time>2018-12-03T14:22:03Z</time>
      </trkpt>
      <trkpt lat="48.73287" lon="2.48773">
        <ele>144.724</ele>
        <time>2018-12-03T14:22:07Z</time>
      </trkpt>
      <trkpt lat="48.73285" lon="2.48767">
        <ele>144.734</ele>
        <time>2018-12-03T14:22:10Z</time>
      </trkpt>
      <trkpt lat="48.73283" lon="2.48762">
        <ele>144.742</ele>
        <time>2018-12-03T14:22:12Z</time>
      </trkpt>
      <trkpt lat="48.73283" lon="2.48754">
        <ele>144.757</ele>
        <time>2018-12-03T14:22:15Z</time>
      </trkpt>
      <trkpt lat="48.73285" lon="2.48747">
        <ele>144.774</ele>
        <time>2018-12-03T14:22:18Z</time>
      </trkpt>
      <trkpt lat="48.73285" lon="2.4874">
        <ele>144.798</ele>
        <time>2018-12-03T14:22:23Z</time>
      </trkpt>
      <trkpt lat="48.73284" lon="2.48735">
        <ele>144.817</ele>
        <time>2018-12-03T14:22:26Z</time>
      </trkpt>
      <trkpt lat="48.73282" lon="2.48728">
        <ele>144.836</ele>
        <time>2018-12-03T14:22:29Z</time>
      </trkpt>
      <trkpt lat="48.73279" lon="2.48719">
        <ele>144.861</ele>
        <time>2018-12-03T14:22:33Z</time>
      </trkpt>
      <trkpt lat="48.73278" lon="2.48715">
        <ele>144.867</ele>
        <time>2018-12-03T14:22:34Z</time>
      </trkpt>
      <trkpt lat="48.73277" lon="2.48708">
        <ele>144.887</ele>
        <time>2018-12-03T14:22:37Z</time>
      </trkpt>
      <trkpt lat="48.73276" lon="2.48704">
        <ele>144.902</ele>
        <time>2018-12-03T14:22:39Z</time>
      </trkpt>
      <trkpt lat="48.73275" lon="2.48697">
        <ele>144.933</ele>
        <time>2018-12-03T14:22:43Z</time>
      </trkpt>
      <trkpt lat="48.73274" lon="2.4869">
        <ele>144.97</ele>
        <time>2018-12-03T14:22:48Z</time>
      </trkpt>
      <trkpt lat="48.73274" lon="2.48686">
        <ele>144.991</ele>
        <time>2018-12-03T14:22:51Z</time>
      </trkpt>
      <trkpt lat="48.73273" lon="2.48681">
        <ele>145.006</ele>
        <time>2018-12-03T14:22:53Z</time>
      </trkpt>
      <trkpt lat="48.7327" lon="2.48674">
        <ele>145.033</ele>
        <time>2018-12-03T14:22:57Z</time>
      </trkpt>
      <trkpt lat="48.73268" lon="2.48669">
        <ele>145.05</ele>
        <time>2018-12-03T14:23:05Z</time>
      </trkpt>
      <trkpt lat="48.73267" lon="2.48665">
        <ele>145.055</ele>
        <time>2018-12-03T14:23:07Z</time>
      </trkpt>
      <trkpt lat="48.73266" lon="2.48662">
        <ele>145.116</ele>
        <time>2018-12-03T14:23:46Z</time>
      </trkpt>
      <trkpt lat="48.7326" lon="2.48664">
        <ele>145.156</ele>
        <time>2018-12-03T14:23:57Z</time>
      </trkpt>
      <trkpt lat="48.73256" lon="2.48666">
        <ele>145.181</ele>
        <time>2018-12-03T14:24:05Z</time>
      </trkpt>
      <trkpt lat="48.73253" lon="2.48667">
        <ele>145.191</ele>
        <time>2018-12-03T14:24:10Z</time>
      </trkpt>
      <trkpt lat="48.73247" lon="2.48669">
        <ele>145.203</ele>
        <time>2018-12-03T14:24:14Z</time>
      </trkpt>
      <trkpt lat="48.73243" lon="2.48672">
        <ele>145.214</ele>
        <time>2018-12-03T14:24:18Z</time>
      </trkpt>
      <trkpt lat="48.73237" lon="2.48672">
        <ele>145.231</ele>
        <time>2018-12-03T14:24:24Z</time>
      </trkpt>
      <trkpt lat="48.73233" lon="2.48675">
        <ele>145.244</ele>
        <time>2018-12-03T14:24:27Z</time>
      </trkpt>
      <trkpt lat="48.73229" lon="2.4868">
        <ele>145.257</ele>
        <time>2018-12-03T14:24:30Z</time>
      </trkpt>
      <trkpt lat="48.73224" lon="2.48685">
        <ele>145.266</ele>
        <time>2018-12-03T14:24:34Z</time>
      </trkpt>
      <trkpt lat="48.7322" lon="2.48692">
        <ele>145.277</ele>
        <time>2018-12-03T14:24:38Z</time>
      </trkpt>
      <trkpt lat="48.73214" lon="2.48696">
        <ele>145.287</ele>
        <time>2018-12-03T14:24:42Z</time>
      </trkpt>
      <trkpt lat="48.73209" lon="2.48701">
        <ele>145.297</ele>
        <time>2018-12-03T14:24:46Z</time>
      </trkpt>
      <trkpt lat="48.73205" lon="2.48708">
        <ele>145.303</ele>
        <time>2018-12-03T14:24:49Z</time>
      </trkpt>
      <trkpt lat="48.732" lon="2.48713">
        <ele>145.317</ele>
        <time>2018-12-03T14:24:55Z</time>
      </trkpt>
      <trkpt lat="48.73197" lon="2.48717">
        <ele>145.325</ele>
        <time>2018-12-03T14:24:58Z</time>
      </trkpt>
      <trkpt lat="48.73191" lon="2.48725">
        <ele>145.335</ele>
        <time>2018-12-03T14:25:02Z</time>
      </trkpt>
      <trkpt lat="48.73189" lon="2.48728">
        <ele>145.339</ele>
        <time>2018-12-03T14:25:04Z</time>
      </trkpt>
      <trkpt lat="48.73187" lon="2.48734">
        <ele>145.35</ele>
        <time>2018-12-03T14:25:10Z</time>
      </trkpt>
      <trkpt lat="48.73182" lon="2.48738">
        <ele>145.356</ele>
        <time>2018-12-03T14:25:14Z</time>
      </trkpt>
      <trkpt lat="48.73178" lon="2.48741">
        <ele>145.361</ele>
        <time>2018-12-03T14:25:17Z</time>
      </trkpt>
      <trkpt lat="48.73172" lon="2.48747">
        <ele>145.373</ele>
        <time>2018-12-03T14:25:22Z</time>
      </trkpt>
      <trkpt lat="48.73169" lon="2.48749">
        <ele>145.381</ele>
        <time>2018-12-03T14:25:25Z</time>
      </trkpt>
      <trkpt lat="48.73164" lon="2.48752">
        <ele>145.393</ele>
        <time>2018-12-03T14:25:29Z</time>
      </trkpt>
      <trkpt lat="48.7316" lon="2.48756">
        <ele>145.402</ele>
        <time>2018-12-03T14:25:32Z</time>
      </trkpt>
      <trkpt lat="48.73156" lon="2.48764">
        <ele>145.413</ele>
        <time>2018-12-03T14:25:37Z</time>
      </trkpt>
      <trkpt lat="48.73154" lon="2.4877">
        <ele>145.419</ele>
        <time>2018-12-03T14:25:40Z</time>
      </trkpt>
      <trkpt lat="48.73149" lon="2.48774">
        <ele>145.425</ele>
        <time>2018-12-03T14:25:44Z</time>
      </trkpt>
      <trkpt lat="48.73145" lon="2.48779">
        <ele>145.431</ele>
        <time>2018-12-03T14:25:47Z</time>
      </trkpt>
      <trkpt lat="48.73143" lon="2.48781">
        <ele>145.444</ele>
        <time>2018-12-03T14:25:53Z</time>
      </trkpt>
      <trkpt lat="48.7314" lon="2.48784">
        <ele>145.45</ele>
        <time>2018-12-03T14:25:55Z</time>
      </trkpt>
      <trkpt lat="48.73137" lon="2.48786">
        <ele>145.454</ele>
        <time>2018-12-03T14:25:56Z</time>
      </trkpt>
      <trkpt lat="48.73128" lon="2.48793">
        <ele>145.476</ele>
        <time>2018-12-03T14:26:02Z</time>
      </trkpt>
      <trkpt lat="48.73125" lon="2.488">
        <ele>145.485</ele>
        <time>2018-12-03T14:26:06Z</time>
      </trkpt>
      <trkpt lat="48.7312" lon="2.48805">
        <ele>145.498</ele>
        <time>2018-12-03T14:26:11Z</time>
      </trkpt>
      <trkpt lat="48.73117" lon="2.48811">
        <ele>145.508</ele>
        <time>2018-12-03T14:26:18Z</time>
      </trkpt>
      <trkpt lat="48.73114" lon="2.48814">
        <ele>145.513</ele>
        <time>2018-12-03T14:26:21Z</time>
      </trkpt>
      <trkpt lat="48.73112" lon="2.48818">
        <ele>145.518</ele>
        <time>2018-12-03T14:26:24Z</time>
      </trkpt>
      <trkpt lat="48.73106" lon="2.4882">
        <ele>145.521</ele>
        <time>2018-12-03T14:26:26Z</time>
      </trkpt>
      <trkpt lat="48.73102" lon="2.48823">
        <ele>145.532</ele>
        <time>2018-12-03T14:26:31Z</time>
      </trkpt>
      <trkpt lat="48.73099" lon="2.4883">
        <ele>145.549</ele>
        <time>2018-12-03T14:26:37Z</time>
      </trkpt>
      <trkpt lat="48.73095" lon="2.48839">
        <ele>145.556</ele>
        <time>2018-12-03T14:26:44Z</time>
      </trkpt>
      <trkpt lat="48.73091" lon="2.48844">
        <ele>145.557</ele>
        <time>2018-12-03T14:26:49Z</time>
      </trkpt>
      <trkpt lat="48.73089" lon="2.48847">
        <ele>145.564</ele>
        <time>2018-12-03T14:26:57Z</time>
      </trkpt>
      <trkpt lat="48.73084" lon="2.4885">
        <ele>145.566</ele>
        <time>2018-12-03T14:27:01Z</time>
      </trkpt>
      <trkpt lat="48.7308" lon="2.48854">
        <ele>145.564</ele>
        <time>2018-12-03T14:27:04Z</time>
      </trkpt>
      <trkpt lat="48.73075" lon="2.48855">
        <ele>145.56</ele>
        <time>2018-12-03T14:27:08Z</time>
      </trkpt>
      <trkpt lat="48.73075" lon="2.48855">
        <ele>145.56</ele>
        <time>2018-12-03T14:27:15Z</time>
      </trkpt>
      <trkpt lat="48.73075" lon="2.48855">
        <ele>90</ele>
        <time>2018-12-03T14:27:15Z</time>
      </trkpt>
      <trkpt lat="48.73075" lon="2.48855">
        <ele>90</ele>
        <time>2018-12-03T14:28:06Z</time>
      </trkpt>
      <trkpt lat="48.73047" lon="2.48855">
        <ele>145.552</ele>
        <time>2018-12-03T14:28:06Z</time>
      </trkpt>
      <trkpt lat="48.73047" lon="2.48855">
        <ele>145.552</ele>
        <time>2018-12-03T14:28:14Z</time>
      </trkpt>
      <trkpt lat="48.73047" lon="2.48855">
        <ele>90</ele>
        <time>2018-12-03T14:28:14Z</time>
      </trkpt>
      <trkpt lat="48.73047" lon="2.48855">
        <ele>90</ele>
        <time>2018-12-03T14:30:45Z</time>
      </trkpt>
      <trkpt lat="48.73032" lon="2.48812">
        <ele>146.824</ele>
        <time>2018-12-03T14:30:45Z</time>
      </trkpt>
      <trkpt lat="48.73032" lon="2.48812">
        <ele>146.824</ele>
        <time>2018-12-03T14:30:52Z</time>
      </trkpt>
      <trkpt lat="48.73032" lon="2.48812">
        <ele>90</ele>
        <time>2018-12-03T14:30:52Z</time>
      </trkpt>
      <trkpt lat="48.73032" lon="2.48812">
        <ele>90</ele>
        <time>2018-12-03T14:31:06Z</time>
      </trkpt>
      <trkpt lat="48.73022" lon="2.48786">
        <ele>147.07</ele>
        <time>2018-12-03T14:31:06Z</time>
      </trkpt>
      <trkpt lat="48.73022" lon="2.48782">
        <ele>147.092</ele>
        <time>2018-12-03T14:31:08Z</time>
      </trkpt>
      <trkpt lat="48.73023" lon="2.48778">
        <ele>147.127</ele>
        <time>2018-12-03T14:31:11Z</time>
      </trkpt>
      <trkpt lat="48.73023" lon="2.48773">
        <ele>147.185</ele>
        <time>2018-12-03T14:31:16Z</time>
      </trkpt>
      <trkpt lat="48.7302" lon="2.48767">
        <ele>147.261</ele>
        <time>2018-12-03T14:31:23Z</time>
      </trkpt>
      <trkpt lat="48.73019" lon="2.48759">
        <ele>147.301</ele>
        <time>2018-12-03T14:31:27Z</time>
      </trkpt>
      <trkpt lat="48.73018" lon="2.48756">
        <ele>147.321</ele>
        <time>2018-12-03T14:31:29Z</time>
      </trkpt>
      <trkpt lat="48.73017" lon="2.4875">
        <ele>147.36</ele>
        <time>2018-12-03T14:31:33Z</time>
      </trkpt>
      <trkpt lat="48.73016" lon="2.48746">
        <ele>147.379</ele>
        <time>2018-12-03T14:31:35Z</time>
      </trkpt>
      <trkpt lat="48.73015" lon="2.48741">
        <ele>147.397</ele>
        <time>2018-12-03T14:31:37Z</time>
      </trkpt>
      <trkpt lat="48.73014" lon="2.48737">
        <ele>147.414</ele>
        <time>2018-12-03T14:31:39Z</time>
      </trkpt>
      <trkpt lat="48.73013" lon="2.48732">
        <ele>147.431</ele>
        <time>2018-12-03T14:31:41Z</time>
      </trkpt>
      <trkpt lat="48.73012" lon="2.48727">
        <ele>147.447</ele>
        <time>2018-12-03T14:31:43Z</time>
      </trkpt>
      <trkpt lat="48.73011" lon="2.48724">
        <ele>147.463</ele>
        <time>2018-12-03T14:31:45Z</time>
      </trkpt>
      <trkpt lat="48.7301" lon="2.48721">
        <ele>147.487</ele>
        <time>2018-12-03T14:31:48Z</time>
      </trkpt>
      <trkpt lat="48.73009" lon="2.48713">
        <ele>147.522</ele>
        <time>2018-12-03T14:31:53Z</time>
      </trkpt>
      <trkpt lat="48.73009" lon="2.48713">
        <ele>90</ele>
        <time>2018-12-03T14:32:00Z</time>
      </trkpt>
      <trkpt lat="48.73009" lon="2.48713">
        <ele>90</ele>
        <time>2018-12-03T14:32:33Z</time>
      </trkpt>
      <trkpt lat="48.73001" lon="2.48689">
        <ele>147.7</ele>
        <time>2018-12-03T14:32:33Z</time>
      </trkpt>
      <trkpt lat="48.72997" lon="2.48684">
        <ele>147.715</ele>
        <time>2018-12-03T14:32:36Z</time>
      </trkpt>
      <trkpt lat="48.72994" lon="2.48677">
        <ele>147.741</ele>
        <time>2018-12-03T14:32:42Z</time>
      </trkpt>
      <trkpt lat="48.72993" lon="2.48673">
        <ele>147.751</ele>
        <time>2018-12-03T14:32:44Z</time>
      </trkpt>
      <trkpt lat="48.72989" lon="2.48668">
        <ele>147.776</ele>
        <time>2018-12-03T14:32:49Z</time>
      </trkpt>
      <trkpt lat="48.72986" lon="2.48663">
        <ele>147.796</ele>
        <time>2018-12-03T14:32:53Z</time>
      </trkpt>
      <trkpt lat="48.72984" lon="2.48655">
        <ele>147.813</ele>
        <time>2018-12-03T14:32:57Z</time>
      </trkpt>
      <trkpt lat="48.72982" lon="2.48648">
        <ele>147.821</ele>
        <time>2018-12-03T14:33:00Z</time>
      </trkpt>
      <trkpt lat="48.72981" lon="2.48643">
        <ele>147.825</ele>
        <time>2018-12-03T14:33:02Z</time>
      </trkpt>
      <trkpt lat="48.72979" lon="2.48639">
        <ele>147.828</ele>
        <time>2018-12-03T14:33:04Z</time>
      </trkpt>
      <trkpt lat="48.72978" lon="2.48634">
        <ele>147.831</ele>
        <time>2018-12-03T14:33:06Z</time>
      </trkpt>
      <trkpt lat="48.72975" lon="2.48629">
        <ele>147.838</ele>
        <time>2018-12-03T14:33:10Z</time>
      </trkpt>
      <trkpt lat="48.72974" lon="2.48621">
        <ele>147.85</ele>
        <time>2018-12-03T14:33:15Z</time>
      </trkpt>
      <trkpt lat="48.72973" lon="2.48615">
        <ele>147.857</ele>
        <time>2018-12-03T14:33:18Z</time>
      </trkpt>
      <trkpt lat="48.72972" lon="2.48607">
        <ele>147.863</ele>
        <time>2018-12-03T14:33:21Z</time>
      </trkpt>
      <trkpt lat="48.72971" lon="2.48602">
        <ele>147.868</ele>
        <time>2018-12-03T14:33:23Z</time>
      </trkpt>
      <trkpt lat="48.72969" lon="2.48595">
        <ele>147.878</ele>
        <time>2018-12-03T14:33:28Z</time>
      </trkpt>
      <trkpt lat="48.72968" lon="2.48586">
        <ele>147.885</ele>
        <time>2018-12-03T14:33:32Z</time>
      </trkpt>
      <trkpt lat="48.72965" lon="2.48581">
        <ele>147.89</ele>
        <time>2018-12-03T14:33:35Z</time>
      </trkpt>
      <trkpt lat="48.72961" lon="2.48575">
        <ele>147.899</ele>
        <time>2018-12-03T14:33:39Z</time>
      </trkpt>
      <trkpt lat="48.72959" lon="2.48569">
        <ele>147.905</ele>
        <time>2018-12-03T14:33:42Z</time>
      </trkpt>
      <trkpt lat="48.72956" lon="2.48562">
        <ele>147.917</ele>
        <time>2018-12-03T14:33:47Z</time>
      </trkpt>
      <trkpt lat="48.72955" lon="2.48555">
        <ele>147.928</ele>
        <time>2018-12-03T14:33:51Z</time>
      </trkpt>
      <trkpt lat="48.72951" lon="2.48549">
        <ele>147.941</ele>
        <time>2018-12-03T14:33:55Z</time>
      </trkpt>
      <trkpt lat="48.7295" lon="2.48543">
        <ele>147.956</ele>
        <time>2018-12-03T14:33:59Z</time>
      </trkpt>
      <trkpt lat="48.72949" lon="2.48535">
        <ele>147.969</ele>
        <time>2018-12-03T14:34:02Z</time>
      </trkpt>
      <trkpt lat="48.72947" lon="2.48528">
        <ele>147.982</ele>
        <time>2018-12-03T14:34:05Z</time>
      </trkpt>
      <trkpt lat="48.72944" lon="2.48522">
        <ele>148</ele>
        <time>2018-12-03T14:34:09Z</time>
      </trkpt>
      <trkpt lat="48.72941" lon="2.48515">
        <ele>148.02</ele>
        <time>2018-12-03T14:34:14Z</time>
      </trkpt>
      <trkpt lat="48.72939" lon="2.48507">
        <ele>148.032</ele>
        <time>2018-12-03T14:34:17Z</time>
      </trkpt>
      <trkpt lat="48.72938" lon="2.48504">
        <ele>148.041</ele>
        <time>2018-12-03T14:34:19Z</time>
      </trkpt>
      <trkpt lat="48.72937" lon="2.48497">
        <ele>148.061</ele>
        <time>2018-12-03T14:34:23Z</time>
      </trkpt>
      <trkpt lat="48.72933" lon="2.48491">
        <ele>148.085</ele>
        <time>2018-12-03T14:34:28Z</time>
      </trkpt>
      <trkpt lat="48.72929" lon="2.48484">
        <ele>148.103</ele>
        <time>2018-12-03T14:34:32Z</time>
      </trkpt>
      <trkpt lat="48.72927" lon="2.48482">
        <ele>148.113</ele>
        <time>2018-12-03T14:34:34Z</time>
      </trkpt>
      <trkpt lat="48.72924" lon="2.48474">
        <ele>148.134</ele>
        <time>2018-12-03T14:34:39Z</time>
      </trkpt>
      <trkpt lat="48.72921" lon="2.48469">
        <ele>148.144</ele>
        <time>2018-12-03T14:34:43Z</time>
      </trkpt>
      <trkpt lat="48.72921" lon="2.48469">
        <ele>89</ele>
        <time>2018-12-03T14:34:52Z</time>
      </trkpt>
      <trkpt lat="48.72921" lon="2.48469">
        <ele>89</ele>
        <time>2018-12-03T14:34:59Z</time>
      </trkpt>
      <trkpt lat="48.72914" lon="2.48468">
        <ele>148.18</ele>
        <time>2018-12-03T14:34:59Z</time>
      </trkpt>
      <trkpt lat="48.7291" lon="2.48469">
        <ele>148.194</ele>
        <time>2018-12-03T14:35:03Z</time>
      </trkpt>
      <trkpt lat="48.72905" lon="2.48471">
        <ele>148.209</ele>
        <time>2018-12-03T14:35:07Z</time>
      </trkpt>
      <trkpt lat="48.729" lon="2.48475">
        <ele>148.217</ele>
        <time>2018-12-03T14:35:10Z</time>
      </trkpt>
      <trkpt lat="48.72897" lon="2.48478">
        <ele>148.22</ele>
        <time>2018-12-03T14:35:12Z</time>
      </trkpt>
      <trkpt lat="48.72895" lon="2.4848">
        <ele>148.228</ele>
        <time>2018-12-03T14:35:16Z</time>
      </trkpt>
      <trkpt lat="48.72895" lon="2.4848">
        <ele>89</ele>
        <time>2018-12-03T14:35:21Z</time>
      </trkpt>
      <trkpt lat="48.72895" lon="2.4848">
        <ele>89</ele>
        <time>2018-12-03T14:35:27Z</time>
      </trkpt>
      <trkpt lat="48.72886" lon="2.48486">
        <ele>148.258</ele>
        <time>2018-12-03T14:35:27Z</time>
      </trkpt>
      <trkpt lat="48.72883" lon="2.48487">
        <ele>148.267</ele>
        <time>2018-12-03T14:35:31Z</time>
      </trkpt>
      <trkpt lat="48.7288" lon="2.48489">
        <ele>148.273</ele>
        <time>2018-12-03T14:35:33Z</time>
      </trkpt>
      <trkpt lat="48.72876" lon="2.48492">
        <ele>148.282</ele>
        <time>2018-12-03T14:35:36Z</time>
      </trkpt>
      <trkpt lat="48.72871" lon="2.48493">
        <ele>148.29</ele>
        <time>2018-12-03T14:35:38Z</time>
      </trkpt>
      <trkpt lat="48.72865" lon="2.48497">
        <ele>148.301</ele>
        <time>2018-12-03T14:35:41Z</time>
      </trkpt>
      <trkpt lat="48.72863" lon="2.48499">
        <ele>148.313</ele>
        <time>2018-12-03T14:35:44Z</time>
      </trkpt>
      <trkpt lat="48.72858" lon="2.48501">
        <ele>148.324</ele>
        <time>2018-12-03T14:35:47Z</time>
      </trkpt>
      <trkpt lat="48.72854" lon="2.48502">
        <ele>148.335</ele>
        <time>2018-12-03T14:35:51Z</time>
      </trkpt>
      <trkpt lat="48.7285" lon="2.48505">
        <ele>148.348</ele>
        <time>2018-12-03T14:35:55Z</time>
      </trkpt>
      <trkpt lat="48.72847" lon="2.48508">
        <ele>148.355</ele>
        <time>2018-12-03T14:35:57Z</time>
      </trkpt>
      <trkpt lat="48.72844" lon="2.48513">
        <ele>148.365</ele>
        <time>2018-12-03T14:36:01Z</time>
      </trkpt>
      <trkpt lat="48.72842" lon="2.48517">
        <ele>148.376</ele>
        <time>2018-12-03T14:36:04Z</time>
      </trkpt>
      <trkpt lat="48.72842" lon="2.48517">
        <ele>89</ele>
        <time>2018-12-03T14:36:11Z</time>
      </trkpt>
      <trkpt lat="48.72842" lon="2.48517">
        <ele>89</ele>
        <time>2018-12-03T14:36:16Z</time>
      </trkpt>
      <trkpt lat="48.72835" lon="2.48524">
        <ele>148.425</ele>
        <time>2018-12-03T14:36:16Z</time>
      </trkpt>
      <trkpt lat="48.72827" lon="2.48527">
        <ele>148.45</ele>
        <time>2018-12-03T14:36:22Z</time>
      </trkpt>
      <trkpt lat="48.72822" lon="2.48532">
        <ele>148.475</ele>
        <time>2018-12-03T14:36:26Z</time>
      </trkpt>
      <trkpt lat="48.72819" lon="2.48533">
        <ele>148.483</ele>
        <time>2018-12-03T14:36:28Z</time>
      </trkpt>
      <trkpt lat="48.72816" lon="2.48536">
        <ele>148.497</ele>
        <time>2018-12-03T14:36:31Z</time>
      </trkpt>
      <trkpt lat="48.7281" lon="2.48537">
        <ele>148.528</ele>
        <time>2018-12-03T14:36:35Z</time>
      </trkpt>
      <trkpt lat="48.72805" lon="2.48537">
        <ele>148.543</ele>
        <time>2018-12-03T14:36:38Z</time>
      </trkpt>
      <trkpt lat="48.72802" lon="2.48537">
        <ele>148.557</ele>
        <time>2018-12-03T14:36:41Z</time>
      </trkpt>
      <trkpt lat="48.72798" lon="2.48543">
        <ele>148.569</ele>
        <time>2018-12-03T14:36:43Z</time>
      </trkpt>
      <trkpt lat="48.72798" lon="2.48543">
        <ele>88.9</ele>
        <time>2018-12-03T14:36:50Z</time>
      </trkpt>
      <trkpt lat="48.72798" lon="2.48543">
        <ele>88.9</ele>
        <time>2018-12-03T14:36:58Z</time>
      </trkpt>
      <trkpt lat="48.72786" lon="2.48548">
        <ele>148.65</ele>
        <time>2018-12-03T14:36:58Z</time>
      </trkpt>
      <trkpt lat="48.72781" lon="2.48547">
        <ele>148.668</ele>
        <time>2018-12-03T14:37:01Z</time>
      </trkpt>
      <trkpt lat="48.72775" lon="2.48549">
        <ele>148.687</ele>
        <time>2018-12-03T14:37:05Z</time>
      </trkpt>
      <trkpt lat="48.7277" lon="2.48552">
        <ele>148.704</ele>
        <time>2018-12-03T14:37:08Z</time>
      </trkpt>
      <trkpt lat="48.72764" lon="2.48554">
        <ele>148.714</ele>
        <time>2018-12-03T14:37:10Z</time>
      </trkpt>
      <trkpt lat="48.72757" lon="2.48554">
        <ele>148.731</ele>
        <time>2018-12-03T14:37:14Z</time>
      </trkpt>
      <trkpt lat="48.72753" lon="2.48557">
        <ele>148.743</ele>
        <time>2018-12-03T14:37:17Z</time>
      </trkpt>
      <trkpt lat="48.72747" lon="2.48557">
        <ele>148.759</ele>
        <time>2018-12-03T14:37:21Z</time>
      </trkpt>
      <trkpt lat="48.72742" lon="2.48555">
        <ele>148.774</ele>
        <time>2018-12-03T14:37:26Z</time>
      </trkpt>
      <trkpt lat="48.72739" lon="2.48555">
        <ele>148.782</ele>
        <time>2018-12-03T14:37:28Z</time>
      </trkpt>
      <trkpt lat="48.72734" lon="2.48554">
        <ele>148.798</ele>
        <time>2018-12-03T14:37:32Z</time>
      </trkpt>
      <trkpt lat="48.72731" lon="2.48554">
        <ele>148.807</ele>
        <time>2018-12-03T14:37:34Z</time>
      </trkpt>
      <trkpt lat="48.72728" lon="2.48553">
        <ele>148.815</ele>
        <time>2018-12-03T14:37:36Z</time>
      </trkpt>
      <trkpt lat="48.72724" lon="2.48551">
        <ele>148.83</ele>
        <time>2018-12-03T14:37:40Z</time>
      </trkpt>
      <trkpt lat="48.72722" lon="2.4855">
        <ele>148.841</ele>
        <time>2018-12-03T14:37:43Z</time>
      </trkpt>
      <trkpt lat="48.72719" lon="2.48549">
        <ele>148.849</ele>
        <time>2018-12-03T14:37:45Z</time>
      </trkpt>
      <trkpt lat="48.72716" lon="2.48547">
        <ele>148.858</ele>
        <time>2018-12-03T14:37:48Z</time>
      </trkpt>
      <trkpt lat="48.72713" lon="2.48546">
        <ele>148.865</ele>
        <time>2018-12-03T14:37:53Z</time>
      </trkpt>
      <trkpt lat="48.72711" lon="2.48539">
        <ele>148.878</ele>
        <time>2018-12-03T14:38:00Z</time>
      </trkpt>
      <trkpt lat="48.72711" lon="2.48532">
        <ele>148.892</ele>
        <time>2018-12-03T14:38:05Z</time>
      </trkpt>
      <trkpt lat="48.72707" lon="2.48527">
        <ele>148.899</ele>
        <time>2018-12-03T14:38:08Z</time>
      </trkpt>
      <trkpt lat="48.72704" lon="2.48523">
        <ele>148.902</ele>
        <time>2018-12-03T14:38:10Z</time>
      </trkpt>
      <trkpt lat="48.72702" lon="2.48521">
        <ele>148.906</ele>
        <time>2018-12-03T14:38:12Z</time>
      </trkpt>
      <trkpt lat="48.72699" lon="2.48512">
        <ele>148.916</ele>
        <time>2018-12-03T14:38:16Z</time>
      </trkpt>
      <trkpt lat="48.72696" lon="2.48506">
        <ele>148.925</ele>
        <time>2018-12-03T14:38:19Z</time>
      </trkpt>
      <trkpt lat="48.72692" lon="2.485">
        <ele>148.938</ele>
        <time>2018-12-03T14:38:23Z</time>
      </trkpt>
      <trkpt lat="48.7269" lon="2.48497">
        <ele>148.946</ele>
        <time>2018-12-03T14:38:25Z</time>
      </trkpt>
      <trkpt lat="48.72688" lon="2.48494">
        <ele>148.955</ele>
        <time>2018-12-03T14:38:27Z</time>
      </trkpt>
      <trkpt lat="48.72686" lon="2.48487">
        <ele>148.971</ele>
        <time>2018-12-03T14:38:30Z</time>
      </trkpt>
      <trkpt lat="48.72686" lon="2.48479">
        <ele>148.992</ele>
        <time>2018-12-03T14:38:34Z</time>
      </trkpt>
      <trkpt lat="48.72685" lon="2.48471">
        <ele>149.021</ele>
        <time>2018-12-03T14:38:39Z</time>
      </trkpt>
      <trkpt lat="48.72684" lon="2.48463">
        <ele>149.05</ele>
        <time>2018-12-03T14:38:43Z</time>
      </trkpt>
      <trkpt lat="48.72683" lon="2.4846">
        <ele>149.066</ele>
        <time>2018-12-03T14:38:45Z</time>
      </trkpt>
      <trkpt lat="48.72681" lon="2.48453">
        <ele>149.101</ele>
        <time>2018-12-03T14:38:49Z</time>
      </trkpt>
      <trkpt lat="48.72679" lon="2.48448">
        <ele>149.128</ele>
        <time>2018-12-03T14:38:52Z</time>
      </trkpt>
      <trkpt lat="48.72677" lon="2.48441">
        <ele>149.156</ele>
        <time>2018-12-03T14:38:55Z</time>
      </trkpt>
      <trkpt lat="48.72675" lon="2.48434">
        <ele>149.208</ele>
        <time>2018-12-03T14:39:01Z</time>
      </trkpt>
      <trkpt lat="48.72674" lon="2.48431">
        <ele>149.225</ele>
        <time>2018-12-03T14:39:03Z</time>
      </trkpt>
      <trkpt lat="48.72672" lon="2.48426">
        <ele>149.242</ele>
        <time>2018-12-03T14:39:05Z</time>
      </trkpt>
      <trkpt lat="48.72671" lon="2.48419">
        <ele>149.273</ele>
        <time>2018-12-03T14:39:09Z</time>
      </trkpt>
      <trkpt lat="48.72671" lon="2.48414">
        <ele>149.287</ele>
        <time>2018-12-03T14:39:11Z</time>
      </trkpt>
      <trkpt lat="48.7267" lon="2.4841">
        <ele>149.307</ele>
        <time>2018-12-03T14:39:14Z</time>
      </trkpt>
      <trkpt lat="48.72668" lon="2.48402">
        <ele>149.333</ele>
        <time>2018-12-03T14:39:18Z</time>
      </trkpt>
      <trkpt lat="48.72667" lon="2.48397">
        <ele>149.356</ele>
        <time>2018-12-03T14:39:22Z</time>
      </trkpt>
      <trkpt lat="48.72665" lon="2.4839">
        <ele>149.374</ele>
        <time>2018-12-03T14:39:25Z</time>
      </trkpt>
      <trkpt lat="48.72664" lon="2.48383">
        <ele>149.395</ele>
        <time>2018-12-03T14:39:29Z</time>
      </trkpt>
      <trkpt lat="48.72662" lon="2.48376">
        <ele>149.423</ele>
        <time>2018-12-03T14:39:34Z</time>
      </trkpt>
      <trkpt lat="48.72659" lon="2.4837">
        <ele>149.447</ele>
        <time>2018-12-03T14:39:38Z</time>
      </trkpt>
      <trkpt lat="48.72657" lon="2.48362">
        <ele>149.481</ele>
        <time>2018-12-03T14:39:43Z</time>
      </trkpt>
      <trkpt lat="48.72656" lon="2.48357">
        <ele>149.494</ele>
        <time>2018-12-03T14:39:45Z</time>
      </trkpt>
      <trkpt lat="48.72655" lon="2.48349">
        <ele>149.519</ele>
        <time>2018-12-03T14:39:49Z</time>
      </trkpt>
      <trkpt lat="48.72654" lon="2.48345">
        <ele>149.538</ele>
        <time>2018-12-03T14:39:52Z</time>
      </trkpt>
      <trkpt lat="48.72653" lon="2.4834">
        <ele>149.559</ele>
        <time>2018-12-03T14:39:55Z</time>
      </trkpt>
      <trkpt lat="48.72652" lon="2.48335">
        <ele>149.594</ele>
        <time>2018-12-03T14:40:00Z</time>
      </trkpt>
      <trkpt lat="48.72651" lon="2.48331">
        <ele>149.607</ele>
        <time>2018-12-03T14:40:02Z</time>
      </trkpt>
      <trkpt lat="48.72648" lon="2.48325">
        <ele>149.639</ele>
        <time>2018-12-03T14:40:07Z</time>
      </trkpt>
      <trkpt lat="48.72646" lon="2.48317">
        <ele>149.68</ele>
        <time>2018-12-03T14:40:12Z</time>
      </trkpt>
      <trkpt lat="48.72644" lon="2.48311">
        <ele>149.71</ele>
        <time>2018-12-03T14:40:15Z</time>
      </trkpt>
      <trkpt lat="48.72642" lon="2.48303">
        <ele>149.751</ele>
        <time>2018-12-03T14:40:19Z</time>
      </trkpt>
      <trkpt lat="48.7264" lon="2.48296">
        <ele>149.802</ele>
        <time>2018-12-03T14:40:24Z</time>
      </trkpt>
      <trkpt lat="48.72639" lon="2.48289">
        <ele>149.828</ele>
        <time>2018-12-03T14:40:27Z</time>
      </trkpt>
      <trkpt lat="48.72639" lon="2.48284">
        <ele>149.847</ele>
        <time>2018-12-03T14:40:29Z</time>
      </trkpt>
      <trkpt lat="48.72638" lon="2.48279">
        <ele>149.876</ele>
        <time>2018-12-03T14:40:32Z</time>
      </trkpt>
      <trkpt lat="48.72637" lon="2.48275">
        <ele>149.906</ele>
        <time>2018-12-03T14:40:35Z</time>
      </trkpt>
      <trkpt lat="48.72637" lon="2.48268">
        <ele>149.973</ele>
        <time>2018-12-03T14:40:42Z</time>
      </trkpt>
      <trkpt lat="48.72635" lon="2.48261">
        <ele>150.006</ele>
        <time>2018-12-03T14:40:45Z</time>
      </trkpt>
      <trkpt lat="48.72632" lon="2.48254">
        <ele>150.056</ele>
        <time>2018-12-03T14:40:49Z</time>
      </trkpt>
      <trkpt lat="48.72628" lon="2.48247">
        <ele>150.094</ele>
        <time>2018-12-03T14:40:52Z</time>
      </trkpt>
      <trkpt lat="48.72626" lon="2.48242">
        <ele>150.118</ele>
        <time>2018-12-03T14:40:54Z</time>
      </trkpt>
      <trkpt lat="48.72624" lon="2.48237">
        <ele>150.152</ele>
        <time>2018-12-03T14:40:57Z</time>
      </trkpt>
      <trkpt lat="48.72621" lon="2.48232">
        <ele>150.194</ele>
        <time>2018-12-03T14:41:01Z</time>
      </trkpt>
      <trkpt lat="48.72619" lon="2.48225">
        <ele>150.22</ele>
        <time>2018-12-03T14:41:04Z</time>
      </trkpt>
      <trkpt lat="48.72619" lon="2.48217">
        <ele>150.243</ele>
        <time>2018-12-03T14:41:07Z</time>
      </trkpt>
      <trkpt lat="48.72616" lon="2.48211">
        <ele>150.273</ele>
        <time>2018-12-03T14:41:11Z</time>
      </trkpt>
      <trkpt lat="48.72615" lon="2.48207">
        <ele>150.294</ele>
        <time>2018-12-03T14:41:14Z</time>
      </trkpt>
      <trkpt lat="48.72613" lon="2.48204">
        <ele>150.311</ele>
        <time>2018-12-03T14:41:17Z</time>
      </trkpt>
      <trkpt lat="48.72612" lon="2.482">
        <ele>150.326</ele>
        <time>2018-12-03T14:41:20Z</time>
      </trkpt>
      <trkpt lat="48.7261" lon="2.48192">
        <ele>150.338</ele>
        <time>2018-12-03T14:41:23Z</time>
      </trkpt>
      <trkpt lat="48.72608" lon="2.48186">
        <ele>150.351</ele>
        <time>2018-12-03T14:41:27Z</time>
      </trkpt>
      <trkpt lat="48.72607" lon="2.48177">
        <ele>150.356</ele>
        <time>2018-12-03T14:41:30Z</time>
      </trkpt>
      <trkpt lat="48.72605" lon="2.48171">
        <ele>150.361</ele>
        <time>2018-12-03T14:41:33Z</time>
      </trkpt>
      <trkpt lat="48.72604" lon="2.48167">
        <ele>150.365</ele>
        <time>2018-12-03T14:41:35Z</time>
      </trkpt>
      <trkpt lat="48.72605" lon="2.48161">
        <ele>150.374</ele>
        <time>2018-12-03T14:41:37Z</time>
      </trkpt>
      <trkpt lat="48.72603" lon="2.48154">
        <ele>150.405</ele>
        <time>2018-12-03T14:41:44Z</time>
      </trkpt>
      <trkpt lat="48.72602" lon="2.48145">
        <ele>150.419</ele>
        <time>2018-12-03T14:41:49Z</time>
      </trkpt>
      <trkpt lat="48.72602" lon="2.48136">
        <ele>150.438</ele>
        <time>2018-12-03T14:41:53Z</time>
      </trkpt>
      <trkpt lat="48.72602" lon="2.4813">
        <ele>150.462</ele>
        <time>2018-12-03T14:41:57Z</time>
      </trkpt>
      <trkpt lat="48.72601" lon="2.48121">
        <ele>150.483</ele>
        <time>2018-12-03T14:42:00Z</time>
      </trkpt>
      <trkpt lat="48.72601" lon="2.48116">
        <ele>150.497</ele>
        <time>2018-12-03T14:42:02Z</time>
      </trkpt>
      <trkpt lat="48.726" lon="2.48112">
        <ele>150.512</ele>
        <time>2018-12-03T14:42:04Z</time>
      </trkpt>
      <trkpt lat="48.72598" lon="2.48104">
        <ele>150.548</ele>
        <time>2018-12-03T14:42:09Z</time>
      </trkpt>
      <trkpt lat="48.72598" lon="2.48096">
        <ele>150.564</ele>
        <time>2018-12-03T14:42:12Z</time>
      </trkpt>
      <trkpt lat="48.72595" lon="2.48089">
        <ele>150.587</ele>
        <time>2018-12-03T14:42:17Z</time>
      </trkpt>
      <trkpt lat="48.72593" lon="2.48082">
        <ele>150.608</ele>
        <time>2018-12-03T14:42:23Z</time>
      </trkpt>
      <trkpt lat="48.72592" lon="2.48074">
        <ele>150.62</ele>
        <time>2018-12-03T14:42:27Z</time>
      </trkpt>
      <trkpt lat="48.72589" lon="2.48066">
        <ele>150.632</ele>
        <time>2018-12-03T14:42:32Z</time>
      </trkpt>
      <trkpt lat="48.72588" lon="2.4806">
        <ele>150.634</ele>
        <time>2018-12-03T14:42:34Z</time>
      </trkpt>
      <trkpt lat="48.72587" lon="2.48057">
        <ele>150.635</ele>
        <time>2018-12-03T14:42:35Z</time>
      </trkpt>
      <trkpt lat="48.72586" lon="2.48053">
        <ele>150.637</ele>
        <time>2018-12-03T14:42:37Z</time>
      </trkpt>
      <trkpt lat="48.72583" lon="2.48045">
        <ele>150.64</ele>
        <time>2018-12-03T14:42:40Z</time>
      </trkpt>
      <trkpt lat="48.7258" lon="2.48039">
        <ele>150.644</ele>
        <time>2018-12-03T14:42:43Z</time>
      </trkpt>
      <trkpt lat="48.72579" lon="2.48033">
        <ele>150.649</ele>
        <time>2018-12-03T14:42:46Z</time>
      </trkpt>
      <trkpt lat="48.72577" lon="2.48028">
        <ele>150.652</ele>
        <time>2018-12-03T14:42:48Z</time>
      </trkpt>
      <trkpt lat="48.72577" lon="2.48019">
        <ele>150.663</ele>
        <time>2018-12-03T14:42:52Z</time>
      </trkpt>
      <trkpt lat="48.72576" lon="2.48015">
        <ele>150.674</ele>
        <time>2018-12-03T14:42:56Z</time>
      </trkpt>
      <trkpt lat="48.72575" lon="2.48007">
        <ele>150.69</ele>
        <time>2018-12-03T14:43:02Z</time>
      </trkpt>
      <trkpt lat="48.72573" lon="2.47999">
        <ele>150.696</ele>
        <time>2018-12-03T14:43:05Z</time>
      </trkpt>
      <trkpt lat="48.72573" lon="2.4799">
        <ele>150.701</ele>
        <time>2018-12-03T14:43:08Z</time>
      </trkpt>
      <trkpt lat="48.72571" lon="2.47982">
        <ele>150.708</ele>
        <time>2018-12-03T14:43:12Z</time>
      </trkpt>
      <trkpt lat="48.7257" lon="2.47978">
        <ele>150.714</ele>
        <time>2018-12-03T14:43:14Z</time>
      </trkpt>
      <trkpt lat="48.7257" lon="2.47973">
        <ele>150.723</ele>
        <time>2018-12-03T14:43:17Z</time>
      </trkpt>
      <trkpt lat="48.72568" lon="2.47966">
        <ele>150.733</ele>
        <time>2018-12-03T14:43:22Z</time>
      </trkpt>
      <trkpt lat="48.72568" lon="2.47966">
        <ele>87</ele>
        <time>2018-12-03T14:43:30Z</time>
      </trkpt>
      <trkpt lat="48.72568" lon="2.47966">
        <ele>87</ele>
        <time>2018-12-03T14:43:38Z</time>
      </trkpt>
      <trkpt lat="48.72562" lon="2.47948">
        <ele>150.78</ele>
        <time>2018-12-03T14:43:41Z</time>
      </trkpt>
      <trkpt lat="48.7256" lon="2.4794">
        <ele>150.796</ele>
        <time>2018-12-03T14:43:45Z</time>
      </trkpt>
      <trkpt lat="48.72559" lon="2.47931">
        <ele>150.809</ele>
        <time>2018-12-03T14:43:49Z</time>
      </trkpt>
      <trkpt lat="48.72559" lon="2.47923">
        <ele>150.824</ele>
        <time>2018-12-03T14:43:54Z</time>
      </trkpt>
      <trkpt lat="48.72558" lon="2.47919">
        <ele>150.829</ele>
        <time>2018-12-03T14:43:56Z</time>
      </trkpt>
      <trkpt lat="48.72556" lon="2.47913">
        <ele>150.841</ele>
        <time>2018-12-03T14:44:00Z</time>
      </trkpt>
      <trkpt lat="48.72557" lon="2.47904">
        <ele>150.857</ele>
        <time>2018-12-03T14:44:04Z</time>
      </trkpt>
      <trkpt lat="48.72557" lon="2.47898">
        <ele>150.878</ele>
        <time>2018-12-03T14:44:07Z</time>
      </trkpt>
      <trkpt lat="48.72556" lon="2.47891">
        <ele>150.911</ele>
        <time>2018-12-03T14:44:11Z</time>
      </trkpt>
      <trkpt lat="48.72555" lon="2.47885">
        <ele>150.939</ele>
        <time>2018-12-03T14:44:14Z</time>
      </trkpt>
      <trkpt lat="48.72555" lon="2.47878">
        <ele>150.988</ele>
        <time>2018-12-03T14:44:19Z</time>
      </trkpt>
      <trkpt lat="48.72555" lon="2.47873">
        <ele>151.006</ele>
        <time>2018-12-03T14:44:21Z</time>
      </trkpt>
      <trkpt lat="48.72554" lon="2.47867">
        <ele>151.043</ele>
        <time>2018-12-03T14:44:25Z</time>
      </trkpt>
      <trkpt lat="48.72552" lon="2.47862">
        <ele>151.071</ele>
        <time>2018-12-03T14:44:28Z</time>
      </trkpt>
      <trkpt lat="48.72551" lon="2.47858">
        <ele>151.103</ele>
        <time>2018-12-03T14:44:32Z</time>
      </trkpt>
      <trkpt lat="48.72547" lon="2.47853">
        <ele>151.154</ele>
        <time>2018-12-03T14:44:36Z</time>
      </trkpt>
      <trkpt lat="48.72545" lon="2.47851">
        <ele>151.18</ele>
        <time>2018-12-03T14:44:38Z</time>
      </trkpt>
      <trkpt lat="48.72543" lon="2.47848">
        <ele>151.206</ele>
        <time>2018-12-03T14:44:40Z</time>
      </trkpt>
      <trkpt lat="48.72541" lon="2.47839">
        <ele>151.242</ele>
        <time>2018-12-03T14:44:43Z</time>
      </trkpt>
      <trkpt lat="48.7254" lon="2.47836">
        <ele>151.253</ele>
        <time>2018-12-03T14:44:44Z</time>
      </trkpt>
      <trkpt lat="48.7254" lon="2.47827">
        <ele>151.288</ele>
        <time>2018-12-03T14:44:47Z</time>
      </trkpt>
      <trkpt lat="48.72538" lon="2.47819">
        <ele>151.324</ele>
        <time>2018-12-03T14:44:50Z</time>
      </trkpt>
      <trkpt lat="48.72538" lon="2.47815">
        <ele>151.349</ele>
        <time>2018-12-03T14:44:52Z</time>
      </trkpt>
      <trkpt lat="48.72536" lon="2.47809">
        <ele>151.384</ele>
        <time>2018-12-03T14:44:55Z</time>
      </trkpt>
      <trkpt lat="48.72534" lon="2.47804">
        <ele>151.418</ele>
        <time>2018-12-03T14:44:58Z</time>
      </trkpt>
      <trkpt lat="48.72534" lon="2.47797">
        <ele>151.471</ele>
        <time>2018-12-03T14:45:03Z</time>
      </trkpt>
      <trkpt lat="48.72533" lon="2.47789">
        <ele>151.547</ele>
        <time>2018-12-03T14:45:09Z</time>
      </trkpt>
      <trkpt lat="48.7253" lon="2.47783">
        <ele>151.609</ele>
        <time>2018-12-03T14:45:14Z</time>
      </trkpt>
      <trkpt lat="48.72528" lon="2.47775">
        <ele>151.671</ele>
        <time>2018-12-03T14:45:20Z</time>
      </trkpt>
      <trkpt lat="48.72526" lon="2.47769">
        <ele>151.689</ele>
        <time>2018-12-03T14:45:22Z</time>
      </trkpt>
      <trkpt lat="48.72524" lon="2.47766">
        <ele>151.707</ele>
        <time>2018-12-03T14:45:24Z</time>
      </trkpt>
      <trkpt lat="48.72524" lon="2.47758">
        <ele>151.751</ele>
        <time>2018-12-03T14:45:29Z</time>
      </trkpt>
      <trkpt lat="48.72522" lon="2.4775">
        <ele>151.8</ele>
        <time>2018-12-03T14:45:34Z</time>
      </trkpt>
      <trkpt lat="48.72522" lon="2.47741">
        <ele>151.831</ele>
        <time>2018-12-03T14:45:38Z</time>
      </trkpt>
      <trkpt lat="48.72521" lon="2.47734">
        <ele>151.848</ele>
        <time>2018-12-03T14:45:41Z</time>
      </trkpt>
      <trkpt lat="48.7252" lon="2.47726">
        <ele>151.86</ele>
        <time>2018-12-03T14:45:44Z</time>
      </trkpt>
      <trkpt lat="48.7252" lon="2.47718">
        <ele>151.869</ele>
        <time>2018-12-03T14:45:48Z</time>
      </trkpt>
      <trkpt lat="48.7252" lon="2.4771">
        <ele>151.875</ele>
        <time>2018-12-03T14:45:51Z</time>
      </trkpt>
      <trkpt lat="48.72519" lon="2.47706">
        <ele>151.876</ele>
        <time>2018-12-03T14:45:52Z</time>
      </trkpt>
      <trkpt lat="48.72519" lon="2.47698">
        <ele>151.873</ele>
        <time>2018-12-03T14:45:58Z</time>
      </trkpt>
      <trkpt lat="48.72517" lon="2.47691">
        <ele>151.869</ele>
        <time>2018-12-03T14:46:02Z</time>
      </trkpt>
      <trkpt lat="48.72517" lon="2.47688">
        <ele>151.868</ele>
        <time>2018-12-03T14:46:05Z</time>
      </trkpt>
      <trkpt lat="48.72515" lon="2.47684">
        <ele>151.869</ele>
        <time>2018-12-03T14:46:07Z</time>
      </trkpt>
      <trkpt lat="48.72515" lon="2.47676">
        <ele>151.868</ele>
        <time>2018-12-03T14:46:10Z</time>
      </trkpt>
      <trkpt lat="48.72512" lon="2.47669">
        <ele>151.862</ele>
        <time>2018-12-03T14:46:17Z</time>
      </trkpt>
      <trkpt lat="48.72511" lon="2.47666">
        <ele>151.858</ele>
        <time>2018-12-03T14:46:19Z</time>
      </trkpt>
      <trkpt lat="48.72509" lon="2.47659">
        <ele>151.854</ele>
        <time>2018-12-03T14:46:21Z</time>
      </trkpt>
      <trkpt lat="48.72505" lon="2.47652">
        <ele>151.846</ele>
        <time>2018-12-03T14:46:24Z</time>
      </trkpt>
      <trkpt lat="48.72504" lon="2.47649">
        <ele>151.838</ele>
        <time>2018-12-03T14:46:26Z</time>
      </trkpt>
      <trkpt lat="48.72504" lon="2.47649">
        <ele>86.9</ele>
        <time>2018-12-03T14:46:33Z</time>
      </trkpt>
      <trkpt lat="48.72504" lon="2.47649">
        <ele>86.9</ele>
        <time>2018-12-03T14:47:13Z</time>
      </trkpt>
      <trkpt lat="48.72472" lon="2.47641">
        <ele>152.076</ele>
        <time>2018-12-03T14:47:13Z</time>
      </trkpt>
      <trkpt lat="48.72469" lon="2.47643">
        <ele>152.106</ele>
        <time>2018-12-03T14:47:15Z</time>
      </trkpt>
      <trkpt lat="48.72464" lon="2.4765">
        <ele>152.122</ele>
        <time>2018-12-03T14:47:17Z</time>
      </trkpt>
      <trkpt lat="48.72459" lon="2.4765">
        <ele>152.156</ele>
        <time>2018-12-03T14:47:20Z</time>
      </trkpt>
      <trkpt lat="48.72454" lon="2.47653">
        <ele>152.231</ele>
        <time>2018-12-03T14:47:26Z</time>
      </trkpt>
      <trkpt lat="48.72452" lon="2.47655">
        <ele>152.257</ele>
        <time>2018-12-03T14:47:28Z</time>
      </trkpt>
      <trkpt lat="48.7245" lon="2.47657">
        <ele>152.298</ele>
        <time>2018-12-03T14:47:32Z</time>
      </trkpt>
      <trkpt lat="48.72445" lon="2.47659">
        <ele>152.353</ele>
        <time>2018-12-03T14:47:36Z</time>
      </trkpt>
      <trkpt lat="48.7244" lon="2.47658">
        <ele>152.408</ele>
        <time>2018-12-03T14:47:40Z</time>
      </trkpt>
      <trkpt lat="48.72434" lon="2.47656">
        <ele>152.489</ele>
        <time>2018-12-03T14:47:46Z</time>
      </trkpt>
      <trkpt lat="48.72429" lon="2.47659">
        <ele>152.543</ele>
        <time>2018-12-03T14:47:50Z</time>
      </trkpt>
      <trkpt lat="48.72424" lon="2.47661">
        <ele>152.598</ele>
        <time>2018-12-03T14:47:54Z</time>
      </trkpt>
      <trkpt lat="48.72418" lon="2.4766">
        <ele>152.668</ele>
        <time>2018-12-03T14:47:59Z</time>
      </trkpt>
      <trkpt lat="48.72414" lon="2.47661">
        <ele>152.712</ele>
        <time>2018-12-03T14:48:02Z</time>
      </trkpt>
      <trkpt lat="48.72408" lon="2.47664">
        <ele>152.757</ele>
        <time>2018-12-03T14:48:05Z</time>
      </trkpt>
      <trkpt lat="48.72404" lon="2.47661">
        <ele>152.82</ele>
        <time>2018-12-03T14:48:09Z</time>
      </trkpt>
      <trkpt lat="48.72404" lon="2.47661">
        <ele>87.9</ele>
        <time>2018-12-03T14:48:16Z</time>
      </trkpt>
      <trkpt lat="48.72404" lon="2.47661">
        <ele>87.9</ele>
        <time>2018-12-03T14:48:22Z</time>
      </trkpt>
      <trkpt lat="48.72392" lon="2.47659">
        <ele>152.983</ele>
        <time>2018-12-03T14:48:22Z</time>
      </trkpt>
      <trkpt lat="48.72388" lon="2.4766">
        <ele>153.036</ele>
        <time>2018-12-03T14:48:25Z</time>
      </trkpt>
      <trkpt lat="48.72383" lon="2.47658">
        <ele>153.104</ele>
        <time>2018-12-03T14:48:29Z</time>
      </trkpt>
      <trkpt lat="48.7238" lon="2.47657">
        <ele>153.14</ele>
        <time>2018-12-03T14:48:31Z</time>
      </trkpt>
      <trkpt lat="48.7238" lon="2.47657">
        <ele>88.6</ele>
        <time>2018-12-03T14:48:39Z</time>
      </trkpt>
      <trkpt lat="48.7238" lon="2.47657">
        <ele>88.6</ele>
        <time>2018-12-03T14:48:46Z</time>
      </trkpt>
      <trkpt lat="48.7237" lon="2.47663">
        <ele>153.417</ele>
        <time>2018-12-03T14:48:46Z</time>
      </trkpt>
      <trkpt lat="48.72366" lon="2.47666">
        <ele>153.48</ele>
        <time>2018-12-03T14:48:49Z</time>
      </trkpt>
      <trkpt lat="48.72361" lon="2.47665">
        <ele>153.524</ele>
        <time>2018-12-03T14:48:51Z</time>
      </trkpt>
      <trkpt lat="48.72357" lon="2.47668">
        <ele>153.611</ele>
        <time>2018-12-03T14:48:55Z</time>
      </trkpt>
      <trkpt lat="48.72351" lon="2.47669">
        <ele>153.677</ele>
        <time>2018-12-03T14:48:58Z</time>
      </trkpt>
      <trkpt lat="48.72347" lon="2.47671">
        <ele>153.774</ele>
        <time>2018-12-03T14:49:04Z</time>
      </trkpt>
      <trkpt lat="48.72342" lon="2.47676">
        <ele>153.797</ele>
        <time>2018-12-03T14:49:05Z</time>
      </trkpt>
      <trkpt lat="48.72337" lon="2.47678">
        <ele>153.881</ele>
        <time>2018-12-03T14:49:09Z</time>
      </trkpt>
      <trkpt lat="48.72332" lon="2.47681">
        <ele>153.958</ele>
        <time>2018-12-03T14:49:13Z</time>
      </trkpt>
      <trkpt lat="48.72325" lon="2.47682">
        <ele>154.014</ele>
        <time>2018-12-03T14:49:16Z</time>
      </trkpt>
      <trkpt lat="48.72319" lon="2.47687">
        <ele>154.07</ele>
        <time>2018-12-03T14:49:19Z</time>
      </trkpt>
      <trkpt lat="48.72313" lon="2.47688">
        <ele>154.107</ele>
        <time>2018-12-03T14:49:21Z</time>
      </trkpt>
      <trkpt lat="48.7231" lon="2.47689">
        <ele>154.126</ele>
        <time>2018-12-03T14:49:22Z</time>
      </trkpt>
      <trkpt lat="48.72307" lon="2.47689">
        <ele>154.169</ele>
        <time>2018-12-03T14:49:26Z</time>
      </trkpt>
      <trkpt lat="48.72303" lon="2.47691">
        <ele>154.211</ele>
        <time>2018-12-03T14:49:28Z</time>
      </trkpt>
      <trkpt lat="48.72299" lon="2.47692">
        <ele>154.253</ele>
        <time>2018-12-03T14:49:30Z</time>
      </trkpt>
      <trkpt lat="48.72295" lon="2.47697">
        <ele>154.362</ele>
        <time>2018-12-03T14:49:35Z</time>
      </trkpt>
      <trkpt lat="48.72285" lon="2.47709">
        <ele>154.486</ele>
        <time>2018-12-03T14:49:41Z</time>
      </trkpt>
      <trkpt lat="48.72283" lon="2.47711">
        <ele>154.488</ele>
        <time>2018-12-03T14:49:42Z</time>
      </trkpt>
      <trkpt lat="48.72279" lon="2.47714">
        <ele>154.551</ele>
        <time>2018-12-03T14:49:45Z</time>
      </trkpt>
      <trkpt lat="48.72274" lon="2.47717">
        <ele>154.626</ele>
        <time>2018-12-03T14:49:49Z</time>
      </trkpt>
      <trkpt lat="48.7227" lon="2.47721">
        <ele>154.698</ele>
        <time>2018-12-03T14:49:53Z</time>
      </trkpt>
      <trkpt lat="48.72265" lon="2.47725">
        <ele>154.749</ele>
        <time>2018-12-03T14:49:56Z</time>
      </trkpt>
      <trkpt lat="48.72262" lon="2.47727">
        <ele>154.798</ele>
        <time>2018-12-03T14:49:59Z</time>
      </trkpt>
      <trkpt lat="48.72258" lon="2.47732">
        <ele>154.888</ele>
        <time>2018-12-03T14:50:05Z</time>
      </trkpt>
      <trkpt lat="48.72258" lon="2.47732">
        <ele>92.4</ele>
        <time>2018-12-03T14:50:12Z</time>
      </trkpt>
      <trkpt lat="48.72258" lon="2.47732">
        <ele>92.4</ele>
        <time>2018-12-03T14:50:19Z</time>
      </trkpt>
      <trkpt lat="48.72251" lon="2.47735">
        <ele>155.021</ele>
        <time>2018-12-03T14:50:19Z</time>
      </trkpt>
      <trkpt lat="48.72247" lon="2.47738">
        <ele>155.052</ele>
        <time>2018-12-03T14:50:22Z</time>
      </trkpt>
      <trkpt lat="48.72247" lon="2.47738">
        <ele>92.7</ele>
        <time>2018-12-03T14:50:30Z</time>
      </trkpt>
      <trkpt lat="48.72247" lon="2.47738">
        <ele>92.7</ele>
        <time>2018-12-03T14:51:58Z</time>
      </trkpt>
      <trkpt lat="48.72227" lon="2.47769">
        <ele>155.82</ele>
        <time>2018-12-03T14:52:00Z</time>
      </trkpt>
      <trkpt lat="48.72222" lon="2.47767">
        <ele>155.825</ele>
        <time>2018-12-03T14:52:02Z</time>
      </trkpt>
      <trkpt lat="48.7222" lon="2.47767">
        <ele>155.829</ele>
        <time>2018-12-03T14:52:03Z</time>
      </trkpt>
      <trkpt lat="48.72216" lon="2.47765">
        <ele>155.837</ele>
        <time>2018-12-03T14:52:07Z</time>
      </trkpt>
      <trkpt lat="48.72212" lon="2.47764">
        <ele>155.845</ele>
        <time>2018-12-03T14:52:20Z</time>
      </trkpt>
      <trkpt lat="48.72208" lon="2.4776">
        <ele>155.838</ele>
        <time>2018-12-03T14:52:23Z</time>
      </trkpt>
      <trkpt lat="48.72201" lon="2.47757">
        <ele>155.832</ele>
        <time>2018-12-03T14:52:25Z</time>
      </trkpt>
      <trkpt lat="48.72196" lon="2.47759">
        <ele>155.824</ele>
        <time>2018-12-03T14:52:27Z</time>
      </trkpt>
      <trkpt lat="48.72191" lon="2.4776">
        <ele>155.817</ele>
        <time>2018-12-03T14:52:30Z</time>
      </trkpt>
      <trkpt lat="48.72186" lon="2.47758">
        <ele>155.803</ele>
        <time>2018-12-03T14:52:36Z</time>
      </trkpt>
      <trkpt lat="48.72181" lon="2.47757">
        <ele>155.804</ele>
        <time>2018-12-03T14:52:39Z</time>
      </trkpt>
      <trkpt lat="48.72173" lon="2.47758">
        <ele>155.808</ele>
        <time>2018-12-03T14:52:44Z</time>
      </trkpt>
      <trkpt lat="48.7217" lon="2.47758">
        <ele>155.822</ele>
        <time>2018-12-03T14:52:51Z</time>
      </trkpt>
      <trkpt lat="48.72164" lon="2.47757">
        <ele>155.829</ele>
        <time>2018-12-03T14:52:53Z</time>
      </trkpt>
      <trkpt lat="48.72157" lon="2.47759">
        <ele>155.843</ele>
        <time>2018-12-03T14:52:56Z</time>
      </trkpt>
      <trkpt lat="48.7215" lon="2.4776">
        <ele>155.857</ele>
        <time>2018-12-03T14:53:00Z</time>
      </trkpt>
      <trkpt lat="48.72147" lon="2.47761">
        <ele>155.86</ele>
        <time>2018-12-03T14:53:01Z</time>
      </trkpt>
      <trkpt lat="48.72144" lon="2.47763">
        <ele>155.867</ele>
        <time>2018-12-03T14:53:03Z</time>
      </trkpt>
      <trkpt lat="48.72142" lon="2.47764">
        <ele>155.897</ele>
        <time>2018-12-03T14:53:09Z</time>
      </trkpt>
      <trkpt lat="48.72136" lon="2.47765">
        <ele>155.935</ele>
        <time>2018-12-03T14:53:16Z</time>
      </trkpt>
      <trkpt lat="48.72134" lon="2.47766">
        <ele>155.943</ele>
        <time>2018-12-03T14:53:19Z</time>
      </trkpt>
      <trkpt lat="48.72131" lon="2.47766">
        <ele>155.948</ele>
        <time>2018-12-03T14:53:22Z</time>
      </trkpt>
      <trkpt lat="48.72127" lon="2.4777">
        <ele>155.954</ele>
        <time>2018-12-03T14:53:25Z</time>
      </trkpt>
      <trkpt lat="48.72127" lon="2.4777">
        <ele>155.954</ele>
        <time>2018-12-03T14:53:30Z</time>
      </trkpt>
      <trkpt lat="48.72127" lon="2.4777">
        <ele>96.1</ele>
        <time>2018-12-03T14:53:30Z</time>
      </trkpt>
      <trkpt lat="48.72127" lon="2.4777">
        <ele>96.1</ele>
        <time>2018-12-03T14:53:38Z</time>
      </trkpt>
      <trkpt lat="48.72104" lon="2.47766">
        <ele>155.962</ele>
        <time>2018-12-03T14:53:38Z</time>
      </trkpt>
      <trkpt lat="48.72099" lon="2.47769">
        <ele>155.954</ele>
        <time>2018-12-03T14:53:40Z</time>
      </trkpt>
      <trkpt lat="48.72094" lon="2.47768">
        <ele>155.944</ele>
        <time>2018-12-03T14:53:42Z</time>
      </trkpt>
      <trkpt lat="48.72089" lon="2.4777">
        <ele>155.903</ele>
        <time>2018-12-03T14:53:49Z</time>
      </trkpt>
      <trkpt lat="48.72086" lon="2.47763">
        <ele>155.894</ele>
        <time>2018-12-03T14:53:52Z</time>
      </trkpt>
      <trkpt lat="48.72083" lon="2.47754">
        <ele>155.885</ele>
        <time>2018-12-03T14:54:00Z</time>
      </trkpt>
      <trkpt lat="48.7208" lon="2.47748">
        <ele>155.881</ele>
        <time>2018-12-03T14:54:03Z</time>
      </trkpt>
      <trkpt lat="48.72078" lon="2.47744">
        <ele>155.878</ele>
        <time>2018-12-03T14:54:05Z</time>
      </trkpt>
      <trkpt lat="48.72075" lon="2.47735">
        <ele>155.873</ele>
        <time>2018-12-03T14:54:08Z</time>
      </trkpt>
      <trkpt lat="48.72072" lon="2.47729">
        <ele>155.87</ele>
        <time>2018-12-03T14:54:10Z</time>
      </trkpt>
      <trkpt lat="48.7207" lon="2.47724">
        <ele>155.873</ele>
        <time>2018-12-03T14:54:12Z</time>
      </trkpt>
      <trkpt lat="48.72069" lon="2.47721">
        <ele>155.879</ele>
        <time>2018-12-03T14:54:14Z</time>
      </trkpt>
      <trkpt lat="48.72064" lon="2.47717">
        <ele>155.898</ele>
        <time>2018-12-03T14:54:18Z</time>
      </trkpt>
      <trkpt lat="48.7206" lon="2.47713">
        <ele>155.91</ele>
        <time>2018-12-03T14:54:20Z</time>
      </trkpt>
      <trkpt lat="48.72057" lon="2.4771">
        <ele>155.922</ele>
        <time>2018-12-03T14:54:22Z</time>
      </trkpt>
      <trkpt lat="48.72055" lon="2.47708">
        <ele>155.933</ele>
        <time>2018-12-03T14:54:24Z</time>
      </trkpt>
      <trkpt lat="48.72051" lon="2.47703">
        <ele>155.962</ele>
        <time>2018-12-03T14:54:29Z</time>
      </trkpt>
      <trkpt lat="48.72048" lon="2.47699">
        <ele>155.981</ele>
        <time>2018-12-03T14:54:32Z</time>
      </trkpt>
      <trkpt lat="48.72046" lon="2.47696">
        <ele>156.003</ele>
        <time>2018-12-03T14:54:35Z</time>
      </trkpt>
      <trkpt lat="48.72044" lon="2.47693">
        <ele>156.037</ele>
        <time>2018-12-03T14:54:39Z</time>
      </trkpt>
      <trkpt lat="48.72041" lon="2.47688">
        <ele>156.072</ele>
        <time>2018-12-03T14:54:43Z</time>
      </trkpt>
      <trkpt lat="48.72041" lon="2.47688">
        <ele>93</ele>
        <time>2018-12-03T14:54:50Z</time>
      </trkpt>
      <trkpt lat="48.72041" lon="2.47688">
        <ele>93</ele>
        <time>2018-12-03T14:54:58Z</time>
      </trkpt>
      <trkpt lat="48.72034" lon="2.47676">
        <ele>156.131</ele>
        <time>2018-12-03T14:55:00Z</time>
      </trkpt>
      <trkpt lat="48.72032" lon="2.47671">
        <ele>156.132</ele>
        <time>2018-12-03T14:55:03Z</time>
      </trkpt>
      <trkpt lat="48.72025" lon="2.47666">
        <ele>156.133</ele>
        <time>2018-12-03T14:55:08Z</time>
      </trkpt>
      <trkpt lat="48.7202" lon="2.47658">
        <ele>156.135</ele>
        <time>2018-12-03T14:55:11Z</time>
      </trkpt>
      <trkpt lat="48.72015" lon="2.47652">
        <ele>156.141</ele>
        <time>2018-12-03T14:55:14Z</time>
      </trkpt>
      <trkpt lat="48.72011" lon="2.47646">
        <ele>156.144</ele>
        <time>2018-12-03T14:55:18Z</time>
      </trkpt>
      <trkpt lat="48.7201" lon="2.47643">
        <ele>156.144</ele>
        <time>2018-12-03T14:55:19Z</time>
      </trkpt>
      <trkpt lat="48.72003" lon="2.47637">
        <ele>156.148</ele>
        <time>2018-12-03T14:55:22Z</time>
      </trkpt>
      <trkpt lat="48.71998" lon="2.47635">
        <ele>156.152</ele>
        <time>2018-12-03T14:55:25Z</time>
      </trkpt>
      <trkpt lat="48.71993" lon="2.47629">
        <ele>156.16</ele>
        <time>2018-12-03T14:55:30Z</time>
      </trkpt>
      <trkpt lat="48.71988" lon="2.47624">
        <ele>156.165</ele>
        <time>2018-12-03T14:55:34Z</time>
      </trkpt>
      <trkpt lat="48.71985" lon="2.4762">
        <ele>156.168</ele>
        <time>2018-12-03T14:55:37Z</time>
      </trkpt>
      <trkpt lat="48.71985" lon="2.4762">
        <ele>91.1</ele>
        <time>2018-12-03T14:55:45Z</time>
      </trkpt>
      <trkpt lat="48.71985" lon="2.4762">
        <ele>91.1</ele>
        <time>2018-12-03T14:56:38Z</time>
      </trkpt>
      <trkpt lat="48.71951" lon="2.47598">
        <ele>155.835</ele>
        <time>2018-12-03T14:56:40Z</time>
      </trkpt>
      <trkpt lat="48.71948" lon="2.47596">
        <ele>155.788</ele>
        <time>2018-12-03T14:56:43Z</time>
      </trkpt>
      <trkpt lat="48.71943" lon="2.47592">
        <ele>155.72</ele>
        <time>2018-12-03T14:56:47Z</time>
      </trkpt>
      <trkpt lat="48.71935" lon="2.47586">
        <ele>155.664</ele>
        <time>2018-12-03T14:56:50Z</time>
      </trkpt>
      <trkpt lat="48.71931" lon="2.47583">
        <ele>155.626</ele>
        <time>2018-12-03T14:56:52Z</time>
      </trkpt>
      <trkpt lat="48.71926" lon="2.47581">
        <ele>155.501</ele>
        <time>2018-12-03T14:56:58Z</time>
      </trkpt>
      <trkpt lat="48.71921" lon="2.47577">
        <ele>155.397</ele>
        <time>2018-12-03T14:57:03Z</time>
      </trkpt>
      <trkpt lat="48.71918" lon="2.47574">
        <ele>155.352</ele>
        <time>2018-12-03T14:57:06Z</time>
      </trkpt>
      <trkpt lat="48.71913" lon="2.47573">
        <ele>155.244</ele>
        <time>2018-12-03T14:57:11Z</time>
      </trkpt>
      <trkpt lat="48.71911" lon="2.47572">
        <ele>155.202</ele>
        <time>2018-12-03T14:57:13Z</time>
      </trkpt>
      <trkpt lat="48.71908" lon="2.47572">
        <ele>155.16</ele>
        <time>2018-12-03T14:57:15Z</time>
      </trkpt>
      <trkpt lat="48.71903" lon="2.4757">
        <ele>155.071</ele>
        <time>2018-12-03T14:57:19Z</time>
      </trkpt>
      <trkpt lat="48.71897" lon="2.47566">
        <ele>155.005</ele>
        <time>2018-12-03T14:57:22Z</time>
      </trkpt>
      <trkpt lat="48.71893" lon="2.47562">
        <ele>154.899</ele>
        <time>2018-12-03T14:57:27Z</time>
      </trkpt>
      <trkpt lat="48.71889" lon="2.47564">
        <ele>154.793</ele>
        <time>2018-12-03T14:57:32Z</time>
      </trkpt>
      <trkpt lat="48.71884" lon="2.47565">
        <ele>154.701</ele>
        <time>2018-12-03T14:57:36Z</time>
      </trkpt>
      <trkpt lat="48.71879" lon="2.47563">
        <ele>154.626</ele>
        <time>2018-12-03T14:57:39Z</time>
      </trkpt>
      <trkpt lat="48.71875" lon="2.4756">
        <ele>154.526</ele>
        <time>2018-12-03T14:57:43Z</time>
      </trkpt>
      <trkpt lat="48.71873" lon="2.47557">
        <ele>154.479</ele>
        <time>2018-12-03T14:57:45Z</time>
      </trkpt>
      <trkpt lat="48.71868" lon="2.47559">
        <ele>154.408</ele>
        <time>2018-12-03T14:57:48Z</time>
      </trkpt>
      <trkpt lat="48.71864" lon="2.47556">
        <ele>154.338</ele>
        <time>2018-12-03T14:57:51Z</time>
      </trkpt>
      <trkpt lat="48.71862" lon="2.47554">
        <ele>154.29</ele>
        <time>2018-12-03T14:57:53Z</time>
      </trkpt>
      <trkpt lat="48.71857" lon="2.4755">
        <ele>154.224</ele>
        <time>2018-12-03T14:57:56Z</time>
      </trkpt>
      <trkpt lat="48.71853" lon="2.47548">
        <ele>154.184</ele>
        <time>2018-12-03T14:57:58Z</time>
      </trkpt>
      <trkpt lat="48.71849" lon="2.47549">
        <ele>154.102</ele>
        <time>2018-12-03T14:58:03Z</time>
      </trkpt>
      <trkpt lat="48.71844" lon="2.4755">
        <ele>154.001</ele>
        <time>2018-12-03T14:58:08Z</time>
      </trkpt>
      <trkpt lat="48.7184" lon="2.47549">
        <ele>153.939</ele>
        <time>2018-12-03T14:58:11Z</time>
      </trkpt>
      <trkpt lat="48.71837" lon="2.47549">
        <ele>153.897</ele>
        <time>2018-12-03T14:58:13Z</time>
      </trkpt>
      <trkpt lat="48.71833" lon="2.47548">
        <ele>153.835</ele>
        <time>2018-12-03T14:58:16Z</time>
      </trkpt>
      <trkpt lat="48.71828" lon="2.47547">
        <ele>153.73</ele>
        <time>2018-12-03T14:58:21Z</time>
      </trkpt>
      <trkpt lat="48.71823" lon="2.47541">
        <ele>153.624</ele>
        <time>2018-12-03T14:58:26Z</time>
      </trkpt>
      <trkpt lat="48.71821" lon="2.47539">
        <ele>153.582</ele>
        <time>2018-12-03T14:58:28Z</time>
      </trkpt>
      <trkpt lat="48.71816" lon="2.47536">
        <ele>153.519</ele>
        <time>2018-12-03T14:58:31Z</time>
      </trkpt>
      <trkpt lat="48.71813" lon="2.47534">
        <ele>153.476</ele>
        <time>2018-12-03T14:58:33Z</time>
      </trkpt>
      <trkpt lat="48.71807" lon="2.47533">
        <ele>153.393</ele>
        <time>2018-12-03T14:58:37Z</time>
      </trkpt>
      <trkpt lat="48.71801" lon="2.47532">
        <ele>153.315</ele>
        <time>2018-12-03T14:58:41Z</time>
      </trkpt>
      <trkpt lat="48.71798" lon="2.47532">
        <ele>153.279</ele>
        <time>2018-12-03T14:58:43Z</time>
      </trkpt>
      <trkpt lat="48.71796" lon="2.47531">
        <ele>153.246</ele>
        <time>2018-12-03T14:58:45Z</time>
      </trkpt>
      <trkpt lat="48.71793" lon="2.47531">
        <ele>153.212</ele>
        <time>2018-12-03T14:58:47Z</time>
      </trkpt>
      <trkpt lat="48.7179" lon="2.4753">
        <ele>153.18</ele>
        <time>2018-12-03T14:58:49Z</time>
      </trkpt>
      <trkpt lat="48.71786" lon="2.47528">
        <ele>153.135</ele>
        <time>2018-12-03T14:58:52Z</time>
      </trkpt>
      <trkpt lat="48.71781" lon="2.47529">
        <ele>153.077</ele>
        <time>2018-12-03T14:58:56Z</time>
      </trkpt>
      <trkpt lat="48.71777" lon="2.47527">
        <ele>153.035</ele>
        <time>2018-12-03T14:58:59Z</time>
      </trkpt>
      <trkpt lat="48.71771" lon="2.47526">
        <ele>152.976</ele>
        <time>2018-12-03T14:59:03Z</time>
      </trkpt>
      <trkpt lat="48.71769" lon="2.47525">
        <ele>152.946</ele>
        <time>2018-12-03T14:59:05Z</time>
      </trkpt>
      <trkpt lat="48.71764" lon="2.47525">
        <ele>152.889</ele>
        <time>2018-12-03T14:59:09Z</time>
      </trkpt>
      <trkpt lat="48.7176" lon="2.47525">
        <ele>152.848</ele>
        <time>2018-12-03T14:59:12Z</time>
      </trkpt>
      <trkpt lat="48.71755" lon="2.47528">
        <ele>152.763</ele>
        <time>2018-12-03T14:59:18Z</time>
      </trkpt>
      <trkpt lat="48.71751" lon="2.4753">
        <ele>152.703</ele>
        <time>2018-12-03T14:59:22Z</time>
      </trkpt>
      <trkpt lat="48.71747" lon="2.47535">
        <ele>152.605</ele>
        <time>2018-12-03T14:59:28Z</time>
      </trkpt>
      <trkpt lat="48.71747" lon="2.47535">
        <ele>152.605</ele>
        <time>2018-12-03T14:59:35Z</time>
      </trkpt>
      <trkpt lat="48.71747" lon="2.47535">
        <ele>80.7</ele>
        <time>2018-12-03T14:59:35Z</time>
      </trkpt>
      <trkpt lat="48.71747" lon="2.47535">
        <ele>80.7</ele>
        <time>2018-12-03T14:59:46Z</time>
      </trkpt>
      <trkpt lat="48.71738" lon="2.47545">
        <ele>152.348</ele>
        <time>2018-12-03T14:59:46Z</time>
      </trkpt>
      <trkpt lat="48.71736" lon="2.47547">
        <ele>152.286</ele>
        <time>2018-12-03T14:59:50Z</time>
      </trkpt>
      <trkpt lat="48.71731" lon="2.47551">
        <ele>152.207</ele>
        <time>2018-12-03T14:59:54Z</time>
      </trkpt>
      <trkpt lat="48.71726" lon="2.47553">
        <ele>152.088</ele>
        <time>2018-12-03T15:00:00Z</time>
      </trkpt>
      <trkpt lat="48.71723" lon="2.47557">
        <ele>151.993</ele>
        <time>2018-12-03T15:00:05Z</time>
      </trkpt>
      <trkpt lat="48.71718" lon="2.47559">
        <ele>151.871</ele>
        <time>2018-12-03T15:00:11Z</time>
      </trkpt>
      <trkpt lat="48.71713" lon="2.47563">
        <ele>151.761</ele>
        <time>2018-12-03T15:00:16Z</time>
      </trkpt>
      <trkpt lat="48.71709" lon="2.47567">
        <ele>151.647</ele>
        <time>2018-12-03T15:00:21Z</time>
      </trkpt>
      <trkpt lat="48.71705" lon="2.4757">
        <ele>151.46</ele>
        <time>2018-12-03T15:00:29Z</time>
      </trkpt>
      <trkpt lat="48.71701" lon="2.47572">
        <ele>151.34</ele>
        <time>2018-12-03T15:00:34Z</time>
      </trkpt>
      <trkpt lat="48.71699" lon="2.47573">
        <ele>151.265</ele>
        <time>2018-12-03T15:00:38Z</time>
      </trkpt>
      <trkpt lat="48.71696" lon="2.47575">
        <ele>151.235</ele>
        <time>2018-12-03T15:00:41Z</time>
      </trkpt>
      <trkpt lat="48.71691" lon="2.47575">
        <ele>151.109</ele>
        <time>2018-12-03T15:00:46Z</time>
      </trkpt>
      <trkpt lat="48.71687" lon="2.4758">
        <ele>150.959</ele>
        <time>2018-12-03T15:00:52Z</time>
      </trkpt>
      <trkpt lat="48.71685" lon="2.47582">
        <ele>150.882</ele>
        <time>2018-12-03T15:00:55Z</time>
      </trkpt>
      <trkpt lat="48.71683" lon="2.47585">
        <ele>150.805</ele>
        <time>2018-12-03T15:00:58Z</time>
      </trkpt>
      <trkpt lat="48.71678" lon="2.4759">
        <ele>150.675</ele>
        <time>2018-12-03T15:01:03Z</time>
      </trkpt>
      <trkpt lat="48.71675" lon="2.47594">
        <ele>150.57</ele>
        <time>2018-12-03T15:01:07Z</time>
      </trkpt>
      <trkpt lat="48.7167" lon="2.47598">
        <ele>150.462</ele>
        <time>2018-12-03T15:01:11Z</time>
      </trkpt>
      <trkpt lat="48.71667" lon="2.47603">
        <ele>150.353</ele>
        <time>2018-12-03T15:01:15Z</time>
      </trkpt>
      <trkpt lat="48.71666" lon="2.47611">
        <ele>150.191</ele>
        <time>2018-12-03T15:01:21Z</time>
      </trkpt>
      <trkpt lat="48.71667" lon="2.47618">
        <ele>149.995</ele>
        <time>2018-12-03T15:01:29Z</time>
      </trkpt>
      <trkpt lat="48.71671" lon="2.47624">
        <ele>149.828</ele>
        <time>2018-12-03T15:01:34Z</time>
      </trkpt>
      <trkpt lat="48.71675" lon="2.47628">
        <ele>149.695</ele>
        <time>2018-12-03T15:01:38Z</time>
      </trkpt>
      <trkpt lat="48.71678" lon="2.47634">
        <ele>149.594</ele>
        <time>2018-12-03T15:01:41Z</time>
      </trkpt>
      <trkpt lat="48.7168" lon="2.47639">
        <ele>149.495</ele>
        <time>2018-12-03T15:01:44Z</time>
      </trkpt>
      <trkpt lat="48.71683" lon="2.47648">
        <ele>149.329</ele>
        <time>2018-12-03T15:01:49Z</time>
      </trkpt>
      <trkpt lat="48.71685" lon="2.47655">
        <ele>149.229</ele>
        <time>2018-12-03T15:01:52Z</time>
      </trkpt>
      <trkpt lat="48.71685" lon="2.47663">
        <ele>149.127</ele>
        <time>2018-12-03T15:01:55Z</time>
      </trkpt>
      <trkpt lat="48.71685" lon="2.47671">
        <ele>148.991</ele>
        <time>2018-12-03T15:01:59Z</time>
      </trkpt>
      <trkpt lat="48.71688" lon="2.47678">
        <ele>148.854</ele>
        <time>2018-12-03T15:02:03Z</time>
      </trkpt>
      <trkpt lat="48.71691" lon="2.47685">
        <ele>148.683</ele>
        <time>2018-12-03T15:02:08Z</time>
      </trkpt>
      <trkpt lat="48.71694" lon="2.47692">
        <ele>148.576</ele>
        <time>2018-12-03T15:02:12Z</time>
      </trkpt>
      <trkpt lat="48.71695" lon="2.47696">
        <ele>148.42</ele>
        <time>2018-12-03T15:02:17Z</time>
      </trkpt>
      <trkpt lat="48.71697" lon="2.47703">
        <ele>148.306</ele>
        <time>2018-12-03T15:02:20Z</time>
      </trkpt>
      <trkpt lat="48.71698" lon="2.47707">
        <ele>148.231</ele>
        <time>2018-12-03T15:02:22Z</time>
      </trkpt>
      <trkpt lat="48.71699" lon="2.47711">
        <ele>148.156</ele>
        <time>2018-12-03T15:02:24Z</time>
      </trkpt>
      <trkpt lat="48.717" lon="2.47719">
        <ele>148.045</ele>
        <time>2018-12-03T15:02:27Z</time>
      </trkpt>
      <trkpt lat="48.717" lon="2.47723">
        <ele>147.972</ele>
        <time>2018-12-03T15:02:29Z</time>
      </trkpt>
      <trkpt lat="48.71702" lon="2.47731">
        <ele>147.827</ele>
        <time>2018-12-03T15:02:33Z</time>
      </trkpt>
      <trkpt lat="48.71703" lon="2.47736">
        <ele>147.718</ele>
        <time>2018-12-03T15:02:36Z</time>
      </trkpt>
      <trkpt lat="48.71704" lon="2.4774">
        <ele>147.646</ele>
        <time>2018-12-03T15:02:38Z</time>
      </trkpt>
      <trkpt lat="48.71706" lon="2.47748">
        <ele>147.5</ele>
        <time>2018-12-03T15:02:42Z</time>
      </trkpt>
      <trkpt lat="48.71707" lon="2.47754">
        <ele>147.355</ele>
        <time>2018-12-03T15:02:46Z</time>
      </trkpt>
      <trkpt lat="48.71708" lon="2.47758">
        <ele>147.246</ele>
        <time>2018-12-03T15:02:49Z</time>
      </trkpt>
      <trkpt lat="48.71708" lon="2.47765">
        <ele>147.137</ele>
        <time>2018-12-03T15:02:52Z</time>
      </trkpt>
      <trkpt lat="48.71711" lon="2.47773">
        <ele>146.991</ele>
        <time>2018-12-03T15:02:56Z</time>
      </trkpt>
      <trkpt lat="48.71711" lon="2.4778">
        <ele>146.807</ele>
        <time>2018-12-03T15:03:01Z</time>
      </trkpt>
      <trkpt lat="48.71712" lon="2.47786">
        <ele>146.66</ele>
        <time>2018-12-03T15:03:05Z</time>
      </trkpt>
      <trkpt lat="48.71715" lon="2.47792">
        <ele>146.476</ele>
        <time>2018-12-03T15:03:10Z</time>
      </trkpt>
      <trkpt lat="48.71718" lon="2.478">
        <ele>146.335</ele>
        <time>2018-12-03T15:03:14Z</time>
      </trkpt>
      <trkpt lat="48.71718" lon="2.47807">
        <ele>146.23</ele>
        <time>2018-12-03T15:03:17Z</time>
      </trkpt>
      <trkpt lat="48.71718" lon="2.47815">
        <ele>146.124</ele>
        <time>2018-12-03T15:03:20Z</time>
      </trkpt>
      <trkpt lat="48.71715" lon="2.47821">
        <ele>146.016</ele>
        <time>2018-12-03T15:03:23Z</time>
      </trkpt>
      <trkpt lat="48.71711" lon="2.47825">
        <ele>145.906</ele>
        <time>2018-12-03T15:03:26Z</time>
      </trkpt>
      <trkpt lat="48.71706" lon="2.47826">
        <ele>145.762</ele>
        <time>2018-12-03T15:03:30Z</time>
      </trkpt>
      <trkpt lat="48.71703" lon="2.47827">
        <ele>145.652</ele>
        <time>2018-12-03T15:03:33Z</time>
      </trkpt>
      <trkpt lat="48.717" lon="2.47827">
        <ele>145.577</ele>
        <time>2018-12-03T15:03:35Z</time>
      </trkpt>
      <trkpt lat="48.71697" lon="2.47827">
        <ele>145.462</ele>
        <time>2018-12-03T15:03:38Z</time>
      </trkpt>
      <trkpt lat="48.71692" lon="2.47828">
        <ele>145.268</ele>
        <time>2018-12-03T15:03:43Z</time>
      </trkpt>
      <trkpt lat="48.71687" lon="2.47829">
        <ele>145.112</ele>
        <time>2018-12-03T15:03:47Z</time>
      </trkpt>
      <trkpt lat="48.71684" lon="2.4783">
        <ele>144.996</ele>
        <time>2018-12-03T15:03:50Z</time>
      </trkpt>
      <trkpt lat="48.71682" lon="2.4783">
        <ele>144.88</ele>
        <time>2018-12-03T15:03:53Z</time>
      </trkpt>
      <trkpt lat="48.71677" lon="2.47831">
        <ele>144.727</ele>
        <time>2018-12-03T15:03:57Z</time>
      </trkpt>
      <trkpt lat="48.71673" lon="2.47834">
        <ele>144.452</ele>
        <time>2018-12-03T15:04:04Z</time>
      </trkpt>
      <trkpt lat="48.7167" lon="2.4784">
        <ele>144.292</ele>
        <time>2018-12-03T15:04:08Z</time>
      </trkpt>
      <trkpt lat="48.71665" lon="2.47841">
        <ele>144.167</ele>
        <time>2018-12-03T15:04:11Z</time>
      </trkpt>
      <trkpt lat="48.71659" lon="2.47842">
        <ele>144.038</ele>
        <time>2018-12-03T15:04:14Z</time>
      </trkpt>
      <trkpt lat="48.71656" lon="2.47843">
        <ele>143.951</ele>
        <time>2018-12-03T15:04:16Z</time>
      </trkpt>
      <trkpt lat="48.7165" lon="2.47844">
        <ele>143.82</ele>
        <time>2018-12-03T15:04:19Z</time>
      </trkpt>
      <trkpt lat="48.71644" lon="2.47843">
        <ele>143.645</ele>
        <time>2018-12-03T15:04:23Z</time>
      </trkpt>
      <trkpt lat="48.71638" lon="2.47844">
        <ele>143.469</ele>
        <time>2018-12-03T15:04:27Z</time>
      </trkpt>
      <trkpt lat="48.71633" lon="2.47847">
        <ele>143.245</ele>
        <time>2018-12-03T15:04:32Z</time>
      </trkpt>
      <trkpt lat="48.71628" lon="2.47847">
        <ele>143.11</ele>
        <time>2018-12-03T15:04:35Z</time>
      </trkpt>
      <trkpt lat="48.71625" lon="2.47848">
        <ele>143.019</ele>
        <time>2018-12-03T15:04:37Z</time>
      </trkpt>
      <trkpt lat="48.71619" lon="2.47848">
        <ele>142.833</ele>
        <time>2018-12-03T15:04:41Z</time>
      </trkpt>
      <trkpt lat="48.71613" lon="2.4785">
        <ele>142.694</ele>
        <time>2018-12-03T15:04:44Z</time>
      </trkpt>
      <trkpt lat="48.71608" lon="2.47852">
        <ele>142.464</ele>
        <time>2018-12-03T15:04:49Z</time>
      </trkpt>
      <trkpt lat="48.71606" lon="2.47853">
        <ele>142.372</ele>
        <time>2018-12-03T15:04:51Z</time>
      </trkpt>
      <trkpt lat="48.71601" lon="2.47853">
        <ele>142.137</ele>
        <time>2018-12-03T15:04:56Z</time>
      </trkpt>
      <trkpt lat="48.71598" lon="2.47853">
        <ele>141.992</ele>
        <time>2018-12-03T15:04:59Z</time>
      </trkpt>
      <trkpt lat="48.71593" lon="2.47854">
        <ele>141.741</ele>
        <time>2018-12-03T15:05:04Z</time>
      </trkpt>
      <trkpt lat="48.7159" lon="2.47854">
        <ele>141.596</ele>
        <time>2018-12-03T15:05:07Z</time>
      </trkpt>
      <trkpt lat="48.71586" lon="2.47859">
        <ele>141.404</ele>
        <time>2018-12-03T15:05:11Z</time>
      </trkpt>
      <trkpt lat="48.71585" lon="2.47862">
        <ele>141.307</ele>
        <time>2018-12-03T15:05:13Z</time>
      </trkpt>
      <trkpt lat="48.71581" lon="2.47864">
        <ele>141.062</ele>
        <time>2018-12-03T15:05:18Z</time>
      </trkpt>
      <trkpt lat="48.71577" lon="2.47868">
        <ele>140.823</ele>
        <time>2018-12-03T15:05:23Z</time>
      </trkpt>
      <trkpt lat="48.71571" lon="2.47865">
        <ele>140.587</ele>
        <time>2018-12-03T15:05:28Z</time>
      </trkpt>
      <trkpt lat="48.71567" lon="2.47862">
        <ele>140.348</ele>
        <time>2018-12-03T15:05:33Z</time>
      </trkpt>
      <trkpt lat="48.71562" lon="2.47864">
        <ele>140.157</ele>
        <time>2018-12-03T15:05:37Z</time>
      </trkpt>
      <trkpt lat="48.71557" lon="2.47866">
        <ele>139.965</ele>
        <time>2018-12-03T15:05:41Z</time>
      </trkpt>
      <trkpt lat="48.71551" lon="2.47865">
        <ele>139.769</ele>
        <time>2018-12-03T15:05:45Z</time>
      </trkpt>
      <trkpt lat="48.71546" lon="2.47867">
        <ele>139.522</ele>
        <time>2018-12-03T15:05:50Z</time>
      </trkpt>
      <trkpt lat="48.71543" lon="2.47868">
        <ele>139.425</ele>
        <time>2018-12-03T15:05:52Z</time>
      </trkpt>
      <trkpt lat="48.71539" lon="2.4787">
        <ele>139.184</ele>
        <time>2018-12-03T15:05:57Z</time>
      </trkpt>
      <trkpt lat="48.71534" lon="2.47871">
        <ele>138.994</ele>
        <time>2018-12-03T15:06:01Z</time>
      </trkpt>
      <trkpt lat="48.71531" lon="2.47872">
        <ele>138.9</ele>
        <time>2018-12-03T15:06:03Z</time>
      </trkpt>
      <trkpt lat="48.71528" lon="2.47872">
        <ele>138.807</ele>
        <time>2018-12-03T15:06:05Z</time>
      </trkpt>
      <trkpt lat="48.71525" lon="2.47877">
        <ele>138.618</ele>
        <time>2018-12-03T15:06:09Z</time>
      </trkpt>
      <trkpt lat="48.7152" lon="2.47881">
        <ele>138.38</ele>
        <time>2018-12-03T15:06:14Z</time>
      </trkpt>
      <trkpt lat="48.71515" lon="2.47882">
        <ele>138.192</ele>
        <time>2018-12-03T15:06:18Z</time>
      </trkpt>
      <trkpt lat="48.71512" lon="2.47883">
        <ele>138.099</ele>
        <time>2018-12-03T15:06:20Z</time>
      </trkpt>
      <trkpt lat="48.71507" lon="2.47886">
        <ele>137.826</ele>
        <time>2018-12-03T15:06:26Z</time>
      </trkpt>
      <trkpt lat="48.71502" lon="2.47885">
        <ele>137.563</ele>
        <time>2018-12-03T15:06:32Z</time>
      </trkpt>
      <trkpt lat="48.71502" lon="2.47885">
        <ele>37</ele>
        <time>2018-12-03T15:06:44Z</time>
      </trkpt>
      <trkpt lat="48.71502" lon="2.47885">
        <ele>37</ele>
        <time>2018-12-03T15:06:46Z</time>
      </trkpt>
    </trkseg>
  </trk>
</gpx>